<?xml version="1.0" encoding="UTF-8" standalone="no" ?>
<gpx xmlns="http://www.topografix.com/GPX/1/1" xmlns:xsi="http://www.w3.org/2001/XMLSchema-instance" xsi:schemaLocation="http://www.topografix.com/GPX/1/1 http://www.topografix.com/GPX/1/1/gpx.xsd" version="1.1" creator="VisuGPX - https://www.visugpx.com">
  <metadata>
    <name>Vers le pont Sarrazin</name>
    <desc><![CDATA[Vers le pont Sarrazin]]></desc>
  </metadata>
  <trk>
    <name><![CDATA[Rue Antoine Coysevox]]></name>
    <desc><![CDATA[]]></desc>
    <trkseg>
      <trkpt lat="47.51798" lon="6.77469">
        <ele>380</ele>
        <time>2014-09-28T07:12:49.000Z</time>
      </trkpt>
      <trkpt lat="47.51798" lon="6.77473">
        <ele>379.4</ele>
        <time>2014-09-28T07:13:14.000Z</time>
      </trkpt>
      <trkpt lat="47.51801" lon="6.77478">
        <ele>380.6</ele>
        <time>2014-09-28T07:13:15.000Z</time>
      </trkpt>
      <trkpt lat="47.51801" lon="6.77481">
        <ele>382</ele>
        <time>2014-09-28T07:13:16.000Z</time>
      </trkpt>
      <trkpt lat="47.51804" lon="6.77485">
        <ele>383.3</ele>
        <time>2014-09-28T07:13:17.000Z</time>
      </trkpt>
      <trkpt lat="47.51807" lon="6.77489">
        <ele>384.5</ele>
        <time>2014-09-28T07:13:19.000Z</time>
      </trkpt>
      <trkpt lat="47.51807" lon="6.77493">
        <ele>386.2</ele>
        <time>2014-09-28T07:13:20.000Z</time>
      </trkpt>
      <trkpt lat="47.51802" lon="6.77493">
        <ele>387.8</ele>
        <time>2014-09-28T07:13:21.000Z</time>
      </trkpt>
      <trkpt lat="47.51801" lon="6.77494">
        <ele>386.7</ele>
        <time>2014-09-28T07:13:22.000Z</time>
      </trkpt>
      <trkpt lat="47.51799" lon="6.77494">
        <ele>387</ele>
        <time>2014-09-28T07:13:23.000Z</time>
      </trkpt>
      <trkpt lat="47.51796" lon="6.77493">
        <ele>386.7</ele>
        <time>2014-09-28T07:13:24.000Z</time>
      </trkpt>
      <trkpt lat="47.51794" lon="6.77493">
        <ele>385.5</ele>
        <time>2014-09-28T07:13:25.000Z</time>
      </trkpt>
      <trkpt lat="47.51792" lon="6.77492">
        <ele>385.8</ele>
        <time>2014-09-28T07:13:26.000Z</time>
      </trkpt>
      <trkpt lat="47.51785" lon="6.77489">
        <ele>379.7</ele>
        <time>2014-09-28T07:13:29.000Z</time>
      </trkpt>
      <trkpt lat="47.51782" lon="6.77488">
        <ele>380.7</ele>
        <time>2014-09-28T07:13:30.000Z</time>
      </trkpt>
      <trkpt lat="47.51779" lon="6.77486">
        <ele>380.7</ele>
        <time>2014-09-28T07:13:31.000Z</time>
      </trkpt>
      <trkpt lat="47.51776" lon="6.77485">
        <ele>380.5</ele>
        <time>2014-09-28T07:13:32.000Z</time>
      </trkpt>
      <trkpt lat="47.51772" lon="6.77485">
        <ele>381.1</ele>
        <time>2014-09-28T07:13:33.000Z</time>
      </trkpt>
      <trkpt lat="47.51769" lon="6.77484">
        <ele>381.5</ele>
        <time>2014-09-28T07:13:34.000Z</time>
      </trkpt>
      <trkpt lat="47.51766" lon="6.77484">
        <ele>381.2</ele>
        <time>2014-09-28T07:13:35.000Z</time>
      </trkpt>
      <trkpt lat="47.51763" lon="6.77483">
        <ele>380.3</ele>
        <time>2014-09-28T07:13:36.000Z</time>
      </trkpt>
      <trkpt lat="47.51759" lon="6.77482">
        <ele>380.3</ele>
        <time>2014-09-28T07:13:37.000Z</time>
      </trkpt>
      <trkpt lat="47.51756" lon="6.77481">
        <ele>380.5</ele>
        <time>2014-09-28T07:13:38.000Z</time>
      </trkpt>
      <trkpt lat="47.51753" lon="6.77479">
        <ele>380.1</ele>
        <time>2014-09-28T07:13:39.000Z</time>
      </trkpt>
      <trkpt lat="47.5175" lon="6.77478">
        <ele>379.2</ele>
        <time>2014-09-28T07:13:40.000Z</time>
      </trkpt>
      <trkpt lat="47.51747" lon="6.77477">
        <ele>379.3</ele>
        <time>2014-09-28T07:13:41.000Z</time>
      </trkpt>
      <trkpt lat="47.51744" lon="6.77477">
        <ele>379.6</ele>
        <time>2014-09-28T07:13:42.000Z</time>
      </trkpt>
      <trkpt lat="47.51741" lon="6.77475">
        <ele>379.8</ele>
        <time>2014-09-28T07:13:43.000Z</time>
      </trkpt>
      <trkpt lat="47.51739" lon="6.77472">
        <ele>379.2</ele>
        <time>2014-09-28T07:13:44.000Z</time>
      </trkpt>
      <trkpt lat="47.51738" lon="6.77468">
        <ele>380.3</ele>
        <time>2014-09-28T07:13:45.000Z</time>
      </trkpt>
      <trkpt lat="47.51738" lon="6.77462">
        <ele>381.1</ele>
        <time>2014-09-28T07:13:46.000Z</time>
      </trkpt>
      <trkpt lat="47.51738" lon="6.77456">
        <ele>381.3</ele>
        <time>2014-09-28T07:13:47.000Z</time>
      </trkpt>
      <trkpt lat="47.5174" lon="6.7745">
        <ele>382</ele>
        <time>2014-09-28T07:13:48.000Z</time>
      </trkpt>
      <trkpt lat="47.51742" lon="6.77444">
        <ele>382.5</ele>
        <time>2014-09-28T07:13:49.000Z</time>
      </trkpt>
      <trkpt lat="47.51744" lon="6.77439">
        <ele>383.3</ele>
        <time>2014-09-28T07:13:50.000Z</time>
      </trkpt>
      <trkpt lat="47.51745" lon="6.77433">
        <ele>383.6</ele>
        <time>2014-09-28T07:13:51.000Z</time>
      </trkpt>
      <trkpt lat="47.51746" lon="6.77426">
        <ele>384.4</ele>
        <time>2014-09-28T07:13:52.000Z</time>
      </trkpt>
      <trkpt lat="47.51747" lon="6.7742">
        <ele>385.4</ele>
        <time>2014-09-28T07:13:53.000Z</time>
      </trkpt>
      <trkpt lat="47.51748" lon="6.77414">
        <ele>385.5</ele>
        <time>2014-09-28T07:13:54.000Z</time>
      </trkpt>
      <trkpt lat="47.51749" lon="6.77407">
        <ele>385.9</ele>
        <time>2014-09-28T07:13:55.000Z</time>
      </trkpt>
      <trkpt lat="47.5175" lon="6.774">
        <ele>385.6</ele>
        <time>2014-09-28T07:13:56.000Z</time>
      </trkpt>
      <trkpt lat="47.5175" lon="6.77391">
        <ele>386.6</ele>
        <time>2014-09-28T07:13:57.000Z</time>
      </trkpt>
      <trkpt lat="47.51753" lon="6.77385">
        <ele>388.3</ele>
        <time>2014-09-28T07:13:58.000Z</time>
      </trkpt>
      <trkpt lat="47.51754" lon="6.77379">
        <ele>389.3</ele>
        <time>2014-09-28T07:13:59.000Z</time>
      </trkpt>
      <trkpt lat="47.51754" lon="6.77372">
        <ele>389.4</ele>
        <time>2014-09-28T07:14:00.000Z</time>
      </trkpt>
      <trkpt lat="47.51755" lon="6.77366">
        <ele>389.9</ele>
        <time>2014-09-28T07:14:01.000Z</time>
      </trkpt>
      <trkpt lat="47.51756" lon="6.77359">
        <ele>391</ele>
        <time>2014-09-28T07:14:02.000Z</time>
      </trkpt>
      <trkpt lat="47.51756" lon="6.77353">
        <ele>391</ele>
        <time>2014-09-28T07:14:03.000Z</time>
      </trkpt>
      <trkpt lat="47.51757" lon="6.77346">
        <ele>391.2</ele>
        <time>2014-09-28T07:14:04.000Z</time>
      </trkpt>
      <trkpt lat="47.51758" lon="6.77338">
        <ele>391.8</ele>
        <time>2014-09-28T07:14:05.000Z</time>
      </trkpt>
      <trkpt lat="47.51759" lon="6.77332">
        <ele>392.5</ele>
        <time>2014-09-28T07:14:06.000Z</time>
      </trkpt>
      <trkpt lat="47.5176" lon="6.77325">
        <ele>392</ele>
        <time>2014-09-28T07:14:07.000Z</time>
      </trkpt>
      <trkpt lat="47.51761" lon="6.77319">
        <ele>391.4</ele>
        <time>2014-09-28T07:14:08.000Z</time>
      </trkpt>
      <trkpt lat="47.51763" lon="6.77313">
        <ele>391.3</ele>
        <time>2014-09-28T07:14:09.000Z</time>
      </trkpt>
      <trkpt lat="47.51763" lon="6.77307">
        <ele>391.7</ele>
        <time>2014-09-28T07:14:10.000Z</time>
      </trkpt>
      <trkpt lat="47.51765" lon="6.77304">
        <ele>390.5</ele>
        <time>2014-09-28T07:14:11.000Z</time>
      </trkpt>
      <trkpt lat="47.51766" lon="6.77302">
        <ele>390</ele>
        <time>2014-09-28T07:14:12.000Z</time>
      </trkpt>
      <trkpt lat="47.51767" lon="6.77306">
        <ele>388.6</ele>
        <time>2014-09-28T07:14:26.000Z</time>
      </trkpt>
      <trkpt lat="47.51765" lon="6.77312">
        <ele>385.6</ele>
        <time>2014-09-28T07:14:34.000Z</time>
      </trkpt>
      <trkpt lat="47.51764" lon="6.77315">
        <ele>386.2</ele>
        <time>2014-09-28T07:14:35.000Z</time>
      </trkpt>
      <trkpt lat="47.51762" lon="6.77318">
        <ele>385.5</ele>
        <time>2014-09-28T07:14:36.000Z</time>
      </trkpt>
      <trkpt lat="47.5176" lon="6.77324">
        <ele>385.7</ele>
        <time>2014-09-28T07:14:37.000Z</time>
      </trkpt>
      <trkpt lat="47.51758" lon="6.7733">
        <ele>386.2</ele>
        <time>2014-09-28T07:14:38.000Z</time>
      </trkpt>
      <trkpt lat="47.51757" lon="6.77336">
        <ele>386.2</ele>
        <time>2014-09-28T07:14:39.000Z</time>
      </trkpt>
      <trkpt lat="47.51756" lon="6.77343">
        <ele>386.6</ele>
        <time>2014-09-28T07:14:40.000Z</time>
      </trkpt>
      <trkpt lat="47.51755" lon="6.77348">
        <ele>387</ele>
        <time>2014-09-28T07:14:40.999Z</time>
      </trkpt>
      <trkpt lat="47.51753" lon="6.77355">
        <ele>388</ele>
        <time>2014-09-28T07:14:42.000Z</time>
      </trkpt>
      <trkpt lat="47.51751" lon="6.7736">
        <ele>387.9</ele>
        <time>2014-09-28T07:14:43.000Z</time>
      </trkpt>
      <trkpt lat="47.5175" lon="6.77366">
        <ele>387.7</ele>
        <time>2014-09-28T07:14:44.000Z</time>
      </trkpt>
      <trkpt lat="47.51748" lon="6.77371">
        <ele>388.3</ele>
        <time>2014-09-28T07:14:45.000Z</time>
      </trkpt>
      <trkpt lat="47.51747" lon="6.77377">
        <ele>388.5</ele>
        <time>2014-09-28T07:14:46.000Z</time>
      </trkpt>
      <trkpt lat="47.51745" lon="6.77383">
        <ele>388.4</ele>
        <time>2014-09-28T07:14:47.000Z</time>
      </trkpt>
      <trkpt lat="47.51744" lon="6.77389">
        <ele>388.7</ele>
        <time>2014-09-28T07:14:48.000Z</time>
      </trkpt>
      <trkpt lat="47.51742" lon="6.77394">
        <ele>388.6</ele>
        <time>2014-09-28T07:14:49.000Z</time>
      </trkpt>
      <trkpt lat="47.51741" lon="6.774">
        <ele>388.8</ele>
        <time>2014-09-28T07:14:50.000Z</time>
      </trkpt>
      <trkpt lat="47.51739" lon="6.77405">
        <ele>388.9</ele>
        <time>2014-09-28T07:14:51.000Z</time>
      </trkpt>
      <trkpt lat="47.51738" lon="6.77411">
        <ele>388.5</ele>
        <time>2014-09-28T07:14:52.000Z</time>
      </trkpt>
      <trkpt lat="47.51736" lon="6.77417">
        <ele>388.8</ele>
        <time>2014-09-28T07:14:53.000Z</time>
      </trkpt>
      <trkpt lat="47.51735" lon="6.77423">
        <ele>388.9</ele>
        <time>2014-09-28T07:14:54.000Z</time>
      </trkpt>
      <trkpt lat="47.51734" lon="6.77429">
        <ele>389.1</ele>
        <time>2014-09-28T07:14:55.000Z</time>
      </trkpt>
      <trkpt lat="47.51732" lon="6.77435">
        <ele>389.2</ele>
        <time>2014-09-28T07:14:55.999Z</time>
      </trkpt>
      <trkpt lat="47.51731" lon="6.77441">
        <ele>390.2</ele>
        <time>2014-09-28T07:14:57.000Z</time>
      </trkpt>
      <trkpt lat="47.5173" lon="6.77447">
        <ele>389.7</ele>
        <time>2014-09-28T07:14:58.000Z</time>
      </trkpt>
      <trkpt lat="47.51728" lon="6.77453">
        <ele>389.2</ele>
        <time>2014-09-28T07:14:59.000Z</time>
      </trkpt>
      <trkpt lat="47.51727" lon="6.77459">
        <ele>389.8</ele>
        <time>2014-09-28T07:15:00.000Z</time>
      </trkpt>
      <trkpt lat="47.51726" lon="6.77465">
        <ele>390.3</ele>
        <time>2014-09-28T07:15:01.000Z</time>
      </trkpt>
      <trkpt lat="47.51724" lon="6.77473">
        <ele>390.6</ele>
        <time>2014-09-28T07:15:02.000Z</time>
      </trkpt>
      <trkpt lat="47.51723" lon="6.7748">
        <ele>390.5</ele>
        <time>2014-09-28T07:15:03.000Z</time>
      </trkpt>
      <trkpt lat="47.51722" lon="6.77487">
        <ele>390.5</ele>
        <time>2014-09-28T07:15:04.000Z</time>
      </trkpt>
      <trkpt lat="47.51721" lon="6.77493">
        <ele>390.6</ele>
        <time>2014-09-28T07:15:05.000Z</time>
      </trkpt>
      <trkpt lat="47.5172" lon="6.775">
        <ele>389.5</ele>
        <time>2014-09-28T07:15:06.000Z</time>
      </trkpt>
      <trkpt lat="47.51721" lon="6.77506">
        <ele>389.6</ele>
        <time>2014-09-28T07:15:07.000Z</time>
      </trkpt>
      <trkpt lat="47.5172" lon="6.77511">
        <ele>388.6</ele>
        <time>2014-09-28T07:15:08.000Z</time>
      </trkpt>
      <trkpt lat="47.51719" lon="6.77518">
        <ele>390</ele>
        <time>2014-09-28T07:15:09.000Z</time>
      </trkpt>
      <trkpt lat="47.51718" lon="6.77524">
        <ele>390.8</ele>
        <time>2014-09-28T07:15:10.000Z</time>
      </trkpt>
      <trkpt lat="47.51717" lon="6.77529">
        <ele>391.1</ele>
        <time>2014-09-28T07:15:11.000Z</time>
      </trkpt>
      <trkpt lat="47.51716" lon="6.77535">
        <ele>389.3</ele>
        <time>2014-09-28T07:15:12.000Z</time>
      </trkpt>
      <trkpt lat="47.51715" lon="6.7754">
        <ele>389</ele>
        <time>2014-09-28T07:15:13.000Z</time>
      </trkpt>
      <trkpt lat="47.51713" lon="6.77545">
        <ele>389</ele>
        <time>2014-09-28T07:15:14.000Z</time>
      </trkpt>
      <trkpt lat="47.51712" lon="6.77551">
        <ele>389.5</ele>
        <time>2014-09-28T07:15:15.000Z</time>
      </trkpt>
      <trkpt lat="47.5171" lon="6.77555">
        <ele>388.4</ele>
        <time>2014-09-28T07:15:16.000Z</time>
      </trkpt>
      <trkpt lat="47.51707" lon="6.77557">
        <ele>388.1</ele>
        <time>2014-09-28T07:15:17.000Z</time>
      </trkpt>
      <trkpt lat="47.51704" lon="6.77556">
        <ele>388.3</ele>
        <time>2014-09-28T07:15:18.000Z</time>
      </trkpt>
      <trkpt lat="47.51701" lon="6.77553">
        <ele>388.2</ele>
        <time>2014-09-28T07:15:19.000Z</time>
      </trkpt>
      <trkpt lat="47.51697" lon="6.77538">
        <ele>390.4</ele>
        <time>2014-09-28T07:15:20.000Z</time>
      </trkpt>
      <trkpt lat="47.51694" lon="6.77534">
        <ele>390.8</ele>
        <time>2014-09-28T07:15:21.000Z</time>
      </trkpt>
      <trkpt lat="47.51689" lon="6.7753">
        <ele>390.7</ele>
        <time>2014-09-28T07:15:22.000Z</time>
      </trkpt>
      <trkpt lat="47.51685" lon="6.77526">
        <ele>391.2</ele>
        <time>2014-09-28T07:15:23.000Z</time>
      </trkpt>
      <trkpt lat="47.51681" lon="6.77522">
        <ele>390.7</ele>
        <time>2014-09-28T07:15:24.000Z</time>
      </trkpt>
      <trkpt lat="47.51676" lon="6.77516">
        <ele>390</ele>
        <time>2014-09-28T07:15:25.000Z</time>
      </trkpt>
      <trkpt lat="47.51672" lon="6.77511">
        <ele>388.8</ele>
        <time>2014-09-28T07:15:26.000Z</time>
      </trkpt>
      <trkpt lat="47.51661" lon="6.77495">
        <ele>388.1</ele>
        <time>2014-09-28T07:15:29.000Z</time>
      </trkpt>
      <trkpt lat="47.51656" lon="6.77489">
        <ele>387.7</ele>
        <time>2014-09-28T07:15:30.000Z</time>
      </trkpt>
      <trkpt lat="47.51652" lon="6.77483">
        <ele>387.2</ele>
        <time>2014-09-28T07:15:31.000Z</time>
      </trkpt>
      <trkpt lat="47.51647" lon="6.77477">
        <ele>386.8</ele>
        <time>2014-09-28T07:15:32.000Z</time>
      </trkpt>
      <trkpt lat="47.51643" lon="6.77472">
        <ele>386.1</ele>
        <time>2014-09-28T07:15:33.000Z</time>
      </trkpt>
      <trkpt lat="47.51638" lon="6.77464">
        <ele>386.1</ele>
        <time>2014-09-28T07:15:34.000Z</time>
      </trkpt>
      <trkpt lat="47.51633" lon="6.77458">
        <ele>385.4</ele>
        <time>2014-09-28T07:15:35.000Z</time>
      </trkpt>
      <trkpt lat="47.51628" lon="6.77452">
        <ele>385</ele>
        <time>2014-09-28T07:15:36.000Z</time>
      </trkpt>
      <trkpt lat="47.51623" lon="6.77445">
        <ele>384.1</ele>
        <time>2014-09-28T07:15:37.000Z</time>
      </trkpt>
      <trkpt lat="47.51618" lon="6.77439">
        <ele>383.1</ele>
        <time>2014-09-28T07:15:38.000Z</time>
      </trkpt>
      <trkpt lat="47.51613" lon="6.77433">
        <ele>382.3</ele>
        <time>2014-09-28T07:15:39.000Z</time>
      </trkpt>
      <trkpt lat="47.51608" lon="6.77426">
        <ele>382.1</ele>
        <time>2014-09-28T07:15:40.000Z</time>
      </trkpt>
      <trkpt lat="47.51602" lon="6.77418">
        <ele>382.2</ele>
        <time>2014-09-28T07:15:41.000Z</time>
      </trkpt>
      <trkpt lat="47.51594" lon="6.77411">
        <ele>382.1</ele>
        <time>2014-09-28T07:15:42.000Z</time>
      </trkpt>
      <trkpt lat="47.51587" lon="6.77404">
        <ele>381.6</ele>
        <time>2014-09-28T07:15:43.000Z</time>
      </trkpt>
      <trkpt lat="47.5158" lon="6.77397">
        <ele>380</ele>
        <time>2014-09-28T07:15:44.000Z</time>
      </trkpt>
      <trkpt lat="47.51573" lon="6.7739">
        <ele>380.2</ele>
        <time>2014-09-28T07:15:45.000Z</time>
      </trkpt>
      <trkpt lat="47.51566" lon="6.77382">
        <ele>380.6</ele>
        <time>2014-09-28T07:15:46.000Z</time>
      </trkpt>
      <trkpt lat="47.5156" lon="6.77373">
        <ele>380.3</ele>
        <time>2014-09-28T07:15:47.000Z</time>
      </trkpt>
      <trkpt lat="47.51552" lon="6.77365">
        <ele>379.8</ele>
        <time>2014-09-28T07:15:48.000Z</time>
      </trkpt>
      <trkpt lat="47.51544" lon="6.77357">
        <ele>379.3</ele>
        <time>2014-09-28T07:15:49.000Z</time>
      </trkpt>
      <trkpt lat="47.51536" lon="6.77349">
        <ele>378.7</ele>
        <time>2014-09-28T07:15:50.000Z</time>
      </trkpt>
      <trkpt lat="47.51529" lon="6.7734">
        <ele>378.6</ele>
        <time>2014-09-28T07:15:51.000Z</time>
      </trkpt>
      <trkpt lat="47.51522" lon="6.77331">
        <ele>377.6</ele>
        <time>2014-09-28T07:15:52.000Z</time>
      </trkpt>
      <trkpt lat="47.51514" lon="6.77323">
        <ele>376.6</ele>
        <time>2014-09-28T07:15:53.000Z</time>
      </trkpt>
      <trkpt lat="47.51507" lon="6.77314">
        <ele>375</ele>
        <time>2014-09-28T07:15:54.000Z</time>
      </trkpt>
      <trkpt lat="47.51502" lon="6.77305">
        <ele>375.3</ele>
        <time>2014-09-28T07:15:55.000Z</time>
      </trkpt>
      <trkpt lat="47.51497" lon="6.77295">
        <ele>374.9</ele>
        <time>2014-09-28T07:15:56.000Z</time>
      </trkpt>
      <trkpt lat="47.51495" lon="6.77285">
        <ele>374.8</ele>
        <time>2014-09-28T07:15:57.000Z</time>
      </trkpt>
      <trkpt lat="47.51493" lon="6.77275">
        <ele>375.5</ele>
        <time>2014-09-28T07:15:58.000Z</time>
      </trkpt>
      <trkpt lat="47.51491" lon="6.77264">
        <ele>375.5</ele>
        <time>2014-09-28T07:15:59.000Z</time>
      </trkpt>
      <trkpt lat="47.5149" lon="6.77253">
        <ele>375.7</ele>
        <time>2014-09-28T07:16:00.000Z</time>
      </trkpt>
      <trkpt lat="47.51489" lon="6.77241">
        <ele>376.1</ele>
        <time>2014-09-28T07:16:01.000Z</time>
      </trkpt>
      <trkpt lat="47.51488" lon="6.7723">
        <ele>376.2</ele>
        <time>2014-09-28T07:16:02.000Z</time>
      </trkpt>
      <trkpt lat="47.51487" lon="6.77219">
        <ele>376.5</ele>
        <time>2014-09-28T07:16:03.000Z</time>
      </trkpt>
      <trkpt lat="47.51486" lon="6.77209">
        <ele>376.4</ele>
        <time>2014-09-28T07:16:04.000Z</time>
      </trkpt>
      <trkpt lat="47.51483" lon="6.77201">
        <ele>376.8</ele>
        <time>2014-09-28T07:16:05.000Z</time>
      </trkpt>
      <trkpt lat="47.51478" lon="6.77196">
        <ele>376.3</ele>
        <time>2014-09-28T07:16:06.000Z</time>
      </trkpt>
      <trkpt lat="47.51471" lon="6.77197">
        <ele>375.6</ele>
        <time>2014-09-28T07:16:07.000Z</time>
      </trkpt>
      <trkpt lat="47.51463" lon="6.772">
        <ele>375</ele>
        <time>2014-09-28T07:16:08.000Z</time>
      </trkpt>
      <trkpt lat="47.51455" lon="6.77203">
        <ele>374.7</ele>
        <time>2014-09-28T07:16:09.000Z</time>
      </trkpt>
      <trkpt lat="47.51447" lon="6.77208">
        <ele>374.8</ele>
        <time>2014-09-28T07:16:10.000Z</time>
      </trkpt>
      <trkpt lat="47.51439" lon="6.77212">
        <ele>375</ele>
        <time>2014-09-28T07:16:11.000Z</time>
      </trkpt>
      <trkpt lat="47.51432" lon="6.77216">
        <ele>375</ele>
        <time>2014-09-28T07:16:12.000Z</time>
      </trkpt>
      <trkpt lat="47.51425" lon="6.7722">
        <ele>375.1</ele>
        <time>2014-09-28T07:16:13.000Z</time>
      </trkpt>
      <trkpt lat="47.51418" lon="6.77224">
        <ele>374.7</ele>
        <time>2014-09-28T07:16:14.000Z</time>
      </trkpt>
      <trkpt lat="47.51411" lon="6.77227">
        <ele>374.6</ele>
        <time>2014-09-28T07:16:15.000Z</time>
      </trkpt>
      <trkpt lat="47.51404" lon="6.77231">
        <ele>374.8</ele>
        <time>2014-09-28T07:16:16.000Z</time>
      </trkpt>
      <trkpt lat="47.51398" lon="6.77234">
        <ele>374.6</ele>
        <time>2014-09-28T07:16:17.000Z</time>
      </trkpt>
      <trkpt lat="47.51393" lon="6.77237">
        <ele>375.2</ele>
        <time>2014-09-28T07:16:18.000Z</time>
      </trkpt>
      <trkpt lat="47.51388" lon="6.7724">
        <ele>375.4</ele>
        <time>2014-09-28T07:16:19.000Z</time>
      </trkpt>
      <trkpt lat="47.51384" lon="6.77244">
        <ele>375.5</ele>
        <time>2014-09-28T07:16:20.000Z</time>
      </trkpt>
      <trkpt lat="47.51379" lon="6.77247">
        <ele>375.5</ele>
        <time>2014-09-28T07:16:21.000Z</time>
      </trkpt>
      <trkpt lat="47.51375" lon="6.7725">
        <ele>375.6</ele>
        <time>2014-09-28T07:16:22.000Z</time>
      </trkpt>
      <trkpt lat="47.51371" lon="6.77253">
        <ele>376.3</ele>
        <time>2014-09-28T07:16:23.000Z</time>
      </trkpt>
      <trkpt lat="47.51367" lon="6.77255">
        <ele>376.7</ele>
        <time>2014-09-28T07:16:24.000Z</time>
      </trkpt>
      <trkpt lat="47.51364" lon="6.77258">
        <ele>376.4</ele>
        <time>2014-09-28T07:16:25.000Z</time>
      </trkpt>
      <trkpt lat="47.5136" lon="6.77261">
        <ele>376.5</ele>
        <time>2014-09-28T07:16:26.000Z</time>
      </trkpt>
      <trkpt lat="47.51338" lon="6.77275">
        <ele>378.9</ele>
        <time>2014-09-28T07:16:34.000Z</time>
      </trkpt>
      <trkpt lat="47.51334" lon="6.77277">
        <ele>379.1</ele>
        <time>2014-09-28T07:16:35.000Z</time>
      </trkpt>
      <trkpt lat="47.5133" lon="6.77278">
        <ele>379.7</ele>
        <time>2014-09-28T07:16:36.000Z</time>
      </trkpt>
      <trkpt lat="47.51327" lon="6.77278">
        <ele>380.5</ele>
        <time>2014-09-28T07:16:37.000Z</time>
      </trkpt>
      <trkpt lat="47.51323" lon="6.77279">
        <ele>380.5</ele>
        <time>2014-09-28T07:16:38.000Z</time>
      </trkpt>
      <trkpt lat="47.5132" lon="6.77279">
        <ele>380.8</ele>
        <time>2014-09-28T07:16:39.000Z</time>
      </trkpt>
      <trkpt lat="47.51316" lon="6.77278">
        <ele>381.2</ele>
        <time>2014-09-28T07:16:40.000Z</time>
      </trkpt>
      <trkpt lat="47.51313" lon="6.77276">
        <ele>381.5</ele>
        <time>2014-09-28T07:16:41.000Z</time>
      </trkpt>
      <trkpt lat="47.51309" lon="6.77275">
        <ele>382.7</ele>
        <time>2014-09-28T07:16:42.000Z</time>
      </trkpt>
      <trkpt lat="47.51306" lon="6.77274">
        <ele>383</ele>
        <time>2014-09-28T07:16:43.000Z</time>
      </trkpt>
      <trkpt lat="47.51302" lon="6.77273">
        <ele>383.7</ele>
        <time>2014-09-28T07:16:44.000Z</time>
      </trkpt>
      <trkpt lat="47.51299" lon="6.77271">
        <ele>383.4</ele>
        <time>2014-09-28T07:16:45.000Z</time>
      </trkpt>
      <trkpt lat="47.51295" lon="6.7727">
        <ele>382.5</ele>
        <time>2014-09-28T07:16:46.000Z</time>
      </trkpt>
      <trkpt lat="47.51292" lon="6.77269">
        <ele>383.1</ele>
        <time>2014-09-28T07:16:47.000Z</time>
      </trkpt>
      <trkpt lat="47.51288" lon="6.77267">
        <ele>383.4</ele>
        <time>2014-09-28T07:16:48.000Z</time>
      </trkpt>
      <trkpt lat="47.51284" lon="6.77266">
        <ele>382.9</ele>
        <time>2014-09-28T07:16:49.000Z</time>
      </trkpt>
      <trkpt lat="47.51281" lon="6.77264">
        <ele>383</ele>
        <time>2014-09-28T07:16:50.000Z</time>
      </trkpt>
      <trkpt lat="47.51277" lon="6.77262">
        <ele>382.9</ele>
        <time>2014-09-28T07:16:51.000Z</time>
      </trkpt>
      <trkpt lat="47.51274" lon="6.7726">
        <ele>383.1</ele>
        <time>2014-09-28T07:16:52.000Z</time>
      </trkpt>
      <trkpt lat="47.51271" lon="6.77258">
        <ele>382.6</ele>
        <time>2014-09-28T07:16:53.000Z</time>
      </trkpt>
      <trkpt lat="47.51268" lon="6.77255">
        <ele>382.5</ele>
        <time>2014-09-28T07:16:54.000Z</time>
      </trkpt>
      <trkpt lat="47.51264" lon="6.77252">
        <ele>382.7</ele>
        <time>2014-09-28T07:16:55.000Z</time>
      </trkpt>
      <trkpt lat="47.51261" lon="6.77248">
        <ele>382.1</ele>
        <time>2014-09-28T07:16:56.000Z</time>
      </trkpt>
      <trkpt lat="47.51258" lon="6.77244">
        <ele>382.1</ele>
        <time>2014-09-28T07:16:57.000Z</time>
      </trkpt>
      <trkpt lat="47.51255" lon="6.7724">
        <ele>381.7</ele>
        <time>2014-09-28T07:16:58.000Z</time>
      </trkpt>
      <trkpt lat="47.51253" lon="6.77232">
        <ele>381.4</ele>
        <time>2014-09-28T07:16:59.000Z</time>
      </trkpt>
      <trkpt lat="47.5125" lon="6.77226">
        <ele>380.7</ele>
        <time>2014-09-28T07:17:00.000Z</time>
      </trkpt>
      <trkpt lat="47.51247" lon="6.77221">
        <ele>380.2</ele>
        <time>2014-09-28T07:17:01.000Z</time>
      </trkpt>
      <trkpt lat="47.51244" lon="6.77215">
        <ele>380.3</ele>
        <time>2014-09-28T07:17:02.000Z</time>
      </trkpt>
      <trkpt lat="47.51241" lon="6.77209">
        <ele>379.9</ele>
        <time>2014-09-28T07:17:03.000Z</time>
      </trkpt>
      <trkpt lat="47.51238" lon="6.77203">
        <ele>379.8</ele>
        <time>2014-09-28T07:17:04.000Z</time>
      </trkpt>
      <trkpt lat="47.51235" lon="6.77197">
        <ele>379.8</ele>
        <time>2014-09-28T07:17:05.000Z</time>
      </trkpt>
      <trkpt lat="47.51233" lon="6.7719">
        <ele>379.8</ele>
        <time>2014-09-28T07:17:06.000Z</time>
      </trkpt>
      <trkpt lat="47.51229" lon="6.77185">
        <ele>379.5</ele>
        <time>2014-09-28T07:17:07.000Z</time>
      </trkpt>
      <trkpt lat="47.51226" lon="6.77179">
        <ele>379.8</ele>
        <time>2014-09-28T07:17:08.000Z</time>
      </trkpt>
      <trkpt lat="47.51223" lon="6.77174">
        <ele>379.6</ele>
        <time>2014-09-28T07:17:09.000Z</time>
      </trkpt>
      <trkpt lat="47.5122" lon="6.77168">
        <ele>379.4</ele>
        <time>2014-09-28T07:17:10.000Z</time>
      </trkpt>
      <trkpt lat="47.51217" lon="6.77162">
        <ele>379.3</ele>
        <time>2014-09-28T07:17:11.000Z</time>
      </trkpt>
      <trkpt lat="47.51214" lon="6.77156">
        <ele>379.5</ele>
        <time>2014-09-28T07:17:12.000Z</time>
      </trkpt>
      <trkpt lat="47.51211" lon="6.77149">
        <ele>379.5</ele>
        <time>2014-09-28T07:17:13.000Z</time>
      </trkpt>
      <trkpt lat="47.51208" lon="6.77143">
        <ele>379.6</ele>
        <time>2014-09-28T07:17:14.000Z</time>
      </trkpt>
      <trkpt lat="47.51205" lon="6.77136">
        <ele>379.2</ele>
        <time>2014-09-28T07:17:15.000Z</time>
      </trkpt>
      <trkpt lat="47.51201" lon="6.77129">
        <ele>379.1</ele>
        <time>2014-09-28T07:17:16.000Z</time>
      </trkpt>
      <trkpt lat="47.51197" lon="6.77122">
        <ele>379.6</ele>
        <time>2014-09-28T07:17:17.000Z</time>
      </trkpt>
      <trkpt lat="47.51193" lon="6.77114">
        <ele>379.4</ele>
        <time>2014-09-28T07:17:18.000Z</time>
      </trkpt>
      <trkpt lat="47.51189" lon="6.77107">
        <ele>379.2</ele>
        <time>2014-09-28T07:17:19.000Z</time>
      </trkpt>
      <trkpt lat="47.51186" lon="6.77099">
        <ele>379.2</ele>
        <time>2014-09-28T07:17:20.000Z</time>
      </trkpt>
      <trkpt lat="47.51182" lon="6.77092">
        <ele>379.4</ele>
        <time>2014-09-28T07:17:21.000Z</time>
      </trkpt>
      <trkpt lat="47.51179" lon="6.77085">
        <ele>379.4</ele>
        <time>2014-09-28T07:17:22.000Z</time>
      </trkpt>
      <trkpt lat="47.51175" lon="6.7708">
        <ele>379.4</ele>
        <time>2014-09-28T07:17:23.000Z</time>
      </trkpt>
      <trkpt lat="47.51171" lon="6.77074">
        <ele>379.3</ele>
        <time>2014-09-28T07:17:24.000Z</time>
      </trkpt>
      <trkpt lat="47.51167" lon="6.77068">
        <ele>379.3</ele>
        <time>2014-09-28T07:17:25.000Z</time>
      </trkpt>
      <trkpt lat="47.51164" lon="6.77063">
        <ele>379.2</ele>
        <time>2014-09-28T07:17:26.000Z</time>
      </trkpt>
      <trkpt lat="47.51153" lon="6.7705">
        <ele>379.2</ele>
        <time>2014-09-28T07:17:29.000Z</time>
      </trkpt>
      <trkpt lat="47.51148" lon="6.77045">
        <ele>378.9</ele>
        <time>2014-09-28T07:17:30.000Z</time>
      </trkpt>
      <trkpt lat="47.51143" lon="6.77042">
        <ele>378.3</ele>
        <time>2014-09-28T07:17:31.000Z</time>
      </trkpt>
      <trkpt lat="47.51139" lon="6.77038">
        <ele>377.8</ele>
        <time>2014-09-28T07:17:32.000Z</time>
      </trkpt>
      <trkpt lat="47.51135" lon="6.77035">
        <ele>377.5</ele>
        <time>2014-09-28T07:17:33.000Z</time>
      </trkpt>
      <trkpt lat="47.51132" lon="6.7703">
        <ele>377.1</ele>
        <time>2014-09-28T07:17:34.000Z</time>
      </trkpt>
      <trkpt lat="47.5113" lon="6.77025">
        <ele>376.6</ele>
        <time>2014-09-28T07:17:35.000Z</time>
      </trkpt>
      <trkpt lat="47.51124" lon="6.77024">
        <ele>377.2</ele>
        <time>2014-09-28T07:17:36.000Z</time>
      </trkpt>
      <trkpt lat="47.5112" lon="6.77021">
        <ele>376.9</ele>
        <time>2014-09-28T07:17:37.030Z</time>
      </trkpt>
      <trkpt lat="47.51114" lon="6.77016">
        <ele>376.9</ele>
        <time>2014-09-28T07:17:38.000Z</time>
      </trkpt>
      <trkpt lat="47.51109" lon="6.77012">
        <ele>376.8</ele>
        <time>2014-09-28T07:17:39.000Z</time>
      </trkpt>
      <trkpt lat="47.51105" lon="6.77008">
        <ele>376.4</ele>
        <time>2014-09-28T07:17:40.000Z</time>
      </trkpt>
      <trkpt lat="47.51101" lon="6.77004">
        <ele>376.6</ele>
        <time>2014-09-28T07:17:41.000Z</time>
      </trkpt>
      <trkpt lat="47.51096" lon="6.77">
        <ele>376.5</ele>
        <time>2014-09-28T07:17:41.999Z</time>
      </trkpt>
      <trkpt lat="47.51093" lon="6.76995">
        <ele>376.2</ele>
        <time>2014-09-28T07:17:43.000Z</time>
      </trkpt>
      <trkpt lat="47.51089" lon="6.76991">
        <ele>375.9</ele>
        <time>2014-09-28T07:17:44.000Z</time>
      </trkpt>
      <trkpt lat="47.51084" lon="6.76987">
        <ele>375.9</ele>
        <time>2014-09-28T07:17:45.000Z</time>
      </trkpt>
      <trkpt lat="47.5108" lon="6.76983">
        <ele>375.8</ele>
        <time>2014-09-28T07:17:46.000Z</time>
      </trkpt>
      <trkpt lat="47.51075" lon="6.76979">
        <ele>375.8</ele>
        <time>2014-09-28T07:17:47.000Z</time>
      </trkpt>
      <trkpt lat="47.51071" lon="6.76975">
        <ele>375.5</ele>
        <time>2014-09-28T07:17:48.000Z</time>
      </trkpt>
      <trkpt lat="47.51066" lon="6.76971">
        <ele>375.8</ele>
        <time>2014-09-28T07:17:49.000Z</time>
      </trkpt>
      <trkpt lat="47.51061" lon="6.76967">
        <ele>375.9</ele>
        <time>2014-09-28T07:17:50.000Z</time>
      </trkpt>
      <trkpt lat="47.51057" lon="6.76963">
        <ele>375.8</ele>
        <time>2014-09-28T07:17:51.000Z</time>
      </trkpt>
      <trkpt lat="47.51053" lon="6.7696">
        <ele>376.9</ele>
        <time>2014-09-28T07:17:52.000Z</time>
      </trkpt>
      <trkpt lat="47.51048" lon="6.76956">
        <ele>377.4</ele>
        <time>2014-09-28T07:17:53.000Z</time>
      </trkpt>
      <trkpt lat="47.51043" lon="6.76952">
        <ele>377.6</ele>
        <time>2014-09-28T07:17:54.000Z</time>
      </trkpt>
      <trkpt lat="47.51039" lon="6.76948">
        <ele>377.8</ele>
        <time>2014-09-28T07:17:55.000Z</time>
      </trkpt>
      <trkpt lat="47.51035" lon="6.76945">
        <ele>377.5</ele>
        <time>2014-09-28T07:17:56.000Z</time>
      </trkpt>
      <trkpt lat="47.51032" lon="6.76941">
        <ele>377.8</ele>
        <time>2014-09-28T07:17:57.000Z</time>
      </trkpt>
      <trkpt lat="47.51028" lon="6.76937">
        <ele>378.5</ele>
        <time>2014-09-28T07:17:58.000Z</time>
      </trkpt>
      <trkpt lat="47.51024" lon="6.76933">
        <ele>379.1</ele>
        <time>2014-09-28T07:17:58.999Z</time>
      </trkpt>
      <trkpt lat="47.5102" lon="6.76929">
        <ele>377.2</ele>
        <time>2014-09-28T07:18:00.000Z</time>
      </trkpt>
      <trkpt lat="47.51016" lon="6.76926">
        <ele>376.5</ele>
        <time>2014-09-28T07:18:00.999Z</time>
      </trkpt>
      <trkpt lat="47.51012" lon="6.76921">
        <ele>378</ele>
        <time>2014-09-28T07:18:02.000Z</time>
      </trkpt>
      <trkpt lat="47.51008" lon="6.76918">
        <ele>378</ele>
        <time>2014-09-28T07:18:03.000Z</time>
      </trkpt>
      <trkpt lat="47.51004" lon="6.76916">
        <ele>377</ele>
        <time>2014-09-28T07:18:04.000Z</time>
      </trkpt>
      <trkpt lat="47.51002" lon="6.76911">
        <ele>376.8</ele>
        <time>2014-09-28T07:18:05.000Z</time>
      </trkpt>
      <trkpt lat="47.51001" lon="6.76904">
        <ele>377.7</ele>
        <time>2014-09-28T07:18:06.000Z</time>
      </trkpt>
      <trkpt lat="47.50998" lon="6.769">
        <ele>377.8</ele>
        <time>2014-09-28T07:18:07.000Z</time>
      </trkpt>
      <trkpt lat="47.50993" lon="6.76896">
        <ele>378.2</ele>
        <time>2014-09-28T07:18:08.000Z</time>
      </trkpt>
      <trkpt lat="47.50989" lon="6.76894">
        <ele>378.1</ele>
        <time>2014-09-28T07:18:09.000Z</time>
      </trkpt>
      <trkpt lat="47.50985" lon="6.76892">
        <ele>378</ele>
        <time>2014-09-28T07:18:09.999Z</time>
      </trkpt>
      <trkpt lat="47.50981" lon="6.76892">
        <ele>376.9</ele>
        <time>2014-09-28T07:18:11.000Z</time>
      </trkpt>
      <trkpt lat="47.50976" lon="6.76892">
        <ele>377</ele>
        <time>2014-09-28T07:18:12.000Z</time>
      </trkpt>
      <trkpt lat="47.50972" lon="6.76893">
        <ele>376.8</ele>
        <time>2014-09-28T07:18:13.000Z</time>
      </trkpt>
      <trkpt lat="47.50968" lon="6.76891">
        <ele>376</ele>
        <time>2014-09-28T07:18:14.000Z</time>
      </trkpt>
      <trkpt lat="47.50963" lon="6.76888">
        <ele>375.9</ele>
        <time>2014-09-28T07:18:15.000Z</time>
      </trkpt>
      <trkpt lat="47.50959" lon="6.76884">
        <ele>375.8</ele>
        <time>2014-09-28T07:18:16.000Z</time>
      </trkpt>
      <trkpt lat="47.50956" lon="6.76881">
        <ele>375.6</ele>
        <time>2014-09-28T07:18:17.000Z</time>
      </trkpt>
      <trkpt lat="47.50952" lon="6.76878">
        <ele>376</ele>
        <time>2014-09-28T07:18:18.000Z</time>
      </trkpt>
      <trkpt lat="47.50948" lon="6.76874">
        <ele>376</ele>
        <time>2014-09-28T07:18:19.000Z</time>
      </trkpt>
      <trkpt lat="47.50945" lon="6.7687">
        <ele>375.8</ele>
        <time>2014-09-28T07:18:20.000Z</time>
      </trkpt>
      <trkpt lat="47.50941" lon="6.76866">
        <ele>376.1</ele>
        <time>2014-09-28T07:18:21.000Z</time>
      </trkpt>
      <trkpt lat="47.50939" lon="6.76863">
        <ele>375.8</ele>
        <time>2014-09-28T07:18:22.000Z</time>
      </trkpt>
      <trkpt lat="47.50936" lon="6.76859">
        <ele>375.1</ele>
        <time>2014-09-28T07:18:23.000Z</time>
      </trkpt>
      <trkpt lat="47.50933" lon="6.76855">
        <ele>374.7</ele>
        <time>2014-09-28T07:18:24.000Z</time>
      </trkpt>
      <trkpt lat="47.5093" lon="6.76851">
        <ele>375.2</ele>
        <time>2014-09-28T07:18:25.000Z</time>
      </trkpt>
      <trkpt lat="47.50927" lon="6.76848">
        <ele>375.1</ele>
        <time>2014-09-28T07:18:26.000Z</time>
      </trkpt>
      <trkpt lat="47.5092" lon="6.76836">
        <ele>373.9</ele>
        <time>2014-09-28T07:18:29.000Z</time>
      </trkpt>
      <trkpt lat="47.50918" lon="6.76832">
        <ele>374.3</ele>
        <time>2014-09-28T07:18:30.000Z</time>
      </trkpt>
      <trkpt lat="47.50916" lon="6.76826">
        <ele>374</ele>
        <time>2014-09-28T07:18:31.000Z</time>
      </trkpt>
      <trkpt lat="47.50914" lon="6.76821">
        <ele>373.7</ele>
        <time>2014-09-28T07:18:32.000Z</time>
      </trkpt>
      <trkpt lat="47.50912" lon="6.76816">
        <ele>373.7</ele>
        <time>2014-09-28T07:18:32.998Z</time>
      </trkpt>
      <trkpt lat="47.5091" lon="6.76809">
        <ele>375.4</ele>
        <time>2014-09-28T07:18:34.000Z</time>
      </trkpt>
      <trkpt lat="47.50908" lon="6.76803">
        <ele>376</ele>
        <time>2014-09-28T07:18:35.000Z</time>
      </trkpt>
      <trkpt lat="47.50906" lon="6.76797">
        <ele>376.4</ele>
        <time>2014-09-28T07:18:36.000Z</time>
      </trkpt>
      <trkpt lat="47.50903" lon="6.76792">
        <ele>376.6</ele>
        <time>2014-09-28T07:18:37.000Z</time>
      </trkpt>
      <trkpt lat="47.50901" lon="6.76787">
        <ele>376.3</ele>
        <time>2014-09-28T07:18:37.998Z</time>
      </trkpt>
      <trkpt lat="47.50898" lon="6.76779">
        <ele>380.4</ele>
        <time>2014-09-28T07:18:39.000Z</time>
      </trkpt>
      <trkpt lat="47.50896" lon="6.76772">
        <ele>381.5</ele>
        <time>2014-09-28T07:18:40.000Z</time>
      </trkpt>
      <trkpt lat="47.50893" lon="6.76766">
        <ele>382.2</ele>
        <time>2014-09-28T07:18:41.000Z</time>
      </trkpt>
      <trkpt lat="47.50891" lon="6.76761">
        <ele>383.2</ele>
        <time>2014-09-28T07:18:42.000Z</time>
      </trkpt>
      <trkpt lat="47.50889" lon="6.76756">
        <ele>383.3</ele>
        <time>2014-09-28T07:18:43.000Z</time>
      </trkpt>
      <trkpt lat="47.50886" lon="6.76751">
        <ele>383.4</ele>
        <time>2014-09-28T07:18:44.000Z</time>
      </trkpt>
      <trkpt lat="47.50884" lon="6.76745">
        <ele>383.6</ele>
        <time>2014-09-28T07:18:45.000Z</time>
      </trkpt>
      <trkpt lat="47.50883" lon="6.7674">
        <ele>384.2</ele>
        <time>2014-09-28T07:18:46.000Z</time>
      </trkpt>
      <trkpt lat="47.50881" lon="6.76734">
        <ele>384.7</ele>
        <time>2014-09-28T07:18:47.026Z</time>
      </trkpt>
      <trkpt lat="47.5088" lon="6.76731">
        <ele>383.3</ele>
        <time>2014-09-28T07:18:48.000Z</time>
      </trkpt>
      <trkpt lat="47.50879" lon="6.76726">
        <ele>382.9</ele>
        <time>2014-09-28T07:18:48.998Z</time>
      </trkpt>
      <trkpt lat="47.50876" lon="6.76721">
        <ele>383.6</ele>
        <time>2014-09-28T07:18:50.000Z</time>
      </trkpt>
      <trkpt lat="47.50875" lon="6.76716">
        <ele>383.5</ele>
        <time>2014-09-28T07:18:51.033Z</time>
      </trkpt>
      <trkpt lat="47.50873" lon="6.76711">
        <ele>384.7</ele>
        <time>2014-09-28T07:18:52.000Z</time>
      </trkpt>
      <trkpt lat="47.50871" lon="6.76706">
        <ele>385.5</ele>
        <time>2014-09-28T07:18:53.000Z</time>
      </trkpt>
      <trkpt lat="47.50869" lon="6.76701">
        <ele>385.2</ele>
        <time>2014-09-28T07:18:54.000Z</time>
      </trkpt>
      <trkpt lat="47.50868" lon="6.76695">
        <ele>385.6</ele>
        <time>2014-09-28T07:18:55.000Z</time>
      </trkpt>
      <trkpt lat="47.50866" lon="6.7669">
        <ele>386</ele>
        <time>2014-09-28T07:18:55.998Z</time>
      </trkpt>
      <trkpt lat="47.50865" lon="6.76685">
        <ele>387</ele>
        <time>2014-09-28T07:18:57.000Z</time>
      </trkpt>
      <trkpt lat="47.50863" lon="6.7668">
        <ele>387.6</ele>
        <time>2014-09-28T07:18:57.998Z</time>
      </trkpt>
      <trkpt lat="47.50861" lon="6.76676">
        <ele>386.5</ele>
        <time>2014-09-28T07:18:59.000Z</time>
      </trkpt>
      <trkpt lat="47.50859" lon="6.76672">
        <ele>387.8</ele>
        <time>2014-09-28T07:19:00.000Z</time>
      </trkpt>
      <trkpt lat="47.50857" lon="6.76668">
        <ele>388.1</ele>
        <time>2014-09-28T07:19:01.000Z</time>
      </trkpt>
      <trkpt lat="47.50855" lon="6.76663">
        <ele>388.2</ele>
        <time>2014-09-28T07:19:02.000Z</time>
      </trkpt>
      <trkpt lat="47.50853" lon="6.76658">
        <ele>388.3</ele>
        <time>2014-09-28T07:19:02.998Z</time>
      </trkpt>
      <trkpt lat="47.50851" lon="6.76654">
        <ele>387.8</ele>
        <time>2014-09-28T07:19:04.000Z</time>
      </trkpt>
      <trkpt lat="47.5085" lon="6.7665">
        <ele>387.5</ele>
        <time>2014-09-28T07:19:04.998Z</time>
      </trkpt>
      <trkpt lat="47.50848" lon="6.76647">
        <ele>388</ele>
        <time>2014-09-28T07:19:06.000Z</time>
      </trkpt>
      <trkpt lat="47.50846" lon="6.76644">
        <ele>386.4</ele>
        <time>2014-09-28T07:19:07.000Z</time>
      </trkpt>
      <trkpt lat="47.50843" lon="6.76641">
        <ele>386</ele>
        <time>2014-09-28T07:19:08.000Z</time>
      </trkpt>
      <trkpt lat="47.50841" lon="6.76638">
        <ele>385.5</ele>
        <time>2014-09-28T07:19:09.000Z</time>
      </trkpt>
      <trkpt lat="47.50839" lon="6.76635">
        <ele>386.1</ele>
        <time>2014-09-28T07:19:10.000Z</time>
      </trkpt>
      <trkpt lat="47.50837" lon="6.76631">
        <ele>386</ele>
        <time>2014-09-28T07:19:11.000Z</time>
      </trkpt>
      <trkpt lat="47.50836" lon="6.76627">
        <ele>386.2</ele>
        <time>2014-09-28T07:19:12.000Z</time>
      </trkpt>
      <trkpt lat="47.50834" lon="6.76623">
        <ele>386.1</ele>
        <time>2014-09-28T07:19:13.000Z</time>
      </trkpt>
      <trkpt lat="47.50832" lon="6.76619">
        <ele>386.2</ele>
        <time>2014-09-28T07:19:13.990Z</time>
      </trkpt>
      <trkpt lat="47.50831" lon="6.76615">
        <ele>386.5</ele>
        <time>2014-09-28T07:19:15.000Z</time>
      </trkpt>
      <trkpt lat="47.50829" lon="6.76612">
        <ele>385.7</ele>
        <time>2014-09-28T07:19:16.000Z</time>
      </trkpt>
      <trkpt lat="47.50828" lon="6.76608">
        <ele>386</ele>
        <time>2014-09-28T07:19:17.000Z</time>
      </trkpt>
      <trkpt lat="47.50827" lon="6.76604">
        <ele>386.1</ele>
        <time>2014-09-28T07:19:18.000Z</time>
      </trkpt>
      <trkpt lat="47.50825" lon="6.76601">
        <ele>385.8</ele>
        <time>2014-09-28T07:19:18.998Z</time>
      </trkpt>
      <trkpt lat="47.50824" lon="6.76597">
        <ele>386.7</ele>
        <time>2014-09-28T07:19:20.000Z</time>
      </trkpt>
      <trkpt lat="47.50823" lon="6.76594">
        <ele>386.6</ele>
        <time>2014-09-28T07:19:20.998Z</time>
      </trkpt>
      <trkpt lat="47.5082" lon="6.76591">
        <ele>386.7</ele>
        <time>2014-09-28T07:19:23.000Z</time>
      </trkpt>
      <trkpt lat="47.50819" lon="6.76591">
        <ele>385.8</ele>
        <time>2014-09-28T07:19:24.000Z</time>
      </trkpt>
      <trkpt lat="47.50816" lon="6.76591">
        <ele>385.5</ele>
        <time>2014-09-28T07:19:25.999Z</time>
      </trkpt>
      <trkpt lat="47.50811" lon="6.7659">
        <ele>386.2</ele>
        <time>2014-09-28T07:19:29.000Z</time>
      </trkpt>
      <trkpt lat="47.50808" lon="6.7659">
        <ele>387.6</ele>
        <time>2014-09-28T07:19:30.000Z</time>
      </trkpt>
      <trkpt lat="47.50806" lon="6.7659">
        <ele>389.2</ele>
        <time>2014-09-28T07:19:31.000Z</time>
      </trkpt>
      <trkpt lat="47.50803" lon="6.76591">
        <ele>389</ele>
        <time>2014-09-28T07:19:32.000Z</time>
      </trkpt>
      <trkpt lat="47.508" lon="6.76593">
        <ele>389</ele>
        <time>2014-09-28T07:19:33.000Z</time>
      </trkpt>
      <trkpt lat="47.50796" lon="6.76593">
        <ele>389.7</ele>
        <time>2014-09-28T07:19:35.000Z</time>
      </trkpt>
      <trkpt lat="47.50795" lon="6.76592">
        <ele>389.9</ele>
        <time>2014-09-28T07:19:36.000Z</time>
      </trkpt>
      <trkpt lat="47.50791" lon="6.76592">
        <ele>391.8</ele>
        <time>2014-09-28T07:19:38.000Z</time>
      </trkpt>
      <trkpt lat="47.50782" lon="6.76595">
        <ele>393</ele>
        <time>2014-09-28T07:19:39.000Z</time>
      </trkpt>
      <trkpt lat="47.5078" lon="6.76595">
        <ele>392.9</ele>
        <time>2014-09-28T07:19:40.000Z</time>
      </trkpt>
      <trkpt lat="47.50777" lon="6.76596">
        <ele>392.8</ele>
        <time>2014-09-28T07:19:41.000Z</time>
      </trkpt>
      <trkpt lat="47.50775" lon="6.76597">
        <ele>392.3</ele>
        <time>2014-09-28T07:19:42.000Z</time>
      </trkpt>
      <trkpt lat="47.50772" lon="6.76597">
        <ele>391.9</ele>
        <time>2014-09-28T07:19:43.000Z</time>
      </trkpt>
      <trkpt lat="47.50769" lon="6.76598">
        <ele>392.6</ele>
        <time>2014-09-28T07:19:44.000Z</time>
      </trkpt>
      <trkpt lat="47.50765" lon="6.76598">
        <ele>392.7</ele>
        <time>2014-09-28T07:19:45.000Z</time>
      </trkpt>
      <trkpt lat="47.50762" lon="6.76598">
        <ele>392.4</ele>
        <time>2014-09-28T07:19:46.000Z</time>
      </trkpt>
      <trkpt lat="47.50758" lon="6.76598">
        <ele>392.1</ele>
        <time>2014-09-28T07:19:47.000Z</time>
      </trkpt>
      <trkpt lat="47.50755" lon="6.76599">
        <ele>392.3</ele>
        <time>2014-09-28T07:19:48.000Z</time>
      </trkpt>
      <trkpt lat="47.50752" lon="6.76599">
        <ele>392.5</ele>
        <time>2014-09-28T07:19:49.000Z</time>
      </trkpt>
      <trkpt lat="47.50749" lon="6.76598">
        <ele>394</ele>
        <time>2014-09-28T07:19:50.000Z</time>
      </trkpt>
      <trkpt lat="47.50746" lon="6.76597">
        <ele>393.9</ele>
        <time>2014-09-28T07:19:51.000Z</time>
      </trkpt>
      <trkpt lat="47.50743" lon="6.76596">
        <ele>394.2</ele>
        <time>2014-09-28T07:19:52.000Z</time>
      </trkpt>
      <trkpt lat="47.5074" lon="6.76595">
        <ele>394.2</ele>
        <time>2014-09-28T07:19:53.000Z</time>
      </trkpt>
      <trkpt lat="47.50737" lon="6.76595">
        <ele>393.6</ele>
        <time>2014-09-28T07:19:54.000Z</time>
      </trkpt>
      <trkpt lat="47.50734" lon="6.76594">
        <ele>393.2</ele>
        <time>2014-09-28T07:19:55.000Z</time>
      </trkpt>
      <trkpt lat="47.50731" lon="6.76594">
        <ele>392.6</ele>
        <time>2014-09-28T07:19:56.000Z</time>
      </trkpt>
      <trkpt lat="47.50727" lon="6.76593">
        <ele>392.1</ele>
        <time>2014-09-28T07:19:57.000Z</time>
      </trkpt>
      <trkpt lat="47.50724" lon="6.76593">
        <ele>391.4</ele>
        <time>2014-09-28T07:19:58.000Z</time>
      </trkpt>
      <trkpt lat="47.50721" lon="6.76593">
        <ele>391.5</ele>
        <time>2014-09-28T07:19:59.000Z</time>
      </trkpt>
      <trkpt lat="47.50717" lon="6.76592">
        <ele>392.5</ele>
        <time>2014-09-28T07:20:00.000Z</time>
      </trkpt>
      <trkpt lat="47.50713" lon="6.76591">
        <ele>393.1</ele>
        <time>2014-09-28T07:20:01.000Z</time>
      </trkpt>
      <trkpt lat="47.5071" lon="6.76591">
        <ele>392.3</ele>
        <time>2014-09-28T07:20:02.000Z</time>
      </trkpt>
      <trkpt lat="47.50706" lon="6.7659">
        <ele>393.1</ele>
        <time>2014-09-28T07:20:03.000Z</time>
      </trkpt>
      <trkpt lat="47.50702" lon="6.76589">
        <ele>393.5</ele>
        <time>2014-09-28T07:20:04.000Z</time>
      </trkpt>
      <trkpt lat="47.50699" lon="6.76589">
        <ele>393.1</ele>
        <time>2014-09-28T07:20:05.000Z</time>
      </trkpt>
      <trkpt lat="47.50696" lon="6.76589">
        <ele>392.9</ele>
        <time>2014-09-28T07:20:06.000Z</time>
      </trkpt>
      <trkpt lat="47.50692" lon="6.76589">
        <ele>393</ele>
        <time>2014-09-28T07:20:07.000Z</time>
      </trkpt>
      <trkpt lat="47.50689" lon="6.76589">
        <ele>394.5</ele>
        <time>2014-09-28T07:20:08.000Z</time>
      </trkpt>
      <trkpt lat="47.50685" lon="6.7659">
        <ele>394.7</ele>
        <time>2014-09-28T07:20:09.000Z</time>
      </trkpt>
      <trkpt lat="47.50682" lon="6.7659">
        <ele>394.4</ele>
        <time>2014-09-28T07:20:10.000Z</time>
      </trkpt>
      <trkpt lat="47.50678" lon="6.76591">
        <ele>394.5</ele>
        <time>2014-09-28T07:20:11.000Z</time>
      </trkpt>
      <trkpt lat="47.50675" lon="6.76591">
        <ele>394.5</ele>
        <time>2014-09-28T07:20:12.000Z</time>
      </trkpt>
      <trkpt lat="47.50671" lon="6.76592">
        <ele>394.5</ele>
        <time>2014-09-28T07:20:13.000Z</time>
      </trkpt>
      <trkpt lat="47.50668" lon="6.76593">
        <ele>394.3</ele>
        <time>2014-09-28T07:20:14.000Z</time>
      </trkpt>
      <trkpt lat="47.50664" lon="6.76594">
        <ele>393.9</ele>
        <time>2014-09-28T07:20:15.000Z</time>
      </trkpt>
      <trkpt lat="47.50661" lon="6.76595">
        <ele>395.4</ele>
        <time>2014-09-28T07:20:16.000Z</time>
      </trkpt>
      <trkpt lat="47.50659" lon="6.76596">
        <ele>396.2</ele>
        <time>2014-09-28T07:20:17.000Z</time>
      </trkpt>
      <trkpt lat="47.50656" lon="6.76597">
        <ele>396.4</ele>
        <time>2014-09-28T07:20:18.000Z</time>
      </trkpt>
      <trkpt lat="47.50654" lon="6.76598">
        <ele>396.8</ele>
        <time>2014-09-28T07:20:19.000Z</time>
      </trkpt>
      <trkpt lat="47.50652" lon="6.766">
        <ele>395.4</ele>
        <time>2014-09-28T07:20:20.000Z</time>
      </trkpt>
      <trkpt lat="47.5065" lon="6.76601">
        <ele>394.7</ele>
        <time>2014-09-28T07:20:21.000Z</time>
      </trkpt>
      <trkpt lat="47.50648" lon="6.76603">
        <ele>393.7</ele>
        <time>2014-09-28T07:20:22.000Z</time>
      </trkpt>
      <trkpt lat="47.50645" lon="6.76604">
        <ele>393.9</ele>
        <time>2014-09-28T07:20:23.000Z</time>
      </trkpt>
      <trkpt lat="47.50643" lon="6.76606">
        <ele>393.7</ele>
        <time>2014-09-28T07:20:24.000Z</time>
      </trkpt>
      <trkpt lat="47.50639" lon="6.76608">
        <ele>395.6</ele>
        <time>2014-09-28T07:20:25.000Z</time>
      </trkpt>
      <trkpt lat="47.50635" lon="6.7661">
        <ele>396.1</ele>
        <time>2014-09-28T07:20:26.000Z</time>
      </trkpt>
      <trkpt lat="47.50625" lon="6.76615">
        <ele>396.7</ele>
        <time>2014-09-28T07:20:29.000Z</time>
      </trkpt>
      <trkpt lat="47.50622" lon="6.76617">
        <ele>395.8</ele>
        <time>2014-09-28T07:20:30.000Z</time>
      </trkpt>
      <trkpt lat="47.50619" lon="6.76619">
        <ele>395.2</ele>
        <time>2014-09-28T07:20:31.000Z</time>
      </trkpt>
      <trkpt lat="47.50615" lon="6.76621">
        <ele>395.2</ele>
        <time>2014-09-28T07:20:32.000Z</time>
      </trkpt>
      <trkpt lat="47.50612" lon="6.76623">
        <ele>395</ele>
        <time>2014-09-28T07:20:33.000Z</time>
      </trkpt>
      <trkpt lat="47.50609" lon="6.76624">
        <ele>394.8</ele>
        <time>2014-09-28T07:20:34.000Z</time>
      </trkpt>
      <trkpt lat="47.50606" lon="6.76625">
        <ele>394.7</ele>
        <time>2014-09-28T07:20:35.000Z</time>
      </trkpt>
      <trkpt lat="47.50602" lon="6.76626">
        <ele>394.4</ele>
        <time>2014-09-28T07:20:36.000Z</time>
      </trkpt>
      <trkpt lat="47.50599" lon="6.76627">
        <ele>393.9</ele>
        <time>2014-09-28T07:20:37.000Z</time>
      </trkpt>
      <trkpt lat="47.50595" lon="6.76627">
        <ele>393.6</ele>
        <time>2014-09-28T07:20:38.000Z</time>
      </trkpt>
      <trkpt lat="47.50592" lon="6.76628">
        <ele>393.4</ele>
        <time>2014-09-28T07:20:39.000Z</time>
      </trkpt>
      <trkpt lat="47.50589" lon="6.76629">
        <ele>392.9</ele>
        <time>2014-09-28T07:20:40.000Z</time>
      </trkpt>
      <trkpt lat="47.50586" lon="6.7663">
        <ele>392.9</ele>
        <time>2014-09-28T07:20:41.000Z</time>
      </trkpt>
      <trkpt lat="47.50583" lon="6.76631">
        <ele>392.4</ele>
        <time>2014-09-28T07:20:42.000Z</time>
      </trkpt>
      <trkpt lat="47.50581" lon="6.76632">
        <ele>392.3</ele>
        <time>2014-09-28T07:20:43.000Z</time>
      </trkpt>
      <trkpt lat="47.50578" lon="6.76633">
        <ele>393.1</ele>
        <time>2014-09-28T07:20:44.000Z</time>
      </trkpt>
      <trkpt lat="47.50575" lon="6.76633">
        <ele>393.4</ele>
        <time>2014-09-28T07:20:45.000Z</time>
      </trkpt>
      <trkpt lat="47.50573" lon="6.76633">
        <ele>394.1</ele>
        <time>2014-09-28T07:20:46.000Z</time>
      </trkpt>
      <trkpt lat="47.5057" lon="6.76632">
        <ele>396.8</ele>
        <time>2014-09-28T07:20:47.000Z</time>
      </trkpt>
      <trkpt lat="47.50567" lon="6.76632">
        <ele>396.5</ele>
        <time>2014-09-28T07:20:48.000Z</time>
      </trkpt>
      <trkpt lat="47.50564" lon="6.76633">
        <ele>396.4</ele>
        <time>2014-09-28T07:20:49.000Z</time>
      </trkpt>
      <trkpt lat="47.50561" lon="6.76633">
        <ele>396.6</ele>
        <time>2014-09-28T07:20:50.000Z</time>
      </trkpt>
      <trkpt lat="47.50558" lon="6.76634">
        <ele>396.6</ele>
        <time>2014-09-28T07:20:51.000Z</time>
      </trkpt>
      <trkpt lat="47.50555" lon="6.76635">
        <ele>396.4</ele>
        <time>2014-09-28T07:20:52.000Z</time>
      </trkpt>
      <trkpt lat="47.50552" lon="6.76636">
        <ele>396.4</ele>
        <time>2014-09-28T07:20:53.000Z</time>
      </trkpt>
      <trkpt lat="47.50549" lon="6.76637">
        <ele>396</ele>
        <time>2014-09-28T07:20:54.000Z</time>
      </trkpt>
      <trkpt lat="47.50545" lon="6.76638">
        <ele>396.2</ele>
        <time>2014-09-28T07:20:55.000Z</time>
      </trkpt>
      <trkpt lat="47.50542" lon="6.76639">
        <ele>396.1</ele>
        <time>2014-09-28T07:20:56.000Z</time>
      </trkpt>
      <trkpt lat="47.50538" lon="6.76641">
        <ele>396.6</ele>
        <time>2014-09-28T07:20:57.000Z</time>
      </trkpt>
      <trkpt lat="47.50534" lon="6.76642">
        <ele>397</ele>
        <time>2014-09-28T07:20:58.000Z</time>
      </trkpt>
      <trkpt lat="47.50527" lon="6.76645">
        <ele>396.1</ele>
        <time>2014-09-28T07:20:59.000Z</time>
      </trkpt>
      <trkpt lat="47.50522" lon="6.76648">
        <ele>395.4</ele>
        <time>2014-09-28T07:21:00.000Z</time>
      </trkpt>
      <trkpt lat="47.50518" lon="6.76649">
        <ele>395.1</ele>
        <time>2014-09-28T07:21:01.000Z</time>
      </trkpt>
      <trkpt lat="47.50513" lon="6.7665">
        <ele>395.3</ele>
        <time>2014-09-28T07:21:02.000Z</time>
      </trkpt>
      <trkpt lat="47.50508" lon="6.76652">
        <ele>394.9</ele>
        <time>2014-09-28T07:21:03.000Z</time>
      </trkpt>
      <trkpt lat="47.50503" lon="6.76654">
        <ele>396</ele>
        <time>2014-09-28T07:21:04.000Z</time>
      </trkpt>
      <trkpt lat="47.50498" lon="6.76656">
        <ele>395.7</ele>
        <time>2014-09-28T07:21:05.000Z</time>
      </trkpt>
      <trkpt lat="47.50495" lon="6.76657">
        <ele>395.6</ele>
        <time>2014-09-28T07:21:06.000Z</time>
      </trkpt>
      <trkpt lat="47.5049" lon="6.7666">
        <ele>395.8</ele>
        <time>2014-09-28T07:21:07.000Z</time>
      </trkpt>
      <trkpt lat="47.50485" lon="6.76661">
        <ele>395.6</ele>
        <time>2014-09-28T07:21:08.000Z</time>
      </trkpt>
      <trkpt lat="47.50482" lon="6.76662">
        <ele>395.5</ele>
        <time>2014-09-28T07:21:09.000Z</time>
      </trkpt>
      <trkpt lat="47.50478" lon="6.76663">
        <ele>395.3</ele>
        <time>2014-09-28T07:21:10.000Z</time>
      </trkpt>
      <trkpt lat="47.50474" lon="6.76665">
        <ele>395.3</ele>
        <time>2014-09-28T07:21:11.000Z</time>
      </trkpt>
      <trkpt lat="47.50469" lon="6.76667">
        <ele>394.8</ele>
        <time>2014-09-28T07:21:12.000Z</time>
      </trkpt>
      <trkpt lat="47.50465" lon="6.7667">
        <ele>394.6</ele>
        <time>2014-09-28T07:21:13.000Z</time>
      </trkpt>
      <trkpt lat="47.50461" lon="6.76672">
        <ele>394.4</ele>
        <time>2014-09-28T07:21:14.000Z</time>
      </trkpt>
      <trkpt lat="47.50458" lon="6.76674">
        <ele>394.8</ele>
        <time>2014-09-28T07:21:15.000Z</time>
      </trkpt>
      <trkpt lat="47.50454" lon="6.76675">
        <ele>394.3</ele>
        <time>2014-09-28T07:21:16.000Z</time>
      </trkpt>
      <trkpt lat="47.50451" lon="6.76677">
        <ele>394.2</ele>
        <time>2014-09-28T07:21:17.000Z</time>
      </trkpt>
      <trkpt lat="47.50447" lon="6.76678">
        <ele>392.9</ele>
        <time>2014-09-28T07:21:18.000Z</time>
      </trkpt>
      <trkpt lat="47.50443" lon="6.7668">
        <ele>394.3</ele>
        <time>2014-09-28T07:21:19.000Z</time>
      </trkpt>
      <trkpt lat="47.50439" lon="6.76682">
        <ele>393.9</ele>
        <time>2014-09-28T07:21:20.000Z</time>
      </trkpt>
      <trkpt lat="47.50433" lon="6.76684">
        <ele>393.8</ele>
        <time>2014-09-28T07:21:21.000Z</time>
      </trkpt>
      <trkpt lat="47.50429" lon="6.76686">
        <ele>393.7</ele>
        <time>2014-09-28T07:21:22.000Z</time>
      </trkpt>
      <trkpt lat="47.50424" lon="6.76687">
        <ele>393.4</ele>
        <time>2014-09-28T07:21:23.000Z</time>
      </trkpt>
      <trkpt lat="47.5042" lon="6.7669">
        <ele>393.9</ele>
        <time>2014-09-28T07:21:24.000Z</time>
      </trkpt>
      <trkpt lat="47.50415" lon="6.7669">
        <ele>392.8</ele>
        <time>2014-09-28T07:21:25.000Z</time>
      </trkpt>
      <trkpt lat="47.5041" lon="6.76692">
        <ele>392.8</ele>
        <time>2014-09-28T07:21:26.000Z</time>
      </trkpt>
      <trkpt lat="47.50377" lon="6.76708">
        <ele>394.7</ele>
        <time>2014-09-28T07:21:34.000Z</time>
      </trkpt>
      <trkpt lat="47.50373" lon="6.7671">
        <ele>395.4</ele>
        <time>2014-09-28T07:21:35.000Z</time>
      </trkpt>
      <trkpt lat="47.50368" lon="6.76713">
        <ele>394.4</ele>
        <time>2014-09-28T07:21:36.000Z</time>
      </trkpt>
      <trkpt lat="47.50364" lon="6.76714">
        <ele>394.6</ele>
        <time>2014-09-28T07:21:37.000Z</time>
      </trkpt>
      <trkpt lat="47.50359" lon="6.76714">
        <ele>394.6</ele>
        <time>2014-09-28T07:21:38.000Z</time>
      </trkpt>
      <trkpt lat="47.50354" lon="6.76716">
        <ele>394.8</ele>
        <time>2014-09-28T07:21:39.000Z</time>
      </trkpt>
      <trkpt lat="47.5035" lon="6.76718">
        <ele>394.2</ele>
        <time>2014-09-28T07:21:40.000Z</time>
      </trkpt>
      <trkpt lat="47.50345" lon="6.7672">
        <ele>396.2</ele>
        <time>2014-09-28T07:21:41.000Z</time>
      </trkpt>
      <trkpt lat="47.50341" lon="6.76721">
        <ele>397.1</ele>
        <time>2014-09-28T07:21:42.000Z</time>
      </trkpt>
      <trkpt lat="47.50336" lon="6.76723">
        <ele>398</ele>
        <time>2014-09-28T07:21:43.000Z</time>
      </trkpt>
      <trkpt lat="47.50332" lon="6.76724">
        <ele>398.4</ele>
        <time>2014-09-28T07:21:44.000Z</time>
      </trkpt>
      <trkpt lat="47.50328" lon="6.76726">
        <ele>398.1</ele>
        <time>2014-09-28T07:21:45.000Z</time>
      </trkpt>
      <trkpt lat="47.50324" lon="6.76728">
        <ele>397.6</ele>
        <time>2014-09-28T07:21:46.000Z</time>
      </trkpt>
      <trkpt lat="47.5032" lon="6.76729">
        <ele>397.8</ele>
        <time>2014-09-28T07:21:47.000Z</time>
      </trkpt>
      <trkpt lat="47.50316" lon="6.76731">
        <ele>397.9</ele>
        <time>2014-09-28T07:21:48.000Z</time>
      </trkpt>
      <trkpt lat="47.50312" lon="6.76733">
        <ele>398.4</ele>
        <time>2014-09-28T07:21:49.000Z</time>
      </trkpt>
      <trkpt lat="47.50307" lon="6.76734">
        <ele>398.6</ele>
        <time>2014-09-28T07:21:50.000Z</time>
      </trkpt>
      <trkpt lat="47.50303" lon="6.76735">
        <ele>398.6</ele>
        <time>2014-09-28T07:21:51.000Z</time>
      </trkpt>
      <trkpt lat="47.50299" lon="6.76736">
        <ele>398.5</ele>
        <time>2014-09-28T07:21:52.000Z</time>
      </trkpt>
      <trkpt lat="47.50294" lon="6.76737">
        <ele>398.4</ele>
        <time>2014-09-28T07:21:53.000Z</time>
      </trkpt>
      <trkpt lat="47.5029" lon="6.76738">
        <ele>398.3</ele>
        <time>2014-09-28T07:21:54.000Z</time>
      </trkpt>
      <trkpt lat="47.50286" lon="6.76739">
        <ele>398</ele>
        <time>2014-09-28T07:21:55.000Z</time>
      </trkpt>
      <trkpt lat="47.50281" lon="6.7674">
        <ele>398.2</ele>
        <time>2014-09-28T07:21:56.000Z</time>
      </trkpt>
      <trkpt lat="47.50277" lon="6.76741">
        <ele>398.5</ele>
        <time>2014-09-28T07:21:57.000Z</time>
      </trkpt>
      <trkpt lat="47.50273" lon="6.76742">
        <ele>399.1</ele>
        <time>2014-09-28T07:21:58.000Z</time>
      </trkpt>
      <trkpt lat="47.5027" lon="6.76742">
        <ele>399.1</ele>
        <time>2014-09-28T07:21:59.000Z</time>
      </trkpt>
      <trkpt lat="47.50266" lon="6.76743">
        <ele>398.6</ele>
        <time>2014-09-28T07:22:00.000Z</time>
      </trkpt>
      <trkpt lat="47.50262" lon="6.76744">
        <ele>398.7</ele>
        <time>2014-09-28T07:22:01.000Z</time>
      </trkpt>
      <trkpt lat="47.50259" lon="6.76745">
        <ele>398.3</ele>
        <time>2014-09-28T07:22:02.000Z</time>
      </trkpt>
      <trkpt lat="47.50255" lon="6.76747">
        <ele>398</ele>
        <time>2014-09-28T07:22:03.000Z</time>
      </trkpt>
      <trkpt lat="47.50252" lon="6.76748">
        <ele>398.1</ele>
        <time>2014-09-28T07:22:04.000Z</time>
      </trkpt>
      <trkpt lat="47.50248" lon="6.76749">
        <ele>398.2</ele>
        <time>2014-09-28T07:22:05.000Z</time>
      </trkpt>
      <trkpt lat="47.50245" lon="6.76749">
        <ele>399.9</ele>
        <time>2014-09-28T07:22:06.000Z</time>
      </trkpt>
      <trkpt lat="47.50243" lon="6.76747">
        <ele>399.7</ele>
        <time>2014-09-28T07:22:07.000Z</time>
      </trkpt>
      <trkpt lat="47.50241" lon="6.76744">
        <ele>400.7</ele>
        <time>2014-09-28T07:22:08.000Z</time>
      </trkpt>
      <trkpt lat="47.50239" lon="6.7674">
        <ele>401.1</ele>
        <time>2014-09-28T07:22:09.000Z</time>
      </trkpt>
      <trkpt lat="47.50237" lon="6.76736">
        <ele>401.3</ele>
        <time>2014-09-28T07:22:10.000Z</time>
      </trkpt>
      <trkpt lat="47.50235" lon="6.76731">
        <ele>401.9</ele>
        <time>2014-09-28T07:22:11.000Z</time>
      </trkpt>
      <trkpt lat="47.50233" lon="6.76727">
        <ele>402.3</ele>
        <time>2014-09-28T07:22:12.000Z</time>
      </trkpt>
      <trkpt lat="47.50231" lon="6.76724">
        <ele>402.7</ele>
        <time>2014-09-28T07:22:13.000Z</time>
      </trkpt>
      <trkpt lat="47.50228" lon="6.7672">
        <ele>402.8</ele>
        <time>2014-09-28T07:22:14.000Z</time>
      </trkpt>
      <trkpt lat="47.50227" lon="6.76716">
        <ele>402.9</ele>
        <time>2014-09-28T07:22:15.000Z</time>
      </trkpt>
      <trkpt lat="47.50225" lon="6.76711">
        <ele>402.9</ele>
        <time>2014-09-28T07:22:16.000Z</time>
      </trkpt>
      <trkpt lat="47.50223" lon="6.76707">
        <ele>403</ele>
        <time>2014-09-28T07:22:17.000Z</time>
      </trkpt>
      <trkpt lat="47.50222" lon="6.76702">
        <ele>402.8</ele>
        <time>2014-09-28T07:22:18.000Z</time>
      </trkpt>
      <trkpt lat="47.5022" lon="6.76697">
        <ele>402.8</ele>
        <time>2014-09-28T07:22:19.000Z</time>
      </trkpt>
      <trkpt lat="47.50219" lon="6.76692">
        <ele>403.4</ele>
        <time>2014-09-28T07:22:20.000Z</time>
      </trkpt>
      <trkpt lat="47.50217" lon="6.76688">
        <ele>404.2</ele>
        <time>2014-09-28T07:22:21.000Z</time>
      </trkpt>
      <trkpt lat="47.50216" lon="6.76683">
        <ele>404</ele>
        <time>2014-09-28T07:22:22.000Z</time>
      </trkpt>
      <trkpt lat="47.50214" lon="6.76678">
        <ele>403.7</ele>
        <time>2014-09-28T07:22:23.000Z</time>
      </trkpt>
      <trkpt lat="47.50213" lon="6.76673">
        <ele>404.6</ele>
        <time>2014-09-28T07:22:24.000Z</time>
      </trkpt>
      <trkpt lat="47.50211" lon="6.76668">
        <ele>404.3</ele>
        <time>2014-09-28T07:22:25.000Z</time>
      </trkpt>
      <trkpt lat="47.5021" lon="6.76663">
        <ele>404.5</ele>
        <time>2014-09-28T07:22:26.000Z</time>
      </trkpt>
      <trkpt lat="47.50205" lon="6.7665">
        <ele>404.4</ele>
        <time>2014-09-28T07:22:29.000Z</time>
      </trkpt>
      <trkpt lat="47.50204" lon="6.76646">
        <ele>404.9</ele>
        <time>2014-09-28T07:22:30.000Z</time>
      </trkpt>
      <trkpt lat="47.50203" lon="6.76641">
        <ele>404.5</ele>
        <time>2014-09-28T07:22:31.000Z</time>
      </trkpt>
      <trkpt lat="47.50201" lon="6.76636">
        <ele>404.3</ele>
        <time>2014-09-28T07:22:32.000Z</time>
      </trkpt>
      <trkpt lat="47.50199" lon="6.76631">
        <ele>404.4</ele>
        <time>2014-09-28T07:22:33.000Z</time>
      </trkpt>
      <trkpt lat="47.50198" lon="6.76625">
        <ele>404.1</ele>
        <time>2014-09-28T07:22:34.000Z</time>
      </trkpt>
      <trkpt lat="47.50196" lon="6.7662">
        <ele>403.8</ele>
        <time>2014-09-28T07:22:35.000Z</time>
      </trkpt>
      <trkpt lat="47.50194" lon="6.76615">
        <ele>403.4</ele>
        <time>2014-09-28T07:22:36.000Z</time>
      </trkpt>
      <trkpt lat="47.50193" lon="6.76609">
        <ele>403.1</ele>
        <time>2014-09-28T07:22:37.000Z</time>
      </trkpt>
      <trkpt lat="47.50193" lon="6.76605">
        <ele>402.6</ele>
        <time>2014-09-28T07:22:38.000Z</time>
      </trkpt>
      <trkpt lat="47.50193" lon="6.76601">
        <ele>402.3</ele>
        <time>2014-09-28T07:22:39.000Z</time>
      </trkpt>
      <trkpt lat="47.50194" lon="6.76595">
        <ele>402</ele>
        <time>2014-09-28T07:22:41.000Z</time>
      </trkpt>
      <trkpt lat="47.50195" lon="6.76593">
        <ele>401.9</ele>
        <time>2014-09-28T07:22:42.000Z</time>
      </trkpt>
      <trkpt lat="47.50195" lon="6.76588">
        <ele>401</ele>
        <time>2014-09-28T07:22:45.000Z</time>
      </trkpt>
      <trkpt lat="47.50195" lon="6.76585">
        <ele>400.6</ele>
        <time>2014-09-28T07:22:46.000Z</time>
      </trkpt>
      <trkpt lat="47.50196" lon="6.76581">
        <ele>400.4</ele>
        <time>2014-09-28T07:22:47.000Z</time>
      </trkpt>
      <trkpt lat="47.50197" lon="6.76578">
        <ele>399.8</ele>
        <time>2014-09-28T07:22:48.000Z</time>
      </trkpt>
      <trkpt lat="47.50199" lon="6.76574">
        <ele>399.3</ele>
        <time>2014-09-28T07:22:49.000Z</time>
      </trkpt>
      <trkpt lat="47.50202" lon="6.7657">
        <ele>399.8</ele>
        <time>2014-09-28T07:22:50.000Z</time>
      </trkpt>
      <trkpt lat="47.50205" lon="6.76568">
        <ele>399.5</ele>
        <time>2014-09-28T07:22:51.000Z</time>
      </trkpt>
      <trkpt lat="47.50208" lon="6.76565">
        <ele>398.1</ele>
        <time>2014-09-28T07:22:52.000Z</time>
      </trkpt>
      <trkpt lat="47.50212" lon="6.76563">
        <ele>397.7</ele>
        <time>2014-09-28T07:22:53.000Z</time>
      </trkpt>
      <trkpt lat="47.50216" lon="6.76561">
        <ele>397.8</ele>
        <time>2014-09-28T07:22:54.000Z</time>
      </trkpt>
      <trkpt lat="47.5022" lon="6.76557">
        <ele>398.2</ele>
        <time>2014-09-28T07:22:55.000Z</time>
      </trkpt>
      <trkpt lat="47.50222" lon="6.76553">
        <ele>398.2</ele>
        <time>2014-09-28T07:22:56.000Z</time>
      </trkpt>
      <trkpt lat="47.50224" lon="6.76548">
        <ele>397.7</ele>
        <time>2014-09-28T07:22:57.000Z</time>
      </trkpt>
      <trkpt lat="47.50225" lon="6.76543">
        <ele>398.1</ele>
        <time>2014-09-28T07:22:58.000Z</time>
      </trkpt>
      <trkpt lat="47.50225" lon="6.76538">
        <ele>397.4</ele>
        <time>2014-09-28T07:22:59.000Z</time>
      </trkpt>
      <trkpt lat="47.50224" lon="6.76533">
        <ele>396.6</ele>
        <time>2014-09-28T07:23:00.000Z</time>
      </trkpt>
      <trkpt lat="47.50223" lon="6.76528">
        <ele>395.4</ele>
        <time>2014-09-28T07:23:01.000Z</time>
      </trkpt>
      <trkpt lat="47.50222" lon="6.76522">
        <ele>392.2</ele>
        <time>2014-09-28T07:23:02.000Z</time>
      </trkpt>
      <trkpt lat="47.5022" lon="6.76516">
        <ele>390.8</ele>
        <time>2014-09-28T07:23:03.000Z</time>
      </trkpt>
      <trkpt lat="47.50218" lon="6.76509">
        <ele>390.3</ele>
        <time>2014-09-28T07:23:04.000Z</time>
      </trkpt>
      <trkpt lat="47.50207" lon="6.76493">
        <ele>389.4</ele>
        <time>2014-09-28T07:23:05.000Z</time>
      </trkpt>
      <trkpt lat="47.50203" lon="6.76485">
        <ele>388.9</ele>
        <time>2014-09-28T07:23:06.000Z</time>
      </trkpt>
      <trkpt lat="47.502" lon="6.76471">
        <ele>388.7</ele>
        <time>2014-09-28T07:23:07.000Z</time>
      </trkpt>
      <trkpt lat="47.50197" lon="6.76459">
        <ele>388.4</ele>
        <time>2014-09-28T07:23:08.000Z</time>
      </trkpt>
      <trkpt lat="47.50193" lon="6.76448">
        <ele>388</ele>
        <time>2014-09-28T07:23:09.000Z</time>
      </trkpt>
      <trkpt lat="47.50191" lon="6.76442">
        <ele>386.8</ele>
        <time>2014-09-28T07:23:10.000Z</time>
      </trkpt>
      <trkpt lat="47.50191" lon="6.76438">
        <ele>386.4</ele>
        <time>2014-09-28T07:23:11.000Z</time>
      </trkpt>
      <trkpt lat="47.50188" lon="6.7643">
        <ele>386.6</ele>
        <time>2014-09-28T07:23:12.000Z</time>
      </trkpt>
      <trkpt lat="47.50187" lon="6.76426">
        <ele>385.7</ele>
        <time>2014-09-28T07:23:13.000Z</time>
      </trkpt>
      <trkpt lat="47.50186" lon="6.7642">
        <ele>385.2</ele>
        <time>2014-09-28T07:23:14.000Z</time>
      </trkpt>
      <trkpt lat="47.50185" lon="6.76416">
        <ele>384.9</ele>
        <time>2014-09-28T07:23:15.000Z</time>
      </trkpt>
      <trkpt lat="47.50183" lon="6.76411">
        <ele>384.2</ele>
        <time>2014-09-28T07:23:16.000Z</time>
      </trkpt>
      <trkpt lat="47.50183" lon="6.76406">
        <ele>383.7</ele>
        <time>2014-09-28T07:23:17.000Z</time>
      </trkpt>
      <trkpt lat="47.50182" lon="6.76401">
        <ele>382.5</ele>
        <time>2014-09-28T07:23:18.000Z</time>
      </trkpt>
      <trkpt lat="47.5018" lon="6.76397">
        <ele>380.9</ele>
        <time>2014-09-28T07:23:19.000Z</time>
      </trkpt>
      <trkpt lat="47.50179" lon="6.76393">
        <ele>379.5</ele>
        <time>2014-09-28T07:23:20.000Z</time>
      </trkpt>
      <trkpt lat="47.50178" lon="6.76389">
        <ele>378.3</ele>
        <time>2014-09-28T07:23:21.000Z</time>
      </trkpt>
      <trkpt lat="47.50177" lon="6.76385">
        <ele>376.2</ele>
        <time>2014-09-28T07:23:22.000Z</time>
      </trkpt>
      <trkpt lat="47.50176" lon="6.76379">
        <ele>374.7</ele>
        <time>2014-09-28T07:23:23.000Z</time>
      </trkpt>
      <trkpt lat="47.50175" lon="6.76372">
        <ele>374.2</ele>
        <time>2014-09-28T07:23:24.000Z</time>
      </trkpt>
      <trkpt lat="47.50173" lon="6.76363">
        <ele>373.4</ele>
        <time>2014-09-28T07:23:25.000Z</time>
      </trkpt>
      <trkpt lat="47.50166" lon="6.76333">
        <ele>372.8</ele>
        <time>2014-09-28T07:23:26.000Z</time>
      </trkpt>
      <trkpt lat="47.5016" lon="6.76274">
        <ele>370.1</ele>
        <time>2014-09-28T07:23:31.000Z</time>
      </trkpt>
      <trkpt lat="47.50158" lon="6.76258">
        <ele>370.3</ele>
        <time>2014-09-28T07:23:32.000Z</time>
      </trkpt>
      <trkpt lat="47.50156" lon="6.76243">
        <ele>370.5</ele>
        <time>2014-09-28T07:23:33.000Z</time>
      </trkpt>
      <trkpt lat="47.50154" lon="6.76228">
        <ele>370.5</ele>
        <time>2014-09-28T07:23:34.000Z</time>
      </trkpt>
      <trkpt lat="47.50152" lon="6.76215">
        <ele>370.2</ele>
        <time>2014-09-28T07:23:35.000Z</time>
      </trkpt>
      <trkpt lat="47.50151" lon="6.76201">
        <ele>370.1</ele>
        <time>2014-09-28T07:23:36.000Z</time>
      </trkpt>
      <trkpt lat="47.50148" lon="6.76188">
        <ele>370</ele>
        <time>2014-09-28T07:23:37.000Z</time>
      </trkpt>
      <trkpt lat="47.50146" lon="6.76173">
        <ele>370.4</ele>
        <time>2014-09-28T07:23:38.000Z</time>
      </trkpt>
      <trkpt lat="47.50144" lon="6.76159">
        <ele>370.6</ele>
        <time>2014-09-28T07:23:39.000Z</time>
      </trkpt>
      <trkpt lat="47.5014" lon="6.76146">
        <ele>370.7</ele>
        <time>2014-09-28T07:23:40.000Z</time>
      </trkpt>
      <trkpt lat="47.50135" lon="6.76136">
        <ele>369</ele>
        <time>2014-09-28T07:23:41.000Z</time>
      </trkpt>
      <trkpt lat="47.50131" lon="6.76129">
        <ele>367</ele>
        <time>2014-09-28T07:23:42.000Z</time>
      </trkpt>
      <trkpt lat="47.50127" lon="6.76125">
        <ele>365.1</ele>
        <time>2014-09-28T07:23:43.000Z</time>
      </trkpt>
      <trkpt lat="47.50123" lon="6.76116">
        <ele>362.2</ele>
        <time>2014-09-28T07:23:44.000Z</time>
      </trkpt>
      <trkpt lat="47.50122" lon="6.76111">
        <ele>361.9</ele>
        <time>2014-09-28T07:23:45.000Z</time>
      </trkpt>
      <trkpt lat="47.50121" lon="6.76104">
        <ele>360.9</ele>
        <time>2014-09-28T07:23:46.000Z</time>
      </trkpt>
      <trkpt lat="47.5012" lon="6.76101">
        <ele>359.6</ele>
        <time>2014-09-28T07:23:47.000Z</time>
      </trkpt>
      <trkpt lat="47.50112" lon="6.7609">
        <ele>352.2</ele>
        <time>2014-09-28T07:23:48.000Z</time>
      </trkpt>
      <trkpt lat="47.50104" lon="6.76075">
        <ele>348.1</ele>
        <time>2014-09-28T07:23:49.000Z</time>
      </trkpt>
      <trkpt lat="47.50098" lon="6.76066">
        <ele>346.5</ele>
        <time>2014-09-28T07:23:50.000Z</time>
      </trkpt>
      <trkpt lat="47.5009" lon="6.76049">
        <ele>347.8</ele>
        <time>2014-09-28T07:23:51.000Z</time>
      </trkpt>
      <trkpt lat="47.50087" lon="6.76037">
        <ele>347.1</ele>
        <time>2014-09-28T07:23:52.000Z</time>
      </trkpt>
      <trkpt lat="47.50081" lon="6.76026">
        <ele>346.5</ele>
        <time>2014-09-28T07:23:53.000Z</time>
      </trkpt>
      <trkpt lat="47.50076" lon="6.76015">
        <ele>346.4</ele>
        <time>2014-09-28T07:23:54.000Z</time>
      </trkpt>
      <trkpt lat="47.5007" lon="6.75996">
        <ele>348.8</ele>
        <time>2014-09-28T07:23:55.000Z</time>
      </trkpt>
      <trkpt lat="47.50062" lon="6.7598">
        <ele>351.2</ele>
        <time>2014-09-28T07:23:56.000Z</time>
      </trkpt>
      <trkpt lat="47.50054" lon="6.75964">
        <ele>353.3</ele>
        <time>2014-09-28T07:23:57.000Z</time>
      </trkpt>
      <trkpt lat="47.50049" lon="6.75953">
        <ele>354.7</ele>
        <time>2014-09-28T07:23:58.000Z</time>
      </trkpt>
      <trkpt lat="47.50043" lon="6.75947">
        <ele>354.5</ele>
        <time>2014-09-28T07:23:59.000Z</time>
      </trkpt>
      <trkpt lat="47.50037" lon="6.75937">
        <ele>354.2</ele>
        <time>2014-09-28T07:24:00.000Z</time>
      </trkpt>
      <trkpt lat="47.5003" lon="6.75921">
        <ele>356.7</ele>
        <time>2014-09-28T07:24:01.000Z</time>
      </trkpt>
      <trkpt lat="47.50023" lon="6.75905">
        <ele>358.3</ele>
        <time>2014-09-28T07:24:02.000Z</time>
      </trkpt>
      <trkpt lat="47.50017" lon="6.75887">
        <ele>359.5</ele>
        <time>2014-09-28T07:24:03.000Z</time>
      </trkpt>
      <trkpt lat="47.50011" lon="6.75874">
        <ele>360.4</ele>
        <time>2014-09-28T07:24:04.000Z</time>
      </trkpt>
      <trkpt lat="47.50007" lon="6.75862">
        <ele>361.5</ele>
        <time>2014-09-28T07:24:05.000Z</time>
      </trkpt>
      <trkpt lat="47.50002" lon="6.7585">
        <ele>363.4</ele>
        <time>2014-09-28T07:24:06.000Z</time>
      </trkpt>
      <trkpt lat="47.49997" lon="6.75843">
        <ele>362.8</ele>
        <time>2014-09-28T07:24:07.000Z</time>
      </trkpt>
      <trkpt lat="47.49992" lon="6.75834">
        <ele>362.6</ele>
        <time>2014-09-28T07:24:08.000Z</time>
      </trkpt>
      <trkpt lat="47.49986" lon="6.75827">
        <ele>363.4</ele>
        <time>2014-09-28T07:24:09.000Z</time>
      </trkpt>
      <trkpt lat="47.49983" lon="6.75811">
        <ele>361.3</ele>
        <time>2014-09-28T07:24:10.000Z</time>
      </trkpt>
      <trkpt lat="47.49977" lon="6.75795">
        <ele>362.3</ele>
        <time>2014-09-28T07:24:11.000Z</time>
      </trkpt>
      <trkpt lat="47.49971" lon="6.75782">
        <ele>363.5</ele>
        <time>2014-09-28T07:24:12.000Z</time>
      </trkpt>
      <trkpt lat="47.49967" lon="6.75774">
        <ele>363.4</ele>
        <time>2014-09-28T07:24:12.999Z</time>
      </trkpt>
      <trkpt lat="47.4996" lon="6.75761">
        <ele>363.9</ele>
        <time>2014-09-28T07:24:14.000Z</time>
      </trkpt>
      <trkpt lat="47.49954" lon="6.75753">
        <ele>363.5</ele>
        <time>2014-09-28T07:24:15.000Z</time>
      </trkpt>
      <trkpt lat="47.49948" lon="6.75744">
        <ele>363.2</ele>
        <time>2014-09-28T07:24:16.000Z</time>
      </trkpt>
      <trkpt lat="47.4994" lon="6.75738">
        <ele>362.6</ele>
        <time>2014-09-28T07:24:17.000Z</time>
      </trkpt>
      <trkpt lat="47.49932" lon="6.75725">
        <ele>363.5</ele>
        <time>2014-09-28T07:24:18.000Z</time>
      </trkpt>
      <trkpt lat="47.49923" lon="6.75717">
        <ele>363.3</ele>
        <time>2014-09-28T07:24:19.000Z</time>
      </trkpt>
      <trkpt lat="47.49916" lon="6.75713">
        <ele>364.7</ele>
        <time>2014-09-28T07:24:20.000Z</time>
      </trkpt>
      <trkpt lat="47.49908" lon="6.7571">
        <ele>365</ele>
        <time>2014-09-28T07:24:21.000Z</time>
      </trkpt>
      <trkpt lat="47.49902" lon="6.7571">
        <ele>366</ele>
        <time>2014-09-28T07:24:22.000Z</time>
      </trkpt>
      <trkpt lat="47.49894" lon="6.75711">
        <ele>365.4</ele>
        <time>2014-09-28T07:24:23.000Z</time>
      </trkpt>
      <trkpt lat="47.49886" lon="6.75711">
        <ele>365.3</ele>
        <time>2014-09-28T07:24:24.000Z</time>
      </trkpt>
      <trkpt lat="47.49878" lon="6.75714">
        <ele>365.7</ele>
        <time>2014-09-28T07:24:25.000Z</time>
      </trkpt>
      <trkpt lat="47.49868" lon="6.75719">
        <ele>366</ele>
        <time>2014-09-28T07:24:26.000Z</time>
      </trkpt>
      <trkpt lat="47.49854" lon="6.75726">
        <ele>365.3</ele>
        <time>2014-09-28T07:24:29.000Z</time>
      </trkpt>
      <trkpt lat="47.49846" lon="6.75727">
        <ele>364.4</ele>
        <time>2014-09-28T07:24:30.000Z</time>
      </trkpt>
      <trkpt lat="47.49841" lon="6.75728">
        <ele>364.1</ele>
        <time>2014-09-28T07:24:31.000Z</time>
      </trkpt>
      <trkpt lat="47.49833" lon="6.75728">
        <ele>364.5</ele>
        <time>2014-09-28T07:24:32.000Z</time>
      </trkpt>
      <trkpt lat="47.49824" lon="6.7573">
        <ele>364.1</ele>
        <time>2014-09-28T07:24:33.000Z</time>
      </trkpt>
      <trkpt lat="47.49815" lon="6.75736">
        <ele>362.4</ele>
        <time>2014-09-28T07:24:34.000Z</time>
      </trkpt>
      <trkpt lat="47.49806" lon="6.75738">
        <ele>362</ele>
        <time>2014-09-28T07:24:35.000Z</time>
      </trkpt>
      <trkpt lat="47.49796" lon="6.75741">
        <ele>362.2</ele>
        <time>2014-09-28T07:24:36.000Z</time>
      </trkpt>
      <trkpt lat="47.49785" lon="6.75744">
        <ele>361</ele>
        <time>2014-09-28T07:24:37.000Z</time>
      </trkpt>
      <trkpt lat="47.49776" lon="6.7575">
        <ele>360.5</ele>
        <time>2014-09-28T07:24:38.000Z</time>
      </trkpt>
      <trkpt lat="47.49766" lon="6.75755">
        <ele>358.8</ele>
        <time>2014-09-28T07:24:39.000Z</time>
      </trkpt>
      <trkpt lat="47.49758" lon="6.75758">
        <ele>358.9</ele>
        <time>2014-09-28T07:24:40.000Z</time>
      </trkpt>
      <trkpt lat="47.49751" lon="6.7576">
        <ele>358.9</ele>
        <time>2014-09-28T07:24:41.000Z</time>
      </trkpt>
      <trkpt lat="47.49744" lon="6.75763">
        <ele>358.5</ele>
        <time>2014-09-28T07:24:42.000Z</time>
      </trkpt>
      <trkpt lat="47.49736" lon="6.75765">
        <ele>358.3</ele>
        <time>2014-09-28T07:24:43.000Z</time>
      </trkpt>
      <trkpt lat="47.49728" lon="6.75766">
        <ele>357.7</ele>
        <time>2014-09-28T07:24:44.000Z</time>
      </trkpt>
      <trkpt lat="47.49719" lon="6.7577">
        <ele>357.1</ele>
        <time>2014-09-28T07:24:45.000Z</time>
      </trkpt>
      <trkpt lat="47.49709" lon="6.75772">
        <ele>356.7</ele>
        <time>2014-09-28T07:24:46.000Z</time>
      </trkpt>
      <trkpt lat="47.49701" lon="6.75771">
        <ele>356.6</ele>
        <time>2014-09-28T07:24:47.000Z</time>
      </trkpt>
      <trkpt lat="47.49692" lon="6.75772">
        <ele>355.8</ele>
        <time>2014-09-28T07:24:48.000Z</time>
      </trkpt>
      <trkpt lat="47.49682" lon="6.75776">
        <ele>355.6</ele>
        <time>2014-09-28T07:24:49.000Z</time>
      </trkpt>
      <trkpt lat="47.49673" lon="6.75777">
        <ele>355.6</ele>
        <time>2014-09-28T07:24:50.000Z</time>
      </trkpt>
      <trkpt lat="47.49665" lon="6.75778">
        <ele>355.3</ele>
        <time>2014-09-28T07:24:51.000Z</time>
      </trkpt>
      <trkpt lat="47.4966" lon="6.75777">
        <ele>354.7</ele>
        <time>2014-09-28T07:24:52.000Z</time>
      </trkpt>
      <trkpt lat="47.49653" lon="6.75777">
        <ele>354.2</ele>
        <time>2014-09-28T07:24:53.000Z</time>
      </trkpt>
      <trkpt lat="47.49645" lon="6.7578">
        <ele>352.6</ele>
        <time>2014-09-28T07:24:54.000Z</time>
      </trkpt>
      <trkpt lat="47.49639" lon="6.7578">
        <ele>351.8</ele>
        <time>2014-09-28T07:24:55.000Z</time>
      </trkpt>
      <trkpt lat="47.4963" lon="6.75779">
        <ele>349.2</ele>
        <time>2014-09-28T07:24:56.000Z</time>
      </trkpt>
      <trkpt lat="47.49624" lon="6.7578">
        <ele>348.5</ele>
        <time>2014-09-28T07:24:57.000Z</time>
      </trkpt>
      <trkpt lat="47.49619" lon="6.75779">
        <ele>347.8</ele>
        <time>2014-09-28T07:24:58.000Z</time>
      </trkpt>
      <trkpt lat="47.49612" lon="6.75779">
        <ele>347.5</ele>
        <time>2014-09-28T07:24:59.000Z</time>
      </trkpt>
      <trkpt lat="47.49606" lon="6.75779">
        <ele>347.3</ele>
        <time>2014-09-28T07:25:00.000Z</time>
      </trkpt>
      <trkpt lat="47.49601" lon="6.75778">
        <ele>345.6</ele>
        <time>2014-09-28T07:25:01.000Z</time>
      </trkpt>
      <trkpt lat="47.49593" lon="6.7578">
        <ele>345.3</ele>
        <time>2014-09-28T07:25:02.000Z</time>
      </trkpt>
      <trkpt lat="47.49583" lon="6.75776">
        <ele>342.8</ele>
        <time>2014-09-28T07:25:03.000Z</time>
      </trkpt>
      <trkpt lat="47.49576" lon="6.75769">
        <ele>340.1</ele>
        <time>2014-09-28T07:25:04.000Z</time>
      </trkpt>
      <trkpt lat="47.49569" lon="6.75762">
        <ele>338.1</ele>
        <time>2014-09-28T07:25:05.000Z</time>
      </trkpt>
      <trkpt lat="47.49561" lon="6.75755">
        <ele>336.3</ele>
        <time>2014-09-28T07:25:06.000Z</time>
      </trkpt>
      <trkpt lat="47.49562" lon="6.75749">
        <ele>334.6</ele>
        <time>2014-09-28T07:25:07.000Z</time>
      </trkpt>
      <trkpt lat="47.49561" lon="6.75747">
        <ele>333.9</ele>
        <time>2014-09-28T07:25:08.000Z</time>
      </trkpt>
      <trkpt lat="47.49563" lon="6.75743">
        <ele>335.6</ele>
        <time>2014-09-28T07:25:09.000Z</time>
      </trkpt>
      <trkpt lat="47.49564" lon="6.75741">
        <ele>336.8</ele>
        <time>2014-09-28T07:25:10.000Z</time>
      </trkpt>
      <trkpt lat="47.49567" lon="6.75738">
        <ele>336</ele>
        <time>2014-09-28T07:25:11.000Z</time>
      </trkpt>
      <trkpt lat="47.49569" lon="6.75735">
        <ele>336.2</ele>
        <time>2014-09-28T07:25:12.000Z</time>
      </trkpt>
      <trkpt lat="47.49572" lon="6.75731">
        <ele>337.5</ele>
        <time>2014-09-28T07:25:13.000Z</time>
      </trkpt>
      <trkpt lat="47.49576" lon="6.75726">
        <ele>335.9</ele>
        <time>2014-09-28T07:25:14.000Z</time>
      </trkpt>
      <trkpt lat="47.4958" lon="6.75722">
        <ele>336.3</ele>
        <time>2014-09-28T07:25:15.000Z</time>
      </trkpt>
      <trkpt lat="47.49584" lon="6.75717">
        <ele>335.9</ele>
        <time>2014-09-28T07:25:16.000Z</time>
      </trkpt>
      <trkpt lat="47.49587" lon="6.75712">
        <ele>336</ele>
        <time>2014-09-28T07:25:17.000Z</time>
      </trkpt>
      <trkpt lat="47.49591" lon="6.75707">
        <ele>335.9</ele>
        <time>2014-09-28T07:25:18.000Z</time>
      </trkpt>
      <trkpt lat="47.49594" lon="6.75701">
        <ele>335.3</ele>
        <time>2014-09-28T07:25:19.000Z</time>
      </trkpt>
      <trkpt lat="47.49598" lon="6.75697">
        <ele>334.3</ele>
        <time>2014-09-28T07:25:20.000Z</time>
      </trkpt>
      <trkpt lat="47.49601" lon="6.75691">
        <ele>334.7</ele>
        <time>2014-09-28T07:25:21.000Z</time>
      </trkpt>
      <trkpt lat="47.49603" lon="6.75684">
        <ele>334.4</ele>
        <time>2014-09-28T07:25:22.000Z</time>
      </trkpt>
      <trkpt lat="47.49603" lon="6.75677">
        <ele>333.2</ele>
        <time>2014-09-28T07:25:23.000Z</time>
      </trkpt>
      <trkpt lat="47.49596" lon="6.75672">
        <ele>332.8</ele>
        <time>2014-09-28T07:25:24.000Z</time>
      </trkpt>
      <trkpt lat="47.49593" lon="6.75669">
        <ele>331.2</ele>
        <time>2014-09-28T07:25:25.000Z</time>
      </trkpt>
      <trkpt lat="47.4959" lon="6.75665">
        <ele>330</ele>
        <time>2014-09-28T07:25:26.000Z</time>
      </trkpt>
      <trkpt lat="47.4958" lon="6.75654">
        <ele>325</ele>
        <time>2014-09-28T07:25:29.000Z</time>
      </trkpt>
      <trkpt lat="47.49574" lon="6.7566">
        <ele>323.6</ele>
        <time>2014-09-28T07:25:30.000Z</time>
      </trkpt>
      <trkpt lat="47.4957" lon="6.75665">
        <ele>322.5</ele>
        <time>2014-09-28T07:25:31.000Z</time>
      </trkpt>
      <trkpt lat="47.49567" lon="6.75671">
        <ele>320.4</ele>
        <time>2014-09-28T07:25:32.000Z</time>
      </trkpt>
      <trkpt lat="47.49564" lon="6.75678">
        <ele>319.5</ele>
        <time>2014-09-28T07:25:33.000Z</time>
      </trkpt>
      <trkpt lat="47.4956" lon="6.75684">
        <ele>319.2</ele>
        <time>2014-09-28T07:25:34.000Z</time>
      </trkpt>
      <trkpt lat="47.49555" lon="6.7569">
        <ele>318.2</ele>
        <time>2014-09-28T07:25:35.000Z</time>
      </trkpt>
      <trkpt lat="47.4955" lon="6.75696">
        <ele>318</ele>
        <time>2014-09-28T07:25:36.000Z</time>
      </trkpt>
      <trkpt lat="47.49545" lon="6.75701">
        <ele>318.4</ele>
        <time>2014-09-28T07:25:37.000Z</time>
      </trkpt>
      <trkpt lat="47.4954" lon="6.75706">
        <ele>318.5</ele>
        <time>2014-09-28T07:25:38.000Z</time>
      </trkpt>
      <trkpt lat="47.49537" lon="6.75711">
        <ele>317.5</ele>
        <time>2014-09-28T07:25:39.000Z</time>
      </trkpt>
      <trkpt lat="47.49532" lon="6.75715">
        <ele>316.9</ele>
        <time>2014-09-28T07:25:40.000Z</time>
      </trkpt>
      <trkpt lat="47.49527" lon="6.75717">
        <ele>317.3</ele>
        <time>2014-09-28T07:25:41.000Z</time>
      </trkpt>
      <trkpt lat="47.49521" lon="6.7572">
        <ele>316.9</ele>
        <time>2014-09-28T07:25:42.000Z</time>
      </trkpt>
      <trkpt lat="47.49517" lon="6.75723">
        <ele>316.8</ele>
        <time>2014-09-28T07:25:43.000Z</time>
      </trkpt>
      <trkpt lat="47.49512" lon="6.75728">
        <ele>318.3</ele>
        <time>2014-09-28T07:25:44.000Z</time>
      </trkpt>
      <trkpt lat="47.49508" lon="6.75733">
        <ele>318.6</ele>
        <time>2014-09-28T07:25:45.000Z</time>
      </trkpt>
      <trkpt lat="47.49505" lon="6.75734">
        <ele>317.1</ele>
        <time>2014-09-28T07:25:46.000Z</time>
      </trkpt>
      <trkpt lat="47.495" lon="6.75736">
        <ele>316.8</ele>
        <time>2014-09-28T07:25:47.000Z</time>
      </trkpt>
      <trkpt lat="47.49495" lon="6.75737">
        <ele>316.4</ele>
        <time>2014-09-28T07:25:48.000Z</time>
      </trkpt>
      <trkpt lat="47.4949" lon="6.75738">
        <ele>315.9</ele>
        <time>2014-09-28T07:25:49.000Z</time>
      </trkpt>
      <trkpt lat="47.49487" lon="6.7574">
        <ele>316.3</ele>
        <time>2014-09-28T07:25:50.000Z</time>
      </trkpt>
      <trkpt lat="47.49483" lon="6.7574">
        <ele>316.3</ele>
        <time>2014-09-28T07:25:51.000Z</time>
      </trkpt>
      <trkpt lat="47.49479" lon="6.75739">
        <ele>315.8</ele>
        <time>2014-09-28T07:25:52.000Z</time>
      </trkpt>
      <trkpt lat="47.49478" lon="6.75732">
        <ele>315.7</ele>
        <time>2014-09-28T07:25:53.000Z</time>
      </trkpt>
      <trkpt lat="47.49476" lon="6.75725">
        <ele>316.4</ele>
        <time>2014-09-28T07:25:54.000Z</time>
      </trkpt>
      <trkpt lat="47.49474" lon="6.75719">
        <ele>316.1</ele>
        <time>2014-09-28T07:25:55.000Z</time>
      </trkpt>
      <trkpt lat="47.49472" lon="6.75712">
        <ele>316.1</ele>
        <time>2014-09-28T07:25:56.000Z</time>
      </trkpt>
      <trkpt lat="47.4947" lon="6.75705">
        <ele>316.4</ele>
        <time>2014-09-28T07:25:57.000Z</time>
      </trkpt>
      <trkpt lat="47.49469" lon="6.75698">
        <ele>316.3</ele>
        <time>2014-09-28T07:25:58.000Z</time>
      </trkpt>
      <trkpt lat="47.49466" lon="6.75693">
        <ele>316.1</ele>
        <time>2014-09-28T07:25:59.000Z</time>
      </trkpt>
      <trkpt lat="47.49463" lon="6.75691">
        <ele>316</ele>
        <time>2014-09-28T07:26:00.000Z</time>
      </trkpt>
      <trkpt lat="47.49458" lon="6.75691">
        <ele>315.8</ele>
        <time>2014-09-28T07:26:01.000Z</time>
      </trkpt>
      <trkpt lat="47.49454" lon="6.75693">
        <ele>316.6</ele>
        <time>2014-09-28T07:26:02.000Z</time>
      </trkpt>
      <trkpt lat="47.49451" lon="6.75696">
        <ele>317</ele>
        <time>2014-09-28T07:26:03.000Z</time>
      </trkpt>
      <trkpt lat="47.49446" lon="6.75699">
        <ele>316.8</ele>
        <time>2014-09-28T07:26:04.000Z</time>
      </trkpt>
      <trkpt lat="47.49444" lon="6.75695">
        <ele>317.3</ele>
        <time>2014-09-28T07:26:05.000Z</time>
      </trkpt>
      <trkpt lat="47.49441" lon="6.75692">
        <ele>317.4</ele>
        <time>2014-09-28T07:26:06.000Z</time>
      </trkpt>
      <trkpt lat="47.49438" lon="6.75688">
        <ele>317.6</ele>
        <time>2014-09-28T07:26:07.000Z</time>
      </trkpt>
      <trkpt lat="47.49435" lon="6.75684">
        <ele>317.9</ele>
        <time>2014-09-28T07:26:08.000Z</time>
      </trkpt>
      <trkpt lat="47.49434" lon="6.75679">
        <ele>317.4</ele>
        <time>2014-09-28T07:26:09.000Z</time>
      </trkpt>
      <trkpt lat="47.49432" lon="6.75673">
        <ele>317</ele>
        <time>2014-09-28T07:26:10.000Z</time>
      </trkpt>
      <trkpt lat="47.49431" lon="6.75667">
        <ele>316.8</ele>
        <time>2014-09-28T07:26:11.000Z</time>
      </trkpt>
      <trkpt lat="47.49429" lon="6.75663">
        <ele>317</ele>
        <time>2014-09-28T07:26:12.000Z</time>
      </trkpt>
      <trkpt lat="47.49425" lon="6.75661">
        <ele>315.7</ele>
        <time>2014-09-28T07:26:14.000Z</time>
      </trkpt>
      <trkpt lat="47.49423" lon="6.75663">
        <ele>314.8</ele>
        <time>2014-09-28T07:26:15.000Z</time>
      </trkpt>
      <trkpt lat="47.4942" lon="6.75666">
        <ele>312</ele>
        <time>2014-09-28T07:26:16.000Z</time>
      </trkpt>
      <trkpt lat="47.49417" lon="6.75669">
        <ele>309.7</ele>
        <time>2014-09-28T07:26:17.000Z</time>
      </trkpt>
      <trkpt lat="47.49413" lon="6.75673">
        <ele>311.8</ele>
        <time>2014-09-28T07:26:18.000Z</time>
      </trkpt>
      <trkpt lat="47.49408" lon="6.75677">
        <ele>312.7</ele>
        <time>2014-09-28T07:26:19.000Z</time>
      </trkpt>
      <trkpt lat="47.49403" lon="6.75681">
        <ele>312.6</ele>
        <time>2014-09-28T07:26:20.000Z</time>
      </trkpt>
      <trkpt lat="47.49399" lon="6.75686">
        <ele>312.4</ele>
        <time>2014-09-28T07:26:21.000Z</time>
      </trkpt>
      <trkpt lat="47.49394" lon="6.7569">
        <ele>312.8</ele>
        <time>2014-09-28T07:26:22.000Z</time>
      </trkpt>
      <trkpt lat="47.4939" lon="6.75694">
        <ele>312.4</ele>
        <time>2014-09-28T07:26:23.000Z</time>
      </trkpt>
      <trkpt lat="47.49387" lon="6.75698">
        <ele>311.9</ele>
        <time>2014-09-28T07:26:24.000Z</time>
      </trkpt>
      <trkpt lat="47.49384" lon="6.75702">
        <ele>311.6</ele>
        <time>2014-09-28T07:26:25.000Z</time>
      </trkpt>
      <trkpt lat="47.49381" lon="6.75704">
        <ele>311.4</ele>
        <time>2014-09-28T07:26:26.000Z</time>
      </trkpt>
      <trkpt lat="47.49374" lon="6.7571">
        <ele>311.3</ele>
        <time>2014-09-28T07:26:29.000Z</time>
      </trkpt>
      <trkpt lat="47.49372" lon="6.75712">
        <ele>311.3</ele>
        <time>2014-09-28T07:26:30.000Z</time>
      </trkpt>
      <trkpt lat="47.4937" lon="6.75713">
        <ele>311.7</ele>
        <time>2014-09-28T07:26:31.000Z</time>
      </trkpt>
      <trkpt lat="47.49366" lon="6.75716">
        <ele>311.6</ele>
        <time>2014-09-28T07:26:33.000Z</time>
      </trkpt>
      <trkpt lat="47.49365" lon="6.75718">
        <ele>312.1</ele>
        <time>2014-09-28T07:26:34.000Z</time>
      </trkpt>
      <trkpt lat="47.49362" lon="6.7572">
        <ele>312.3</ele>
        <time>2014-09-28T07:26:36.000Z</time>
      </trkpt>
      <trkpt lat="47.4936" lon="6.7572">
        <ele>312.4</ele>
        <time>2014-09-28T07:26:37.000Z</time>
      </trkpt>
      <trkpt lat="47.49357" lon="6.75721">
        <ele>312.5</ele>
        <time>2014-09-28T07:26:38.000Z</time>
      </trkpt>
      <trkpt lat="47.49355" lon="6.75722">
        <ele>312.6</ele>
        <time>2014-09-28T07:26:39.000Z</time>
      </trkpt>
      <trkpt lat="47.49351" lon="6.75723">
        <ele>312.1</ele>
        <time>2014-09-28T07:26:40.000Z</time>
      </trkpt>
      <trkpt lat="47.49347" lon="6.75726">
        <ele>311.3</ele>
        <time>2014-09-28T07:26:41.000Z</time>
      </trkpt>
      <trkpt lat="47.49342" lon="6.7573">
        <ele>310.5</ele>
        <time>2014-09-28T07:26:42.000Z</time>
      </trkpt>
      <trkpt lat="47.49336" lon="6.75734">
        <ele>308.9</ele>
        <time>2014-09-28T07:26:43.000Z</time>
      </trkpt>
      <trkpt lat="47.49324" lon="6.75744">
        <ele>308.6</ele>
        <time>2014-09-28T07:26:44.000Z</time>
      </trkpt>
      <trkpt lat="47.4932" lon="6.75748">
        <ele>308.6</ele>
        <time>2014-09-28T07:26:45.000Z</time>
      </trkpt>
      <trkpt lat="47.49317" lon="6.7575">
        <ele>308.2</ele>
        <time>2014-09-28T07:26:46.000Z</time>
      </trkpt>
      <trkpt lat="47.49313" lon="6.75754">
        <ele>307.6</ele>
        <time>2014-09-28T07:26:47.000Z</time>
      </trkpt>
      <trkpt lat="47.4931" lon="6.75758">
        <ele>307.9</ele>
        <time>2014-09-28T07:26:48.000Z</time>
      </trkpt>
      <trkpt lat="47.49305" lon="6.75765">
        <ele>308</ele>
        <time>2014-09-28T07:26:49.000Z</time>
      </trkpt>
      <trkpt lat="47.493" lon="6.75768">
        <ele>307.4</ele>
        <time>2014-09-28T07:26:50.000Z</time>
      </trkpt>
      <trkpt lat="47.49297" lon="6.75773">
        <ele>306.2</ele>
        <time>2014-09-28T07:26:51.000Z</time>
      </trkpt>
      <trkpt lat="47.49293" lon="6.75775">
        <ele>304.1</ele>
        <time>2014-09-28T07:26:52.000Z</time>
      </trkpt>
      <trkpt lat="47.49289" lon="6.75781">
        <ele>304.7</ele>
        <time>2014-09-28T07:26:53.000Z</time>
      </trkpt>
      <trkpt lat="47.49285" lon="6.75785">
        <ele>305.3</ele>
        <time>2014-09-28T07:26:54.000Z</time>
      </trkpt>
      <trkpt lat="47.49283" lon="6.75789">
        <ele>305.6</ele>
        <time>2014-09-28T07:26:55.000Z</time>
      </trkpt>
      <trkpt lat="47.49279" lon="6.75794">
        <ele>305.7</ele>
        <time>2014-09-28T07:26:56.000Z</time>
      </trkpt>
      <trkpt lat="47.49276" lon="6.75798">
        <ele>305.5</ele>
        <time>2014-09-28T07:26:57.000Z</time>
      </trkpt>
      <trkpt lat="47.49273" lon="6.75804">
        <ele>306</ele>
        <time>2014-09-28T07:26:58.000Z</time>
      </trkpt>
      <trkpt lat="47.49271" lon="6.75807">
        <ele>306.2</ele>
        <time>2014-09-28T07:26:59.000Z</time>
      </trkpt>
      <trkpt lat="47.49268" lon="6.75811">
        <ele>305.5</ele>
        <time>2014-09-28T07:27:00.000Z</time>
      </trkpt>
      <trkpt lat="47.49265" lon="6.75816">
        <ele>303.4</ele>
        <time>2014-09-28T07:27:01.000Z</time>
      </trkpt>
      <trkpt lat="47.49262" lon="6.75821">
        <ele>304.2</ele>
        <time>2014-09-28T07:27:02.000Z</time>
      </trkpt>
      <trkpt lat="47.49259" lon="6.75827">
        <ele>304.6</ele>
        <time>2014-09-28T07:27:03.000Z</time>
      </trkpt>
      <trkpt lat="47.49256" lon="6.75833">
        <ele>304.8</ele>
        <time>2014-09-28T07:27:04.000Z</time>
      </trkpt>
      <trkpt lat="47.49253" lon="6.75838">
        <ele>300.4</ele>
        <time>2014-09-28T07:27:05.000Z</time>
      </trkpt>
      <trkpt lat="47.4925" lon="6.75843">
        <ele>300</ele>
        <time>2014-09-28T07:27:06.000Z</time>
      </trkpt>
      <trkpt lat="47.49243" lon="6.75853">
        <ele>301</ele>
        <time>2014-09-28T07:27:07.000Z</time>
      </trkpt>
      <trkpt lat="47.49241" lon="6.75861">
        <ele>303</ele>
        <time>2014-09-28T07:27:08.000Z</time>
      </trkpt>
      <trkpt lat="47.49238" lon="6.75868">
        <ele>304.2</ele>
        <time>2014-09-28T07:27:09.000Z</time>
      </trkpt>
      <trkpt lat="47.49235" lon="6.75874">
        <ele>304</ele>
        <time>2014-09-28T07:27:10.000Z</time>
      </trkpt>
      <trkpt lat="47.49232" lon="6.7588">
        <ele>304.2</ele>
        <time>2014-09-28T07:27:11.000Z</time>
      </trkpt>
      <trkpt lat="47.49228" lon="6.75885">
        <ele>304.3</ele>
        <time>2014-09-28T07:27:12.000Z</time>
      </trkpt>
      <trkpt lat="47.49226" lon="6.75892">
        <ele>304</ele>
        <time>2014-09-28T07:27:13.000Z</time>
      </trkpt>
      <trkpt lat="47.49227" lon="6.75897">
        <ele>301</ele>
        <time>2014-09-28T07:27:14.000Z</time>
      </trkpt>
      <trkpt lat="47.49224" lon="6.75902">
        <ele>300.3</ele>
        <time>2014-09-28T07:27:15.000Z</time>
      </trkpt>
      <trkpt lat="47.49219" lon="6.75912">
        <ele>303.5</ele>
        <time>2014-09-28T07:27:16.000Z</time>
      </trkpt>
      <trkpt lat="47.49214" lon="6.75919">
        <ele>304.2</ele>
        <time>2014-09-28T07:27:17.000Z</time>
      </trkpt>
      <trkpt lat="47.4921" lon="6.75925">
        <ele>304.6</ele>
        <time>2014-09-28T07:27:18.000Z</time>
      </trkpt>
      <trkpt lat="47.49207" lon="6.75933">
        <ele>305.2</ele>
        <time>2014-09-28T07:27:19.000Z</time>
      </trkpt>
      <trkpt lat="47.49204" lon="6.75939">
        <ele>305.6</ele>
        <time>2014-09-28T07:27:20.000Z</time>
      </trkpt>
      <trkpt lat="47.49201" lon="6.75945">
        <ele>305.5</ele>
        <time>2014-09-28T07:27:21.000Z</time>
      </trkpt>
      <trkpt lat="47.49198" lon="6.7595">
        <ele>305.1</ele>
        <time>2014-09-28T07:27:22.000Z</time>
      </trkpt>
      <trkpt lat="47.49203" lon="6.75954">
        <ele>304.1</ele>
        <time>2014-09-28T07:27:23.000Z</time>
      </trkpt>
      <trkpt lat="47.49202" lon="6.75959">
        <ele>303.4</ele>
        <time>2014-09-28T07:27:24.000Z</time>
      </trkpt>
      <trkpt lat="47.492" lon="6.75964">
        <ele>303.6</ele>
        <time>2014-09-28T07:27:25.000Z</time>
      </trkpt>
      <trkpt lat="47.49192" lon="6.75965">
        <ele>301.2</ele>
        <time>2014-09-28T07:27:26.000Z</time>
      </trkpt>
      <trkpt lat="47.49171" lon="6.76007">
        <ele>304.8</ele>
        <time>2014-09-28T07:27:34.000Z</time>
      </trkpt>
      <trkpt lat="47.49163" lon="6.76016">
        <ele>303.3</ele>
        <time>2014-09-28T07:27:35.000Z</time>
      </trkpt>
      <trkpt lat="47.49161" lon="6.76025">
        <ele>304.6</ele>
        <time>2014-09-28T07:27:36.000Z</time>
      </trkpt>
      <trkpt lat="47.49158" lon="6.7603">
        <ele>304.9</ele>
        <time>2014-09-28T07:27:37.000Z</time>
      </trkpt>
      <trkpt lat="47.49156" lon="6.76037">
        <ele>305.3</ele>
        <time>2014-09-28T07:27:38.000Z</time>
      </trkpt>
      <trkpt lat="47.49153" lon="6.76044">
        <ele>305.2</ele>
        <time>2014-09-28T07:27:39.000Z</time>
      </trkpt>
      <trkpt lat="47.49151" lon="6.76051">
        <ele>305.5</ele>
        <time>2014-09-28T07:27:40.000Z</time>
      </trkpt>
      <trkpt lat="47.49149" lon="6.76057">
        <ele>304.1</ele>
        <time>2014-09-28T07:27:41.000Z</time>
      </trkpt>
      <trkpt lat="47.49148" lon="6.76064">
        <ele>304.5</ele>
        <time>2014-09-28T07:27:42.000Z</time>
      </trkpt>
      <trkpt lat="47.49146" lon="6.76071">
        <ele>304.5</ele>
        <time>2014-09-28T07:27:43.000Z</time>
      </trkpt>
      <trkpt lat="47.49144" lon="6.76078">
        <ele>304.9</ele>
        <time>2014-09-28T07:27:44.000Z</time>
      </trkpt>
      <trkpt lat="47.49142" lon="6.76085">
        <ele>304.3</ele>
        <time>2014-09-28T07:27:45.000Z</time>
      </trkpt>
      <trkpt lat="47.49139" lon="6.76091">
        <ele>304.2</ele>
        <time>2014-09-28T07:27:46.000Z</time>
      </trkpt>
      <trkpt lat="47.49138" lon="6.761">
        <ele>304.9</ele>
        <time>2014-09-28T07:27:47.000Z</time>
      </trkpt>
      <trkpt lat="47.49138" lon="6.76109">
        <ele>306.6</ele>
        <time>2014-09-28T07:27:48.000Z</time>
      </trkpt>
      <trkpt lat="47.49138" lon="6.76117">
        <ele>307.3</ele>
        <time>2014-09-28T07:27:49.000Z</time>
      </trkpt>
      <trkpt lat="47.49137" lon="6.76123">
        <ele>307.6</ele>
        <time>2014-09-28T07:27:50.000Z</time>
      </trkpt>
      <trkpt lat="47.49135" lon="6.76129">
        <ele>307.8</ele>
        <time>2014-09-28T07:27:51.000Z</time>
      </trkpt>
      <trkpt lat="47.49134" lon="6.76134">
        <ele>307.9</ele>
        <time>2014-09-28T07:27:52.000Z</time>
      </trkpt>
      <trkpt lat="47.49134" lon="6.76141">
        <ele>308</ele>
        <time>2014-09-28T07:27:53.000Z</time>
      </trkpt>
      <trkpt lat="47.4913" lon="6.76146">
        <ele>305.8</ele>
        <time>2014-09-28T07:27:54.000Z</time>
      </trkpt>
      <trkpt lat="47.49129" lon="6.76152">
        <ele>305.8</ele>
        <time>2014-09-28T07:27:55.000Z</time>
      </trkpt>
      <trkpt lat="47.49127" lon="6.76157">
        <ele>305</ele>
        <time>2014-09-28T07:27:56.000Z</time>
      </trkpt>
      <trkpt lat="47.49129" lon="6.76167">
        <ele>305.4</ele>
        <time>2014-09-28T07:27:57.000Z</time>
      </trkpt>
      <trkpt lat="47.49128" lon="6.76173">
        <ele>304.8</ele>
        <time>2014-09-28T07:27:58.000Z</time>
      </trkpt>
      <trkpt lat="47.49128" lon="6.76182">
        <ele>306.5</ele>
        <time>2014-09-28T07:27:59.000Z</time>
      </trkpt>
      <trkpt lat="47.49129" lon="6.76189">
        <ele>306.3</ele>
        <time>2014-09-28T07:28:00.000Z</time>
      </trkpt>
      <trkpt lat="47.49129" lon="6.76195">
        <ele>306.7</ele>
        <time>2014-09-28T07:28:01.000Z</time>
      </trkpt>
      <trkpt lat="47.49128" lon="6.76202">
        <ele>306.5</ele>
        <time>2014-09-28T07:28:02.000Z</time>
      </trkpt>
      <trkpt lat="47.49127" lon="6.7621">
        <ele>306.1</ele>
        <time>2014-09-28T07:28:03.000Z</time>
      </trkpt>
      <trkpt lat="47.49126" lon="6.76217">
        <ele>306.1</ele>
        <time>2014-09-28T07:28:04.000Z</time>
      </trkpt>
      <trkpt lat="47.49126" lon="6.76226">
        <ele>306.8</ele>
        <time>2014-09-28T07:28:05.000Z</time>
      </trkpt>
      <trkpt lat="47.49128" lon="6.76234">
        <ele>308.3</ele>
        <time>2014-09-28T07:28:06.000Z</time>
      </trkpt>
      <trkpt lat="47.49126" lon="6.7624">
        <ele>302.1</ele>
        <time>2014-09-28T07:28:08.000Z</time>
      </trkpt>
      <trkpt lat="47.49126" lon="6.76246">
        <ele>302.2</ele>
        <time>2014-09-28T07:28:09.000Z</time>
      </trkpt>
      <trkpt lat="47.49126" lon="6.76252">
        <ele>301.4</ele>
        <time>2014-09-28T07:28:11.000Z</time>
      </trkpt>
      <trkpt lat="47.49126" lon="6.76256">
        <ele>300.8</ele>
        <time>2014-09-28T07:28:12.000Z</time>
      </trkpt>
      <trkpt lat="47.49126" lon="6.76261">
        <ele>299.8</ele>
        <time>2014-09-28T07:28:13.000Z</time>
      </trkpt>
      <trkpt lat="47.49125" lon="6.76267">
        <ele>298.9</ele>
        <time>2014-09-28T07:28:14.000Z</time>
      </trkpt>
      <trkpt lat="47.49123" lon="6.76274">
        <ele>298.4</ele>
        <time>2014-09-28T07:28:15.000Z</time>
      </trkpt>
      <trkpt lat="47.49123" lon="6.76281">
        <ele>298.1</ele>
        <time>2014-09-28T07:28:16.000Z</time>
      </trkpt>
      <trkpt lat="47.49122" lon="6.76287">
        <ele>297.7</ele>
        <time>2014-09-28T07:28:17.000Z</time>
      </trkpt>
      <trkpt lat="47.49122" lon="6.76293">
        <ele>297</ele>
        <time>2014-09-28T07:28:18.000Z</time>
      </trkpt>
      <trkpt lat="47.49121" lon="6.763">
        <ele>297</ele>
        <time>2014-09-28T07:28:19.000Z</time>
      </trkpt>
      <trkpt lat="47.4912" lon="6.76307">
        <ele>297</ele>
        <time>2014-09-28T07:28:20.000Z</time>
      </trkpt>
      <trkpt lat="47.4912" lon="6.76315">
        <ele>296.7</ele>
        <time>2014-09-28T07:28:21.000Z</time>
      </trkpt>
      <trkpt lat="47.49119" lon="6.76323">
        <ele>294.9</ele>
        <time>2014-09-28T07:28:22.000Z</time>
      </trkpt>
      <trkpt lat="47.49119" lon="6.7633">
        <ele>294.4</ele>
        <time>2014-09-28T07:28:23.000Z</time>
      </trkpt>
      <trkpt lat="47.4912" lon="6.76349">
        <ele>295</ele>
        <time>2014-09-28T07:28:24.000Z</time>
      </trkpt>
      <trkpt lat="47.49119" lon="6.76356">
        <ele>294.7</ele>
        <time>2014-09-28T07:28:25.000Z</time>
      </trkpt>
      <trkpt lat="47.49119" lon="6.76363">
        <ele>295</ele>
        <time>2014-09-28T07:28:26.000Z</time>
      </trkpt>
      <trkpt lat="47.49125" lon="6.76368">
        <ele>296.1</ele>
        <time>2014-09-28T07:28:27.000Z</time>
      </trkpt>
      <trkpt lat="47.49126" lon="6.76397">
        <ele>296.4</ele>
        <time>2014-09-28T07:28:31.000Z</time>
      </trkpt>
      <trkpt lat="47.49126" lon="6.76409">
        <ele>298.8</ele>
        <time>2014-09-28T07:28:32.000Z</time>
      </trkpt>
      <trkpt lat="47.49125" lon="6.76419">
        <ele>298.7</ele>
        <time>2014-09-28T07:28:33.000Z</time>
      </trkpt>
      <trkpt lat="47.49125" lon="6.76427">
        <ele>299</ele>
        <time>2014-09-28T07:28:34.000Z</time>
      </trkpt>
      <trkpt lat="47.49124" lon="6.76435">
        <ele>299.2</ele>
        <time>2014-09-28T07:28:35.000Z</time>
      </trkpt>
      <trkpt lat="47.49123" lon="6.76443">
        <ele>299</ele>
        <time>2014-09-28T07:28:36.000Z</time>
      </trkpt>
      <trkpt lat="47.49123" lon="6.7645">
        <ele>298.4</ele>
        <time>2014-09-28T07:28:37.000Z</time>
      </trkpt>
      <trkpt lat="47.49123" lon="6.76457">
        <ele>298.4</ele>
        <time>2014-09-28T07:28:38.000Z</time>
      </trkpt>
      <trkpt lat="47.49121" lon="6.76461">
        <ele>295.9</ele>
        <time>2014-09-28T07:28:39.000Z</time>
      </trkpt>
      <trkpt lat="47.4912" lon="6.76467">
        <ele>294.3</ele>
        <time>2014-09-28T07:28:40.000Z</time>
      </trkpt>
      <trkpt lat="47.49118" lon="6.76473">
        <ele>290.4</ele>
        <time>2014-09-28T07:28:41.000Z</time>
      </trkpt>
      <trkpt lat="47.49119" lon="6.76482">
        <ele>291.3</ele>
        <time>2014-09-28T07:28:42.000Z</time>
      </trkpt>
      <trkpt lat="47.49121" lon="6.76491">
        <ele>292.5</ele>
        <time>2014-09-28T07:28:43.000Z</time>
      </trkpt>
      <trkpt lat="47.49126" lon="6.76497">
        <ele>293.3</ele>
        <time>2014-09-28T07:28:44.000Z</time>
      </trkpt>
      <trkpt lat="47.49131" lon="6.76507">
        <ele>296.1</ele>
        <time>2014-09-28T07:28:45.000Z</time>
      </trkpt>
      <trkpt lat="47.49138" lon="6.7651">
        <ele>297.2</ele>
        <time>2014-09-28T07:28:46.000Z</time>
      </trkpt>
      <trkpt lat="47.49144" lon="6.76511">
        <ele>298.7</ele>
        <time>2014-09-28T07:28:47.000Z</time>
      </trkpt>
      <trkpt lat="47.4915" lon="6.76509">
        <ele>299.4</ele>
        <time>2014-09-28T07:28:48.000Z</time>
      </trkpt>
      <trkpt lat="47.49155" lon="6.76508">
        <ele>300.3</ele>
        <time>2014-09-28T07:28:49.000Z</time>
      </trkpt>
      <trkpt lat="47.49159" lon="6.76505">
        <ele>301.4</ele>
        <time>2014-09-28T07:28:50.000Z</time>
      </trkpt>
      <trkpt lat="47.49162" lon="6.76502">
        <ele>302.1</ele>
        <time>2014-09-28T07:28:51.000Z</time>
      </trkpt>
      <trkpt lat="47.49165" lon="6.76501">
        <ele>302.7</ele>
        <time>2014-09-28T07:28:52.000Z</time>
      </trkpt>
      <trkpt lat="47.49169" lon="6.76497">
        <ele>302.1</ele>
        <time>2014-09-28T07:28:53.000Z</time>
      </trkpt>
      <trkpt lat="47.49173" lon="6.76494">
        <ele>301.9</ele>
        <time>2014-09-28T07:28:55.000Z</time>
      </trkpt>
      <trkpt lat="47.49174" lon="6.76492">
        <ele>300.8</ele>
        <time>2014-09-28T07:28:56.000Z</time>
      </trkpt>
      <trkpt lat="47.49176" lon="6.76486">
        <ele>299.8</ele>
        <time>2014-09-28T07:28:58.000Z</time>
      </trkpt>
      <trkpt lat="47.49176" lon="6.76482">
        <ele>299.8</ele>
        <time>2014-09-28T07:28:59.000Z</time>
      </trkpt>
      <trkpt lat="47.49175" lon="6.76478">
        <ele>306.7</ele>
        <time>2014-09-28T07:29:02.000Z</time>
      </trkpt>
      <trkpt lat="47.49175" lon="6.76476">
        <ele>307.2</ele>
        <time>2014-09-28T07:29:03.000Z</time>
      </trkpt>
      <trkpt lat="47.49174" lon="6.76471">
        <ele>311.8</ele>
        <time>2014-09-28T07:31:04.000Z</time>
      </trkpt>
      <trkpt lat="47.49174" lon="6.76469">
        <ele>311.2</ele>
        <time>2014-09-28T07:31:05.000Z</time>
      </trkpt>
      <trkpt lat="47.49173" lon="6.76463">
        <ele>309.5</ele>
        <time>2014-09-28T07:31:07.000Z</time>
      </trkpt>
      <trkpt lat="47.49174" lon="6.7646">
        <ele>308.1</ele>
        <time>2014-09-28T07:31:08.000Z</time>
      </trkpt>
      <trkpt lat="47.49176" lon="6.76455">
        <ele>308.9</ele>
        <time>2014-09-28T07:31:11.000Z</time>
      </trkpt>
      <trkpt lat="47.49177" lon="6.76455">
        <ele>308.9</ele>
        <time>2014-09-28T07:31:12.000Z</time>
      </trkpt>
      <trkpt lat="47.49179" lon="6.76458">
        <ele>308.4</ele>
        <time>2014-09-28T07:31:14.000Z</time>
      </trkpt>
      <trkpt lat="47.49179" lon="6.76461">
        <ele>307.4</ele>
        <time>2014-09-28T07:31:15.000Z</time>
      </trkpt>
      <trkpt lat="47.49179" lon="6.76465">
        <ele>306.3</ele>
        <time>2014-09-28T07:31:16.000Z</time>
      </trkpt>
      <trkpt lat="47.49178" lon="6.76469">
        <ele>306</ele>
        <time>2014-09-28T07:31:17.000Z</time>
      </trkpt>
      <trkpt lat="47.49176" lon="6.76471">
        <ele>305.8</ele>
        <time>2014-09-28T07:31:18.000Z</time>
      </trkpt>
      <trkpt lat="47.49173" lon="6.76473">
        <ele>304.7</ele>
        <time>2014-09-28T07:31:19.000Z</time>
      </trkpt>
      <trkpt lat="47.49173" lon="6.76478">
        <ele>305.5</ele>
        <time>2014-09-28T07:34:35.000Z</time>
      </trkpt>
      <trkpt lat="47.49174" lon="6.7648">
        <ele>305.2</ele>
        <time>2014-09-28T07:34:36.000Z</time>
      </trkpt>
      <trkpt lat="47.49175" lon="6.76486">
        <ele>305.5</ele>
        <time>2014-09-28T07:34:38.000Z</time>
      </trkpt>
      <trkpt lat="47.49175" lon="6.76489">
        <ele>305.7</ele>
        <time>2014-09-28T07:34:39.000Z</time>
      </trkpt>
      <trkpt lat="47.49174" lon="6.76492">
        <ele>306.7</ele>
        <time>2014-09-28T07:34:40.000Z</time>
      </trkpt>
      <trkpt lat="47.49172" lon="6.76495">
        <ele>305.7</ele>
        <time>2014-09-28T07:34:41.000Z</time>
      </trkpt>
      <trkpt lat="47.49163" lon="6.76502">
        <ele>306</ele>
        <time>2014-09-28T07:34:42.000Z</time>
      </trkpt>
      <trkpt lat="47.49159" lon="6.76505">
        <ele>305.5</ele>
        <time>2014-09-28T07:34:43.000Z</time>
      </trkpt>
      <trkpt lat="47.49155" lon="6.76509">
        <ele>305.4</ele>
        <time>2014-09-28T07:34:44.000Z</time>
      </trkpt>
      <trkpt lat="47.4915" lon="6.76512">
        <ele>303.7</ele>
        <time>2014-09-28T07:34:45.000Z</time>
      </trkpt>
      <trkpt lat="47.49143" lon="6.76514">
        <ele>303</ele>
        <time>2014-09-28T07:34:46.000Z</time>
      </trkpt>
      <trkpt lat="47.49137" lon="6.76517">
        <ele>302.7</ele>
        <time>2014-09-28T07:34:47.000Z</time>
      </trkpt>
      <trkpt lat="47.49131" lon="6.76517">
        <ele>302.4</ele>
        <time>2014-09-28T07:34:48.000Z</time>
      </trkpt>
      <trkpt lat="47.49126" lon="6.76518">
        <ele>302.6</ele>
        <time>2014-09-28T07:34:49.000Z</time>
      </trkpt>
      <trkpt lat="47.49121" lon="6.76522">
        <ele>302.7</ele>
        <time>2014-09-28T07:34:50.000Z</time>
      </trkpt>
      <trkpt lat="47.49119" lon="6.76528">
        <ele>302.7</ele>
        <time>2014-09-28T07:34:51.000Z</time>
      </trkpt>
      <trkpt lat="47.49119" lon="6.76538">
        <ele>302.7</ele>
        <time>2014-09-28T07:34:52.000Z</time>
      </trkpt>
      <trkpt lat="47.49122" lon="6.76553">
        <ele>305</ele>
        <time>2014-09-28T07:34:53.000Z</time>
      </trkpt>
      <trkpt lat="47.49122" lon="6.7656">
        <ele>304.6</ele>
        <time>2014-09-28T07:34:54.000Z</time>
      </trkpt>
      <trkpt lat="47.49122" lon="6.76568">
        <ele>304.8</ele>
        <time>2014-09-28T07:34:55.000Z</time>
      </trkpt>
      <trkpt lat="47.49123" lon="6.76576">
        <ele>304.8</ele>
        <time>2014-09-28T07:34:56.000Z</time>
      </trkpt>
      <trkpt lat="47.49124" lon="6.76584">
        <ele>305.1</ele>
        <time>2014-09-28T07:34:57.000Z</time>
      </trkpt>
      <trkpt lat="47.49126" lon="6.76593">
        <ele>305.3</ele>
        <time>2014-09-28T07:34:58.000Z</time>
      </trkpt>
      <trkpt lat="47.49126" lon="6.766">
        <ele>304.4</ele>
        <time>2014-09-28T07:34:59.000Z</time>
      </trkpt>
      <trkpt lat="47.49127" lon="6.76608">
        <ele>304.1</ele>
        <time>2014-09-28T07:35:00.000Z</time>
      </trkpt>
      <trkpt lat="47.49128" lon="6.76617">
        <ele>304.7</ele>
        <time>2014-09-28T07:35:01.000Z</time>
      </trkpt>
      <trkpt lat="47.4913" lon="6.76626">
        <ele>305.1</ele>
        <time>2014-09-28T07:35:02.000Z</time>
      </trkpt>
      <trkpt lat="47.49132" lon="6.76633">
        <ele>305.2</ele>
        <time>2014-09-28T07:35:03.000Z</time>
      </trkpt>
      <trkpt lat="47.49133" lon="6.7664">
        <ele>305.1</ele>
        <time>2014-09-28T07:35:04.000Z</time>
      </trkpt>
      <trkpt lat="47.49135" lon="6.76648">
        <ele>304.9</ele>
        <time>2014-09-28T07:35:05.000Z</time>
      </trkpt>
      <trkpt lat="47.49136" lon="6.76655">
        <ele>304.7</ele>
        <time>2014-09-28T07:35:06.000Z</time>
      </trkpt>
      <trkpt lat="47.49138" lon="6.76664">
        <ele>305</ele>
        <time>2014-09-28T07:35:07.000Z</time>
      </trkpt>
      <trkpt lat="47.49138" lon="6.76673">
        <ele>306</ele>
        <time>2014-09-28T07:35:08.000Z</time>
      </trkpt>
      <trkpt lat="47.49139" lon="6.76682">
        <ele>305.8</ele>
        <time>2014-09-28T07:35:09.000Z</time>
      </trkpt>
      <trkpt lat="47.49139" lon="6.7669">
        <ele>306.2</ele>
        <time>2014-09-28T07:35:10.000Z</time>
      </trkpt>
      <trkpt lat="47.4914" lon="6.76699">
        <ele>306.2</ele>
        <time>2014-09-28T07:35:11.000Z</time>
      </trkpt>
      <trkpt lat="47.49142" lon="6.76706">
        <ele>306.8</ele>
        <time>2014-09-28T07:35:12.000Z</time>
      </trkpt>
      <trkpt lat="47.49144" lon="6.76714">
        <ele>307.3</ele>
        <time>2014-09-28T07:35:13.000Z</time>
      </trkpt>
      <trkpt lat="47.49143" lon="6.7672">
        <ele>304.9</ele>
        <time>2014-09-28T07:35:14.000Z</time>
      </trkpt>
      <trkpt lat="47.49144" lon="6.76726">
        <ele>304.2</ele>
        <time>2014-09-28T07:35:15.000Z</time>
      </trkpt>
      <trkpt lat="47.49146" lon="6.76734">
        <ele>306.7</ele>
        <time>2014-09-28T07:35:16.000Z</time>
      </trkpt>
      <trkpt lat="47.49147" lon="6.76741">
        <ele>306.1</ele>
        <time>2014-09-28T07:35:17.000Z</time>
      </trkpt>
      <trkpt lat="47.49148" lon="6.76748">
        <ele>306.6</ele>
        <time>2014-09-28T07:35:18.000Z</time>
      </trkpt>
      <trkpt lat="47.49149" lon="6.76754">
        <ele>307.2</ele>
        <time>2014-09-28T07:35:19.000Z</time>
      </trkpt>
      <trkpt lat="47.49149" lon="6.76761">
        <ele>307.7</ele>
        <time>2014-09-28T07:35:20.000Z</time>
      </trkpt>
      <trkpt lat="47.4915" lon="6.76768">
        <ele>308.5</ele>
        <time>2014-09-28T07:35:21.000Z</time>
      </trkpt>
      <trkpt lat="47.49149" lon="6.76776">
        <ele>308.4</ele>
        <time>2014-09-28T07:35:22.000Z</time>
      </trkpt>
      <trkpt lat="47.49149" lon="6.76781">
        <ele>308.1</ele>
        <time>2014-09-28T07:35:23.000Z</time>
      </trkpt>
      <trkpt lat="47.49148" lon="6.76788">
        <ele>308.2</ele>
        <time>2014-09-28T07:35:24.000Z</time>
      </trkpt>
      <trkpt lat="47.49148" lon="6.76793">
        <ele>307.2</ele>
        <time>2014-09-28T07:35:25.000Z</time>
      </trkpt>
      <trkpt lat="47.49149" lon="6.76801">
        <ele>309</ele>
        <time>2014-09-28T07:35:26.000Z</time>
      </trkpt>
      <trkpt lat="47.49149" lon="6.7686">
        <ele>308.8</ele>
        <time>2014-09-28T07:35:34.000Z</time>
      </trkpt>
      <trkpt lat="47.4915" lon="6.7687">
        <ele>310</ele>
        <time>2014-09-28T07:35:35.000Z</time>
      </trkpt>
      <trkpt lat="47.49148" lon="6.76881">
        <ele>307.2</ele>
        <time>2014-09-28T07:35:36.000Z</time>
      </trkpt>
      <trkpt lat="47.49147" lon="6.76889">
        <ele>304.2</ele>
        <time>2014-09-28T07:35:37.000Z</time>
      </trkpt>
      <trkpt lat="47.49147" lon="6.76896">
        <ele>304.3</ele>
        <time>2014-09-28T07:35:38.000Z</time>
      </trkpt>
      <trkpt lat="47.49147" lon="6.76903">
        <ele>304.4</ele>
        <time>2014-09-28T07:35:39.000Z</time>
      </trkpt>
      <trkpt lat="47.49147" lon="6.7691">
        <ele>304.4</ele>
        <time>2014-09-28T07:35:40.000Z</time>
      </trkpt>
      <trkpt lat="47.49147" lon="6.76918">
        <ele>305</ele>
        <time>2014-09-28T07:35:41.000Z</time>
      </trkpt>
      <trkpt lat="47.49148" lon="6.76925">
        <ele>304.8</ele>
        <time>2014-09-28T07:35:42.000Z</time>
      </trkpt>
      <trkpt lat="47.49149" lon="6.76932">
        <ele>306</ele>
        <time>2014-09-28T07:35:43.000Z</time>
      </trkpt>
      <trkpt lat="47.4915" lon="6.7694">
        <ele>307.9</ele>
        <time>2014-09-28T07:35:44.000Z</time>
      </trkpt>
      <trkpt lat="47.4915" lon="6.76947">
        <ele>308.4</ele>
        <time>2014-09-28T07:35:45.000Z</time>
      </trkpt>
      <trkpt lat="47.4915" lon="6.76951">
        <ele>310.7</ele>
        <time>2014-09-28T07:35:46.000Z</time>
      </trkpt>
      <trkpt lat="47.49149" lon="6.76957">
        <ele>309.8</ele>
        <time>2014-09-28T07:35:47.000Z</time>
      </trkpt>
      <trkpt lat="47.49148" lon="6.76962">
        <ele>312.4</ele>
        <time>2014-09-28T07:35:48.000Z</time>
      </trkpt>
      <trkpt lat="47.49146" lon="6.76967">
        <ele>310.3</ele>
        <time>2014-09-28T07:35:49.000Z</time>
      </trkpt>
      <trkpt lat="47.49146" lon="6.76976">
        <ele>309.9</ele>
        <time>2014-09-28T07:35:50.000Z</time>
      </trkpt>
      <trkpt lat="47.49148" lon="6.76984">
        <ele>309.7</ele>
        <time>2014-09-28T07:35:51.000Z</time>
      </trkpt>
      <trkpt lat="47.49151" lon="6.76991">
        <ele>310.6</ele>
        <time>2014-09-28T07:35:52.000Z</time>
      </trkpt>
      <trkpt lat="47.49154" lon="6.76998">
        <ele>310.2</ele>
        <time>2014-09-28T07:35:53.000Z</time>
      </trkpt>
      <trkpt lat="47.49156" lon="6.77004">
        <ele>309.3</ele>
        <time>2014-09-28T07:35:54.000Z</time>
      </trkpt>
      <trkpt lat="47.49159" lon="6.77013">
        <ele>309.5</ele>
        <time>2014-09-28T07:35:55.000Z</time>
      </trkpt>
      <trkpt lat="47.49162" lon="6.77021">
        <ele>309.8</ele>
        <time>2014-09-28T07:35:56.000Z</time>
      </trkpt>
      <trkpt lat="47.49162" lon="6.77029">
        <ele>307.2</ele>
        <time>2014-09-28T07:35:57.000Z</time>
      </trkpt>
      <trkpt lat="47.49163" lon="6.77037">
        <ele>307.1</ele>
        <time>2014-09-28T07:35:58.000Z</time>
      </trkpt>
      <trkpt lat="47.49165" lon="6.77044">
        <ele>306.6</ele>
        <time>2014-09-28T07:35:59.000Z</time>
      </trkpt>
      <trkpt lat="47.49166" lon="6.7705">
        <ele>306.2</ele>
        <time>2014-09-28T07:36:00.000Z</time>
      </trkpt>
      <trkpt lat="47.49167" lon="6.77058">
        <ele>305.8</ele>
        <time>2014-09-28T07:36:01.000Z</time>
      </trkpt>
      <trkpt lat="47.49168" lon="6.77066">
        <ele>305.2</ele>
        <time>2014-09-28T07:36:02.000Z</time>
      </trkpt>
      <trkpt lat="47.49168" lon="6.77072">
        <ele>303.6</ele>
        <time>2014-09-28T07:36:03.000Z</time>
      </trkpt>
      <trkpt lat="47.4917" lon="6.77081">
        <ele>303.4</ele>
        <time>2014-09-28T07:36:04.000Z</time>
      </trkpt>
      <trkpt lat="47.49172" lon="6.7709">
        <ele>307.4</ele>
        <time>2014-09-28T07:36:05.000Z</time>
      </trkpt>
      <trkpt lat="47.49174" lon="6.77096">
        <ele>306.7</ele>
        <time>2014-09-28T07:36:06.000Z</time>
      </trkpt>
      <trkpt lat="47.49175" lon="6.77101">
        <ele>306</ele>
        <time>2014-09-28T07:36:07.000Z</time>
      </trkpt>
      <trkpt lat="47.49176" lon="6.77108">
        <ele>307.1</ele>
        <time>2014-09-28T07:36:08.000Z</time>
      </trkpt>
      <trkpt lat="47.49177" lon="6.77113">
        <ele>306.7</ele>
        <time>2014-09-28T07:36:09.000Z</time>
      </trkpt>
      <trkpt lat="47.49178" lon="6.77116">
        <ele>306.1</ele>
        <time>2014-09-28T07:36:10.000Z</time>
      </trkpt>
      <trkpt lat="47.49177" lon="6.7712">
        <ele>306.3</ele>
        <time>2014-09-28T07:36:11.000Z</time>
      </trkpt>
      <trkpt lat="47.49178" lon="6.77123">
        <ele>307.2</ele>
        <time>2014-09-28T07:36:12.000Z</time>
      </trkpt>
      <trkpt lat="47.49178" lon="6.7713">
        <ele>305.6</ele>
        <time>2014-09-28T07:36:14.000Z</time>
      </trkpt>
      <trkpt lat="47.4918" lon="6.77137">
        <ele>307.5</ele>
        <time>2014-09-28T07:36:15.000Z</time>
      </trkpt>
      <trkpt lat="47.4918" lon="6.7714">
        <ele>307.1</ele>
        <time>2014-09-28T07:36:16.000Z</time>
      </trkpt>
      <trkpt lat="47.49181" lon="6.77146">
        <ele>306.8</ele>
        <time>2014-09-28T07:36:17.000Z</time>
      </trkpt>
      <trkpt lat="47.49182" lon="6.77152">
        <ele>305.8</ele>
        <time>2014-09-28T07:36:18.000Z</time>
      </trkpt>
      <trkpt lat="47.49183" lon="6.77157">
        <ele>305.1</ele>
        <time>2014-09-28T07:36:19.000Z</time>
      </trkpt>
      <trkpt lat="47.49184" lon="6.77164">
        <ele>304.6</ele>
        <time>2014-09-28T07:36:20.000Z</time>
      </trkpt>
      <trkpt lat="47.49185" lon="6.77169">
        <ele>304.5</ele>
        <time>2014-09-28T07:36:21.000Z</time>
      </trkpt>
      <trkpt lat="47.49185" lon="6.77175">
        <ele>304.5</ele>
        <time>2014-09-28T07:36:22.000Z</time>
      </trkpt>
      <trkpt lat="47.49186" lon="6.77182">
        <ele>300.7</ele>
        <time>2014-09-28T07:36:23.000Z</time>
      </trkpt>
      <trkpt lat="47.49186" lon="6.77189">
        <ele>300.4</ele>
        <time>2014-09-28T07:36:24.000Z</time>
      </trkpt>
      <trkpt lat="47.49185" lon="6.77197">
        <ele>302.8</ele>
        <time>2014-09-28T07:36:25.000Z</time>
      </trkpt>
      <trkpt lat="47.49184" lon="6.77204">
        <ele>303.7</ele>
        <time>2014-09-28T07:36:26.000Z</time>
      </trkpt>
      <trkpt lat="47.49182" lon="6.77224">
        <ele>304.2</ele>
        <time>2014-09-28T07:36:29.000Z</time>
      </trkpt>
      <trkpt lat="47.49183" lon="6.7723">
        <ele>304.3</ele>
        <time>2014-09-28T07:36:30.000Z</time>
      </trkpt>
      <trkpt lat="47.49183" lon="6.77238">
        <ele>305.4</ele>
        <time>2014-09-28T07:36:31.000Z</time>
      </trkpt>
      <trkpt lat="47.49184" lon="6.77244">
        <ele>304.6</ele>
        <time>2014-09-28T07:36:32.000Z</time>
      </trkpt>
      <trkpt lat="47.49185" lon="6.77252">
        <ele>305.1</ele>
        <time>2014-09-28T07:36:33.000Z</time>
      </trkpt>
      <trkpt lat="47.49184" lon="6.7726">
        <ele>305.2</ele>
        <time>2014-09-28T07:36:34.000Z</time>
      </trkpt>
      <trkpt lat="47.49184" lon="6.77268">
        <ele>305.3</ele>
        <time>2014-09-28T07:36:35.000Z</time>
      </trkpt>
      <trkpt lat="47.49184" lon="6.77275">
        <ele>305.8</ele>
        <time>2014-09-28T07:36:36.000Z</time>
      </trkpt>
      <trkpt lat="47.49184" lon="6.77284">
        <ele>305.9</ele>
        <time>2014-09-28T07:36:37.000Z</time>
      </trkpt>
      <trkpt lat="47.49184" lon="6.77292">
        <ele>306</ele>
        <time>2014-09-28T07:36:38.000Z</time>
      </trkpt>
      <trkpt lat="47.49183" lon="6.77301">
        <ele>306.9</ele>
        <time>2014-09-28T07:36:39.000Z</time>
      </trkpt>
      <trkpt lat="47.49183" lon="6.77309">
        <ele>306.8</ele>
        <time>2014-09-28T07:36:40.000Z</time>
      </trkpt>
      <trkpt lat="47.49183" lon="6.77318">
        <ele>307.8</ele>
        <time>2014-09-28T07:36:41.000Z</time>
      </trkpt>
      <trkpt lat="47.49184" lon="6.77325">
        <ele>308.1</ele>
        <time>2014-09-28T07:36:42.000Z</time>
      </trkpt>
      <trkpt lat="47.49186" lon="6.77329">
        <ele>308.9</ele>
        <time>2014-09-28T07:36:43.000Z</time>
      </trkpt>
      <trkpt lat="47.4919" lon="6.77331">
        <ele>310.1</ele>
        <time>2014-09-28T07:36:44.000Z</time>
      </trkpt>
      <trkpt lat="47.49194" lon="6.77333">
        <ele>310.5</ele>
        <time>2014-09-28T07:36:45.000Z</time>
      </trkpt>
      <trkpt lat="47.49198" lon="6.77335">
        <ele>311</ele>
        <time>2014-09-28T07:36:46.000Z</time>
      </trkpt>
      <trkpt lat="47.49202" lon="6.77338">
        <ele>311</ele>
        <time>2014-09-28T07:36:47.000Z</time>
      </trkpt>
      <trkpt lat="47.49206" lon="6.7734">
        <ele>310.9</ele>
        <time>2014-09-28T07:36:47.998Z</time>
      </trkpt>
      <trkpt lat="47.49211" lon="6.77339">
        <ele>311.3</ele>
        <time>2014-09-28T07:36:49.000Z</time>
      </trkpt>
      <trkpt lat="47.49216" lon="6.7734">
        <ele>311.1</ele>
        <time>2014-09-28T07:36:50.048Z</time>
      </trkpt>
      <trkpt lat="47.49221" lon="6.77341">
        <ele>312.1</ele>
        <time>2014-09-28T07:36:50.999Z</time>
      </trkpt>
      <trkpt lat="47.49226" lon="6.77341">
        <ele>312.1</ele>
        <time>2014-09-28T07:36:52.000Z</time>
      </trkpt>
      <trkpt lat="47.49231" lon="6.77341">
        <ele>312.2</ele>
        <time>2014-09-28T07:36:53.000Z</time>
      </trkpt>
      <trkpt lat="47.49237" lon="6.77341">
        <ele>312.4</ele>
        <time>2014-09-28T07:36:54.000Z</time>
      </trkpt>
      <trkpt lat="47.49243" lon="6.77339">
        <ele>313.3</ele>
        <time>2014-09-28T07:36:55.000Z</time>
      </trkpt>
      <trkpt lat="47.49249" lon="6.77336">
        <ele>313.8</ele>
        <time>2014-09-28T07:36:56.000Z</time>
      </trkpt>
      <trkpt lat="47.49254" lon="6.77332">
        <ele>314.1</ele>
        <time>2014-09-28T07:36:57.000Z</time>
      </trkpt>
      <trkpt lat="47.49259" lon="6.7733">
        <ele>313.9</ele>
        <time>2014-09-28T07:36:58.000Z</time>
      </trkpt>
      <trkpt lat="47.49265" lon="6.77328">
        <ele>313.3</ele>
        <time>2014-09-28T07:36:59.000Z</time>
      </trkpt>
      <trkpt lat="47.49271" lon="6.77327">
        <ele>313.4</ele>
        <time>2014-09-28T07:37:00.000Z</time>
      </trkpt>
      <trkpt lat="47.49278" lon="6.77325">
        <ele>313.1</ele>
        <time>2014-09-28T07:37:01.000Z</time>
      </trkpt>
      <trkpt lat="47.49285" lon="6.77326">
        <ele>313.2</ele>
        <time>2014-09-28T07:37:02.000Z</time>
      </trkpt>
      <trkpt lat="47.49292" lon="6.77326">
        <ele>313.1</ele>
        <time>2014-09-28T07:37:03.000Z</time>
      </trkpt>
      <trkpt lat="47.49299" lon="6.77328">
        <ele>313.4</ele>
        <time>2014-09-28T07:37:04.000Z</time>
      </trkpt>
      <trkpt lat="47.49307" lon="6.77327">
        <ele>313.5</ele>
        <time>2014-09-28T07:37:05.000Z</time>
      </trkpt>
      <trkpt lat="47.49313" lon="6.77327">
        <ele>313.6</ele>
        <time>2014-09-28T07:37:06.000Z</time>
      </trkpt>
      <trkpt lat="47.4932" lon="6.77329">
        <ele>314</ele>
        <time>2014-09-28T07:37:07.000Z</time>
      </trkpt>
      <trkpt lat="47.49326" lon="6.77332">
        <ele>314.1</ele>
        <time>2014-09-28T07:37:08.000Z</time>
      </trkpt>
      <trkpt lat="47.49332" lon="6.77336">
        <ele>314.1</ele>
        <time>2014-09-28T07:37:09.000Z</time>
      </trkpt>
      <trkpt lat="47.49337" lon="6.7734">
        <ele>313.5</ele>
        <time>2014-09-28T07:37:10.000Z</time>
      </trkpt>
      <trkpt lat="47.49341" lon="6.77344">
        <ele>313.8</ele>
        <time>2014-09-28T07:37:11.000Z</time>
      </trkpt>
      <trkpt lat="47.49347" lon="6.77345">
        <ele>313.9</ele>
        <time>2014-09-28T07:37:12.000Z</time>
      </trkpt>
      <trkpt lat="47.49353" lon="6.77346">
        <ele>314</ele>
        <time>2014-09-28T07:37:13.000Z</time>
      </trkpt>
      <trkpt lat="47.49358" lon="6.77346">
        <ele>314.6</ele>
        <time>2014-09-28T07:37:14.000Z</time>
      </trkpt>
      <trkpt lat="47.49365" lon="6.77346">
        <ele>315.3</ele>
        <time>2014-09-28T07:37:15.000Z</time>
      </trkpt>
      <trkpt lat="47.49372" lon="6.77346">
        <ele>315.1</ele>
        <time>2014-09-28T07:37:16.000Z</time>
      </trkpt>
      <trkpt lat="47.49377" lon="6.77345">
        <ele>314.2</ele>
        <time>2014-09-28T07:37:17.000Z</time>
      </trkpt>
      <trkpt lat="47.49384" lon="6.77346">
        <ele>314.7</ele>
        <time>2014-09-28T07:37:18.000Z</time>
      </trkpt>
      <trkpt lat="47.4939" lon="6.77346">
        <ele>315.5</ele>
        <time>2014-09-28T07:37:19.000Z</time>
      </trkpt>
      <trkpt lat="47.49397" lon="6.77346">
        <ele>315.8</ele>
        <time>2014-09-28T07:37:20.000Z</time>
      </trkpt>
      <trkpt lat="47.49403" lon="6.77346">
        <ele>315.1</ele>
        <time>2014-09-28T07:37:21.000Z</time>
      </trkpt>
      <trkpt lat="47.49408" lon="6.77346">
        <ele>314.9</ele>
        <time>2014-09-28T07:37:22.000Z</time>
      </trkpt>
      <trkpt lat="47.49414" lon="6.77347">
        <ele>314.9</ele>
        <time>2014-09-28T07:37:23.000Z</time>
      </trkpt>
      <trkpt lat="47.49421" lon="6.77346">
        <ele>314.7</ele>
        <time>2014-09-28T07:37:24.000Z</time>
      </trkpt>
      <trkpt lat="47.49427" lon="6.77347">
        <ele>314.8</ele>
        <time>2014-09-28T07:37:25.000Z</time>
      </trkpt>
      <trkpt lat="47.49433" lon="6.77347">
        <ele>314.6</ele>
        <time>2014-09-28T07:37:26.000Z</time>
      </trkpt>
      <trkpt lat="47.49439" lon="6.77348">
        <ele>314.2</ele>
        <time>2014-09-28T07:37:27.000Z</time>
      </trkpt>
      <trkpt lat="47.49483" lon="6.77351">
        <ele>311.3</ele>
        <time>2014-09-28T07:37:35.000Z</time>
      </trkpt>
      <trkpt lat="47.49489" lon="6.77352">
        <ele>312</ele>
        <time>2014-09-28T07:37:36.000Z</time>
      </trkpt>
      <trkpt lat="47.49497" lon="6.77352">
        <ele>311.5</ele>
        <time>2014-09-28T07:37:37.000Z</time>
      </trkpt>
      <trkpt lat="47.49503" lon="6.77353">
        <ele>311.4</ele>
        <time>2014-09-28T07:37:38.000Z</time>
      </trkpt>
      <trkpt lat="47.49508" lon="6.77353">
        <ele>311.3</ele>
        <time>2014-09-28T07:37:39.000Z</time>
      </trkpt>
      <trkpt lat="47.49515" lon="6.77354">
        <ele>311.9</ele>
        <time>2014-09-28T07:37:40.000Z</time>
      </trkpt>
      <trkpt lat="47.49521" lon="6.77354">
        <ele>312.1</ele>
        <time>2014-09-28T07:37:41.000Z</time>
      </trkpt>
      <trkpt lat="47.49527" lon="6.77355">
        <ele>312.1</ele>
        <time>2014-09-28T07:37:42.000Z</time>
      </trkpt>
      <trkpt lat="47.49533" lon="6.77354">
        <ele>311.8</ele>
        <time>2014-09-28T07:37:43.000Z</time>
      </trkpt>
      <trkpt lat="47.49539" lon="6.77355">
        <ele>311.6</ele>
        <time>2014-09-28T07:37:44.000Z</time>
      </trkpt>
      <trkpt lat="47.49544" lon="6.77355">
        <ele>310.6</ele>
        <time>2014-09-28T07:37:45.000Z</time>
      </trkpt>
      <trkpt lat="47.49551" lon="6.77355">
        <ele>310.5</ele>
        <time>2014-09-28T07:37:46.000Z</time>
      </trkpt>
      <trkpt lat="47.49557" lon="6.77355">
        <ele>310.5</ele>
        <time>2014-09-28T07:37:47.000Z</time>
      </trkpt>
      <trkpt lat="47.49563" lon="6.77355">
        <ele>310.9</ele>
        <time>2014-09-28T07:37:48.000Z</time>
      </trkpt>
      <trkpt lat="47.4957" lon="6.77354">
        <ele>311</ele>
        <time>2014-09-28T07:37:49.000Z</time>
      </trkpt>
      <trkpt lat="47.49576" lon="6.77355">
        <ele>312</ele>
        <time>2014-09-28T07:37:50.000Z</time>
      </trkpt>
      <trkpt lat="47.49582" lon="6.77356">
        <ele>311.9</ele>
        <time>2014-09-28T07:37:51.000Z</time>
      </trkpt>
      <trkpt lat="47.49587" lon="6.77357">
        <ele>312.1</ele>
        <time>2014-09-28T07:37:52.000Z</time>
      </trkpt>
      <trkpt lat="47.49593" lon="6.77358">
        <ele>311.8</ele>
        <time>2014-09-28T07:37:53.000Z</time>
      </trkpt>
      <trkpt lat="47.49598" lon="6.77356">
        <ele>312.2</ele>
        <time>2014-09-28T07:37:54.000Z</time>
      </trkpt>
      <trkpt lat="47.49603" lon="6.77355">
        <ele>312.2</ele>
        <time>2014-09-28T07:37:55.000Z</time>
      </trkpt>
      <trkpt lat="47.49609" lon="6.77353">
        <ele>312.3</ele>
        <time>2014-09-28T07:37:56.000Z</time>
      </trkpt>
      <trkpt lat="47.49613" lon="6.77351">
        <ele>311.9</ele>
        <time>2014-09-28T07:37:57.000Z</time>
      </trkpt>
      <trkpt lat="47.49619" lon="6.77349">
        <ele>311.7</ele>
        <time>2014-09-28T07:37:58.000Z</time>
      </trkpt>
      <trkpt lat="47.49626" lon="6.77348">
        <ele>311.9</ele>
        <time>2014-09-28T07:37:59.000Z</time>
      </trkpt>
      <trkpt lat="47.49632" lon="6.77346">
        <ele>312.4</ele>
        <time>2014-09-28T07:38:00.000Z</time>
      </trkpt>
      <trkpt lat="47.49638" lon="6.77344">
        <ele>312.1</ele>
        <time>2014-09-28T07:38:01.000Z</time>
      </trkpt>
      <trkpt lat="47.49644" lon="6.77343">
        <ele>312.2</ele>
        <time>2014-09-28T07:38:02.000Z</time>
      </trkpt>
      <trkpt lat="47.4965" lon="6.77343">
        <ele>312.4</ele>
        <time>2014-09-28T07:38:03.000Z</time>
      </trkpt>
      <trkpt lat="47.49655" lon="6.77342">
        <ele>312.4</ele>
        <time>2014-09-28T07:38:04.000Z</time>
      </trkpt>
      <trkpt lat="47.4966" lon="6.7734">
        <ele>312.2</ele>
        <time>2014-09-28T07:38:05.000Z</time>
      </trkpt>
      <trkpt lat="47.49666" lon="6.77339">
        <ele>312.3</ele>
        <time>2014-09-28T07:38:06.000Z</time>
      </trkpt>
      <trkpt lat="47.49672" lon="6.77337">
        <ele>312.9</ele>
        <time>2014-09-28T07:38:07.000Z</time>
      </trkpt>
      <trkpt lat="47.49677" lon="6.77335">
        <ele>312.7</ele>
        <time>2014-09-28T07:38:08.000Z</time>
      </trkpt>
      <trkpt lat="47.49682" lon="6.77334">
        <ele>312.1</ele>
        <time>2014-09-28T07:38:09.000Z</time>
      </trkpt>
      <trkpt lat="47.49688" lon="6.77332">
        <ele>311.6</ele>
        <time>2014-09-28T07:38:10.000Z</time>
      </trkpt>
      <trkpt lat="47.49693" lon="6.77332">
        <ele>311.7</ele>
        <time>2014-09-28T07:38:11.000Z</time>
      </trkpt>
      <trkpt lat="47.49698" lon="6.77332">
        <ele>312</ele>
        <time>2014-09-28T07:38:12.000Z</time>
      </trkpt>
      <trkpt lat="47.49704" lon="6.77331">
        <ele>312</ele>
        <time>2014-09-28T07:38:13.000Z</time>
      </trkpt>
      <trkpt lat="47.4971" lon="6.77329">
        <ele>311.9</ele>
        <time>2014-09-28T07:38:14.000Z</time>
      </trkpt>
      <trkpt lat="47.49716" lon="6.77329">
        <ele>311.6</ele>
        <time>2014-09-28T07:38:15.000Z</time>
      </trkpt>
      <trkpt lat="47.49722" lon="6.77328">
        <ele>311.5</ele>
        <time>2014-09-28T07:38:16.000Z</time>
      </trkpt>
      <trkpt lat="47.49723" lon="6.77327">
        <ele>312.7</ele>
        <time>2014-09-28T07:38:17.000Z</time>
      </trkpt>
      <trkpt lat="47.49729" lon="6.77325">
        <ele>313.4</ele>
        <time>2014-09-28T07:38:18.000Z</time>
      </trkpt>
      <trkpt lat="47.49733" lon="6.77324">
        <ele>313.7</ele>
        <time>2014-09-28T07:38:19.000Z</time>
      </trkpt>
      <trkpt lat="47.49737" lon="6.77321">
        <ele>313.3</ele>
        <time>2014-09-28T07:38:20.000Z</time>
      </trkpt>
      <trkpt lat="47.49742" lon="6.77317">
        <ele>312.8</ele>
        <time>2014-09-28T07:38:21.000Z</time>
      </trkpt>
      <trkpt lat="47.49748" lon="6.77313">
        <ele>312.4</ele>
        <time>2014-09-28T07:38:22.000Z</time>
      </trkpt>
      <trkpt lat="47.49753" lon="6.7731">
        <ele>312.9</ele>
        <time>2014-09-28T07:38:23.000Z</time>
      </trkpt>
      <trkpt lat="47.49758" lon="6.77307">
        <ele>312.8</ele>
        <time>2014-09-28T07:38:24.000Z</time>
      </trkpt>
      <trkpt lat="47.49763" lon="6.77306">
        <ele>312.3</ele>
        <time>2014-09-28T07:38:25.000Z</time>
      </trkpt>
      <trkpt lat="47.49768" lon="6.77306">
        <ele>311.3</ele>
        <time>2014-09-28T07:38:26.000Z</time>
      </trkpt>
      <trkpt lat="47.49781" lon="6.77305">
        <ele>310.6</ele>
        <time>2014-09-28T07:38:29.000Z</time>
      </trkpt>
      <trkpt lat="47.49784" lon="6.77304">
        <ele>307.4</ele>
        <time>2014-09-28T07:38:30.000Z</time>
      </trkpt>
      <trkpt lat="47.49788" lon="6.77303">
        <ele>306.1</ele>
        <time>2014-09-28T07:38:30.999Z</time>
      </trkpt>
      <trkpt lat="47.49793" lon="6.77302">
        <ele>306.9</ele>
        <time>2014-09-28T07:38:32.000Z</time>
      </trkpt>
      <trkpt lat="47.49799" lon="6.77302">
        <ele>306.9</ele>
        <time>2014-09-28T07:38:33.000Z</time>
      </trkpt>
      <trkpt lat="47.49805" lon="6.77301">
        <ele>307.6</ele>
        <time>2014-09-28T07:38:34.000Z</time>
      </trkpt>
      <trkpt lat="47.49811" lon="6.773">
        <ele>307.5</ele>
        <time>2014-09-28T07:38:35.000Z</time>
      </trkpt>
      <trkpt lat="47.49817" lon="6.77299">
        <ele>308.4</ele>
        <time>2014-09-28T07:38:36.000Z</time>
      </trkpt>
      <trkpt lat="47.49822" lon="6.773">
        <ele>308.7</ele>
        <time>2014-09-28T07:38:37.000Z</time>
      </trkpt>
      <trkpt lat="47.49828" lon="6.77301">
        <ele>309</ele>
        <time>2014-09-28T07:38:38.000Z</time>
      </trkpt>
      <trkpt lat="47.49833" lon="6.77301">
        <ele>309.4</ele>
        <time>2014-09-28T07:38:39.000Z</time>
      </trkpt>
      <trkpt lat="47.49839" lon="6.77301">
        <ele>309.3</ele>
        <time>2014-09-28T07:38:40.000Z</time>
      </trkpt>
      <trkpt lat="47.49844" lon="6.773">
        <ele>309</ele>
        <time>2014-09-28T07:38:41.000Z</time>
      </trkpt>
      <trkpt lat="47.49849" lon="6.773">
        <ele>309.4</ele>
        <time>2014-09-28T07:38:42.000Z</time>
      </trkpt>
      <trkpt lat="47.49856" lon="6.77298">
        <ele>309.5</ele>
        <time>2014-09-28T07:38:43.000Z</time>
      </trkpt>
      <trkpt lat="47.49861" lon="6.77297">
        <ele>309.2</ele>
        <time>2014-09-28T07:38:44.000Z</time>
      </trkpt>
      <trkpt lat="47.49866" lon="6.77296">
        <ele>309.7</ele>
        <time>2014-09-28T07:38:45.000Z</time>
      </trkpt>
      <trkpt lat="47.49872" lon="6.77295">
        <ele>310</ele>
        <time>2014-09-28T07:38:46.000Z</time>
      </trkpt>
      <trkpt lat="47.49877" lon="6.77293">
        <ele>311.5</ele>
        <time>2014-09-28T07:38:47.000Z</time>
      </trkpt>
      <trkpt lat="47.49883" lon="6.77292">
        <ele>312.5</ele>
        <time>2014-09-28T07:38:48.000Z</time>
      </trkpt>
      <trkpt lat="47.49889" lon="6.7729">
        <ele>314.4</ele>
        <time>2014-09-28T07:38:49.000Z</time>
      </trkpt>
      <trkpt lat="47.49896" lon="6.77288">
        <ele>316.4</ele>
        <time>2014-09-28T07:38:50.000Z</time>
      </trkpt>
      <trkpt lat="47.49901" lon="6.77287">
        <ele>316.9</ele>
        <time>2014-09-28T07:38:51.000Z</time>
      </trkpt>
      <trkpt lat="47.49906" lon="6.77285">
        <ele>316.2</ele>
        <time>2014-09-28T07:38:52.000Z</time>
      </trkpt>
      <trkpt lat="47.49912" lon="6.77281">
        <ele>317.1</ele>
        <time>2014-09-28T07:38:53.000Z</time>
      </trkpt>
      <trkpt lat="47.49917" lon="6.77278">
        <ele>317.2</ele>
        <time>2014-09-28T07:38:54.000Z</time>
      </trkpt>
      <trkpt lat="47.49923" lon="6.77275">
        <ele>318.1</ele>
        <time>2014-09-28T07:38:55.000Z</time>
      </trkpt>
      <trkpt lat="47.49928" lon="6.77272">
        <ele>318.8</ele>
        <time>2014-09-28T07:38:56.000Z</time>
      </trkpt>
      <trkpt lat="47.49933" lon="6.77269">
        <ele>318.9</ele>
        <time>2014-09-28T07:38:57.000Z</time>
      </trkpt>
      <trkpt lat="47.49938" lon="6.77266">
        <ele>319.1</ele>
        <time>2014-09-28T07:38:58.000Z</time>
      </trkpt>
      <trkpt lat="47.49942" lon="6.77263">
        <ele>318</ele>
        <time>2014-09-28T07:38:59.000Z</time>
      </trkpt>
      <trkpt lat="47.49946" lon="6.77259">
        <ele>318</ele>
        <time>2014-09-28T07:39:00.000Z</time>
      </trkpt>
      <trkpt lat="47.49953" lon="6.77257">
        <ele>322.7</ele>
        <time>2014-09-28T07:39:01.000Z</time>
      </trkpt>
      <trkpt lat="47.49958" lon="6.77254">
        <ele>322.6</ele>
        <time>2014-09-28T07:39:02.000Z</time>
      </trkpt>
      <trkpt lat="47.49964" lon="6.77253">
        <ele>323.6</ele>
        <time>2014-09-28T07:39:03.000Z</time>
      </trkpt>
      <trkpt lat="47.4997" lon="6.7725">
        <ele>324.3</ele>
        <time>2014-09-28T07:39:04.000Z</time>
      </trkpt>
      <trkpt lat="47.49974" lon="6.77247">
        <ele>323.6</ele>
        <time>2014-09-28T07:39:05.000Z</time>
      </trkpt>
      <trkpt lat="47.49977" lon="6.77244">
        <ele>320.9</ele>
        <time>2014-09-28T07:39:06.000Z</time>
      </trkpt>
      <trkpt lat="47.49982" lon="6.77241">
        <ele>320.8</ele>
        <time>2014-09-28T07:39:07.000Z</time>
      </trkpt>
      <trkpt lat="47.49987" lon="6.7724">
        <ele>321.5</ele>
        <time>2014-09-28T07:39:08.000Z</time>
      </trkpt>
      <trkpt lat="47.49993" lon="6.77237">
        <ele>322.1</ele>
        <time>2014-09-28T07:39:09.000Z</time>
      </trkpt>
      <trkpt lat="47.49998" lon="6.77235">
        <ele>321.9</ele>
        <time>2014-09-28T07:39:10.000Z</time>
      </trkpt>
      <trkpt lat="47.50003" lon="6.77233">
        <ele>322.1</ele>
        <time>2014-09-28T07:39:11.000Z</time>
      </trkpt>
      <trkpt lat="47.50009" lon="6.77231">
        <ele>321.5</ele>
        <time>2014-09-28T07:39:12.000Z</time>
      </trkpt>
      <trkpt lat="47.50013" lon="6.7723">
        <ele>321.1</ele>
        <time>2014-09-28T07:39:13.000Z</time>
      </trkpt>
      <trkpt lat="47.50017" lon="6.77231">
        <ele>320.3</ele>
        <time>2014-09-28T07:39:14.000Z</time>
      </trkpt>
      <trkpt lat="47.5002" lon="6.77235">
        <ele>318.9</ele>
        <time>2014-09-28T07:39:15.000Z</time>
      </trkpt>
      <trkpt lat="47.5002" lon="6.77241">
        <ele>317.2</ele>
        <time>2014-09-28T07:39:16.000Z</time>
      </trkpt>
      <trkpt lat="47.5002" lon="6.77247">
        <ele>315.6</ele>
        <time>2014-09-28T07:39:17.000Z</time>
      </trkpt>
      <trkpt lat="47.50022" lon="6.77254">
        <ele>314.9</ele>
        <time>2014-09-28T07:39:18.000Z</time>
      </trkpt>
      <trkpt lat="47.50023" lon="6.77262">
        <ele>314.6</ele>
        <time>2014-09-28T07:39:19.000Z</time>
      </trkpt>
      <trkpt lat="47.50025" lon="6.77269">
        <ele>314.1</ele>
        <time>2014-09-28T07:39:20.000Z</time>
      </trkpt>
      <trkpt lat="47.50025" lon="6.77276">
        <ele>313.7</ele>
        <time>2014-09-28T07:39:21.000Z</time>
      </trkpt>
      <trkpt lat="47.50026" lon="6.77284">
        <ele>313.5</ele>
        <time>2014-09-28T07:39:22.000Z</time>
      </trkpt>
      <trkpt lat="47.50028" lon="6.77291">
        <ele>313.1</ele>
        <time>2014-09-28T07:39:23.000Z</time>
      </trkpt>
      <trkpt lat="47.50029" lon="6.77298">
        <ele>312.4</ele>
        <time>2014-09-28T07:39:24.000Z</time>
      </trkpt>
      <trkpt lat="47.50031" lon="6.77305">
        <ele>313.1</ele>
        <time>2014-09-28T07:39:25.000Z</time>
      </trkpt>
      <trkpt lat="47.50032" lon="6.77312">
        <ele>313.8</ele>
        <time>2014-09-28T07:39:26.000Z</time>
      </trkpt>
      <trkpt lat="47.50034" lon="6.77319">
        <ele>313.2</ele>
        <time>2014-09-28T07:39:27.000Z</time>
      </trkpt>
      <trkpt lat="47.50039" lon="6.77339">
        <ele>312.4</ele>
        <time>2014-09-28T07:39:30.000Z</time>
      </trkpt>
      <trkpt lat="47.50041" lon="6.77346">
        <ele>311.9</ele>
        <time>2014-09-28T07:39:31.000Z</time>
      </trkpt>
      <trkpt lat="47.50046" lon="6.77353">
        <ele>311.2</ele>
        <time>2014-09-28T07:39:32.000Z</time>
      </trkpt>
      <trkpt lat="47.5005" lon="6.7736">
        <ele>311</ele>
        <time>2014-09-28T07:39:33.000Z</time>
      </trkpt>
      <trkpt lat="47.50054" lon="6.77368">
        <ele>311.3</ele>
        <time>2014-09-28T07:39:34.000Z</time>
      </trkpt>
      <trkpt lat="47.50057" lon="6.77376">
        <ele>311.6</ele>
        <time>2014-09-28T07:39:35.000Z</time>
      </trkpt>
      <trkpt lat="47.50061" lon="6.77384">
        <ele>311.5</ele>
        <time>2014-09-28T07:39:36.000Z</time>
      </trkpt>
      <trkpt lat="47.50065" lon="6.77387">
        <ele>311.9</ele>
        <time>2014-09-28T07:39:37.000Z</time>
      </trkpt>
      <trkpt lat="47.50071" lon="6.77386">
        <ele>311.6</ele>
        <time>2014-09-28T07:39:38.000Z</time>
      </trkpt>
      <trkpt lat="47.50076" lon="6.77384">
        <ele>311.9</ele>
        <time>2014-09-28T07:39:39.000Z</time>
      </trkpt>
      <trkpt lat="47.50082" lon="6.77382">
        <ele>311.9</ele>
        <time>2014-09-28T07:39:40.000Z</time>
      </trkpt>
      <trkpt lat="47.50088" lon="6.7738">
        <ele>312.7</ele>
        <time>2014-09-28T07:39:41.000Z</time>
      </trkpt>
      <trkpt lat="47.50093" lon="6.77379">
        <ele>312.9</ele>
        <time>2014-09-28T07:39:42.000Z</time>
      </trkpt>
      <trkpt lat="47.50098" lon="6.77377">
        <ele>313.2</ele>
        <time>2014-09-28T07:39:43.000Z</time>
      </trkpt>
      <trkpt lat="47.50102" lon="6.77377">
        <ele>313.5</ele>
        <time>2014-09-28T07:39:44.000Z</time>
      </trkpt>
      <trkpt lat="47.50105" lon="6.77376">
        <ele>313.6</ele>
        <time>2014-09-28T07:39:45.000Z</time>
      </trkpt>
      <trkpt lat="47.50108" lon="6.77377">
        <ele>317.2</ele>
        <time>2014-09-28T07:39:46.000Z</time>
      </trkpt>
      <trkpt lat="47.50112" lon="6.77377">
        <ele>316.8</ele>
        <time>2014-09-28T07:39:47.000Z</time>
      </trkpt>
      <trkpt lat="47.50114" lon="6.77377">
        <ele>316.2</ele>
        <time>2014-09-28T07:39:48.000Z</time>
      </trkpt>
      <trkpt lat="47.50117" lon="6.77376">
        <ele>315.9</ele>
        <time>2014-09-28T07:39:49.000Z</time>
      </trkpt>
      <trkpt lat="47.50121" lon="6.77376">
        <ele>316.3</ele>
        <time>2014-09-28T07:39:50.000Z</time>
      </trkpt>
      <trkpt lat="47.50124" lon="6.77377">
        <ele>316.3</ele>
        <time>2014-09-28T07:39:51.000Z</time>
      </trkpt>
      <trkpt lat="47.50131" lon="6.77375">
        <ele>315</ele>
        <time>2014-09-28T07:39:52.000Z</time>
      </trkpt>
      <trkpt lat="47.50134" lon="6.77374">
        <ele>313.8</ele>
        <time>2014-09-28T07:39:53.000Z</time>
      </trkpt>
      <trkpt lat="47.50138" lon="6.77373">
        <ele>313.3</ele>
        <time>2014-09-28T07:39:54.000Z</time>
      </trkpt>
      <trkpt lat="47.50142" lon="6.77371">
        <ele>312.8</ele>
        <time>2014-09-28T07:39:55.000Z</time>
      </trkpt>
      <trkpt lat="47.5015" lon="6.7737">
        <ele>312.5</ele>
        <time>2014-09-28T07:39:56.000Z</time>
      </trkpt>
      <trkpt lat="47.50155" lon="6.77373">
        <ele>313.2</ele>
        <time>2014-09-28T07:39:57.000Z</time>
      </trkpt>
      <trkpt lat="47.50161" lon="6.77375">
        <ele>314</ele>
        <time>2014-09-28T07:39:58.000Z</time>
      </trkpt>
      <trkpt lat="47.50166" lon="6.77378">
        <ele>312.3</ele>
        <time>2014-09-28T07:39:59.000Z</time>
      </trkpt>
      <trkpt lat="47.50171" lon="6.7738">
        <ele>311.1</ele>
        <time>2014-09-28T07:40:00.000Z</time>
      </trkpt>
      <trkpt lat="47.50176" lon="6.77381">
        <ele>310.4</ele>
        <time>2014-09-28T07:40:01.000Z</time>
      </trkpt>
      <trkpt lat="47.50181" lon="6.77384">
        <ele>310.4</ele>
        <time>2014-09-28T07:40:02.000Z</time>
      </trkpt>
      <trkpt lat="47.50186" lon="6.77387">
        <ele>310.4</ele>
        <time>2014-09-28T07:40:03.000Z</time>
      </trkpt>
      <trkpt lat="47.50191" lon="6.77391">
        <ele>309.7</ele>
        <time>2014-09-28T07:40:04.000Z</time>
      </trkpt>
      <trkpt lat="47.50196" lon="6.77396">
        <ele>309.9</ele>
        <time>2014-09-28T07:40:05.000Z</time>
      </trkpt>
      <trkpt lat="47.50202" lon="6.774">
        <ele>310.2</ele>
        <time>2014-09-28T07:40:06.001Z</time>
      </trkpt>
      <trkpt lat="47.50207" lon="6.77399">
        <ele>308.4</ele>
        <time>2014-09-28T07:40:07.000Z</time>
      </trkpt>
      <trkpt lat="47.50213" lon="6.77403">
        <ele>308.2</ele>
        <time>2014-09-28T07:40:08.000Z</time>
      </trkpt>
      <trkpt lat="47.50218" lon="6.77406">
        <ele>308.1</ele>
        <time>2014-09-28T07:40:09.000Z</time>
      </trkpt>
      <trkpt lat="47.50225" lon="6.7741">
        <ele>308.2</ele>
        <time>2014-09-28T07:40:10.000Z</time>
      </trkpt>
      <trkpt lat="47.5023" lon="6.77415">
        <ele>308.8</ele>
        <time>2014-09-28T07:40:11.000Z</time>
      </trkpt>
      <trkpt lat="47.50236" lon="6.7742">
        <ele>309.4</ele>
        <time>2014-09-28T07:40:12.000Z</time>
      </trkpt>
      <trkpt lat="47.5024" lon="6.77426">
        <ele>309.5</ele>
        <time>2014-09-28T07:40:13.000Z</time>
      </trkpt>
      <trkpt lat="47.50244" lon="6.77434">
        <ele>308.9</ele>
        <time>2014-09-28T07:40:14.000Z</time>
      </trkpt>
      <trkpt lat="47.50247" lon="6.77441">
        <ele>308.8</ele>
        <time>2014-09-28T07:40:15.000Z</time>
      </trkpt>
      <trkpt lat="47.5025" lon="6.77448">
        <ele>308.9</ele>
        <time>2014-09-28T07:40:15.999Z</time>
      </trkpt>
      <trkpt lat="47.50257" lon="6.77453">
        <ele>309.3</ele>
        <time>2014-09-28T07:40:17.000Z</time>
      </trkpt>
      <trkpt lat="47.50262" lon="6.77458">
        <ele>309.3</ele>
        <time>2014-09-28T07:40:18.000Z</time>
      </trkpt>
      <trkpt lat="47.50268" lon="6.77462">
        <ele>308.6</ele>
        <time>2014-09-28T07:40:19.000Z</time>
      </trkpt>
      <trkpt lat="47.50274" lon="6.77466">
        <ele>308.6</ele>
        <time>2014-09-28T07:40:20.000Z</time>
      </trkpt>
      <trkpt lat="47.5028" lon="6.77469">
        <ele>308.7</ele>
        <time>2014-09-28T07:40:21.000Z</time>
      </trkpt>
      <trkpt lat="47.50286" lon="6.77473">
        <ele>308.8</ele>
        <time>2014-09-28T07:40:22.000Z</time>
      </trkpt>
      <trkpt lat="47.5029" lon="6.77477">
        <ele>308</ele>
        <time>2014-09-28T07:40:23.000Z</time>
      </trkpt>
      <trkpt lat="47.50295" lon="6.77481">
        <ele>308</ele>
        <time>2014-09-28T07:40:24.000Z</time>
      </trkpt>
      <trkpt lat="47.50299" lon="6.77488">
        <ele>307.4</ele>
        <time>2014-09-28T07:40:25.000Z</time>
      </trkpt>
      <trkpt lat="47.50304" lon="6.77492">
        <ele>306.9</ele>
        <time>2014-09-28T07:40:26.000Z</time>
      </trkpt>
      <trkpt lat="47.50317" lon="6.77503">
        <ele>306.1</ele>
        <time>2014-09-28T07:40:29.000Z</time>
      </trkpt>
      <trkpt lat="47.50321" lon="6.77507">
        <ele>306.1</ele>
        <time>2014-09-28T07:40:30.000Z</time>
      </trkpt>
      <trkpt lat="47.50327" lon="6.77511">
        <ele>306.3</ele>
        <time>2014-09-28T07:40:31.000Z</time>
      </trkpt>
      <trkpt lat="47.50332" lon="6.77517">
        <ele>305.4</ele>
        <time>2014-09-28T07:40:32.000Z</time>
      </trkpt>
      <trkpt lat="47.50337" lon="6.77521">
        <ele>305.5</ele>
        <time>2014-09-28T07:40:33.000Z</time>
      </trkpt>
      <trkpt lat="47.50342" lon="6.77523">
        <ele>305.4</ele>
        <time>2014-09-28T07:40:34.000Z</time>
      </trkpt>
      <trkpt lat="47.50345" lon="6.77526">
        <ele>304.5</ele>
        <time>2014-09-28T07:40:35.000Z</time>
      </trkpt>
      <trkpt lat="47.50349" lon="6.77528">
        <ele>304.7</ele>
        <time>2014-09-28T07:40:35.999Z</time>
      </trkpt>
      <trkpt lat="47.50353" lon="6.77534">
        <ele>305.3</ele>
        <time>2014-09-28T07:40:37.000Z</time>
      </trkpt>
      <trkpt lat="47.50357" lon="6.77537">
        <ele>305.5</ele>
        <time>2014-09-28T07:40:38.000Z</time>
      </trkpt>
      <trkpt lat="47.50361" lon="6.7754">
        <ele>305.8</ele>
        <time>2014-09-28T07:40:38.999Z</time>
      </trkpt>
      <trkpt lat="47.50367" lon="6.77543">
        <ele>306.3</ele>
        <time>2014-09-28T07:40:40.000Z</time>
      </trkpt>
      <trkpt lat="47.50373" lon="6.77545">
        <ele>305.9</ele>
        <time>2014-09-28T07:40:41.000Z</time>
      </trkpt>
      <trkpt lat="47.50377" lon="6.77547">
        <ele>304.7</ele>
        <time>2014-09-28T07:40:42.000Z</time>
      </trkpt>
      <trkpt lat="47.50383" lon="6.77549">
        <ele>304.5</ele>
        <time>2014-09-28T07:40:43.000Z</time>
      </trkpt>
      <trkpt lat="47.50388" lon="6.77551">
        <ele>303.8</ele>
        <time>2014-09-28T07:40:44.000Z</time>
      </trkpt>
      <trkpt lat="47.50393" lon="6.77555">
        <ele>303.7</ele>
        <time>2014-09-28T07:40:45.000Z</time>
      </trkpt>
      <trkpt lat="47.50397" lon="6.77559">
        <ele>302.6</ele>
        <time>2014-09-28T07:40:46.000Z</time>
      </trkpt>
      <trkpt lat="47.50401" lon="6.77562">
        <ele>302.5</ele>
        <time>2014-09-28T07:40:47.000Z</time>
      </trkpt>
      <trkpt lat="47.50403" lon="6.77571">
        <ele>302.7</ele>
        <time>2014-09-28T07:40:48.000Z</time>
      </trkpt>
      <trkpt lat="47.50408" lon="6.77576">
        <ele>303.2</ele>
        <time>2014-09-28T07:40:49.000Z</time>
      </trkpt>
      <trkpt lat="47.50412" lon="6.7758">
        <ele>303</ele>
        <time>2014-09-28T07:40:50.000Z</time>
      </trkpt>
      <trkpt lat="47.50416" lon="6.77587">
        <ele>303.9</ele>
        <time>2014-09-28T07:40:51.000Z</time>
      </trkpt>
      <trkpt lat="47.5042" lon="6.77595">
        <ele>304.3</ele>
        <time>2014-09-28T07:40:52.000Z</time>
      </trkpt>
      <trkpt lat="47.50425" lon="6.77599">
        <ele>304.4</ele>
        <time>2014-09-28T07:40:53.000Z</time>
      </trkpt>
      <trkpt lat="47.5043" lon="6.77606">
        <ele>304.2</ele>
        <time>2014-09-28T07:40:54.000Z</time>
      </trkpt>
      <trkpt lat="47.50435" lon="6.77613">
        <ele>304</ele>
        <time>2014-09-28T07:40:55.000Z</time>
      </trkpt>
      <trkpt lat="47.50438" lon="6.77618">
        <ele>303.4</ele>
        <time>2014-09-28T07:40:56.000Z</time>
      </trkpt>
      <trkpt lat="47.50442" lon="6.77627">
        <ele>303.6</ele>
        <time>2014-09-28T07:40:57.000Z</time>
      </trkpt>
      <trkpt lat="47.50446" lon="6.77632">
        <ele>303.6</ele>
        <time>2014-09-28T07:40:57.999Z</time>
      </trkpt>
      <trkpt lat="47.50447" lon="6.77636">
        <ele>302.3</ele>
        <time>2014-09-28T07:40:59.000Z</time>
      </trkpt>
      <trkpt lat="47.50449" lon="6.77642">
        <ele>302.7</ele>
        <time>2014-09-28T07:41:00.000Z</time>
      </trkpt>
      <trkpt lat="47.50452" lon="6.77647">
        <ele>302.2</ele>
        <time>2014-09-28T07:41:00.999Z</time>
      </trkpt>
      <trkpt lat="47.50455" lon="6.77658">
        <ele>304.2</ele>
        <time>2014-09-28T07:41:02.000Z</time>
      </trkpt>
      <trkpt lat="47.50459" lon="6.77665">
        <ele>303.5</ele>
        <time>2014-09-28T07:41:03.000Z</time>
      </trkpt>
      <trkpt lat="47.50462" lon="6.77673">
        <ele>305.9</ele>
        <time>2014-09-28T07:41:04.000Z</time>
      </trkpt>
      <trkpt lat="47.50466" lon="6.77682">
        <ele>306.7</ele>
        <time>2014-09-28T07:41:05.000Z</time>
      </trkpt>
      <trkpt lat="47.5047" lon="6.77688">
        <ele>306</ele>
        <time>2014-09-28T07:41:06.000Z</time>
      </trkpt>
      <trkpt lat="47.50472" lon="6.77693">
        <ele>305.5</ele>
        <time>2014-09-28T07:41:07.000Z</time>
      </trkpt>
      <trkpt lat="47.50475" lon="6.777">
        <ele>305.7</ele>
        <time>2014-09-28T07:41:08.000Z</time>
      </trkpt>
      <trkpt lat="47.50477" lon="6.77707">
        <ele>307.2</ele>
        <time>2014-09-28T07:41:09.000Z</time>
      </trkpt>
      <trkpt lat="47.50481" lon="6.77715">
        <ele>309.7</ele>
        <time>2014-09-28T07:41:10.000Z</time>
      </trkpt>
      <trkpt lat="47.50484" lon="6.77722">
        <ele>308.9</ele>
        <time>2014-09-28T07:41:11.000Z</time>
      </trkpt>
      <trkpt lat="47.50487" lon="6.77728">
        <ele>308.4</ele>
        <time>2014-09-28T07:41:11.998Z</time>
      </trkpt>
      <trkpt lat="47.5049" lon="6.77733">
        <ele>306.1</ele>
        <time>2014-09-28T07:41:13.000Z</time>
      </trkpt>
      <trkpt lat="47.50492" lon="6.77738">
        <ele>305.2</ele>
        <time>2014-09-28T07:41:14.000Z</time>
      </trkpt>
      <trkpt lat="47.50495" lon="6.77744">
        <ele>304.7</ele>
        <time>2014-09-28T07:41:15.000Z</time>
      </trkpt>
      <trkpt lat="47.50497" lon="6.77754">
        <ele>305.5</ele>
        <time>2014-09-28T07:41:16.000Z</time>
      </trkpt>
      <trkpt lat="47.50499" lon="6.77762">
        <ele>305.5</ele>
        <time>2014-09-28T07:41:17.000Z</time>
      </trkpt>
      <trkpt lat="47.50503" lon="6.77771">
        <ele>306.3</ele>
        <time>2014-09-28T07:41:18.000Z</time>
      </trkpt>
      <trkpt lat="47.50505" lon="6.77779">
        <ele>306.7</ele>
        <time>2014-09-28T07:41:19.000Z</time>
      </trkpt>
      <trkpt lat="47.50506" lon="6.77789">
        <ele>307.1</ele>
        <time>2014-09-28T07:41:20.000Z</time>
      </trkpt>
      <trkpt lat="47.50506" lon="6.77798">
        <ele>309.1</ele>
        <time>2014-09-28T07:41:21.000Z</time>
      </trkpt>
      <trkpt lat="47.50508" lon="6.77806">
        <ele>310.5</ele>
        <time>2014-09-28T07:41:21.999Z</time>
      </trkpt>
      <trkpt lat="47.50511" lon="6.77815">
        <ele>308.4</ele>
        <time>2014-09-28T07:41:23.000Z</time>
      </trkpt>
      <trkpt lat="47.50514" lon="6.77825">
        <ele>310.4</ele>
        <time>2014-09-28T07:41:24.000Z</time>
      </trkpt>
      <trkpt lat="47.50516" lon="6.77832">
        <ele>310.5</ele>
        <time>2014-09-28T07:41:25.000Z</time>
      </trkpt>
      <trkpt lat="47.50517" lon="6.77842">
        <ele>311.4</ele>
        <time>2014-09-28T07:41:26.000Z</time>
      </trkpt>
      <trkpt lat="47.50523" lon="6.77867">
        <ele>311.5</ele>
        <time>2014-09-28T07:41:29.000Z</time>
      </trkpt>
      <trkpt lat="47.50525" lon="6.77876">
        <ele>311.4</ele>
        <time>2014-09-28T07:41:30.000Z</time>
      </trkpt>
      <trkpt lat="47.50525" lon="6.77885">
        <ele>314.2</ele>
        <time>2014-09-28T07:41:31.000Z</time>
      </trkpt>
      <trkpt lat="47.50525" lon="6.77894">
        <ele>315.8</ele>
        <time>2014-09-28T07:41:32.000Z</time>
      </trkpt>
      <trkpt lat="47.50527" lon="6.77904">
        <ele>316.5</ele>
        <time>2014-09-28T07:41:33.000Z</time>
      </trkpt>
      <trkpt lat="47.50528" lon="6.77909">
        <ele>313.9</ele>
        <time>2014-09-28T07:41:34.000Z</time>
      </trkpt>
      <trkpt lat="47.50531" lon="6.77918">
        <ele>312.9</ele>
        <time>2014-09-28T07:41:35.000Z</time>
      </trkpt>
      <trkpt lat="47.50535" lon="6.77928">
        <ele>312.6</ele>
        <time>2014-09-28T07:41:36.000Z</time>
      </trkpt>
      <trkpt lat="47.50536" lon="6.77936">
        <ele>312.1</ele>
        <time>2014-09-28T07:41:37.000Z</time>
      </trkpt>
      <trkpt lat="47.50537" lon="6.77944">
        <ele>311.5</ele>
        <time>2014-09-28T07:41:38.000Z</time>
      </trkpt>
      <trkpt lat="47.50539" lon="6.77951">
        <ele>310.5</ele>
        <time>2014-09-28T07:41:39.000Z</time>
      </trkpt>
      <trkpt lat="47.50539" lon="6.77959">
        <ele>310.5</ele>
        <time>2014-09-28T07:41:40.000Z</time>
      </trkpt>
      <trkpt lat="47.5054" lon="6.77967">
        <ele>310.4</ele>
        <time>2014-09-28T07:41:41.000Z</time>
      </trkpt>
      <trkpt lat="47.50542" lon="6.77977">
        <ele>310.6</ele>
        <time>2014-09-28T07:41:42.000Z</time>
      </trkpt>
      <trkpt lat="47.50543" lon="6.77984">
        <ele>309.8</ele>
        <time>2014-09-28T07:41:43.000Z</time>
      </trkpt>
      <trkpt lat="47.50545" lon="6.77994">
        <ele>310.1</ele>
        <time>2014-09-28T07:41:44.000Z</time>
      </trkpt>
      <trkpt lat="47.50547" lon="6.78004">
        <ele>311.3</ele>
        <time>2014-09-28T07:41:45.000Z</time>
      </trkpt>
      <trkpt lat="47.50548" lon="6.78015">
        <ele>312.8</ele>
        <time>2014-09-28T07:41:46.000Z</time>
      </trkpt>
      <trkpt lat="47.5055" lon="6.78025">
        <ele>314.5</ele>
        <time>2014-09-28T07:41:46.999Z</time>
      </trkpt>
      <trkpt lat="47.50549" lon="6.78032">
        <ele>312.9</ele>
        <time>2014-09-28T07:41:48.000Z</time>
      </trkpt>
      <trkpt lat="47.50547" lon="6.7804">
        <ele>312</ele>
        <time>2014-09-28T07:41:49.000Z</time>
      </trkpt>
      <trkpt lat="47.50547" lon="6.78049">
        <ele>311.7</ele>
        <time>2014-09-28T07:41:50.000Z</time>
      </trkpt>
      <trkpt lat="47.50546" lon="6.78059">
        <ele>311.7</ele>
        <time>2014-09-28T07:41:51.000Z</time>
      </trkpt>
      <trkpt lat="47.50547" lon="6.78069">
        <ele>311.6</ele>
        <time>2014-09-28T07:41:52.000Z</time>
      </trkpt>
      <trkpt lat="47.50546" lon="6.78077">
        <ele>311.5</ele>
        <time>2014-09-28T07:41:53.000Z</time>
      </trkpt>
      <trkpt lat="47.50546" lon="6.78084">
        <ele>311.8</ele>
        <time>2014-09-28T07:41:54.000Z</time>
      </trkpt>
      <trkpt lat="47.50545" lon="6.78092">
        <ele>310.5</ele>
        <time>2014-09-28T07:41:55.000Z</time>
      </trkpt>
      <trkpt lat="47.50543" lon="6.781">
        <ele>309.6</ele>
        <time>2014-09-28T07:41:56.000Z</time>
      </trkpt>
      <trkpt lat="47.5054" lon="6.78109">
        <ele>310.2</ele>
        <time>2014-09-28T07:41:57.000Z</time>
      </trkpt>
      <trkpt lat="47.50539" lon="6.78116">
        <ele>309.2</ele>
        <time>2014-09-28T07:41:58.000Z</time>
      </trkpt>
      <trkpt lat="47.50538" lon="6.78124">
        <ele>309.4</ele>
        <time>2014-09-28T07:41:59.000Z</time>
      </trkpt>
      <trkpt lat="47.50536" lon="6.78133">
        <ele>309.1</ele>
        <time>2014-09-28T07:42:00.000Z</time>
      </trkpt>
      <trkpt lat="47.50534" lon="6.78142">
        <ele>309.2</ele>
        <time>2014-09-28T07:42:01.000Z</time>
      </trkpt>
      <trkpt lat="47.50532" lon="6.78152">
        <ele>308.9</ele>
        <time>2014-09-28T07:42:02.000Z</time>
      </trkpt>
      <trkpt lat="47.50531" lon="6.78161">
        <ele>309.8</ele>
        <time>2014-09-28T07:42:03.000Z</time>
      </trkpt>
      <trkpt lat="47.50529" lon="6.7817">
        <ele>309.6</ele>
        <time>2014-09-28T07:42:04.000Z</time>
      </trkpt>
      <trkpt lat="47.50527" lon="6.78178">
        <ele>309.6</ele>
        <time>2014-09-28T07:42:05.000Z</time>
      </trkpt>
      <trkpt lat="47.50524" lon="6.78187">
        <ele>309.9</ele>
        <time>2014-09-28T07:42:06.000Z</time>
      </trkpt>
      <trkpt lat="47.50522" lon="6.78197">
        <ele>310.2</ele>
        <time>2014-09-28T07:42:07.000Z</time>
      </trkpt>
      <trkpt lat="47.5052" lon="6.78205">
        <ele>310.4</ele>
        <time>2014-09-28T07:42:08.000Z</time>
      </trkpt>
      <trkpt lat="47.50518" lon="6.78214">
        <ele>310.3</ele>
        <time>2014-09-28T07:42:09.000Z</time>
      </trkpt>
      <trkpt lat="47.50514" lon="6.78224">
        <ele>311.5</ele>
        <time>2014-09-28T07:42:10.000Z</time>
      </trkpt>
      <trkpt lat="47.50513" lon="6.78232">
        <ele>311.6</ele>
        <time>2014-09-28T07:42:11.000Z</time>
      </trkpt>
      <trkpt lat="47.5051" lon="6.78241">
        <ele>312.2</ele>
        <time>2014-09-28T07:42:12.000Z</time>
      </trkpt>
      <trkpt lat="47.50508" lon="6.78249">
        <ele>311.8</ele>
        <time>2014-09-28T07:42:13.000Z</time>
      </trkpt>
      <trkpt lat="47.50506" lon="6.78258">
        <ele>311.5</ele>
        <time>2014-09-28T07:42:14.000Z</time>
      </trkpt>
      <trkpt lat="47.50504" lon="6.78267">
        <ele>311.5</ele>
        <time>2014-09-28T07:42:15.000Z</time>
      </trkpt>
      <trkpt lat="47.50503" lon="6.78276">
        <ele>312.3</ele>
        <time>2014-09-28T07:42:16.000Z</time>
      </trkpt>
      <trkpt lat="47.50502" lon="6.78285">
        <ele>312.4</ele>
        <time>2014-09-28T07:42:17.000Z</time>
      </trkpt>
      <trkpt lat="47.50502" lon="6.78294">
        <ele>312.7</ele>
        <time>2014-09-28T07:42:18.000Z</time>
      </trkpt>
      <trkpt lat="47.50501" lon="6.78303">
        <ele>312.8</ele>
        <time>2014-09-28T07:42:19.000Z</time>
      </trkpt>
      <trkpt lat="47.50501" lon="6.78311">
        <ele>311.9</ele>
        <time>2014-09-28T07:42:20.000Z</time>
      </trkpt>
      <trkpt lat="47.50499" lon="6.7832">
        <ele>312.4</ele>
        <time>2014-09-28T07:42:21.000Z</time>
      </trkpt>
      <trkpt lat="47.50497" lon="6.78329">
        <ele>312.1</ele>
        <time>2014-09-28T07:42:22.000Z</time>
      </trkpt>
      <trkpt lat="47.50495" lon="6.78338">
        <ele>312.6</ele>
        <time>2014-09-28T07:42:23.000Z</time>
      </trkpt>
      <trkpt lat="47.50493" lon="6.78347">
        <ele>313.3</ele>
        <time>2014-09-28T07:42:24.000Z</time>
      </trkpt>
      <trkpt lat="47.50491" lon="6.78355">
        <ele>312.6</ele>
        <time>2014-09-28T07:42:25.000Z</time>
      </trkpt>
      <trkpt lat="47.5049" lon="6.78365">
        <ele>314</ele>
        <time>2014-09-28T07:42:26.000Z</time>
      </trkpt>
      <trkpt lat="47.5048" lon="6.78426">
        <ele>311.2</ele>
        <time>2014-09-28T07:42:34.000Z</time>
      </trkpt>
      <trkpt lat="47.50479" lon="6.78436">
        <ele>311</ele>
        <time>2014-09-28T07:42:35.000Z</time>
      </trkpt>
      <trkpt lat="47.50478" lon="6.78446">
        <ele>311.2</ele>
        <time>2014-09-28T07:42:36.000Z</time>
      </trkpt>
      <trkpt lat="47.50474" lon="6.78454">
        <ele>312.7</ele>
        <time>2014-09-28T07:42:37.000Z</time>
      </trkpt>
      <trkpt lat="47.50473" lon="6.78463">
        <ele>312.4</ele>
        <time>2014-09-28T07:42:38.000Z</time>
      </trkpt>
      <trkpt lat="47.5047" lon="6.78472">
        <ele>313.5</ele>
        <time>2014-09-28T07:42:39.000Z</time>
      </trkpt>
      <trkpt lat="47.50468" lon="6.7848">
        <ele>312.3</ele>
        <time>2014-09-28T07:42:40.000Z</time>
      </trkpt>
      <trkpt lat="47.50466" lon="6.78489">
        <ele>312.7</ele>
        <time>2014-09-28T07:42:41.000Z</time>
      </trkpt>
      <trkpt lat="47.50464" lon="6.78497">
        <ele>312.7</ele>
        <time>2014-09-28T07:42:42.000Z</time>
      </trkpt>
      <trkpt lat="47.50463" lon="6.78506">
        <ele>312.7</ele>
        <time>2014-09-28T07:42:43.000Z</time>
      </trkpt>
      <trkpt lat="47.50462" lon="6.78514">
        <ele>312.6</ele>
        <time>2014-09-28T07:42:44.000Z</time>
      </trkpt>
      <trkpt lat="47.50461" lon="6.78523">
        <ele>312.9</ele>
        <time>2014-09-28T07:42:45.000Z</time>
      </trkpt>
      <trkpt lat="47.50459" lon="6.78533">
        <ele>313.9</ele>
        <time>2014-09-28T07:42:46.000Z</time>
      </trkpt>
      <trkpt lat="47.50457" lon="6.78541">
        <ele>313.6</ele>
        <time>2014-09-28T07:42:47.000Z</time>
      </trkpt>
      <trkpt lat="47.50456" lon="6.78551">
        <ele>313.8</ele>
        <time>2014-09-28T07:42:48.000Z</time>
      </trkpt>
      <trkpt lat="47.50455" lon="6.78558">
        <ele>312.9</ele>
        <time>2014-09-28T07:42:49.000Z</time>
      </trkpt>
      <trkpt lat="47.50453" lon="6.78568">
        <ele>312.9</ele>
        <time>2014-09-28T07:42:50.000Z</time>
      </trkpt>
      <trkpt lat="47.50452" lon="6.78576">
        <ele>312.6</ele>
        <time>2014-09-28T07:42:51.000Z</time>
      </trkpt>
      <trkpt lat="47.5045" lon="6.78585">
        <ele>313.1</ele>
        <time>2014-09-28T07:42:52.000Z</time>
      </trkpt>
      <trkpt lat="47.50447" lon="6.78593">
        <ele>312.1</ele>
        <time>2014-09-28T07:42:53.000Z</time>
      </trkpt>
      <trkpt lat="47.50444" lon="6.78601">
        <ele>312.1</ele>
        <time>2014-09-28T07:42:54.000Z</time>
      </trkpt>
      <trkpt lat="47.50442" lon="6.78608">
        <ele>312</ele>
        <time>2014-09-28T07:42:55.000Z</time>
      </trkpt>
      <trkpt lat="47.5044" lon="6.78617">
        <ele>311.6</ele>
        <time>2014-09-28T07:42:56.000Z</time>
      </trkpt>
      <trkpt lat="47.50438" lon="6.78623">
        <ele>312.2</ele>
        <time>2014-09-28T07:42:57.000Z</time>
      </trkpt>
      <trkpt lat="47.50436" lon="6.78632">
        <ele>312</ele>
        <time>2014-09-28T07:42:58.000Z</time>
      </trkpt>
      <trkpt lat="47.50434" lon="6.7864">
        <ele>311.9</ele>
        <time>2014-09-28T07:42:59.000Z</time>
      </trkpt>
      <trkpt lat="47.50433" lon="6.78649">
        <ele>313.7</ele>
        <time>2014-09-28T07:43:00.000Z</time>
      </trkpt>
      <trkpt lat="47.50432" lon="6.78655">
        <ele>313.5</ele>
        <time>2014-09-28T07:43:01.000Z</time>
      </trkpt>
      <trkpt lat="47.50431" lon="6.78663">
        <ele>312.9</ele>
        <time>2014-09-28T07:43:02.000Z</time>
      </trkpt>
      <trkpt lat="47.5043" lon="6.78671">
        <ele>312.6</ele>
        <time>2014-09-28T07:43:03.000Z</time>
      </trkpt>
      <trkpt lat="47.50428" lon="6.7868">
        <ele>313.2</ele>
        <time>2014-09-28T07:43:04.000Z</time>
      </trkpt>
      <trkpt lat="47.50427" lon="6.78689">
        <ele>313.4</ele>
        <time>2014-09-28T07:43:05.000Z</time>
      </trkpt>
      <trkpt lat="47.50425" lon="6.78697">
        <ele>313.6</ele>
        <time>2014-09-28T07:43:06.000Z</time>
      </trkpt>
      <trkpt lat="47.50424" lon="6.78706">
        <ele>313.8</ele>
        <time>2014-09-28T07:43:07.000Z</time>
      </trkpt>
      <trkpt lat="47.50422" lon="6.78715">
        <ele>313.7</ele>
        <time>2014-09-28T07:43:08.000Z</time>
      </trkpt>
      <trkpt lat="47.50419" lon="6.78724">
        <ele>313.9</ele>
        <time>2014-09-28T07:43:09.000Z</time>
      </trkpt>
      <trkpt lat="47.50417" lon="6.78734">
        <ele>315.1</ele>
        <time>2014-09-28T07:43:10.000Z</time>
      </trkpt>
      <trkpt lat="47.50416" lon="6.78742">
        <ele>316.1</ele>
        <time>2014-09-28T07:43:11.000Z</time>
      </trkpt>
      <trkpt lat="47.50414" lon="6.7875">
        <ele>316.3</ele>
        <time>2014-09-28T07:43:12.000Z</time>
      </trkpt>
      <trkpt lat="47.50414" lon="6.78757">
        <ele>316.2</ele>
        <time>2014-09-28T07:43:13.000Z</time>
      </trkpt>
      <trkpt lat="47.50412" lon="6.78765">
        <ele>315.5</ele>
        <time>2014-09-28T07:43:14.000Z</time>
      </trkpt>
      <trkpt lat="47.50411" lon="6.78772">
        <ele>315.4</ele>
        <time>2014-09-28T07:43:15.000Z</time>
      </trkpt>
      <trkpt lat="47.5041" lon="6.7878">
        <ele>315.4</ele>
        <time>2014-09-28T07:43:16.000Z</time>
      </trkpt>
      <trkpt lat="47.5041" lon="6.78791">
        <ele>316.9</ele>
        <time>2014-09-28T07:43:17.000Z</time>
      </trkpt>
      <trkpt lat="47.5041" lon="6.78802">
        <ele>317.9</ele>
        <time>2014-09-28T07:43:18.000Z</time>
      </trkpt>
      <trkpt lat="47.50409" lon="6.7881">
        <ele>318</ele>
        <time>2014-09-28T07:43:19.000Z</time>
      </trkpt>
      <trkpt lat="47.50408" lon="6.78818">
        <ele>318.9</ele>
        <time>2014-09-28T07:43:20.000Z</time>
      </trkpt>
      <trkpt lat="47.50408" lon="6.78829">
        <ele>320.7</ele>
        <time>2014-09-28T07:43:21.000Z</time>
      </trkpt>
      <trkpt lat="47.50407" lon="6.78837">
        <ele>320.9</ele>
        <time>2014-09-28T07:43:22.000Z</time>
      </trkpt>
      <trkpt lat="47.50406" lon="6.78845">
        <ele>321.4</ele>
        <time>2014-09-28T07:43:23.000Z</time>
      </trkpt>
      <trkpt lat="47.50406" lon="6.78853">
        <ele>321.4</ele>
        <time>2014-09-28T07:43:24.000Z</time>
      </trkpt>
      <trkpt lat="47.50403" lon="6.78859">
        <ele>319.6</ele>
        <time>2014-09-28T07:43:25.000Z</time>
      </trkpt>
      <trkpt lat="47.50402" lon="6.78866">
        <ele>319</ele>
        <time>2014-09-28T07:43:26.000Z</time>
      </trkpt>
      <trkpt lat="47.50399" lon="6.78885">
        <ele>317.9</ele>
        <time>2014-09-28T07:43:29.000Z</time>
      </trkpt>
      <trkpt lat="47.504" lon="6.78896">
        <ele>318.6</ele>
        <time>2014-09-28T07:43:30.000Z</time>
      </trkpt>
      <trkpt lat="47.50401" lon="6.78905">
        <ele>318.8</ele>
        <time>2014-09-28T07:43:31.000Z</time>
      </trkpt>
      <trkpt lat="47.504" lon="6.78914">
        <ele>318.6</ele>
        <time>2014-09-28T07:43:32.000Z</time>
      </trkpt>
      <trkpt lat="47.504" lon="6.78924">
        <ele>319.1</ele>
        <time>2014-09-28T07:43:33.000Z</time>
      </trkpt>
      <trkpt lat="47.50401" lon="6.78932">
        <ele>319.3</ele>
        <time>2014-09-28T07:43:34.000Z</time>
      </trkpt>
      <trkpt lat="47.50402" lon="6.7894">
        <ele>319.8</ele>
        <time>2014-09-28T07:43:35.000Z</time>
      </trkpt>
      <trkpt lat="47.50402" lon="6.78948">
        <ele>320.1</ele>
        <time>2014-09-28T07:43:36.000Z</time>
      </trkpt>
      <trkpt lat="47.50402" lon="6.78957">
        <ele>320</ele>
        <time>2014-09-28T07:43:37.000Z</time>
      </trkpt>
      <trkpt lat="47.50403" lon="6.78965">
        <ele>320</ele>
        <time>2014-09-28T07:43:38.000Z</time>
      </trkpt>
      <trkpt lat="47.50403" lon="6.78973">
        <ele>319.4</ele>
        <time>2014-09-28T07:43:39.000Z</time>
      </trkpt>
      <trkpt lat="47.50404" lon="6.78982">
        <ele>320</ele>
        <time>2014-09-28T07:43:40.000Z</time>
      </trkpt>
      <trkpt lat="47.50404" lon="6.78991">
        <ele>320.4</ele>
        <time>2014-09-28T07:43:41.000Z</time>
      </trkpt>
      <trkpt lat="47.50406" lon="6.79">
        <ele>321.3</ele>
        <time>2014-09-28T07:43:42.000Z</time>
      </trkpt>
      <trkpt lat="47.50405" lon="6.79009">
        <ele>321.2</ele>
        <time>2014-09-28T07:43:43.000Z</time>
      </trkpt>
      <trkpt lat="47.50406" lon="6.79017">
        <ele>321.2</ele>
        <time>2014-09-28T07:43:44.000Z</time>
      </trkpt>
      <trkpt lat="47.50407" lon="6.79025">
        <ele>321.5</ele>
        <time>2014-09-28T07:43:45.000Z</time>
      </trkpt>
      <trkpt lat="47.50408" lon="6.79033">
        <ele>320.7</ele>
        <time>2014-09-28T07:43:46.000Z</time>
      </trkpt>
      <trkpt lat="47.50409" lon="6.79041">
        <ele>320.7</ele>
        <time>2014-09-28T07:43:47.000Z</time>
      </trkpt>
      <trkpt lat="47.5041" lon="6.79048">
        <ele>321.7</ele>
        <time>2014-09-28T07:43:48.000Z</time>
      </trkpt>
      <trkpt lat="47.50411" lon="6.79056">
        <ele>322.5</ele>
        <time>2014-09-28T07:43:49.000Z</time>
      </trkpt>
      <trkpt lat="47.50412" lon="6.79064">
        <ele>323.2</ele>
        <time>2014-09-28T07:43:50.000Z</time>
      </trkpt>
      <trkpt lat="47.50414" lon="6.79071">
        <ele>323.3</ele>
        <time>2014-09-28T07:43:51.000Z</time>
      </trkpt>
      <trkpt lat="47.50415" lon="6.79077">
        <ele>323.7</ele>
        <time>2014-09-28T07:43:52.000Z</time>
      </trkpt>
      <trkpt lat="47.50415" lon="6.79084">
        <ele>324.6</ele>
        <time>2014-09-28T07:43:53.000Z</time>
      </trkpt>
      <trkpt lat="47.50416" lon="6.79091">
        <ele>324.6</ele>
        <time>2014-09-28T07:43:54.000Z</time>
      </trkpt>
      <trkpt lat="47.50417" lon="6.79099">
        <ele>325</ele>
        <time>2014-09-28T07:43:55.000Z</time>
      </trkpt>
      <trkpt lat="47.50418" lon="6.79107">
        <ele>325</ele>
        <time>2014-09-28T07:43:56.000Z</time>
      </trkpt>
      <trkpt lat="47.50418" lon="6.79113">
        <ele>324.5</ele>
        <time>2014-09-28T07:43:57.000Z</time>
      </trkpt>
      <trkpt lat="47.5042" lon="6.7912">
        <ele>325.2</ele>
        <time>2014-09-28T07:43:58.000Z</time>
      </trkpt>
      <trkpt lat="47.50424" lon="6.79127">
        <ele>325.7</ele>
        <time>2014-09-28T07:43:59.000Z</time>
      </trkpt>
      <trkpt lat="47.50426" lon="6.79132">
        <ele>325.4</ele>
        <time>2014-09-28T07:44:00.000Z</time>
      </trkpt>
      <trkpt lat="47.50429" lon="6.79138">
        <ele>325.4</ele>
        <time>2014-09-28T07:44:01.000Z</time>
      </trkpt>
      <trkpt lat="47.50433" lon="6.79144">
        <ele>324.8</ele>
        <time>2014-09-28T07:44:02.000Z</time>
      </trkpt>
      <trkpt lat="47.50437" lon="6.7915">
        <ele>325.1</ele>
        <time>2014-09-28T07:44:03.000Z</time>
      </trkpt>
      <trkpt lat="47.5044" lon="6.79157">
        <ele>325.1</ele>
        <time>2014-09-28T07:44:04.000Z</time>
      </trkpt>
      <trkpt lat="47.50443" lon="6.79165">
        <ele>325.8</ele>
        <time>2014-09-28T07:44:05.000Z</time>
      </trkpt>
      <trkpt lat="47.50445" lon="6.79173">
        <ele>326.8</ele>
        <time>2014-09-28T07:44:06.000Z</time>
      </trkpt>
      <trkpt lat="47.50447" lon="6.79181">
        <ele>328.1</ele>
        <time>2014-09-28T07:44:07.000Z</time>
      </trkpt>
      <trkpt lat="47.50448" lon="6.79188">
        <ele>327</ele>
        <time>2014-09-28T07:44:08.000Z</time>
      </trkpt>
      <trkpt lat="47.50449" lon="6.79194">
        <ele>326</ele>
        <time>2014-09-28T07:44:09.000Z</time>
      </trkpt>
      <trkpt lat="47.5045" lon="6.79201">
        <ele>325.4</ele>
        <time>2014-09-28T07:44:10.000Z</time>
      </trkpt>
      <trkpt lat="47.50451" lon="6.79207">
        <ele>324.9</ele>
        <time>2014-09-28T07:44:11.000Z</time>
      </trkpt>
      <trkpt lat="47.50452" lon="6.79214">
        <ele>324.8</ele>
        <time>2014-09-28T07:44:12.000Z</time>
      </trkpt>
      <trkpt lat="47.50452" lon="6.79222">
        <ele>325.1</ele>
        <time>2014-09-28T07:44:13.000Z</time>
      </trkpt>
      <trkpt lat="47.50454" lon="6.7923">
        <ele>324.6</ele>
        <time>2014-09-28T07:44:14.000Z</time>
      </trkpt>
      <trkpt lat="47.50455" lon="6.79237">
        <ele>324.2</ele>
        <time>2014-09-28T07:44:15.000Z</time>
      </trkpt>
      <trkpt lat="47.50456" lon="6.79244">
        <ele>323.7</ele>
        <time>2014-09-28T07:44:16.000Z</time>
      </trkpt>
      <trkpt lat="47.50458" lon="6.79252">
        <ele>323.5</ele>
        <time>2014-09-28T07:44:17.000Z</time>
      </trkpt>
      <trkpt lat="47.5046" lon="6.79259">
        <ele>322.7</ele>
        <time>2014-09-28T07:44:18.000Z</time>
      </trkpt>
      <trkpt lat="47.50462" lon="6.79267">
        <ele>322.6</ele>
        <time>2014-09-28T07:44:19.000Z</time>
      </trkpt>
      <trkpt lat="47.50463" lon="6.79274">
        <ele>322.4</ele>
        <time>2014-09-28T07:44:20.000Z</time>
      </trkpt>
      <trkpt lat="47.50465" lon="6.79282">
        <ele>322.2</ele>
        <time>2014-09-28T07:44:21.000Z</time>
      </trkpt>
      <trkpt lat="47.50466" lon="6.7929">
        <ele>322.3</ele>
        <time>2014-09-28T07:44:22.000Z</time>
      </trkpt>
      <trkpt lat="47.50466" lon="6.79296">
        <ele>321.8</ele>
        <time>2014-09-28T07:44:23.000Z</time>
      </trkpt>
      <trkpt lat="47.50467" lon="6.79303">
        <ele>320.9</ele>
        <time>2014-09-28T07:44:24.000Z</time>
      </trkpt>
      <trkpt lat="47.50467" lon="6.7931">
        <ele>321</ele>
        <time>2014-09-28T07:44:25.000Z</time>
      </trkpt>
      <trkpt lat="47.50468" lon="6.79316">
        <ele>321.3</ele>
        <time>2014-09-28T07:44:26.000Z</time>
      </trkpt>
      <trkpt lat="47.50472" lon="6.79336">
        <ele>320.9</ele>
        <time>2014-09-28T07:44:29.000Z</time>
      </trkpt>
      <trkpt lat="47.50474" lon="6.79346">
        <ele>320.4</ele>
        <time>2014-09-28T07:44:30.000Z</time>
      </trkpt>
      <trkpt lat="47.50475" lon="6.79354">
        <ele>320.2</ele>
        <time>2014-09-28T07:44:31.028Z</time>
      </trkpt>
      <trkpt lat="47.50476" lon="6.79363">
        <ele>320.9</ele>
        <time>2014-09-28T07:44:32.000Z</time>
      </trkpt>
      <trkpt lat="47.50478" lon="6.79371">
        <ele>320.2</ele>
        <time>2014-09-28T07:44:33.000Z</time>
      </trkpt>
      <trkpt lat="47.5048" lon="6.7938">
        <ele>319.5</ele>
        <time>2014-09-28T07:44:34.000Z</time>
      </trkpt>
      <trkpt lat="47.50481" lon="6.79388">
        <ele>319.7</ele>
        <time>2014-09-28T07:44:35.000Z</time>
      </trkpt>
      <trkpt lat="47.50483" lon="6.79396">
        <ele>319.7</ele>
        <time>2014-09-28T07:44:36.000Z</time>
      </trkpt>
      <trkpt lat="47.50484" lon="6.79404">
        <ele>320</ele>
        <time>2014-09-28T07:44:37.000Z</time>
      </trkpt>
      <trkpt lat="47.50486" lon="6.79412">
        <ele>320.2</ele>
        <time>2014-09-28T07:44:37.998Z</time>
      </trkpt>
      <trkpt lat="47.50485" lon="6.7942">
        <ele>320.2</ele>
        <time>2014-09-28T07:44:39.000Z</time>
      </trkpt>
      <trkpt lat="47.50483" lon="6.79428">
        <ele>320.3</ele>
        <time>2014-09-28T07:44:40.000Z</time>
      </trkpt>
      <trkpt lat="47.50482" lon="6.79438">
        <ele>320.5</ele>
        <time>2014-09-28T07:44:41.000Z</time>
      </trkpt>
      <trkpt lat="47.5048" lon="6.79446">
        <ele>320.7</ele>
        <time>2014-09-28T07:44:41.998Z</time>
      </trkpt>
      <trkpt lat="47.50479" lon="6.79454">
        <ele>319.6</ele>
        <time>2014-09-28T07:44:43.000Z</time>
      </trkpt>
      <trkpt lat="47.50479" lon="6.79462">
        <ele>319.8</ele>
        <time>2014-09-28T07:44:44.000Z</time>
      </trkpt>
      <trkpt lat="47.50478" lon="6.79471">
        <ele>320.1</ele>
        <time>2014-09-28T07:44:45.025Z</time>
      </trkpt>
      <trkpt lat="47.50478" lon="6.79479">
        <ele>320.4</ele>
        <time>2014-09-28T07:44:46.000Z</time>
      </trkpt>
      <trkpt lat="47.50478" lon="6.79487">
        <ele>320.7</ele>
        <time>2014-09-28T07:44:46.998Z</time>
      </trkpt>
      <trkpt lat="47.50478" lon="6.79496">
        <ele>319.9</ele>
        <time>2014-09-28T07:44:48.000Z</time>
      </trkpt>
      <trkpt lat="47.50478" lon="6.79504">
        <ele>319.9</ele>
        <time>2014-09-28T07:44:48.998Z</time>
      </trkpt>
      <trkpt lat="47.50479" lon="6.79511">
        <ele>320.2</ele>
        <time>2014-09-28T07:44:50.000Z</time>
      </trkpt>
      <trkpt lat="47.5048" lon="6.79519">
        <ele>320</ele>
        <time>2014-09-28T07:44:51.000Z</time>
      </trkpt>
      <trkpt lat="47.50482" lon="6.79527">
        <ele>320.6</ele>
        <time>2014-09-28T07:44:52.000Z</time>
      </trkpt>
      <trkpt lat="47.50484" lon="6.79535">
        <ele>320.1</ele>
        <time>2014-09-28T07:44:53.000Z</time>
      </trkpt>
      <trkpt lat="47.50486" lon="6.79543">
        <ele>319.6</ele>
        <time>2014-09-28T07:44:54.000Z</time>
      </trkpt>
      <trkpt lat="47.50487" lon="6.79552">
        <ele>320.1</ele>
        <time>2014-09-28T07:44:55.000Z</time>
      </trkpt>
      <trkpt lat="47.50489" lon="6.79561">
        <ele>319.9</ele>
        <time>2014-09-28T07:44:56.000Z</time>
      </trkpt>
      <trkpt lat="47.50491" lon="6.7957">
        <ele>320.1</ele>
        <time>2014-09-28T07:44:57.000Z</time>
      </trkpt>
      <trkpt lat="47.50492" lon="6.79578">
        <ele>320</ele>
        <time>2014-09-28T07:44:58.000Z</time>
      </trkpt>
      <trkpt lat="47.50494" lon="6.79587">
        <ele>319.6</ele>
        <time>2014-09-28T07:44:59.000Z</time>
      </trkpt>
      <trkpt lat="47.50495" lon="6.79595">
        <ele>319.6</ele>
        <time>2014-09-28T07:45:00.000Z</time>
      </trkpt>
      <trkpt lat="47.50496" lon="6.79603">
        <ele>319.1</ele>
        <time>2014-09-28T07:45:01.000Z</time>
      </trkpt>
      <trkpt lat="47.50498" lon="6.79611">
        <ele>319.2</ele>
        <time>2014-09-28T07:45:02.000Z</time>
      </trkpt>
      <trkpt lat="47.50499" lon="6.7962">
        <ele>319.2</ele>
        <time>2014-09-28T07:45:02.999Z</time>
      </trkpt>
      <trkpt lat="47.50501" lon="6.7963">
        <ele>320.3</ele>
        <time>2014-09-28T07:45:04.000Z</time>
      </trkpt>
      <trkpt lat="47.50502" lon="6.79638">
        <ele>320.8</ele>
        <time>2014-09-28T07:45:04.999Z</time>
      </trkpt>
      <trkpt lat="47.50504" lon="6.79647">
        <ele>320.7</ele>
        <time>2014-09-28T07:45:06.000Z</time>
      </trkpt>
      <trkpt lat="47.50506" lon="6.79656">
        <ele>321.2</ele>
        <time>2014-09-28T07:45:07.000Z</time>
      </trkpt>
      <trkpt lat="47.50507" lon="6.79665">
        <ele>322.1</ele>
        <time>2014-09-28T07:45:08.000Z</time>
      </trkpt>
      <trkpt lat="47.50508" lon="6.79674">
        <ele>322.4</ele>
        <time>2014-09-28T07:45:09.000Z</time>
      </trkpt>
      <trkpt lat="47.50509" lon="6.79682">
        <ele>322.5</ele>
        <time>2014-09-28T07:45:10.000Z</time>
      </trkpt>
      <trkpt lat="47.5051" lon="6.7969">
        <ele>322.2</ele>
        <time>2014-09-28T07:45:11.000Z</time>
      </trkpt>
      <trkpt lat="47.50511" lon="6.79698">
        <ele>321.9</ele>
        <time>2014-09-28T07:45:11.999Z</time>
      </trkpt>
      <trkpt lat="47.50512" lon="6.79706">
        <ele>321.6</ele>
        <time>2014-09-28T07:45:13.000Z</time>
      </trkpt>
      <trkpt lat="47.50513" lon="6.79715">
        <ele>320.9</ele>
        <time>2014-09-28T07:45:14.000Z</time>
      </trkpt>
      <trkpt lat="47.50514" lon="6.79721">
        <ele>320.3</ele>
        <time>2014-09-28T07:45:15.000Z</time>
      </trkpt>
      <trkpt lat="47.50515" lon="6.7973">
        <ele>320</ele>
        <time>2014-09-28T07:45:16.000Z</time>
      </trkpt>
      <trkpt lat="47.50515" lon="6.79738">
        <ele>320</ele>
        <time>2014-09-28T07:45:17.000Z</time>
      </trkpt>
      <trkpt lat="47.50516" lon="6.79747">
        <ele>320.1</ele>
        <time>2014-09-28T07:45:18.000Z</time>
      </trkpt>
      <trkpt lat="47.50517" lon="6.79755">
        <ele>320.3</ele>
        <time>2014-09-28T07:45:19.026Z</time>
      </trkpt>
      <trkpt lat="47.50517" lon="6.79764">
        <ele>321.5</ele>
        <time>2014-09-28T07:45:20.000Z</time>
      </trkpt>
      <trkpt lat="47.50518" lon="6.79772">
        <ele>321.7</ele>
        <time>2014-09-28T07:45:21.000Z</time>
      </trkpt>
      <trkpt lat="47.50519" lon="6.7978">
        <ele>321.3</ele>
        <time>2014-09-28T07:45:22.000Z</time>
      </trkpt>
      <trkpt lat="47.50518" lon="6.79788">
        <ele>321.3</ele>
        <time>2014-09-28T07:45:23.000Z</time>
      </trkpt>
      <trkpt lat="47.50519" lon="6.79795">
        <ele>321.2</ele>
        <time>2014-09-28T07:45:24.000Z</time>
      </trkpt>
      <trkpt lat="47.50519" lon="6.79804">
        <ele>321.2</ele>
        <time>2014-09-28T07:45:25.000Z</time>
      </trkpt>
      <trkpt lat="47.5052" lon="6.79811">
        <ele>321.5</ele>
        <time>2014-09-28T07:45:25.999Z</time>
      </trkpt>
      <trkpt lat="47.50519" lon="6.79833">
        <ele>321.3</ele>
        <time>2014-09-28T07:45:29.000Z</time>
      </trkpt>
      <trkpt lat="47.50518" lon="6.79845">
        <ele>321.9</ele>
        <time>2014-09-28T07:45:30.000Z</time>
      </trkpt>
      <trkpt lat="47.50518" lon="6.79855">
        <ele>322.2</ele>
        <time>2014-09-28T07:45:31.000Z</time>
      </trkpt>
      <trkpt lat="47.50518" lon="6.79864">
        <ele>322.7</ele>
        <time>2014-09-28T07:45:32.000Z</time>
      </trkpt>
      <trkpt lat="47.50517" lon="6.79872">
        <ele>322.2</ele>
        <time>2014-09-28T07:45:33.000Z</time>
      </trkpt>
      <trkpt lat="47.50519" lon="6.79882">
        <ele>322.3</ele>
        <time>2014-09-28T07:45:34.000Z</time>
      </trkpt>
      <trkpt lat="47.50519" lon="6.7989">
        <ele>322.4</ele>
        <time>2014-09-28T07:45:35.000Z</time>
      </trkpt>
      <trkpt lat="47.50519" lon="6.79898">
        <ele>322.5</ele>
        <time>2014-09-28T07:45:36.000Z</time>
      </trkpt>
      <trkpt lat="47.50519" lon="6.79906">
        <ele>322.7</ele>
        <time>2014-09-28T07:45:37.040Z</time>
      </trkpt>
      <trkpt lat="47.5052" lon="6.79915">
        <ele>323.5</ele>
        <time>2014-09-28T07:45:38.000Z</time>
      </trkpt>
      <trkpt lat="47.50519" lon="6.79923">
        <ele>324.5</ele>
        <time>2014-09-28T07:45:39.000Z</time>
      </trkpt>
      <trkpt lat="47.50519" lon="6.79931">
        <ele>324.4</ele>
        <time>2014-09-28T07:45:40.000Z</time>
      </trkpt>
      <trkpt lat="47.50517" lon="6.79939">
        <ele>324.6</ele>
        <time>2014-09-28T07:45:41.000Z</time>
      </trkpt>
      <trkpt lat="47.50517" lon="6.79951">
        <ele>325.9</ele>
        <time>2014-09-28T07:45:42.000Z</time>
      </trkpt>
      <trkpt lat="47.50516" lon="6.79959">
        <ele>325.8</ele>
        <time>2014-09-28T07:45:43.000Z</time>
      </trkpt>
      <trkpt lat="47.50516" lon="6.79968">
        <ele>326</ele>
        <time>2014-09-28T07:45:44.049Z</time>
      </trkpt>
      <trkpt lat="47.50516" lon="6.79976">
        <ele>326.9</ele>
        <time>2014-09-28T07:45:45.000Z</time>
      </trkpt>
      <trkpt lat="47.50516" lon="6.79985">
        <ele>327.2</ele>
        <time>2014-09-28T07:45:46.000Z</time>
      </trkpt>
      <trkpt lat="47.50516" lon="6.79994">
        <ele>328.2</ele>
        <time>2014-09-28T07:45:47.000Z</time>
      </trkpt>
      <trkpt lat="47.50516" lon="6.80004">
        <ele>328.5</ele>
        <time>2014-09-28T07:45:48.000Z</time>
      </trkpt>
      <trkpt lat="47.50516" lon="6.80012">
        <ele>328.4</ele>
        <time>2014-09-28T07:45:49.000Z</time>
      </trkpt>
      <trkpt lat="47.50516" lon="6.80021">
        <ele>328.8</ele>
        <time>2014-09-28T07:45:50.000Z</time>
      </trkpt>
      <trkpt lat="47.50516" lon="6.80029">
        <ele>329</ele>
        <time>2014-09-28T07:45:51.000Z</time>
      </trkpt>
      <trkpt lat="47.50516" lon="6.80037">
        <ele>328.2</ele>
        <time>2014-09-28T07:45:52.000Z</time>
      </trkpt>
      <trkpt lat="47.50516" lon="6.80047">
        <ele>328</ele>
        <time>2014-09-28T07:45:53.044Z</time>
      </trkpt>
      <trkpt lat="47.50513" lon="6.80055">
        <ele>328.3</ele>
        <time>2014-09-28T07:45:54.000Z</time>
      </trkpt>
      <trkpt lat="47.50513" lon="6.80063">
        <ele>327.7</ele>
        <time>2014-09-28T07:45:55.000Z</time>
      </trkpt>
      <trkpt lat="47.50512" lon="6.80072">
        <ele>327.5</ele>
        <time>2014-09-28T07:45:56.000Z</time>
      </trkpt>
      <trkpt lat="47.50511" lon="6.8008">
        <ele>327.5</ele>
        <time>2014-09-28T07:45:57.000Z</time>
      </trkpt>
      <trkpt lat="47.50511" lon="6.80087">
        <ele>326.5</ele>
        <time>2014-09-28T07:45:58.000Z</time>
      </trkpt>
      <trkpt lat="47.5051" lon="6.80095">
        <ele>326.9</ele>
        <time>2014-09-28T07:45:59.000Z</time>
      </trkpt>
      <trkpt lat="47.5051" lon="6.80104">
        <ele>327.2</ele>
        <time>2014-09-28T07:46:00.000Z</time>
      </trkpt>
      <trkpt lat="47.5051" lon="6.80112">
        <ele>326.7</ele>
        <time>2014-09-28T07:46:01.000Z</time>
      </trkpt>
      <trkpt lat="47.5051" lon="6.8012">
        <ele>326.8</ele>
        <time>2014-09-28T07:46:02.000Z</time>
      </trkpt>
      <trkpt lat="47.5051" lon="6.80128">
        <ele>326.3</ele>
        <time>2014-09-28T07:46:03.000Z</time>
      </trkpt>
      <trkpt lat="47.5051" lon="6.80136">
        <ele>326.4</ele>
        <time>2014-09-28T07:46:04.000Z</time>
      </trkpt>
      <trkpt lat="47.50508" lon="6.80143">
        <ele>325.2</ele>
        <time>2014-09-28T07:46:05.000Z</time>
      </trkpt>
      <trkpt lat="47.50506" lon="6.8015">
        <ele>323.7</ele>
        <time>2014-09-28T07:46:06.000Z</time>
      </trkpt>
      <trkpt lat="47.50506" lon="6.80159">
        <ele>323.7</ele>
        <time>2014-09-28T07:46:06.999Z</time>
      </trkpt>
      <trkpt lat="47.50505" lon="6.80166">
        <ele>323.1</ele>
        <time>2014-09-28T07:46:08.000Z</time>
      </trkpt>
      <trkpt lat="47.50505" lon="6.80175">
        <ele>323.2</ele>
        <time>2014-09-28T07:46:08.999Z</time>
      </trkpt>
      <trkpt lat="47.50503" lon="6.80185">
        <ele>324.2</ele>
        <time>2014-09-28T07:46:10.000Z</time>
      </trkpt>
      <trkpt lat="47.50502" lon="6.80193">
        <ele>324</ele>
        <time>2014-09-28T07:46:11.000Z</time>
      </trkpt>
      <trkpt lat="47.50502" lon="6.80203">
        <ele>324.4</ele>
        <time>2014-09-28T07:46:12.000Z</time>
      </trkpt>
      <trkpt lat="47.50501" lon="6.80212">
        <ele>324.4</ele>
        <time>2014-09-28T07:46:13.000Z</time>
      </trkpt>
      <trkpt lat="47.50501" lon="6.80221">
        <ele>324.5</ele>
        <time>2014-09-28T07:46:14.043Z</time>
      </trkpt>
      <trkpt lat="47.505" lon="6.80229">
        <ele>324</ele>
        <time>2014-09-28T07:46:15.000Z</time>
      </trkpt>
      <trkpt lat="47.505" lon="6.80239">
        <ele>324</ele>
        <time>2014-09-28T07:46:16.041Z</time>
      </trkpt>
      <trkpt lat="47.50499" lon="6.80247">
        <ele>324.3</ele>
        <time>2014-09-28T07:46:17.000Z</time>
      </trkpt>
      <trkpt lat="47.50498" lon="6.80255">
        <ele>324.8</ele>
        <time>2014-09-28T07:46:17.999Z</time>
      </trkpt>
      <trkpt lat="47.50498" lon="6.80262">
        <ele>323.5</ele>
        <time>2014-09-28T07:46:19.000Z</time>
      </trkpt>
      <trkpt lat="47.50497" lon="6.8027">
        <ele>323.5</ele>
        <time>2014-09-28T07:46:20.000Z</time>
      </trkpt>
      <trkpt lat="47.50497" lon="6.80277">
        <ele>323.1</ele>
        <time>2014-09-28T07:46:21.000Z</time>
      </trkpt>
      <trkpt lat="47.50496" lon="6.80287">
        <ele>324.1</ele>
        <time>2014-09-28T07:46:22.000Z</time>
      </trkpt>
      <trkpt lat="47.50497" lon="6.80294">
        <ele>323.2</ele>
        <time>2014-09-28T07:46:23.000Z</time>
      </trkpt>
      <trkpt lat="47.50497" lon="6.80304">
        <ele>323.3</ele>
        <time>2014-09-28T07:46:24.000Z</time>
      </trkpt>
      <trkpt lat="47.50497" lon="6.80312">
        <ele>323.5</ele>
        <time>2014-09-28T07:46:25.037Z</time>
      </trkpt>
      <trkpt lat="47.50497" lon="6.80321">
        <ele>323.3</ele>
        <time>2014-09-28T07:46:26.000Z</time>
      </trkpt>
      <trkpt lat="47.505" lon="6.80343">
        <ele>322.3</ele>
        <time>2014-09-28T07:46:29.000Z</time>
      </trkpt>
      <trkpt lat="47.50501" lon="6.80352">
        <ele>321.3</ele>
        <time>2014-09-28T07:46:30.000Z</time>
      </trkpt>
      <trkpt lat="47.50501" lon="6.80362">
        <ele>320.8</ele>
        <time>2014-09-28T07:46:31.000Z</time>
      </trkpt>
      <trkpt lat="47.50501" lon="6.8037">
        <ele>319.6</ele>
        <time>2014-09-28T07:46:32.000Z</time>
      </trkpt>
      <trkpt lat="47.50502" lon="6.80379">
        <ele>318.7</ele>
        <time>2014-09-28T07:46:33.000Z</time>
      </trkpt>
      <trkpt lat="47.50502" lon="6.80388">
        <ele>318</ele>
        <time>2014-09-28T07:46:34.000Z</time>
      </trkpt>
      <trkpt lat="47.50502" lon="6.80397">
        <ele>318.3</ele>
        <time>2014-09-28T07:46:35.000Z</time>
      </trkpt>
      <trkpt lat="47.50503" lon="6.80407">
        <ele>321.2</ele>
        <time>2014-09-28T07:46:36.000Z</time>
      </trkpt>
      <trkpt lat="47.50505" lon="6.80415">
        <ele>319.5</ele>
        <time>2014-09-28T07:46:37.000Z</time>
      </trkpt>
      <trkpt lat="47.50507" lon="6.8042">
        <ele>320</ele>
        <time>2014-09-28T07:46:38.000Z</time>
      </trkpt>
      <trkpt lat="47.50511" lon="6.80425">
        <ele>320.3</ele>
        <time>2014-09-28T07:46:39.000Z</time>
      </trkpt>
      <trkpt lat="47.50515" lon="6.8043">
        <ele>320.2</ele>
        <time>2014-09-28T07:46:40.000Z</time>
      </trkpt>
      <trkpt lat="47.50519" lon="6.80437">
        <ele>320.2</ele>
        <time>2014-09-28T07:46:41.000Z</time>
      </trkpt>
      <trkpt lat="47.50522" lon="6.80442">
        <ele>320.2</ele>
        <time>2014-09-28T07:46:42.000Z</time>
      </trkpt>
      <trkpt lat="47.50526" lon="6.80443">
        <ele>319.9</ele>
        <time>2014-09-28T07:46:43.000Z</time>
      </trkpt>
      <trkpt lat="47.50531" lon="6.80441">
        <ele>320.1</ele>
        <time>2014-09-28T07:46:44.000Z</time>
      </trkpt>
      <trkpt lat="47.50532" lon="6.80432">
        <ele>320.7</ele>
        <time>2014-09-28T07:46:45.000Z</time>
      </trkpt>
      <trkpt lat="47.50531" lon="6.80425">
        <ele>321.1</ele>
        <time>2014-09-28T07:46:46.000Z</time>
      </trkpt>
      <trkpt lat="47.50529" lon="6.80418">
        <ele>320.6</ele>
        <time>2014-09-28T07:46:47.000Z</time>
      </trkpt>
      <trkpt lat="47.5053" lon="6.80412">
        <ele>322.3</ele>
        <time>2014-09-28T07:46:48.000Z</time>
      </trkpt>
      <trkpt lat="47.50533" lon="6.80409">
        <ele>323.2</ele>
        <time>2014-09-28T07:46:49.000Z</time>
      </trkpt>
      <trkpt lat="47.50536" lon="6.80409">
        <ele>323.6</ele>
        <time>2014-09-28T07:46:50.000Z</time>
      </trkpt>
      <trkpt lat="47.50537" lon="6.80417">
        <ele>324.5</ele>
        <time>2014-09-28T07:46:51.000Z</time>
      </trkpt>
      <trkpt lat="47.50537" lon="6.80424">
        <ele>325</ele>
        <time>2014-09-28T07:46:52.000Z</time>
      </trkpt>
      <trkpt lat="47.50536" lon="6.80431">
        <ele>325.9</ele>
        <time>2014-09-28T07:46:53.000Z</time>
      </trkpt>
      <trkpt lat="47.50536" lon="6.80438">
        <ele>325.2</ele>
        <time>2014-09-28T07:46:54.000Z</time>
      </trkpt>
      <trkpt lat="47.50536" lon="6.80443">
        <ele>324.9</ele>
        <time>2014-09-28T07:46:55.000Z</time>
      </trkpt>
      <trkpt lat="47.50535" lon="6.80451">
        <ele>324.6</ele>
        <time>2014-09-28T07:46:56.000Z</time>
      </trkpt>
      <trkpt lat="47.50533" lon="6.80457">
        <ele>324.3</ele>
        <time>2014-09-28T07:46:57.000Z</time>
      </trkpt>
      <trkpt lat="47.50531" lon="6.80461">
        <ele>325.3</ele>
        <time>2014-09-28T07:46:58.000Z</time>
      </trkpt>
      <trkpt lat="47.50527" lon="6.80464">
        <ele>324.9</ele>
        <time>2014-09-28T07:46:59.000Z</time>
      </trkpt>
      <trkpt lat="47.50519" lon="6.80459">
        <ele>323.8</ele>
        <time>2014-09-28T07:47:00.000Z</time>
      </trkpt>
      <trkpt lat="47.50515" lon="6.80457">
        <ele>323.5</ele>
        <time>2014-09-28T07:47:01.000Z</time>
      </trkpt>
      <trkpt lat="47.50511" lon="6.80455">
        <ele>323.7</ele>
        <time>2014-09-28T07:47:02.000Z</time>
      </trkpt>
      <trkpt lat="47.50508" lon="6.80453">
        <ele>323.7</ele>
        <time>2014-09-28T07:47:03.000Z</time>
      </trkpt>
      <trkpt lat="47.50503" lon="6.80452">
        <ele>324.1</ele>
        <time>2014-09-28T07:47:04.000Z</time>
      </trkpt>
      <trkpt lat="47.505" lon="6.80451">
        <ele>324.5</ele>
        <time>2014-09-28T07:47:05.000Z</time>
      </trkpt>
      <trkpt lat="47.50496" lon="6.80451">
        <ele>324.6</ele>
        <time>2014-09-28T07:47:06.000Z</time>
      </trkpt>
      <trkpt lat="47.50492" lon="6.80452">
        <ele>324.7</ele>
        <time>2014-09-28T07:47:07.000Z</time>
      </trkpt>
      <trkpt lat="47.50489" lon="6.80453">
        <ele>325</ele>
        <time>2014-09-28T07:47:08.000Z</time>
      </trkpt>
      <trkpt lat="47.50485" lon="6.80454">
        <ele>325.1</ele>
        <time>2014-09-28T07:47:09.000Z</time>
      </trkpt>
      <trkpt lat="47.50482" lon="6.80454">
        <ele>324.6</ele>
        <time>2014-09-28T07:47:10.000Z</time>
      </trkpt>
      <trkpt lat="47.50478" lon="6.80454">
        <ele>325.1</ele>
        <time>2014-09-28T07:47:11.000Z</time>
      </trkpt>
      <trkpt lat="47.50474" lon="6.80454">
        <ele>324.6</ele>
        <time>2014-09-28T07:47:12.000Z</time>
      </trkpt>
      <trkpt lat="47.5047" lon="6.80455">
        <ele>325</ele>
        <time>2014-09-28T07:47:13.000Z</time>
      </trkpt>
      <trkpt lat="47.50466" lon="6.80455">
        <ele>325.4</ele>
        <time>2014-09-28T07:47:14.000Z</time>
      </trkpt>
      <trkpt lat="47.50461" lon="6.80455">
        <ele>325.8</ele>
        <time>2014-09-28T07:47:15.000Z</time>
      </trkpt>
      <trkpt lat="47.50457" lon="6.80455">
        <ele>326.3</ele>
        <time>2014-09-28T07:47:16.000Z</time>
      </trkpt>
      <trkpt lat="47.50452" lon="6.80455">
        <ele>326.7</ele>
        <time>2014-09-28T07:47:17.000Z</time>
      </trkpt>
      <trkpt lat="47.50449" lon="6.80455">
        <ele>325.9</ele>
        <time>2014-09-28T07:47:18.000Z</time>
      </trkpt>
      <trkpt lat="47.50447" lon="6.80454">
        <ele>325.2</ele>
        <time>2014-09-28T07:47:19.000Z</time>
      </trkpt>
      <trkpt lat="47.50448" lon="6.80449">
        <ele>322.4</ele>
        <time>2014-09-28T07:47:22.000Z</time>
      </trkpt>
      <trkpt lat="47.5045" lon="6.80448">
        <ele>322.5</ele>
        <time>2014-09-28T07:47:23.000Z</time>
      </trkpt>
      <trkpt lat="47.50453" lon="6.80448">
        <ele>321.8</ele>
        <time>2014-09-28T07:47:24.000Z</time>
      </trkpt>
      <trkpt lat="47.50456" lon="6.80448">
        <ele>319.9</ele>
        <time>2014-09-28T07:47:25.000Z</time>
      </trkpt>
      <trkpt lat="47.50459" lon="6.8045">
        <ele>320.3</ele>
        <time>2014-09-28T07:47:26.000Z</time>
      </trkpt>
      <trkpt lat="47.50464" lon="6.80458">
        <ele>319.2</ele>
        <time>2014-09-28T07:47:29.000Z</time>
      </trkpt>
      <trkpt lat="47.50465" lon="6.80462">
        <ele>319.1</ele>
        <time>2014-09-28T07:47:30.000Z</time>
      </trkpt>
      <trkpt lat="47.50466" lon="6.80467">
        <ele>319.1</ele>
        <time>2014-09-28T07:47:31.000Z</time>
      </trkpt>
      <trkpt lat="47.50467" lon="6.80472">
        <ele>319.7</ele>
        <time>2014-09-28T07:47:32.000Z</time>
      </trkpt>
      <trkpt lat="47.50468" lon="6.80479">
        <ele>320.5</ele>
        <time>2014-09-28T07:47:33.000Z</time>
      </trkpt>
      <trkpt lat="47.50468" lon="6.80486">
        <ele>319.9</ele>
        <time>2014-09-28T07:47:34.000Z</time>
      </trkpt>
      <trkpt lat="47.50467" lon="6.80493">
        <ele>319.5</ele>
        <time>2014-09-28T07:47:35.000Z</time>
      </trkpt>
      <trkpt lat="47.50466" lon="6.805">
        <ele>321.1</ele>
        <time>2014-09-28T07:47:36.000Z</time>
      </trkpt>
      <trkpt lat="47.50465" lon="6.80507">
        <ele>321.2</ele>
        <time>2014-09-28T07:47:37.000Z</time>
      </trkpt>
      <trkpt lat="47.50463" lon="6.80521">
        <ele>322.3</ele>
        <time>2014-09-28T07:47:38.000Z</time>
      </trkpt>
      <trkpt lat="47.50463" lon="6.80528">
        <ele>321.8</ele>
        <time>2014-09-28T07:47:39.000Z</time>
      </trkpt>
      <trkpt lat="47.50463" lon="6.80534">
        <ele>321</ele>
        <time>2014-09-28T07:47:40.000Z</time>
      </trkpt>
      <trkpt lat="47.50463" lon="6.80543">
        <ele>320.6</ele>
        <time>2014-09-28T07:47:41.000Z</time>
      </trkpt>
      <trkpt lat="47.50463" lon="6.80549">
        <ele>320.3</ele>
        <time>2014-09-28T07:47:42.000Z</time>
      </trkpt>
      <trkpt lat="47.50462" lon="6.80557">
        <ele>319.8</ele>
        <time>2014-09-28T07:47:43.000Z</time>
      </trkpt>
      <trkpt lat="47.50462" lon="6.80563">
        <ele>319.5</ele>
        <time>2014-09-28T07:47:44.000Z</time>
      </trkpt>
      <trkpt lat="47.50463" lon="6.80569">
        <ele>319.6</ele>
        <time>2014-09-28T07:47:45.000Z</time>
      </trkpt>
      <trkpt lat="47.50462" lon="6.80577">
        <ele>319.1</ele>
        <time>2014-09-28T07:47:46.000Z</time>
      </trkpt>
      <trkpt lat="47.50461" lon="6.80587">
        <ele>318.9</ele>
        <time>2014-09-28T07:47:47.000Z</time>
      </trkpt>
      <trkpt lat="47.5046" lon="6.80596">
        <ele>318.6</ele>
        <time>2014-09-28T07:47:48.000Z</time>
      </trkpt>
      <trkpt lat="47.50459" lon="6.80605">
        <ele>318.7</ele>
        <time>2014-09-28T07:47:49.000Z</time>
      </trkpt>
      <trkpt lat="47.50458" lon="6.80613">
        <ele>319</ele>
        <time>2014-09-28T07:47:50.000Z</time>
      </trkpt>
      <trkpt lat="47.50458" lon="6.80622">
        <ele>318.9</ele>
        <time>2014-09-28T07:47:51.000Z</time>
      </trkpt>
      <trkpt lat="47.50458" lon="6.80631">
        <ele>318.6</ele>
        <time>2014-09-28T07:47:52.000Z</time>
      </trkpt>
      <trkpt lat="47.50457" lon="6.80639">
        <ele>318.8</ele>
        <time>2014-09-28T07:47:53.000Z</time>
      </trkpt>
      <trkpt lat="47.50457" lon="6.80647">
        <ele>319</ele>
        <time>2014-09-28T07:47:54.000Z</time>
      </trkpt>
      <trkpt lat="47.50456" lon="6.80655">
        <ele>319.6</ele>
        <time>2014-09-28T07:47:55.000Z</time>
      </trkpt>
      <trkpt lat="47.50456" lon="6.80663">
        <ele>319.5</ele>
        <time>2014-09-28T07:47:56.000Z</time>
      </trkpt>
      <trkpt lat="47.50456" lon="6.8067">
        <ele>320</ele>
        <time>2014-09-28T07:47:57.000Z</time>
      </trkpt>
      <trkpt lat="47.50456" lon="6.80679">
        <ele>320.5</ele>
        <time>2014-09-28T07:47:58.000Z</time>
      </trkpt>
      <trkpt lat="47.50455" lon="6.80687">
        <ele>320.6</ele>
        <time>2014-09-28T07:47:59.000Z</time>
      </trkpt>
      <trkpt lat="47.50455" lon="6.80695">
        <ele>320.3</ele>
        <time>2014-09-28T07:48:00.000Z</time>
      </trkpt>
      <trkpt lat="47.50455" lon="6.80704">
        <ele>320.6</ele>
        <time>2014-09-28T07:48:01.000Z</time>
      </trkpt>
      <trkpt lat="47.50454" lon="6.80712">
        <ele>320.6</ele>
        <time>2014-09-28T07:48:02.000Z</time>
      </trkpt>
      <trkpt lat="47.50453" lon="6.80719">
        <ele>320.6</ele>
        <time>2014-09-28T07:48:03.000Z</time>
      </trkpt>
      <trkpt lat="47.50452" lon="6.80729">
        <ele>321.3</ele>
        <time>2014-09-28T07:48:04.000Z</time>
      </trkpt>
      <trkpt lat="47.50452" lon="6.80737">
        <ele>321.5</ele>
        <time>2014-09-28T07:48:05.000Z</time>
      </trkpt>
      <trkpt lat="47.50452" lon="6.80746">
        <ele>321.9</ele>
        <time>2014-09-28T07:48:06.000Z</time>
      </trkpt>
      <trkpt lat="47.50451" lon="6.80755">
        <ele>321.4</ele>
        <time>2014-09-28T07:48:07.000Z</time>
      </trkpt>
      <trkpt lat="47.50451" lon="6.80763">
        <ele>321.3</ele>
        <time>2014-09-28T07:48:08.000Z</time>
      </trkpt>
      <trkpt lat="47.50451" lon="6.80771">
        <ele>321.1</ele>
        <time>2014-09-28T07:48:09.000Z</time>
      </trkpt>
      <trkpt lat="47.50448" lon="6.8078">
        <ele>321.9</ele>
        <time>2014-09-28T07:48:10.000Z</time>
      </trkpt>
      <trkpt lat="47.50446" lon="6.80789">
        <ele>322.3</ele>
        <time>2014-09-28T07:48:11.000Z</time>
      </trkpt>
      <trkpt lat="47.50445" lon="6.80796">
        <ele>322.6</ele>
        <time>2014-09-28T07:48:12.000Z</time>
      </trkpt>
      <trkpt lat="47.50444" lon="6.80803">
        <ele>322.6</ele>
        <time>2014-09-28T07:48:13.000Z</time>
      </trkpt>
      <trkpt lat="47.50444" lon="6.8081">
        <ele>322.7</ele>
        <time>2014-09-28T07:48:14.000Z</time>
      </trkpt>
      <trkpt lat="47.50443" lon="6.80816">
        <ele>322.5</ele>
        <time>2014-09-28T07:48:15.000Z</time>
      </trkpt>
      <trkpt lat="47.50443" lon="6.80823">
        <ele>322.2</ele>
        <time>2014-09-28T07:48:16.000Z</time>
      </trkpt>
      <trkpt lat="47.50444" lon="6.80832">
        <ele>322.8</ele>
        <time>2014-09-28T07:48:17.000Z</time>
      </trkpt>
      <trkpt lat="47.50445" lon="6.8084">
        <ele>322</ele>
        <time>2014-09-28T07:48:18.000Z</time>
      </trkpt>
      <trkpt lat="47.50446" lon="6.80849">
        <ele>321.8</ele>
        <time>2014-09-28T07:48:19.000Z</time>
      </trkpt>
      <trkpt lat="47.50447" lon="6.80858">
        <ele>321.4</ele>
        <time>2014-09-28T07:48:20.000Z</time>
      </trkpt>
      <trkpt lat="47.50447" lon="6.80868">
        <ele>321.6</ele>
        <time>2014-09-28T07:48:21.000Z</time>
      </trkpt>
      <trkpt lat="47.50447" lon="6.80877">
        <ele>322.2</ele>
        <time>2014-09-28T07:48:22.000Z</time>
      </trkpt>
      <trkpt lat="47.50446" lon="6.80887">
        <ele>322</ele>
        <time>2014-09-28T07:48:23.000Z</time>
      </trkpt>
      <trkpt lat="47.50446" lon="6.80896">
        <ele>322.1</ele>
        <time>2014-09-28T07:48:24.000Z</time>
      </trkpt>
      <trkpt lat="47.50445" lon="6.80906">
        <ele>323.1</ele>
        <time>2014-09-28T07:48:25.000Z</time>
      </trkpt>
      <trkpt lat="47.50445" lon="6.80916">
        <ele>322.9</ele>
        <time>2014-09-28T07:48:26.000Z</time>
      </trkpt>
      <trkpt lat="47.50443" lon="6.80941">
        <ele>322.5</ele>
        <time>2014-09-28T07:48:29.000Z</time>
      </trkpt>
      <trkpt lat="47.50443" lon="6.80951">
        <ele>322.3</ele>
        <time>2014-09-28T07:48:30.000Z</time>
      </trkpt>
      <trkpt lat="47.50442" lon="6.80959">
        <ele>321.9</ele>
        <time>2014-09-28T07:48:31.000Z</time>
      </trkpt>
      <trkpt lat="47.50441" lon="6.80968">
        <ele>320.6</ele>
        <time>2014-09-28T07:48:32.000Z</time>
      </trkpt>
      <trkpt lat="47.5044" lon="6.80978">
        <ele>320.6</ele>
        <time>2014-09-28T07:48:33.000Z</time>
      </trkpt>
      <trkpt lat="47.5044" lon="6.8099">
        <ele>321.7</ele>
        <time>2014-09-28T07:48:34.000Z</time>
      </trkpt>
      <trkpt lat="47.5044" lon="6.81">
        <ele>322.2</ele>
        <time>2014-09-28T07:48:35.000Z</time>
      </trkpt>
      <trkpt lat="47.5044" lon="6.81008">
        <ele>322.9</ele>
        <time>2014-09-28T07:48:36.000Z</time>
      </trkpt>
      <trkpt lat="47.50439" lon="6.81017">
        <ele>322.5</ele>
        <time>2014-09-28T07:48:37.000Z</time>
      </trkpt>
      <trkpt lat="47.50438" lon="6.81026">
        <ele>322.4</ele>
        <time>2014-09-28T07:48:38.000Z</time>
      </trkpt>
      <trkpt lat="47.50437" lon="6.81034">
        <ele>320.7</ele>
        <time>2014-09-28T07:48:39.000Z</time>
      </trkpt>
      <trkpt lat="47.50436" lon="6.81042">
        <ele>320.5</ele>
        <time>2014-09-28T07:48:40.000Z</time>
      </trkpt>
      <trkpt lat="47.50436" lon="6.81052">
        <ele>321.2</ele>
        <time>2014-09-28T07:48:41.000Z</time>
      </trkpt>
      <trkpt lat="47.50436" lon="6.81062">
        <ele>321.9</ele>
        <time>2014-09-28T07:48:42.000Z</time>
      </trkpt>
      <trkpt lat="47.50435" lon="6.81071">
        <ele>323</ele>
        <time>2014-09-28T07:48:43.000Z</time>
      </trkpt>
      <trkpt lat="47.50434" lon="6.8108">
        <ele>322.8</ele>
        <time>2014-09-28T07:48:44.000Z</time>
      </trkpt>
      <trkpt lat="47.50434" lon="6.81089">
        <ele>323.3</ele>
        <time>2014-09-28T07:48:45.000Z</time>
      </trkpt>
      <trkpt lat="47.50433" lon="6.81098">
        <ele>323.5</ele>
        <time>2014-09-28T07:48:46.000Z</time>
      </trkpt>
      <trkpt lat="47.50433" lon="6.81108">
        <ele>323.5</ele>
        <time>2014-09-28T07:48:47.000Z</time>
      </trkpt>
      <trkpt lat="47.50432" lon="6.81117">
        <ele>324.4</ele>
        <time>2014-09-28T07:48:48.000Z</time>
      </trkpt>
      <trkpt lat="47.50432" lon="6.81127">
        <ele>324.6</ele>
        <time>2014-09-28T07:48:49.000Z</time>
      </trkpt>
      <trkpt lat="47.50432" lon="6.81136">
        <ele>326.3</ele>
        <time>2014-09-28T07:48:50.000Z</time>
      </trkpt>
      <trkpt lat="47.50432" lon="6.81144">
        <ele>325.5</ele>
        <time>2014-09-28T07:48:51.000Z</time>
      </trkpt>
      <trkpt lat="47.50432" lon="6.81153">
        <ele>325.4</ele>
        <time>2014-09-28T07:48:52.000Z</time>
      </trkpt>
      <trkpt lat="47.50432" lon="6.81161">
        <ele>325.4</ele>
        <time>2014-09-28T07:48:53.000Z</time>
      </trkpt>
      <trkpt lat="47.50433" lon="6.8117">
        <ele>325.3</ele>
        <time>2014-09-28T07:48:54.000Z</time>
      </trkpt>
      <trkpt lat="47.50433" lon="6.81179">
        <ele>325.4</ele>
        <time>2014-09-28T07:48:55.000Z</time>
      </trkpt>
      <trkpt lat="47.50433" lon="6.81187">
        <ele>325.5</ele>
        <time>2014-09-28T07:48:56.000Z</time>
      </trkpt>
      <trkpt lat="47.50432" lon="6.81196">
        <ele>325.5</ele>
        <time>2014-09-28T07:48:57.000Z</time>
      </trkpt>
      <trkpt lat="47.50431" lon="6.81204">
        <ele>325.6</ele>
        <time>2014-09-28T07:48:58.000Z</time>
      </trkpt>
      <trkpt lat="47.5043" lon="6.81211">
        <ele>326.2</ele>
        <time>2014-09-28T07:48:59.000Z</time>
      </trkpt>
      <trkpt lat="47.50429" lon="6.81219">
        <ele>326.5</ele>
        <time>2014-09-28T07:49:00.000Z</time>
      </trkpt>
      <trkpt lat="47.50428" lon="6.81227">
        <ele>327.4</ele>
        <time>2014-09-28T07:49:01.000Z</time>
      </trkpt>
      <trkpt lat="47.50427" lon="6.81235">
        <ele>327.2</ele>
        <time>2014-09-28T07:49:02.000Z</time>
      </trkpt>
      <trkpt lat="47.50425" lon="6.81242">
        <ele>327.1</ele>
        <time>2014-09-28T07:49:03.000Z</time>
      </trkpt>
      <trkpt lat="47.50424" lon="6.81248">
        <ele>326.9</ele>
        <time>2014-09-28T07:49:04.000Z</time>
      </trkpt>
      <trkpt lat="47.5042" lon="6.81257">
        <ele>325.5</ele>
        <time>2014-09-28T07:49:05.000Z</time>
      </trkpt>
      <trkpt lat="47.50417" lon="6.81264">
        <ele>325.1</ele>
        <time>2014-09-28T07:49:06.000Z</time>
      </trkpt>
      <trkpt lat="47.50417" lon="6.81273">
        <ele>325.6</ele>
        <time>2014-09-28T07:49:07.000Z</time>
      </trkpt>
      <trkpt lat="47.50416" lon="6.81282">
        <ele>325.5</ele>
        <time>2014-09-28T07:49:08.000Z</time>
      </trkpt>
      <trkpt lat="47.50416" lon="6.81291">
        <ele>325</ele>
        <time>2014-09-28T07:49:09.000Z</time>
      </trkpt>
      <trkpt lat="47.50415" lon="6.813">
        <ele>324.9</ele>
        <time>2014-09-28T07:49:10.000Z</time>
      </trkpt>
      <trkpt lat="47.50415" lon="6.81309">
        <ele>325.4</ele>
        <time>2014-09-28T07:49:11.000Z</time>
      </trkpt>
      <trkpt lat="47.50415" lon="6.81318">
        <ele>326.3</ele>
        <time>2014-09-28T07:49:12.000Z</time>
      </trkpt>
      <trkpt lat="47.50415" lon="6.81326">
        <ele>326.3</ele>
        <time>2014-09-28T07:49:13.000Z</time>
      </trkpt>
      <trkpt lat="47.50414" lon="6.81335">
        <ele>326.5</ele>
        <time>2014-09-28T07:49:14.000Z</time>
      </trkpt>
      <trkpt lat="47.50414" lon="6.81344">
        <ele>326.8</ele>
        <time>2014-09-28T07:49:15.000Z</time>
      </trkpt>
      <trkpt lat="47.50412" lon="6.81351">
        <ele>324.8</ele>
        <time>2014-09-28T07:49:16.000Z</time>
      </trkpt>
      <trkpt lat="47.50412" lon="6.8136">
        <ele>324.4</ele>
        <time>2014-09-28T07:49:17.000Z</time>
      </trkpt>
      <trkpt lat="47.5041" lon="6.81369">
        <ele>323.9</ele>
        <time>2014-09-28T07:49:18.000Z</time>
      </trkpt>
      <trkpt lat="47.5041" lon="6.81378">
        <ele>324.1</ele>
        <time>2014-09-28T07:49:19.000Z</time>
      </trkpt>
      <trkpt lat="47.50409" lon="6.81387">
        <ele>325.7</ele>
        <time>2014-09-28T07:49:20.000Z</time>
      </trkpt>
      <trkpt lat="47.50408" lon="6.81397">
        <ele>326</ele>
        <time>2014-09-28T07:49:21.000Z</time>
      </trkpt>
      <trkpt lat="47.50409" lon="6.81407">
        <ele>327.3</ele>
        <time>2014-09-28T07:49:22.000Z</time>
      </trkpt>
      <trkpt lat="47.5041" lon="6.81418">
        <ele>327.7</ele>
        <time>2014-09-28T07:49:23.000Z</time>
      </trkpt>
      <trkpt lat="47.50408" lon="6.81426">
        <ele>327.3</ele>
        <time>2014-09-28T07:49:24.000Z</time>
      </trkpt>
      <trkpt lat="47.50407" lon="6.81435">
        <ele>327.2</ele>
        <time>2014-09-28T07:49:24.999Z</time>
      </trkpt>
      <trkpt lat="47.50407" lon="6.81444">
        <ele>326.8</ele>
        <time>2014-09-28T07:49:26.000Z</time>
      </trkpt>
      <trkpt lat="47.50406" lon="6.81466">
        <ele>325.2</ele>
        <time>2014-09-28T07:49:29.000Z</time>
      </trkpt>
      <trkpt lat="47.50405" lon="6.81476">
        <ele>324.9</ele>
        <time>2014-09-28T07:49:30.000Z</time>
      </trkpt>
      <trkpt lat="47.50405" lon="6.81485">
        <ele>324.6</ele>
        <time>2014-09-28T07:49:31.000Z</time>
      </trkpt>
      <trkpt lat="47.50404" lon="6.81494">
        <ele>324.2</ele>
        <time>2014-09-28T07:49:32.000Z</time>
      </trkpt>
      <trkpt lat="47.50404" lon="6.81503">
        <ele>324</ele>
        <time>2014-09-28T07:49:32.999Z</time>
      </trkpt>
      <trkpt lat="47.50403" lon="6.81514">
        <ele>324.4</ele>
        <time>2014-09-28T07:49:33.999Z</time>
      </trkpt>
      <trkpt lat="47.50402" lon="6.81522">
        <ele>324</ele>
        <time>2014-09-28T07:49:35.000Z</time>
      </trkpt>
      <trkpt lat="47.50402" lon="6.81532">
        <ele>324.2</ele>
        <time>2014-09-28T07:49:36.000Z</time>
      </trkpt>
      <trkpt lat="47.50402" lon="6.81541">
        <ele>324.1</ele>
        <time>2014-09-28T07:49:37.000Z</time>
      </trkpt>
      <trkpt lat="47.50403" lon="6.81551">
        <ele>324.6</ele>
        <time>2014-09-28T07:49:38.000Z</time>
      </trkpt>
      <trkpt lat="47.50403" lon="6.81561">
        <ele>325.3</ele>
        <time>2014-09-28T07:49:38.999Z</time>
      </trkpt>
      <trkpt lat="47.50401" lon="6.81569">
        <ele>324.1</ele>
        <time>2014-09-28T07:49:40.000Z</time>
      </trkpt>
      <trkpt lat="47.504" lon="6.81578">
        <ele>323.4</ele>
        <time>2014-09-28T07:49:40.999Z</time>
      </trkpt>
      <trkpt lat="47.50404" lon="6.81589">
        <ele>326.4</ele>
        <time>2014-09-28T07:49:42.000Z</time>
      </trkpt>
      <trkpt lat="47.50402" lon="6.81596">
        <ele>325.6</ele>
        <time>2014-09-28T07:49:43.000Z</time>
      </trkpt>
      <trkpt lat="47.50402" lon="6.81604">
        <ele>325.2</ele>
        <time>2014-09-28T07:49:44.018Z</time>
      </trkpt>
      <trkpt lat="47.50401" lon="6.81614">
        <ele>325.3</ele>
        <time>2014-09-28T07:49:45.000Z</time>
      </trkpt>
      <trkpt lat="47.504" lon="6.81622">
        <ele>325.1</ele>
        <time>2014-09-28T07:49:45.999Z</time>
      </trkpt>
      <trkpt lat="47.50399" lon="6.81631">
        <ele>325.7</ele>
        <time>2014-09-28T07:49:46.954Z</time>
      </trkpt>
      <trkpt lat="47.50398" lon="6.8164">
        <ele>326.1</ele>
        <time>2014-09-28T07:49:48.040Z</time>
      </trkpt>
      <trkpt lat="47.50397" lon="6.8165">
        <ele>325.8</ele>
        <time>2014-09-28T07:49:49.000Z</time>
      </trkpt>
      <trkpt lat="47.50396" lon="6.81658">
        <ele>325.3</ele>
        <time>2014-09-28T07:49:49.999Z</time>
      </trkpt>
      <trkpt lat="47.50395" lon="6.81668">
        <ele>326.1</ele>
        <time>2014-09-28T07:49:51.000Z</time>
      </trkpt>
      <trkpt lat="47.50395" lon="6.81678">
        <ele>326.4</ele>
        <time>2014-09-28T07:49:52.000Z</time>
      </trkpt>
      <trkpt lat="47.50393" lon="6.81686">
        <ele>325.7</ele>
        <time>2014-09-28T07:49:53.000Z</time>
      </trkpt>
      <trkpt lat="47.50392" lon="6.81695">
        <ele>326</ele>
        <time>2014-09-28T07:49:54.000Z</time>
      </trkpt>
      <trkpt lat="47.50391" lon="6.81703">
        <ele>326.3</ele>
        <time>2014-09-28T07:49:55.000Z</time>
      </trkpt>
      <trkpt lat="47.5039" lon="6.81712">
        <ele>326.2</ele>
        <time>2014-09-28T07:49:56.000Z</time>
      </trkpt>
      <trkpt lat="47.5039" lon="6.81722">
        <ele>325.9</ele>
        <time>2014-09-28T07:49:57.000Z</time>
      </trkpt>
      <trkpt lat="47.5039" lon="6.81734">
        <ele>326.9</ele>
        <time>2014-09-28T07:49:58.000Z</time>
      </trkpt>
      <trkpt lat="47.5039" lon="6.81743">
        <ele>326.7</ele>
        <time>2014-09-28T07:49:59.000Z</time>
      </trkpt>
      <trkpt lat="47.50389" lon="6.81752">
        <ele>325.8</ele>
        <time>2014-09-28T07:50:00.000Z</time>
      </trkpt>
      <trkpt lat="47.50387" lon="6.81761">
        <ele>325.8</ele>
        <time>2014-09-28T07:50:01.000Z</time>
      </trkpt>
      <trkpt lat="47.50386" lon="6.81768">
        <ele>325.8</ele>
        <time>2014-09-28T07:50:02.000Z</time>
      </trkpt>
      <trkpt lat="47.50385" lon="6.81777">
        <ele>326.2</ele>
        <time>2014-09-28T07:50:03.000Z</time>
      </trkpt>
      <trkpt lat="47.50385" lon="6.81786">
        <ele>326.3</ele>
        <time>2014-09-28T07:50:04.000Z</time>
      </trkpt>
      <trkpt lat="47.50383" lon="6.81794">
        <ele>326.1</ele>
        <time>2014-09-28T07:50:05.000Z</time>
      </trkpt>
      <trkpt lat="47.50383" lon="6.81802">
        <ele>325.9</ele>
        <time>2014-09-28T07:50:06.000Z</time>
      </trkpt>
      <trkpt lat="47.50382" lon="6.8181">
        <ele>326</ele>
        <time>2014-09-28T07:50:07.000Z</time>
      </trkpt>
      <trkpt lat="47.50381" lon="6.8182">
        <ele>325.5</ele>
        <time>2014-09-28T07:50:08.000Z</time>
      </trkpt>
      <trkpt lat="47.50381" lon="6.81829">
        <ele>325</ele>
        <time>2014-09-28T07:50:09.000Z</time>
      </trkpt>
      <trkpt lat="47.5038" lon="6.81839">
        <ele>324.7</ele>
        <time>2014-09-28T07:50:10.000Z</time>
      </trkpt>
      <trkpt lat="47.5038" lon="6.81849">
        <ele>324.7</ele>
        <time>2014-09-28T07:50:11.000Z</time>
      </trkpt>
      <trkpt lat="47.5038" lon="6.8186">
        <ele>325.4</ele>
        <time>2014-09-28T07:50:12.000Z</time>
      </trkpt>
      <trkpt lat="47.5038" lon="6.8187">
        <ele>325.5</ele>
        <time>2014-09-28T07:50:13.000Z</time>
      </trkpt>
      <trkpt lat="47.50378" lon="6.81878">
        <ele>325.1</ele>
        <time>2014-09-28T07:50:14.000Z</time>
      </trkpt>
      <trkpt lat="47.50377" lon="6.81888">
        <ele>324.9</ele>
        <time>2014-09-28T07:50:15.000Z</time>
      </trkpt>
      <trkpt lat="47.50378" lon="6.81898">
        <ele>325.3</ele>
        <time>2014-09-28T07:50:16.000Z</time>
      </trkpt>
      <trkpt lat="47.50376" lon="6.81907">
        <ele>324.9</ele>
        <time>2014-09-28T07:50:17.000Z</time>
      </trkpt>
      <trkpt lat="47.50374" lon="6.81915">
        <ele>324.4</ele>
        <time>2014-09-28T07:50:18.000Z</time>
      </trkpt>
      <trkpt lat="47.50373" lon="6.81924">
        <ele>324</ele>
        <time>2014-09-28T07:50:19.000Z</time>
      </trkpt>
      <trkpt lat="47.50373" lon="6.81933">
        <ele>324.3</ele>
        <time>2014-09-28T07:50:20.000Z</time>
      </trkpt>
      <trkpt lat="47.50373" lon="6.81943">
        <ele>324.3</ele>
        <time>2014-09-28T07:50:21.000Z</time>
      </trkpt>
      <trkpt lat="47.50372" lon="6.81952">
        <ele>324</ele>
        <time>2014-09-28T07:50:22.000Z</time>
      </trkpt>
      <trkpt lat="47.50371" lon="6.8196">
        <ele>323.5</ele>
        <time>2014-09-28T07:50:23.000Z</time>
      </trkpt>
      <trkpt lat="47.5037" lon="6.81969">
        <ele>323.4</ele>
        <time>2014-09-28T07:50:24.000Z</time>
      </trkpt>
      <trkpt lat="47.5037" lon="6.81979">
        <ele>323.5</ele>
        <time>2014-09-28T07:50:25.000Z</time>
      </trkpt>
      <trkpt lat="47.50369" lon="6.81988">
        <ele>323.3</ele>
        <time>2014-09-28T07:50:26.000Z</time>
      </trkpt>
      <trkpt lat="47.50368" lon="6.82013">
        <ele>322.5</ele>
        <time>2014-09-28T07:50:29.000Z</time>
      </trkpt>
      <trkpt lat="47.50366" lon="6.82023">
        <ele>322.4</ele>
        <time>2014-09-28T07:50:30.000Z</time>
      </trkpt>
      <trkpt lat="47.50366" lon="6.82033">
        <ele>321.9</ele>
        <time>2014-09-28T07:50:31.000Z</time>
      </trkpt>
      <trkpt lat="47.50366" lon="6.82041">
        <ele>322.2</ele>
        <time>2014-09-28T07:50:32.000Z</time>
      </trkpt>
      <trkpt lat="47.50365" lon="6.82051">
        <ele>321.8</ele>
        <time>2014-09-28T07:50:33.000Z</time>
      </trkpt>
      <trkpt lat="47.50365" lon="6.8206">
        <ele>322</ele>
        <time>2014-09-28T07:50:34.000Z</time>
      </trkpt>
      <trkpt lat="47.50363" lon="6.8207">
        <ele>321.9</ele>
        <time>2014-09-28T07:50:35.000Z</time>
      </trkpt>
      <trkpt lat="47.50363" lon="6.82079">
        <ele>321.9</ele>
        <time>2014-09-28T07:50:36.000Z</time>
      </trkpt>
      <trkpt lat="47.50362" lon="6.82089">
        <ele>321.5</ele>
        <time>2014-09-28T07:50:37.000Z</time>
      </trkpt>
      <trkpt lat="47.50361" lon="6.82098">
        <ele>321.8</ele>
        <time>2014-09-28T07:50:38.000Z</time>
      </trkpt>
      <trkpt lat="47.5036" lon="6.82107">
        <ele>321.6</ele>
        <time>2014-09-28T07:50:39.000Z</time>
      </trkpt>
      <trkpt lat="47.50358" lon="6.82115">
        <ele>321.6</ele>
        <time>2014-09-28T07:50:39.999Z</time>
      </trkpt>
      <trkpt lat="47.50359" lon="6.82124">
        <ele>320.8</ele>
        <time>2014-09-28T07:50:41.000Z</time>
      </trkpt>
      <trkpt lat="47.50358" lon="6.82133">
        <ele>320.8</ele>
        <time>2014-09-28T07:50:42.000Z</time>
      </trkpt>
      <trkpt lat="47.50358" lon="6.82142">
        <ele>320.7</ele>
        <time>2014-09-28T07:50:43.000Z</time>
      </trkpt>
      <trkpt lat="47.50356" lon="6.82152">
        <ele>320.8</ele>
        <time>2014-09-28T07:50:44.000Z</time>
      </trkpt>
      <trkpt lat="47.50356" lon="6.82161">
        <ele>319.9</ele>
        <time>2014-09-28T07:50:45.000Z</time>
      </trkpt>
      <trkpt lat="47.50355" lon="6.82171">
        <ele>320.7</ele>
        <time>2014-09-28T07:50:46.000Z</time>
      </trkpt>
      <trkpt lat="47.50354" lon="6.8218">
        <ele>320.7</ele>
        <time>2014-09-28T07:50:47.000Z</time>
      </trkpt>
      <trkpt lat="47.50353" lon="6.8219">
        <ele>320.6</ele>
        <time>2014-09-28T07:50:48.000Z</time>
      </trkpt>
      <trkpt lat="47.50352" lon="6.822">
        <ele>320.9</ele>
        <time>2014-09-28T07:50:49.000Z</time>
      </trkpt>
      <trkpt lat="47.50351" lon="6.8221">
        <ele>320.9</ele>
        <time>2014-09-28T07:50:50.000Z</time>
      </trkpt>
      <trkpt lat="47.5035" lon="6.8222">
        <ele>321.6</ele>
        <time>2014-09-28T07:50:51.000Z</time>
      </trkpt>
      <trkpt lat="47.50348" lon="6.8223">
        <ele>321.8</ele>
        <time>2014-09-28T07:50:52.000Z</time>
      </trkpt>
      <trkpt lat="47.50348" lon="6.82239">
        <ele>321.7</ele>
        <time>2014-09-28T07:50:53.000Z</time>
      </trkpt>
      <trkpt lat="47.50347" lon="6.82248">
        <ele>321.2</ele>
        <time>2014-09-28T07:50:54.000Z</time>
      </trkpt>
      <trkpt lat="47.50346" lon="6.82257">
        <ele>321.2</ele>
        <time>2014-09-28T07:50:55.000Z</time>
      </trkpt>
      <trkpt lat="47.50346" lon="6.82267">
        <ele>321.1</ele>
        <time>2014-09-28T07:50:56.000Z</time>
      </trkpt>
      <trkpt lat="47.50345" lon="6.82276">
        <ele>321.2</ele>
        <time>2014-09-28T07:50:57.000Z</time>
      </trkpt>
      <trkpt lat="47.50344" lon="6.82286">
        <ele>320.8</ele>
        <time>2014-09-28T07:50:58.000Z</time>
      </trkpt>
      <trkpt lat="47.50344" lon="6.82295">
        <ele>320.7</ele>
        <time>2014-09-28T07:50:59.000Z</time>
      </trkpt>
      <trkpt lat="47.50343" lon="6.82305">
        <ele>320.9</ele>
        <time>2014-09-28T07:51:00.000Z</time>
      </trkpt>
      <trkpt lat="47.50342" lon="6.82314">
        <ele>320.4</ele>
        <time>2014-09-28T07:51:01.000Z</time>
      </trkpt>
      <trkpt lat="47.50342" lon="6.82322">
        <ele>320.5</ele>
        <time>2014-09-28T07:51:02.000Z</time>
      </trkpt>
      <trkpt lat="47.50342" lon="6.82332">
        <ele>320.8</ele>
        <time>2014-09-28T07:51:03.000Z</time>
      </trkpt>
      <trkpt lat="47.50341" lon="6.82341">
        <ele>321.4</ele>
        <time>2014-09-28T07:51:04.000Z</time>
      </trkpt>
      <trkpt lat="47.50342" lon="6.82352">
        <ele>322.8</ele>
        <time>2014-09-28T07:51:05.000Z</time>
      </trkpt>
      <trkpt lat="47.50342" lon="6.82361">
        <ele>323.2</ele>
        <time>2014-09-28T07:51:06.000Z</time>
      </trkpt>
      <trkpt lat="47.50343" lon="6.8237">
        <ele>322.6</ele>
        <time>2014-09-28T07:51:07.000Z</time>
      </trkpt>
      <trkpt lat="47.50343" lon="6.82381">
        <ele>322.6</ele>
        <time>2014-09-28T07:51:08.000Z</time>
      </trkpt>
      <trkpt lat="47.50344" lon="6.8239">
        <ele>322.3</ele>
        <time>2014-09-28T07:51:09.000Z</time>
      </trkpt>
      <trkpt lat="47.50346" lon="6.82398">
        <ele>322.6</ele>
        <time>2014-09-28T07:51:10.000Z</time>
      </trkpt>
      <trkpt lat="47.50348" lon="6.82406">
        <ele>323</ele>
        <time>2014-09-28T07:51:11.000Z</time>
      </trkpt>
      <trkpt lat="47.50351" lon="6.82413">
        <ele>323.2</ele>
        <time>2014-09-28T07:51:12.000Z</time>
      </trkpt>
      <trkpt lat="47.50354" lon="6.8242">
        <ele>322.6</ele>
        <time>2014-09-28T07:51:13.000Z</time>
      </trkpt>
      <trkpt lat="47.50356" lon="6.82428">
        <ele>322</ele>
        <time>2014-09-28T07:51:14.000Z</time>
      </trkpt>
      <trkpt lat="47.50359" lon="6.82436">
        <ele>322.7</ele>
        <time>2014-09-28T07:51:15.000Z</time>
      </trkpt>
      <trkpt lat="47.50361" lon="6.82443">
        <ele>323</ele>
        <time>2014-09-28T07:51:16.000Z</time>
      </trkpt>
      <trkpt lat="47.50361" lon="6.82451">
        <ele>322.3</ele>
        <time>2014-09-28T07:51:17.000Z</time>
      </trkpt>
      <trkpt lat="47.50362" lon="6.82456">
        <ele>322.7</ele>
        <time>2014-09-28T07:51:18.000Z</time>
      </trkpt>
      <trkpt lat="47.50364" lon="6.82461">
        <ele>321.9</ele>
        <time>2014-09-28T07:51:19.000Z</time>
      </trkpt>
      <trkpt lat="47.50365" lon="6.82466">
        <ele>322.1</ele>
        <time>2014-09-28T07:51:20.000Z</time>
      </trkpt>
      <trkpt lat="47.50367" lon="6.8247">
        <ele>322.3</ele>
        <time>2014-09-28T07:51:21.000Z</time>
      </trkpt>
      <trkpt lat="47.50368" lon="6.82475">
        <ele>322.4</ele>
        <time>2014-09-28T07:51:22.000Z</time>
      </trkpt>
      <trkpt lat="47.50367" lon="6.8248">
        <ele>322.7</ele>
        <time>2014-09-28T07:51:23.000Z</time>
      </trkpt>
      <trkpt lat="47.50366" lon="6.82486">
        <ele>322.7</ele>
        <time>2014-09-28T07:51:25.000Z</time>
      </trkpt>
      <trkpt lat="47.50366" lon="6.82489">
        <ele>322.6</ele>
        <time>2014-09-28T07:51:26.000Z</time>
      </trkpt>
      <trkpt lat="47.50364" lon="6.825">
        <ele>322.6</ele>
        <time>2014-09-28T07:51:29.000Z</time>
      </trkpt>
      <trkpt lat="47.50361" lon="6.82507">
        <ele>322.2</ele>
        <time>2014-09-28T07:51:30.000Z</time>
      </trkpt>
      <trkpt lat="47.5036" lon="6.82515">
        <ele>321.7</ele>
        <time>2014-09-28T07:51:31.000Z</time>
      </trkpt>
      <trkpt lat="47.5036" lon="6.82524">
        <ele>321.1</ele>
        <time>2014-09-28T07:51:32.000Z</time>
      </trkpt>
      <trkpt lat="47.50361" lon="6.82527">
        <ele>319.9</ele>
        <time>2014-09-28T07:51:33.000Z</time>
      </trkpt>
      <trkpt lat="47.50363" lon="6.82531">
        <ele>320.4</ele>
        <time>2014-09-28T07:51:34.000Z</time>
      </trkpt>
      <trkpt lat="47.5036" lon="6.82536">
        <ele>320.4</ele>
        <time>2014-09-28T07:51:35.000Z</time>
      </trkpt>
      <trkpt lat="47.50359" lon="6.82542">
        <ele>320.5</ele>
        <time>2014-09-28T07:51:36.000Z</time>
      </trkpt>
      <trkpt lat="47.50356" lon="6.82548">
        <ele>320.5</ele>
        <time>2014-09-28T07:51:37.000Z</time>
      </trkpt>
      <trkpt lat="47.50353" lon="6.82554">
        <ele>322</ele>
        <time>2014-09-28T07:51:38.000Z</time>
      </trkpt>
      <trkpt lat="47.5035" lon="6.82559">
        <ele>321.9</ele>
        <time>2014-09-28T07:51:39.000Z</time>
      </trkpt>
      <trkpt lat="47.50349" lon="6.8257">
        <ele>322.3</ele>
        <time>2014-09-28T07:51:40.000Z</time>
      </trkpt>
      <trkpt lat="47.50349" lon="6.82578">
        <ele>321.7</ele>
        <time>2014-09-28T07:51:41.000Z</time>
      </trkpt>
      <trkpt lat="47.50349" lon="6.82586">
        <ele>321.5</ele>
        <time>2014-09-28T07:51:42.000Z</time>
      </trkpt>
      <trkpt lat="47.50349" lon="6.82592">
        <ele>321.6</ele>
        <time>2014-09-28T07:51:42.999Z</time>
      </trkpt>
      <trkpt lat="47.50348" lon="6.82604">
        <ele>321.6</ele>
        <time>2014-09-28T07:51:44.000Z</time>
      </trkpt>
      <trkpt lat="47.50347" lon="6.82614">
        <ele>322.1</ele>
        <time>2014-09-28T07:51:45.000Z</time>
      </trkpt>
      <trkpt lat="47.50348" lon="6.82623">
        <ele>322.2</ele>
        <time>2014-09-28T07:51:46.000Z</time>
      </trkpt>
      <trkpt lat="47.50347" lon="6.82634">
        <ele>323</ele>
        <time>2014-09-28T07:51:47.000Z</time>
      </trkpt>
      <trkpt lat="47.50347" lon="6.82643">
        <ele>324.1</ele>
        <time>2014-09-28T07:51:48.000Z</time>
      </trkpt>
      <trkpt lat="47.50345" lon="6.8265">
        <ele>320.5</ele>
        <time>2014-09-28T07:51:49.000Z</time>
      </trkpt>
      <trkpt lat="47.50346" lon="6.8266">
        <ele>320</ele>
        <time>2014-09-28T07:51:50.000Z</time>
      </trkpt>
      <trkpt lat="47.50347" lon="6.8267">
        <ele>320.1</ele>
        <time>2014-09-28T07:51:51.000Z</time>
      </trkpt>
      <trkpt lat="47.50348" lon="6.82679">
        <ele>319.4</ele>
        <time>2014-09-28T07:51:52.000Z</time>
      </trkpt>
      <trkpt lat="47.50348" lon="6.82689">
        <ele>319.3</ele>
        <time>2014-09-28T07:51:53.000Z</time>
      </trkpt>
      <trkpt lat="47.50349" lon="6.82696">
        <ele>319.3</ele>
        <time>2014-09-28T07:51:54.000Z</time>
      </trkpt>
      <trkpt lat="47.50348" lon="6.82704">
        <ele>319.3</ele>
        <time>2014-09-28T07:51:55.000Z</time>
      </trkpt>
      <trkpt lat="47.50348" lon="6.82711">
        <ele>318.7</ele>
        <time>2014-09-28T07:51:56.000Z</time>
      </trkpt>
      <trkpt lat="47.50348" lon="6.8272">
        <ele>318.2</ele>
        <time>2014-09-28T07:51:57.000Z</time>
      </trkpt>
      <trkpt lat="47.50349" lon="6.82727">
        <ele>318.2</ele>
        <time>2014-09-28T07:51:58.000Z</time>
      </trkpt>
      <trkpt lat="47.5035" lon="6.82736">
        <ele>318.5</ele>
        <time>2014-09-28T07:51:59.000Z</time>
      </trkpt>
      <trkpt lat="47.50349" lon="6.82745">
        <ele>318.9</ele>
        <time>2014-09-28T07:52:00.000Z</time>
      </trkpt>
      <trkpt lat="47.5035" lon="6.82754">
        <ele>318.6</ele>
        <time>2014-09-28T07:52:01.000Z</time>
      </trkpt>
      <trkpt lat="47.50352" lon="6.82761">
        <ele>318</ele>
        <time>2014-09-28T07:52:02.000Z</time>
      </trkpt>
      <trkpt lat="47.50353" lon="6.82771">
        <ele>318.8</ele>
        <time>2014-09-28T07:52:03.000Z</time>
      </trkpt>
      <trkpt lat="47.50354" lon="6.8278">
        <ele>319.2</ele>
        <time>2014-09-28T07:52:04.000Z</time>
      </trkpt>
      <trkpt lat="47.50354" lon="6.82788">
        <ele>318.3</ele>
        <time>2014-09-28T07:52:05.000Z</time>
      </trkpt>
      <trkpt lat="47.50355" lon="6.82794">
        <ele>316.9</ele>
        <time>2014-09-28T07:52:06.000Z</time>
      </trkpt>
      <trkpt lat="47.50356" lon="6.82803">
        <ele>316.8</ele>
        <time>2014-09-28T07:52:07.000Z</time>
      </trkpt>
      <trkpt lat="47.50357" lon="6.8281">
        <ele>315.6</ele>
        <time>2014-09-28T07:52:08.000Z</time>
      </trkpt>
      <trkpt lat="47.50359" lon="6.82819">
        <ele>314.5</ele>
        <time>2014-09-28T07:52:09.000Z</time>
      </trkpt>
      <trkpt lat="47.50362" lon="6.82826">
        <ele>314</ele>
        <time>2014-09-28T07:52:10.000Z</time>
      </trkpt>
      <trkpt lat="47.50364" lon="6.82835">
        <ele>314.3</ele>
        <time>2014-09-28T07:52:11.000Z</time>
      </trkpt>
      <trkpt lat="47.50366" lon="6.82843">
        <ele>314.5</ele>
        <time>2014-09-28T07:52:12.000Z</time>
      </trkpt>
      <trkpt lat="47.50368" lon="6.82854">
        <ele>316.1</ele>
        <time>2014-09-28T07:52:13.000Z</time>
      </trkpt>
      <trkpt lat="47.5037" lon="6.82861">
        <ele>315.4</ele>
        <time>2014-09-28T07:52:14.000Z</time>
      </trkpt>
      <trkpt lat="47.50372" lon="6.82869">
        <ele>314.9</ele>
        <time>2014-09-28T07:52:15.000Z</time>
      </trkpt>
      <trkpt lat="47.50373" lon="6.82876">
        <ele>314.8</ele>
        <time>2014-09-28T07:52:16.000Z</time>
      </trkpt>
      <trkpt lat="47.50374" lon="6.82883">
        <ele>314.2</ele>
        <time>2014-09-28T07:52:16.999Z</time>
      </trkpt>
      <trkpt lat="47.50376" lon="6.82893">
        <ele>313.6</ele>
        <time>2014-09-28T07:52:18.000Z</time>
      </trkpt>
      <trkpt lat="47.50377" lon="6.82901">
        <ele>314.1</ele>
        <time>2014-09-28T07:52:19.000Z</time>
      </trkpt>
      <trkpt lat="47.50378" lon="6.82911">
        <ele>314.9</ele>
        <time>2014-09-28T07:52:20.000Z</time>
      </trkpt>
      <trkpt lat="47.5038" lon="6.82921">
        <ele>316.2</ele>
        <time>2014-09-28T07:52:21.000Z</time>
      </trkpt>
      <trkpt lat="47.5038" lon="6.8293">
        <ele>315</ele>
        <time>2014-09-28T07:52:22.000Z</time>
      </trkpt>
      <trkpt lat="47.50382" lon="6.82938">
        <ele>314.3</ele>
        <time>2014-09-28T07:52:23.000Z</time>
      </trkpt>
      <trkpt lat="47.50382" lon="6.82947">
        <ele>314.2</ele>
        <time>2014-09-28T07:52:24.000Z</time>
      </trkpt>
      <trkpt lat="47.50384" lon="6.82956">
        <ele>314.5</ele>
        <time>2014-09-28T07:52:25.000Z</time>
      </trkpt>
      <trkpt lat="47.50386" lon="6.82964">
        <ele>313.8</ele>
        <time>2014-09-28T07:52:26.000Z</time>
      </trkpt>
      <trkpt lat="47.50387" lon="6.82972">
        <ele>313.3</ele>
        <time>2014-09-28T07:52:27.000Z</time>
      </trkpt>
      <trkpt lat="47.50398" lon="6.8304">
        <ele>315.9</ele>
        <time>2014-09-28T07:52:35.000Z</time>
      </trkpt>
      <trkpt lat="47.504" lon="6.83048">
        <ele>316</ele>
        <time>2014-09-28T07:52:36.000Z</time>
      </trkpt>
      <trkpt lat="47.504" lon="6.83056">
        <ele>315.8</ele>
        <time>2014-09-28T07:52:37.001Z</time>
      </trkpt>
      <trkpt lat="47.504" lon="6.83066">
        <ele>315.8</ele>
        <time>2014-09-28T07:52:38.000Z</time>
      </trkpt>
      <trkpt lat="47.50401" lon="6.83075">
        <ele>315.9</ele>
        <time>2014-09-28T07:52:39.000Z</time>
      </trkpt>
      <trkpt lat="47.50403" lon="6.83089">
        <ele>319.7</ele>
        <time>2014-09-28T07:52:40.000Z</time>
      </trkpt>
      <trkpt lat="47.50402" lon="6.831">
        <ele>320.7</ele>
        <time>2014-09-28T07:52:41.000Z</time>
      </trkpt>
      <trkpt lat="47.50403" lon="6.83111">
        <ele>322</ele>
        <time>2014-09-28T07:52:42.000Z</time>
      </trkpt>
      <trkpt lat="47.50404" lon="6.83121">
        <ele>321.8</ele>
        <time>2014-09-28T07:52:43.000Z</time>
      </trkpt>
      <trkpt lat="47.50405" lon="6.83132">
        <ele>322.6</ele>
        <time>2014-09-28T07:52:44.000Z</time>
      </trkpt>
      <trkpt lat="47.50409" lon="6.83142">
        <ele>323.3</ele>
        <time>2014-09-28T07:52:45.000Z</time>
      </trkpt>
      <trkpt lat="47.50412" lon="6.8315">
        <ele>325.2</ele>
        <time>2014-09-28T07:52:46.000Z</time>
      </trkpt>
      <trkpt lat="47.50413" lon="6.8316">
        <ele>325.7</ele>
        <time>2014-09-28T07:52:47.000Z</time>
      </trkpt>
      <trkpt lat="47.50413" lon="6.83167">
        <ele>324</ele>
        <time>2014-09-28T07:52:48.000Z</time>
      </trkpt>
      <trkpt lat="47.50414" lon="6.83174">
        <ele>323.3</ele>
        <time>2014-09-28T07:52:49.000Z</time>
      </trkpt>
      <trkpt lat="47.50415" lon="6.8318">
        <ele>323.1</ele>
        <time>2014-09-28T07:52:50.000Z</time>
      </trkpt>
      <trkpt lat="47.50419" lon="6.83184">
        <ele>323.1</ele>
        <time>2014-09-28T07:52:51.000Z</time>
      </trkpt>
      <trkpt lat="47.50422" lon="6.8319">
        <ele>322.2</ele>
        <time>2014-09-28T07:52:52.000Z</time>
      </trkpt>
      <trkpt lat="47.50424" lon="6.83199">
        <ele>321.9</ele>
        <time>2014-09-28T07:52:53.000Z</time>
      </trkpt>
      <trkpt lat="47.50427" lon="6.83208">
        <ele>318.8</ele>
        <time>2014-09-28T07:52:54.000Z</time>
      </trkpt>
      <trkpt lat="47.50429" lon="6.83213">
        <ele>316.4</ele>
        <time>2014-09-28T07:52:55.000Z</time>
      </trkpt>
      <trkpt lat="47.50432" lon="6.83219">
        <ele>316.7</ele>
        <time>2014-09-28T07:52:56.000Z</time>
      </trkpt>
      <trkpt lat="47.50434" lon="6.83228">
        <ele>317.1</ele>
        <time>2014-09-28T07:52:57.000Z</time>
      </trkpt>
      <trkpt lat="47.50436" lon="6.83238">
        <ele>316.7</ele>
        <time>2014-09-28T07:52:58.000Z</time>
      </trkpt>
      <trkpt lat="47.50439" lon="6.83246">
        <ele>316.8</ele>
        <time>2014-09-28T07:52:59.000Z</time>
      </trkpt>
      <trkpt lat="47.50441" lon="6.83254">
        <ele>316.3</ele>
        <time>2014-09-28T07:53:00.000Z</time>
      </trkpt>
      <trkpt lat="47.50445" lon="6.83263">
        <ele>315.5</ele>
        <time>2014-09-28T07:53:01.000Z</time>
      </trkpt>
      <trkpt lat="47.50448" lon="6.83271">
        <ele>315.1</ele>
        <time>2014-09-28T07:53:01.999Z</time>
      </trkpt>
      <trkpt lat="47.50452" lon="6.83278">
        <ele>314.5</ele>
        <time>2014-09-28T07:53:03.000Z</time>
      </trkpt>
      <trkpt lat="47.50455" lon="6.83286">
        <ele>314</ele>
        <time>2014-09-28T07:53:04.000Z</time>
      </trkpt>
      <trkpt lat="47.50459" lon="6.83293">
        <ele>313.8</ele>
        <time>2014-09-28T07:53:05.000Z</time>
      </trkpt>
      <trkpt lat="47.50465" lon="6.83298">
        <ele>314.2</ele>
        <time>2014-09-28T07:53:06.000Z</time>
      </trkpt>
      <trkpt lat="47.50469" lon="6.83301">
        <ele>313.9</ele>
        <time>2014-09-28T07:53:07.000Z</time>
      </trkpt>
      <trkpt lat="47.50471" lon="6.83306">
        <ele>313.4</ele>
        <time>2014-09-28T07:53:08.000Z</time>
      </trkpt>
      <trkpt lat="47.50474" lon="6.83311">
        <ele>313.3</ele>
        <time>2014-09-28T07:53:09.001Z</time>
      </trkpt>
      <trkpt lat="47.5047" lon="6.83321">
        <ele>313.1</ele>
        <time>2014-09-28T07:53:10.000Z</time>
      </trkpt>
      <trkpt lat="47.50467" lon="6.83329">
        <ele>313.5</ele>
        <time>2014-09-28T07:53:11.000Z</time>
      </trkpt>
      <trkpt lat="47.50466" lon="6.83338">
        <ele>313.7</ele>
        <time>2014-09-28T07:53:12.000Z</time>
      </trkpt>
      <trkpt lat="47.50464" lon="6.83345">
        <ele>313.9</ele>
        <time>2014-09-28T07:53:13.000Z</time>
      </trkpt>
      <trkpt lat="47.50463" lon="6.83353">
        <ele>315.7</ele>
        <time>2014-09-28T07:53:14.000Z</time>
      </trkpt>
      <trkpt lat="47.50462" lon="6.83359">
        <ele>316.2</ele>
        <time>2014-09-28T07:53:15.000Z</time>
      </trkpt>
      <trkpt lat="47.50461" lon="6.83365">
        <ele>316.5</ele>
        <time>2014-09-28T07:53:16.000Z</time>
      </trkpt>
      <trkpt lat="47.50461" lon="6.83373">
        <ele>317.1</ele>
        <time>2014-09-28T07:53:17.000Z</time>
      </trkpt>
      <trkpt lat="47.5046" lon="6.83381">
        <ele>317.1</ele>
        <time>2014-09-28T07:53:18.000Z</time>
      </trkpt>
      <trkpt lat="47.5046" lon="6.83388">
        <ele>317.3</ele>
        <time>2014-09-28T07:53:19.000Z</time>
      </trkpt>
      <trkpt lat="47.50462" lon="6.83396">
        <ele>316.8</ele>
        <time>2014-09-28T07:53:20.000Z</time>
      </trkpt>
      <trkpt lat="47.50463" lon="6.83403">
        <ele>317</ele>
        <time>2014-09-28T07:53:21.000Z</time>
      </trkpt>
      <trkpt lat="47.50464" lon="6.8341">
        <ele>317.4</ele>
        <time>2014-09-28T07:53:22.000Z</time>
      </trkpt>
      <trkpt lat="47.50466" lon="6.83418">
        <ele>316.8</ele>
        <time>2014-09-28T07:53:23.000Z</time>
      </trkpt>
      <trkpt lat="47.50467" lon="6.83427">
        <ele>317.7</ele>
        <time>2014-09-28T07:53:24.000Z</time>
      </trkpt>
      <trkpt lat="47.50469" lon="6.83434">
        <ele>317.7</ele>
        <time>2014-09-28T07:53:25.000Z</time>
      </trkpt>
      <trkpt lat="47.5047" lon="6.83442">
        <ele>317.9</ele>
        <time>2014-09-28T07:53:26.000Z</time>
      </trkpt>
      <trkpt lat="47.50474" lon="6.8346">
        <ele>317.6</ele>
        <time>2014-09-28T07:53:29.000Z</time>
      </trkpt>
      <trkpt lat="47.50478" lon="6.8347">
        <ele>318.5</ele>
        <time>2014-09-28T07:53:30.000Z</time>
      </trkpt>
      <trkpt lat="47.5048" lon="6.8348">
        <ele>319.4</ele>
        <time>2014-09-28T07:53:31.000Z</time>
      </trkpt>
      <trkpt lat="47.50482" lon="6.83489">
        <ele>319.8</ele>
        <time>2014-09-28T07:53:32.000Z</time>
      </trkpt>
      <trkpt lat="47.50484" lon="6.83498">
        <ele>319.8</ele>
        <time>2014-09-28T07:53:33.000Z</time>
      </trkpt>
      <trkpt lat="47.50487" lon="6.83505">
        <ele>318.9</ele>
        <time>2014-09-28T07:53:34.000Z</time>
      </trkpt>
      <trkpt lat="47.50489" lon="6.83515">
        <ele>319.6</ele>
        <time>2014-09-28T07:53:35.000Z</time>
      </trkpt>
      <trkpt lat="47.50492" lon="6.83523">
        <ele>320</ele>
        <time>2014-09-28T07:53:36.000Z</time>
      </trkpt>
      <trkpt lat="47.50494" lon="6.83533">
        <ele>320.5</ele>
        <time>2014-09-28T07:53:37.000Z</time>
      </trkpt>
      <trkpt lat="47.50496" lon="6.83541">
        <ele>320.6</ele>
        <time>2014-09-28T07:53:38.000Z</time>
      </trkpt>
      <trkpt lat="47.50499" lon="6.83549">
        <ele>320.7</ele>
        <time>2014-09-28T07:53:39.000Z</time>
      </trkpt>
      <trkpt lat="47.50501" lon="6.83557">
        <ele>321.1</ele>
        <time>2014-09-28T07:53:40.000Z</time>
      </trkpt>
      <trkpt lat="47.50503" lon="6.83565">
        <ele>321.7</ele>
        <time>2014-09-28T07:53:41.000Z</time>
      </trkpt>
      <trkpt lat="47.50506" lon="6.83572">
        <ele>321.4</ele>
        <time>2014-09-28T07:53:42.000Z</time>
      </trkpt>
      <trkpt lat="47.5051" lon="6.83582">
        <ele>321</ele>
        <time>2014-09-28T07:53:43.000Z</time>
      </trkpt>
      <trkpt lat="47.50513" lon="6.8359">
        <ele>321.2</ele>
        <time>2014-09-28T07:53:44.000Z</time>
      </trkpt>
      <trkpt lat="47.50516" lon="6.83599">
        <ele>321.5</ele>
        <time>2014-09-28T07:53:45.000Z</time>
      </trkpt>
      <trkpt lat="47.50519" lon="6.83608">
        <ele>321.7</ele>
        <time>2014-09-28T07:53:46.000Z</time>
      </trkpt>
      <trkpt lat="47.50522" lon="6.83616">
        <ele>322.4</ele>
        <time>2014-09-28T07:53:47.000Z</time>
      </trkpt>
      <trkpt lat="47.50524" lon="6.83621">
        <ele>321.8</ele>
        <time>2014-09-28T07:53:48.000Z</time>
      </trkpt>
      <trkpt lat="47.50525" lon="6.83628">
        <ele>321.7</ele>
        <time>2014-09-28T07:53:49.000Z</time>
      </trkpt>
      <trkpt lat="47.50527" lon="6.83636">
        <ele>321.7</ele>
        <time>2014-09-28T07:53:50.000Z</time>
      </trkpt>
      <trkpt lat="47.5053" lon="6.83642">
        <ele>321.8</ele>
        <time>2014-09-28T07:53:51.000Z</time>
      </trkpt>
      <trkpt lat="47.50533" lon="6.83651">
        <ele>322.3</ele>
        <time>2014-09-28T07:53:52.000Z</time>
      </trkpt>
      <trkpt lat="47.50535" lon="6.83659">
        <ele>322.5</ele>
        <time>2014-09-28T07:53:53.000Z</time>
      </trkpt>
      <trkpt lat="47.50538" lon="6.83667">
        <ele>322.4</ele>
        <time>2014-09-28T07:53:54.000Z</time>
      </trkpt>
      <trkpt lat="47.50541" lon="6.83674">
        <ele>322.5</ele>
        <time>2014-09-28T07:53:55.000Z</time>
      </trkpt>
      <trkpt lat="47.50544" lon="6.83683">
        <ele>323.4</ele>
        <time>2014-09-28T07:53:56.000Z</time>
      </trkpt>
      <trkpt lat="47.50547" lon="6.83692">
        <ele>323.8</ele>
        <time>2014-09-28T07:53:57.000Z</time>
      </trkpt>
      <trkpt lat="47.50549" lon="6.83702">
        <ele>323.6</ele>
        <time>2014-09-28T07:53:58.000Z</time>
      </trkpt>
      <trkpt lat="47.50552" lon="6.83711">
        <ele>323.5</ele>
        <time>2014-09-28T07:53:59.000Z</time>
      </trkpt>
      <trkpt lat="47.50553" lon="6.83719">
        <ele>322.7</ele>
        <time>2014-09-28T07:54:00.000Z</time>
      </trkpt>
      <trkpt lat="47.50555" lon="6.83728">
        <ele>322.7</ele>
        <time>2014-09-28T07:54:01.000Z</time>
      </trkpt>
      <trkpt lat="47.50557" lon="6.83736">
        <ele>322.3</ele>
        <time>2014-09-28T07:54:02.000Z</time>
      </trkpt>
      <trkpt lat="47.50559" lon="6.83744">
        <ele>322</ele>
        <time>2014-09-28T07:54:03.000Z</time>
      </trkpt>
      <trkpt lat="47.50561" lon="6.83753">
        <ele>322.5</ele>
        <time>2014-09-28T07:54:04.000Z</time>
      </trkpt>
      <trkpt lat="47.50562" lon="6.83762">
        <ele>322.1</ele>
        <time>2014-09-28T07:54:05.000Z</time>
      </trkpt>
      <trkpt lat="47.50563" lon="6.83771">
        <ele>321.9</ele>
        <time>2014-09-28T07:54:06.000Z</time>
      </trkpt>
      <trkpt lat="47.50565" lon="6.83779">
        <ele>321.7</ele>
        <time>2014-09-28T07:54:07.000Z</time>
      </trkpt>
      <trkpt lat="47.50566" lon="6.83787">
        <ele>321.5</ele>
        <time>2014-09-28T07:54:08.000Z</time>
      </trkpt>
      <trkpt lat="47.50568" lon="6.83796">
        <ele>321.8</ele>
        <time>2014-09-28T07:54:09.000Z</time>
      </trkpt>
      <trkpt lat="47.5057" lon="6.83805">
        <ele>322.3</ele>
        <time>2014-09-28T07:54:10.000Z</time>
      </trkpt>
      <trkpt lat="47.50572" lon="6.83814">
        <ele>323.2</ele>
        <time>2014-09-28T07:54:11.000Z</time>
      </trkpt>
      <trkpt lat="47.50574" lon="6.83823">
        <ele>323.6</ele>
        <time>2014-09-28T07:54:12.000Z</time>
      </trkpt>
      <trkpt lat="47.50577" lon="6.83832">
        <ele>323.6</ele>
        <time>2014-09-28T07:54:13.000Z</time>
      </trkpt>
      <trkpt lat="47.50579" lon="6.83842">
        <ele>325</ele>
        <time>2014-09-28T07:54:14.000Z</time>
      </trkpt>
      <trkpt lat="47.50581" lon="6.8385">
        <ele>324.7</ele>
        <time>2014-09-28T07:54:15.000Z</time>
      </trkpt>
      <trkpt lat="47.50583" lon="6.83858">
        <ele>324.5</ele>
        <time>2014-09-28T07:54:16.000Z</time>
      </trkpt>
      <trkpt lat="47.50586" lon="6.83867">
        <ele>324.5</ele>
        <time>2014-09-28T07:54:17.000Z</time>
      </trkpt>
      <trkpt lat="47.50588" lon="6.83875">
        <ele>324</ele>
        <time>2014-09-28T07:54:18.000Z</time>
      </trkpt>
      <trkpt lat="47.5059" lon="6.83884">
        <ele>325</ele>
        <time>2014-09-28T07:54:19.000Z</time>
      </trkpt>
      <trkpt lat="47.50592" lon="6.83893">
        <ele>325.7</ele>
        <time>2014-09-28T07:54:20.000Z</time>
      </trkpt>
      <trkpt lat="47.50594" lon="6.839">
        <ele>326.4</ele>
        <time>2014-09-28T07:54:21.000Z</time>
      </trkpt>
      <trkpt lat="47.50596" lon="6.83908">
        <ele>326.4</ele>
        <time>2014-09-28T07:54:22.000Z</time>
      </trkpt>
      <trkpt lat="47.50598" lon="6.83916">
        <ele>325.7</ele>
        <time>2014-09-28T07:54:23.000Z</time>
      </trkpt>
      <trkpt lat="47.506" lon="6.83922">
        <ele>325.8</ele>
        <time>2014-09-28T07:54:24.000Z</time>
      </trkpt>
      <trkpt lat="47.50602" lon="6.83929">
        <ele>325.6</ele>
        <time>2014-09-28T07:54:25.000Z</time>
      </trkpt>
      <trkpt lat="47.50605" lon="6.83936">
        <ele>325.5</ele>
        <time>2014-09-28T07:54:26.000Z</time>
      </trkpt>
      <trkpt lat="47.50611" lon="6.83957">
        <ele>324.2</ele>
        <time>2014-09-28T07:54:29.000Z</time>
      </trkpt>
      <trkpt lat="47.50613" lon="6.83968">
        <ele>324.3</ele>
        <time>2014-09-28T07:54:30.000Z</time>
      </trkpt>
      <trkpt lat="47.50616" lon="6.83978">
        <ele>324.1</ele>
        <time>2014-09-28T07:54:31.000Z</time>
      </trkpt>
      <trkpt lat="47.50617" lon="6.83987">
        <ele>323.7</ele>
        <time>2014-09-28T07:54:32.000Z</time>
      </trkpt>
      <trkpt lat="47.5062" lon="6.83997">
        <ele>323.9</ele>
        <time>2014-09-28T07:54:33.000Z</time>
      </trkpt>
      <trkpt lat="47.50622" lon="6.84005">
        <ele>323.6</ele>
        <time>2014-09-28T07:54:34.000Z</time>
      </trkpt>
      <trkpt lat="47.50624" lon="6.84013">
        <ele>324</ele>
        <time>2014-09-28T07:54:35.000Z</time>
      </trkpt>
      <trkpt lat="47.50627" lon="6.84022">
        <ele>324.5</ele>
        <time>2014-09-28T07:54:36.000Z</time>
      </trkpt>
      <trkpt lat="47.50629" lon="6.8403">
        <ele>323.9</ele>
        <time>2014-09-28T07:54:37.000Z</time>
      </trkpt>
      <trkpt lat="47.50631" lon="6.84039">
        <ele>324.8</ele>
        <time>2014-09-28T07:54:38.000Z</time>
      </trkpt>
      <trkpt lat="47.50633" lon="6.84049">
        <ele>324.6</ele>
        <time>2014-09-28T07:54:39.000Z</time>
      </trkpt>
      <trkpt lat="47.50635" lon="6.84057">
        <ele>324.3</ele>
        <time>2014-09-28T07:54:39.982Z</time>
      </trkpt>
      <trkpt lat="47.50639" lon="6.84068">
        <ele>326.4</ele>
        <time>2014-09-28T07:54:41.000Z</time>
      </trkpt>
      <trkpt lat="47.50641" lon="6.84076">
        <ele>327</ele>
        <time>2014-09-28T07:54:41.998Z</time>
      </trkpt>
      <trkpt lat="47.50644" lon="6.84086">
        <ele>327.8</ele>
        <time>2014-09-28T07:54:43.000Z</time>
      </trkpt>
      <trkpt lat="47.50647" lon="6.84094">
        <ele>328.2</ele>
        <time>2014-09-28T07:54:44.000Z</time>
      </trkpt>
      <trkpt lat="47.50649" lon="6.84101">
        <ele>328.2</ele>
        <time>2014-09-28T07:54:45.000Z</time>
      </trkpt>
      <trkpt lat="47.50649" lon="6.84107">
        <ele>326.9</ele>
        <time>2014-09-28T07:54:46.000Z</time>
      </trkpt>
      <trkpt lat="47.5065" lon="6.84115">
        <ele>326.6</ele>
        <time>2014-09-28T07:54:47.000Z</time>
      </trkpt>
      <trkpt lat="47.50653" lon="6.84122">
        <ele>327.1</ele>
        <time>2014-09-28T07:54:48.000Z</time>
      </trkpt>
      <trkpt lat="47.50657" lon="6.84129">
        <ele>327.6</ele>
        <time>2014-09-28T07:54:48.998Z</time>
      </trkpt>
      <trkpt lat="47.50662" lon="6.84131">
        <ele>326.5</ele>
        <time>2014-09-28T07:54:50.000Z</time>
      </trkpt>
      <trkpt lat="47.50667" lon="6.84134">
        <ele>324.6</ele>
        <time>2014-09-28T07:54:51.000Z</time>
      </trkpt>
      <trkpt lat="47.50673" lon="6.84137">
        <ele>324.3</ele>
        <time>2014-09-28T07:54:52.000Z</time>
      </trkpt>
      <trkpt lat="47.50679" lon="6.84144">
        <ele>325.3</ele>
        <time>2014-09-28T07:54:53.000Z</time>
      </trkpt>
      <trkpt lat="47.50685" lon="6.8415">
        <ele>325.8</ele>
        <time>2014-09-28T07:54:53.998Z</time>
      </trkpt>
      <trkpt lat="47.50689" lon="6.84158">
        <ele>326.6</ele>
        <time>2014-09-28T07:54:55.000Z</time>
      </trkpt>
      <trkpt lat="47.50694" lon="6.84165">
        <ele>326.7</ele>
        <time>2014-09-28T07:54:56.000Z</time>
      </trkpt>
      <trkpt lat="47.50692" lon="6.84178">
        <ele>327.6</ele>
        <time>2014-09-28T07:54:57.000Z</time>
      </trkpt>
      <trkpt lat="47.50691" lon="6.84188">
        <ele>327.7</ele>
        <time>2014-09-28T07:54:58.000Z</time>
      </trkpt>
      <trkpt lat="47.50688" lon="6.84195">
        <ele>327.3</ele>
        <time>2014-09-28T07:54:59.000Z</time>
      </trkpt>
      <trkpt lat="47.50687" lon="6.84203">
        <ele>327.3</ele>
        <time>2014-09-28T07:55:00.000Z</time>
      </trkpt>
      <trkpt lat="47.50685" lon="6.8421">
        <ele>326.9</ele>
        <time>2014-09-28T07:55:01.000Z</time>
      </trkpt>
      <trkpt lat="47.50687" lon="6.84216">
        <ele>327.3</ele>
        <time>2014-09-28T07:55:02.000Z</time>
      </trkpt>
      <trkpt lat="47.5069" lon="6.84223">
        <ele>327.7</ele>
        <time>2014-09-28T07:55:03.000Z</time>
      </trkpt>
      <trkpt lat="47.50692" lon="6.8423">
        <ele>327.5</ele>
        <time>2014-09-28T07:55:04.000Z</time>
      </trkpt>
      <trkpt lat="47.50695" lon="6.84236">
        <ele>327.6</ele>
        <time>2014-09-28T07:55:04.999Z</time>
      </trkpt>
      <trkpt lat="47.50698" lon="6.84244">
        <ele>327.6</ele>
        <time>2014-09-28T07:55:06.000Z</time>
      </trkpt>
      <trkpt lat="47.50701" lon="6.8425">
        <ele>327.3</ele>
        <time>2014-09-28T07:55:06.999Z</time>
      </trkpt>
      <trkpt lat="47.50704" lon="6.84261">
        <ele>329</ele>
        <time>2014-09-28T07:55:08.000Z</time>
      </trkpt>
      <trkpt lat="47.50707" lon="6.8427">
        <ele>329.2</ele>
        <time>2014-09-28T07:55:09.000Z</time>
      </trkpt>
      <trkpt lat="47.5071" lon="6.84278">
        <ele>329</ele>
        <time>2014-09-28T07:55:10.000Z</time>
      </trkpt>
      <trkpt lat="47.50714" lon="6.84286">
        <ele>329</ele>
        <time>2014-09-28T07:55:11.000Z</time>
      </trkpt>
      <trkpt lat="47.50717" lon="6.84293">
        <ele>328.8</ele>
        <time>2014-09-28T07:55:11.999Z</time>
      </trkpt>
      <trkpt lat="47.50721" lon="6.84301">
        <ele>328.7</ele>
        <time>2014-09-28T07:55:13.000Z</time>
      </trkpt>
      <trkpt lat="47.50724" lon="6.84309">
        <ele>328.8</ele>
        <time>2014-09-28T07:55:13.998Z</time>
      </trkpt>
      <trkpt lat="47.50727" lon="6.84317">
        <ele>329</ele>
        <time>2014-09-28T07:55:15.000Z</time>
      </trkpt>
      <trkpt lat="47.5073" lon="6.84324">
        <ele>329</ele>
        <time>2014-09-28T07:55:16.000Z</time>
      </trkpt>
      <trkpt lat="47.50734" lon="6.84332">
        <ele>328.6</ele>
        <time>2014-09-28T07:55:17.000Z</time>
      </trkpt>
      <trkpt lat="47.50738" lon="6.84343">
        <ele>330.4</ele>
        <time>2014-09-28T07:55:18.000Z</time>
      </trkpt>
      <trkpt lat="47.50741" lon="6.84353">
        <ele>331.6</ele>
        <time>2014-09-28T07:55:18.998Z</time>
      </trkpt>
      <trkpt lat="47.50746" lon="6.84359">
        <ele>330.7</ele>
        <time>2014-09-28T07:55:20.000Z</time>
      </trkpt>
      <trkpt lat="47.5075" lon="6.84367">
        <ele>331</ele>
        <time>2014-09-28T07:55:20.998Z</time>
      </trkpt>
      <trkpt lat="47.50753" lon="6.84376">
        <ele>330.4</ele>
        <time>2014-09-28T07:55:22.000Z</time>
      </trkpt>
      <trkpt lat="47.50756" lon="6.84385">
        <ele>330.7</ele>
        <time>2014-09-28T07:55:22.998Z</time>
      </trkpt>
      <trkpt lat="47.5076" lon="6.84392">
        <ele>330.5</ele>
        <time>2014-09-28T07:55:24.000Z</time>
      </trkpt>
      <trkpt lat="47.50764" lon="6.844">
        <ele>330.7</ele>
        <time>2014-09-28T07:55:25.000Z</time>
      </trkpt>
      <trkpt lat="47.50767" lon="6.84408">
        <ele>330.5</ele>
        <time>2014-09-28T07:55:26.000Z</time>
      </trkpt>
      <trkpt lat="47.50774" lon="6.84427">
        <ele>328.8</ele>
        <time>2014-09-28T07:55:29.000Z</time>
      </trkpt>
      <trkpt lat="47.50779" lon="6.84436">
        <ele>328.9</ele>
        <time>2014-09-28T07:55:30.000Z</time>
      </trkpt>
      <trkpt lat="47.50782" lon="6.84444">
        <ele>329.4</ele>
        <time>2014-09-28T07:55:31.000Z</time>
      </trkpt>
      <trkpt lat="47.50786" lon="6.84451">
        <ele>329.3</ele>
        <time>2014-09-28T07:55:32.000Z</time>
      </trkpt>
      <trkpt lat="47.5079" lon="6.84459">
        <ele>329.6</ele>
        <time>2014-09-28T07:55:33.000Z</time>
      </trkpt>
      <trkpt lat="47.50793" lon="6.84466">
        <ele>329.9</ele>
        <time>2014-09-28T07:55:34.000Z</time>
      </trkpt>
      <trkpt lat="47.50797" lon="6.84474">
        <ele>329.9</ele>
        <time>2014-09-28T07:55:35.000Z</time>
      </trkpt>
      <trkpt lat="47.50801" lon="6.84481">
        <ele>329.5</ele>
        <time>2014-09-28T07:55:36.000Z</time>
      </trkpt>
      <trkpt lat="47.50804" lon="6.84488">
        <ele>328.5</ele>
        <time>2014-09-28T07:55:37.000Z</time>
      </trkpt>
      <trkpt lat="47.50808" lon="6.84496">
        <ele>328.5</ele>
        <time>2014-09-28T07:55:38.000Z</time>
      </trkpt>
      <trkpt lat="47.50812" lon="6.84502">
        <ele>328.8</ele>
        <time>2014-09-28T07:55:39.000Z</time>
      </trkpt>
      <trkpt lat="47.50816" lon="6.8451">
        <ele>328.7</ele>
        <time>2014-09-28T07:55:40.000Z</time>
      </trkpt>
      <trkpt lat="47.5082" lon="6.84517">
        <ele>329</ele>
        <time>2014-09-28T07:55:41.000Z</time>
      </trkpt>
      <trkpt lat="47.50823" lon="6.84525">
        <ele>328.8</ele>
        <time>2014-09-28T07:55:42.000Z</time>
      </trkpt>
      <trkpt lat="47.50827" lon="6.84532">
        <ele>328.9</ele>
        <time>2014-09-28T07:55:43.000Z</time>
      </trkpt>
      <trkpt lat="47.50831" lon="6.84539">
        <ele>328.6</ele>
        <time>2014-09-28T07:55:44.000Z</time>
      </trkpt>
      <trkpt lat="47.50835" lon="6.84546">
        <ele>328.6</ele>
        <time>2014-09-28T07:55:45.000Z</time>
      </trkpt>
      <trkpt lat="47.50839" lon="6.84552">
        <ele>328.7</ele>
        <time>2014-09-28T07:55:46.000Z</time>
      </trkpt>
      <trkpt lat="47.50844" lon="6.84559">
        <ele>329</ele>
        <time>2014-09-28T07:55:47.000Z</time>
      </trkpt>
      <trkpt lat="47.50847" lon="6.84565">
        <ele>328.2</ele>
        <time>2014-09-28T07:55:48.000Z</time>
      </trkpt>
      <trkpt lat="47.50851" lon="6.84573">
        <ele>328.7</ele>
        <time>2014-09-28T07:55:49.000Z</time>
      </trkpt>
      <trkpt lat="47.50856" lon="6.8458">
        <ele>328.7</ele>
        <time>2014-09-28T07:55:50.000Z</time>
      </trkpt>
      <trkpt lat="47.5086" lon="6.84586">
        <ele>329.7</ele>
        <time>2014-09-28T07:55:51.000Z</time>
      </trkpt>
      <trkpt lat="47.50865" lon="6.84594">
        <ele>329.5</ele>
        <time>2014-09-28T07:55:52.000Z</time>
      </trkpt>
      <trkpt lat="47.5087" lon="6.846">
        <ele>329.4</ele>
        <time>2014-09-28T07:55:53.000Z</time>
      </trkpt>
      <trkpt lat="47.50874" lon="6.84608">
        <ele>328.3</ele>
        <time>2014-09-28T07:55:54.000Z</time>
      </trkpt>
      <trkpt lat="47.50878" lon="6.84615">
        <ele>328.3</ele>
        <time>2014-09-28T07:55:55.000Z</time>
      </trkpt>
      <trkpt lat="47.50882" lon="6.84622">
        <ele>328.4</ele>
        <time>2014-09-28T07:55:56.000Z</time>
      </trkpt>
      <trkpt lat="47.50886" lon="6.8463">
        <ele>328.6</ele>
        <time>2014-09-28T07:55:57.000Z</time>
      </trkpt>
      <trkpt lat="47.5089" lon="6.84639">
        <ele>328.3</ele>
        <time>2014-09-28T07:55:58.000Z</time>
      </trkpt>
      <trkpt lat="47.50894" lon="6.84647">
        <ele>328.2</ele>
        <time>2014-09-28T07:55:59.000Z</time>
      </trkpt>
      <trkpt lat="47.50898" lon="6.84654">
        <ele>328.2</ele>
        <time>2014-09-28T07:56:00.000Z</time>
      </trkpt>
      <trkpt lat="47.50899" lon="6.8466">
        <ele>326.4</ele>
        <time>2014-09-28T07:56:01.000Z</time>
      </trkpt>
      <trkpt lat="47.50902" lon="6.84668">
        <ele>326.1</ele>
        <time>2014-09-28T07:56:02.000Z</time>
      </trkpt>
      <trkpt lat="47.50905" lon="6.84676">
        <ele>326.2</ele>
        <time>2014-09-28T07:56:03.000Z</time>
      </trkpt>
      <trkpt lat="47.50908" lon="6.84684">
        <ele>326.6</ele>
        <time>2014-09-28T07:56:04.000Z</time>
      </trkpt>
      <trkpt lat="47.5091" lon="6.84693">
        <ele>326.7</ele>
        <time>2014-09-28T07:56:05.000Z</time>
      </trkpt>
      <trkpt lat="47.50913" lon="6.847">
        <ele>327</ele>
        <time>2014-09-28T07:56:06.000Z</time>
      </trkpt>
      <trkpt lat="47.50914" lon="6.84708">
        <ele>326.2</ele>
        <time>2014-09-28T07:56:07.000Z</time>
      </trkpt>
      <trkpt lat="47.50915" lon="6.84714">
        <ele>325.9</ele>
        <time>2014-09-28T07:56:08.000Z</time>
      </trkpt>
      <trkpt lat="47.50917" lon="6.84722">
        <ele>325.6</ele>
        <time>2014-09-28T07:56:09.000Z</time>
      </trkpt>
      <trkpt lat="47.50918" lon="6.8473">
        <ele>325.4</ele>
        <time>2014-09-28T07:56:10.000Z</time>
      </trkpt>
      <trkpt lat="47.5092" lon="6.84738">
        <ele>325.5</ele>
        <time>2014-09-28T07:56:11.000Z</time>
      </trkpt>
      <trkpt lat="47.50923" lon="6.84745">
        <ele>325.7</ele>
        <time>2014-09-28T07:56:12.000Z</time>
      </trkpt>
      <trkpt lat="47.50925" lon="6.84752">
        <ele>325.2</ele>
        <time>2014-09-28T07:56:13.000Z</time>
      </trkpt>
      <trkpt lat="47.50928" lon="6.8476">
        <ele>324.8</ele>
        <time>2014-09-28T07:56:14.000Z</time>
      </trkpt>
      <trkpt lat="47.5093" lon="6.84769">
        <ele>325.2</ele>
        <time>2014-09-28T07:56:15.000Z</time>
      </trkpt>
      <trkpt lat="47.50933" lon="6.84778">
        <ele>325.4</ele>
        <time>2014-09-28T07:56:16.000Z</time>
      </trkpt>
      <trkpt lat="47.50936" lon="6.84787">
        <ele>325.4</ele>
        <time>2014-09-28T07:56:17.000Z</time>
      </trkpt>
      <trkpt lat="47.5094" lon="6.84795">
        <ele>325.6</ele>
        <time>2014-09-28T07:56:18.000Z</time>
      </trkpt>
      <trkpt lat="47.50942" lon="6.84805">
        <ele>326.3</ele>
        <time>2014-09-28T07:56:19.000Z</time>
      </trkpt>
      <trkpt lat="47.50945" lon="6.84812">
        <ele>325.4</ele>
        <time>2014-09-28T07:56:20.000Z</time>
      </trkpt>
      <trkpt lat="47.50948" lon="6.84822">
        <ele>325.8</ele>
        <time>2014-09-28T07:56:21.000Z</time>
      </trkpt>
      <trkpt lat="47.5095" lon="6.8483">
        <ele>325.6</ele>
        <time>2014-09-28T07:56:22.000Z</time>
      </trkpt>
      <trkpt lat="47.50953" lon="6.84841">
        <ele>327</ele>
        <time>2014-09-28T07:56:23.000Z</time>
      </trkpt>
      <trkpt lat="47.50956" lon="6.8485">
        <ele>327.4</ele>
        <time>2014-09-28T07:56:24.000Z</time>
      </trkpt>
      <trkpt lat="47.50959" lon="6.84859">
        <ele>327.1</ele>
        <time>2014-09-28T07:56:25.000Z</time>
      </trkpt>
      <trkpt lat="47.50962" lon="6.84868">
        <ele>327.5</ele>
        <time>2014-09-28T07:56:26.000Z</time>
      </trkpt>
      <trkpt lat="47.50968" lon="6.84889">
        <ele>326.4</ele>
        <time>2014-09-28T07:56:29.000Z</time>
      </trkpt>
      <trkpt lat="47.50969" lon="6.849">
        <ele>326.6</ele>
        <time>2014-09-28T07:56:30.000Z</time>
      </trkpt>
      <trkpt lat="47.5097" lon="6.8491">
        <ele>326.9</ele>
        <time>2014-09-28T07:56:31.000Z</time>
      </trkpt>
      <trkpt lat="47.5097" lon="6.8492">
        <ele>326.7</ele>
        <time>2014-09-28T07:56:32.000Z</time>
      </trkpt>
      <trkpt lat="47.5097" lon="6.84931">
        <ele>326.6</ele>
        <time>2014-09-28T07:56:33.000Z</time>
      </trkpt>
      <trkpt lat="47.5097" lon="6.84942">
        <ele>327</ele>
        <time>2014-09-28T07:56:34.000Z</time>
      </trkpt>
      <trkpt lat="47.50971" lon="6.84951">
        <ele>327.2</ele>
        <time>2014-09-28T07:56:35.000Z</time>
      </trkpt>
      <trkpt lat="47.50972" lon="6.8496">
        <ele>327.3</ele>
        <time>2014-09-28T07:56:36.000Z</time>
      </trkpt>
      <trkpt lat="47.50975" lon="6.84969">
        <ele>327.5</ele>
        <time>2014-09-28T07:56:37.000Z</time>
      </trkpt>
      <trkpt lat="47.50977" lon="6.84978">
        <ele>327.5</ele>
        <time>2014-09-28T07:56:38.000Z</time>
      </trkpt>
      <trkpt lat="47.50979" lon="6.84988">
        <ele>329</ele>
        <time>2014-09-28T07:56:39.000Z</time>
      </trkpt>
      <trkpt lat="47.50982" lon="6.84997">
        <ele>330.7</ele>
        <time>2014-09-28T07:56:40.000Z</time>
      </trkpt>
      <trkpt lat="47.50984" lon="6.85006">
        <ele>331.7</ele>
        <time>2014-09-28T07:56:41.000Z</time>
      </trkpt>
      <trkpt lat="47.50987" lon="6.85013">
        <ele>331</ele>
        <time>2014-09-28T07:56:42.000Z</time>
      </trkpt>
      <trkpt lat="47.5099" lon="6.8502">
        <ele>330.9</ele>
        <time>2014-09-28T07:56:43.000Z</time>
      </trkpt>
      <trkpt lat="47.50993" lon="6.85028">
        <ele>331.6</ele>
        <time>2014-09-28T07:56:44.000Z</time>
      </trkpt>
      <trkpt lat="47.50996" lon="6.85036">
        <ele>331.8</ele>
        <time>2014-09-28T07:56:45.000Z</time>
      </trkpt>
      <trkpt lat="47.50999" lon="6.85044">
        <ele>332</ele>
        <time>2014-09-28T07:56:46.000Z</time>
      </trkpt>
      <trkpt lat="47.51002" lon="6.8505">
        <ele>331.8</ele>
        <time>2014-09-28T07:56:47.000Z</time>
      </trkpt>
      <trkpt lat="47.51004" lon="6.8506">
        <ele>331</ele>
        <time>2014-09-28T07:56:48.000Z</time>
      </trkpt>
      <trkpt lat="47.51007" lon="6.85068">
        <ele>331.2</ele>
        <time>2014-09-28T07:56:49.000Z</time>
      </trkpt>
      <trkpt lat="47.51009" lon="6.85077">
        <ele>331.5</ele>
        <time>2014-09-28T07:56:50.000Z</time>
      </trkpt>
      <trkpt lat="47.51012" lon="6.85084">
        <ele>331.5</ele>
        <time>2014-09-28T07:56:51.000Z</time>
      </trkpt>
      <trkpt lat="47.51014" lon="6.85089">
        <ele>330.2</ele>
        <time>2014-09-28T07:56:52.000Z</time>
      </trkpt>
      <trkpt lat="47.51018" lon="6.85091">
        <ele>329.7</ele>
        <time>2014-09-28T07:56:53.000Z</time>
      </trkpt>
      <trkpt lat="47.51024" lon="6.85087">
        <ele>329.4</ele>
        <time>2014-09-28T07:56:54.000Z</time>
      </trkpt>
      <trkpt lat="47.51028" lon="6.85087">
        <ele>329.3</ele>
        <time>2014-09-28T07:56:55.000Z</time>
      </trkpt>
      <trkpt lat="47.51032" lon="6.8509">
        <ele>329.2</ele>
        <time>2014-09-28T07:56:56.000Z</time>
      </trkpt>
      <trkpt lat="47.51035" lon="6.85097">
        <ele>328.8</ele>
        <time>2014-09-28T07:56:57.000Z</time>
      </trkpt>
      <trkpt lat="47.51036" lon="6.85107">
        <ele>329</ele>
        <time>2014-09-28T07:56:58.000Z</time>
      </trkpt>
      <trkpt lat="47.51039" lon="6.85115">
        <ele>329.5</ele>
        <time>2014-09-28T07:56:59.000Z</time>
      </trkpt>
      <trkpt lat="47.51042" lon="6.85123">
        <ele>328.5</ele>
        <time>2014-09-28T07:57:00.000Z</time>
      </trkpt>
      <trkpt lat="47.51044" lon="6.85131">
        <ele>327.7</ele>
        <time>2014-09-28T07:57:01.000Z</time>
      </trkpt>
      <trkpt lat="47.51047" lon="6.85138">
        <ele>327.5</ele>
        <time>2014-09-28T07:57:02.000Z</time>
      </trkpt>
      <trkpt lat="47.51049" lon="6.85145">
        <ele>327.1</ele>
        <time>2014-09-28T07:57:03.000Z</time>
      </trkpt>
      <trkpt lat="47.51052" lon="6.85151">
        <ele>326.8</ele>
        <time>2014-09-28T07:57:04.000Z</time>
      </trkpt>
      <trkpt lat="47.51055" lon="6.8516">
        <ele>326</ele>
        <time>2014-09-28T07:57:05.000Z</time>
      </trkpt>
      <trkpt lat="47.51058" lon="6.85168">
        <ele>325.9</ele>
        <time>2014-09-28T07:57:06.000Z</time>
      </trkpt>
      <trkpt lat="47.5106" lon="6.85179">
        <ele>326.3</ele>
        <time>2014-09-28T07:57:07.000Z</time>
      </trkpt>
      <trkpt lat="47.51063" lon="6.85187">
        <ele>326.7</ele>
        <time>2014-09-28T07:57:08.000Z</time>
      </trkpt>
      <trkpt lat="47.51066" lon="6.85197">
        <ele>326.6</ele>
        <time>2014-09-28T07:57:09.000Z</time>
      </trkpt>
      <trkpt lat="47.5107" lon="6.85205">
        <ele>326.8</ele>
        <time>2014-09-28T07:57:10.000Z</time>
      </trkpt>
      <trkpt lat="47.51073" lon="6.85213">
        <ele>326.8</ele>
        <time>2014-09-28T07:57:11.000Z</time>
      </trkpt>
      <trkpt lat="47.51075" lon="6.85222">
        <ele>327.1</ele>
        <time>2014-09-28T07:57:12.000Z</time>
      </trkpt>
      <trkpt lat="47.51077" lon="6.8523">
        <ele>326.9</ele>
        <time>2014-09-28T07:57:13.000Z</time>
      </trkpt>
      <trkpt lat="47.5108" lon="6.85238">
        <ele>327.1</ele>
        <time>2014-09-28T07:57:14.000Z</time>
      </trkpt>
      <trkpt lat="47.51082" lon="6.85246">
        <ele>327.9</ele>
        <time>2014-09-28T07:57:15.000Z</time>
      </trkpt>
      <trkpt lat="47.51085" lon="6.85254">
        <ele>327.5</ele>
        <time>2014-09-28T07:57:16.000Z</time>
      </trkpt>
      <trkpt lat="47.51087" lon="6.85262">
        <ele>327</ele>
        <time>2014-09-28T07:57:17.000Z</time>
      </trkpt>
      <trkpt lat="47.51089" lon="6.85271">
        <ele>327.8</ele>
        <time>2014-09-28T07:57:18.000Z</time>
      </trkpt>
      <trkpt lat="47.51091" lon="6.8528">
        <ele>328.2</ele>
        <time>2014-09-28T07:57:19.000Z</time>
      </trkpt>
      <trkpt lat="47.51094" lon="6.85288">
        <ele>328</ele>
        <time>2014-09-28T07:57:20.000Z</time>
      </trkpt>
      <trkpt lat="47.51097" lon="6.85297">
        <ele>328.3</ele>
        <time>2014-09-28T07:57:21.000Z</time>
      </trkpt>
      <trkpt lat="47.51099" lon="6.85306">
        <ele>327.6</ele>
        <time>2014-09-28T07:57:22.000Z</time>
      </trkpt>
      <trkpt lat="47.51102" lon="6.85314">
        <ele>327.5</ele>
        <time>2014-09-28T07:57:23.000Z</time>
      </trkpt>
      <trkpt lat="47.51105" lon="6.85322">
        <ele>327.7</ele>
        <time>2014-09-28T07:57:24.000Z</time>
      </trkpt>
      <trkpt lat="47.51108" lon="6.85331">
        <ele>328.4</ele>
        <time>2014-09-28T07:57:25.000Z</time>
      </trkpt>
      <trkpt lat="47.51109" lon="6.85338">
        <ele>327.3</ele>
        <time>2014-09-28T07:57:26.000Z</time>
      </trkpt>
      <trkpt lat="47.51115" lon="6.85357">
        <ele>325.5</ele>
        <time>2014-09-28T07:57:29.000Z</time>
      </trkpt>
      <trkpt lat="47.51118" lon="6.85366">
        <ele>324.8</ele>
        <time>2014-09-28T07:57:30.000Z</time>
      </trkpt>
      <trkpt lat="47.5112" lon="6.8537">
        <ele>322.2</ele>
        <time>2014-09-28T07:57:31.000Z</time>
      </trkpt>
      <trkpt lat="47.51123" lon="6.85378">
        <ele>321.6</ele>
        <time>2014-09-28T07:57:32.000Z</time>
      </trkpt>
      <trkpt lat="47.51126" lon="6.85388">
        <ele>322.3</ele>
        <time>2014-09-28T07:57:33.000Z</time>
      </trkpt>
      <trkpt lat="47.51129" lon="6.85396">
        <ele>322</ele>
        <time>2014-09-28T07:57:34.000Z</time>
      </trkpt>
      <trkpt lat="47.51131" lon="6.85406">
        <ele>322</ele>
        <time>2014-09-28T07:57:35.000Z</time>
      </trkpt>
      <trkpt lat="47.51135" lon="6.85416">
        <ele>323</ele>
        <time>2014-09-28T07:57:36.000Z</time>
      </trkpt>
      <trkpt lat="47.51137" lon="6.85425">
        <ele>323.2</ele>
        <time>2014-09-28T07:57:37.000Z</time>
      </trkpt>
      <trkpt lat="47.5114" lon="6.85436">
        <ele>323.5</ele>
        <time>2014-09-28T07:57:38.000Z</time>
      </trkpt>
      <trkpt lat="47.51143" lon="6.85444">
        <ele>323.5</ele>
        <time>2014-09-28T07:57:39.000Z</time>
      </trkpt>
      <trkpt lat="47.51145" lon="6.85453">
        <ele>322.2</ele>
        <time>2014-09-28T07:57:40.000Z</time>
      </trkpt>
      <trkpt lat="47.51147" lon="6.85461">
        <ele>322.5</ele>
        <time>2014-09-28T07:57:41.000Z</time>
      </trkpt>
      <trkpt lat="47.51149" lon="6.85469">
        <ele>322.7</ele>
        <time>2014-09-28T07:57:42.000Z</time>
      </trkpt>
      <trkpt lat="47.51153" lon="6.85478">
        <ele>323.6</ele>
        <time>2014-09-28T07:57:43.000Z</time>
      </trkpt>
      <trkpt lat="47.51156" lon="6.85486">
        <ele>323.9</ele>
        <time>2014-09-28T07:57:44.000Z</time>
      </trkpt>
      <trkpt lat="47.5116" lon="6.85495">
        <ele>324.3</ele>
        <time>2014-09-28T07:57:45.000Z</time>
      </trkpt>
      <trkpt lat="47.51162" lon="6.85504">
        <ele>324.8</ele>
        <time>2014-09-28T07:57:46.000Z</time>
      </trkpt>
      <trkpt lat="47.51165" lon="6.85514">
        <ele>324</ele>
        <time>2014-09-28T07:57:47.000Z</time>
      </trkpt>
      <trkpt lat="47.51167" lon="6.85522">
        <ele>323.1</ele>
        <time>2014-09-28T07:57:48.000Z</time>
      </trkpt>
      <trkpt lat="47.51169" lon="6.85531">
        <ele>323.4</ele>
        <time>2014-09-28T07:57:49.000Z</time>
      </trkpt>
      <trkpt lat="47.51173" lon="6.85539">
        <ele>323.6</ele>
        <time>2014-09-28T07:57:50.000Z</time>
      </trkpt>
      <trkpt lat="47.51177" lon="6.85548">
        <ele>325.5</ele>
        <time>2014-09-28T07:57:51.000Z</time>
      </trkpt>
      <trkpt lat="47.5118" lon="6.85557">
        <ele>326.6</ele>
        <time>2014-09-28T07:57:52.000Z</time>
      </trkpt>
      <trkpt lat="47.51182" lon="6.85566">
        <ele>326.8</ele>
        <time>2014-09-28T07:57:53.000Z</time>
      </trkpt>
      <trkpt lat="47.51185" lon="6.85575">
        <ele>327</ele>
        <time>2014-09-28T07:57:54.000Z</time>
      </trkpt>
      <trkpt lat="47.51188" lon="6.85583">
        <ele>326.8</ele>
        <time>2014-09-28T07:57:55.000Z</time>
      </trkpt>
      <trkpt lat="47.51191" lon="6.85591">
        <ele>327</ele>
        <time>2014-09-28T07:57:56.000Z</time>
      </trkpt>
      <trkpt lat="47.51194" lon="6.85599">
        <ele>327</ele>
        <time>2014-09-28T07:57:57.000Z</time>
      </trkpt>
      <trkpt lat="47.51196" lon="6.85608">
        <ele>326.9</ele>
        <time>2014-09-28T07:57:58.000Z</time>
      </trkpt>
      <trkpt lat="47.51199" lon="6.85617">
        <ele>327.8</ele>
        <time>2014-09-28T07:57:59.000Z</time>
      </trkpt>
      <trkpt lat="47.51201" lon="6.85625">
        <ele>327.3</ele>
        <time>2014-09-28T07:58:00.000Z</time>
      </trkpt>
      <trkpt lat="47.51204" lon="6.85635">
        <ele>328.6</ele>
        <time>2014-09-28T07:58:01.000Z</time>
      </trkpt>
      <trkpt lat="47.51206" lon="6.85643">
        <ele>328.1</ele>
        <time>2014-09-28T07:58:02.000Z</time>
      </trkpt>
      <trkpt lat="47.51209" lon="6.85651">
        <ele>328.3</ele>
        <time>2014-09-28T07:58:03.000Z</time>
      </trkpt>
      <trkpt lat="47.5121" lon="6.85658">
        <ele>326.5</ele>
        <time>2014-09-28T07:58:04.000Z</time>
      </trkpt>
      <trkpt lat="47.51213" lon="6.85667">
        <ele>327.5</ele>
        <time>2014-09-28T07:58:05.000Z</time>
      </trkpt>
      <trkpt lat="47.51216" lon="6.85675">
        <ele>327.8</ele>
        <time>2014-09-28T07:58:06.000Z</time>
      </trkpt>
      <trkpt lat="47.51219" lon="6.85683">
        <ele>328.4</ele>
        <time>2014-09-28T07:58:07.000Z</time>
      </trkpt>
      <trkpt lat="47.51221" lon="6.85692">
        <ele>329</ele>
        <time>2014-09-28T07:58:08.000Z</time>
      </trkpt>
      <trkpt lat="47.51223" lon="6.85702">
        <ele>329.4</ele>
        <time>2014-09-28T07:58:09.000Z</time>
      </trkpt>
      <trkpt lat="47.51226" lon="6.8571">
        <ele>329.3</ele>
        <time>2014-09-28T07:58:10.000Z</time>
      </trkpt>
      <trkpt lat="47.51229" lon="6.85718">
        <ele>330.1</ele>
        <time>2014-09-28T07:58:11.000Z</time>
      </trkpt>
      <trkpt lat="47.51232" lon="6.85727">
        <ele>330.5</ele>
        <time>2014-09-28T07:58:12.000Z</time>
      </trkpt>
      <trkpt lat="47.51235" lon="6.85734">
        <ele>330.1</ele>
        <time>2014-09-28T07:58:13.000Z</time>
      </trkpt>
      <trkpt lat="47.51237" lon="6.85743">
        <ele>330.2</ele>
        <time>2014-09-28T07:58:14.000Z</time>
      </trkpt>
      <trkpt lat="47.5124" lon="6.85751">
        <ele>329.8</ele>
        <time>2014-09-28T07:58:15.000Z</time>
      </trkpt>
      <trkpt lat="47.51242" lon="6.8576">
        <ele>329.3</ele>
        <time>2014-09-28T07:58:16.000Z</time>
      </trkpt>
      <trkpt lat="47.51244" lon="6.85768">
        <ele>329</ele>
        <time>2014-09-28T07:58:17.000Z</time>
      </trkpt>
      <trkpt lat="47.51247" lon="6.85776">
        <ele>329.3</ele>
        <time>2014-09-28T07:58:18.000Z</time>
      </trkpt>
      <trkpt lat="47.5125" lon="6.85785">
        <ele>329.2</ele>
        <time>2014-09-28T07:58:19.000Z</time>
      </trkpt>
      <trkpt lat="47.51252" lon="6.85793">
        <ele>329.3</ele>
        <time>2014-09-28T07:58:20.000Z</time>
      </trkpt>
      <trkpt lat="47.51255" lon="6.85802">
        <ele>329.8</ele>
        <time>2014-09-28T07:58:21.000Z</time>
      </trkpt>
      <trkpt lat="47.51257" lon="6.85809">
        <ele>330.2</ele>
        <time>2014-09-28T07:58:22.000Z</time>
      </trkpt>
      <trkpt lat="47.5126" lon="6.85816">
        <ele>329.4</ele>
        <time>2014-09-28T07:58:23.000Z</time>
      </trkpt>
      <trkpt lat="47.51262" lon="6.85823">
        <ele>329.8</ele>
        <time>2014-09-28T07:58:24.000Z</time>
      </trkpt>
      <trkpt lat="47.51264" lon="6.8583">
        <ele>329.7</ele>
        <time>2014-09-28T07:58:25.000Z</time>
      </trkpt>
      <trkpt lat="47.51266" lon="6.85838">
        <ele>329.6</ele>
        <time>2014-09-28T07:58:26.000Z</time>
      </trkpt>
      <trkpt lat="47.51269" lon="6.85856">
        <ele>328.4</ele>
        <time>2014-09-28T07:58:29.000Z</time>
      </trkpt>
      <trkpt lat="47.51263" lon="6.85862">
        <ele>328.2</ele>
        <time>2014-09-28T07:58:30.000Z</time>
      </trkpt>
      <trkpt lat="47.51259" lon="6.85864">
        <ele>327</ele>
        <time>2014-09-28T07:58:31.000Z</time>
      </trkpt>
      <trkpt lat="47.51256" lon="6.85865">
        <ele>326.1</ele>
        <time>2014-09-28T07:58:32.000Z</time>
      </trkpt>
      <trkpt lat="47.51252" lon="6.85868">
        <ele>326.7</ele>
        <time>2014-09-28T07:58:33.000Z</time>
      </trkpt>
      <trkpt lat="47.51248" lon="6.8587">
        <ele>326.8</ele>
        <time>2014-09-28T07:58:34.000Z</time>
      </trkpt>
      <trkpt lat="47.51245" lon="6.85874">
        <ele>326.8</ele>
        <time>2014-09-28T07:58:35.000Z</time>
      </trkpt>
      <trkpt lat="47.51242" lon="6.85878">
        <ele>326.8</ele>
        <time>2014-09-28T07:58:36.000Z</time>
      </trkpt>
      <trkpt lat="47.51237" lon="6.85883">
        <ele>328.5</ele>
        <time>2014-09-28T07:58:37.000Z</time>
      </trkpt>
      <trkpt lat="47.51232" lon="6.85887">
        <ele>328.3</ele>
        <time>2014-09-28T07:58:38.000Z</time>
      </trkpt>
      <trkpt lat="47.51226" lon="6.85892">
        <ele>327.5</ele>
        <time>2014-09-28T07:58:39.000Z</time>
      </trkpt>
      <trkpt lat="47.5122" lon="6.85895">
        <ele>327.4</ele>
        <time>2014-09-28T07:58:40.000Z</time>
      </trkpt>
      <trkpt lat="47.51214" lon="6.859">
        <ele>328.3</ele>
        <time>2014-09-28T07:58:41.000Z</time>
      </trkpt>
      <trkpt lat="47.51208" lon="6.85903">
        <ele>327.9</ele>
        <time>2014-09-28T07:58:42.000Z</time>
      </trkpt>
      <trkpt lat="47.51202" lon="6.85907">
        <ele>328</ele>
        <time>2014-09-28T07:58:43.000Z</time>
      </trkpt>
      <trkpt lat="47.51196" lon="6.8591">
        <ele>328</ele>
        <time>2014-09-28T07:58:44.000Z</time>
      </trkpt>
      <trkpt lat="47.5119" lon="6.85913">
        <ele>328.2</ele>
        <time>2014-09-28T07:58:45.000Z</time>
      </trkpt>
      <trkpt lat="47.51184" lon="6.85917">
        <ele>328.7</ele>
        <time>2014-09-28T07:58:46.000Z</time>
      </trkpt>
      <trkpt lat="47.51178" lon="6.85921">
        <ele>329.2</ele>
        <time>2014-09-28T07:58:47.000Z</time>
      </trkpt>
      <trkpt lat="47.51172" lon="6.85925">
        <ele>329.6</ele>
        <time>2014-09-28T07:58:48.000Z</time>
      </trkpt>
      <trkpt lat="47.51166" lon="6.85927">
        <ele>330</ele>
        <time>2014-09-28T07:58:49.000Z</time>
      </trkpt>
      <trkpt lat="47.51161" lon="6.8593">
        <ele>329.9</ele>
        <time>2014-09-28T07:58:50.000Z</time>
      </trkpt>
      <trkpt lat="47.51155" lon="6.85933">
        <ele>329.9</ele>
        <time>2014-09-28T07:58:51.000Z</time>
      </trkpt>
      <trkpt lat="47.51149" lon="6.85936">
        <ele>330.2</ele>
        <time>2014-09-28T07:58:52.000Z</time>
      </trkpt>
      <trkpt lat="47.51144" lon="6.85939">
        <ele>330.5</ele>
        <time>2014-09-28T07:58:53.000Z</time>
      </trkpt>
      <trkpt lat="47.51139" lon="6.85942">
        <ele>330.2</ele>
        <time>2014-09-28T07:58:54.000Z</time>
      </trkpt>
      <trkpt lat="47.51134" lon="6.85945">
        <ele>330</ele>
        <time>2014-09-28T07:58:55.000Z</time>
      </trkpt>
      <trkpt lat="47.5113" lon="6.85948">
        <ele>329.8</ele>
        <time>2014-09-28T07:58:56.000Z</time>
      </trkpt>
      <trkpt lat="47.51125" lon="6.85949">
        <ele>329.8</ele>
        <time>2014-09-28T07:58:57.000Z</time>
      </trkpt>
      <trkpt lat="47.51119" lon="6.85949">
        <ele>331.2</ele>
        <time>2014-09-28T07:58:58.000Z</time>
      </trkpt>
      <trkpt lat="47.51115" lon="6.85951">
        <ele>331.5</ele>
        <time>2014-09-28T07:58:59.000Z</time>
      </trkpt>
      <trkpt lat="47.5111" lon="6.85953">
        <ele>331.2</ele>
        <time>2014-09-28T07:59:00.000Z</time>
      </trkpt>
      <trkpt lat="47.51106" lon="6.85954">
        <ele>331.1</ele>
        <time>2014-09-28T07:59:01.000Z</time>
      </trkpt>
      <trkpt lat="47.51101" lon="6.85956">
        <ele>331</ele>
        <time>2014-09-28T07:59:02.000Z</time>
      </trkpt>
      <trkpt lat="47.51098" lon="6.85955">
        <ele>330.9</ele>
        <time>2014-09-28T07:59:03.000Z</time>
      </trkpt>
      <trkpt lat="47.51094" lon="6.85957">
        <ele>331.3</ele>
        <time>2014-09-28T07:59:04.000Z</time>
      </trkpt>
      <trkpt lat="47.51088" lon="6.85955">
        <ele>332</ele>
        <time>2014-09-28T07:59:05.000Z</time>
      </trkpt>
      <trkpt lat="47.51084" lon="6.85955">
        <ele>332.3</ele>
        <time>2014-09-28T07:59:06.000Z</time>
      </trkpt>
      <trkpt lat="47.51078" lon="6.85956">
        <ele>332.3</ele>
        <time>2014-09-28T07:59:07.000Z</time>
      </trkpt>
      <trkpt lat="47.51073" lon="6.85957">
        <ele>332.7</ele>
        <time>2014-09-28T07:59:08.000Z</time>
      </trkpt>
      <trkpt lat="47.51068" lon="6.8596">
        <ele>332.5</ele>
        <time>2014-09-28T07:59:09.000Z</time>
      </trkpt>
      <trkpt lat="47.51065" lon="6.85963">
        <ele>332.1</ele>
        <time>2014-09-28T07:59:10.000Z</time>
      </trkpt>
      <trkpt lat="47.5106" lon="6.85967">
        <ele>332.3</ele>
        <time>2014-09-28T07:59:11.000Z</time>
      </trkpt>
      <trkpt lat="47.51055" lon="6.85969">
        <ele>332.1</ele>
        <time>2014-09-28T07:59:12.000Z</time>
      </trkpt>
      <trkpt lat="47.5105" lon="6.85971">
        <ele>332</ele>
        <time>2014-09-28T07:59:13.000Z</time>
      </trkpt>
      <trkpt lat="47.51044" lon="6.85973">
        <ele>331.7</ele>
        <time>2014-09-28T07:59:14.000Z</time>
      </trkpt>
      <trkpt lat="47.51039" lon="6.85976">
        <ele>332</ele>
        <time>2014-09-28T07:59:15.000Z</time>
      </trkpt>
      <trkpt lat="47.51033" lon="6.85978">
        <ele>332</ele>
        <time>2014-09-28T07:59:16.000Z</time>
      </trkpt>
      <trkpt lat="47.51027" lon="6.8598">
        <ele>332.2</ele>
        <time>2014-09-28T07:59:17.000Z</time>
      </trkpt>
      <trkpt lat="47.51022" lon="6.85983">
        <ele>331.9</ele>
        <time>2014-09-28T07:59:18.000Z</time>
      </trkpt>
      <trkpt lat="47.51017" lon="6.85984">
        <ele>332</ele>
        <time>2014-09-28T07:59:19.000Z</time>
      </trkpt>
      <trkpt lat="47.51011" lon="6.85983">
        <ele>332.1</ele>
        <time>2014-09-28T07:59:20.000Z</time>
      </trkpt>
      <trkpt lat="47.51006" lon="6.85984">
        <ele>332</ele>
        <time>2014-09-28T07:59:21.000Z</time>
      </trkpt>
      <trkpt lat="47.51001" lon="6.85985">
        <ele>331.4</ele>
        <time>2014-09-28T07:59:22.000Z</time>
      </trkpt>
      <trkpt lat="47.50996" lon="6.85986">
        <ele>331.4</ele>
        <time>2014-09-28T07:59:23.000Z</time>
      </trkpt>
      <trkpt lat="47.50991" lon="6.85986">
        <ele>329.9</ele>
        <time>2014-09-28T07:59:24.000Z</time>
      </trkpt>
      <trkpt lat="47.50986" lon="6.85987">
        <ele>329.4</ele>
        <time>2014-09-28T07:59:25.000Z</time>
      </trkpt>
      <trkpt lat="47.50981" lon="6.85988">
        <ele>329.3</ele>
        <time>2014-09-28T07:59:26.000Z</time>
      </trkpt>
      <trkpt lat="47.50966" lon="6.85988">
        <ele>329</ele>
        <time>2014-09-28T07:59:29.000Z</time>
      </trkpt>
      <trkpt lat="47.5096" lon="6.85988">
        <ele>329.3</ele>
        <time>2014-09-28T07:59:30.000Z</time>
      </trkpt>
      <trkpt lat="47.50954" lon="6.85989">
        <ele>328.8</ele>
        <time>2014-09-28T07:59:31.000Z</time>
      </trkpt>
      <trkpt lat="47.50948" lon="6.85989">
        <ele>328.4</ele>
        <time>2014-09-28T07:59:32.000Z</time>
      </trkpt>
      <trkpt lat="47.50943" lon="6.8599">
        <ele>328.3</ele>
        <time>2014-09-28T07:59:33.000Z</time>
      </trkpt>
      <trkpt lat="47.50937" lon="6.8599">
        <ele>328.2</ele>
        <time>2014-09-28T07:59:34.000Z</time>
      </trkpt>
      <trkpt lat="47.50932" lon="6.85991">
        <ele>327.8</ele>
        <time>2014-09-28T07:59:35.000Z</time>
      </trkpt>
      <trkpt lat="47.50927" lon="6.8599">
        <ele>327.9</ele>
        <time>2014-09-28T07:59:36.000Z</time>
      </trkpt>
      <trkpt lat="47.50922" lon="6.85991">
        <ele>328.2</ele>
        <time>2014-09-28T07:59:37.000Z</time>
      </trkpt>
      <trkpt lat="47.50916" lon="6.85992">
        <ele>328.6</ele>
        <time>2014-09-28T07:59:38.000Z</time>
      </trkpt>
      <trkpt lat="47.50911" lon="6.85993">
        <ele>328.7</ele>
        <time>2014-09-28T07:59:39.000Z</time>
      </trkpt>
      <trkpt lat="47.50906" lon="6.85992">
        <ele>328.7</ele>
        <time>2014-09-28T07:59:40.000Z</time>
      </trkpt>
      <trkpt lat="47.50901" lon="6.85991">
        <ele>328.8</ele>
        <time>2014-09-28T07:59:41.000Z</time>
      </trkpt>
      <trkpt lat="47.50896" lon="6.85989">
        <ele>328.9</ele>
        <time>2014-09-28T07:59:42.000Z</time>
      </trkpt>
      <trkpt lat="47.50891" lon="6.85988">
        <ele>328.9</ele>
        <time>2014-09-28T07:59:43.000Z</time>
      </trkpt>
      <trkpt lat="47.50885" lon="6.85988">
        <ele>330.5</ele>
        <time>2014-09-28T07:59:44.000Z</time>
      </trkpt>
      <trkpt lat="47.5088" lon="6.85987">
        <ele>330.5</ele>
        <time>2014-09-28T07:59:45.000Z</time>
      </trkpt>
      <trkpt lat="47.50874" lon="6.85985">
        <ele>331</ele>
        <time>2014-09-28T07:59:46.000Z</time>
      </trkpt>
      <trkpt lat="47.50869" lon="6.85985">
        <ele>330</ele>
        <time>2014-09-28T07:59:47.000Z</time>
      </trkpt>
      <trkpt lat="47.50864" lon="6.85985">
        <ele>330</ele>
        <time>2014-09-28T07:59:48.000Z</time>
      </trkpt>
      <trkpt lat="47.50859" lon="6.85985">
        <ele>329.4</ele>
        <time>2014-09-28T07:59:49.000Z</time>
      </trkpt>
      <trkpt lat="47.50854" lon="6.85985">
        <ele>329.2</ele>
        <time>2014-09-28T07:59:50.000Z</time>
      </trkpt>
      <trkpt lat="47.50848" lon="6.85984">
        <ele>328.9</ele>
        <time>2014-09-28T07:59:51.000Z</time>
      </trkpt>
      <trkpt lat="47.50844" lon="6.85983">
        <ele>329</ele>
        <time>2014-09-28T07:59:52.000Z</time>
      </trkpt>
      <trkpt lat="47.50838" lon="6.85984">
        <ele>328.9</ele>
        <time>2014-09-28T07:59:53.000Z</time>
      </trkpt>
      <trkpt lat="47.50832" lon="6.85984">
        <ele>329.2</ele>
        <time>2014-09-28T07:59:54.000Z</time>
      </trkpt>
      <trkpt lat="47.50827" lon="6.85985">
        <ele>329.1</ele>
        <time>2014-09-28T07:59:55.000Z</time>
      </trkpt>
      <trkpt lat="47.50821" lon="6.85985">
        <ele>328.8</ele>
        <time>2014-09-28T07:59:56.000Z</time>
      </trkpt>
      <trkpt lat="47.50816" lon="6.85986">
        <ele>329.2</ele>
        <time>2014-09-28T07:59:57.000Z</time>
      </trkpt>
      <trkpt lat="47.5081" lon="6.85986">
        <ele>328.9</ele>
        <time>2014-09-28T07:59:58.000Z</time>
      </trkpt>
      <trkpt lat="47.50805" lon="6.85988">
        <ele>329.1</ele>
        <time>2014-09-28T07:59:59.000Z</time>
      </trkpt>
      <trkpt lat="47.508" lon="6.8599">
        <ele>330</ele>
        <time>2014-09-28T08:00:00.000Z</time>
      </trkpt>
      <trkpt lat="47.50795" lon="6.85992">
        <ele>330.4</ele>
        <time>2014-09-28T08:00:01.000Z</time>
      </trkpt>
      <trkpt lat="47.5079" lon="6.85994">
        <ele>330.2</ele>
        <time>2014-09-28T08:00:02.000Z</time>
      </trkpt>
      <trkpt lat="47.50785" lon="6.85996">
        <ele>330.3</ele>
        <time>2014-09-28T08:00:03.000Z</time>
      </trkpt>
      <trkpt lat="47.50779" lon="6.85998">
        <ele>330.7</ele>
        <time>2014-09-28T08:00:04.000Z</time>
      </trkpt>
      <trkpt lat="47.50774" lon="6.86001">
        <ele>330.7</ele>
        <time>2014-09-28T08:00:05.000Z</time>
      </trkpt>
      <trkpt lat="47.5077" lon="6.86005">
        <ele>331</ele>
        <time>2014-09-28T08:00:06.000Z</time>
      </trkpt>
      <trkpt lat="47.50765" lon="6.86009">
        <ele>330.8</ele>
        <time>2014-09-28T08:00:07.000Z</time>
      </trkpt>
      <trkpt lat="47.5076" lon="6.86012">
        <ele>331.9</ele>
        <time>2014-09-28T08:00:08.000Z</time>
      </trkpt>
      <trkpt lat="47.50756" lon="6.86016">
        <ele>331</ele>
        <time>2014-09-28T08:00:09.000Z</time>
      </trkpt>
      <trkpt lat="47.50753" lon="6.8602">
        <ele>330.8</ele>
        <time>2014-09-28T08:00:10.000Z</time>
      </trkpt>
      <trkpt lat="47.50749" lon="6.86024">
        <ele>331</ele>
        <time>2014-09-28T08:00:11.000Z</time>
      </trkpt>
      <trkpt lat="47.50745" lon="6.86029">
        <ele>331.3</ele>
        <time>2014-09-28T08:00:12.000Z</time>
      </trkpt>
      <trkpt lat="47.5074" lon="6.86032">
        <ele>331.6</ele>
        <time>2014-09-28T08:00:13.000Z</time>
      </trkpt>
      <trkpt lat="47.50735" lon="6.86038">
        <ele>333.1</ele>
        <time>2014-09-28T08:00:14.000Z</time>
      </trkpt>
      <trkpt lat="47.50729" lon="6.86043">
        <ele>333.6</ele>
        <time>2014-09-28T08:00:15.000Z</time>
      </trkpt>
      <trkpt lat="47.50726" lon="6.86049">
        <ele>333.3</ele>
        <time>2014-09-28T08:00:16.000Z</time>
      </trkpt>
      <trkpt lat="47.50723" lon="6.86055">
        <ele>333.4</ele>
        <time>2014-09-28T08:00:17.000Z</time>
      </trkpt>
      <trkpt lat="47.50722" lon="6.86062">
        <ele>333.3</ele>
        <time>2014-09-28T08:00:18.000Z</time>
      </trkpt>
      <trkpt lat="47.50719" lon="6.8607">
        <ele>333.7</ele>
        <time>2014-09-28T08:00:19.000Z</time>
      </trkpt>
      <trkpt lat="47.50716" lon="6.86077">
        <ele>333.9</ele>
        <time>2014-09-28T08:00:20.000Z</time>
      </trkpt>
      <trkpt lat="47.50714" lon="6.86085">
        <ele>333.8</ele>
        <time>2014-09-28T08:00:21.000Z</time>
      </trkpt>
      <trkpt lat="47.50709" lon="6.86089">
        <ele>332.4</ele>
        <time>2014-09-28T08:00:22.000Z</time>
      </trkpt>
      <trkpt lat="47.50706" lon="6.86095">
        <ele>332.2</ele>
        <time>2014-09-28T08:00:23.000Z</time>
      </trkpt>
      <trkpt lat="47.50701" lon="6.86101">
        <ele>333.6</ele>
        <time>2014-09-28T08:00:24.000Z</time>
      </trkpt>
      <trkpt lat="47.50697" lon="6.86107">
        <ele>335.6</ele>
        <time>2014-09-28T08:00:25.000Z</time>
      </trkpt>
      <trkpt lat="47.50694" lon="6.86112">
        <ele>334.5</ele>
        <time>2014-09-28T08:00:26.000Z</time>
      </trkpt>
      <trkpt lat="47.50689" lon="6.86124">
        <ele>333</ele>
        <time>2014-09-28T08:00:29.000Z</time>
      </trkpt>
      <trkpt lat="47.50691" lon="6.86129">
        <ele>333.3</ele>
        <time>2014-09-28T08:00:30.000Z</time>
      </trkpt>
      <trkpt lat="47.50691" lon="6.86134">
        <ele>332.5</ele>
        <time>2014-09-28T08:00:31.000Z</time>
      </trkpt>
      <trkpt lat="47.50692" lon="6.86137">
        <ele>331.4</ele>
        <time>2014-09-28T08:00:32.000Z</time>
      </trkpt>
      <trkpt lat="47.50693" lon="6.86142">
        <ele>332.1</ele>
        <time>2014-09-28T08:00:33.000Z</time>
      </trkpt>
      <trkpt lat="47.50694" lon="6.86147">
        <ele>332.4</ele>
        <time>2014-09-28T08:00:34.000Z</time>
      </trkpt>
      <trkpt lat="47.50695" lon="6.8615">
        <ele>332.7</ele>
        <time>2014-09-28T08:00:35.000Z</time>
      </trkpt>
      <trkpt lat="47.50694" lon="6.86156">
        <ele>333.5</ele>
        <time>2014-09-28T08:00:36.000Z</time>
      </trkpt>
      <trkpt lat="47.50693" lon="6.86161">
        <ele>334.1</ele>
        <time>2014-09-28T08:00:37.000Z</time>
      </trkpt>
      <trkpt lat="47.50693" lon="6.86165">
        <ele>334.1</ele>
        <time>2014-09-28T08:00:38.000Z</time>
      </trkpt>
      <trkpt lat="47.50693" lon="6.86169">
        <ele>335.7</ele>
        <time>2014-09-28T08:00:39.000Z</time>
      </trkpt>
      <trkpt lat="47.50693" lon="6.86173">
        <ele>336.3</ele>
        <time>2014-09-28T08:00:40.000Z</time>
      </trkpt>
      <trkpt lat="47.50694" lon="6.86178">
        <ele>337.3</ele>
        <time>2014-09-28T08:00:41.000Z</time>
      </trkpt>
      <trkpt lat="47.50694" lon="6.86182">
        <ele>338.1</ele>
        <time>2014-09-28T08:00:42.000Z</time>
      </trkpt>
      <trkpt lat="47.50695" lon="6.86186">
        <ele>338.1</ele>
        <time>2014-09-28T08:00:43.000Z</time>
      </trkpt>
      <trkpt lat="47.50696" lon="6.8619">
        <ele>338</ele>
        <time>2014-09-28T08:00:44.000Z</time>
      </trkpt>
      <trkpt lat="47.50697" lon="6.86194">
        <ele>338.4</ele>
        <time>2014-09-28T08:00:45.000Z</time>
      </trkpt>
      <trkpt lat="47.50698" lon="6.86197">
        <ele>337.4</ele>
        <time>2014-09-28T08:00:46.000Z</time>
      </trkpt>
      <trkpt lat="47.50699" lon="6.862">
        <ele>337.4</ele>
        <time>2014-09-28T08:00:47.000Z</time>
      </trkpt>
      <trkpt lat="47.507" lon="6.86204">
        <ele>337.2</ele>
        <time>2014-09-28T08:00:48.000Z</time>
      </trkpt>
      <trkpt lat="47.50701" lon="6.86207">
        <ele>337.1</ele>
        <time>2014-09-28T08:00:49.000Z</time>
      </trkpt>
      <trkpt lat="47.50702" lon="6.86211">
        <ele>336.4</ele>
        <time>2014-09-28T08:00:50.000Z</time>
      </trkpt>
      <trkpt lat="47.50703" lon="6.86215">
        <ele>336.2</ele>
        <time>2014-09-28T08:00:51.000Z</time>
      </trkpt>
      <trkpt lat="47.50703" lon="6.86219">
        <ele>336.1</ele>
        <time>2014-09-28T08:00:52.000Z</time>
      </trkpt>
      <trkpt lat="47.50704" lon="6.86223">
        <ele>336</ele>
        <time>2014-09-28T08:00:53.000Z</time>
      </trkpt>
      <trkpt lat="47.50705" lon="6.86227">
        <ele>336.2</ele>
        <time>2014-09-28T08:00:54.000Z</time>
      </trkpt>
      <trkpt lat="47.50706" lon="6.8623">
        <ele>335.9</ele>
        <time>2014-09-28T08:00:55.000Z</time>
      </trkpt>
      <trkpt lat="47.50705" lon="6.86234">
        <ele>336.9</ele>
        <time>2014-09-28T08:00:56.000Z</time>
      </trkpt>
      <trkpt lat="47.50704" lon="6.86237">
        <ele>337.4</ele>
        <time>2014-09-28T08:00:57.000Z</time>
      </trkpt>
      <trkpt lat="47.50703" lon="6.8624">
        <ele>338.1</ele>
        <time>2014-09-28T08:00:58.000Z</time>
      </trkpt>
      <trkpt lat="47.50702" lon="6.86243">
        <ele>337.6</ele>
        <time>2014-09-28T08:00:59.000Z</time>
      </trkpt>
      <trkpt lat="47.507" lon="6.86247">
        <ele>338.3</ele>
        <time>2014-09-28T08:01:00.000Z</time>
      </trkpt>
      <trkpt lat="47.50699" lon="6.8625">
        <ele>339</ele>
        <time>2014-09-28T08:01:01.000Z</time>
      </trkpt>
      <trkpt lat="47.50698" lon="6.86253">
        <ele>339.1</ele>
        <time>2014-09-28T08:01:02.000Z</time>
      </trkpt>
      <trkpt lat="47.50697" lon="6.86257">
        <ele>340.5</ele>
        <time>2014-09-28T08:01:03.000Z</time>
      </trkpt>
      <trkpt lat="47.50695" lon="6.86261">
        <ele>340.8</ele>
        <time>2014-09-28T08:01:04.000Z</time>
      </trkpt>
      <trkpt lat="47.50694" lon="6.86265">
        <ele>340</ele>
        <time>2014-09-28T08:01:05.000Z</time>
      </trkpt>
      <trkpt lat="47.50693" lon="6.86269">
        <ele>340.4</ele>
        <time>2014-09-28T08:01:06.000Z</time>
      </trkpt>
      <trkpt lat="47.50692" lon="6.86273">
        <ele>340</ele>
        <time>2014-09-28T08:01:07.000Z</time>
      </trkpt>
      <trkpt lat="47.50691" lon="6.86277">
        <ele>340.1</ele>
        <time>2014-09-28T08:01:08.000Z</time>
      </trkpt>
      <trkpt lat="47.50691" lon="6.8628">
        <ele>339</ele>
        <time>2014-09-28T08:01:09.000Z</time>
      </trkpt>
      <trkpt lat="47.50691" lon="6.86284">
        <ele>339.1</ele>
        <time>2014-09-28T08:01:10.000Z</time>
      </trkpt>
      <trkpt lat="47.50691" lon="6.86287">
        <ele>339.9</ele>
        <time>2014-09-28T08:01:11.000Z</time>
      </trkpt>
      <trkpt lat="47.5069" lon="6.86294">
        <ele>340.3</ele>
        <time>2014-09-28T08:01:13.000Z</time>
      </trkpt>
      <trkpt lat="47.5069" lon="6.86297">
        <ele>340.2</ele>
        <time>2014-09-28T08:01:14.000Z</time>
      </trkpt>
      <trkpt lat="47.50691" lon="6.86303">
        <ele>339.7</ele>
        <time>2014-09-28T08:01:16.000Z</time>
      </trkpt>
      <trkpt lat="47.50692" lon="6.86305">
        <ele>340</ele>
        <time>2014-09-28T08:01:17.000Z</time>
      </trkpt>
      <trkpt lat="47.50695" lon="6.86309">
        <ele>339.7</ele>
        <time>2014-09-28T08:01:19.000Z</time>
      </trkpt>
      <trkpt lat="47.50697" lon="6.86311">
        <ele>340</ele>
        <time>2014-09-28T08:01:20.000Z</time>
      </trkpt>
      <trkpt lat="47.50699" lon="6.86314">
        <ele>340.5</ele>
        <time>2014-09-28T08:01:21.000Z</time>
      </trkpt>
      <trkpt lat="47.50701" lon="6.86316">
        <ele>339.9</ele>
        <time>2014-09-28T08:01:22.000Z</time>
      </trkpt>
      <trkpt lat="47.50704" lon="6.86319">
        <ele>338.7</ele>
        <time>2014-09-28T08:01:24.000Z</time>
      </trkpt>
      <trkpt lat="47.50706" lon="6.8632">
        <ele>338.7</ele>
        <time>2014-09-28T08:01:25.000Z</time>
      </trkpt>
      <trkpt lat="47.50707" lon="6.86322">
        <ele>339.1</ele>
        <time>2014-09-28T08:01:26.000Z</time>
      </trkpt>
      <trkpt lat="47.50711" lon="6.8633">
        <ele>338.8</ele>
        <time>2014-09-28T08:01:29.000Z</time>
      </trkpt>
      <trkpt lat="47.50712" lon="6.86334">
        <ele>339.3</ele>
        <time>2014-09-28T08:01:30.000Z</time>
      </trkpt>
      <trkpt lat="47.50714" lon="6.86337">
        <ele>340.2</ele>
        <time>2014-09-28T08:01:31.000Z</time>
      </trkpt>
      <trkpt lat="47.50715" lon="6.86339">
        <ele>340.6</ele>
        <time>2014-09-28T08:01:32.000Z</time>
      </trkpt>
      <trkpt lat="47.50716" lon="6.86343">
        <ele>341.4</ele>
        <time>2014-09-28T08:01:33.000Z</time>
      </trkpt>
      <trkpt lat="47.50718" lon="6.86346">
        <ele>342</ele>
        <time>2014-09-28T08:01:34.000Z</time>
      </trkpt>
      <trkpt lat="47.50719" lon="6.86349">
        <ele>342</ele>
        <time>2014-09-28T08:01:35.000Z</time>
      </trkpt>
      <trkpt lat="47.5072" lon="6.86352">
        <ele>342.9</ele>
        <time>2014-09-28T08:01:36.000Z</time>
      </trkpt>
      <trkpt lat="47.50721" lon="6.86356">
        <ele>343.4</ele>
        <time>2014-09-28T08:01:37.000Z</time>
      </trkpt>
      <trkpt lat="47.50722" lon="6.86359">
        <ele>344</ele>
        <time>2014-09-28T08:01:38.000Z</time>
      </trkpt>
      <trkpt lat="47.50724" lon="6.86362">
        <ele>344.2</ele>
        <time>2014-09-28T08:01:39.000Z</time>
      </trkpt>
      <trkpt lat="47.50725" lon="6.86366">
        <ele>344.3</ele>
        <time>2014-09-28T08:01:40.000Z</time>
      </trkpt>
      <trkpt lat="47.50726" lon="6.8637">
        <ele>342.1</ele>
        <time>2014-09-28T08:01:41.000Z</time>
      </trkpt>
      <trkpt lat="47.50728" lon="6.86373">
        <ele>342.9</ele>
        <time>2014-09-28T08:01:42.000Z</time>
      </trkpt>
      <trkpt lat="47.50729" lon="6.86377">
        <ele>343.3</ele>
        <time>2014-09-28T08:01:43.000Z</time>
      </trkpt>
      <trkpt lat="47.50731" lon="6.86381">
        <ele>345.3</ele>
        <time>2014-09-28T08:01:44.000Z</time>
      </trkpt>
      <trkpt lat="47.50733" lon="6.86385">
        <ele>345.4</ele>
        <time>2014-09-28T08:01:45.000Z</time>
      </trkpt>
      <trkpt lat="47.50734" lon="6.86389">
        <ele>345.1</ele>
        <time>2014-09-28T08:01:46.000Z</time>
      </trkpt>
      <trkpt lat="47.50736" lon="6.86392">
        <ele>345.2</ele>
        <time>2014-09-28T08:01:47.000Z</time>
      </trkpt>
      <trkpt lat="47.50737" lon="6.86396">
        <ele>343.9</ele>
        <time>2014-09-28T08:01:48.000Z</time>
      </trkpt>
      <trkpt lat="47.50738" lon="6.86399">
        <ele>343.6</ele>
        <time>2014-09-28T08:01:49.000Z</time>
      </trkpt>
      <trkpt lat="47.50741" lon="6.86404">
        <ele>343.3</ele>
        <time>2014-09-28T08:01:51.000Z</time>
      </trkpt>
      <trkpt lat="47.50743" lon="6.86406">
        <ele>343.5</ele>
        <time>2014-09-28T08:01:52.000Z</time>
      </trkpt>
      <trkpt lat="47.50744" lon="6.8641">
        <ele>343.7</ele>
        <time>2014-09-28T08:01:53.000Z</time>
      </trkpt>
      <trkpt lat="47.50746" lon="6.86414">
        <ele>344.4</ele>
        <time>2014-09-28T08:01:54.000Z</time>
      </trkpt>
      <trkpt lat="47.50748" lon="6.86417">
        <ele>345.1</ele>
        <time>2014-09-28T08:01:55.000Z</time>
      </trkpt>
      <trkpt lat="47.50749" lon="6.86421">
        <ele>346.1</ele>
        <time>2014-09-28T08:01:56.000Z</time>
      </trkpt>
      <trkpt lat="47.50751" lon="6.86424">
        <ele>346.5</ele>
        <time>2014-09-28T08:01:57.000Z</time>
      </trkpt>
      <trkpt lat="47.50753" lon="6.86427">
        <ele>347.5</ele>
        <time>2014-09-28T08:01:58.000Z</time>
      </trkpt>
      <trkpt lat="47.50754" lon="6.8643">
        <ele>346.6</ele>
        <time>2014-09-28T08:01:59.000Z</time>
      </trkpt>
      <trkpt lat="47.50756" lon="6.86433">
        <ele>346.8</ele>
        <time>2014-09-28T08:02:00.000Z</time>
      </trkpt>
      <trkpt lat="47.50759" lon="6.86437">
        <ele>346.4</ele>
        <time>2014-09-28T08:02:02.000Z</time>
      </trkpt>
      <trkpt lat="47.50761" lon="6.86438">
        <ele>346.8</ele>
        <time>2014-09-28T08:02:03.000Z</time>
      </trkpt>
      <trkpt lat="47.50763" lon="6.86442">
        <ele>348.1</ele>
        <time>2014-09-28T08:02:05.000Z</time>
      </trkpt>
      <trkpt lat="47.50764" lon="6.86444">
        <ele>347.7</ele>
        <time>2014-09-28T08:02:06.000Z</time>
      </trkpt>
      <trkpt lat="47.50766" lon="6.86446">
        <ele>348</ele>
        <time>2014-09-28T08:02:07.000Z</time>
      </trkpt>
      <trkpt lat="47.50767" lon="6.86449">
        <ele>348.7</ele>
        <time>2014-09-28T08:02:08.000Z</time>
      </trkpt>
      <trkpt lat="47.5077" lon="6.86455">
        <ele>348.7</ele>
        <time>2014-09-28T08:02:10.000Z</time>
      </trkpt>
      <trkpt lat="47.50771" lon="6.86457">
        <ele>347.5</ele>
        <time>2014-09-28T08:02:11.000Z</time>
      </trkpt>
      <trkpt lat="47.50773" lon="6.86462">
        <ele>347.3</ele>
        <time>2014-09-28T08:02:13.000Z</time>
      </trkpt>
      <trkpt lat="47.50774" lon="6.86464">
        <ele>348.2</ele>
        <time>2014-09-28T08:02:14.000Z</time>
      </trkpt>
      <trkpt lat="47.50776" lon="6.86469">
        <ele>350.5</ele>
        <time>2014-09-28T08:02:16.000Z</time>
      </trkpt>
      <trkpt lat="47.50778" lon="6.86472">
        <ele>351.7</ele>
        <time>2014-09-28T08:02:17.000Z</time>
      </trkpt>
      <trkpt lat="47.50779" lon="6.86475">
        <ele>352.8</ele>
        <time>2014-09-28T08:02:18.000Z</time>
      </trkpt>
      <trkpt lat="47.5078" lon="6.86478">
        <ele>351.2</ele>
        <time>2014-09-28T08:02:19.000Z</time>
      </trkpt>
      <trkpt lat="47.50781" lon="6.86481">
        <ele>352.8</ele>
        <time>2014-09-28T08:02:20.000Z</time>
      </trkpt>
      <trkpt lat="47.50783" lon="6.86484">
        <ele>352.8</ele>
        <time>2014-09-28T08:02:21.000Z</time>
      </trkpt>
      <trkpt lat="47.50784" lon="6.86486">
        <ele>353</ele>
        <time>2014-09-28T08:02:22.000Z</time>
      </trkpt>
      <trkpt lat="47.50786" lon="6.86488">
        <ele>353.5</ele>
        <time>2014-09-28T08:02:23.000Z</time>
      </trkpt>
      <trkpt lat="47.50788" lon="6.86491">
        <ele>354</ele>
        <time>2014-09-28T08:02:24.000Z</time>
      </trkpt>
      <trkpt lat="47.50789" lon="6.86494">
        <ele>354.3</ele>
        <time>2014-09-28T08:02:25.000Z</time>
      </trkpt>
      <trkpt lat="47.5079" lon="6.86497">
        <ele>354.8</ele>
        <time>2014-09-28T08:02:26.000Z</time>
      </trkpt>
      <trkpt lat="47.50794" lon="6.86506">
        <ele>355</ele>
        <time>2014-09-28T08:02:29.000Z</time>
      </trkpt>
      <trkpt lat="47.50795" lon="6.86509">
        <ele>355.4</ele>
        <time>2014-09-28T08:02:30.000Z</time>
      </trkpt>
      <trkpt lat="47.50797" lon="6.86512">
        <ele>355</ele>
        <time>2014-09-28T08:02:31.000Z</time>
      </trkpt>
      <trkpt lat="47.50799" lon="6.86515">
        <ele>354.9</ele>
        <time>2014-09-28T08:02:32.000Z</time>
      </trkpt>
      <trkpt lat="47.508" lon="6.86518">
        <ele>355.1</ele>
        <time>2014-09-28T08:02:33.000Z</time>
      </trkpt>
      <trkpt lat="47.50802" lon="6.86521">
        <ele>355.6</ele>
        <time>2014-09-28T08:02:34.000Z</time>
      </trkpt>
      <trkpt lat="47.50803" lon="6.86523">
        <ele>356.1</ele>
        <time>2014-09-28T08:02:35.000Z</time>
      </trkpt>
      <trkpt lat="47.50806" lon="6.86528">
        <ele>355.3</ele>
        <time>2014-09-28T08:02:37.026Z</time>
      </trkpt>
      <trkpt lat="47.50807" lon="6.86531">
        <ele>357.1</ele>
        <time>2014-09-28T08:02:38.000Z</time>
      </trkpt>
      <trkpt lat="47.50808" lon="6.86533">
        <ele>357.2</ele>
        <time>2014-09-28T08:02:38.999Z</time>
      </trkpt>
      <trkpt lat="47.5081" lon="6.86537">
        <ele>357.3</ele>
        <time>2014-09-28T08:02:40.000Z</time>
      </trkpt>
      <trkpt lat="47.50811" lon="6.86539">
        <ele>357.2</ele>
        <time>2014-09-28T08:02:40.999Z</time>
      </trkpt>
      <trkpt lat="47.50812" lon="6.86543">
        <ele>357.6</ele>
        <time>2014-09-28T08:02:42.000Z</time>
      </trkpt>
      <trkpt lat="47.50813" lon="6.86546">
        <ele>357.6</ele>
        <time>2014-09-28T08:02:43.000Z</time>
      </trkpt>
      <trkpt lat="47.50815" lon="6.86548">
        <ele>357.5</ele>
        <time>2014-09-28T08:02:43.999Z</time>
      </trkpt>
      <trkpt lat="47.50816" lon="6.86552">
        <ele>358</ele>
        <time>2014-09-28T08:02:45.000Z</time>
      </trkpt>
      <trkpt lat="47.50817" lon="6.86555">
        <ele>358.3</ele>
        <time>2014-09-28T08:02:45.999Z</time>
      </trkpt>
      <trkpt lat="47.50819" lon="6.86559">
        <ele>358.9</ele>
        <time>2014-09-28T08:02:47.000Z</time>
      </trkpt>
      <trkpt lat="47.5082" lon="6.86562">
        <ele>359.4</ele>
        <time>2014-09-28T08:02:47.999Z</time>
      </trkpt>
      <trkpt lat="47.50822" lon="6.86565">
        <ele>361.3</ele>
        <time>2014-09-28T08:02:49.000Z</time>
      </trkpt>
      <trkpt lat="47.50823" lon="6.86568">
        <ele>362.1</ele>
        <time>2014-09-28T08:02:50.000Z</time>
      </trkpt>
      <trkpt lat="47.50824" lon="6.86572">
        <ele>362</ele>
        <time>2014-09-28T08:02:51.000Z</time>
      </trkpt>
      <trkpt lat="47.50825" lon="6.86576">
        <ele>362.5</ele>
        <time>2014-09-28T08:02:52.000Z</time>
      </trkpt>
      <trkpt lat="47.50826" lon="6.86579">
        <ele>363.3</ele>
        <time>2014-09-28T08:02:53.000Z</time>
      </trkpt>
      <trkpt lat="47.50827" lon="6.86583">
        <ele>364.1</ele>
        <time>2014-09-28T08:02:54.000Z</time>
      </trkpt>
      <trkpt lat="47.50828" lon="6.86587">
        <ele>364.7</ele>
        <time>2014-09-28T08:02:55.000Z</time>
      </trkpt>
      <trkpt lat="47.5083" lon="6.86591">
        <ele>364.7</ele>
        <time>2014-09-28T08:02:56.000Z</time>
      </trkpt>
      <trkpt lat="47.50831" lon="6.86594">
        <ele>364.7</ele>
        <time>2014-09-28T08:02:57.000Z</time>
      </trkpt>
      <trkpt lat="47.50832" lon="6.86597">
        <ele>364.6</ele>
        <time>2014-09-28T08:02:58.000Z</time>
      </trkpt>
      <trkpt lat="47.50833" lon="6.866">
        <ele>365</ele>
        <time>2014-09-28T08:02:59.000Z</time>
      </trkpt>
      <trkpt lat="47.50834" lon="6.86603">
        <ele>365.4</ele>
        <time>2014-09-28T08:03:00.000Z</time>
      </trkpt>
      <trkpt lat="47.50835" lon="6.86607">
        <ele>365.3</ele>
        <time>2014-09-28T08:03:01.000Z</time>
      </trkpt>
      <trkpt lat="47.50836" lon="6.8661">
        <ele>365.4</ele>
        <time>2014-09-28T08:03:01.999Z</time>
      </trkpt>
      <trkpt lat="47.50837" lon="6.86614">
        <ele>365.1</ele>
        <time>2014-09-28T08:03:03.000Z</time>
      </trkpt>
      <trkpt lat="47.50838" lon="6.86617">
        <ele>365.3</ele>
        <time>2014-09-28T08:03:03.999Z</time>
      </trkpt>
      <trkpt lat="47.5084" lon="6.8662">
        <ele>366</ele>
        <time>2014-09-28T08:03:05.000Z</time>
      </trkpt>
      <trkpt lat="47.50841" lon="6.86623">
        <ele>365.7</ele>
        <time>2014-09-28T08:03:06.000Z</time>
      </trkpt>
      <trkpt lat="47.50842" lon="6.86627">
        <ele>365.8</ele>
        <time>2014-09-28T08:03:07.000Z</time>
      </trkpt>
      <trkpt lat="47.50843" lon="6.8663">
        <ele>364.3</ele>
        <time>2014-09-28T08:03:08.000Z</time>
      </trkpt>
      <trkpt lat="47.50844" lon="6.86635">
        <ele>364.4</ele>
        <time>2014-09-28T08:03:10.000Z</time>
      </trkpt>
      <trkpt lat="47.50845" lon="6.86638">
        <ele>364.5</ele>
        <time>2014-09-28T08:03:10.999Z</time>
      </trkpt>
      <trkpt lat="47.50847" lon="6.86644">
        <ele>362.6</ele>
        <time>2014-09-28T08:03:12.999Z</time>
      </trkpt>
      <trkpt lat="47.50849" lon="6.86647">
        <ele>364.9</ele>
        <time>2014-09-28T08:03:14.000Z</time>
      </trkpt>
      <trkpt lat="47.5085" lon="6.8665">
        <ele>365</ele>
        <time>2014-09-28T08:03:15.000Z</time>
      </trkpt>
      <trkpt lat="47.50851" lon="6.86653">
        <ele>365.1</ele>
        <time>2014-09-28T08:03:16.000Z</time>
      </trkpt>
      <trkpt lat="47.50852" lon="6.86658">
        <ele>365.6</ele>
        <time>2014-09-28T08:03:17.000Z</time>
      </trkpt>
      <trkpt lat="47.50853" lon="6.86661">
        <ele>365.9</ele>
        <time>2014-09-28T08:03:17.999Z</time>
      </trkpt>
      <trkpt lat="47.50855" lon="6.86666">
        <ele>366.2</ele>
        <time>2014-09-28T08:03:19.000Z</time>
      </trkpt>
      <trkpt lat="47.50856" lon="6.8667">
        <ele>365</ele>
        <time>2014-09-28T08:03:20.000Z</time>
      </trkpt>
      <trkpt lat="47.50858" lon="6.86674">
        <ele>364.8</ele>
        <time>2014-09-28T08:03:21.000Z</time>
      </trkpt>
      <trkpt lat="47.50859" lon="6.86678">
        <ele>365.8</ele>
        <time>2014-09-28T08:03:22.000Z</time>
      </trkpt>
      <trkpt lat="47.5086" lon="6.86683">
        <ele>366.6</ele>
        <time>2014-09-28T08:03:23.000Z</time>
      </trkpt>
      <trkpt lat="47.50862" lon="6.86687">
        <ele>366.8</ele>
        <time>2014-09-28T08:03:24.000Z</time>
      </trkpt>
      <trkpt lat="47.50863" lon="6.86691">
        <ele>366.9</ele>
        <time>2014-09-28T08:03:25.000Z</time>
      </trkpt>
      <trkpt lat="47.50864" lon="6.86695">
        <ele>366.4</ele>
        <time>2014-09-28T08:03:25.933Z</time>
      </trkpt>
      <trkpt lat="47.50868" lon="6.86708">
        <ele>366.6</ele>
        <time>2014-09-28T08:03:29.000Z</time>
      </trkpt>
      <trkpt lat="47.5087" lon="6.86713">
        <ele>367.7</ele>
        <time>2014-09-28T08:03:30.000Z</time>
      </trkpt>
      <trkpt lat="47.50871" lon="6.86716">
        <ele>368.3</ele>
        <time>2014-09-28T08:03:30.998Z</time>
      </trkpt>
      <trkpt lat="47.50873" lon="6.8672">
        <ele>368.5</ele>
        <time>2014-09-28T08:03:32.000Z</time>
      </trkpt>
      <trkpt lat="47.50875" lon="6.86724">
        <ele>368.1</ele>
        <time>2014-09-28T08:03:33.000Z</time>
      </trkpt>
      <trkpt lat="47.50876" lon="6.86727">
        <ele>367.8</ele>
        <time>2014-09-28T08:03:33.998Z</time>
      </trkpt>
      <trkpt lat="47.50878" lon="6.86731">
        <ele>368.2</ele>
        <time>2014-09-28T08:03:34.982Z</time>
      </trkpt>
      <trkpt lat="47.50879" lon="6.86735">
        <ele>368.5</ele>
        <time>2014-09-28T08:03:36.000Z</time>
      </trkpt>
      <trkpt lat="47.5088" lon="6.86738">
        <ele>368.7</ele>
        <time>2014-09-28T08:03:37.000Z</time>
      </trkpt>
      <trkpt lat="47.50881" lon="6.86742">
        <ele>368.8</ele>
        <time>2014-09-28T08:03:38.000Z</time>
      </trkpt>
      <trkpt lat="47.50883" lon="6.86746">
        <ele>369</ele>
        <time>2014-09-28T08:03:39.054Z</time>
      </trkpt>
      <trkpt lat="47.50884" lon="6.86751">
        <ele>369.6</ele>
        <time>2014-09-28T08:03:40.000Z</time>
      </trkpt>
      <trkpt lat="47.50885" lon="6.86755">
        <ele>368.9</ele>
        <time>2014-09-28T08:03:41.000Z</time>
      </trkpt>
      <trkpt lat="47.50886" lon="6.86759">
        <ele>368.5</ele>
        <time>2014-09-28T08:03:42.000Z</time>
      </trkpt>
      <trkpt lat="47.50888" lon="6.86763">
        <ele>368.1</ele>
        <time>2014-09-28T08:03:43.056Z</time>
      </trkpt>
      <trkpt lat="47.50889" lon="6.86767">
        <ele>369.5</ele>
        <time>2014-09-28T08:03:44.000Z</time>
      </trkpt>
      <trkpt lat="47.50891" lon="6.8677">
        <ele>369.6</ele>
        <time>2014-09-28T08:03:45.000Z</time>
      </trkpt>
      <trkpt lat="47.50892" lon="6.86774">
        <ele>369.6</ele>
        <time>2014-09-28T08:03:46.000Z</time>
      </trkpt>
      <trkpt lat="47.50893" lon="6.86777">
        <ele>368.7</ele>
        <time>2014-09-28T08:03:47.000Z</time>
      </trkpt>
      <trkpt lat="47.50894" lon="6.86781">
        <ele>368.1</ele>
        <time>2014-09-28T08:03:47.999Z</time>
      </trkpt>
      <trkpt lat="47.50896" lon="6.86785">
        <ele>368.4</ele>
        <time>2014-09-28T08:03:49.000Z</time>
      </trkpt>
      <trkpt lat="47.50897" lon="6.86788">
        <ele>368.6</ele>
        <time>2014-09-28T08:03:50.000Z</time>
      </trkpt>
      <trkpt lat="47.50899" lon="6.86792">
        <ele>368.5</ele>
        <time>2014-09-28T08:03:51.000Z</time>
      </trkpt>
      <trkpt lat="47.509" lon="6.86796">
        <ele>368.1</ele>
        <time>2014-09-28T08:03:52.000Z</time>
      </trkpt>
      <trkpt lat="47.50901" lon="6.86799">
        <ele>367.8</ele>
        <time>2014-09-28T08:03:53.060Z</time>
      </trkpt>
      <trkpt lat="47.50902" lon="6.86804">
        <ele>370</ele>
        <time>2014-09-28T08:03:54.000Z</time>
      </trkpt>
      <trkpt lat="47.50903" lon="6.86808">
        <ele>370.8</ele>
        <time>2014-09-28T08:03:55.000Z</time>
      </trkpt>
      <trkpt lat="47.50904" lon="6.86812">
        <ele>370.7</ele>
        <time>2014-09-28T08:03:56.000Z</time>
      </trkpt>
      <trkpt lat="47.50906" lon="6.86815">
        <ele>370.6</ele>
        <time>2014-09-28T08:03:57.057Z</time>
      </trkpt>
      <trkpt lat="47.50907" lon="6.8682">
        <ele>372.1</ele>
        <time>2014-09-28T08:03:58.000Z</time>
      </trkpt>
      <trkpt lat="47.50909" lon="6.86824">
        <ele>372.3</ele>
        <time>2014-09-28T08:03:59.000Z</time>
      </trkpt>
      <trkpt lat="47.50911" lon="6.86828">
        <ele>371.9</ele>
        <time>2014-09-28T08:04:00.000Z</time>
      </trkpt>
      <trkpt lat="47.50913" lon="6.86833">
        <ele>372.2</ele>
        <time>2014-09-28T08:04:01.000Z</time>
      </trkpt>
      <trkpt lat="47.50914" lon="6.86837">
        <ele>372.3</ele>
        <time>2014-09-28T08:04:02.000Z</time>
      </trkpt>
      <trkpt lat="47.50916" lon="6.86841">
        <ele>372.7</ele>
        <time>2014-09-28T08:04:03.000Z</time>
      </trkpt>
      <trkpt lat="47.50918" lon="6.86846">
        <ele>373.4</ele>
        <time>2014-09-28T08:04:04.000Z</time>
      </trkpt>
      <trkpt lat="47.5092" lon="6.8685">
        <ele>374</ele>
        <time>2014-09-28T08:04:05.000Z</time>
      </trkpt>
      <trkpt lat="47.50922" lon="6.86854">
        <ele>373.8</ele>
        <time>2014-09-28T08:04:06.000Z</time>
      </trkpt>
      <trkpt lat="47.50924" lon="6.86858">
        <ele>374.1</ele>
        <time>2014-09-28T08:04:07.000Z</time>
      </trkpt>
      <trkpt lat="47.50926" lon="6.86862">
        <ele>374.1</ele>
        <time>2014-09-28T08:04:08.000Z</time>
      </trkpt>
      <trkpt lat="47.50927" lon="6.86865">
        <ele>375.1</ele>
        <time>2014-09-28T08:04:09.000Z</time>
      </trkpt>
      <trkpt lat="47.50929" lon="6.86868">
        <ele>375.8</ele>
        <time>2014-09-28T08:04:09.998Z</time>
      </trkpt>
      <trkpt lat="47.50931" lon="6.86872">
        <ele>375.9</ele>
        <time>2014-09-28T08:04:11.000Z</time>
      </trkpt>
      <trkpt lat="47.50932" lon="6.86876">
        <ele>376.4</ele>
        <time>2014-09-28T08:04:12.000Z</time>
      </trkpt>
      <trkpt lat="47.50934" lon="6.8688">
        <ele>375.3</ele>
        <time>2014-09-28T08:04:13.000Z</time>
      </trkpt>
      <trkpt lat="47.50935" lon="6.86884">
        <ele>375.1</ele>
        <time>2014-09-28T08:04:14.000Z</time>
      </trkpt>
      <trkpt lat="47.50936" lon="6.86889">
        <ele>375.6</ele>
        <time>2014-09-28T08:04:15.000Z</time>
      </trkpt>
      <trkpt lat="47.50937" lon="6.86893">
        <ele>375.8</ele>
        <time>2014-09-28T08:04:16.000Z</time>
      </trkpt>
      <trkpt lat="47.50939" lon="6.86897">
        <ele>375.9</ele>
        <time>2014-09-28T08:04:17.000Z</time>
      </trkpt>
      <trkpt lat="47.50941" lon="6.86901">
        <ele>375.2</ele>
        <time>2014-09-28T08:04:18.000Z</time>
      </trkpt>
      <trkpt lat="47.50942" lon="6.86905">
        <ele>375.4</ele>
        <time>2014-09-28T08:04:19.000Z</time>
      </trkpt>
      <trkpt lat="47.50944" lon="6.86909">
        <ele>375.2</ele>
        <time>2014-09-28T08:04:20.000Z</time>
      </trkpt>
      <trkpt lat="47.50946" lon="6.86913">
        <ele>374.4</ele>
        <time>2014-09-28T08:04:21.000Z</time>
      </trkpt>
      <trkpt lat="47.50947" lon="6.86918">
        <ele>374.9</ele>
        <time>2014-09-28T08:04:22.000Z</time>
      </trkpt>
      <trkpt lat="47.50949" lon="6.86922">
        <ele>374.8</ele>
        <time>2014-09-28T08:04:23.000Z</time>
      </trkpt>
      <trkpt lat="47.50951" lon="6.86927">
        <ele>374.8</ele>
        <time>2014-09-28T08:04:24.000Z</time>
      </trkpt>
      <trkpt lat="47.50953" lon="6.86931">
        <ele>374.7</ele>
        <time>2014-09-28T08:04:25.000Z</time>
      </trkpt>
      <trkpt lat="47.50955" lon="6.86935">
        <ele>375</ele>
        <time>2014-09-28T08:04:26.000Z</time>
      </trkpt>
      <trkpt lat="47.50961" lon="6.86948">
        <ele>374.9</ele>
        <time>2014-09-28T08:04:29.000Z</time>
      </trkpt>
      <trkpt lat="47.50963" lon="6.86952">
        <ele>374.8</ele>
        <time>2014-09-28T08:04:30.000Z</time>
      </trkpt>
      <trkpt lat="47.50965" lon="6.86956">
        <ele>374.5</ele>
        <time>2014-09-28T08:04:31.000Z</time>
      </trkpt>
      <trkpt lat="47.50966" lon="6.86959">
        <ele>372.9</ele>
        <time>2014-09-28T08:04:32.000Z</time>
      </trkpt>
      <trkpt lat="47.50968" lon="6.86962">
        <ele>371.9</ele>
        <time>2014-09-28T08:04:33.000Z</time>
      </trkpt>
      <trkpt lat="47.5097" lon="6.86966">
        <ele>371.7</ele>
        <time>2014-09-28T08:04:34.000Z</time>
      </trkpt>
      <trkpt lat="47.50972" lon="6.8697">
        <ele>371.3</ele>
        <time>2014-09-28T08:04:35.000Z</time>
      </trkpt>
      <trkpt lat="47.50974" lon="6.86974">
        <ele>371.9</ele>
        <time>2014-09-28T08:04:36.000Z</time>
      </trkpt>
      <trkpt lat="47.50976" lon="6.86979">
        <ele>372</ele>
        <time>2014-09-28T08:04:37.000Z</time>
      </trkpt>
      <trkpt lat="47.50978" lon="6.86983">
        <ele>372.5</ele>
        <time>2014-09-28T08:04:38.000Z</time>
      </trkpt>
      <trkpt lat="47.5098" lon="6.86988">
        <ele>372.8</ele>
        <time>2014-09-28T08:04:39.000Z</time>
      </trkpt>
      <trkpt lat="47.50982" lon="6.86993">
        <ele>373.4</ele>
        <time>2014-09-28T08:04:40.000Z</time>
      </trkpt>
      <trkpt lat="47.50985" lon="6.87001">
        <ele>375.8</ele>
        <time>2014-09-28T08:04:41.000Z</time>
      </trkpt>
      <trkpt lat="47.50987" lon="6.87006">
        <ele>377.7</ele>
        <time>2014-09-28T08:04:41.999Z</time>
      </trkpt>
      <trkpt lat="47.50987" lon="6.8701">
        <ele>377.7</ele>
        <time>2014-09-28T08:04:43.000Z</time>
      </trkpt>
      <trkpt lat="47.50989" lon="6.87014">
        <ele>378</ele>
        <time>2014-09-28T08:04:44.000Z</time>
      </trkpt>
      <trkpt lat="47.5099" lon="6.87018">
        <ele>377.7</ele>
        <time>2014-09-28T08:04:45.000Z</time>
      </trkpt>
      <trkpt lat="47.50991" lon="6.87023">
        <ele>377.3</ele>
        <time>2014-09-28T08:04:46.000Z</time>
      </trkpt>
      <trkpt lat="47.50992" lon="6.87027">
        <ele>377</ele>
        <time>2014-09-28T08:04:47.000Z</time>
      </trkpt>
      <trkpt lat="47.50994" lon="6.87028">
        <ele>376</ele>
        <time>2014-09-28T08:04:48.000Z</time>
      </trkpt>
      <trkpt lat="47.50996" lon="6.87031">
        <ele>374.5</ele>
        <time>2014-09-28T08:04:49.000Z</time>
      </trkpt>
      <trkpt lat="47.50998" lon="6.87035">
        <ele>373.7</ele>
        <time>2014-09-28T08:04:50.000Z</time>
      </trkpt>
      <trkpt lat="47.51" lon="6.87039">
        <ele>374.4</ele>
        <time>2014-09-28T08:04:51.000Z</time>
      </trkpt>
      <trkpt lat="47.51001" lon="6.87043">
        <ele>374.9</ele>
        <time>2014-09-28T08:04:51.999Z</time>
      </trkpt>
      <trkpt lat="47.51003" lon="6.87049">
        <ele>376.5</ele>
        <time>2014-09-28T08:04:53.000Z</time>
      </trkpt>
      <trkpt lat="47.51005" lon="6.87054">
        <ele>377.6</ele>
        <time>2014-09-28T08:04:54.000Z</time>
      </trkpt>
      <trkpt lat="47.51007" lon="6.87059">
        <ele>377.9</ele>
        <time>2014-09-28T08:04:55.000Z</time>
      </trkpt>
      <trkpt lat="47.51009" lon="6.87065">
        <ele>376.9</ele>
        <time>2014-09-28T08:04:56.000Z</time>
      </trkpt>
      <trkpt lat="47.51012" lon="6.87072">
        <ele>376</ele>
        <time>2014-09-28T08:04:57.000Z</time>
      </trkpt>
      <trkpt lat="47.51014" lon="6.87078">
        <ele>374.9</ele>
        <time>2014-09-28T08:04:58.000Z</time>
      </trkpt>
      <trkpt lat="47.51016" lon="6.87083">
        <ele>374.4</ele>
        <time>2014-09-28T08:04:59.000Z</time>
      </trkpt>
      <trkpt lat="47.51018" lon="6.87088">
        <ele>374</ele>
        <time>2014-09-28T08:05:00.002Z</time>
      </trkpt>
      <trkpt lat="47.5102" lon="6.87094">
        <ele>374.7</ele>
        <time>2014-09-28T08:05:01.000Z</time>
      </trkpt>
      <trkpt lat="47.51022" lon="6.87102">
        <ele>375.6</ele>
        <time>2014-09-28T08:05:02.000Z</time>
      </trkpt>
      <trkpt lat="47.51024" lon="6.87108">
        <ele>376</ele>
        <time>2014-09-28T08:05:03.000Z</time>
      </trkpt>
      <trkpt lat="47.51026" lon="6.87114">
        <ele>375.7</ele>
        <time>2014-09-28T08:05:04.000Z</time>
      </trkpt>
      <trkpt lat="47.51028" lon="6.8712">
        <ele>374.8</ele>
        <time>2014-09-28T08:05:05.000Z</time>
      </trkpt>
      <trkpt lat="47.51031" lon="6.87127">
        <ele>375.4</ele>
        <time>2014-09-28T08:05:06.000Z</time>
      </trkpt>
      <trkpt lat="47.51033" lon="6.87134">
        <ele>374.9</ele>
        <time>2014-09-28T08:05:07.000Z</time>
      </trkpt>
      <trkpt lat="47.51035" lon="6.87142">
        <ele>375.3</ele>
        <time>2014-09-28T08:05:08.000Z</time>
      </trkpt>
      <trkpt lat="47.51036" lon="6.87149">
        <ele>375.3</ele>
        <time>2014-09-28T08:05:09.000Z</time>
      </trkpt>
      <trkpt lat="47.51039" lon="6.87156">
        <ele>375.3</ele>
        <time>2014-09-28T08:05:10.000Z</time>
      </trkpt>
      <trkpt lat="47.51041" lon="6.87163">
        <ele>375.7</ele>
        <time>2014-09-28T08:05:11.000Z</time>
      </trkpt>
      <trkpt lat="47.51042" lon="6.87169">
        <ele>376</ele>
        <time>2014-09-28T08:05:12.000Z</time>
      </trkpt>
      <trkpt lat="47.51045" lon="6.87175">
        <ele>375.8</ele>
        <time>2014-09-28T08:05:13.000Z</time>
      </trkpt>
      <trkpt lat="47.51047" lon="6.87182">
        <ele>376.1</ele>
        <time>2014-09-28T08:05:14.000Z</time>
      </trkpt>
      <trkpt lat="47.51049" lon="6.87189">
        <ele>376.3</ele>
        <time>2014-09-28T08:05:15.000Z</time>
      </trkpt>
      <trkpt lat="47.51051" lon="6.87195">
        <ele>376.3</ele>
        <time>2014-09-28T08:05:16.000Z</time>
      </trkpt>
      <trkpt lat="47.51053" lon="6.87202">
        <ele>377</ele>
        <time>2014-09-28T08:05:17.000Z</time>
      </trkpt>
      <trkpt lat="47.51055" lon="6.87208">
        <ele>376</ele>
        <time>2014-09-28T08:05:18.000Z</time>
      </trkpt>
      <trkpt lat="47.51058" lon="6.87216">
        <ele>376.9</ele>
        <time>2014-09-28T08:05:19.000Z</time>
      </trkpt>
      <trkpt lat="47.5106" lon="6.87222">
        <ele>377.3</ele>
        <time>2014-09-28T08:05:20.000Z</time>
      </trkpt>
      <trkpt lat="47.51062" lon="6.87228">
        <ele>377.3</ele>
        <time>2014-09-28T08:05:21.000Z</time>
      </trkpt>
      <trkpt lat="47.51065" lon="6.87234">
        <ele>378.1</ele>
        <time>2014-09-28T08:05:22.000Z</time>
      </trkpt>
      <trkpt lat="47.51067" lon="6.87241">
        <ele>378.2</ele>
        <time>2014-09-28T08:05:23.000Z</time>
      </trkpt>
      <trkpt lat="47.51069" lon="6.87247">
        <ele>378.4</ele>
        <time>2014-09-28T08:05:24.000Z</time>
      </trkpt>
      <trkpt lat="47.51072" lon="6.87254">
        <ele>379.1</ele>
        <time>2014-09-28T08:05:25.000Z</time>
      </trkpt>
      <trkpt lat="47.51073" lon="6.8726">
        <ele>378.8</ele>
        <time>2014-09-28T08:05:26.000Z</time>
      </trkpt>
      <trkpt lat="47.51078" lon="6.87274">
        <ele>378.9</ele>
        <time>2014-09-28T08:05:29.000Z</time>
      </trkpt>
      <trkpt lat="47.5108" lon="6.87279">
        <ele>379.4</ele>
        <time>2014-09-28T08:05:30.000Z</time>
      </trkpt>
      <trkpt lat="47.51084" lon="6.87283">
        <ele>380.9</ele>
        <time>2014-09-28T08:05:31.000Z</time>
      </trkpt>
      <trkpt lat="47.51086" lon="6.87287">
        <ele>381.6</ele>
        <time>2014-09-28T08:05:32.000Z</time>
      </trkpt>
      <trkpt lat="47.51085" lon="6.87291">
        <ele>381.9</ele>
        <time>2014-09-28T08:05:33.000Z</time>
      </trkpt>
      <trkpt lat="47.51086" lon="6.87295">
        <ele>381.5</ele>
        <time>2014-09-28T08:05:34.000Z</time>
      </trkpt>
      <trkpt lat="47.51087" lon="6.87298">
        <ele>380.8</ele>
        <time>2014-09-28T08:05:35.000Z</time>
      </trkpt>
      <trkpt lat="47.51088" lon="6.87302">
        <ele>380.4</ele>
        <time>2014-09-28T08:05:36.000Z</time>
      </trkpt>
      <trkpt lat="47.51089" lon="6.87306">
        <ele>381</ele>
        <time>2014-09-28T08:05:37.000Z</time>
      </trkpt>
      <trkpt lat="47.5109" lon="6.87309">
        <ele>381.7</ele>
        <time>2014-09-28T08:05:38.000Z</time>
      </trkpt>
      <trkpt lat="47.51091" lon="6.87312">
        <ele>381.9</ele>
        <time>2014-09-28T08:05:39.000Z</time>
      </trkpt>
      <trkpt lat="47.51093" lon="6.87316">
        <ele>381.8</ele>
        <time>2014-09-28T08:05:41.000Z</time>
      </trkpt>
      <trkpt lat="47.51094" lon="6.87318">
        <ele>381.7</ele>
        <time>2014-09-28T08:05:42.000Z</time>
      </trkpt>
      <trkpt lat="47.51097" lon="6.87323">
        <ele>383.9</ele>
        <time>2014-09-28T08:05:44.000Z</time>
      </trkpt>
      <trkpt lat="47.51098" lon="6.87326">
        <ele>384</ele>
        <time>2014-09-28T08:05:45.000Z</time>
      </trkpt>
      <trkpt lat="47.511" lon="6.87328">
        <ele>384.4</ele>
        <time>2014-09-28T08:05:46.000Z</time>
      </trkpt>
      <trkpt lat="47.51101" lon="6.87331">
        <ele>384.2</ele>
        <time>2014-09-28T08:05:47.000Z</time>
      </trkpt>
      <trkpt lat="47.51104" lon="6.87336">
        <ele>383.4</ele>
        <time>2014-09-28T08:05:49.000Z</time>
      </trkpt>
      <trkpt lat="47.51106" lon="6.87339">
        <ele>384.6</ele>
        <time>2014-09-28T08:05:50.000Z</time>
      </trkpt>
      <trkpt lat="47.51108" lon="6.87342">
        <ele>384.9</ele>
        <time>2014-09-28T08:05:51.000Z</time>
      </trkpt>
      <trkpt lat="47.51109" lon="6.87346">
        <ele>385.9</ele>
        <time>2014-09-28T08:05:52.000Z</time>
      </trkpt>
      <trkpt lat="47.51111" lon="6.8735">
        <ele>385.2</ele>
        <time>2014-09-28T08:05:53.000Z</time>
      </trkpt>
      <trkpt lat="47.51112" lon="6.87353">
        <ele>384.9</ele>
        <time>2014-09-28T08:05:54.000Z</time>
      </trkpt>
      <trkpt lat="47.51114" lon="6.87356">
        <ele>384.6</ele>
        <time>2014-09-28T08:05:55.000Z</time>
      </trkpt>
      <trkpt lat="47.51114" lon="6.87359">
        <ele>383.3</ele>
        <time>2014-09-28T08:05:56.000Z</time>
      </trkpt>
      <trkpt lat="47.51115" lon="6.87365">
        <ele>382.4</ele>
        <time>2014-09-28T08:05:58.000Z</time>
      </trkpt>
      <trkpt lat="47.51115" lon="6.87368">
        <ele>381.8</ele>
        <time>2014-09-28T08:05:59.000Z</time>
      </trkpt>
      <trkpt lat="47.51117" lon="6.87373">
        <ele>379.4</ele>
        <time>2014-09-28T08:06:01.000Z</time>
      </trkpt>
      <trkpt lat="47.51117" lon="6.87377">
        <ele>378.4</ele>
        <time>2014-09-28T08:06:02.000Z</time>
      </trkpt>
      <trkpt lat="47.51118" lon="6.8738">
        <ele>377.8</ele>
        <time>2014-09-28T08:06:03.000Z</time>
      </trkpt>
      <trkpt lat="47.5112" lon="6.87383">
        <ele>377.3</ele>
        <time>2014-09-28T08:06:04.000Z</time>
      </trkpt>
      <trkpt lat="47.51121" lon="6.87387">
        <ele>379.3</ele>
        <time>2014-09-28T08:06:05.000Z</time>
      </trkpt>
      <trkpt lat="47.51123" lon="6.87392">
        <ele>380.1</ele>
        <time>2014-09-28T08:06:06.000Z</time>
      </trkpt>
      <trkpt lat="47.51124" lon="6.87396">
        <ele>379.2</ele>
        <time>2014-09-28T08:06:07.000Z</time>
      </trkpt>
      <trkpt lat="47.51126" lon="6.87401">
        <ele>379</ele>
        <time>2014-09-28T08:06:08.000Z</time>
      </trkpt>
      <trkpt lat="47.51127" lon="6.87405">
        <ele>379</ele>
        <time>2014-09-28T08:06:09.000Z</time>
      </trkpt>
      <trkpt lat="47.51129" lon="6.8741">
        <ele>379.8</ele>
        <time>2014-09-28T08:06:10.000Z</time>
      </trkpt>
      <trkpt lat="47.51131" lon="6.87415">
        <ele>380.5</ele>
        <time>2014-09-28T08:06:11.000Z</time>
      </trkpt>
      <trkpt lat="47.51133" lon="6.8742">
        <ele>380.7</ele>
        <time>2014-09-28T08:06:12.000Z</time>
      </trkpt>
      <trkpt lat="47.51135" lon="6.87425">
        <ele>380.6</ele>
        <time>2014-09-28T08:06:13.000Z</time>
      </trkpt>
      <trkpt lat="47.51137" lon="6.8743">
        <ele>381.2</ele>
        <time>2014-09-28T08:06:14.000Z</time>
      </trkpt>
      <trkpt lat="47.51139" lon="6.87435">
        <ele>382.3</ele>
        <time>2014-09-28T08:06:15.000Z</time>
      </trkpt>
      <trkpt lat="47.5114" lon="6.87439">
        <ele>382.7</ele>
        <time>2014-09-28T08:06:16.000Z</time>
      </trkpt>
      <trkpt lat="47.51142" lon="6.87444">
        <ele>383.1</ele>
        <time>2014-09-28T08:06:17.000Z</time>
      </trkpt>
      <trkpt lat="47.51143" lon="6.87448">
        <ele>387.2</ele>
        <time>2014-09-28T08:06:18.000Z</time>
      </trkpt>
      <trkpt lat="47.51145" lon="6.87451">
        <ele>388.4</ele>
        <time>2014-09-28T08:06:19.000Z</time>
      </trkpt>
      <trkpt lat="47.51147" lon="6.87455">
        <ele>388.8</ele>
        <time>2014-09-28T08:06:20.000Z</time>
      </trkpt>
      <trkpt lat="47.51149" lon="6.8746">
        <ele>387.8</ele>
        <time>2014-09-28T08:06:21.000Z</time>
      </trkpt>
      <trkpt lat="47.51151" lon="6.87466">
        <ele>387.7</ele>
        <time>2014-09-28T08:06:22.000Z</time>
      </trkpt>
      <trkpt lat="47.51153" lon="6.87471">
        <ele>385.3</ele>
        <time>2014-09-28T08:06:23.000Z</time>
      </trkpt>
      <trkpt lat="47.51155" lon="6.87477">
        <ele>385</ele>
        <time>2014-09-28T08:06:24.000Z</time>
      </trkpt>
      <trkpt lat="47.51157" lon="6.87482">
        <ele>384.7</ele>
        <time>2014-09-28T08:06:25.000Z</time>
      </trkpt>
      <trkpt lat="47.51158" lon="6.87487">
        <ele>384.5</ele>
        <time>2014-09-28T08:06:26.000Z</time>
      </trkpt>
      <trkpt lat="47.51163" lon="6.87503">
        <ele>385</ele>
        <time>2014-09-28T08:06:29.000Z</time>
      </trkpt>
      <trkpt lat="47.51164" lon="6.87508">
        <ele>383.3</ele>
        <time>2014-09-28T08:06:30.000Z</time>
      </trkpt>
      <trkpt lat="47.51165" lon="6.87513">
        <ele>382.4</ele>
        <time>2014-09-28T08:06:31.000Z</time>
      </trkpt>
      <trkpt lat="47.51166" lon="6.87517">
        <ele>384</ele>
        <time>2014-09-28T08:06:32.000Z</time>
      </trkpt>
      <trkpt lat="47.51167" lon="6.8752">
        <ele>384.5</ele>
        <time>2014-09-28T08:06:33.000Z</time>
      </trkpt>
      <trkpt lat="47.51168" lon="6.87523">
        <ele>384.3</ele>
        <time>2014-09-28T08:06:34.000Z</time>
      </trkpt>
      <trkpt lat="47.5117" lon="6.87527">
        <ele>384</ele>
        <time>2014-09-28T08:06:35.000Z</time>
      </trkpt>
      <trkpt lat="47.51172" lon="6.8753">
        <ele>383.9</ele>
        <time>2014-09-28T08:06:36.000Z</time>
      </trkpt>
      <trkpt lat="47.51173" lon="6.87534">
        <ele>386</ele>
        <time>2014-09-28T08:06:37.000Z</time>
      </trkpt>
      <trkpt lat="47.51175" lon="6.87539">
        <ele>387.2</ele>
        <time>2014-09-28T08:06:38.000Z</time>
      </trkpt>
      <trkpt lat="47.51177" lon="6.87544">
        <ele>387.4</ele>
        <time>2014-09-28T08:06:39.000Z</time>
      </trkpt>
      <trkpt lat="47.51179" lon="6.8755">
        <ele>387.4</ele>
        <time>2014-09-28T08:06:40.000Z</time>
      </trkpt>
      <trkpt lat="47.5118" lon="6.87556">
        <ele>387.8</ele>
        <time>2014-09-28T08:06:41.000Z</time>
      </trkpt>
      <trkpt lat="47.51182" lon="6.87561">
        <ele>387.8</ele>
        <time>2014-09-28T08:06:42.000Z</time>
      </trkpt>
      <trkpt lat="47.51184" lon="6.87567">
        <ele>387</ele>
        <time>2014-09-28T08:06:43.000Z</time>
      </trkpt>
      <trkpt lat="47.51186" lon="6.87573">
        <ele>391.3</ele>
        <time>2014-09-28T08:06:44.000Z</time>
      </trkpt>
      <trkpt lat="47.51188" lon="6.87578">
        <ele>392.4</ele>
        <time>2014-09-28T08:06:45.000Z</time>
      </trkpt>
      <trkpt lat="47.5119" lon="6.87582">
        <ele>393.6</ele>
        <time>2014-09-28T08:06:46.000Z</time>
      </trkpt>
      <trkpt lat="47.51192" lon="6.87586">
        <ele>393.8</ele>
        <time>2014-09-28T08:06:47.000Z</time>
      </trkpt>
      <trkpt lat="47.51194" lon="6.87589">
        <ele>393.4</ele>
        <time>2014-09-28T08:06:48.000Z</time>
      </trkpt>
      <trkpt lat="47.51195" lon="6.87593">
        <ele>393.2</ele>
        <time>2014-09-28T08:06:49.000Z</time>
      </trkpt>
      <trkpt lat="47.51198" lon="6.87597">
        <ele>392.7</ele>
        <time>2014-09-28T08:06:50.000Z</time>
      </trkpt>
      <trkpt lat="47.51199" lon="6.87602">
        <ele>393.4</ele>
        <time>2014-09-28T08:06:51.000Z</time>
      </trkpt>
      <trkpt lat="47.51201" lon="6.87607">
        <ele>393.4</ele>
        <time>2014-09-28T08:06:52.000Z</time>
      </trkpt>
      <trkpt lat="47.51203" lon="6.87613">
        <ele>393.9</ele>
        <time>2014-09-28T08:06:53.000Z</time>
      </trkpt>
      <trkpt lat="47.51204" lon="6.87619">
        <ele>395.7</ele>
        <time>2014-09-28T08:06:54.000Z</time>
      </trkpt>
      <trkpt lat="47.51206" lon="6.87623">
        <ele>396.2</ele>
        <time>2014-09-28T08:06:55.000Z</time>
      </trkpt>
      <trkpt lat="47.51207" lon="6.87628">
        <ele>397</ele>
        <time>2014-09-28T08:06:56.000Z</time>
      </trkpt>
      <trkpt lat="47.51208" lon="6.87633">
        <ele>397.5</ele>
        <time>2014-09-28T08:06:57.000Z</time>
      </trkpt>
      <trkpt lat="47.5121" lon="6.87637">
        <ele>397.9</ele>
        <time>2014-09-28T08:06:58.000Z</time>
      </trkpt>
      <trkpt lat="47.51211" lon="6.87643">
        <ele>398.5</ele>
        <time>2014-09-28T08:06:59.000Z</time>
      </trkpt>
      <trkpt lat="47.51213" lon="6.87649">
        <ele>398.8</ele>
        <time>2014-09-28T08:07:00.000Z</time>
      </trkpt>
      <trkpt lat="47.51215" lon="6.87655">
        <ele>399.6</ele>
        <time>2014-09-28T08:07:01.000Z</time>
      </trkpt>
      <trkpt lat="47.51217" lon="6.87662">
        <ele>400</ele>
        <time>2014-09-28T08:07:02.000Z</time>
      </trkpt>
      <trkpt lat="47.51219" lon="6.8767">
        <ele>400.7</ele>
        <time>2014-09-28T08:07:03.000Z</time>
      </trkpt>
      <trkpt lat="47.51221" lon="6.87678">
        <ele>399.7</ele>
        <time>2014-09-28T08:07:04.000Z</time>
      </trkpt>
      <trkpt lat="47.51222" lon="6.87686">
        <ele>399.9</ele>
        <time>2014-09-28T08:07:05.000Z</time>
      </trkpt>
      <trkpt lat="47.51224" lon="6.87693">
        <ele>400.2</ele>
        <time>2014-09-28T08:07:06.000Z</time>
      </trkpt>
      <trkpt lat="47.51225" lon="6.87699">
        <ele>399.6</ele>
        <time>2014-09-28T08:07:07.000Z</time>
      </trkpt>
      <trkpt lat="47.51227" lon="6.87705">
        <ele>397.4</ele>
        <time>2014-09-28T08:07:08.000Z</time>
      </trkpt>
      <trkpt lat="47.51228" lon="6.8771">
        <ele>395.8</ele>
        <time>2014-09-28T08:07:09.000Z</time>
      </trkpt>
      <trkpt lat="47.51229" lon="6.87714">
        <ele>396.5</ele>
        <time>2014-09-28T08:07:10.000Z</time>
      </trkpt>
      <trkpt lat="47.51231" lon="6.87719">
        <ele>395.3</ele>
        <time>2014-09-28T08:07:11.000Z</time>
      </trkpt>
      <trkpt lat="47.51233" lon="6.87724">
        <ele>395.1</ele>
        <time>2014-09-28T08:07:12.000Z</time>
      </trkpt>
      <trkpt lat="47.51235" lon="6.87729">
        <ele>393.9</ele>
        <time>2014-09-28T08:07:13.000Z</time>
      </trkpt>
      <trkpt lat="47.51238" lon="6.87733">
        <ele>389.4</ele>
        <time>2014-09-28T08:07:14.000Z</time>
      </trkpt>
      <trkpt lat="47.5124" lon="6.87737">
        <ele>385.7</ele>
        <time>2014-09-28T08:07:15.000Z</time>
      </trkpt>
      <trkpt lat="47.51242" lon="6.8774">
        <ele>383.6</ele>
        <time>2014-09-28T08:07:16.000Z</time>
      </trkpt>
      <trkpt lat="47.51243" lon="6.87743">
        <ele>382</ele>
        <time>2014-09-28T08:07:17.000Z</time>
      </trkpt>
      <trkpt lat="47.51244" lon="6.87746">
        <ele>381.1</ele>
        <time>2014-09-28T08:07:18.000Z</time>
      </trkpt>
      <trkpt lat="47.51246" lon="6.8775">
        <ele>380.3</ele>
        <time>2014-09-28T08:07:19.000Z</time>
      </trkpt>
      <trkpt lat="47.51247" lon="6.87754">
        <ele>379.6</ele>
        <time>2014-09-28T08:07:20.000Z</time>
      </trkpt>
      <trkpt lat="47.51248" lon="6.87758">
        <ele>375.4</ele>
        <time>2014-09-28T08:07:21.000Z</time>
      </trkpt>
      <trkpt lat="47.51248" lon="6.87763">
        <ele>373.9</ele>
        <time>2014-09-28T08:07:22.000Z</time>
      </trkpt>
      <trkpt lat="47.51249" lon="6.87768">
        <ele>374.4</ele>
        <time>2014-09-28T08:07:23.000Z</time>
      </trkpt>
      <trkpt lat="47.5125" lon="6.87774">
        <ele>375</ele>
        <time>2014-09-28T08:07:24.000Z</time>
      </trkpt>
      <trkpt lat="47.51252" lon="6.8778">
        <ele>376</ele>
        <time>2014-09-28T08:07:25.000Z</time>
      </trkpt>
      <trkpt lat="47.51254" lon="6.87787">
        <ele>376.3</ele>
        <time>2014-09-28T08:07:26.000Z</time>
      </trkpt>
      <trkpt lat="47.51256" lon="6.87794">
        <ele>377.1</ele>
        <time>2014-09-28T08:07:27.000Z</time>
      </trkpt>
      <trkpt lat="47.51261" lon="6.87831">
        <ele>379.6</ele>
        <time>2014-09-28T08:07:35.000Z</time>
      </trkpt>
      <trkpt lat="47.51262" lon="6.87836">
        <ele>379</ele>
        <time>2014-09-28T08:07:37.000Z</time>
      </trkpt>
      <trkpt lat="47.51263" lon="6.87839">
        <ele>379.6</ele>
        <time>2014-09-28T08:07:38.000Z</time>
      </trkpt>
      <trkpt lat="47.51264" lon="6.87844">
        <ele>378.6</ele>
        <time>2014-09-28T08:07:40.000Z</time>
      </trkpt>
      <trkpt lat="47.51265" lon="6.87846">
        <ele>378.4</ele>
        <time>2014-09-28T08:07:41.000Z</time>
      </trkpt>
      <trkpt lat="47.51267" lon="6.87851">
        <ele>380.6</ele>
        <time>2014-09-28T08:07:43.000Z</time>
      </trkpt>
      <trkpt lat="47.51267" lon="6.87855">
        <ele>379.2</ele>
        <time>2014-09-28T08:07:44.000Z</time>
      </trkpt>
      <trkpt lat="47.51269" lon="6.87859">
        <ele>379.9</ele>
        <time>2014-09-28T08:07:45.000Z</time>
      </trkpt>
      <trkpt lat="47.5127" lon="6.87865">
        <ele>381.3</ele>
        <time>2014-09-28T08:07:46.000Z</time>
      </trkpt>
      <trkpt lat="47.51271" lon="6.8787">
        <ele>381</ele>
        <time>2014-09-28T08:07:47.000Z</time>
      </trkpt>
      <trkpt lat="47.51273" lon="6.87876">
        <ele>381.5</ele>
        <time>2014-09-28T08:07:48.000Z</time>
      </trkpt>
      <trkpt lat="47.51274" lon="6.87881">
        <ele>379.6</ele>
        <time>2014-09-28T08:07:49.000Z</time>
      </trkpt>
      <trkpt lat="47.51276" lon="6.87886">
        <ele>379.5</ele>
        <time>2014-09-28T08:07:50.000Z</time>
      </trkpt>
      <trkpt lat="47.51277" lon="6.87891">
        <ele>379.5</ele>
        <time>2014-09-28T08:07:51.000Z</time>
      </trkpt>
      <trkpt lat="47.51278" lon="6.87896">
        <ele>379.6</ele>
        <time>2014-09-28T08:07:52.000Z</time>
      </trkpt>
      <trkpt lat="47.5128" lon="6.87901">
        <ele>379.7</ele>
        <time>2014-09-28T08:07:53.000Z</time>
      </trkpt>
      <trkpt lat="47.51281" lon="6.87906">
        <ele>380</ele>
        <time>2014-09-28T08:07:54.000Z</time>
      </trkpt>
      <trkpt lat="47.51283" lon="6.87911">
        <ele>380.2</ele>
        <time>2014-09-28T08:07:55.000Z</time>
      </trkpt>
      <trkpt lat="47.51284" lon="6.87916">
        <ele>380.4</ele>
        <time>2014-09-28T08:07:56.000Z</time>
      </trkpt>
      <trkpt lat="47.51286" lon="6.87922">
        <ele>380.7</ele>
        <time>2014-09-28T08:07:57.000Z</time>
      </trkpt>
      <trkpt lat="47.51287" lon="6.87928">
        <ele>381.1</ele>
        <time>2014-09-28T08:07:58.000Z</time>
      </trkpt>
      <trkpt lat="47.51289" lon="6.87934">
        <ele>381.2</ele>
        <time>2014-09-28T08:07:59.000Z</time>
      </trkpt>
      <trkpt lat="47.51291" lon="6.87941">
        <ele>381.3</ele>
        <time>2014-09-28T08:08:00.000Z</time>
      </trkpt>
      <trkpt lat="47.51292" lon="6.87948">
        <ele>382</ele>
        <time>2014-09-28T08:08:01.000Z</time>
      </trkpt>
      <trkpt lat="47.51294" lon="6.87955">
        <ele>382.5</ele>
        <time>2014-09-28T08:08:02.000Z</time>
      </trkpt>
      <trkpt lat="47.51295" lon="6.87962">
        <ele>382.5</ele>
        <time>2014-09-28T08:08:03.000Z</time>
      </trkpt>
      <trkpt lat="47.51297" lon="6.87968">
        <ele>383</ele>
        <time>2014-09-28T08:08:04.000Z</time>
      </trkpt>
      <trkpt lat="47.51299" lon="6.87975">
        <ele>383.5</ele>
        <time>2014-09-28T08:08:05.000Z</time>
      </trkpt>
      <trkpt lat="47.513" lon="6.87981">
        <ele>386.2</ele>
        <time>2014-09-28T08:08:06.000Z</time>
      </trkpt>
      <trkpt lat="47.51303" lon="6.87986">
        <ele>385.1</ele>
        <time>2014-09-28T08:08:07.000Z</time>
      </trkpt>
      <trkpt lat="47.51305" lon="6.87991">
        <ele>384.9</ele>
        <time>2014-09-28T08:08:08.000Z</time>
      </trkpt>
      <trkpt lat="47.51306" lon="6.87995">
        <ele>378.8</ele>
        <time>2014-09-28T08:08:09.000Z</time>
      </trkpt>
      <trkpt lat="47.51308" lon="6.87999">
        <ele>376.3</ele>
        <time>2014-09-28T08:08:10.000Z</time>
      </trkpt>
      <trkpt lat="47.51308" lon="6.88003">
        <ele>377</ele>
        <time>2014-09-28T08:08:11.000Z</time>
      </trkpt>
      <trkpt lat="47.51309" lon="6.88008">
        <ele>377.9</ele>
        <time>2014-09-28T08:08:12.000Z</time>
      </trkpt>
      <trkpt lat="47.51309" lon="6.88014">
        <ele>377.5</ele>
        <time>2014-09-28T08:08:13.000Z</time>
      </trkpt>
      <trkpt lat="47.5131" lon="6.88021">
        <ele>377.1</ele>
        <time>2014-09-28T08:08:14.000Z</time>
      </trkpt>
      <trkpt lat="47.51311" lon="6.88029">
        <ele>377.3</ele>
        <time>2014-09-28T08:08:15.000Z</time>
      </trkpt>
      <trkpt lat="47.51312" lon="6.88036">
        <ele>377.2</ele>
        <time>2014-09-28T08:08:16.000Z</time>
      </trkpt>
      <trkpt lat="47.51312" lon="6.88043">
        <ele>377.1</ele>
        <time>2014-09-28T08:08:17.000Z</time>
      </trkpt>
      <trkpt lat="47.51313" lon="6.88049">
        <ele>376.8</ele>
        <time>2014-09-28T08:08:18.000Z</time>
      </trkpt>
      <trkpt lat="47.51314" lon="6.88055">
        <ele>374.9</ele>
        <time>2014-09-28T08:08:19.000Z</time>
      </trkpt>
      <trkpt lat="47.51315" lon="6.88061">
        <ele>374.8</ele>
        <time>2014-09-28T08:08:20.000Z</time>
      </trkpt>
      <trkpt lat="47.51316" lon="6.88067">
        <ele>374.8</ele>
        <time>2014-09-28T08:08:21.000Z</time>
      </trkpt>
      <trkpt lat="47.51317" lon="6.88073">
        <ele>373.6</ele>
        <time>2014-09-28T08:08:22.000Z</time>
      </trkpt>
      <trkpt lat="47.51319" lon="6.88078">
        <ele>373.3</ele>
        <time>2014-09-28T08:08:23.000Z</time>
      </trkpt>
      <trkpt lat="47.51322" lon="6.88084">
        <ele>374.8</ele>
        <time>2014-09-28T08:08:24.000Z</time>
      </trkpt>
      <trkpt lat="47.51324" lon="6.8809">
        <ele>375.4</ele>
        <time>2014-09-28T08:08:25.000Z</time>
      </trkpt>
      <trkpt lat="47.51326" lon="6.88096">
        <ele>376.1</ele>
        <time>2014-09-28T08:08:26.000Z</time>
      </trkpt>
      <trkpt lat="47.51331" lon="6.88113">
        <ele>372.5</ele>
        <time>2014-09-28T08:08:29.000Z</time>
      </trkpt>
      <trkpt lat="47.51333" lon="6.88119">
        <ele>372.4</ele>
        <time>2014-09-28T08:08:30.000Z</time>
      </trkpt>
      <trkpt lat="47.51334" lon="6.88126">
        <ele>372.6</ele>
        <time>2014-09-28T08:08:31.000Z</time>
      </trkpt>
      <trkpt lat="47.51335" lon="6.88133">
        <ele>371.9</ele>
        <time>2014-09-28T08:08:32.000Z</time>
      </trkpt>
      <trkpt lat="47.51336" lon="6.88148">
        <ele>372.6</ele>
        <time>2014-09-28T08:08:33.000Z</time>
      </trkpt>
      <trkpt lat="47.51337" lon="6.88155">
        <ele>372.3</ele>
        <time>2014-09-28T08:08:34.000Z</time>
      </trkpt>
      <trkpt lat="47.51338" lon="6.88162">
        <ele>373.1</ele>
        <time>2014-09-28T08:08:35.000Z</time>
      </trkpt>
      <trkpt lat="47.51339" lon="6.8817">
        <ele>374.7</ele>
        <time>2014-09-28T08:08:36.000Z</time>
      </trkpt>
      <trkpt lat="47.5134" lon="6.88177">
        <ele>375.4</ele>
        <time>2014-09-28T08:08:37.000Z</time>
      </trkpt>
      <trkpt lat="47.51341" lon="6.88182">
        <ele>374.8</ele>
        <time>2014-09-28T08:08:38.000Z</time>
      </trkpt>
      <trkpt lat="47.51342" lon="6.88187">
        <ele>374.7</ele>
        <time>2014-09-28T08:08:39.000Z</time>
      </trkpt>
      <trkpt lat="47.51343" lon="6.88191">
        <ele>374.1</ele>
        <time>2014-09-28T08:08:40.000Z</time>
      </trkpt>
      <trkpt lat="47.51343" lon="6.88198">
        <ele>375.2</ele>
        <time>2014-09-28T08:08:41.000Z</time>
      </trkpt>
      <trkpt lat="47.51344" lon="6.88203">
        <ele>375</ele>
        <time>2014-09-28T08:08:41.999Z</time>
      </trkpt>
      <trkpt lat="47.51345" lon="6.8821">
        <ele>375.2</ele>
        <time>2014-09-28T08:08:43.000Z</time>
      </trkpt>
      <trkpt lat="47.51345" lon="6.88216">
        <ele>375.4</ele>
        <time>2014-09-28T08:08:44.000Z</time>
      </trkpt>
      <trkpt lat="47.51346" lon="6.88226">
        <ele>376.6</ele>
        <time>2014-09-28T08:08:45.000Z</time>
      </trkpt>
      <trkpt lat="47.51349" lon="6.88235">
        <ele>377.6</ele>
        <time>2014-09-28T08:08:46.000Z</time>
      </trkpt>
      <trkpt lat="47.51349" lon="6.88241">
        <ele>377</ele>
        <time>2014-09-28T08:08:47.000Z</time>
      </trkpt>
      <trkpt lat="47.5135" lon="6.88247">
        <ele>376.8</ele>
        <time>2014-09-28T08:08:48.000Z</time>
      </trkpt>
      <trkpt lat="47.5135" lon="6.88255">
        <ele>377.5</ele>
        <time>2014-09-28T08:08:49.000Z</time>
      </trkpt>
      <trkpt lat="47.5135" lon="6.8826">
        <ele>377.7</ele>
        <time>2014-09-28T08:08:50.000Z</time>
      </trkpt>
      <trkpt lat="47.51351" lon="6.88266">
        <ele>377.3</ele>
        <time>2014-09-28T08:08:51.000Z</time>
      </trkpt>
      <trkpt lat="47.51352" lon="6.88271">
        <ele>377</ele>
        <time>2014-09-28T08:08:52.000Z</time>
      </trkpt>
      <trkpt lat="47.51352" lon="6.88278">
        <ele>374.8</ele>
        <time>2014-09-28T08:08:53.000Z</time>
      </trkpt>
      <trkpt lat="47.51352" lon="6.88283">
        <ele>373.2</ele>
        <time>2014-09-28T08:08:54.003Z</time>
      </trkpt>
      <trkpt lat="47.51353" lon="6.88292">
        <ele>376</ele>
        <time>2014-09-28T08:08:55.000Z</time>
      </trkpt>
      <trkpt lat="47.51353" lon="6.88298">
        <ele>376.9</ele>
        <time>2014-09-28T08:08:56.000Z</time>
      </trkpt>
      <trkpt lat="47.51353" lon="6.88303">
        <ele>377.1</ele>
        <time>2014-09-28T08:08:57.000Z</time>
      </trkpt>
      <trkpt lat="47.51353" lon="6.88308">
        <ele>377</ele>
        <time>2014-09-28T08:08:58.000Z</time>
      </trkpt>
      <trkpt lat="47.51353" lon="6.88313">
        <ele>377.4</ele>
        <time>2014-09-28T08:08:59.000Z</time>
      </trkpt>
      <trkpt lat="47.51353" lon="6.88319">
        <ele>377.6</ele>
        <time>2014-09-28T08:09:00.000Z</time>
      </trkpt>
      <trkpt lat="47.51353" lon="6.88325">
        <ele>379.6</ele>
        <time>2014-09-28T08:09:01.000Z</time>
      </trkpt>
      <trkpt lat="47.51353" lon="6.8833">
        <ele>379.4</ele>
        <time>2014-09-28T08:09:02.000Z</time>
      </trkpt>
      <trkpt lat="47.51353" lon="6.88336">
        <ele>379.3</ele>
        <time>2014-09-28T08:09:03.000Z</time>
      </trkpt>
      <trkpt lat="47.51353" lon="6.88341">
        <ele>379.5</ele>
        <time>2014-09-28T08:09:04.000Z</time>
      </trkpt>
      <trkpt lat="47.51352" lon="6.88347">
        <ele>378.4</ele>
        <time>2014-09-28T08:09:05.000Z</time>
      </trkpt>
      <trkpt lat="47.51351" lon="6.88357">
        <ele>379.2</ele>
        <time>2014-09-28T08:09:06.000Z</time>
      </trkpt>
      <trkpt lat="47.51351" lon="6.88365">
        <ele>379.3</ele>
        <time>2014-09-28T08:09:07.000Z</time>
      </trkpt>
      <trkpt lat="47.51351" lon="6.88372">
        <ele>378.5</ele>
        <time>2014-09-28T08:09:08.000Z</time>
      </trkpt>
      <trkpt lat="47.51351" lon="6.88379">
        <ele>377.4</ele>
        <time>2014-09-28T08:09:09.000Z</time>
      </trkpt>
      <trkpt lat="47.51352" lon="6.88388">
        <ele>377.7</ele>
        <time>2014-09-28T08:09:10.000Z</time>
      </trkpt>
      <trkpt lat="47.51352" lon="6.88395">
        <ele>377.6</ele>
        <time>2014-09-28T08:09:11.000Z</time>
      </trkpt>
      <trkpt lat="47.51352" lon="6.88401">
        <ele>377.2</ele>
        <time>2014-09-28T08:09:12.000Z</time>
      </trkpt>
      <trkpt lat="47.51351" lon="6.88407">
        <ele>376.3</ele>
        <time>2014-09-28T08:09:13.000Z</time>
      </trkpt>
      <trkpt lat="47.51351" lon="6.88413">
        <ele>376.3</ele>
        <time>2014-09-28T08:09:14.000Z</time>
      </trkpt>
      <trkpt lat="47.5135" lon="6.88422">
        <ele>376.9</ele>
        <time>2014-09-28T08:09:15.000Z</time>
      </trkpt>
      <trkpt lat="47.51352" lon="6.88429">
        <ele>376.6</ele>
        <time>2014-09-28T08:09:16.000Z</time>
      </trkpt>
      <trkpt lat="47.51353" lon="6.88435">
        <ele>377.4</ele>
        <time>2014-09-28T08:09:17.000Z</time>
      </trkpt>
      <trkpt lat="47.51354" lon="6.88441">
        <ele>377.4</ele>
        <time>2014-09-28T08:09:18.000Z</time>
      </trkpt>
      <trkpt lat="47.51355" lon="6.88446">
        <ele>377.7</ele>
        <time>2014-09-28T08:09:19.000Z</time>
      </trkpt>
      <trkpt lat="47.51355" lon="6.88451">
        <ele>378</ele>
        <time>2014-09-28T08:09:20.000Z</time>
      </trkpt>
      <trkpt lat="47.51355" lon="6.88455">
        <ele>378.4</ele>
        <time>2014-09-28T08:09:21.000Z</time>
      </trkpt>
      <trkpt lat="47.51354" lon="6.88459">
        <ele>378.5</ele>
        <time>2014-09-28T08:09:22.000Z</time>
      </trkpt>
      <trkpt lat="47.51354" lon="6.88463">
        <ele>378.7</ele>
        <time>2014-09-28T08:09:23.000Z</time>
      </trkpt>
      <trkpt lat="47.51353" lon="6.88467">
        <ele>378.8</ele>
        <time>2014-09-28T08:09:24.000Z</time>
      </trkpt>
      <trkpt lat="47.51353" lon="6.88472">
        <ele>378.7</ele>
        <time>2014-09-28T08:09:25.000Z</time>
      </trkpt>
      <trkpt lat="47.51353" lon="6.88476">
        <ele>379.6</ele>
        <time>2014-09-28T08:09:26.000Z</time>
      </trkpt>
      <trkpt lat="47.51353" lon="6.88482">
        <ele>377.7</ele>
        <time>2014-09-28T08:09:27.000Z</time>
      </trkpt>
      <trkpt lat="47.51355" lon="6.88527">
        <ele>375.4</ele>
        <time>2014-09-28T08:09:35.000Z</time>
      </trkpt>
      <trkpt lat="47.51355" lon="6.88532">
        <ele>371.2</ele>
        <time>2014-09-28T08:09:36.000Z</time>
      </trkpt>
      <trkpt lat="47.51355" lon="6.88537">
        <ele>366.8</ele>
        <time>2014-09-28T08:09:37.000Z</time>
      </trkpt>
      <trkpt lat="47.51356" lon="6.88542">
        <ele>366.7</ele>
        <time>2014-09-28T08:09:38.000Z</time>
      </trkpt>
      <trkpt lat="47.51357" lon="6.88549">
        <ele>369.2</ele>
        <time>2014-09-28T08:09:39.000Z</time>
      </trkpt>
      <trkpt lat="47.51358" lon="6.88556">
        <ele>370.4</ele>
        <time>2014-09-28T08:09:40.000Z</time>
      </trkpt>
      <trkpt lat="47.51359" lon="6.88564">
        <ele>371.1</ele>
        <time>2014-09-28T08:09:41.000Z</time>
      </trkpt>
      <trkpt lat="47.5136" lon="6.88572">
        <ele>370.2</ele>
        <time>2014-09-28T08:09:42.000Z</time>
      </trkpt>
      <trkpt lat="47.51361" lon="6.8858">
        <ele>369.5</ele>
        <time>2014-09-28T08:09:43.000Z</time>
      </trkpt>
      <trkpt lat="47.51362" lon="6.88586">
        <ele>369.8</ele>
        <time>2014-09-28T08:09:44.000Z</time>
      </trkpt>
      <trkpt lat="47.51362" lon="6.88592">
        <ele>370.3</ele>
        <time>2014-09-28T08:09:45.000Z</time>
      </trkpt>
      <trkpt lat="47.51362" lon="6.88597">
        <ele>371.4</ele>
        <time>2014-09-28T08:09:46.000Z</time>
      </trkpt>
      <trkpt lat="47.51362" lon="6.88601">
        <ele>372.4</ele>
        <time>2014-09-28T08:09:47.000Z</time>
      </trkpt>
      <trkpt lat="47.51363" lon="6.88606">
        <ele>372.6</ele>
        <time>2014-09-28T08:09:48.000Z</time>
      </trkpt>
      <trkpt lat="47.51364" lon="6.8861">
        <ele>373.3</ele>
        <time>2014-09-28T08:09:49.000Z</time>
      </trkpt>
      <trkpt lat="47.51364" lon="6.88616">
        <ele>372.3</ele>
        <time>2014-09-28T08:09:50.000Z</time>
      </trkpt>
      <trkpt lat="47.51363" lon="6.88623">
        <ele>373.7</ele>
        <time>2014-09-28T08:09:51.000Z</time>
      </trkpt>
      <trkpt lat="47.51362" lon="6.8863">
        <ele>374.2</ele>
        <time>2014-09-28T08:09:52.000Z</time>
      </trkpt>
      <trkpt lat="47.51361" lon="6.88636">
        <ele>375.5</ele>
        <time>2014-09-28T08:09:53.000Z</time>
      </trkpt>
      <trkpt lat="47.51361" lon="6.88642">
        <ele>377.3</ele>
        <time>2014-09-28T08:09:54.000Z</time>
      </trkpt>
      <trkpt lat="47.51361" lon="6.88648">
        <ele>377.6</ele>
        <time>2014-09-28T08:09:55.000Z</time>
      </trkpt>
      <trkpt lat="47.51361" lon="6.88654">
        <ele>377.8</ele>
        <time>2014-09-28T08:09:56.000Z</time>
      </trkpt>
      <trkpt lat="47.5136" lon="6.8866">
        <ele>377.5</ele>
        <time>2014-09-28T08:09:57.000Z</time>
      </trkpt>
      <trkpt lat="47.5136" lon="6.88666">
        <ele>377.8</ele>
        <time>2014-09-28T08:09:58.000Z</time>
      </trkpt>
      <trkpt lat="47.51359" lon="6.88672">
        <ele>377.7</ele>
        <time>2014-09-28T08:09:59.000Z</time>
      </trkpt>
      <trkpt lat="47.51358" lon="6.88677">
        <ele>378.3</ele>
        <time>2014-09-28T08:10:00.000Z</time>
      </trkpt>
      <trkpt lat="47.51356" lon="6.88683">
        <ele>378.3</ele>
        <time>2014-09-28T08:10:01.000Z</time>
      </trkpt>
      <trkpt lat="47.51355" lon="6.88688">
        <ele>378.5</ele>
        <time>2014-09-28T08:10:02.000Z</time>
      </trkpt>
      <trkpt lat="47.51354" lon="6.88693">
        <ele>378.6</ele>
        <time>2014-09-28T08:10:03.000Z</time>
      </trkpt>
      <trkpt lat="47.51353" lon="6.88698">
        <ele>378.4</ele>
        <time>2014-09-28T08:10:04.000Z</time>
      </trkpt>
      <trkpt lat="47.51352" lon="6.88705">
        <ele>378.5</ele>
        <time>2014-09-28T08:10:05.000Z</time>
      </trkpt>
      <trkpt lat="47.51351" lon="6.88712">
        <ele>381</ele>
        <time>2014-09-28T08:10:06.000Z</time>
      </trkpt>
      <trkpt lat="47.5135" lon="6.88719">
        <ele>381.7</ele>
        <time>2014-09-28T08:10:07.000Z</time>
      </trkpt>
      <trkpt lat="47.51349" lon="6.88726">
        <ele>381.9</ele>
        <time>2014-09-28T08:10:08.000Z</time>
      </trkpt>
      <trkpt lat="47.51347" lon="6.88733">
        <ele>379.8</ele>
        <time>2014-09-28T08:10:09.000Z</time>
      </trkpt>
      <trkpt lat="47.51346" lon="6.88739">
        <ele>379.1</ele>
        <time>2014-09-28T08:10:10.000Z</time>
      </trkpt>
      <trkpt lat="47.51344" lon="6.88745">
        <ele>378.5</ele>
        <time>2014-09-28T08:10:11.000Z</time>
      </trkpt>
      <trkpt lat="47.51342" lon="6.8875">
        <ele>378</ele>
        <time>2014-09-28T08:10:12.000Z</time>
      </trkpt>
      <trkpt lat="47.51341" lon="6.88754">
        <ele>377.6</ele>
        <time>2014-09-28T08:10:13.000Z</time>
      </trkpt>
      <trkpt lat="47.51339" lon="6.88758">
        <ele>377.1</ele>
        <time>2014-09-28T08:10:14.000Z</time>
      </trkpt>
      <trkpt lat="47.51338" lon="6.88762">
        <ele>379.3</ele>
        <time>2014-09-28T08:10:15.000Z</time>
      </trkpt>
      <trkpt lat="47.51337" lon="6.88766">
        <ele>380.3</ele>
        <time>2014-09-28T08:10:16.000Z</time>
      </trkpt>
      <trkpt lat="47.51335" lon="6.88769">
        <ele>381</ele>
        <time>2014-09-28T08:10:17.000Z</time>
      </trkpt>
      <trkpt lat="47.51334" lon="6.88772">
        <ele>382.1</ele>
        <time>2014-09-28T08:10:18.000Z</time>
      </trkpt>
      <trkpt lat="47.51332" lon="6.88776">
        <ele>384.3</ele>
        <time>2014-09-28T08:10:19.000Z</time>
      </trkpt>
      <trkpt lat="47.51331" lon="6.8878">
        <ele>384</ele>
        <time>2014-09-28T08:10:20.000Z</time>
      </trkpt>
      <trkpt lat="47.5133" lon="6.88785">
        <ele>383.7</ele>
        <time>2014-09-28T08:10:21.000Z</time>
      </trkpt>
      <trkpt lat="47.51329" lon="6.8879">
        <ele>384.4</ele>
        <time>2014-09-28T08:10:22.000Z</time>
      </trkpt>
      <trkpt lat="47.51329" lon="6.88795">
        <ele>385</ele>
        <time>2014-09-28T08:10:23.000Z</time>
      </trkpt>
      <trkpt lat="47.51328" lon="6.888">
        <ele>387.3</ele>
        <time>2014-09-28T08:10:24.000Z</time>
      </trkpt>
      <trkpt lat="47.51327" lon="6.88804">
        <ele>388.9</ele>
        <time>2014-09-28T08:10:25.000Z</time>
      </trkpt>
      <trkpt lat="47.51327" lon="6.88808">
        <ele>390.6</ele>
        <time>2014-09-28T08:10:26.000Z</time>
      </trkpt>
      <trkpt lat="47.51326" lon="6.88812">
        <ele>391</ele>
        <time>2014-09-28T08:10:27.000Z</time>
      </trkpt>
      <trkpt lat="47.51327" lon="6.88837">
        <ele>388.3</ele>
        <time>2014-09-28T08:10:35.000Z</time>
      </trkpt>
      <trkpt lat="47.51327" lon="6.8884">
        <ele>387.6</ele>
        <time>2014-09-28T08:10:36.000Z</time>
      </trkpt>
      <trkpt lat="47.51326" lon="6.88844">
        <ele>384.8</ele>
        <time>2014-09-28T08:10:37.000Z</time>
      </trkpt>
      <trkpt lat="47.51325" lon="6.88849">
        <ele>382.5</ele>
        <time>2014-09-28T08:10:38.000Z</time>
      </trkpt>
      <trkpt lat="47.51323" lon="6.88857">
        <ele>377.4</ele>
        <time>2014-09-28T08:10:39.000Z</time>
      </trkpt>
      <trkpt lat="47.51321" lon="6.88865">
        <ele>375.8</ele>
        <time>2014-09-28T08:10:40.000Z</time>
      </trkpt>
      <trkpt lat="47.51319" lon="6.88873">
        <ele>373.6</ele>
        <time>2014-09-28T08:10:41.000Z</time>
      </trkpt>
      <trkpt lat="47.51318" lon="6.8888">
        <ele>370.1</ele>
        <time>2014-09-28T08:10:42.000Z</time>
      </trkpt>
      <trkpt lat="47.51316" lon="6.88885">
        <ele>369.8</ele>
        <time>2014-09-28T08:10:43.000Z</time>
      </trkpt>
      <trkpt lat="47.51314" lon="6.8889">
        <ele>370.1</ele>
        <time>2014-09-28T08:10:44.000Z</time>
      </trkpt>
      <trkpt lat="47.51313" lon="6.88894">
        <ele>370.3</ele>
        <time>2014-09-28T08:10:45.000Z</time>
      </trkpt>
      <trkpt lat="47.51311" lon="6.88897">
        <ele>368.4</ele>
        <time>2014-09-28T08:10:46.000Z</time>
      </trkpt>
      <trkpt lat="47.51308" lon="6.88901">
        <ele>369.4</ele>
        <time>2014-09-28T08:10:48.000Z</time>
      </trkpt>
      <trkpt lat="47.51308" lon="6.88902">
        <ele>369.4</ele>
        <time>2014-09-28T08:10:49.000Z</time>
      </trkpt>
      <trkpt lat="47.51309" lon="6.88908">
        <ele>370.4</ele>
        <time>2014-09-28T08:10:51.000Z</time>
      </trkpt>
      <trkpt lat="47.51309" lon="6.8891">
        <ele>371</ele>
        <time>2014-09-28T08:10:52.000Z</time>
      </trkpt>
      <trkpt lat="47.5131" lon="6.88916">
        <ele>374</ele>
        <time>2014-09-28T08:10:57.000Z</time>
      </trkpt>
      <trkpt lat="47.51311" lon="6.88916">
        <ele>374</ele>
        <time>2014-09-28T08:10:58.000Z</time>
      </trkpt>
      <trkpt lat="47.5131" lon="6.88923">
        <ele>377.4</ele>
        <time>2014-09-28T08:11:13.000Z</time>
      </trkpt>
      <trkpt lat="47.5131" lon="6.88923">
        <ele>378</ele>
        <time>2014-09-28T08:11:14.000Z</time>
      </trkpt>
      <trkpt lat="47.51308" lon="6.88929">
        <ele>381.4</ele>
        <time>2014-09-28T08:11:41.000Z</time>
      </trkpt>
      <trkpt lat="47.51308" lon="6.88929">
        <ele>382.2</ele>
        <time>2014-09-28T08:11:42.000Z</time>
      </trkpt>
      <trkpt lat="47.51309" lon="6.88936">
        <ele>389.2</ele>
        <time>2014-09-28T08:12:07.000Z</time>
      </trkpt>
      <trkpt lat="47.51309" lon="6.88936">
        <ele>388.9</ele>
        <time>2014-09-28T08:12:08.000Z</time>
      </trkpt>
      <trkpt lat="47.51308" lon="6.88942">
        <ele>399.7</ele>
        <time>2014-09-28T08:13:08.000Z</time>
      </trkpt>
      <trkpt lat="47.51308" lon="6.88943">
        <ele>399.9</ele>
        <time>2014-09-28T08:13:09.000Z</time>
      </trkpt>
      <trkpt lat="47.51306" lon="6.88937">
        <ele>405.6</ele>
        <time>2014-09-28T08:15:48.000Z</time>
      </trkpt>
      <trkpt lat="47.51306" lon="6.88936">
        <ele>405.4</ele>
        <time>2014-09-28T08:15:49.000Z</time>
      </trkpt>
      <trkpt lat="47.51305" lon="6.88941">
        <ele>400.8</ele>
        <time>2014-09-28T08:16:20.000Z</time>
      </trkpt>
      <trkpt lat="47.51305" lon="6.88943">
        <ele>399.5</ele>
        <time>2014-09-28T08:16:21.000Z</time>
      </trkpt>
      <trkpt lat="47.51304" lon="6.88948">
        <ele>395.2</ele>
        <time>2014-09-28T08:16:23.000Z</time>
      </trkpt>
      <trkpt lat="47.51303" lon="6.88952">
        <ele>393.5</ele>
        <time>2014-09-28T08:16:24.000Z</time>
      </trkpt>
      <trkpt lat="47.51303" lon="6.88957">
        <ele>392.8</ele>
        <time>2014-09-28T08:16:25.000Z</time>
      </trkpt>
      <trkpt lat="47.51302" lon="6.88961">
        <ele>393.1</ele>
        <time>2014-09-28T08:16:26.000Z</time>
      </trkpt>
      <trkpt lat="47.513" lon="6.8897">
        <ele>387.3</ele>
        <time>2014-09-28T08:16:29.000Z</time>
      </trkpt>
      <trkpt lat="47.51298" lon="6.88974">
        <ele>388.2</ele>
        <time>2014-09-28T08:16:31.000Z</time>
      </trkpt>
      <trkpt lat="47.51297" lon="6.88975">
        <ele>389.8</ele>
        <time>2014-09-28T08:16:32.000Z</time>
      </trkpt>
      <trkpt lat="47.51296" lon="6.88979">
        <ele>388.4</ele>
        <time>2014-09-28T08:16:34.000Z</time>
      </trkpt>
      <trkpt lat="47.51296" lon="6.88982">
        <ele>386.3</ele>
        <time>2014-09-28T08:16:35.000Z</time>
      </trkpt>
      <trkpt lat="47.51297" lon="6.88985">
        <ele>384.9</ele>
        <time>2014-09-28T08:16:36.000Z</time>
      </trkpt>
      <trkpt lat="47.51297" lon="6.88989">
        <ele>384.4</ele>
        <time>2014-09-28T08:16:37.000Z</time>
      </trkpt>
      <trkpt lat="47.51297" lon="6.88994">
        <ele>384</ele>
        <time>2014-09-28T08:16:38.000Z</time>
      </trkpt>
      <trkpt lat="47.51297" lon="6.88998">
        <ele>384</ele>
        <time>2014-09-28T08:16:39.000Z</time>
      </trkpt>
      <trkpt lat="47.51297" lon="6.89003">
        <ele>383.6</ele>
        <time>2014-09-28T08:16:40.000Z</time>
      </trkpt>
      <trkpt lat="47.51297" lon="6.89008">
        <ele>381.6</ele>
        <time>2014-09-28T08:16:41.000Z</time>
      </trkpt>
      <trkpt lat="47.51296" lon="6.89012">
        <ele>381</ele>
        <time>2014-09-28T08:16:42.000Z</time>
      </trkpt>
      <trkpt lat="47.51295" lon="6.89017">
        <ele>380.4</ele>
        <time>2014-09-28T08:16:43.000Z</time>
      </trkpt>
      <trkpt lat="47.51294" lon="6.89022">
        <ele>379.7</ele>
        <time>2014-09-28T08:16:44.000Z</time>
      </trkpt>
      <trkpt lat="47.51293" lon="6.89026">
        <ele>376.7</ele>
        <time>2014-09-28T08:16:45.000Z</time>
      </trkpt>
      <trkpt lat="47.51291" lon="6.89029">
        <ele>375.5</ele>
        <time>2014-09-28T08:16:46.000Z</time>
      </trkpt>
      <trkpt lat="47.51289" lon="6.89031">
        <ele>374.1</ele>
        <time>2014-09-28T08:16:47.000Z</time>
      </trkpt>
      <trkpt lat="47.51287" lon="6.89033">
        <ele>373.7</ele>
        <time>2014-09-28T08:16:48.000Z</time>
      </trkpt>
      <trkpt lat="47.51285" lon="6.89035">
        <ele>373.8</ele>
        <time>2014-09-28T08:16:49.000Z</time>
      </trkpt>
      <trkpt lat="47.51283" lon="6.89039">
        <ele>376.5</ele>
        <time>2014-09-28T08:16:50.000Z</time>
      </trkpt>
      <trkpt lat="47.51281" lon="6.89045">
        <ele>379.9</ele>
        <time>2014-09-28T08:16:51.000Z</time>
      </trkpt>
      <trkpt lat="47.5128" lon="6.89051">
        <ele>379.3</ele>
        <time>2014-09-28T08:16:52.000Z</time>
      </trkpt>
      <trkpt lat="47.51279" lon="6.89057">
        <ele>379.6</ele>
        <time>2014-09-28T08:16:53.000Z</time>
      </trkpt>
      <trkpt lat="47.51278" lon="6.89062">
        <ele>382.1</ele>
        <time>2014-09-28T08:16:54.000Z</time>
      </trkpt>
      <trkpt lat="47.51277" lon="6.89067">
        <ele>377.7</ele>
        <time>2014-09-28T08:16:55.000Z</time>
      </trkpt>
      <trkpt lat="47.51276" lon="6.89071">
        <ele>375.7</ele>
        <time>2014-09-28T08:16:56.000Z</time>
      </trkpt>
      <trkpt lat="47.51275" lon="6.89075">
        <ele>374.5</ele>
        <time>2014-09-28T08:16:57.000Z</time>
      </trkpt>
      <trkpt lat="47.51275" lon="6.89079">
        <ele>373.1</ele>
        <time>2014-09-28T08:16:58.000Z</time>
      </trkpt>
      <trkpt lat="47.51274" lon="6.89083">
        <ele>372.1</ele>
        <time>2014-09-28T08:16:59.000Z</time>
      </trkpt>
      <trkpt lat="47.51273" lon="6.89087">
        <ele>370.6</ele>
        <time>2014-09-28T08:17:00.000Z</time>
      </trkpt>
      <trkpt lat="47.51271" lon="6.8909">
        <ele>370.5</ele>
        <time>2014-09-28T08:17:01.000Z</time>
      </trkpt>
      <trkpt lat="47.5127" lon="6.89093">
        <ele>370.3</ele>
        <time>2014-09-28T08:17:02.000Z</time>
      </trkpt>
      <trkpt lat="47.51268" lon="6.89098">
        <ele>370.7</ele>
        <time>2014-09-28T08:17:03.000Z</time>
      </trkpt>
      <trkpt lat="47.51265" lon="6.89103">
        <ele>370.7</ele>
        <time>2014-09-28T08:17:04.000Z</time>
      </trkpt>
      <trkpt lat="47.51264" lon="6.89108">
        <ele>369.9</ele>
        <time>2014-09-28T08:17:05.000Z</time>
      </trkpt>
      <trkpt lat="47.51262" lon="6.89112">
        <ele>368.1</ele>
        <time>2014-09-28T08:17:06.000Z</time>
      </trkpt>
      <trkpt lat="47.51261" lon="6.89116">
        <ele>368.1</ele>
        <time>2014-09-28T08:17:07.000Z</time>
      </trkpt>
      <trkpt lat="47.51259" lon="6.8912">
        <ele>368.1</ele>
        <time>2014-09-28T08:17:08.000Z</time>
      </trkpt>
      <trkpt lat="47.51258" lon="6.89124">
        <ele>368.9</ele>
        <time>2014-09-28T08:17:09.000Z</time>
      </trkpt>
      <trkpt lat="47.51257" lon="6.89129">
        <ele>369.9</ele>
        <time>2014-09-28T08:17:10.000Z</time>
      </trkpt>
      <trkpt lat="47.51255" lon="6.89135">
        <ele>370.7</ele>
        <time>2014-09-28T08:17:11.000Z</time>
      </trkpt>
      <trkpt lat="47.51254" lon="6.8914">
        <ele>371.4</ele>
        <time>2014-09-28T08:17:12.000Z</time>
      </trkpt>
      <trkpt lat="47.51252" lon="6.89145">
        <ele>371.9</ele>
        <time>2014-09-28T08:17:13.000Z</time>
      </trkpt>
      <trkpt lat="47.5125" lon="6.89148">
        <ele>368.4</ele>
        <time>2014-09-28T08:17:14.000Z</time>
      </trkpt>
      <trkpt lat="47.51248" lon="6.89152">
        <ele>367.8</ele>
        <time>2014-09-28T08:17:15.000Z</time>
      </trkpt>
      <trkpt lat="47.51246" lon="6.89155">
        <ele>370.4</ele>
        <time>2014-09-28T08:17:16.000Z</time>
      </trkpt>
      <trkpt lat="47.51244" lon="6.89159">
        <ele>371.5</ele>
        <time>2014-09-28T08:17:17.000Z</time>
      </trkpt>
      <trkpt lat="47.51242" lon="6.89163">
        <ele>372</ele>
        <time>2014-09-28T08:17:18.000Z</time>
      </trkpt>
      <trkpt lat="47.5124" lon="6.89167">
        <ele>372.7</ele>
        <time>2014-09-28T08:17:19.000Z</time>
      </trkpt>
      <trkpt lat="47.51239" lon="6.8917">
        <ele>373.9</ele>
        <time>2014-09-28T08:17:20.000Z</time>
      </trkpt>
      <trkpt lat="47.51237" lon="6.89175">
        <ele>373.8</ele>
        <time>2014-09-28T08:17:21.000Z</time>
      </trkpt>
      <trkpt lat="47.51236" lon="6.89179">
        <ele>373.4</ele>
        <time>2014-09-28T08:17:22.000Z</time>
      </trkpt>
      <trkpt lat="47.51235" lon="6.89184">
        <ele>375.3</ele>
        <time>2014-09-28T08:17:23.000Z</time>
      </trkpt>
      <trkpt lat="47.51234" lon="6.89189">
        <ele>374.8</ele>
        <time>2014-09-28T08:17:24.000Z</time>
      </trkpt>
      <trkpt lat="47.51233" lon="6.89195">
        <ele>376</ele>
        <time>2014-09-28T08:17:25.000Z</time>
      </trkpt>
      <trkpt lat="47.51231" lon="6.89201">
        <ele>376.7</ele>
        <time>2014-09-28T08:17:26.000Z</time>
      </trkpt>
      <trkpt lat="47.51228" lon="6.89218">
        <ele>377</ele>
        <time>2014-09-28T08:17:29.000Z</time>
      </trkpt>
      <trkpt lat="47.51227" lon="6.89224">
        <ele>376.8</ele>
        <time>2014-09-28T08:17:30.000Z</time>
      </trkpt>
      <trkpt lat="47.51226" lon="6.89229">
        <ele>376.7</ele>
        <time>2014-09-28T08:17:31.000Z</time>
      </trkpt>
      <trkpt lat="47.51225" lon="6.89235">
        <ele>376.8</ele>
        <time>2014-09-28T08:17:32.000Z</time>
      </trkpt>
      <trkpt lat="47.51224" lon="6.8924">
        <ele>377.1</ele>
        <time>2014-09-28T08:17:33.000Z</time>
      </trkpt>
      <trkpt lat="47.51223" lon="6.89247">
        <ele>377.2</ele>
        <time>2014-09-28T08:17:34.000Z</time>
      </trkpt>
      <trkpt lat="47.51223" lon="6.89253">
        <ele>377.5</ele>
        <time>2014-09-28T08:17:35.000Z</time>
      </trkpt>
      <trkpt lat="47.51222" lon="6.89259">
        <ele>377.8</ele>
        <time>2014-09-28T08:17:36.000Z</time>
      </trkpt>
      <trkpt lat="47.51222" lon="6.89271">
        <ele>378.6</ele>
        <time>2014-09-28T08:17:37.000Z</time>
      </trkpt>
      <trkpt lat="47.51222" lon="6.89278">
        <ele>378.6</ele>
        <time>2014-09-28T08:17:38.000Z</time>
      </trkpt>
      <trkpt lat="47.51221" lon="6.89286">
        <ele>378.9</ele>
        <time>2014-09-28T08:17:39.000Z</time>
      </trkpt>
      <trkpt lat="47.5122" lon="6.89295">
        <ele>380.5</ele>
        <time>2014-09-28T08:17:40.000Z</time>
      </trkpt>
      <trkpt lat="47.51219" lon="6.89303">
        <ele>380.4</ele>
        <time>2014-09-28T08:17:41.000Z</time>
      </trkpt>
      <trkpt lat="47.51218" lon="6.89311">
        <ele>381.3</ele>
        <time>2014-09-28T08:17:42.000Z</time>
      </trkpt>
      <trkpt lat="47.51216" lon="6.89319">
        <ele>381.5</ele>
        <time>2014-09-28T08:17:43.000Z</time>
      </trkpt>
      <trkpt lat="47.51215" lon="6.89327">
        <ele>381.7</ele>
        <time>2014-09-28T08:17:44.000Z</time>
      </trkpt>
      <trkpt lat="47.51213" lon="6.89332">
        <ele>380.9</ele>
        <time>2014-09-28T08:17:45.000Z</time>
      </trkpt>
      <trkpt lat="47.51211" lon="6.89337">
        <ele>379.7</ele>
        <time>2014-09-28T08:17:46.000Z</time>
      </trkpt>
      <trkpt lat="47.5121" lon="6.89343">
        <ele>379.2</ele>
        <time>2014-09-28T08:17:47.000Z</time>
      </trkpt>
      <trkpt lat="47.51209" lon="6.8935">
        <ele>376.8</ele>
        <time>2014-09-28T08:17:48.000Z</time>
      </trkpt>
      <trkpt lat="47.51208" lon="6.89359">
        <ele>379.4</ele>
        <time>2014-09-28T08:17:49.000Z</time>
      </trkpt>
      <trkpt lat="47.51207" lon="6.89368">
        <ele>380.6</ele>
        <time>2014-09-28T08:17:50.000Z</time>
      </trkpt>
      <trkpt lat="47.51206" lon="6.89375">
        <ele>378.5</ele>
        <time>2014-09-28T08:17:51.000Z</time>
      </trkpt>
      <trkpt lat="47.51206" lon="6.89382">
        <ele>378.3</ele>
        <time>2014-09-28T08:17:52.000Z</time>
      </trkpt>
      <trkpt lat="47.51206" lon="6.89389">
        <ele>379.4</ele>
        <time>2014-09-28T08:17:53.000Z</time>
      </trkpt>
      <trkpt lat="47.51206" lon="6.89396">
        <ele>381.3</ele>
        <time>2014-09-28T08:17:54.000Z</time>
      </trkpt>
      <trkpt lat="47.51205" lon="6.89402">
        <ele>382.3</ele>
        <time>2014-09-28T08:17:55.000Z</time>
      </trkpt>
      <trkpt lat="47.51204" lon="6.89408">
        <ele>383.1</ele>
        <time>2014-09-28T08:17:56.000Z</time>
      </trkpt>
      <trkpt lat="47.51203" lon="6.89414">
        <ele>383.8</ele>
        <time>2014-09-28T08:17:57.000Z</time>
      </trkpt>
      <trkpt lat="47.51202" lon="6.8942">
        <ele>382</ele>
        <time>2014-09-28T08:17:58.000Z</time>
      </trkpt>
      <trkpt lat="47.51201" lon="6.89426">
        <ele>381.6</ele>
        <time>2014-09-28T08:17:59.000Z</time>
      </trkpt>
      <trkpt lat="47.512" lon="6.89432">
        <ele>381.6</ele>
        <time>2014-09-28T08:18:00.000Z</time>
      </trkpt>
      <trkpt lat="47.51199" lon="6.89437">
        <ele>381.8</ele>
        <time>2014-09-28T08:18:01.000Z</time>
      </trkpt>
      <trkpt lat="47.51199" lon="6.89443">
        <ele>381.4</ele>
        <time>2014-09-28T08:18:02.000Z</time>
      </trkpt>
      <trkpt lat="47.51198" lon="6.89449">
        <ele>381.1</ele>
        <time>2014-09-28T08:18:03.000Z</time>
      </trkpt>
      <trkpt lat="47.51197" lon="6.89455">
        <ele>380.7</ele>
        <time>2014-09-28T08:18:04.000Z</time>
      </trkpt>
      <trkpt lat="47.51196" lon="6.8946">
        <ele>380.1</ele>
        <time>2014-09-28T08:18:05.000Z</time>
      </trkpt>
      <trkpt lat="47.51195" lon="6.89467">
        <ele>380.5</ele>
        <time>2014-09-28T08:18:06.000Z</time>
      </trkpt>
      <trkpt lat="47.51193" lon="6.89473">
        <ele>381.2</ele>
        <time>2014-09-28T08:18:07.000Z</time>
      </trkpt>
      <trkpt lat="47.5119" lon="6.89478">
        <ele>381.2</ele>
        <time>2014-09-28T08:18:08.000Z</time>
      </trkpt>
      <trkpt lat="47.51189" lon="6.89484">
        <ele>380.7</ele>
        <time>2014-09-28T08:18:09.000Z</time>
      </trkpt>
      <trkpt lat="47.51188" lon="6.89489">
        <ele>381.3</ele>
        <time>2014-09-28T08:18:10.000Z</time>
      </trkpt>
      <trkpt lat="47.51188" lon="6.89494">
        <ele>381.7</ele>
        <time>2014-09-28T08:18:11.000Z</time>
      </trkpt>
      <trkpt lat="47.51189" lon="6.89498">
        <ele>381.7</ele>
        <time>2014-09-28T08:18:12.000Z</time>
      </trkpt>
      <trkpt lat="47.5119" lon="6.89503">
        <ele>382.1</ele>
        <time>2014-09-28T08:18:13.000Z</time>
      </trkpt>
      <trkpt lat="47.5119" lon="6.89508">
        <ele>383.2</ele>
        <time>2014-09-28T08:18:14.000Z</time>
      </trkpt>
      <trkpt lat="47.5119" lon="6.89513">
        <ele>384.1</ele>
        <time>2014-09-28T08:18:15.000Z</time>
      </trkpt>
      <trkpt lat="47.5119" lon="6.89517">
        <ele>383</ele>
        <time>2014-09-28T08:18:16.000Z</time>
      </trkpt>
      <trkpt lat="47.51189" lon="6.89522">
        <ele>383.3</ele>
        <time>2014-09-28T08:18:18.000Z</time>
      </trkpt>
      <trkpt lat="47.51189" lon="6.89524">
        <ele>383.6</ele>
        <time>2014-09-28T08:18:19.000Z</time>
      </trkpt>
      <trkpt lat="47.51189" lon="6.89529">
        <ele>385.1</ele>
        <time>2014-09-28T08:18:21.000Z</time>
      </trkpt>
      <trkpt lat="47.51189" lon="6.89532">
        <ele>384.9</ele>
        <time>2014-09-28T08:18:22.000Z</time>
      </trkpt>
      <trkpt lat="47.51188" lon="6.89536">
        <ele>385.1</ele>
        <time>2014-09-28T08:18:23.000Z</time>
      </trkpt>
      <trkpt lat="47.51188" lon="6.89541">
        <ele>384.2</ele>
        <time>2014-09-28T08:18:24.000Z</time>
      </trkpt>
      <trkpt lat="47.51187" lon="6.89545">
        <ele>384.2</ele>
        <time>2014-09-28T08:18:25.000Z</time>
      </trkpt>
      <trkpt lat="47.51186" lon="6.8955">
        <ele>384</ele>
        <time>2014-09-28T08:18:26.000Z</time>
      </trkpt>
      <trkpt lat="47.51184" lon="6.8956">
        <ele>384</ele>
        <time>2014-09-28T08:18:29.000Z</time>
      </trkpt>
      <trkpt lat="47.51184" lon="6.89564">
        <ele>384.6</ele>
        <time>2014-09-28T08:18:30.000Z</time>
      </trkpt>
      <trkpt lat="47.51184" lon="6.89568">
        <ele>385.4</ele>
        <time>2014-09-28T08:18:31.000Z</time>
      </trkpt>
      <trkpt lat="47.51185" lon="6.89572">
        <ele>385.5</ele>
        <time>2014-09-28T08:18:32.000Z</time>
      </trkpt>
      <trkpt lat="47.51185" lon="6.89576">
        <ele>386.3</ele>
        <time>2014-09-28T08:18:33.000Z</time>
      </trkpt>
      <trkpt lat="47.51184" lon="6.89581">
        <ele>386.6</ele>
        <time>2014-09-28T08:18:34.000Z</time>
      </trkpt>
      <trkpt lat="47.51184" lon="6.89586">
        <ele>386.4</ele>
        <time>2014-09-28T08:18:35.000Z</time>
      </trkpt>
      <trkpt lat="47.51183" lon="6.89592">
        <ele>386.8</ele>
        <time>2014-09-28T08:18:36.000Z</time>
      </trkpt>
      <trkpt lat="47.51183" lon="6.89598">
        <ele>387.2</ele>
        <time>2014-09-28T08:18:37.000Z</time>
      </trkpt>
      <trkpt lat="47.51183" lon="6.89604">
        <ele>387.9</ele>
        <time>2014-09-28T08:18:38.000Z</time>
      </trkpt>
      <trkpt lat="47.51177" lon="6.89622">
        <ele>389.9</ele>
        <time>2014-09-28T08:18:39.000Z</time>
      </trkpt>
      <trkpt lat="47.51176" lon="6.89629">
        <ele>389.5</ele>
        <time>2014-09-28T08:18:40.000Z</time>
      </trkpt>
      <trkpt lat="47.51176" lon="6.89637">
        <ele>389.2</ele>
        <time>2014-09-28T08:18:41.000Z</time>
      </trkpt>
      <trkpt lat="47.51176" lon="6.89643">
        <ele>389</ele>
        <time>2014-09-28T08:18:42.000Z</time>
      </trkpt>
      <trkpt lat="47.51174" lon="6.8965">
        <ele>388.9</ele>
        <time>2014-09-28T08:18:43.000Z</time>
      </trkpt>
      <trkpt lat="47.51174" lon="6.89657">
        <ele>389</ele>
        <time>2014-09-28T08:18:44.000Z</time>
      </trkpt>
      <trkpt lat="47.51172" lon="6.8966">
        <ele>387.7</ele>
        <time>2014-09-28T08:18:45.000Z</time>
      </trkpt>
      <trkpt lat="47.5117" lon="6.89664">
        <ele>386.9</ele>
        <time>2014-09-28T08:18:46.000Z</time>
      </trkpt>
      <trkpt lat="47.51169" lon="6.89673">
        <ele>387.3</ele>
        <time>2014-09-28T08:18:47.000Z</time>
      </trkpt>
      <trkpt lat="47.51168" lon="6.89678">
        <ele>386.7</ele>
        <time>2014-09-28T08:18:48.000Z</time>
      </trkpt>
      <trkpt lat="47.51167" lon="6.89684">
        <ele>386.3</ele>
        <time>2014-09-28T08:18:49.000Z</time>
      </trkpt>
      <trkpt lat="47.51167" lon="6.89692">
        <ele>386.3</ele>
        <time>2014-09-28T08:18:50.000Z</time>
      </trkpt>
      <trkpt lat="47.51166" lon="6.897">
        <ele>386.5</ele>
        <time>2014-09-28T08:18:51.000Z</time>
      </trkpt>
      <trkpt lat="47.51166" lon="6.89708">
        <ele>386.9</ele>
        <time>2014-09-28T08:18:52.000Z</time>
      </trkpt>
      <trkpt lat="47.51165" lon="6.89716">
        <ele>386.5</ele>
        <time>2014-09-28T08:18:53.000Z</time>
      </trkpt>
      <trkpt lat="47.51165" lon="6.89724">
        <ele>386.3</ele>
        <time>2014-09-28T08:18:54.000Z</time>
      </trkpt>
      <trkpt lat="47.51164" lon="6.89734">
        <ele>386.9</ele>
        <time>2014-09-28T08:18:55.000Z</time>
      </trkpt>
      <trkpt lat="47.51163" lon="6.89742">
        <ele>387.5</ele>
        <time>2014-09-28T08:18:56.000Z</time>
      </trkpt>
      <trkpt lat="47.51161" lon="6.89749">
        <ele>388</ele>
        <time>2014-09-28T08:18:57.000Z</time>
      </trkpt>
      <trkpt lat="47.51159" lon="6.89757">
        <ele>388.5</ele>
        <time>2014-09-28T08:18:58.000Z</time>
      </trkpt>
      <trkpt lat="47.51157" lon="6.89765">
        <ele>388.3</ele>
        <time>2014-09-28T08:18:59.000Z</time>
      </trkpt>
      <trkpt lat="47.51157" lon="6.89772">
        <ele>389</ele>
        <time>2014-09-28T08:19:00.000Z</time>
      </trkpt>
      <trkpt lat="47.51156" lon="6.89781">
        <ele>389.7</ele>
        <time>2014-09-28T08:19:01.000Z</time>
      </trkpt>
      <trkpt lat="47.51153" lon="6.89789">
        <ele>390.6</ele>
        <time>2014-09-28T08:19:02.000Z</time>
      </trkpt>
      <trkpt lat="47.51152" lon="6.89797">
        <ele>391.4</ele>
        <time>2014-09-28T08:19:03.000Z</time>
      </trkpt>
      <trkpt lat="47.5115" lon="6.89804">
        <ele>391.9</ele>
        <time>2014-09-28T08:19:04.000Z</time>
      </trkpt>
      <trkpt lat="47.51147" lon="6.89811">
        <ele>393.2</ele>
        <time>2014-09-28T08:19:05.000Z</time>
      </trkpt>
      <trkpt lat="47.51145" lon="6.89818">
        <ele>393.4</ele>
        <time>2014-09-28T08:19:06.000Z</time>
      </trkpt>
      <trkpt lat="47.51143" lon="6.89825">
        <ele>393.4</ele>
        <time>2014-09-28T08:19:07.000Z</time>
      </trkpt>
      <trkpt lat="47.51143" lon="6.89832">
        <ele>393.7</ele>
        <time>2014-09-28T08:19:08.000Z</time>
      </trkpt>
      <trkpt lat="47.51141" lon="6.89838">
        <ele>394.2</ele>
        <time>2014-09-28T08:19:09.000Z</time>
      </trkpt>
      <trkpt lat="47.51139" lon="6.89845">
        <ele>394</ele>
        <time>2014-09-28T08:19:10.000Z</time>
      </trkpt>
      <trkpt lat="47.51137" lon="6.89852">
        <ele>394.3</ele>
        <time>2014-09-28T08:19:11.000Z</time>
      </trkpt>
      <trkpt lat="47.51136" lon="6.89858">
        <ele>394.4</ele>
        <time>2014-09-28T08:19:12.000Z</time>
      </trkpt>
      <trkpt lat="47.51135" lon="6.89866">
        <ele>394.5</ele>
        <time>2014-09-28T08:19:13.000Z</time>
      </trkpt>
      <trkpt lat="47.51133" lon="6.89872">
        <ele>394.6</ele>
        <time>2014-09-28T08:19:14.000Z</time>
      </trkpt>
      <trkpt lat="47.51131" lon="6.89879">
        <ele>394.9</ele>
        <time>2014-09-28T08:19:15.000Z</time>
      </trkpt>
      <trkpt lat="47.51128" lon="6.89887">
        <ele>394.4</ele>
        <time>2014-09-28T08:19:16.000Z</time>
      </trkpt>
      <trkpt lat="47.51127" lon="6.89894">
        <ele>393.6</ele>
        <time>2014-09-28T08:19:17.000Z</time>
      </trkpt>
      <trkpt lat="47.51125" lon="6.89901">
        <ele>394</ele>
        <time>2014-09-28T08:19:18.000Z</time>
      </trkpt>
      <trkpt lat="47.51122" lon="6.89908">
        <ele>394.4</ele>
        <time>2014-09-28T08:19:19.000Z</time>
      </trkpt>
      <trkpt lat="47.51121" lon="6.89915">
        <ele>394.3</ele>
        <time>2014-09-28T08:19:20.000Z</time>
      </trkpt>
      <trkpt lat="47.51119" lon="6.89923">
        <ele>394.7</ele>
        <time>2014-09-28T08:19:21.000Z</time>
      </trkpt>
      <trkpt lat="47.51117" lon="6.8993">
        <ele>395</ele>
        <time>2014-09-28T08:19:22.000Z</time>
      </trkpt>
      <trkpt lat="47.51115" lon="6.89938">
        <ele>395.5</ele>
        <time>2014-09-28T08:19:23.000Z</time>
      </trkpt>
      <trkpt lat="47.51113" lon="6.89945">
        <ele>395.7</ele>
        <time>2014-09-28T08:19:24.000Z</time>
      </trkpt>
      <trkpt lat="47.51111" lon="6.89953">
        <ele>394.9</ele>
        <time>2014-09-28T08:19:25.000Z</time>
      </trkpt>
      <trkpt lat="47.51109" lon="6.8996">
        <ele>394.9</ele>
        <time>2014-09-28T08:19:26.000Z</time>
      </trkpt>
      <trkpt lat="47.51104" lon="6.89979">
        <ele>393</ele>
        <time>2014-09-28T08:19:29.000Z</time>
      </trkpt>
      <trkpt lat="47.51104" lon="6.89986">
        <ele>391.9</ele>
        <time>2014-09-28T08:19:30.000Z</time>
      </trkpt>
      <trkpt lat="47.51102" lon="6.89994">
        <ele>390.7</ele>
        <time>2014-09-28T08:19:31.000Z</time>
      </trkpt>
      <trkpt lat="47.51099" lon="6.90002">
        <ele>390.8</ele>
        <time>2014-09-28T08:19:32.000Z</time>
      </trkpt>
      <trkpt lat="47.51097" lon="6.9001">
        <ele>390.3</ele>
        <time>2014-09-28T08:19:33.000Z</time>
      </trkpt>
      <trkpt lat="47.51095" lon="6.90018">
        <ele>390.4</ele>
        <time>2014-09-28T08:19:34.000Z</time>
      </trkpt>
      <trkpt lat="47.51093" lon="6.90026">
        <ele>390.1</ele>
        <time>2014-09-28T08:19:35.000Z</time>
      </trkpt>
      <trkpt lat="47.51092" lon="6.90034">
        <ele>390.3</ele>
        <time>2014-09-28T08:19:36.000Z</time>
      </trkpt>
      <trkpt lat="47.51089" lon="6.90042">
        <ele>389.8</ele>
        <time>2014-09-28T08:19:37.000Z</time>
      </trkpt>
      <trkpt lat="47.51087" lon="6.9005">
        <ele>389.8</ele>
        <time>2014-09-28T08:19:38.000Z</time>
      </trkpt>
      <trkpt lat="47.51084" lon="6.90058">
        <ele>389.6</ele>
        <time>2014-09-28T08:19:39.000Z</time>
      </trkpt>
      <trkpt lat="47.51082" lon="6.90066">
        <ele>389.3</ele>
        <time>2014-09-28T08:19:40.000Z</time>
      </trkpt>
      <trkpt lat="47.51078" lon="6.90073">
        <ele>389.4</ele>
        <time>2014-09-28T08:19:41.000Z</time>
      </trkpt>
      <trkpt lat="47.51074" lon="6.90082">
        <ele>389.8</ele>
        <time>2014-09-28T08:19:42.000Z</time>
      </trkpt>
      <trkpt lat="47.51072" lon="6.90088">
        <ele>390</ele>
        <time>2014-09-28T08:19:43.000Z</time>
      </trkpt>
      <trkpt lat="47.51069" lon="6.90096">
        <ele>390.4</ele>
        <time>2014-09-28T08:19:44.000Z</time>
      </trkpt>
      <trkpt lat="47.51067" lon="6.90103">
        <ele>390.3</ele>
        <time>2014-09-28T08:19:45.000Z</time>
      </trkpt>
      <trkpt lat="47.51065" lon="6.90111">
        <ele>390.3</ele>
        <time>2014-09-28T08:19:46.000Z</time>
      </trkpt>
      <trkpt lat="47.51063" lon="6.9012">
        <ele>390.2</ele>
        <time>2014-09-28T08:19:47.000Z</time>
      </trkpt>
      <trkpt lat="47.5106" lon="6.90128">
        <ele>390.1</ele>
        <time>2014-09-28T08:19:48.000Z</time>
      </trkpt>
      <trkpt lat="47.51057" lon="6.90138">
        <ele>389.8</ele>
        <time>2014-09-28T08:19:49.000Z</time>
      </trkpt>
      <trkpt lat="47.51054" lon="6.90146">
        <ele>389.7</ele>
        <time>2014-09-28T08:19:50.000Z</time>
      </trkpt>
      <trkpt lat="47.51051" lon="6.90152">
        <ele>388</ele>
        <time>2014-09-28T08:19:51.000Z</time>
      </trkpt>
      <trkpt lat="47.51049" lon="6.90153">
        <ele>388.9</ele>
        <time>2014-09-28T08:19:52.000Z</time>
      </trkpt>
      <trkpt lat="47.51047" lon="6.90156">
        <ele>388.7</ele>
        <time>2014-09-28T08:19:53.000Z</time>
      </trkpt>
      <trkpt lat="47.51046" lon="6.90165">
        <ele>388.3</ele>
        <time>2014-09-28T08:19:54.000Z</time>
      </trkpt>
      <trkpt lat="47.51045" lon="6.90173">
        <ele>388</ele>
        <time>2014-09-28T08:19:55.000Z</time>
      </trkpt>
      <trkpt lat="47.51043" lon="6.9018">
        <ele>388.2</ele>
        <time>2014-09-28T08:19:56.000Z</time>
      </trkpt>
      <trkpt lat="47.5104" lon="6.90187">
        <ele>388.4</ele>
        <time>2014-09-28T08:19:57.000Z</time>
      </trkpt>
      <trkpt lat="47.51035" lon="6.90196">
        <ele>389.2</ele>
        <time>2014-09-28T08:19:58.000Z</time>
      </trkpt>
      <trkpt lat="47.51031" lon="6.90204">
        <ele>389.5</ele>
        <time>2014-09-28T08:19:59.000Z</time>
      </trkpt>
      <trkpt lat="47.51028" lon="6.90211">
        <ele>389.5</ele>
        <time>2014-09-28T08:20:00.000Z</time>
      </trkpt>
      <trkpt lat="47.51024" lon="6.90217">
        <ele>389.3</ele>
        <time>2014-09-28T08:20:01.000Z</time>
      </trkpt>
      <trkpt lat="47.51019" lon="6.90224">
        <ele>389.1</ele>
        <time>2014-09-28T08:20:02.000Z</time>
      </trkpt>
      <trkpt lat="47.51016" lon="6.90231">
        <ele>389.2</ele>
        <time>2014-09-28T08:20:03.000Z</time>
      </trkpt>
      <trkpt lat="47.51012" lon="6.90238">
        <ele>389</ele>
        <time>2014-09-28T08:20:04.000Z</time>
      </trkpt>
      <trkpt lat="47.51008" lon="6.90246">
        <ele>389</ele>
        <time>2014-09-28T08:20:05.000Z</time>
      </trkpt>
      <trkpt lat="47.51003" lon="6.90252">
        <ele>389</ele>
        <time>2014-09-28T08:20:06.000Z</time>
      </trkpt>
      <trkpt lat="47.51" lon="6.90261">
        <ele>389</ele>
        <time>2014-09-28T08:20:07.000Z</time>
      </trkpt>
      <trkpt lat="47.50996" lon="6.9027">
        <ele>390.7</ele>
        <time>2014-09-28T08:20:08.000Z</time>
      </trkpt>
      <trkpt lat="47.50993" lon="6.90276">
        <ele>390.7</ele>
        <time>2014-09-28T08:20:09.000Z</time>
      </trkpt>
      <trkpt lat="47.5099" lon="6.90282">
        <ele>390.7</ele>
        <time>2014-09-28T08:20:10.000Z</time>
      </trkpt>
      <trkpt lat="47.50986" lon="6.9029">
        <ele>390.6</ele>
        <time>2014-09-28T08:20:11.000Z</time>
      </trkpt>
      <trkpt lat="47.50982" lon="6.903">
        <ele>390.6</ele>
        <time>2014-09-28T08:20:12.000Z</time>
      </trkpt>
      <trkpt lat="47.50977" lon="6.90306">
        <ele>390.4</ele>
        <time>2014-09-28T08:20:13.000Z</time>
      </trkpt>
      <trkpt lat="47.50972" lon="6.90312">
        <ele>390</ele>
        <time>2014-09-28T08:20:14.000Z</time>
      </trkpt>
      <trkpt lat="47.5097" lon="6.90322">
        <ele>390.4</ele>
        <time>2014-09-28T08:20:15.000Z</time>
      </trkpt>
      <trkpt lat="47.50965" lon="6.90332">
        <ele>390.3</ele>
        <time>2014-09-28T08:20:16.000Z</time>
      </trkpt>
      <trkpt lat="47.50961" lon="6.9034">
        <ele>390.4</ele>
        <time>2014-09-28T08:20:17.000Z</time>
      </trkpt>
      <trkpt lat="47.50958" lon="6.9035">
        <ele>390.5</ele>
        <time>2014-09-28T08:20:18.000Z</time>
      </trkpt>
      <trkpt lat="47.50954" lon="6.90359">
        <ele>390.3</ele>
        <time>2014-09-28T08:20:19.000Z</time>
      </trkpt>
      <trkpt lat="47.50949" lon="6.90369">
        <ele>390.1</ele>
        <time>2014-09-28T08:20:20.000Z</time>
      </trkpt>
      <trkpt lat="47.50945" lon="6.90381">
        <ele>389.5</ele>
        <time>2014-09-28T08:20:21.000Z</time>
      </trkpt>
      <trkpt lat="47.50941" lon="6.9039">
        <ele>386.7</ele>
        <time>2014-09-28T08:20:22.000Z</time>
      </trkpt>
      <trkpt lat="47.50938" lon="6.90402">
        <ele>387.1</ele>
        <time>2014-09-28T08:20:23.000Z</time>
      </trkpt>
      <trkpt lat="47.50934" lon="6.90409">
        <ele>387.3</ele>
        <time>2014-09-28T08:20:24.000Z</time>
      </trkpt>
      <trkpt lat="47.50931" lon="6.90417">
        <ele>387.7</ele>
        <time>2014-09-28T08:20:25.000Z</time>
      </trkpt>
      <trkpt lat="47.50929" lon="6.90426">
        <ele>388.1</ele>
        <time>2014-09-28T08:20:26.000Z</time>
      </trkpt>
      <trkpt lat="47.50923" lon="6.90449">
        <ele>385.9</ele>
        <time>2014-09-28T08:20:29.000Z</time>
      </trkpt>
      <trkpt lat="47.50922" lon="6.9046">
        <ele>386.3</ele>
        <time>2014-09-28T08:20:30.000Z</time>
      </trkpt>
      <trkpt lat="47.5092" lon="6.90467">
        <ele>386.4</ele>
        <time>2014-09-28T08:20:31.000Z</time>
      </trkpt>
      <trkpt lat="47.50918" lon="6.90472">
        <ele>387.1</ele>
        <time>2014-09-28T08:20:32.000Z</time>
      </trkpt>
      <trkpt lat="47.50917" lon="6.90477">
        <ele>386.4</ele>
        <time>2014-09-28T08:20:33.000Z</time>
      </trkpt>
      <trkpt lat="47.50916" lon="6.90483">
        <ele>386.6</ele>
        <time>2014-09-28T08:20:34.000Z</time>
      </trkpt>
      <trkpt lat="47.50915" lon="6.90488">
        <ele>386.3</ele>
        <time>2014-09-28T08:20:35.000Z</time>
      </trkpt>
      <trkpt lat="47.50914" lon="6.90494">
        <ele>387.3</ele>
        <time>2014-09-28T08:20:36.000Z</time>
      </trkpt>
      <trkpt lat="47.50913" lon="6.90498">
        <ele>386.5</ele>
        <time>2014-09-28T08:20:37.000Z</time>
      </trkpt>
      <trkpt lat="47.50912" lon="6.90503">
        <ele>384.9</ele>
        <time>2014-09-28T08:20:38.000Z</time>
      </trkpt>
      <trkpt lat="47.50911" lon="6.90509">
        <ele>383.9</ele>
        <time>2014-09-28T08:20:39.000Z</time>
      </trkpt>
      <trkpt lat="47.5091" lon="6.90513">
        <ele>383.4</ele>
        <time>2014-09-28T08:20:40.000Z</time>
      </trkpt>
      <trkpt lat="47.5091" lon="6.90517">
        <ele>382.9</ele>
        <time>2014-09-28T08:20:41.000Z</time>
      </trkpt>
      <trkpt lat="47.5091" lon="6.90522">
        <ele>382.6</ele>
        <time>2014-09-28T08:20:42.000Z</time>
      </trkpt>
      <trkpt lat="47.5091" lon="6.90528">
        <ele>383.3</ele>
        <time>2014-09-28T08:20:43.000Z</time>
      </trkpt>
      <trkpt lat="47.5091" lon="6.90534">
        <ele>383.1</ele>
        <time>2014-09-28T08:20:44.000Z</time>
      </trkpt>
      <trkpt lat="47.5091" lon="6.90539">
        <ele>383.2</ele>
        <time>2014-09-28T08:20:45.000Z</time>
      </trkpt>
      <trkpt lat="47.5091" lon="6.90545">
        <ele>382.9</ele>
        <time>2014-09-28T08:20:46.000Z</time>
      </trkpt>
      <trkpt lat="47.5091" lon="6.9055">
        <ele>383.9</ele>
        <time>2014-09-28T08:20:47.000Z</time>
      </trkpt>
      <trkpt lat="47.50909" lon="6.90556">
        <ele>384.2</ele>
        <time>2014-09-28T08:20:48.000Z</time>
      </trkpt>
      <trkpt lat="47.50909" lon="6.90562">
        <ele>384.2</ele>
        <time>2014-09-28T08:20:49.000Z</time>
      </trkpt>
      <trkpt lat="47.50908" lon="6.90568">
        <ele>385.3</ele>
        <time>2014-09-28T08:20:50.000Z</time>
      </trkpt>
      <trkpt lat="47.50907" lon="6.90574">
        <ele>386.1</ele>
        <time>2014-09-28T08:20:51.000Z</time>
      </trkpt>
      <trkpt lat="47.50907" lon="6.90578">
        <ele>383.9</ele>
        <time>2014-09-28T08:20:52.000Z</time>
      </trkpt>
      <trkpt lat="47.50906" lon="6.90584">
        <ele>383.9</ele>
        <time>2014-09-28T08:20:54.000Z</time>
      </trkpt>
      <trkpt lat="47.50905" lon="6.90586">
        <ele>384</ele>
        <time>2014-09-28T08:20:55.000Z</time>
      </trkpt>
      <trkpt lat="47.50903" lon="6.9059">
        <ele>384.3</ele>
        <time>2014-09-28T08:21:01.000Z</time>
      </trkpt>
      <trkpt lat="47.50902" lon="6.90591">
        <ele>384.7</ele>
        <time>2014-09-28T08:21:02.000Z</time>
      </trkpt>
      <trkpt lat="47.509" lon="6.90588">
        <ele>385.1</ele>
        <time>2014-09-28T08:21:04.000Z</time>
      </trkpt>
      <trkpt lat="47.509" lon="6.90584">
        <ele>386.2</ele>
        <time>2014-09-28T08:21:05.000Z</time>
      </trkpt>
      <trkpt lat="47.509" lon="6.90579">
        <ele>387.2</ele>
        <time>2014-09-28T08:21:06.000Z</time>
      </trkpt>
      <trkpt lat="47.509" lon="6.90574">
        <ele>388</ele>
        <time>2014-09-28T08:21:07.000Z</time>
      </trkpt>
      <trkpt lat="47.50901" lon="6.90567">
        <ele>389.3</ele>
        <time>2014-09-28T08:21:08.000Z</time>
      </trkpt>
      <trkpt lat="47.50901" lon="6.90561">
        <ele>391</ele>
        <time>2014-09-28T08:21:09.000Z</time>
      </trkpt>
      <trkpt lat="47.50901" lon="6.90555">
        <ele>392.3</ele>
        <time>2014-09-28T08:21:10.000Z</time>
      </trkpt>
      <trkpt lat="47.509" lon="6.90549">
        <ele>392.4</ele>
        <time>2014-09-28T08:21:11.000Z</time>
      </trkpt>
      <trkpt lat="47.50899" lon="6.90538">
        <ele>390.2</ele>
        <time>2014-09-28T08:21:12.000Z</time>
      </trkpt>
      <trkpt lat="47.50899" lon="6.90532">
        <ele>390.3</ele>
        <time>2014-09-28T08:21:13.000Z</time>
      </trkpt>
      <trkpt lat="47.50898" lon="6.90526">
        <ele>390.4</ele>
        <time>2014-09-28T08:21:14.000Z</time>
      </trkpt>
      <trkpt lat="47.50902" lon="6.90519">
        <ele>395.1</ele>
        <time>2014-09-28T08:21:15.000Z</time>
      </trkpt>
      <trkpt lat="47.50903" lon="6.90513">
        <ele>394.9</ele>
        <time>2014-09-28T08:21:16.000Z</time>
      </trkpt>
      <trkpt lat="47.50903" lon="6.90506">
        <ele>395.2</ele>
        <time>2014-09-28T08:21:17.000Z</time>
      </trkpt>
      <trkpt lat="47.50902" lon="6.905">
        <ele>395.2</ele>
        <time>2014-09-28T08:21:18.000Z</time>
      </trkpt>
      <trkpt lat="47.50901" lon="6.90493">
        <ele>395.2</ele>
        <time>2014-09-28T08:21:19.000Z</time>
      </trkpt>
      <trkpt lat="47.50897" lon="6.90483">
        <ele>393</ele>
        <time>2014-09-28T08:21:20.000Z</time>
      </trkpt>
      <trkpt lat="47.50896" lon="6.90476">
        <ele>393.1</ele>
        <time>2014-09-28T08:21:21.000Z</time>
      </trkpt>
      <trkpt lat="47.50896" lon="6.90469">
        <ele>393</ele>
        <time>2014-09-28T08:21:22.000Z</time>
      </trkpt>
      <trkpt lat="47.50896" lon="6.90465">
        <ele>393.1</ele>
        <time>2014-09-28T08:21:23.000Z</time>
      </trkpt>
      <trkpt lat="47.50897" lon="6.90459">
        <ele>393.4</ele>
        <time>2014-09-28T08:21:24.000Z</time>
      </trkpt>
      <trkpt lat="47.50897" lon="6.90454">
        <ele>393.6</ele>
        <time>2014-09-28T08:21:25.000Z</time>
      </trkpt>
      <trkpt lat="47.50898" lon="6.90447">
        <ele>394</ele>
        <time>2014-09-28T08:21:26.000Z</time>
      </trkpt>
      <trkpt lat="47.50901" lon="6.9043">
        <ele>394.3</ele>
        <time>2014-09-28T08:21:29.000Z</time>
      </trkpt>
      <trkpt lat="47.509" lon="6.9042">
        <ele>395</ele>
        <time>2014-09-28T08:21:30.000Z</time>
      </trkpt>
      <trkpt lat="47.50898" lon="6.90408">
        <ele>395.7</ele>
        <time>2014-09-28T08:21:31.000Z</time>
      </trkpt>
      <trkpt lat="47.50897" lon="6.90398">
        <ele>396.2</ele>
        <time>2014-09-28T08:21:32.000Z</time>
      </trkpt>
      <trkpt lat="47.50896" lon="6.90387">
        <ele>396.1</ele>
        <time>2014-09-28T08:21:33.000Z</time>
      </trkpt>
      <trkpt lat="47.50895" lon="6.90379">
        <ele>396</ele>
        <time>2014-09-28T08:21:34.000Z</time>
      </trkpt>
      <trkpt lat="47.50894" lon="6.90366">
        <ele>395.9</ele>
        <time>2014-09-28T08:21:35.000Z</time>
      </trkpt>
      <trkpt lat="47.50892" lon="6.9035">
        <ele>397.5</ele>
        <time>2014-09-28T08:21:36.000Z</time>
      </trkpt>
      <trkpt lat="47.50892" lon="6.90338">
        <ele>399.2</ele>
        <time>2014-09-28T08:21:37.000Z</time>
      </trkpt>
      <trkpt lat="47.50892" lon="6.90325">
        <ele>400.5</ele>
        <time>2014-09-28T08:21:38.000Z</time>
      </trkpt>
      <trkpt lat="47.50892" lon="6.90314">
        <ele>400.8</ele>
        <time>2014-09-28T08:21:39.000Z</time>
      </trkpt>
      <trkpt lat="47.50891" lon="6.90304">
        <ele>400.9</ele>
        <time>2014-09-28T08:21:40.000Z</time>
      </trkpt>
      <trkpt lat="47.50891" lon="6.90296">
        <ele>400.9</ele>
        <time>2014-09-28T08:21:41.000Z</time>
      </trkpt>
      <trkpt lat="47.5089" lon="6.90287">
        <ele>400.8</ele>
        <time>2014-09-28T08:21:42.000Z</time>
      </trkpt>
      <trkpt lat="47.50889" lon="6.90279">
        <ele>400.5</ele>
        <time>2014-09-28T08:21:43.000Z</time>
      </trkpt>
      <trkpt lat="47.50891" lon="6.90274">
        <ele>401.9</ele>
        <time>2014-09-28T08:21:44.000Z</time>
      </trkpt>
      <trkpt lat="47.50891" lon="6.90267">
        <ele>402.1</ele>
        <time>2014-09-28T08:21:45.000Z</time>
      </trkpt>
      <trkpt lat="47.50891" lon="6.90261">
        <ele>402</ele>
        <time>2014-09-28T08:21:46.000Z</time>
      </trkpt>
      <trkpt lat="47.5089" lon="6.90255">
        <ele>402.8</ele>
        <time>2014-09-28T08:21:47.000Z</time>
      </trkpt>
      <trkpt lat="47.5089" lon="6.90247">
        <ele>402.9</ele>
        <time>2014-09-28T08:21:48.000Z</time>
      </trkpt>
      <trkpt lat="47.5089" lon="6.90241">
        <ele>402.8</ele>
        <time>2014-09-28T08:21:49.000Z</time>
      </trkpt>
      <trkpt lat="47.50888" lon="6.90234">
        <ele>403.3</ele>
        <time>2014-09-28T08:21:50.000Z</time>
      </trkpt>
      <trkpt lat="47.50887" lon="6.90227">
        <ele>403.1</ele>
        <time>2014-09-28T08:21:51.000Z</time>
      </trkpt>
      <trkpt lat="47.50887" lon="6.90219">
        <ele>402.9</ele>
        <time>2014-09-28T08:21:52.000Z</time>
      </trkpt>
      <trkpt lat="47.50884" lon="6.9021">
        <ele>402.9</ele>
        <time>2014-09-28T08:21:53.000Z</time>
      </trkpt>
      <trkpt lat="47.50885" lon="6.90198">
        <ele>404.2</ele>
        <time>2014-09-28T08:21:54.000Z</time>
      </trkpt>
      <trkpt lat="47.50883" lon="6.90187">
        <ele>404.3</ele>
        <time>2014-09-28T08:21:55.000Z</time>
      </trkpt>
      <trkpt lat="47.50881" lon="6.90172">
        <ele>401.9</ele>
        <time>2014-09-28T08:21:56.000Z</time>
      </trkpt>
      <trkpt lat="47.5088" lon="6.90164">
        <ele>402.3</ele>
        <time>2014-09-28T08:21:57.000Z</time>
      </trkpt>
      <trkpt lat="47.50879" lon="6.90157">
        <ele>400.8</ele>
        <time>2014-09-28T08:21:58.000Z</time>
      </trkpt>
      <trkpt lat="47.50877" lon="6.90147">
        <ele>399.9</ele>
        <time>2014-09-28T08:21:59.000Z</time>
      </trkpt>
      <trkpt lat="47.50876" lon="6.90135">
        <ele>399.6</ele>
        <time>2014-09-28T08:22:00.000Z</time>
      </trkpt>
      <trkpt lat="47.50875" lon="6.90127">
        <ele>399.6</ele>
        <time>2014-09-28T08:22:01.000Z</time>
      </trkpt>
      <trkpt lat="47.50875" lon="6.90121">
        <ele>399.9</ele>
        <time>2014-09-28T08:22:02.000Z</time>
      </trkpt>
      <trkpt lat="47.50874" lon="6.90115">
        <ele>400.5</ele>
        <time>2014-09-28T08:22:03.000Z</time>
      </trkpt>
      <trkpt lat="47.50873" lon="6.90107">
        <ele>400.4</ele>
        <time>2014-09-28T08:22:04.000Z</time>
      </trkpt>
      <trkpt lat="47.50874" lon="6.90102">
        <ele>399</ele>
        <time>2014-09-28T08:22:05.000Z</time>
      </trkpt>
      <trkpt lat="47.50875" lon="6.90094">
        <ele>400.4</ele>
        <time>2014-09-28T08:22:06.000Z</time>
      </trkpt>
      <trkpt lat="47.50875" lon="6.90085">
        <ele>402.4</ele>
        <time>2014-09-28T08:22:07.000Z</time>
      </trkpt>
      <trkpt lat="47.50873" lon="6.90075">
        <ele>400.9</ele>
        <time>2014-09-28T08:22:08.000Z</time>
      </trkpt>
      <trkpt lat="47.50872" lon="6.90066">
        <ele>400.2</ele>
        <time>2014-09-28T08:22:09.000Z</time>
      </trkpt>
      <trkpt lat="47.50872" lon="6.90058">
        <ele>400.3</ele>
        <time>2014-09-28T08:22:10.000Z</time>
      </trkpt>
      <trkpt lat="47.50872" lon="6.9005">
        <ele>401.1</ele>
        <time>2014-09-28T08:22:11.000Z</time>
      </trkpt>
      <trkpt lat="47.50873" lon="6.90042">
        <ele>403.3</ele>
        <time>2014-09-28T08:22:12.000Z</time>
      </trkpt>
      <trkpt lat="47.50871" lon="6.90035">
        <ele>403.7</ele>
        <time>2014-09-28T08:22:13.000Z</time>
      </trkpt>
      <trkpt lat="47.5087" lon="6.90028">
        <ele>404.1</ele>
        <time>2014-09-28T08:22:14.000Z</time>
      </trkpt>
      <trkpt lat="47.50871" lon="6.90021">
        <ele>406.4</ele>
        <time>2014-09-28T08:22:15.000Z</time>
      </trkpt>
      <trkpt lat="47.5087" lon="6.90013">
        <ele>406.7</ele>
        <time>2014-09-28T08:22:16.000Z</time>
      </trkpt>
      <trkpt lat="47.5087" lon="6.90003">
        <ele>407.1</ele>
        <time>2014-09-28T08:22:17.000Z</time>
      </trkpt>
      <trkpt lat="47.5087" lon="6.89994">
        <ele>406.8</ele>
        <time>2014-09-28T08:22:18.000Z</time>
      </trkpt>
      <trkpt lat="47.5087" lon="6.89985">
        <ele>406.6</ele>
        <time>2014-09-28T08:22:19.000Z</time>
      </trkpt>
      <trkpt lat="47.50869" lon="6.89976">
        <ele>406.8</ele>
        <time>2014-09-28T08:22:20.000Z</time>
      </trkpt>
      <trkpt lat="47.5087" lon="6.89965">
        <ele>406.8</ele>
        <time>2014-09-28T08:22:21.000Z</time>
      </trkpt>
      <trkpt lat="47.50869" lon="6.89955">
        <ele>405.7</ele>
        <time>2014-09-28T08:22:22.000Z</time>
      </trkpt>
      <trkpt lat="47.50869" lon="6.89947">
        <ele>405.5</ele>
        <time>2014-09-28T08:22:23.000Z</time>
      </trkpt>
      <trkpt lat="47.50869" lon="6.89938">
        <ele>404.6</ele>
        <time>2014-09-28T08:22:24.000Z</time>
      </trkpt>
      <trkpt lat="47.50869" lon="6.8993">
        <ele>404.9</ele>
        <time>2014-09-28T08:22:25.000Z</time>
      </trkpt>
      <trkpt lat="47.50869" lon="6.89922">
        <ele>404.5</ele>
        <time>2014-09-28T08:22:26.000Z</time>
      </trkpt>
      <trkpt lat="47.50868" lon="6.89904">
        <ele>405</ele>
        <time>2014-09-28T08:22:29.000Z</time>
      </trkpt>
      <trkpt lat="47.50871" lon="6.89896">
        <ele>401.8</ele>
        <time>2014-09-28T08:22:30.000Z</time>
      </trkpt>
      <trkpt lat="47.50871" lon="6.89887">
        <ele>403</ele>
        <time>2014-09-28T08:22:31.000Z</time>
      </trkpt>
      <trkpt lat="47.5087" lon="6.89877">
        <ele>403.4</ele>
        <time>2014-09-28T08:22:32.000Z</time>
      </trkpt>
      <trkpt lat="47.5087" lon="6.89867">
        <ele>403.3</ele>
        <time>2014-09-28T08:22:33.000Z</time>
      </trkpt>
      <trkpt lat="47.5087" lon="6.89857">
        <ele>403.3</ele>
        <time>2014-09-28T08:22:34.000Z</time>
      </trkpt>
      <trkpt lat="47.50869" lon="6.89848">
        <ele>403.8</ele>
        <time>2014-09-28T08:22:35.000Z</time>
      </trkpt>
      <trkpt lat="47.5087" lon="6.89836">
        <ele>403.9</ele>
        <time>2014-09-28T08:22:36.000Z</time>
      </trkpt>
      <trkpt lat="47.5087" lon="6.89827">
        <ele>403.3</ele>
        <time>2014-09-28T08:22:37.000Z</time>
      </trkpt>
      <trkpt lat="47.50869" lon="6.89818">
        <ele>402.8</ele>
        <time>2014-09-28T08:22:38.000Z</time>
      </trkpt>
      <trkpt lat="47.50868" lon="6.89808">
        <ele>403.1</ele>
        <time>2014-09-28T08:22:39.000Z</time>
      </trkpt>
      <trkpt lat="47.50867" lon="6.898">
        <ele>403.3</ele>
        <time>2014-09-28T08:22:40.000Z</time>
      </trkpt>
      <trkpt lat="47.50866" lon="6.89791">
        <ele>403.9</ele>
        <time>2014-09-28T08:22:41.000Z</time>
      </trkpt>
      <trkpt lat="47.50865" lon="6.89781">
        <ele>404.8</ele>
        <time>2014-09-28T08:22:42.000Z</time>
      </trkpt>
      <trkpt lat="47.50865" lon="6.89774">
        <ele>404.7</ele>
        <time>2014-09-28T08:22:43.000Z</time>
      </trkpt>
      <trkpt lat="47.50863" lon="6.89767">
        <ele>403.1</ele>
        <time>2014-09-28T08:22:44.000Z</time>
      </trkpt>
      <trkpt lat="47.50862" lon="6.89759">
        <ele>403.6</ele>
        <time>2014-09-28T08:22:45.000Z</time>
      </trkpt>
      <trkpt lat="47.50862" lon="6.89751">
        <ele>403.5</ele>
        <time>2014-09-28T08:22:46.000Z</time>
      </trkpt>
      <trkpt lat="47.50861" lon="6.89742">
        <ele>403.9</ele>
        <time>2014-09-28T08:22:47.000Z</time>
      </trkpt>
      <trkpt lat="47.5086" lon="6.89733">
        <ele>403.9</ele>
        <time>2014-09-28T08:22:48.000Z</time>
      </trkpt>
      <trkpt lat="47.5086" lon="6.89726">
        <ele>404.1</ele>
        <time>2014-09-28T08:22:49.000Z</time>
      </trkpt>
      <trkpt lat="47.50858" lon="6.89716">
        <ele>404.3</ele>
        <time>2014-09-28T08:22:50.000Z</time>
      </trkpt>
      <trkpt lat="47.50857" lon="6.89707">
        <ele>404.1</ele>
        <time>2014-09-28T08:22:51.000Z</time>
      </trkpt>
      <trkpt lat="47.50856" lon="6.89698">
        <ele>403.9</ele>
        <time>2014-09-28T08:22:52.000Z</time>
      </trkpt>
      <trkpt lat="47.50854" lon="6.89689">
        <ele>404.1</ele>
        <time>2014-09-28T08:22:53.000Z</time>
      </trkpt>
      <trkpt lat="47.50851" lon="6.8968">
        <ele>404.1</ele>
        <time>2014-09-28T08:22:54.000Z</time>
      </trkpt>
      <trkpt lat="47.5085" lon="6.89672">
        <ele>404.1</ele>
        <time>2014-09-28T08:22:55.000Z</time>
      </trkpt>
      <trkpt lat="47.50848" lon="6.89665">
        <ele>405.2</ele>
        <time>2014-09-28T08:22:56.000Z</time>
      </trkpt>
      <trkpt lat="47.50843" lon="6.89661">
        <ele>404</ele>
        <time>2014-09-28T08:22:57.000Z</time>
      </trkpt>
      <trkpt lat="47.50839" lon="6.89656">
        <ele>403</ele>
        <time>2014-09-28T08:22:58.000Z</time>
      </trkpt>
      <trkpt lat="47.50836" lon="6.89655">
        <ele>402.6</ele>
        <time>2014-09-28T08:22:59.000Z</time>
      </trkpt>
      <trkpt lat="47.50831" lon="6.89653">
        <ele>401.2</ele>
        <time>2014-09-28T08:23:00.000Z</time>
      </trkpt>
      <trkpt lat="47.50828" lon="6.89654">
        <ele>400.5</ele>
        <time>2014-09-28T08:23:01.000Z</time>
      </trkpt>
      <trkpt lat="47.50824" lon="6.89653">
        <ele>399.6</ele>
        <time>2014-09-28T08:23:02.000Z</time>
      </trkpt>
      <trkpt lat="47.50821" lon="6.89652">
        <ele>398.9</ele>
        <time>2014-09-28T08:23:03.000Z</time>
      </trkpt>
      <trkpt lat="47.50817" lon="6.89653">
        <ele>398.6</ele>
        <time>2014-09-28T08:23:04.000Z</time>
      </trkpt>
      <trkpt lat="47.50813" lon="6.89653">
        <ele>398</ele>
        <time>2014-09-28T08:23:05.000Z</time>
      </trkpt>
      <trkpt lat="47.50809" lon="6.89652">
        <ele>398.5</ele>
        <time>2014-09-28T08:23:06.000Z</time>
      </trkpt>
      <trkpt lat="47.50806" lon="6.89652">
        <ele>394.8</ele>
        <time>2014-09-28T08:23:07.000Z</time>
      </trkpt>
      <trkpt lat="47.50803" lon="6.89651">
        <ele>394.3</ele>
        <time>2014-09-28T08:23:08.000Z</time>
      </trkpt>
      <trkpt lat="47.508" lon="6.8965">
        <ele>394.4</ele>
        <time>2014-09-28T08:23:09.000Z</time>
      </trkpt>
      <trkpt lat="47.50797" lon="6.8965">
        <ele>394</ele>
        <time>2014-09-28T08:23:10.000Z</time>
      </trkpt>
      <trkpt lat="47.50794" lon="6.8965">
        <ele>393.6</ele>
        <time>2014-09-28T08:23:11.000Z</time>
      </trkpt>
      <trkpt lat="47.50791" lon="6.89651">
        <ele>394.2</ele>
        <time>2014-09-28T08:23:12.000Z</time>
      </trkpt>
      <trkpt lat="47.50787" lon="6.8965">
        <ele>390.9</ele>
        <time>2014-09-28T08:23:13.000Z</time>
      </trkpt>
      <trkpt lat="47.50784" lon="6.8965">
        <ele>389.7</ele>
        <time>2014-09-28T08:23:14.000Z</time>
      </trkpt>
      <trkpt lat="47.50781" lon="6.89649">
        <ele>388.2</ele>
        <time>2014-09-28T08:23:15.000Z</time>
      </trkpt>
      <trkpt lat="47.50778" lon="6.89649">
        <ele>388.6</ele>
        <time>2014-09-28T08:23:16.000Z</time>
      </trkpt>
      <trkpt lat="47.50775" lon="6.89648">
        <ele>388.1</ele>
        <time>2014-09-28T08:23:17.000Z</time>
      </trkpt>
      <trkpt lat="47.50772" lon="6.89648">
        <ele>389.1</ele>
        <time>2014-09-28T08:23:18.000Z</time>
      </trkpt>
      <trkpt lat="47.50769" lon="6.89648">
        <ele>389.6</ele>
        <time>2014-09-28T08:23:19.000Z</time>
      </trkpt>
      <trkpt lat="47.50766" lon="6.89648">
        <ele>387.6</ele>
        <time>2014-09-28T08:23:20.000Z</time>
      </trkpt>
      <trkpt lat="47.50762" lon="6.89647">
        <ele>387.9</ele>
        <time>2014-09-28T08:23:21.000Z</time>
      </trkpt>
      <trkpt lat="47.50758" lon="6.89647">
        <ele>386.9</ele>
        <time>2014-09-28T08:23:22.000Z</time>
      </trkpt>
      <trkpt lat="47.50755" lon="6.89647">
        <ele>386</ele>
        <time>2014-09-28T08:23:23.000Z</time>
      </trkpt>
      <trkpt lat="47.50752" lon="6.89647">
        <ele>386.7</ele>
        <time>2014-09-28T08:23:24.000Z</time>
      </trkpt>
      <trkpt lat="47.50749" lon="6.89648">
        <ele>386.3</ele>
        <time>2014-09-28T08:23:25.000Z</time>
      </trkpt>
      <trkpt lat="47.50746" lon="6.89648">
        <ele>385.8</ele>
        <time>2014-09-28T08:23:26.000Z</time>
      </trkpt>
      <trkpt lat="47.50738" lon="6.89649">
        <ele>383.4</ele>
        <time>2014-09-28T08:23:29.000Z</time>
      </trkpt>
      <trkpt lat="47.50735" lon="6.8965">
        <ele>384.5</ele>
        <time>2014-09-28T08:23:30.000Z</time>
      </trkpt>
      <trkpt lat="47.50732" lon="6.8965">
        <ele>383.4</ele>
        <time>2014-09-28T08:23:31.000Z</time>
      </trkpt>
      <trkpt lat="47.50728" lon="6.8965">
        <ele>384.4</ele>
        <time>2014-09-28T08:23:32.000Z</time>
      </trkpt>
      <trkpt lat="47.50724" lon="6.8965">
        <ele>385.4</ele>
        <time>2014-09-28T08:23:33.000Z</time>
      </trkpt>
      <trkpt lat="47.5072" lon="6.8965">
        <ele>387.2</ele>
        <time>2014-09-28T08:23:34.000Z</time>
      </trkpt>
      <trkpt lat="47.50716" lon="6.8965">
        <ele>389.3</ele>
        <time>2014-09-28T08:23:35.000Z</time>
      </trkpt>
      <trkpt lat="47.50712" lon="6.8965">
        <ele>389</ele>
        <time>2014-09-28T08:23:36.000Z</time>
      </trkpt>
      <trkpt lat="47.50709" lon="6.8965">
        <ele>388.2</ele>
        <time>2014-09-28T08:23:37.000Z</time>
      </trkpt>
      <trkpt lat="47.50705" lon="6.89651">
        <ele>389.3</ele>
        <time>2014-09-28T08:23:38.000Z</time>
      </trkpt>
      <trkpt lat="47.50702" lon="6.89652">
        <ele>388</ele>
        <time>2014-09-28T08:23:39.000Z</time>
      </trkpt>
      <trkpt lat="47.507" lon="6.89653">
        <ele>387.7</ele>
        <time>2014-09-28T08:23:40.000Z</time>
      </trkpt>
      <trkpt lat="47.50698" lon="6.89654">
        <ele>384.8</ele>
        <time>2014-09-28T08:23:41.000Z</time>
      </trkpt>
      <trkpt lat="47.50695" lon="6.89655">
        <ele>388.9</ele>
        <time>2014-09-28T08:23:43.000Z</time>
      </trkpt>
      <trkpt lat="47.50693" lon="6.89656">
        <ele>390.9</ele>
        <time>2014-09-28T08:23:44.000Z</time>
      </trkpt>
      <trkpt lat="47.50689" lon="6.89657">
        <ele>395.6</ele>
        <time>2014-09-28T08:23:54.000Z</time>
      </trkpt>
      <trkpt lat="47.50689" lon="6.89657">
        <ele>395.7</ele>
        <time>2014-09-28T08:23:55.000Z</time>
      </trkpt>
      <trkpt lat="47.50686" lon="6.89654">
        <ele>397.4</ele>
        <time>2014-09-28T08:24:04.000Z</time>
      </trkpt>
      <trkpt lat="47.50685" lon="6.89653">
        <ele>397.5</ele>
        <time>2014-09-28T08:24:05.000Z</time>
      </trkpt>
      <trkpt lat="47.5068" lon="6.89651">
        <ele>395</ele>
        <time>2014-09-28T08:24:08.000Z</time>
      </trkpt>
      <trkpt lat="47.50678" lon="6.89651">
        <ele>394.2</ele>
        <time>2014-09-28T08:24:09.000Z</time>
      </trkpt>
      <trkpt lat="47.50676" lon="6.89651">
        <ele>395</ele>
        <time>2014-09-28T08:24:10.000Z</time>
      </trkpt>
      <trkpt lat="47.50673" lon="6.89651">
        <ele>394.9</ele>
        <time>2014-09-28T08:24:11.000Z</time>
      </trkpt>
      <trkpt lat="47.5067" lon="6.89651">
        <ele>394.7</ele>
        <time>2014-09-28T08:24:12.000Z</time>
      </trkpt>
      <trkpt lat="47.50667" lon="6.89652">
        <ele>394.8</ele>
        <time>2014-09-28T08:24:13.000Z</time>
      </trkpt>
      <trkpt lat="47.50664" lon="6.89652">
        <ele>394.5</ele>
        <time>2014-09-28T08:24:14.000Z</time>
      </trkpt>
      <trkpt lat="47.5066" lon="6.89652">
        <ele>394.2</ele>
        <time>2014-09-28T08:24:15.000Z</time>
      </trkpt>
      <trkpt lat="47.50656" lon="6.89653">
        <ele>394.4</ele>
        <time>2014-09-28T08:24:16.000Z</time>
      </trkpt>
      <trkpt lat="47.50652" lon="6.89653">
        <ele>394.2</ele>
        <time>2014-09-28T08:24:17.000Z</time>
      </trkpt>
      <trkpt lat="47.50647" lon="6.89654">
        <ele>394.5</ele>
        <time>2014-09-28T08:24:18.000Z</time>
      </trkpt>
      <trkpt lat="47.50642" lon="6.89654">
        <ele>395.4</ele>
        <time>2014-09-28T08:24:19.000Z</time>
      </trkpt>
      <trkpt lat="47.50637" lon="6.89654">
        <ele>394.4</ele>
        <time>2014-09-28T08:24:20.000Z</time>
      </trkpt>
      <trkpt lat="47.50632" lon="6.89655">
        <ele>393.8</ele>
        <time>2014-09-28T08:24:21.000Z</time>
      </trkpt>
      <trkpt lat="47.50628" lon="6.89655">
        <ele>392.8</ele>
        <time>2014-09-28T08:24:22.000Z</time>
      </trkpt>
      <trkpt lat="47.50624" lon="6.89655">
        <ele>393.2</ele>
        <time>2014-09-28T08:24:23.000Z</time>
      </trkpt>
      <trkpt lat="47.5062" lon="6.89655">
        <ele>393.1</ele>
        <time>2014-09-28T08:24:24.000Z</time>
      </trkpt>
      <trkpt lat="47.50617" lon="6.89654">
        <ele>392.5</ele>
        <time>2014-09-28T08:24:25.000Z</time>
      </trkpt>
      <trkpt lat="47.50613" lon="6.89654">
        <ele>392.4</ele>
        <time>2014-09-28T08:24:26.000Z</time>
      </trkpt>
      <trkpt lat="47.50604" lon="6.89653">
        <ele>390.9</ele>
        <time>2014-09-28T08:24:29.000Z</time>
      </trkpt>
      <trkpt lat="47.506" lon="6.89652">
        <ele>392.6</ele>
        <time>2014-09-28T08:24:30.000Z</time>
      </trkpt>
      <trkpt lat="47.50595" lon="6.8965">
        <ele>393.2</ele>
        <time>2014-09-28T08:24:31.000Z</time>
      </trkpt>
      <trkpt lat="47.5059" lon="6.89649">
        <ele>393.6</ele>
        <time>2014-09-28T08:24:32.000Z</time>
      </trkpt>
      <trkpt lat="47.50585" lon="6.89647">
        <ele>394</ele>
        <time>2014-09-28T08:24:33.000Z</time>
      </trkpt>
      <trkpt lat="47.5058" lon="6.89646">
        <ele>395.2</ele>
        <time>2014-09-28T08:24:34.000Z</time>
      </trkpt>
      <trkpt lat="47.50575" lon="6.89646">
        <ele>396</ele>
        <time>2014-09-28T08:24:35.000Z</time>
      </trkpt>
      <trkpt lat="47.50562" lon="6.89648">
        <ele>395.2</ele>
        <time>2014-09-28T08:24:36.000Z</time>
      </trkpt>
      <trkpt lat="47.50558" lon="6.89648">
        <ele>395.2</ele>
        <time>2014-09-28T08:24:37.000Z</time>
      </trkpt>
      <trkpt lat="47.50554" lon="6.89648">
        <ele>394.2</ele>
        <time>2014-09-28T08:24:38.000Z</time>
      </trkpt>
      <trkpt lat="47.50551" lon="6.89646">
        <ele>392.9</ele>
        <time>2014-09-28T08:24:39.000Z</time>
      </trkpt>
      <trkpt lat="47.50547" lon="6.89647">
        <ele>392.9</ele>
        <time>2014-09-28T08:24:40.000Z</time>
      </trkpt>
      <trkpt lat="47.50543" lon="6.89647">
        <ele>392.9</ele>
        <time>2014-09-28T08:24:41.000Z</time>
      </trkpt>
      <trkpt lat="47.50539" lon="6.89649">
        <ele>393.1</ele>
        <time>2014-09-28T08:24:42.000Z</time>
      </trkpt>
      <trkpt lat="47.50535" lon="6.89649">
        <ele>396.6</ele>
        <time>2014-09-28T08:24:43.000Z</time>
      </trkpt>
      <trkpt lat="47.5053" lon="6.8965">
        <ele>396.6</ele>
        <time>2014-09-28T08:24:44.000Z</time>
      </trkpt>
      <trkpt lat="47.50524" lon="6.8965">
        <ele>397.6</ele>
        <time>2014-09-28T08:24:45.000Z</time>
      </trkpt>
      <trkpt lat="47.50518" lon="6.89653">
        <ele>400.2</ele>
        <time>2014-09-28T08:24:46.000Z</time>
      </trkpt>
      <trkpt lat="47.50512" lon="6.89654">
        <ele>399.7</ele>
        <time>2014-09-28T08:24:47.000Z</time>
      </trkpt>
      <trkpt lat="47.50507" lon="6.89656">
        <ele>398.7</ele>
        <time>2014-09-28T08:24:48.000Z</time>
      </trkpt>
      <trkpt lat="47.50501" lon="6.89657">
        <ele>397.9</ele>
        <time>2014-09-28T08:24:49.000Z</time>
      </trkpt>
      <trkpt lat="47.50498" lon="6.89655">
        <ele>399.8</ele>
        <time>2014-09-28T08:24:50.000Z</time>
      </trkpt>
      <trkpt lat="47.50494" lon="6.89655">
        <ele>399.9</ele>
        <time>2014-09-28T08:24:51.000Z</time>
      </trkpt>
      <trkpt lat="47.50489" lon="6.89656">
        <ele>400.1</ele>
        <time>2014-09-28T08:24:52.000Z</time>
      </trkpt>
      <trkpt lat="47.50484" lon="6.89655">
        <ele>400.1</ele>
        <time>2014-09-28T08:24:53.000Z</time>
      </trkpt>
      <trkpt lat="47.50479" lon="6.89655">
        <ele>400.2</ele>
        <time>2014-09-28T08:24:54.000Z</time>
      </trkpt>
      <trkpt lat="47.50474" lon="6.89656">
        <ele>400</ele>
        <time>2014-09-28T08:24:55.000Z</time>
      </trkpt>
      <trkpt lat="47.50469" lon="6.89655">
        <ele>399.9</ele>
        <time>2014-09-28T08:24:56.000Z</time>
      </trkpt>
      <trkpt lat="47.50465" lon="6.89655">
        <ele>398.3</ele>
        <time>2014-09-28T08:24:57.000Z</time>
      </trkpt>
      <trkpt lat="47.50461" lon="6.89655">
        <ele>397.7</ele>
        <time>2014-09-28T08:24:58.000Z</time>
      </trkpt>
      <trkpt lat="47.50456" lon="6.89655">
        <ele>398.7</ele>
        <time>2014-09-28T08:24:59.000Z</time>
      </trkpt>
      <trkpt lat="47.50449" lon="6.89656">
        <ele>399.6</ele>
        <time>2014-09-28T08:25:00.000Z</time>
      </trkpt>
      <trkpt lat="47.50444" lon="6.89657">
        <ele>398.9</ele>
        <time>2014-09-28T08:25:01.000Z</time>
      </trkpt>
      <trkpt lat="47.5044" lon="6.89657">
        <ele>398.7</ele>
        <time>2014-09-28T08:25:02.000Z</time>
      </trkpt>
      <trkpt lat="47.50436" lon="6.89656">
        <ele>398.4</ele>
        <time>2014-09-28T08:25:03.000Z</time>
      </trkpt>
      <trkpt lat="47.50431" lon="6.89656">
        <ele>397.8</ele>
        <time>2014-09-28T08:25:04.000Z</time>
      </trkpt>
      <trkpt lat="47.50427" lon="6.89655">
        <ele>396.9</ele>
        <time>2014-09-28T08:25:05.000Z</time>
      </trkpt>
      <trkpt lat="47.50422" lon="6.89655">
        <ele>395</ele>
        <time>2014-09-28T08:25:06.000Z</time>
      </trkpt>
      <trkpt lat="47.50418" lon="6.89655">
        <ele>394.9</ele>
        <time>2014-09-28T08:25:07.000Z</time>
      </trkpt>
      <trkpt lat="47.50414" lon="6.89656">
        <ele>394.5</ele>
        <time>2014-09-28T08:25:08.000Z</time>
      </trkpt>
      <trkpt lat="47.50407" lon="6.89656">
        <ele>396.8</ele>
        <time>2014-09-28T08:25:09.000Z</time>
      </trkpt>
      <trkpt lat="47.50401" lon="6.89656">
        <ele>396.4</ele>
        <time>2014-09-28T08:25:10.000Z</time>
      </trkpt>
      <trkpt lat="47.50397" lon="6.89657">
        <ele>396.3</ele>
        <time>2014-09-28T08:25:11.000Z</time>
      </trkpt>
      <trkpt lat="47.50392" lon="6.89656">
        <ele>396.7</ele>
        <time>2014-09-28T08:25:12.000Z</time>
      </trkpt>
      <trkpt lat="47.50388" lon="6.89655">
        <ele>394.2</ele>
        <time>2014-09-28T08:25:13.000Z</time>
      </trkpt>
      <trkpt lat="47.50383" lon="6.89656">
        <ele>394.5</ele>
        <time>2014-09-28T08:25:14.000Z</time>
      </trkpt>
      <trkpt lat="47.50379" lon="6.89655">
        <ele>393.8</ele>
        <time>2014-09-28T08:25:15.000Z</time>
      </trkpt>
      <trkpt lat="47.50376" lon="6.89655">
        <ele>393.2</ele>
        <time>2014-09-28T08:25:16.000Z</time>
      </trkpt>
      <trkpt lat="47.5037" lon="6.89658">
        <ele>395.3</ele>
        <time>2014-09-28T08:25:17.000Z</time>
      </trkpt>
      <trkpt lat="47.50366" lon="6.89659">
        <ele>395.3</ele>
        <time>2014-09-28T08:25:18.000Z</time>
      </trkpt>
      <trkpt lat="47.50362" lon="6.89659">
        <ele>395.1</ele>
        <time>2014-09-28T08:25:19.000Z</time>
      </trkpt>
      <trkpt lat="47.50358" lon="6.89658">
        <ele>395.3</ele>
        <time>2014-09-28T08:25:20.000Z</time>
      </trkpt>
      <trkpt lat="47.50354" lon="6.89657">
        <ele>396.7</ele>
        <time>2014-09-28T08:25:21.000Z</time>
      </trkpt>
      <trkpt lat="47.5035" lon="6.89657">
        <ele>397.3</ele>
        <time>2014-09-28T08:25:22.000Z</time>
      </trkpt>
      <trkpt lat="47.50346" lon="6.89656">
        <ele>397.9</ele>
        <time>2014-09-28T08:25:23.000Z</time>
      </trkpt>
      <trkpt lat="47.50342" lon="6.89656">
        <ele>397.5</ele>
        <time>2014-09-28T08:25:24.000Z</time>
      </trkpt>
      <trkpt lat="47.50338" lon="6.89656">
        <ele>396.5</ele>
        <time>2014-09-28T08:25:25.000Z</time>
      </trkpt>
      <trkpt lat="47.50335" lon="6.89655">
        <ele>395.8</ele>
        <time>2014-09-28T08:25:26.000Z</time>
      </trkpt>
      <trkpt lat="47.50325" lon="6.89655">
        <ele>393.9</ele>
        <time>2014-09-28T08:25:29.000Z</time>
      </trkpt>
      <trkpt lat="47.50322" lon="6.89654">
        <ele>389.6</ele>
        <time>2014-09-28T08:25:30.000Z</time>
      </trkpt>
      <trkpt lat="47.5032" lon="6.89654">
        <ele>386.5</ele>
        <time>2014-09-28T08:25:31.000Z</time>
      </trkpt>
      <trkpt lat="47.50317" lon="6.89654">
        <ele>387.6</ele>
        <time>2014-09-28T08:25:32.000Z</time>
      </trkpt>
      <trkpt lat="47.50314" lon="6.89654">
        <ele>387.8</ele>
        <time>2014-09-28T08:25:33.000Z</time>
      </trkpt>
      <trkpt lat="47.50311" lon="6.89654">
        <ele>389</ele>
        <time>2014-09-28T08:25:34.000Z</time>
      </trkpt>
      <trkpt lat="47.50308" lon="6.89654">
        <ele>390.7</ele>
        <time>2014-09-28T08:25:35.000Z</time>
      </trkpt>
      <trkpt lat="47.50305" lon="6.89654">
        <ele>390.8</ele>
        <time>2014-09-28T08:25:36.000Z</time>
      </trkpt>
      <trkpt lat="47.50302" lon="6.89653">
        <ele>392</ele>
        <time>2014-09-28T08:25:37.000Z</time>
      </trkpt>
      <trkpt lat="47.503" lon="6.89652">
        <ele>391.7</ele>
        <time>2014-09-28T08:25:38.000Z</time>
      </trkpt>
      <trkpt lat="47.50297" lon="6.89652">
        <ele>391.3</ele>
        <time>2014-09-28T08:25:39.000Z</time>
      </trkpt>
      <trkpt lat="47.50294" lon="6.89652">
        <ele>392.3</ele>
        <time>2014-09-28T08:25:40.000Z</time>
      </trkpt>
      <trkpt lat="47.50291" lon="6.89652">
        <ele>390.1</ele>
        <time>2014-09-28T08:25:41.000Z</time>
      </trkpt>
      <trkpt lat="47.50287" lon="6.89652">
        <ele>389.4</ele>
        <time>2014-09-28T08:25:42.000Z</time>
      </trkpt>
      <trkpt lat="47.50284" lon="6.89652">
        <ele>389.9</ele>
        <time>2014-09-28T08:25:43.000Z</time>
      </trkpt>
      <trkpt lat="47.50281" lon="6.89652">
        <ele>388.8</ele>
        <time>2014-09-28T08:25:44.000Z</time>
      </trkpt>
      <trkpt lat="47.50278" lon="6.89652">
        <ele>388</ele>
        <time>2014-09-28T08:25:45.000Z</time>
      </trkpt>
      <trkpt lat="47.50275" lon="6.89652">
        <ele>387.1</ele>
        <time>2014-09-28T08:25:46.000Z</time>
      </trkpt>
      <trkpt lat="47.50272" lon="6.89652">
        <ele>386</ele>
        <time>2014-09-28T08:25:47.000Z</time>
      </trkpt>
      <trkpt lat="47.50268" lon="6.89652">
        <ele>385.7</ele>
        <time>2014-09-28T08:25:48.000Z</time>
      </trkpt>
      <trkpt lat="47.50265" lon="6.89652">
        <ele>386.3</ele>
        <time>2014-09-28T08:25:49.000Z</time>
      </trkpt>
      <trkpt lat="47.50261" lon="6.89652">
        <ele>386</ele>
        <time>2014-09-28T08:25:50.000Z</time>
      </trkpt>
      <trkpt lat="47.50257" lon="6.89652">
        <ele>386.5</ele>
        <time>2014-09-28T08:25:51.000Z</time>
      </trkpt>
      <trkpt lat="47.50254" lon="6.89652">
        <ele>386.4</ele>
        <time>2014-09-28T08:25:52.000Z</time>
      </trkpt>
      <trkpt lat="47.5025" lon="6.89653">
        <ele>384.7</ele>
        <time>2014-09-28T08:25:53.000Z</time>
      </trkpt>
      <trkpt lat="47.50246" lon="6.89653">
        <ele>385.1</ele>
        <time>2014-09-28T08:25:54.000Z</time>
      </trkpt>
      <trkpt lat="47.50242" lon="6.89654">
        <ele>384.9</ele>
        <time>2014-09-28T08:25:55.000Z</time>
      </trkpt>
      <trkpt lat="47.50238" lon="6.89654">
        <ele>384.4</ele>
        <time>2014-09-28T08:25:56.000Z</time>
      </trkpt>
      <trkpt lat="47.50234" lon="6.89654">
        <ele>383.8</ele>
        <time>2014-09-28T08:25:57.000Z</time>
      </trkpt>
      <trkpt lat="47.50231" lon="6.89654">
        <ele>383.7</ele>
        <time>2014-09-28T08:25:58.000Z</time>
      </trkpt>
      <trkpt lat="47.50228" lon="6.89654">
        <ele>384.2</ele>
        <time>2014-09-28T08:25:59.000Z</time>
      </trkpt>
      <trkpt lat="47.50225" lon="6.89654">
        <ele>384.5</ele>
        <time>2014-09-28T08:26:00.000Z</time>
      </trkpt>
      <trkpt lat="47.50221" lon="6.89654">
        <ele>382.7</ele>
        <time>2014-09-28T08:26:01.000Z</time>
      </trkpt>
      <trkpt lat="47.50216" lon="6.89654">
        <ele>380.8</ele>
        <time>2014-09-28T08:26:02.000Z</time>
      </trkpt>
      <trkpt lat="47.50212" lon="6.89654">
        <ele>379.2</ele>
        <time>2014-09-28T08:26:03.000Z</time>
      </trkpt>
      <trkpt lat="47.50207" lon="6.89654">
        <ele>377.8</ele>
        <time>2014-09-28T08:26:04.000Z</time>
      </trkpt>
      <trkpt lat="47.50203" lon="6.89654">
        <ele>378.2</ele>
        <time>2014-09-28T08:26:05.000Z</time>
      </trkpt>
      <trkpt lat="47.50199" lon="6.89653">
        <ele>376.5</ele>
        <time>2014-09-28T08:26:06.000Z</time>
      </trkpt>
      <trkpt lat="47.50195" lon="6.89653">
        <ele>377</ele>
        <time>2014-09-28T08:26:07.000Z</time>
      </trkpt>
      <trkpt lat="47.50191" lon="6.89653">
        <ele>378.5</ele>
        <time>2014-09-28T08:26:08.000Z</time>
      </trkpt>
      <trkpt lat="47.50187" lon="6.89654">
        <ele>378</ele>
        <time>2014-09-28T08:26:09.000Z</time>
      </trkpt>
      <trkpt lat="47.50184" lon="6.89654">
        <ele>378.4</ele>
        <time>2014-09-28T08:26:10.000Z</time>
      </trkpt>
      <trkpt lat="47.5018" lon="6.89654">
        <ele>379.7</ele>
        <time>2014-09-28T08:26:11.000Z</time>
      </trkpt>
      <trkpt lat="47.50177" lon="6.89655">
        <ele>380</ele>
        <time>2014-09-28T08:26:12.000Z</time>
      </trkpt>
      <trkpt lat="47.50173" lon="6.89655">
        <ele>380.7</ele>
        <time>2014-09-28T08:26:13.000Z</time>
      </trkpt>
      <trkpt lat="47.50169" lon="6.89656">
        <ele>381.3</ele>
        <time>2014-09-28T08:26:14.000Z</time>
      </trkpt>
      <trkpt lat="47.50166" lon="6.89656">
        <ele>380.8</ele>
        <time>2014-09-28T08:26:15.000Z</time>
      </trkpt>
      <trkpt lat="47.50163" lon="6.89656">
        <ele>380.7</ele>
        <time>2014-09-28T08:26:16.000Z</time>
      </trkpt>
      <trkpt lat="47.50159" lon="6.89656">
        <ele>381.2</ele>
        <time>2014-09-28T08:26:17.000Z</time>
      </trkpt>
      <trkpt lat="47.50156" lon="6.89656">
        <ele>381.4</ele>
        <time>2014-09-28T08:26:18.000Z</time>
      </trkpt>
      <trkpt lat="47.50153" lon="6.89655">
        <ele>382.3</ele>
        <time>2014-09-28T08:26:19.000Z</time>
      </trkpt>
      <trkpt lat="47.50149" lon="6.89655">
        <ele>383.4</ele>
        <time>2014-09-28T08:26:20.000Z</time>
      </trkpt>
      <trkpt lat="47.50145" lon="6.89655">
        <ele>383.3</ele>
        <time>2014-09-28T08:26:21.000Z</time>
      </trkpt>
      <trkpt lat="47.5014" lon="6.89655">
        <ele>382.9</ele>
        <time>2014-09-28T08:26:22.000Z</time>
      </trkpt>
      <trkpt lat="47.50135" lon="6.89656">
        <ele>382.7</ele>
        <time>2014-09-28T08:26:23.000Z</time>
      </trkpt>
      <trkpt lat="47.5013" lon="6.89658">
        <ele>382.3</ele>
        <time>2014-09-28T08:26:24.000Z</time>
      </trkpt>
      <trkpt lat="47.50125" lon="6.89659">
        <ele>382.2</ele>
        <time>2014-09-28T08:26:25.000Z</time>
      </trkpt>
      <trkpt lat="47.5012" lon="6.8966">
        <ele>383.3</ele>
        <time>2014-09-28T08:26:26.000Z</time>
      </trkpt>
      <trkpt lat="47.50107" lon="6.89662">
        <ele>379.9</ele>
        <time>2014-09-28T08:26:29.000Z</time>
      </trkpt>
      <trkpt lat="47.50102" lon="6.89662">
        <ele>379.4</ele>
        <time>2014-09-28T08:26:30.000Z</time>
      </trkpt>
      <trkpt lat="47.50097" lon="6.89663">
        <ele>379</ele>
        <time>2014-09-28T08:26:31.000Z</time>
      </trkpt>
      <trkpt lat="47.50092" lon="6.89663">
        <ele>378.9</ele>
        <time>2014-09-28T08:26:32.000Z</time>
      </trkpt>
      <trkpt lat="47.50086" lon="6.89663">
        <ele>379.1</ele>
        <time>2014-09-28T08:26:33.000Z</time>
      </trkpt>
      <trkpt lat="47.50082" lon="6.89663">
        <ele>376.8</ele>
        <time>2014-09-28T08:26:34.000Z</time>
      </trkpt>
      <trkpt lat="47.50079" lon="6.89663">
        <ele>377.4</ele>
        <time>2014-09-28T08:26:35.000Z</time>
      </trkpt>
      <trkpt lat="47.50074" lon="6.89661">
        <ele>377.4</ele>
        <time>2014-09-28T08:26:37.000Z</time>
      </trkpt>
      <trkpt lat="47.50073" lon="6.8966">
        <ele>381.1</ele>
        <time>2014-09-28T08:26:38.000Z</time>
      </trkpt>
      <trkpt lat="47.50069" lon="6.89658">
        <ele>383.6</ele>
        <time>2014-09-28T08:26:41.000Z</time>
      </trkpt>
      <trkpt lat="47.50067" lon="6.89658">
        <ele>383.7</ele>
        <time>2014-09-28T08:26:42.000Z</time>
      </trkpt>
      <trkpt lat="47.50063" lon="6.89656">
        <ele>384.6</ele>
        <time>2014-09-28T08:26:45.000Z</time>
      </trkpt>
      <trkpt lat="47.50061" lon="6.89656">
        <ele>385.8</ele>
        <time>2014-09-28T08:26:46.000Z</time>
      </trkpt>
      <trkpt lat="47.50058" lon="6.89656">
        <ele>387</ele>
        <time>2014-09-28T08:26:48.000Z</time>
      </trkpt>
      <trkpt lat="47.50057" lon="6.89656">
        <ele>390.2</ele>
        <time>2014-09-28T08:26:49.000Z</time>
      </trkpt>
      <trkpt lat="47.50052" lon="6.89658">
        <ele>392.8</ele>
        <time>2014-09-28T08:26:51.000Z</time>
      </trkpt>
      <trkpt lat="47.5005" lon="6.89659">
        <ele>392.9</ele>
        <time>2014-09-28T08:26:52.000Z</time>
      </trkpt>
      <trkpt lat="47.50048" lon="6.89659">
        <ele>393.5</ele>
        <time>2014-09-28T08:26:53.000Z</time>
      </trkpt>
      <trkpt lat="47.50046" lon="6.89661">
        <ele>393.8</ele>
        <time>2014-09-28T08:26:54.000Z</time>
      </trkpt>
      <trkpt lat="47.50042" lon="6.89664">
        <ele>393.3</ele>
        <time>2014-09-28T08:26:56.000Z</time>
      </trkpt>
      <trkpt lat="47.5004" lon="6.89666">
        <ele>395.4</ele>
        <time>2014-09-28T08:26:57.000Z</time>
      </trkpt>
      <trkpt lat="47.50038" lon="6.89667">
        <ele>397.7</ele>
        <time>2014-09-28T08:26:58.000Z</time>
      </trkpt>
      <trkpt lat="47.50035" lon="6.89667">
        <ele>398.4</ele>
        <time>2014-09-28T08:26:59.000Z</time>
      </trkpt>
      <trkpt lat="47.50032" lon="6.89667">
        <ele>399.7</ele>
        <time>2014-09-28T08:27:00.000Z</time>
      </trkpt>
      <trkpt lat="47.5003" lon="6.89668">
        <ele>398.6</ele>
        <time>2014-09-28T08:27:01.000Z</time>
      </trkpt>
      <trkpt lat="47.50027" lon="6.89667">
        <ele>400.2</ele>
        <time>2014-09-28T08:27:02.000Z</time>
      </trkpt>
      <trkpt lat="47.50024" lon="6.89667">
        <ele>399.3</ele>
        <time>2014-09-28T08:27:03.000Z</time>
      </trkpt>
      <trkpt lat="47.5002" lon="6.89667">
        <ele>400.1</ele>
        <time>2014-09-28T08:27:04.000Z</time>
      </trkpt>
      <trkpt lat="47.50016" lon="6.89666">
        <ele>400.3</ele>
        <time>2014-09-28T08:27:05.000Z</time>
      </trkpt>
      <trkpt lat="47.50012" lon="6.89666">
        <ele>399.9</ele>
        <time>2014-09-28T08:27:06.000Z</time>
      </trkpt>
      <trkpt lat="47.50008" lon="6.89666">
        <ele>400</ele>
        <time>2014-09-28T08:27:07.000Z</time>
      </trkpt>
      <trkpt lat="47.50003" lon="6.89667">
        <ele>398.6</ele>
        <time>2014-09-28T08:27:08.000Z</time>
      </trkpt>
      <trkpt lat="47.49999" lon="6.89668">
        <ele>397.7</ele>
        <time>2014-09-28T08:27:09.000Z</time>
      </trkpt>
      <trkpt lat="47.49995" lon="6.8967">
        <ele>397.8</ele>
        <time>2014-09-28T08:27:10.000Z</time>
      </trkpt>
      <trkpt lat="47.49991" lon="6.89671">
        <ele>398</ele>
        <time>2014-09-28T08:27:11.000Z</time>
      </trkpt>
      <trkpt lat="47.49987" lon="6.89673">
        <ele>397.2</ele>
        <time>2014-09-28T08:27:12.000Z</time>
      </trkpt>
      <trkpt lat="47.49982" lon="6.89675">
        <ele>397.5</ele>
        <time>2014-09-28T08:27:13.000Z</time>
      </trkpt>
      <trkpt lat="47.49978" lon="6.89677">
        <ele>397.2</ele>
        <time>2014-09-28T08:27:14.000Z</time>
      </trkpt>
      <trkpt lat="47.49975" lon="6.8968">
        <ele>398.3</ele>
        <time>2014-09-28T08:27:15.000Z</time>
      </trkpt>
      <trkpt lat="47.49971" lon="6.89683">
        <ele>398.1</ele>
        <time>2014-09-28T08:27:16.000Z</time>
      </trkpt>
      <trkpt lat="47.49967" lon="6.89685">
        <ele>399</ele>
        <time>2014-09-28T08:27:17.000Z</time>
      </trkpt>
      <trkpt lat="47.49964" lon="6.89687">
        <ele>398.9</ele>
        <time>2014-09-28T08:27:18.000Z</time>
      </trkpt>
      <trkpt lat="47.49961" lon="6.89689">
        <ele>399.4</ele>
        <time>2014-09-28T08:27:19.000Z</time>
      </trkpt>
      <trkpt lat="47.49958" lon="6.89689">
        <ele>398.9</ele>
        <time>2014-09-28T08:27:20.000Z</time>
      </trkpt>
      <trkpt lat="47.49955" lon="6.8969">
        <ele>398.6</ele>
        <time>2014-09-28T08:27:21.000Z</time>
      </trkpt>
      <trkpt lat="47.49952" lon="6.89691">
        <ele>397.7</ele>
        <time>2014-09-28T08:27:22.000Z</time>
      </trkpt>
      <trkpt lat="47.49948" lon="6.89691">
        <ele>402.7</ele>
        <time>2014-09-28T08:27:23.000Z</time>
      </trkpt>
      <trkpt lat="47.49944" lon="6.89691">
        <ele>403</ele>
        <time>2014-09-28T08:27:24.000Z</time>
      </trkpt>
      <trkpt lat="47.4994" lon="6.89691">
        <ele>404.8</ele>
        <time>2014-09-28T08:27:25.000Z</time>
      </trkpt>
      <trkpt lat="47.49935" lon="6.89691">
        <ele>404.4</ele>
        <time>2014-09-28T08:27:26.000Z</time>
      </trkpt>
      <trkpt lat="47.49925" lon="6.89693">
        <ele>401</ele>
        <time>2014-09-28T08:27:29.000Z</time>
      </trkpt>
      <trkpt lat="47.49921" lon="6.89695">
        <ele>404.8</ele>
        <time>2014-09-28T08:27:30.000Z</time>
      </trkpt>
      <trkpt lat="47.49916" lon="6.89697">
        <ele>405.6</ele>
        <time>2014-09-28T08:27:31.000Z</time>
      </trkpt>
      <trkpt lat="47.49912" lon="6.89698">
        <ele>407.1</ele>
        <time>2014-09-28T08:27:32.000Z</time>
      </trkpt>
      <trkpt lat="47.49908" lon="6.897">
        <ele>405.3</ele>
        <time>2014-09-28T08:27:33.000Z</time>
      </trkpt>
      <trkpt lat="47.49903" lon="6.89701">
        <ele>402.3</ele>
        <time>2014-09-28T08:27:34.000Z</time>
      </trkpt>
      <trkpt lat="47.49899" lon="6.89703">
        <ele>402.9</ele>
        <time>2014-09-28T08:27:35.000Z</time>
      </trkpt>
      <trkpt lat="47.49895" lon="6.89705">
        <ele>403.8</ele>
        <time>2014-09-28T08:27:36.000Z</time>
      </trkpt>
      <trkpt lat="47.49891" lon="6.89707">
        <ele>404.1</ele>
        <time>2014-09-28T08:27:37.000Z</time>
      </trkpt>
      <trkpt lat="47.49887" lon="6.89708">
        <ele>404.4</ele>
        <time>2014-09-28T08:27:38.000Z</time>
      </trkpt>
      <trkpt lat="47.49882" lon="6.8971">
        <ele>404.2</ele>
        <time>2014-09-28T08:27:39.000Z</time>
      </trkpt>
      <trkpt lat="47.49878" lon="6.89713">
        <ele>403.4</ele>
        <time>2014-09-28T08:27:40.000Z</time>
      </trkpt>
      <trkpt lat="47.49874" lon="6.89716">
        <ele>403.2</ele>
        <time>2014-09-28T08:27:41.000Z</time>
      </trkpt>
      <trkpt lat="47.4987" lon="6.89719">
        <ele>403.5</ele>
        <time>2014-09-28T08:27:42.000Z</time>
      </trkpt>
      <trkpt lat="47.49867" lon="6.89722">
        <ele>402.7</ele>
        <time>2014-09-28T08:27:43.000Z</time>
      </trkpt>
      <trkpt lat="47.49864" lon="6.89725">
        <ele>401.7</ele>
        <time>2014-09-28T08:27:44.000Z</time>
      </trkpt>
      <trkpt lat="47.4986" lon="6.89727">
        <ele>401</ele>
        <time>2014-09-28T08:27:45.000Z</time>
      </trkpt>
      <trkpt lat="47.49857" lon="6.89729">
        <ele>400.9</ele>
        <time>2014-09-28T08:27:46.000Z</time>
      </trkpt>
      <trkpt lat="47.49855" lon="6.89732">
        <ele>400.2</ele>
        <time>2014-09-28T08:27:47.000Z</time>
      </trkpt>
      <trkpt lat="47.49851" lon="6.89734">
        <ele>401.6</ele>
        <time>2014-09-28T08:27:48.000Z</time>
      </trkpt>
      <trkpt lat="47.49848" lon="6.89736">
        <ele>401</ele>
        <time>2014-09-28T08:27:49.000Z</time>
      </trkpt>
      <trkpt lat="47.49846" lon="6.89738">
        <ele>403.3</ele>
        <time>2014-09-28T08:27:50.000Z</time>
      </trkpt>
      <trkpt lat="47.49844" lon="6.8974">
        <ele>402.7</ele>
        <time>2014-09-28T08:27:51.000Z</time>
      </trkpt>
      <trkpt lat="47.49842" lon="6.89741">
        <ele>404.2</ele>
        <time>2014-09-28T08:27:52.000Z</time>
      </trkpt>
      <trkpt lat="47.49839" lon="6.89743">
        <ele>404.6</ele>
        <time>2014-09-28T08:27:53.000Z</time>
      </trkpt>
      <trkpt lat="47.49837" lon="6.89744">
        <ele>405.1</ele>
        <time>2014-09-28T08:27:54.000Z</time>
      </trkpt>
      <trkpt lat="47.49834" lon="6.89745">
        <ele>405.5</ele>
        <time>2014-09-28T08:27:55.000Z</time>
      </trkpt>
      <trkpt lat="47.49832" lon="6.89746">
        <ele>405.9</ele>
        <time>2014-09-28T08:27:56.000Z</time>
      </trkpt>
      <trkpt lat="47.4983" lon="6.89746">
        <ele>404.4</ele>
        <time>2014-09-28T08:27:57.000Z</time>
      </trkpt>
      <trkpt lat="47.49827" lon="6.89747">
        <ele>403.6</ele>
        <time>2014-09-28T08:27:58.000Z</time>
      </trkpt>
      <trkpt lat="47.49824" lon="6.89748">
        <ele>404</ele>
        <time>2014-09-28T08:27:59.000Z</time>
      </trkpt>
      <trkpt lat="47.49821" lon="6.8975">
        <ele>404.1</ele>
        <time>2014-09-28T08:28:00.000Z</time>
      </trkpt>
      <trkpt lat="47.49818" lon="6.89752">
        <ele>404.6</ele>
        <time>2014-09-28T08:28:01.000Z</time>
      </trkpt>
      <trkpt lat="47.49815" lon="6.89754">
        <ele>405.1</ele>
        <time>2014-09-28T08:28:02.000Z</time>
      </trkpt>
      <trkpt lat="47.49813" lon="6.89755">
        <ele>405</ele>
        <time>2014-09-28T08:28:03.000Z</time>
      </trkpt>
      <trkpt lat="47.4981" lon="6.89756">
        <ele>405.2</ele>
        <time>2014-09-28T08:28:04.000Z</time>
      </trkpt>
      <trkpt lat="47.49806" lon="6.89757">
        <ele>408.2</ele>
        <time>2014-09-28T08:28:05.000Z</time>
      </trkpt>
      <trkpt lat="47.49802" lon="6.89756">
        <ele>408.8</ele>
        <time>2014-09-28T08:28:06.000Z</time>
      </trkpt>
      <trkpt lat="47.49798" lon="6.89756">
        <ele>410</ele>
        <time>2014-09-28T08:28:07.000Z</time>
      </trkpt>
      <trkpt lat="47.49795" lon="6.89756">
        <ele>411</ele>
        <time>2014-09-28T08:28:08.000Z</time>
      </trkpt>
      <trkpt lat="47.49791" lon="6.89757">
        <ele>410.7</ele>
        <time>2014-09-28T08:28:09.000Z</time>
      </trkpt>
      <trkpt lat="47.49788" lon="6.89758">
        <ele>410.1</ele>
        <time>2014-09-28T08:28:10.000Z</time>
      </trkpt>
      <trkpt lat="47.49785" lon="6.89759">
        <ele>410.1</ele>
        <time>2014-09-28T08:28:11.000Z</time>
      </trkpt>
      <trkpt lat="47.49782" lon="6.89759">
        <ele>410</ele>
        <time>2014-09-28T08:28:12.000Z</time>
      </trkpt>
      <trkpt lat="47.4978" lon="6.8976">
        <ele>409.8</ele>
        <time>2014-09-28T08:28:13.000Z</time>
      </trkpt>
      <trkpt lat="47.49777" lon="6.8976">
        <ele>409.9</ele>
        <time>2014-09-28T08:28:14.000Z</time>
      </trkpt>
      <trkpt lat="47.49774" lon="6.8976">
        <ele>409.3</ele>
        <time>2014-09-28T08:28:15.000Z</time>
      </trkpt>
      <trkpt lat="47.4977" lon="6.8976">
        <ele>408.7</ele>
        <time>2014-09-28T08:28:16.000Z</time>
      </trkpt>
      <trkpt lat="47.49767" lon="6.8976">
        <ele>409.5</ele>
        <time>2014-09-28T08:28:17.000Z</time>
      </trkpt>
      <trkpt lat="47.49764" lon="6.8976">
        <ele>408.8</ele>
        <time>2014-09-28T08:28:18.000Z</time>
      </trkpt>
      <trkpt lat="47.49761" lon="6.8976">
        <ele>408.5</ele>
        <time>2014-09-28T08:28:19.000Z</time>
      </trkpt>
      <trkpt lat="47.49758" lon="6.89759">
        <ele>408</ele>
        <time>2014-09-28T08:28:20.000Z</time>
      </trkpt>
      <trkpt lat="47.49754" lon="6.89759">
        <ele>408.2</ele>
        <time>2014-09-28T08:28:21.000Z</time>
      </trkpt>
      <trkpt lat="47.4975" lon="6.89759">
        <ele>408.6</ele>
        <time>2014-09-28T08:28:22.000Z</time>
      </trkpt>
      <trkpt lat="47.49745" lon="6.89758">
        <ele>409</ele>
        <time>2014-09-28T08:28:23.000Z</time>
      </trkpt>
      <trkpt lat="47.4974" lon="6.89758">
        <ele>408.4</ele>
        <time>2014-09-28T08:28:24.000Z</time>
      </trkpt>
      <trkpt lat="47.49735" lon="6.89757">
        <ele>407.8</ele>
        <time>2014-09-28T08:28:25.000Z</time>
      </trkpt>
      <trkpt lat="47.49725" lon="6.89754">
        <ele>401.9</ele>
        <time>2014-09-28T08:28:26.000Z</time>
      </trkpt>
      <trkpt lat="47.49719" lon="6.89753">
        <ele>399.9</ele>
        <time>2014-09-28T08:28:29.000Z</time>
      </trkpt>
      <trkpt lat="47.49716" lon="6.89758">
        <ele>401.2</ele>
        <time>2014-09-28T08:28:31.000Z</time>
      </trkpt>
      <trkpt lat="47.49714" lon="6.8976">
        <ele>401.2</ele>
        <time>2014-09-28T08:28:32.000Z</time>
      </trkpt>
      <trkpt lat="47.4971" lon="6.8976">
        <ele>402.1</ele>
        <time>2014-09-28T08:28:33.000Z</time>
      </trkpt>
      <trkpt lat="47.49708" lon="6.8976">
        <ele>401.6</ele>
        <time>2014-09-28T08:28:34.000Z</time>
      </trkpt>
      <trkpt lat="47.49706" lon="6.89761">
        <ele>401.7</ele>
        <time>2014-09-28T08:28:35.000Z</time>
      </trkpt>
      <trkpt lat="47.49705" lon="6.89765">
        <ele>400.8</ele>
        <time>2014-09-28T08:28:36.000Z</time>
      </trkpt>
      <trkpt lat="47.49703" lon="6.89768">
        <ele>401.7</ele>
        <time>2014-09-28T08:28:37.000Z</time>
      </trkpt>
      <trkpt lat="47.49701" lon="6.89769">
        <ele>400.8</ele>
        <time>2014-09-28T08:28:38.000Z</time>
      </trkpt>
      <trkpt lat="47.49698" lon="6.8977">
        <ele>402</ele>
        <time>2014-09-28T08:28:39.000Z</time>
      </trkpt>
      <trkpt lat="47.49696" lon="6.89772">
        <ele>401.3</ele>
        <time>2014-09-28T08:28:40.000Z</time>
      </trkpt>
      <trkpt lat="47.49692" lon="6.89775">
        <ele>401.6</ele>
        <time>2014-09-28T08:28:42.000Z</time>
      </trkpt>
      <trkpt lat="47.49691" lon="6.89776">
        <ele>401.8</ele>
        <time>2014-09-28T08:28:43.000Z</time>
      </trkpt>
      <trkpt lat="47.49687" lon="6.89778">
        <ele>401</ele>
        <time>2014-09-28T08:28:45.000Z</time>
      </trkpt>
      <trkpt lat="47.49684" lon="6.89778">
        <ele>403.5</ele>
        <time>2014-09-28T08:28:46.000Z</time>
      </trkpt>
      <trkpt lat="47.49682" lon="6.89779">
        <ele>404.2</ele>
        <time>2014-09-28T08:28:47.000Z</time>
      </trkpt>
      <trkpt lat="47.49679" lon="6.8978">
        <ele>402.9</ele>
        <time>2014-09-28T08:28:48.000Z</time>
      </trkpt>
      <trkpt lat="47.49677" lon="6.89781">
        <ele>403.4</ele>
        <time>2014-09-28T08:28:49.000Z</time>
      </trkpt>
      <trkpt lat="47.49674" lon="6.89781">
        <ele>403.3</ele>
        <time>2014-09-28T08:28:50.000Z</time>
      </trkpt>
      <trkpt lat="47.49672" lon="6.89781">
        <ele>402.5</ele>
        <time>2014-09-28T08:28:51.000Z</time>
      </trkpt>
      <trkpt lat="47.49668" lon="6.8978">
        <ele>402.7</ele>
        <time>2014-09-28T08:28:52.000Z</time>
      </trkpt>
      <trkpt lat="47.49665" lon="6.8978">
        <ele>402.3</ele>
        <time>2014-09-28T08:28:53.000Z</time>
      </trkpt>
      <trkpt lat="47.49662" lon="6.89778">
        <ele>403.8</ele>
        <time>2014-09-28T08:28:54.000Z</time>
      </trkpt>
      <trkpt lat="47.49659" lon="6.89777">
        <ele>404.4</ele>
        <time>2014-09-28T08:28:55.000Z</time>
      </trkpt>
      <trkpt lat="47.49657" lon="6.89775">
        <ele>404</ele>
        <time>2014-09-28T08:28:56.000Z</time>
      </trkpt>
      <trkpt lat="47.49655" lon="6.89772">
        <ele>405.2</ele>
        <time>2014-09-28T08:28:58.000Z</time>
      </trkpt>
      <trkpt lat="47.49654" lon="6.8977">
        <ele>403.9</ele>
        <time>2014-09-28T08:28:59.000Z</time>
      </trkpt>
      <trkpt lat="47.49651" lon="6.89767">
        <ele>407.2</ele>
        <time>2014-09-28T08:29:01.000Z</time>
      </trkpt>
      <trkpt lat="47.4965" lon="6.89766">
        <ele>407.2</ele>
        <time>2014-09-28T08:29:02.000Z</time>
      </trkpt>
      <trkpt lat="47.49646" lon="6.89763">
        <ele>407.7</ele>
        <time>2014-09-28T08:29:05.000Z</time>
      </trkpt>
      <trkpt lat="47.49645" lon="6.89761">
        <ele>408.2</ele>
        <time>2014-09-28T08:29:06.000Z</time>
      </trkpt>
      <trkpt lat="47.49642" lon="6.89758">
        <ele>408.6</ele>
        <time>2014-09-28T08:29:08.000Z</time>
      </trkpt>
      <trkpt lat="47.4964" lon="6.89755">
        <ele>409</ele>
        <time>2014-09-28T08:29:09.000Z</time>
      </trkpt>
      <trkpt lat="47.49639" lon="6.89753">
        <ele>409.1</ele>
        <time>2014-09-28T08:29:10.000Z</time>
      </trkpt>
      <trkpt lat="47.49637" lon="6.8975">
        <ele>409.9</ele>
        <time>2014-09-28T08:29:11.000Z</time>
      </trkpt>
      <trkpt lat="47.49635" lon="6.89746">
        <ele>409.5</ele>
        <time>2014-09-28T08:29:12.000Z</time>
      </trkpt>
      <trkpt lat="47.49633" lon="6.89743">
        <ele>408.5</ele>
        <time>2014-09-28T08:29:13.000Z</time>
      </trkpt>
      <trkpt lat="47.4963" lon="6.89739">
        <ele>407.8</ele>
        <time>2014-09-28T08:29:14.000Z</time>
      </trkpt>
      <trkpt lat="47.49627" lon="6.89735">
        <ele>406.8</ele>
        <time>2014-09-28T08:29:15.000Z</time>
      </trkpt>
      <trkpt lat="47.49624" lon="6.89731">
        <ele>407.2</ele>
        <time>2014-09-28T08:29:16.000Z</time>
      </trkpt>
      <trkpt lat="47.49622" lon="6.89727">
        <ele>407.2</ele>
        <time>2014-09-28T08:29:17.000Z</time>
      </trkpt>
      <trkpt lat="47.49619" lon="6.89723">
        <ele>406.3</ele>
        <time>2014-09-28T08:29:18.000Z</time>
      </trkpt>
      <trkpt lat="47.49617" lon="6.89719">
        <ele>406.6</ele>
        <time>2014-09-28T08:29:19.000Z</time>
      </trkpt>
      <trkpt lat="47.49614" lon="6.89716">
        <ele>406.6</ele>
        <time>2014-09-28T08:29:20.000Z</time>
      </trkpt>
      <trkpt lat="47.49612" lon="6.89713">
        <ele>405.9</ele>
        <time>2014-09-28T08:29:21.000Z</time>
      </trkpt>
      <trkpt lat="47.4961" lon="6.8971">
        <ele>405.5</ele>
        <time>2014-09-28T08:29:22.000Z</time>
      </trkpt>
      <trkpt lat="47.49607" lon="6.89707">
        <ele>405</ele>
        <time>2014-09-28T08:29:23.000Z</time>
      </trkpt>
      <trkpt lat="47.49604" lon="6.89702">
        <ele>403.1</ele>
        <time>2014-09-28T08:29:24.000Z</time>
      </trkpt>
      <trkpt lat="47.49601" lon="6.89697">
        <ele>401.8</ele>
        <time>2014-09-28T08:29:25.000Z</time>
      </trkpt>
      <trkpt lat="47.49592" lon="6.89676">
        <ele>401.9</ele>
        <time>2014-09-28T08:29:26.000Z</time>
      </trkpt>
      <trkpt lat="47.49586" lon="6.89664">
        <ele>401.7</ele>
        <time>2014-09-28T08:29:29.000Z</time>
      </trkpt>
      <trkpt lat="47.49583" lon="6.89659">
        <ele>400.6</ele>
        <time>2014-09-28T08:29:31.000Z</time>
      </trkpt>
      <trkpt lat="47.4958" lon="6.89655">
        <ele>401.8</ele>
        <time>2014-09-28T08:29:32.000Z</time>
      </trkpt>
      <trkpt lat="47.49577" lon="6.89652">
        <ele>402.3</ele>
        <time>2014-09-28T08:29:33.000Z</time>
      </trkpt>
      <trkpt lat="47.49575" lon="6.89647">
        <ele>403.5</ele>
        <time>2014-09-28T08:29:34.000Z</time>
      </trkpt>
      <trkpt lat="47.49573" lon="6.89644">
        <ele>402.7</ele>
        <time>2014-09-28T08:29:35.000Z</time>
      </trkpt>
      <trkpt lat="47.49571" lon="6.89641">
        <ele>402.3</ele>
        <time>2014-09-28T08:29:36.000Z</time>
      </trkpt>
      <trkpt lat="47.49566" lon="6.89632">
        <ele>405.2</ele>
        <time>2014-09-28T08:29:37.000Z</time>
      </trkpt>
      <trkpt lat="47.49563" lon="6.89629">
        <ele>406.3</ele>
        <time>2014-09-28T08:29:38.000Z</time>
      </trkpt>
      <trkpt lat="47.49561" lon="6.89626">
        <ele>406.7</ele>
        <time>2014-09-28T08:29:39.000Z</time>
      </trkpt>
      <trkpt lat="47.49557" lon="6.89622">
        <ele>408.2</ele>
        <time>2014-09-28T08:29:41.000Z</time>
      </trkpt>
      <trkpt lat="47.49556" lon="6.89621">
        <ele>409</ele>
        <time>2014-09-28T08:29:42.000Z</time>
      </trkpt>
      <trkpt lat="47.49552" lon="6.8962">
        <ele>407.6</ele>
        <time>2014-09-28T08:29:44.000Z</time>
      </trkpt>
      <trkpt lat="47.4955" lon="6.89619">
        <ele>405.4</ele>
        <time>2014-09-28T08:29:45.000Z</time>
      </trkpt>
      <trkpt lat="47.49548" lon="6.89616">
        <ele>405.6</ele>
        <time>2014-09-28T08:29:46.000Z</time>
      </trkpt>
      <trkpt lat="47.49546" lon="6.89613">
        <ele>404.1</ele>
        <time>2014-09-28T08:29:47.000Z</time>
      </trkpt>
      <trkpt lat="47.49545" lon="6.8961">
        <ele>404.4</ele>
        <time>2014-09-28T08:29:48.000Z</time>
      </trkpt>
      <trkpt lat="47.49544" lon="6.89606">
        <ele>403.3</ele>
        <time>2014-09-28T08:29:49.000Z</time>
      </trkpt>
      <trkpt lat="47.49542" lon="6.89603">
        <ele>402.8</ele>
        <time>2014-09-28T08:29:50.000Z</time>
      </trkpt>
      <trkpt lat="47.49541" lon="6.89599">
        <ele>403.1</ele>
        <time>2014-09-28T08:29:51.000Z</time>
      </trkpt>
      <trkpt lat="47.49539" lon="6.89596">
        <ele>401.8</ele>
        <time>2014-09-28T08:29:52.000Z</time>
      </trkpt>
      <trkpt lat="47.49536" lon="6.89592">
        <ele>400.8</ele>
        <time>2014-09-28T08:29:53.000Z</time>
      </trkpt>
      <trkpt lat="47.49534" lon="6.89589">
        <ele>400</ele>
        <time>2014-09-28T08:29:54.000Z</time>
      </trkpt>
      <trkpt lat="47.49531" lon="6.89585">
        <ele>399.8</ele>
        <time>2014-09-28T08:29:55.000Z</time>
      </trkpt>
      <trkpt lat="47.49529" lon="6.89582">
        <ele>399.4</ele>
        <time>2014-09-28T08:29:56.000Z</time>
      </trkpt>
      <trkpt lat="47.49527" lon="6.89579">
        <ele>399.2</ele>
        <time>2014-09-28T08:29:57.000Z</time>
      </trkpt>
      <trkpt lat="47.49525" lon="6.89576">
        <ele>399.6</ele>
        <time>2014-09-28T08:29:58.000Z</time>
      </trkpt>
      <trkpt lat="47.49523" lon="6.89573">
        <ele>400.2</ele>
        <time>2014-09-28T08:29:59.000Z</time>
      </trkpt>
      <trkpt lat="47.49522" lon="6.8957">
        <ele>400.1</ele>
        <time>2014-09-28T08:30:00.000Z</time>
      </trkpt>
      <trkpt lat="47.49521" lon="6.89566">
        <ele>400.1</ele>
        <time>2014-09-28T08:30:01.000Z</time>
      </trkpt>
      <trkpt lat="47.4952" lon="6.89563">
        <ele>400.6</ele>
        <time>2014-09-28T08:30:02.000Z</time>
      </trkpt>
      <trkpt lat="47.49518" lon="6.8956">
        <ele>401.4</ele>
        <time>2014-09-28T08:30:03.000Z</time>
      </trkpt>
      <trkpt lat="47.49516" lon="6.89555">
        <ele>402.3</ele>
        <time>2014-09-28T08:30:05.000Z</time>
      </trkpt>
      <trkpt lat="47.49515" lon="6.89553">
        <ele>402.2</ele>
        <time>2014-09-28T08:30:06.000Z</time>
      </trkpt>
      <trkpt lat="47.49513" lon="6.8955">
        <ele>402.1</ele>
        <time>2014-09-28T08:30:07.000Z</time>
      </trkpt>
      <trkpt lat="47.49512" lon="6.89547">
        <ele>402.3</ele>
        <time>2014-09-28T08:30:08.000Z</time>
      </trkpt>
      <trkpt lat="47.4951" lon="6.89544">
        <ele>398.7</ele>
        <time>2014-09-28T08:30:09.000Z</time>
      </trkpt>
      <trkpt lat="47.49509" lon="6.89541">
        <ele>401.9</ele>
        <time>2014-09-28T08:30:10.000Z</time>
      </trkpt>
      <trkpt lat="47.49506" lon="6.89536">
        <ele>403.7</ele>
        <time>2014-09-28T08:30:12.000Z</time>
      </trkpt>
      <trkpt lat="47.49505" lon="6.89533">
        <ele>403.7</ele>
        <time>2014-09-28T08:30:13.000Z</time>
      </trkpt>
      <trkpt lat="47.49504" lon="6.89528">
        <ele>404.2</ele>
        <time>2014-09-28T08:30:15.000Z</time>
      </trkpt>
      <trkpt lat="47.49503" lon="6.89524">
        <ele>403.4</ele>
        <time>2014-09-28T08:30:16.000Z</time>
      </trkpt>
      <trkpt lat="47.49502" lon="6.89519">
        <ele>403</ele>
        <time>2014-09-28T08:30:17.000Z</time>
      </trkpt>
      <trkpt lat="47.49501" lon="6.89514">
        <ele>403.2</ele>
        <time>2014-09-28T08:30:18.000Z</time>
      </trkpt>
      <trkpt lat="47.495" lon="6.89509">
        <ele>402.1</ele>
        <time>2014-09-28T08:30:19.000Z</time>
      </trkpt>
      <trkpt lat="47.49499" lon="6.89504">
        <ele>401.1</ele>
        <time>2014-09-28T08:30:20.000Z</time>
      </trkpt>
      <trkpt lat="47.49498" lon="6.89499">
        <ele>400</ele>
        <time>2014-09-28T08:30:21.000Z</time>
      </trkpt>
      <trkpt lat="47.49496" lon="6.89494">
        <ele>399.7</ele>
        <time>2014-09-28T08:30:22.000Z</time>
      </trkpt>
      <trkpt lat="47.49495" lon="6.89488">
        <ele>399.9</ele>
        <time>2014-09-28T08:30:23.000Z</time>
      </trkpt>
      <trkpt lat="47.49494" lon="6.89482">
        <ele>398.7</ele>
        <time>2014-09-28T08:30:24.000Z</time>
      </trkpt>
      <trkpt lat="47.49492" lon="6.89476">
        <ele>398.4</ele>
        <time>2014-09-28T08:30:25.000Z</time>
      </trkpt>
      <trkpt lat="47.4949" lon="6.8947">
        <ele>397.6</ele>
        <time>2014-09-28T08:30:26.000Z</time>
      </trkpt>
      <trkpt lat="47.49487" lon="6.89456">
        <ele>395.8</ele>
        <time>2014-09-28T08:30:29.000Z</time>
      </trkpt>
      <trkpt lat="47.49478" lon="6.89437">
        <ele>394.4</ele>
        <time>2014-09-28T08:30:30.000Z</time>
      </trkpt>
      <trkpt lat="47.49476" lon="6.89429">
        <ele>394.6</ele>
        <time>2014-09-28T08:30:31.000Z</time>
      </trkpt>
      <trkpt lat="47.49474" lon="6.89423">
        <ele>393.9</ele>
        <time>2014-09-28T08:30:32.000Z</time>
      </trkpt>
      <trkpt lat="47.49473" lon="6.89415">
        <ele>395.7</ele>
        <time>2014-09-28T08:30:33.000Z</time>
      </trkpt>
      <trkpt lat="47.49472" lon="6.89405">
        <ele>396.1</ele>
        <time>2014-09-28T08:30:34.000Z</time>
      </trkpt>
      <trkpt lat="47.4947" lon="6.89396">
        <ele>397</ele>
        <time>2014-09-28T08:30:35.000Z</time>
      </trkpt>
      <trkpt lat="47.49468" lon="6.89391">
        <ele>397.4</ele>
        <time>2014-09-28T08:30:36.000Z</time>
      </trkpt>
      <trkpt lat="47.49464" lon="6.89379">
        <ele>398.6</ele>
        <time>2014-09-28T08:30:37.000Z</time>
      </trkpt>
      <trkpt lat="47.4946" lon="6.89366">
        <ele>401.4</ele>
        <time>2014-09-28T08:30:38.000Z</time>
      </trkpt>
      <trkpt lat="47.49457" lon="6.89355">
        <ele>402.7</ele>
        <time>2014-09-28T08:30:39.000Z</time>
      </trkpt>
      <trkpt lat="47.49454" lon="6.89344">
        <ele>404.5</ele>
        <time>2014-09-28T08:30:40.000Z</time>
      </trkpt>
      <trkpt lat="47.49452" lon="6.89334">
        <ele>406</ele>
        <time>2014-09-28T08:30:41.000Z</time>
      </trkpt>
      <trkpt lat="47.49447" lon="6.89325">
        <ele>406.1</ele>
        <time>2014-09-28T08:30:42.000Z</time>
      </trkpt>
      <trkpt lat="47.49444" lon="6.89315">
        <ele>405.9</ele>
        <time>2014-09-28T08:30:43.000Z</time>
      </trkpt>
      <trkpt lat="47.4944" lon="6.89308">
        <ele>406.6</ele>
        <time>2014-09-28T08:30:44.000Z</time>
      </trkpt>
      <trkpt lat="47.49439" lon="6.893">
        <ele>407.5</ele>
        <time>2014-09-28T08:30:45.000Z</time>
      </trkpt>
      <trkpt lat="47.49436" lon="6.89293">
        <ele>407.7</ele>
        <time>2014-09-28T08:30:46.000Z</time>
      </trkpt>
      <trkpt lat="47.49433" lon="6.89284">
        <ele>407.8</ele>
        <time>2014-09-28T08:30:47.000Z</time>
      </trkpt>
      <trkpt lat="47.4943" lon="6.89275">
        <ele>407.4</ele>
        <time>2014-09-28T08:30:48.000Z</time>
      </trkpt>
      <trkpt lat="47.49427" lon="6.89265">
        <ele>408.2</ele>
        <time>2014-09-28T08:30:49.000Z</time>
      </trkpt>
      <trkpt lat="47.49424" lon="6.89257">
        <ele>407.6</ele>
        <time>2014-09-28T08:30:50.000Z</time>
      </trkpt>
      <trkpt lat="47.49423" lon="6.89248">
        <ele>408.1</ele>
        <time>2014-09-28T08:30:51.000Z</time>
      </trkpt>
      <trkpt lat="47.4942" lon="6.89238">
        <ele>408</ele>
        <time>2014-09-28T08:30:52.000Z</time>
      </trkpt>
      <trkpt lat="47.49418" lon="6.89229">
        <ele>407.7</ele>
        <time>2014-09-28T08:30:53.000Z</time>
      </trkpt>
      <trkpt lat="47.49417" lon="6.89223">
        <ele>407.7</ele>
        <time>2014-09-28T08:30:54.000Z</time>
      </trkpt>
      <trkpt lat="47.49417" lon="6.89217">
        <ele>407.2</ele>
        <time>2014-09-28T08:30:55.000Z</time>
      </trkpt>
      <trkpt lat="47.49417" lon="6.89212">
        <ele>407</ele>
        <time>2014-09-28T08:30:56.000Z</time>
      </trkpt>
      <trkpt lat="47.49416" lon="6.89207">
        <ele>407.2</ele>
        <time>2014-09-28T08:30:57.000Z</time>
      </trkpt>
      <trkpt lat="47.49417" lon="6.89201">
        <ele>407.5</ele>
        <time>2014-09-28T08:30:58.000Z</time>
      </trkpt>
      <trkpt lat="47.49417" lon="6.89197">
        <ele>407.5</ele>
        <time>2014-09-28T08:30:59.000Z</time>
      </trkpt>
      <trkpt lat="47.49415" lon="6.89192">
        <ele>408</ele>
        <time>2014-09-28T08:31:00.000Z</time>
      </trkpt>
      <trkpt lat="47.49415" lon="6.89189">
        <ele>407</ele>
        <time>2014-09-28T08:31:01.000Z</time>
      </trkpt>
      <trkpt lat="47.49414" lon="6.89183">
        <ele>407.1</ele>
        <time>2014-09-28T08:31:02.000Z</time>
      </trkpt>
      <trkpt lat="47.49414" lon="6.8918">
        <ele>406.9</ele>
        <time>2014-09-28T08:31:03.000Z</time>
      </trkpt>
      <trkpt lat="47.49413" lon="6.89177">
        <ele>406.3</ele>
        <time>2014-09-28T08:31:04.000Z</time>
      </trkpt>
      <trkpt lat="47.49413" lon="6.89173">
        <ele>405.5</ele>
        <time>2014-09-28T08:31:05.000Z</time>
      </trkpt>
      <trkpt lat="47.49412" lon="6.8917">
        <ele>404.9</ele>
        <time>2014-09-28T08:31:06.000Z</time>
      </trkpt>
      <trkpt lat="47.49411" lon="6.89166">
        <ele>404.9</ele>
        <time>2014-09-28T08:31:07.000Z</time>
      </trkpt>
      <trkpt lat="47.4941" lon="6.89161">
        <ele>405.3</ele>
        <time>2014-09-28T08:31:08.000Z</time>
      </trkpt>
      <trkpt lat="47.49409" lon="6.89156">
        <ele>405.8</ele>
        <time>2014-09-28T08:31:09.000Z</time>
      </trkpt>
      <trkpt lat="47.49408" lon="6.8915">
        <ele>406</ele>
        <time>2014-09-28T08:31:10.000Z</time>
      </trkpt>
      <trkpt lat="47.49407" lon="6.89144">
        <ele>405.6</ele>
        <time>2014-09-28T08:31:11.000Z</time>
      </trkpt>
      <trkpt lat="47.49406" lon="6.89138">
        <ele>404.2</ele>
        <time>2014-09-28T08:31:12.000Z</time>
      </trkpt>
      <trkpt lat="47.49405" lon="6.89131">
        <ele>402.4</ele>
        <time>2014-09-28T08:31:13.000Z</time>
      </trkpt>
      <trkpt lat="47.49404" lon="6.89124">
        <ele>404.3</ele>
        <time>2014-09-28T08:31:14.000Z</time>
      </trkpt>
      <trkpt lat="47.49403" lon="6.89118">
        <ele>402.4</ele>
        <time>2014-09-28T08:31:15.000Z</time>
      </trkpt>
      <trkpt lat="47.49402" lon="6.89111">
        <ele>402.6</ele>
        <time>2014-09-28T08:31:16.000Z</time>
      </trkpt>
      <trkpt lat="47.49401" lon="6.89106">
        <ele>402.4</ele>
        <time>2014-09-28T08:31:17.000Z</time>
      </trkpt>
      <trkpt lat="47.49401" lon="6.89101">
        <ele>397.4</ele>
        <time>2014-09-28T08:31:18.000Z</time>
      </trkpt>
      <trkpt lat="47.494" lon="6.89094">
        <ele>398.1</ele>
        <time>2014-09-28T08:31:19.000Z</time>
      </trkpt>
      <trkpt lat="47.494" lon="6.89088">
        <ele>397.9</ele>
        <time>2014-09-28T08:31:20.000Z</time>
      </trkpt>
      <trkpt lat="47.494" lon="6.89082">
        <ele>398.2</ele>
        <time>2014-09-28T08:31:21.000Z</time>
      </trkpt>
      <trkpt lat="47.49401" lon="6.89076">
        <ele>398.5</ele>
        <time>2014-09-28T08:31:22.000Z</time>
      </trkpt>
      <trkpt lat="47.494" lon="6.89071">
        <ele>398.7</ele>
        <time>2014-09-28T08:31:23.000Z</time>
      </trkpt>
      <trkpt lat="47.494" lon="6.89065">
        <ele>398.9</ele>
        <time>2014-09-28T08:31:24.000Z</time>
      </trkpt>
      <trkpt lat="47.49399" lon="6.89061">
        <ele>398.8</ele>
        <time>2014-09-28T08:31:25.000Z</time>
      </trkpt>
      <trkpt lat="47.49399" lon="6.89056">
        <ele>399.2</ele>
        <time>2014-09-28T08:31:26.000Z</time>
      </trkpt>
      <trkpt lat="47.49398" lon="6.89046">
        <ele>399.4</ele>
        <time>2014-09-28T08:31:29.000Z</time>
      </trkpt>
      <trkpt lat="47.49397" lon="6.89043">
        <ele>401.2</ele>
        <time>2014-09-28T08:31:30.000Z</time>
      </trkpt>
      <trkpt lat="47.49396" lon="6.89039">
        <ele>401.2</ele>
        <time>2014-09-28T08:31:31.000Z</time>
      </trkpt>
      <trkpt lat="47.49394" lon="6.89034">
        <ele>402.1</ele>
        <time>2014-09-28T08:31:32.000Z</time>
      </trkpt>
      <trkpt lat="47.49392" lon="6.89029">
        <ele>401.6</ele>
        <time>2014-09-28T08:31:33.000Z</time>
      </trkpt>
      <trkpt lat="47.4939" lon="6.89022">
        <ele>401.2</ele>
        <time>2014-09-28T08:31:34.000Z</time>
      </trkpt>
      <trkpt lat="47.49388" lon="6.89014">
        <ele>401</ele>
        <time>2014-09-28T08:31:35.000Z</time>
      </trkpt>
      <trkpt lat="47.49386" lon="6.89006">
        <ele>401.6</ele>
        <time>2014-09-28T08:31:36.000Z</time>
      </trkpt>
      <trkpt lat="47.49386" lon="6.88998">
        <ele>402.3</ele>
        <time>2014-09-28T08:31:37.000Z</time>
      </trkpt>
      <trkpt lat="47.49385" lon="6.8899">
        <ele>402.3</ele>
        <time>2014-09-28T08:31:38.000Z</time>
      </trkpt>
      <trkpt lat="47.49386" lon="6.88983">
        <ele>402.9</ele>
        <time>2014-09-28T08:31:39.000Z</time>
      </trkpt>
      <trkpt lat="47.49387" lon="6.88975">
        <ele>403.1</ele>
        <time>2014-09-28T08:31:40.000Z</time>
      </trkpt>
      <trkpt lat="47.49388" lon="6.88969">
        <ele>403.7</ele>
        <time>2014-09-28T08:31:41.000Z</time>
      </trkpt>
      <trkpt lat="47.49388" lon="6.88962">
        <ele>404.1</ele>
        <time>2014-09-28T08:31:42.000Z</time>
      </trkpt>
      <trkpt lat="47.49387" lon="6.88955">
        <ele>403.3</ele>
        <time>2014-09-28T08:31:43.000Z</time>
      </trkpt>
      <trkpt lat="47.49386" lon="6.88948">
        <ele>402.9</ele>
        <time>2014-09-28T08:31:44.000Z</time>
      </trkpt>
      <trkpt lat="47.49384" lon="6.88939">
        <ele>403.7</ele>
        <time>2014-09-28T08:31:45.000Z</time>
      </trkpt>
      <trkpt lat="47.49382" lon="6.8893">
        <ele>404.7</ele>
        <time>2014-09-28T08:31:46.000Z</time>
      </trkpt>
      <trkpt lat="47.4938" lon="6.8892">
        <ele>404.8</ele>
        <time>2014-09-28T08:31:47.000Z</time>
      </trkpt>
      <trkpt lat="47.49378" lon="6.88911">
        <ele>403.9</ele>
        <time>2014-09-28T08:31:48.000Z</time>
      </trkpt>
      <trkpt lat="47.49376" lon="6.88903">
        <ele>403</ele>
        <time>2014-09-28T08:31:49.000Z</time>
      </trkpt>
      <trkpt lat="47.49375" lon="6.88895">
        <ele>403.1</ele>
        <time>2014-09-28T08:31:50.000Z</time>
      </trkpt>
      <trkpt lat="47.49373" lon="6.88887">
        <ele>402.3</ele>
        <time>2014-09-28T08:31:51.000Z</time>
      </trkpt>
      <trkpt lat="47.49371" lon="6.88879">
        <ele>403.1</ele>
        <time>2014-09-28T08:31:52.000Z</time>
      </trkpt>
      <trkpt lat="47.4937" lon="6.8887">
        <ele>403.9</ele>
        <time>2014-09-28T08:31:53.000Z</time>
      </trkpt>
      <trkpt lat="47.49366" lon="6.8884">
        <ele>403.9</ele>
        <time>2014-09-28T08:31:54.000Z</time>
      </trkpt>
      <trkpt lat="47.49365" lon="6.88836">
        <ele>403.8</ele>
        <time>2014-09-28T08:31:55.000Z</time>
      </trkpt>
      <trkpt lat="47.49364" lon="6.8883">
        <ele>405.1</ele>
        <time>2014-09-28T08:31:56.000Z</time>
      </trkpt>
      <trkpt lat="47.49364" lon="6.88826">
        <ele>406.3</ele>
        <time>2014-09-28T08:31:57.000Z</time>
      </trkpt>
      <trkpt lat="47.49363" lon="6.88821">
        <ele>406.5</ele>
        <time>2014-09-28T08:31:58.000Z</time>
      </trkpt>
      <trkpt lat="47.49362" lon="6.88816">
        <ele>404.7</ele>
        <time>2014-09-28T08:31:59.000Z</time>
      </trkpt>
      <trkpt lat="47.49362" lon="6.8881">
        <ele>404.1</ele>
        <time>2014-09-28T08:32:00.000Z</time>
      </trkpt>
      <trkpt lat="47.49363" lon="6.88803">
        <ele>404.6</ele>
        <time>2014-09-28T08:32:01.000Z</time>
      </trkpt>
      <trkpt lat="47.49363" lon="6.88795">
        <ele>405</ele>
        <time>2014-09-28T08:32:02.000Z</time>
      </trkpt>
      <trkpt lat="47.49363" lon="6.88788">
        <ele>404.8</ele>
        <time>2014-09-28T08:32:03.000Z</time>
      </trkpt>
      <trkpt lat="47.49364" lon="6.88779">
        <ele>405.5</ele>
        <time>2014-09-28T08:32:04.000Z</time>
      </trkpt>
      <trkpt lat="47.49364" lon="6.88748">
        <ele>406.6</ele>
        <time>2014-09-28T08:32:05.000Z</time>
      </trkpt>
      <trkpt lat="47.49364" lon="6.8874">
        <ele>406.9</ele>
        <time>2014-09-28T08:32:06.000Z</time>
      </trkpt>
      <trkpt lat="47.49363" lon="6.88733">
        <ele>407.9</ele>
        <time>2014-09-28T08:32:07.000Z</time>
      </trkpt>
      <trkpt lat="47.49364" lon="6.88726">
        <ele>407.4</ele>
        <time>2014-09-28T08:32:08.000Z</time>
      </trkpt>
      <trkpt lat="47.49363" lon="6.8872">
        <ele>407.7</ele>
        <time>2014-09-28T08:32:09.000Z</time>
      </trkpt>
      <trkpt lat="47.49363" lon="6.88715">
        <ele>407.3</ele>
        <time>2014-09-28T08:32:10.000Z</time>
      </trkpt>
      <trkpt lat="47.49363" lon="6.88709">
        <ele>407.8</ele>
        <time>2014-09-28T08:32:11.000Z</time>
      </trkpt>
      <trkpt lat="47.49363" lon="6.88703">
        <ele>407.9</ele>
        <time>2014-09-28T08:32:12.000Z</time>
      </trkpt>
      <trkpt lat="47.49363" lon="6.88697">
        <ele>408</ele>
        <time>2014-09-28T08:32:13.000Z</time>
      </trkpt>
      <trkpt lat="47.49363" lon="6.88691">
        <ele>408.1</ele>
        <time>2014-09-28T08:32:14.000Z</time>
      </trkpt>
      <trkpt lat="47.49364" lon="6.88683">
        <ele>407.3</ele>
        <time>2014-09-28T08:32:15.000Z</time>
      </trkpt>
      <trkpt lat="47.49364" lon="6.88652">
        <ele>407.5</ele>
        <time>2014-09-28T08:32:16.000Z</time>
      </trkpt>
      <trkpt lat="47.49363" lon="6.88644">
        <ele>407.8</ele>
        <time>2014-09-28T08:32:17.000Z</time>
      </trkpt>
      <trkpt lat="47.49362" lon="6.88637">
        <ele>406.7</ele>
        <time>2014-09-28T08:32:18.000Z</time>
      </trkpt>
      <trkpt lat="47.49362" lon="6.88631">
        <ele>406.3</ele>
        <time>2014-09-28T08:32:19.000Z</time>
      </trkpt>
      <trkpt lat="47.49362" lon="6.88624">
        <ele>406.4</ele>
        <time>2014-09-28T08:32:20.000Z</time>
      </trkpt>
      <trkpt lat="47.49361" lon="6.88617">
        <ele>406</ele>
        <time>2014-09-28T08:32:21.000Z</time>
      </trkpt>
      <trkpt lat="47.49361" lon="6.88609">
        <ele>404.8</ele>
        <time>2014-09-28T08:32:22.000Z</time>
      </trkpt>
      <trkpt lat="47.49361" lon="6.88602">
        <ele>404</ele>
        <time>2014-09-28T08:32:23.000Z</time>
      </trkpt>
      <trkpt lat="47.49361" lon="6.88593">
        <ele>402.8</ele>
        <time>2014-09-28T08:32:24.000Z</time>
      </trkpt>
      <trkpt lat="47.49361" lon="6.88585">
        <ele>402.6</ele>
        <time>2014-09-28T08:32:25.000Z</time>
      </trkpt>
      <trkpt lat="47.49361" lon="6.88577">
        <ele>403.2</ele>
        <time>2014-09-28T08:32:26.000Z</time>
      </trkpt>
      <trkpt lat="47.49361" lon="6.8856">
        <ele>403.4</ele>
        <time>2014-09-28T08:32:29.000Z</time>
      </trkpt>
      <trkpt lat="47.49362" lon="6.88554">
        <ele>404.3</ele>
        <time>2014-09-28T08:32:30.000Z</time>
      </trkpt>
      <trkpt lat="47.49363" lon="6.88548">
        <ele>404.4</ele>
        <time>2014-09-28T08:32:31.000Z</time>
      </trkpt>
      <trkpt lat="47.49365" lon="6.88543">
        <ele>405.5</ele>
        <time>2014-09-28T08:32:32.000Z</time>
      </trkpt>
      <trkpt lat="47.49366" lon="6.88536">
        <ele>405.5</ele>
        <time>2014-09-28T08:32:33.000Z</time>
      </trkpt>
      <trkpt lat="47.49367" lon="6.88529">
        <ele>406</ele>
        <time>2014-09-28T08:32:34.000Z</time>
      </trkpt>
      <trkpt lat="47.49367" lon="6.88523">
        <ele>405.5</ele>
        <time>2014-09-28T08:32:35.000Z</time>
      </trkpt>
      <trkpt lat="47.49368" lon="6.88516">
        <ele>404.9</ele>
        <time>2014-09-28T08:32:36.000Z</time>
      </trkpt>
      <trkpt lat="47.49369" lon="6.88509">
        <ele>405</ele>
        <time>2014-09-28T08:32:37.000Z</time>
      </trkpt>
      <trkpt lat="47.49369" lon="6.88502">
        <ele>404</ele>
        <time>2014-09-28T08:32:38.000Z</time>
      </trkpt>
      <trkpt lat="47.49366" lon="6.88473">
        <ele>389.2</ele>
        <time>2014-09-28T08:32:39.000Z</time>
      </trkpt>
      <trkpt lat="47.49367" lon="6.88462">
        <ele>383.7</ele>
        <time>2014-09-28T08:32:40.000Z</time>
      </trkpt>
      <trkpt lat="47.49369" lon="6.88452">
        <ele>380.1</ele>
        <time>2014-09-28T08:32:41.000Z</time>
      </trkpt>
      <trkpt lat="47.49368" lon="6.88439">
        <ele>373.8</ele>
        <time>2014-09-28T08:32:42.000Z</time>
      </trkpt>
      <trkpt lat="47.49368" lon="6.88431">
        <ele>369.4</ele>
        <time>2014-09-28T08:32:43.000Z</time>
      </trkpt>
      <trkpt lat="47.49368" lon="6.88424">
        <ele>366.9</ele>
        <time>2014-09-28T08:32:44.000Z</time>
      </trkpt>
      <trkpt lat="47.49367" lon="6.88418">
        <ele>365.3</ele>
        <time>2014-09-28T08:32:45.000Z</time>
      </trkpt>
      <trkpt lat="47.49367" lon="6.88412">
        <ele>364.7</ele>
        <time>2014-09-28T08:32:46.000Z</time>
      </trkpt>
      <trkpt lat="47.49366" lon="6.88405">
        <ele>362.4</ele>
        <time>2014-09-28T08:32:47.000Z</time>
      </trkpt>
      <trkpt lat="47.49364" lon="6.884">
        <ele>350.9</ele>
        <time>2014-09-28T08:32:49.000Z</time>
      </trkpt>
      <trkpt lat="47.49363" lon="6.88399">
        <ele>348.1</ele>
        <time>2014-09-28T08:32:50.000Z</time>
      </trkpt>
      <trkpt lat="47.49362" lon="6.88393">
        <ele>339.3</ele>
        <time>2014-09-28T08:32:53.000Z</time>
      </trkpt>
      <trkpt lat="47.49361" lon="6.88388">
        <ele>342.1</ele>
        <time>2014-09-28T08:32:54.000Z</time>
      </trkpt>
      <trkpt lat="47.4936" lon="6.88382">
        <ele>341.9</ele>
        <time>2014-09-28T08:32:55.000Z</time>
      </trkpt>
      <trkpt lat="47.49359" lon="6.88374">
        <ele>341.9</ele>
        <time>2014-09-28T08:32:56.000Z</time>
      </trkpt>
      <trkpt lat="47.49358" lon="6.88366">
        <ele>341.6</ele>
        <time>2014-09-28T08:32:57.000Z</time>
      </trkpt>
      <trkpt lat="47.49356" lon="6.88358">
        <ele>341.4</ele>
        <time>2014-09-28T08:32:58.000Z</time>
      </trkpt>
      <trkpt lat="47.49355" lon="6.8835">
        <ele>340.6</ele>
        <time>2014-09-28T08:32:59.000Z</time>
      </trkpt>
      <trkpt lat="47.49354" lon="6.88342">
        <ele>339.8</ele>
        <time>2014-09-28T08:33:00.000Z</time>
      </trkpt>
      <trkpt lat="47.49354" lon="6.8832">
        <ele>339.9</ele>
        <time>2014-09-28T08:33:01.000Z</time>
      </trkpt>
      <trkpt lat="47.49353" lon="6.88311">
        <ele>339.2</ele>
        <time>2014-09-28T08:33:02.000Z</time>
      </trkpt>
      <trkpt lat="47.49353" lon="6.88303">
        <ele>338.4</ele>
        <time>2014-09-28T08:33:03.000Z</time>
      </trkpt>
      <trkpt lat="47.49354" lon="6.88296">
        <ele>339.8</ele>
        <time>2014-09-28T08:33:04.000Z</time>
      </trkpt>
      <trkpt lat="47.49355" lon="6.88288">
        <ele>347</ele>
        <time>2014-09-28T08:33:05.000Z</time>
      </trkpt>
      <trkpt lat="47.49357" lon="6.88279">
        <ele>350.7</ele>
        <time>2014-09-28T08:33:06.000Z</time>
      </trkpt>
      <trkpt lat="47.49358" lon="6.88271">
        <ele>353.6</ele>
        <time>2014-09-28T08:33:07.000Z</time>
      </trkpt>
      <trkpt lat="47.49357" lon="6.88266">
        <ele>357.2</ele>
        <time>2014-09-28T08:33:08.000Z</time>
      </trkpt>
      <trkpt lat="47.49356" lon="6.8826">
        <ele>357.9</ele>
        <time>2014-09-28T08:33:09.000Z</time>
      </trkpt>
      <trkpt lat="47.49355" lon="6.88255">
        <ele>359.2</ele>
        <time>2014-09-28T08:33:10.000Z</time>
      </trkpt>
      <trkpt lat="47.49354" lon="6.88252">
        <ele>359.4</ele>
        <time>2014-09-28T08:33:11.000Z</time>
      </trkpt>
      <trkpt lat="47.49351" lon="6.88249">
        <ele>363.6</ele>
        <time>2014-09-28T08:33:13.000Z</time>
      </trkpt>
      <trkpt lat="47.49348" lon="6.88248">
        <ele>363.1</ele>
        <time>2014-09-28T08:33:14.000Z</time>
      </trkpt>
      <trkpt lat="47.49347" lon="6.88247">
        <ele>362.2</ele>
        <time>2014-09-28T08:33:15.000Z</time>
      </trkpt>
      <trkpt lat="47.49344" lon="6.88244">
        <ele>362.6</ele>
        <time>2014-09-28T08:33:16.000Z</time>
      </trkpt>
      <trkpt lat="47.49342" lon="6.88242">
        <ele>363.5</ele>
        <time>2014-09-28T08:33:17.000Z</time>
      </trkpt>
      <trkpt lat="47.4934" lon="6.8824">
        <ele>361.9</ele>
        <time>2014-09-28T08:33:18.000Z</time>
      </trkpt>
      <trkpt lat="47.49336" lon="6.88237">
        <ele>360.9</ele>
        <time>2014-09-28T08:33:20.000Z</time>
      </trkpt>
      <trkpt lat="47.49335" lon="6.88236">
        <ele>360.7</ele>
        <time>2014-09-28T08:33:21.000Z</time>
      </trkpt>
      <trkpt lat="47.49332" lon="6.88234">
        <ele>360.1</ele>
        <time>2014-09-28T08:33:23.000Z</time>
      </trkpt>
      <trkpt lat="47.4933" lon="6.88233">
        <ele>362</ele>
        <time>2014-09-28T08:33:24.000Z</time>
      </trkpt>
      <trkpt lat="47.49326" lon="6.88232">
        <ele>362.3</ele>
        <time>2014-09-28T08:33:26.000Z</time>
      </trkpt>
      <trkpt lat="47.49321" lon="6.88231">
        <ele>361.7</ele>
        <time>2014-09-28T08:33:29.000Z</time>
      </trkpt>
      <trkpt lat="47.49318" lon="6.88231">
        <ele>361.4</ele>
        <time>2014-09-28T08:33:31.000Z</time>
      </trkpt>
      <trkpt lat="47.49316" lon="6.88232">
        <ele>361</ele>
        <time>2014-09-28T08:33:32.000Z</time>
      </trkpt>
      <trkpt lat="47.49313" lon="6.88232">
        <ele>360.6</ele>
        <time>2014-09-28T08:33:34.000Z</time>
      </trkpt>
      <trkpt lat="47.49312" lon="6.88232">
        <ele>360.6</ele>
        <time>2014-09-28T08:33:35.000Z</time>
      </trkpt>
      <trkpt lat="47.49309" lon="6.88235">
        <ele>359.6</ele>
        <time>2014-09-28T08:33:37.000Z</time>
      </trkpt>
      <trkpt lat="47.49308" lon="6.88237">
        <ele>359.4</ele>
        <time>2014-09-28T08:33:38.000Z</time>
      </trkpt>
      <trkpt lat="47.49304" lon="6.88238">
        <ele>359.4</ele>
        <time>2014-09-28T08:33:40.000Z</time>
      </trkpt>
      <trkpt lat="47.49302" lon="6.88238">
        <ele>360.7</ele>
        <time>2014-09-28T08:33:41.000Z</time>
      </trkpt>
      <trkpt lat="47.49298" lon="6.88236">
        <ele>360.8</ele>
        <time>2014-09-28T08:33:43.000Z</time>
      </trkpt>
      <trkpt lat="47.49296" lon="6.88235">
        <ele>360.7</ele>
        <time>2014-09-28T08:33:44.000Z</time>
      </trkpt>
      <trkpt lat="47.49292" lon="6.88233">
        <ele>359.2</ele>
        <time>2014-09-28T08:33:47.000Z</time>
      </trkpt>
      <trkpt lat="47.49291" lon="6.88232">
        <ele>354.8</ele>
        <time>2014-09-28T08:33:48.000Z</time>
      </trkpt>
      <trkpt lat="47.49289" lon="6.88238">
        <ele>362.2</ele>
        <time>2014-09-28T08:33:55.000Z</time>
      </trkpt>
      <trkpt lat="47.49287" lon="6.88239">
        <ele>363.6</ele>
        <time>2014-09-28T08:33:56.000Z</time>
      </trkpt>
      <trkpt lat="47.49285" lon="6.88243">
        <ele>362.7</ele>
        <time>2014-09-28T08:33:58.000Z</time>
      </trkpt>
      <trkpt lat="47.49283" lon="6.88245">
        <ele>367.5</ele>
        <time>2014-09-28T08:33:59.000Z</time>
      </trkpt>
      <trkpt lat="47.4928" lon="6.88247">
        <ele>374.8</ele>
        <time>2014-09-28T08:34:01.000Z</time>
      </trkpt>
      <trkpt lat="47.49278" lon="6.88248">
        <ele>377.4</ele>
        <time>2014-09-28T08:34:02.000Z</time>
      </trkpt>
      <trkpt lat="47.49273" lon="6.88247">
        <ele>380.1</ele>
        <time>2014-09-28T08:34:04.000Z</time>
      </trkpt>
      <trkpt lat="47.49271" lon="6.88247">
        <ele>379.8</ele>
        <time>2014-09-28T08:34:05.000Z</time>
      </trkpt>
      <trkpt lat="47.49267" lon="6.88245">
        <ele>382.3</ele>
        <time>2014-09-28T08:34:07.000Z</time>
      </trkpt>
      <trkpt lat="47.49265" lon="6.88245">
        <ele>383.5</ele>
        <time>2014-09-28T08:34:08.000Z</time>
      </trkpt>
      <trkpt lat="47.4926" lon="6.88244">
        <ele>384.7</ele>
        <time>2014-09-28T08:34:10.000Z</time>
      </trkpt>
      <trkpt lat="47.49258" lon="6.88244">
        <ele>383.4</ele>
        <time>2014-09-28T08:34:11.000Z</time>
      </trkpt>
      <trkpt lat="47.49254" lon="6.88242">
        <ele>385</ele>
        <time>2014-09-28T08:34:13.000Z</time>
      </trkpt>
      <trkpt lat="47.49253" lon="6.88242">
        <ele>386.5</ele>
        <time>2014-09-28T08:34:14.000Z</time>
      </trkpt>
      <trkpt lat="47.49249" lon="6.8824">
        <ele>391.7</ele>
        <time>2014-09-28T08:34:16.000Z</time>
      </trkpt>
      <trkpt lat="47.49247" lon="6.88239">
        <ele>393.8</ele>
        <time>2014-09-28T08:34:17.000Z</time>
      </trkpt>
      <trkpt lat="47.49245" lon="6.88238">
        <ele>392.7</ele>
        <time>2014-09-28T08:34:18.000Z</time>
      </trkpt>
      <trkpt lat="47.49242" lon="6.88237">
        <ele>393.8</ele>
        <time>2014-09-28T08:34:19.000Z</time>
      </trkpt>
      <trkpt lat="47.4924" lon="6.88236">
        <ele>394.7</ele>
        <time>2014-09-28T08:34:20.000Z</time>
      </trkpt>
      <trkpt lat="47.49238" lon="6.88235">
        <ele>394.8</ele>
        <time>2014-09-28T08:34:21.000Z</time>
      </trkpt>
      <trkpt lat="47.49234" lon="6.88234">
        <ele>396.4</ele>
        <time>2014-09-28T08:34:23.000Z</time>
      </trkpt>
      <trkpt lat="47.49232" lon="6.88233">
        <ele>396.7</ele>
        <time>2014-09-28T08:34:24.000Z</time>
      </trkpt>
      <trkpt lat="47.49229" lon="6.88232">
        <ele>394.6</ele>
        <time>2014-09-28T08:34:26.000Z</time>
      </trkpt>
      <trkpt lat="47.49225" lon="6.88229">
        <ele>394.9</ele>
        <time>2014-09-28T08:34:29.000Z</time>
      </trkpt>
      <trkpt lat="47.49221" lon="6.88227">
        <ele>392.6</ele>
        <time>2014-09-28T08:34:32.000Z</time>
      </trkpt>
      <trkpt lat="47.49219" lon="6.88227">
        <ele>392.8</ele>
        <time>2014-09-28T08:34:33.000Z</time>
      </trkpt>
      <trkpt lat="47.49216" lon="6.88225">
        <ele>392.7</ele>
        <time>2014-09-28T08:34:35.000Z</time>
      </trkpt>
      <trkpt lat="47.49214" lon="6.88225">
        <ele>393.1</ele>
        <time>2014-09-28T08:34:36.000Z</time>
      </trkpt>
      <trkpt lat="47.49211" lon="6.88223">
        <ele>392.4</ele>
        <time>2014-09-28T08:34:38.000Z</time>
      </trkpt>
      <trkpt lat="47.49209" lon="6.88223">
        <ele>393.4</ele>
        <time>2014-09-28T08:34:39.000Z</time>
      </trkpt>
      <trkpt lat="47.49206" lon="6.88222">
        <ele>393.8</ele>
        <time>2014-09-28T08:34:41.000Z</time>
      </trkpt>
      <trkpt lat="47.49204" lon="6.88222">
        <ele>394.7</ele>
        <time>2014-09-28T08:34:42.000Z</time>
      </trkpt>
      <trkpt lat="47.49201" lon="6.8822">
        <ele>395.3</ele>
        <time>2014-09-28T08:34:44.000Z</time>
      </trkpt>
      <trkpt lat="47.492" lon="6.88219">
        <ele>395.9</ele>
        <time>2014-09-28T08:34:45.000Z</time>
      </trkpt>
      <trkpt lat="47.49196" lon="6.88218">
        <ele>394.5</ele>
        <time>2014-09-28T08:34:47.000Z</time>
      </trkpt>
      <trkpt lat="47.49195" lon="6.88218">
        <ele>396.2</ele>
        <time>2014-09-28T08:34:48.000Z</time>
      </trkpt>
      <trkpt lat="47.49191" lon="6.88221">
        <ele>397.7</ele>
        <time>2014-09-28T08:34:50.000Z</time>
      </trkpt>
      <trkpt lat="47.49188" lon="6.88222">
        <ele>396.9</ele>
        <time>2014-09-28T08:34:51.000Z</time>
      </trkpt>
      <trkpt lat="47.49186" lon="6.88222">
        <ele>397.2</ele>
        <time>2014-09-28T08:34:52.000Z</time>
      </trkpt>
      <trkpt lat="47.49183" lon="6.88222">
        <ele>398.1</ele>
        <time>2014-09-28T08:34:53.000Z</time>
      </trkpt>
      <trkpt lat="47.49179" lon="6.88221">
        <ele>400.4</ele>
        <time>2014-09-28T08:34:55.000Z</time>
      </trkpt>
      <trkpt lat="47.49177" lon="6.88221">
        <ele>400.8</ele>
        <time>2014-09-28T08:34:56.000Z</time>
      </trkpt>
      <trkpt lat="47.49174" lon="6.8822">
        <ele>402</ele>
        <time>2014-09-28T08:34:58.000Z</time>
      </trkpt>
      <trkpt lat="47.49172" lon="6.88219">
        <ele>401.9</ele>
        <time>2014-09-28T08:34:59.000Z</time>
      </trkpt>
      <trkpt lat="47.49169" lon="6.88219">
        <ele>400.6</ele>
        <time>2014-09-28T08:35:01.000Z</time>
      </trkpt>
      <trkpt lat="47.49167" lon="6.88219">
        <ele>401.2</ele>
        <time>2014-09-28T08:35:02.000Z</time>
      </trkpt>
      <trkpt lat="47.49163" lon="6.88219">
        <ele>397.7</ele>
        <time>2014-09-28T08:35:05.000Z</time>
      </trkpt>
      <trkpt lat="47.49161" lon="6.88219">
        <ele>399.5</ele>
        <time>2014-09-28T08:35:06.000Z</time>
      </trkpt>
      <trkpt lat="47.49159" lon="6.88219">
        <ele>400.4</ele>
        <time>2014-09-28T08:35:07.000Z</time>
      </trkpt>
      <trkpt lat="47.49156" lon="6.8822">
        <ele>400.5</ele>
        <time>2014-09-28T08:35:08.000Z</time>
      </trkpt>
      <trkpt lat="47.49154" lon="6.8822">
        <ele>400.5</ele>
        <time>2014-09-28T08:35:09.000Z</time>
      </trkpt>
      <trkpt lat="47.49151" lon="6.8822">
        <ele>400.1</ele>
        <time>2014-09-28T08:35:10.000Z</time>
      </trkpt>
      <trkpt lat="47.49148" lon="6.8822">
        <ele>399.8</ele>
        <time>2014-09-28T08:35:11.000Z</time>
      </trkpt>
      <trkpt lat="47.49146" lon="6.88221">
        <ele>399.3</ele>
        <time>2014-09-28T08:35:12.000Z</time>
      </trkpt>
      <trkpt lat="47.49143" lon="6.88223">
        <ele>398.6</ele>
        <time>2014-09-28T08:35:14.000Z</time>
      </trkpt>
      <trkpt lat="47.49141" lon="6.88224">
        <ele>397.1</ele>
        <time>2014-09-28T08:35:15.000Z</time>
      </trkpt>
      <trkpt lat="47.49138" lon="6.88223">
        <ele>396.3</ele>
        <time>2014-09-28T08:35:17.000Z</time>
      </trkpt>
      <trkpt lat="47.49136" lon="6.88222">
        <ele>393.9</ele>
        <time>2014-09-28T08:35:18.000Z</time>
      </trkpt>
      <trkpt lat="47.49133" lon="6.88221">
        <ele>391.4</ele>
        <time>2014-09-28T08:35:20.000Z</time>
      </trkpt>
      <trkpt lat="47.49131" lon="6.88221">
        <ele>391.3</ele>
        <time>2014-09-28T08:35:21.000Z</time>
      </trkpt>
      <trkpt lat="47.49128" lon="6.8822">
        <ele>393</ele>
        <time>2014-09-28T08:35:24.000Z</time>
      </trkpt>
      <trkpt lat="47.49126" lon="6.8822">
        <ele>391.3</ele>
        <time>2014-09-28T08:35:25.000Z</time>
      </trkpt>
      <trkpt lat="47.49125" lon="6.8822">
        <ele>390.1</ele>
        <time>2014-09-28T08:35:26.000Z</time>
      </trkpt>
      <trkpt lat="47.49121" lon="6.8822">
        <ele>388.3</ele>
        <time>2014-09-28T08:35:29.000Z</time>
      </trkpt>
      <trkpt lat="47.49116" lon="6.88219">
        <ele>387.9</ele>
        <time>2014-09-28T08:35:32.000Z</time>
      </trkpt>
      <trkpt lat="47.49115" lon="6.88218">
        <ele>388.4</ele>
        <time>2014-09-28T08:35:33.000Z</time>
      </trkpt>
      <trkpt lat="47.49111" lon="6.88217">
        <ele>388.9</ele>
        <time>2014-09-28T08:35:35.000Z</time>
      </trkpt>
      <trkpt lat="47.49109" lon="6.88217">
        <ele>388.2</ele>
        <time>2014-09-28T08:35:36.000Z</time>
      </trkpt>
      <trkpt lat="47.49105" lon="6.88218">
        <ele>385.3</ele>
        <time>2014-09-28T08:35:39.000Z</time>
      </trkpt>
      <trkpt lat="47.49104" lon="6.88218">
        <ele>384.2</ele>
        <time>2014-09-28T08:35:40.000Z</time>
      </trkpt>
      <trkpt lat="47.491" lon="6.88217">
        <ele>383.6</ele>
        <time>2014-09-28T08:35:42.000Z</time>
      </trkpt>
      <trkpt lat="47.49099" lon="6.88217">
        <ele>382.4</ele>
        <time>2014-09-28T08:35:43.000Z</time>
      </trkpt>
      <trkpt lat="47.49096" lon="6.88218">
        <ele>379.7</ele>
        <time>2014-09-28T08:35:45.000Z</time>
      </trkpt>
      <trkpt lat="47.49094" lon="6.88219">
        <ele>379.2</ele>
        <time>2014-09-28T08:35:46.000Z</time>
      </trkpt>
      <trkpt lat="47.4909" lon="6.88221">
        <ele>379.9</ele>
        <time>2014-09-28T08:35:48.000Z</time>
      </trkpt>
      <trkpt lat="47.49089" lon="6.88223">
        <ele>379.8</ele>
        <time>2014-09-28T08:35:49.000Z</time>
      </trkpt>
      <trkpt lat="47.49085" lon="6.88225">
        <ele>378.9</ele>
        <time>2014-09-28T08:35:51.000Z</time>
      </trkpt>
      <trkpt lat="47.49083" lon="6.88225">
        <ele>378.8</ele>
        <time>2014-09-28T08:35:52.000Z</time>
      </trkpt>
      <trkpt lat="47.4908" lon="6.88226">
        <ele>382</ele>
        <time>2014-09-28T08:35:54.000Z</time>
      </trkpt>
      <trkpt lat="47.49078" lon="6.88225">
        <ele>383.3</ele>
        <time>2014-09-28T08:35:55.000Z</time>
      </trkpt>
      <trkpt lat="47.49074" lon="6.88225">
        <ele>383.7</ele>
        <time>2014-09-28T08:35:59.000Z</time>
      </trkpt>
      <trkpt lat="47.49073" lon="6.88225">
        <ele>384.2</ele>
        <time>2014-09-28T08:36:00.000Z</time>
      </trkpt>
      <trkpt lat="47.49069" lon="6.88226">
        <ele>382.2</ele>
        <time>2014-09-28T08:36:06.000Z</time>
      </trkpt>
      <trkpt lat="47.49068" lon="6.88226">
        <ele>382.4</ele>
        <time>2014-09-28T08:36:07.000Z</time>
      </trkpt>
      <trkpt lat="47.49064" lon="6.88224">
        <ele>385.5</ele>
        <time>2014-09-28T08:36:18.000Z</time>
      </trkpt>
      <trkpt lat="47.49063" lon="6.88224">
        <ele>384.4</ele>
        <time>2014-09-28T08:36:19.000Z</time>
      </trkpt>
      <trkpt lat="47.49059" lon="6.88224">
        <ele>386.4</ele>
        <time>2014-09-28T08:36:22.000Z</time>
      </trkpt>
      <trkpt lat="47.49058" lon="6.88224">
        <ele>386.2</ele>
        <time>2014-09-28T08:36:23.000Z</time>
      </trkpt>
      <trkpt lat="47.49054" lon="6.88224">
        <ele>386.2</ele>
        <time>2014-09-28T08:36:28.196Z</time>
      </trkpt>
      <trkpt lat="47.49052" lon="6.88225">
        <ele>384.9</ele>
        <time>2014-09-28T08:36:32.000Z</time>
      </trkpt>
      <trkpt lat="47.49049" lon="6.88226">
        <ele>386</ele>
        <time>2014-09-28T08:36:34.000Z</time>
      </trkpt>
      <trkpt lat="47.49047" lon="6.88225">
        <ele>386.4</ele>
        <time>2014-09-28T08:36:35.000Z</time>
      </trkpt>
      <trkpt lat="47.49045" lon="6.88225">
        <ele>388.3</ele>
        <time>2014-09-28T08:36:36.000Z</time>
      </trkpt>
      <trkpt lat="47.49042" lon="6.88224">
        <ele>389.3</ele>
        <time>2014-09-28T08:36:37.000Z</time>
      </trkpt>
      <trkpt lat="47.49039" lon="6.88224">
        <ele>389.4</ele>
        <time>2014-09-28T08:36:38.000Z</time>
      </trkpt>
      <trkpt lat="47.49036" lon="6.88223">
        <ele>389.1</ele>
        <time>2014-09-28T08:36:39.000Z</time>
      </trkpt>
      <trkpt lat="47.49032" lon="6.88223">
        <ele>389.3</ele>
        <time>2014-09-28T08:36:40.000Z</time>
      </trkpt>
      <trkpt lat="47.49029" lon="6.88224">
        <ele>389.5</ele>
        <time>2014-09-28T08:36:41.000Z</time>
      </trkpt>
      <trkpt lat="47.49025" lon="6.88224">
        <ele>389.9</ele>
        <time>2014-09-28T08:36:42.000Z</time>
      </trkpt>
      <trkpt lat="47.49021" lon="6.88224">
        <ele>388.2</ele>
        <time>2014-09-28T08:36:43.000Z</time>
      </trkpt>
      <trkpt lat="47.49018" lon="6.88224">
        <ele>382.9</ele>
        <time>2014-09-28T08:36:44.000Z</time>
      </trkpt>
      <trkpt lat="47.49014" lon="6.88225">
        <ele>380.9</ele>
        <time>2014-09-28T08:36:45.000Z</time>
      </trkpt>
      <trkpt lat="47.49011" lon="6.88228">
        <ele>379.8</ele>
        <time>2014-09-28T08:36:46.000Z</time>
      </trkpt>
      <trkpt lat="47.49008" lon="6.88231">
        <ele>379.8</ele>
        <time>2014-09-28T08:36:47.000Z</time>
      </trkpt>
      <trkpt lat="47.49004" lon="6.88234">
        <ele>379.2</ele>
        <time>2014-09-28T08:36:48.000Z</time>
      </trkpt>
      <trkpt lat="47.49001" lon="6.88238">
        <ele>379</ele>
        <time>2014-09-28T08:36:49.000Z</time>
      </trkpt>
      <trkpt lat="47.48997" lon="6.8824">
        <ele>379.6</ele>
        <time>2014-09-28T08:36:50.000Z</time>
      </trkpt>
      <trkpt lat="47.48994" lon="6.88242">
        <ele>378.4</ele>
        <time>2014-09-28T08:36:51.000Z</time>
      </trkpt>
      <trkpt lat="47.4899" lon="6.88244">
        <ele>378</ele>
        <time>2014-09-28T08:36:52.000Z</time>
      </trkpt>
      <trkpt lat="47.48987" lon="6.88246">
        <ele>377.3</ele>
        <time>2014-09-28T08:36:53.000Z</time>
      </trkpt>
      <trkpt lat="47.48983" lon="6.88248">
        <ele>376.3</ele>
        <time>2014-09-28T08:36:54.000Z</time>
      </trkpt>
      <trkpt lat="47.48979" lon="6.8825">
        <ele>375.4</ele>
        <time>2014-09-28T08:36:55.000Z</time>
      </trkpt>
      <trkpt lat="47.48976" lon="6.88252">
        <ele>374.7</ele>
        <time>2014-09-28T08:36:56.000Z</time>
      </trkpt>
      <trkpt lat="47.48971" lon="6.88255">
        <ele>374.3</ele>
        <time>2014-09-28T08:36:57.000Z</time>
      </trkpt>
      <trkpt lat="47.48967" lon="6.88257">
        <ele>374.5</ele>
        <time>2014-09-28T08:36:58.000Z</time>
      </trkpt>
      <trkpt lat="47.48962" lon="6.8826">
        <ele>373.5</ele>
        <time>2014-09-28T08:36:59.000Z</time>
      </trkpt>
      <trkpt lat="47.48957" lon="6.88263">
        <ele>374.5</ele>
        <time>2014-09-28T08:37:00.000Z</time>
      </trkpt>
      <trkpt lat="47.48952" lon="6.88266">
        <ele>374.1</ele>
        <time>2014-09-28T08:37:01.000Z</time>
      </trkpt>
      <trkpt lat="47.48948" lon="6.88269">
        <ele>373.1</ele>
        <time>2014-09-28T08:37:02.000Z</time>
      </trkpt>
      <trkpt lat="47.48943" lon="6.88272">
        <ele>372.2</ele>
        <time>2014-09-28T08:37:03.000Z</time>
      </trkpt>
      <trkpt lat="47.48939" lon="6.88275">
        <ele>371.7</ele>
        <time>2014-09-28T08:37:04.000Z</time>
      </trkpt>
      <trkpt lat="47.48934" lon="6.88278">
        <ele>373.4</ele>
        <time>2014-09-28T08:37:05.000Z</time>
      </trkpt>
      <trkpt lat="47.4893" lon="6.8828">
        <ele>372.8</ele>
        <time>2014-09-28T08:37:06.000Z</time>
      </trkpt>
      <trkpt lat="47.48925" lon="6.88283">
        <ele>374.3</ele>
        <time>2014-09-28T08:37:07.000Z</time>
      </trkpt>
      <trkpt lat="47.48921" lon="6.88285">
        <ele>373.9</ele>
        <time>2014-09-28T08:37:08.000Z</time>
      </trkpt>
      <trkpt lat="47.48916" lon="6.88287">
        <ele>373.1</ele>
        <time>2014-09-28T08:37:09.000Z</time>
      </trkpt>
      <trkpt lat="47.48912" lon="6.88288">
        <ele>372.5</ele>
        <time>2014-09-28T08:37:10.000Z</time>
      </trkpt>
      <trkpt lat="47.48908" lon="6.8829">
        <ele>374.3</ele>
        <time>2014-09-28T08:37:11.000Z</time>
      </trkpt>
      <trkpt lat="47.48903" lon="6.88291">
        <ele>374.2</ele>
        <time>2014-09-28T08:37:12.000Z</time>
      </trkpt>
      <trkpt lat="47.48899" lon="6.88292">
        <ele>375</ele>
        <time>2014-09-28T08:37:13.000Z</time>
      </trkpt>
      <trkpt lat="47.48896" lon="6.88293">
        <ele>373.8</ele>
        <time>2014-09-28T08:37:14.000Z</time>
      </trkpt>
      <trkpt lat="47.48892" lon="6.88295">
        <ele>372.5</ele>
        <time>2014-09-28T08:37:15.000Z</time>
      </trkpt>
      <trkpt lat="47.48888" lon="6.88296">
        <ele>371.5</ele>
        <time>2014-09-28T08:37:16.000Z</time>
      </trkpt>
      <trkpt lat="47.48883" lon="6.88298">
        <ele>372.2</ele>
        <time>2014-09-28T08:37:17.000Z</time>
      </trkpt>
      <trkpt lat="47.48877" lon="6.88299">
        <ele>373.1</ele>
        <time>2014-09-28T08:37:18.000Z</time>
      </trkpt>
      <trkpt lat="47.48872" lon="6.88301">
        <ele>374.1</ele>
        <time>2014-09-28T08:37:19.000Z</time>
      </trkpt>
      <trkpt lat="47.4885" lon="6.88302">
        <ele>375.1</ele>
        <time>2014-09-28T08:37:20.000Z</time>
      </trkpt>
      <trkpt lat="47.48845" lon="6.88302">
        <ele>376.1</ele>
        <time>2014-09-28T08:37:21.000Z</time>
      </trkpt>
      <trkpt lat="47.48841" lon="6.88303">
        <ele>376.8</ele>
        <time>2014-09-28T08:37:22.000Z</time>
      </trkpt>
      <trkpt lat="47.48837" lon="6.88304">
        <ele>377.7</ele>
        <time>2014-09-28T08:37:23.000Z</time>
      </trkpt>
      <trkpt lat="47.48833" lon="6.88305">
        <ele>377.8</ele>
        <time>2014-09-28T08:37:24.000Z</time>
      </trkpt>
      <trkpt lat="47.48829" lon="6.88306">
        <ele>378.9</ele>
        <time>2014-09-28T08:37:25.000Z</time>
      </trkpt>
      <trkpt lat="47.48826" lon="6.88307">
        <ele>379.5</ele>
        <time>2014-09-28T08:37:26.000Z</time>
      </trkpt>
      <trkpt lat="47.48819" lon="6.8831">
        <ele>376.7</ele>
        <time>2014-09-28T08:37:29.000Z</time>
      </trkpt>
      <trkpt lat="47.48815" lon="6.88311">
        <ele>376.5</ele>
        <time>2014-09-28T08:37:30.000Z</time>
      </trkpt>
      <trkpt lat="47.48811" lon="6.88312">
        <ele>375.4</ele>
        <time>2014-09-28T08:37:31.000Z</time>
      </trkpt>
      <trkpt lat="47.48807" lon="6.88313">
        <ele>376.8</ele>
        <time>2014-09-28T08:37:32.000Z</time>
      </trkpt>
      <trkpt lat="47.48802" lon="6.88313">
        <ele>376.7</ele>
        <time>2014-09-28T08:37:33.000Z</time>
      </trkpt>
      <trkpt lat="47.48798" lon="6.88313">
        <ele>375.5</ele>
        <time>2014-09-28T08:37:34.000Z</time>
      </trkpt>
      <trkpt lat="47.48793" lon="6.88313">
        <ele>374.8</ele>
        <time>2014-09-28T08:37:35.000Z</time>
      </trkpt>
      <trkpt lat="47.48789" lon="6.88314">
        <ele>373.7</ele>
        <time>2014-09-28T08:37:36.000Z</time>
      </trkpt>
      <trkpt lat="47.48785" lon="6.88314">
        <ele>374</ele>
        <time>2014-09-28T08:37:37.000Z</time>
      </trkpt>
      <trkpt lat="47.4878" lon="6.88316">
        <ele>374.7</ele>
        <time>2014-09-28T08:37:38.000Z</time>
      </trkpt>
      <trkpt lat="47.48776" lon="6.88318">
        <ele>374</ele>
        <time>2014-09-28T08:37:39.000Z</time>
      </trkpt>
      <trkpt lat="47.48771" lon="6.8832">
        <ele>372.7</ele>
        <time>2014-09-28T08:37:40.000Z</time>
      </trkpt>
      <trkpt lat="47.48766" lon="6.88322">
        <ele>376.8</ele>
        <time>2014-09-28T08:37:41.000Z</time>
      </trkpt>
      <trkpt lat="47.48762" lon="6.88324">
        <ele>377.7</ele>
        <time>2014-09-28T08:37:42.000Z</time>
      </trkpt>
      <trkpt lat="47.48757" lon="6.88326">
        <ele>376.8</ele>
        <time>2014-09-28T08:37:43.000Z</time>
      </trkpt>
      <trkpt lat="47.48753" lon="6.88327">
        <ele>376</ele>
        <time>2014-09-28T08:37:44.000Z</time>
      </trkpt>
      <trkpt lat="47.48749" lon="6.88329">
        <ele>375.1</ele>
        <time>2014-09-28T08:37:45.000Z</time>
      </trkpt>
      <trkpt lat="47.48745" lon="6.88331">
        <ele>373.7</ele>
        <time>2014-09-28T08:37:46.000Z</time>
      </trkpt>
      <trkpt lat="47.48741" lon="6.88332">
        <ele>372.4</ele>
        <time>2014-09-28T08:37:47.000Z</time>
      </trkpt>
      <trkpt lat="47.48738" lon="6.88333">
        <ele>368.4</ele>
        <time>2014-09-28T08:37:48.000Z</time>
      </trkpt>
      <trkpt lat="47.48735" lon="6.88334">
        <ele>367.3</ele>
        <time>2014-09-28T08:37:49.000Z</time>
      </trkpt>
      <trkpt lat="47.48732" lon="6.88335">
        <ele>366.2</ele>
        <time>2014-09-28T08:37:50.000Z</time>
      </trkpt>
      <trkpt lat="47.4873" lon="6.88336">
        <ele>366.2</ele>
        <time>2014-09-28T08:37:51.000Z</time>
      </trkpt>
      <trkpt lat="47.48728" lon="6.88338">
        <ele>363.2</ele>
        <time>2014-09-28T08:37:52.000Z</time>
      </trkpt>
      <trkpt lat="47.48726" lon="6.88339">
        <ele>364.5</ele>
        <time>2014-09-28T08:37:53.000Z</time>
      </trkpt>
      <trkpt lat="47.48723" lon="6.88341">
        <ele>364.9</ele>
        <time>2014-09-28T08:37:54.000Z</time>
      </trkpt>
      <trkpt lat="47.48721" lon="6.88343">
        <ele>366.1</ele>
        <time>2014-09-28T08:37:55.000Z</time>
      </trkpt>
      <trkpt lat="47.48718" lon="6.88344">
        <ele>365.8</ele>
        <time>2014-09-28T08:37:56.000Z</time>
      </trkpt>
      <trkpt lat="47.48715" lon="6.88346">
        <ele>366.5</ele>
        <time>2014-09-28T08:37:57.000Z</time>
      </trkpt>
      <trkpt lat="47.48712" lon="6.88348">
        <ele>367.4</ele>
        <time>2014-09-28T08:37:58.000Z</time>
      </trkpt>
      <trkpt lat="47.48709" lon="6.8835">
        <ele>369.4</ele>
        <time>2014-09-28T08:37:59.000Z</time>
      </trkpt>
      <trkpt lat="47.48706" lon="6.88351">
        <ele>368.2</ele>
        <time>2014-09-28T08:38:00.000Z</time>
      </trkpt>
      <trkpt lat="47.48704" lon="6.88353">
        <ele>368.1</ele>
        <time>2014-09-28T08:38:01.000Z</time>
      </trkpt>
      <trkpt lat="47.48701" lon="6.88354">
        <ele>368.1</ele>
        <time>2014-09-28T08:38:02.000Z</time>
      </trkpt>
      <trkpt lat="47.48699" lon="6.88356">
        <ele>369.6</ele>
        <time>2014-09-28T08:38:03.000Z</time>
      </trkpt>
      <trkpt lat="47.48697" lon="6.88357">
        <ele>371.9</ele>
        <time>2014-09-28T08:38:04.000Z</time>
      </trkpt>
      <trkpt lat="47.48695" lon="6.8836">
        <ele>374.7</ele>
        <time>2014-09-28T08:38:05.000Z</time>
      </trkpt>
      <trkpt lat="47.48693" lon="6.88362">
        <ele>374.6</ele>
        <time>2014-09-28T08:38:06.000Z</time>
      </trkpt>
      <trkpt lat="47.48691" lon="6.88363">
        <ele>380.2</ele>
        <time>2014-09-28T08:38:07.000Z</time>
      </trkpt>
      <trkpt lat="47.48689" lon="6.88364">
        <ele>384.1</ele>
        <time>2014-09-28T08:38:08.000Z</time>
      </trkpt>
      <trkpt lat="47.48686" lon="6.88365">
        <ele>385.8</ele>
        <time>2014-09-28T08:38:09.000Z</time>
      </trkpt>
      <trkpt lat="47.48682" lon="6.88365">
        <ele>387.1</ele>
        <time>2014-09-28T08:38:11.000Z</time>
      </trkpt>
      <trkpt lat="47.4868" lon="6.88366">
        <ele>387.5</ele>
        <time>2014-09-28T08:38:12.000Z</time>
      </trkpt>
      <trkpt lat="47.48678" lon="6.88367">
        <ele>387</ele>
        <time>2014-09-28T08:38:13.000Z</time>
      </trkpt>
      <trkpt lat="47.48675" lon="6.88368">
        <ele>385.7</ele>
        <time>2014-09-28T08:38:14.000Z</time>
      </trkpt>
      <trkpt lat="47.48673" lon="6.88369">
        <ele>386.5</ele>
        <time>2014-09-28T08:38:15.000Z</time>
      </trkpt>
      <trkpt lat="47.4867" lon="6.8837">
        <ele>390.3</ele>
        <time>2014-09-28T08:38:16.000Z</time>
      </trkpt>
      <trkpt lat="47.48667" lon="6.88372">
        <ele>389.9</ele>
        <time>2014-09-28T08:38:17.000Z</time>
      </trkpt>
      <trkpt lat="47.48665" lon="6.88375">
        <ele>390</ele>
        <time>2014-09-28T08:38:18.000Z</time>
      </trkpt>
      <trkpt lat="47.48662" lon="6.88378">
        <ele>389.8</ele>
        <time>2014-09-28T08:38:19.000Z</time>
      </trkpt>
      <trkpt lat="47.4866" lon="6.88381">
        <ele>389.8</ele>
        <time>2014-09-28T08:38:20.000Z</time>
      </trkpt>
      <trkpt lat="47.48658" lon="6.88382">
        <ele>389.7</ele>
        <time>2014-09-28T08:38:21.000Z</time>
      </trkpt>
      <trkpt lat="47.48655" lon="6.88384">
        <ele>390.9</ele>
        <time>2014-09-28T08:38:22.000Z</time>
      </trkpt>
      <trkpt lat="47.48653" lon="6.88385">
        <ele>391.5</ele>
        <time>2014-09-28T08:38:23.000Z</time>
      </trkpt>
      <trkpt lat="47.48651" lon="6.88386">
        <ele>390.5</ele>
        <time>2014-09-28T08:38:24.000Z</time>
      </trkpt>
      <trkpt lat="47.48648" lon="6.88387">
        <ele>393.3</ele>
        <time>2014-09-28T08:38:25.000Z</time>
      </trkpt>
      <trkpt lat="47.48646" lon="6.88388">
        <ele>391.6</ele>
        <time>2014-09-28T08:38:26.000Z</time>
      </trkpt>
      <trkpt lat="47.48639" lon="6.88388">
        <ele>387</ele>
        <time>2014-09-28T08:38:29.000Z</time>
      </trkpt>
      <trkpt lat="47.48637" lon="6.88388">
        <ele>387.3</ele>
        <time>2014-09-28T08:38:30.000Z</time>
      </trkpt>
      <trkpt lat="47.48635" lon="6.88389">
        <ele>387.6</ele>
        <time>2014-09-28T08:38:31.000Z</time>
      </trkpt>
      <trkpt lat="47.48632" lon="6.88389">
        <ele>387.8</ele>
        <time>2014-09-28T08:38:32.000Z</time>
      </trkpt>
      <trkpt lat="47.4863" lon="6.8839">
        <ele>389.5</ele>
        <time>2014-09-28T08:38:33.000Z</time>
      </trkpt>
      <trkpt lat="47.48627" lon="6.88392">
        <ele>390.2</ele>
        <time>2014-09-28T08:38:34.000Z</time>
      </trkpt>
      <trkpt lat="47.48625" lon="6.88393">
        <ele>390.6</ele>
        <time>2014-09-28T08:38:35.000Z</time>
      </trkpt>
      <trkpt lat="47.48622" lon="6.88395">
        <ele>390.9</ele>
        <time>2014-09-28T08:38:36.000Z</time>
      </trkpt>
      <trkpt lat="47.48619" lon="6.88397">
        <ele>391.3</ele>
        <time>2014-09-28T08:38:37.000Z</time>
      </trkpt>
      <trkpt lat="47.48617" lon="6.88398">
        <ele>391.1</ele>
        <time>2014-09-28T08:38:38.000Z</time>
      </trkpt>
      <trkpt lat="47.48614" lon="6.88399">
        <ele>389.4</ele>
        <time>2014-09-28T08:38:39.000Z</time>
      </trkpt>
      <trkpt lat="47.48611" lon="6.884">
        <ele>389.6</ele>
        <time>2014-09-28T08:38:40.000Z</time>
      </trkpt>
      <trkpt lat="47.48609" lon="6.88401">
        <ele>386.7</ele>
        <time>2014-09-28T08:38:41.000Z</time>
      </trkpt>
      <trkpt lat="47.48607" lon="6.88402">
        <ele>385.3</ele>
        <time>2014-09-28T08:38:42.000Z</time>
      </trkpt>
      <trkpt lat="47.48605" lon="6.88403">
        <ele>384.4</ele>
        <time>2014-09-28T08:38:43.000Z</time>
      </trkpt>
      <trkpt lat="47.48602" lon="6.88404">
        <ele>383.6</ele>
        <time>2014-09-28T08:38:44.000Z</time>
      </trkpt>
      <trkpt lat="47.48598" lon="6.88414">
        <ele>382.3</ele>
        <time>2014-09-28T08:38:45.000Z</time>
      </trkpt>
      <trkpt lat="47.48596" lon="6.88417">
        <ele>383.3</ele>
        <time>2014-09-28T08:38:46.000Z</time>
      </trkpt>
      <trkpt lat="47.48593" lon="6.88415">
        <ele>384.2</ele>
        <time>2014-09-28T08:38:47.000Z</time>
      </trkpt>
      <trkpt lat="47.48588" lon="6.88416">
        <ele>387.3</ele>
        <time>2014-09-28T08:38:49.000Z</time>
      </trkpt>
      <trkpt lat="47.48586" lon="6.88416">
        <ele>387.9</ele>
        <time>2014-09-28T08:38:50.000Z</time>
      </trkpt>
      <trkpt lat="47.48583" lon="6.88416">
        <ele>388.2</ele>
        <time>2014-09-28T08:38:51.000Z</time>
      </trkpt>
      <trkpt lat="47.48581" lon="6.88413">
        <ele>389</ele>
        <time>2014-09-28T08:38:52.000Z</time>
      </trkpt>
      <trkpt lat="47.48579" lon="6.88413">
        <ele>389.3</ele>
        <time>2014-09-28T08:38:53.000Z</time>
      </trkpt>
      <trkpt lat="47.48577" lon="6.88415">
        <ele>389.2</ele>
        <time>2014-09-28T08:38:54.000Z</time>
      </trkpt>
      <trkpt lat="47.48573" lon="6.88418">
        <ele>388.7</ele>
        <time>2014-09-28T08:38:56.000Z</time>
      </trkpt>
      <trkpt lat="47.48571" lon="6.88419">
        <ele>391.4</ele>
        <time>2014-09-28T08:38:57.000Z</time>
      </trkpt>
      <trkpt lat="47.48569" lon="6.88421">
        <ele>393.2</ele>
        <time>2014-09-28T08:38:58.000Z</time>
      </trkpt>
      <trkpt lat="47.48566" lon="6.88421">
        <ele>395.4</ele>
        <time>2014-09-28T08:38:59.000Z</time>
      </trkpt>
      <trkpt lat="47.48562" lon="6.8842">
        <ele>395.8</ele>
        <time>2014-09-28T08:39:01.000Z</time>
      </trkpt>
      <trkpt lat="47.4856" lon="6.8842">
        <ele>395.7</ele>
        <time>2014-09-28T08:39:02.000Z</time>
      </trkpt>
      <trkpt lat="47.48558" lon="6.88419">
        <ele>394.1</ele>
        <time>2014-09-28T08:39:03.000Z</time>
      </trkpt>
      <trkpt lat="47.48555" lon="6.88418">
        <ele>393.1</ele>
        <time>2014-09-28T08:39:04.000Z</time>
      </trkpt>
      <trkpt lat="47.48553" lon="6.88418">
        <ele>393</ele>
        <time>2014-09-28T08:39:05.000Z</time>
      </trkpt>
      <trkpt lat="47.48551" lon="6.8842">
        <ele>393.8</ele>
        <time>2014-09-28T08:39:06.000Z</time>
      </trkpt>
      <trkpt lat="47.48549" lon="6.88424">
        <ele>394.9</ele>
        <time>2014-09-28T08:39:07.000Z</time>
      </trkpt>
      <trkpt lat="47.48547" lon="6.88428">
        <ele>395.1</ele>
        <time>2014-09-28T08:39:08.000Z</time>
      </trkpt>
      <trkpt lat="47.48546" lon="6.88433">
        <ele>394.8</ele>
        <time>2014-09-28T08:39:09.000Z</time>
      </trkpt>
      <trkpt lat="47.48544" lon="6.88436">
        <ele>395.9</ele>
        <time>2014-09-28T08:39:10.000Z</time>
      </trkpt>
      <trkpt lat="47.48542" lon="6.88438">
        <ele>401.5</ele>
        <time>2014-09-28T08:39:11.000Z</time>
      </trkpt>
      <trkpt lat="47.48539" lon="6.88438">
        <ele>402.7</ele>
        <time>2014-09-28T08:39:12.000Z</time>
      </trkpt>
      <trkpt lat="47.48536" lon="6.88438">
        <ele>406.1</ele>
        <time>2014-09-28T08:39:13.000Z</time>
      </trkpt>
      <trkpt lat="47.48533" lon="6.88437">
        <ele>407.6</ele>
        <time>2014-09-28T08:39:14.000Z</time>
      </trkpt>
      <trkpt lat="47.48531" lon="6.88437">
        <ele>407.9</ele>
        <time>2014-09-28T08:39:15.000Z</time>
      </trkpt>
      <trkpt lat="47.48529" lon="6.88436">
        <ele>410.2</ele>
        <time>2014-09-28T08:39:16.000Z</time>
      </trkpt>
      <trkpt lat="47.48525" lon="6.88435">
        <ele>411.4</ele>
        <time>2014-09-28T08:39:18.000Z</time>
      </trkpt>
      <trkpt lat="47.48522" lon="6.88435">
        <ele>411.6</ele>
        <time>2014-09-28T08:39:19.000Z</time>
      </trkpt>
      <trkpt lat="47.4852" lon="6.88435">
        <ele>411.2</ele>
        <time>2014-09-28T08:39:20.000Z</time>
      </trkpt>
      <trkpt lat="47.48518" lon="6.88435">
        <ele>411.1</ele>
        <time>2014-09-28T08:39:21.000Z</time>
      </trkpt>
      <trkpt lat="47.48515" lon="6.88435">
        <ele>410.7</ele>
        <time>2014-09-28T08:39:22.000Z</time>
      </trkpt>
      <trkpt lat="47.48512" lon="6.88435">
        <ele>410.6</ele>
        <time>2014-09-28T08:39:23.000Z</time>
      </trkpt>
      <trkpt lat="47.4851" lon="6.88435">
        <ele>410.3</ele>
        <time>2014-09-28T08:39:24.000Z</time>
      </trkpt>
      <trkpt lat="47.48507" lon="6.88436">
        <ele>410.4</ele>
        <time>2014-09-28T08:39:25.000Z</time>
      </trkpt>
      <trkpt lat="47.48504" lon="6.88438">
        <ele>412</ele>
        <time>2014-09-28T08:39:26.000Z</time>
      </trkpt>
      <trkpt lat="47.48495" lon="6.88443">
        <ele>411.2</ele>
        <time>2014-09-28T08:39:29.000Z</time>
      </trkpt>
      <trkpt lat="47.48492" lon="6.88444">
        <ele>411.6</ele>
        <time>2014-09-28T08:39:30.000Z</time>
      </trkpt>
      <trkpt lat="47.48489" lon="6.88445">
        <ele>411.8</ele>
        <time>2014-09-28T08:39:31.000Z</time>
      </trkpt>
      <trkpt lat="47.48486" lon="6.88445">
        <ele>412</ele>
        <time>2014-09-28T08:39:32.000Z</time>
      </trkpt>
      <trkpt lat="47.48484" lon="6.88446">
        <ele>411.2</ele>
        <time>2014-09-28T08:39:33.000Z</time>
      </trkpt>
      <trkpt lat="47.48481" lon="6.88446">
        <ele>410.1</ele>
        <time>2014-09-28T08:39:34.000Z</time>
      </trkpt>
      <trkpt lat="47.48479" lon="6.88447">
        <ele>410.9</ele>
        <time>2014-09-28T08:39:35.000Z</time>
      </trkpt>
      <trkpt lat="47.48475" lon="6.8845">
        <ele>414.9</ele>
        <time>2014-09-28T08:39:37.000Z</time>
      </trkpt>
      <trkpt lat="47.48474" lon="6.8845">
        <ele>414.9</ele>
        <time>2014-09-28T08:39:38.000Z</time>
      </trkpt>
      <trkpt lat="47.4847" lon="6.88451">
        <ele>415.8</ele>
        <time>2014-09-28T08:39:42.000Z</time>
      </trkpt>
      <trkpt lat="47.48469" lon="6.88451">
        <ele>417.1</ele>
        <time>2014-09-28T08:39:43.000Z</time>
      </trkpt>
      <trkpt lat="47.48465" lon="6.88453">
        <ele>412.4</ele>
        <time>2014-09-28T08:39:55.000Z</time>
      </trkpt>
      <trkpt lat="47.48464" lon="6.88454">
        <ele>411.9</ele>
        <time>2014-09-28T08:39:56.000Z</time>
      </trkpt>
      <trkpt lat="47.48461" lon="6.88455">
        <ele>413.1</ele>
        <time>2014-09-28T08:39:57.000Z</time>
      </trkpt>
      <trkpt lat="47.48459" lon="6.88456">
        <ele>411.8</ele>
        <time>2014-09-28T08:39:58.000Z</time>
      </trkpt>
      <trkpt lat="47.48456" lon="6.88458">
        <ele>411.4</ele>
        <time>2014-09-28T08:39:59.000Z</time>
      </trkpt>
      <trkpt lat="47.48453" lon="6.88459">
        <ele>411</ele>
        <time>2014-09-28T08:40:00.000Z</time>
      </trkpt>
      <trkpt lat="47.48449" lon="6.8846">
        <ele>410.4</ele>
        <time>2014-09-28T08:40:01.000Z</time>
      </trkpt>
      <trkpt lat="47.48446" lon="6.88462">
        <ele>409.8</ele>
        <time>2014-09-28T08:40:02.000Z</time>
      </trkpt>
      <trkpt lat="47.48441" lon="6.88464">
        <ele>410.1</ele>
        <time>2014-09-28T08:40:03.000Z</time>
      </trkpt>
      <trkpt lat="47.48431" lon="6.88471">
        <ele>409.7</ele>
        <time>2014-09-28T08:40:04.000Z</time>
      </trkpt>
      <trkpt lat="47.48425" lon="6.88476">
        <ele>410.2</ele>
        <time>2014-09-28T08:40:05.000Z</time>
      </trkpt>
      <trkpt lat="47.4842" lon="6.88477">
        <ele>410.6</ele>
        <time>2014-09-28T08:40:06.000Z</time>
      </trkpt>
      <trkpt lat="47.48412" lon="6.88488">
        <ele>411.8</ele>
        <time>2014-09-28T08:40:07.000Z</time>
      </trkpt>
      <trkpt lat="47.48407" lon="6.88492">
        <ele>412</ele>
        <time>2014-09-28T08:40:08.000Z</time>
      </trkpt>
      <trkpt lat="47.48401" lon="6.88496">
        <ele>411.9</ele>
        <time>2014-09-28T08:40:09.000Z</time>
      </trkpt>
      <trkpt lat="47.48394" lon="6.88499">
        <ele>411.5</ele>
        <time>2014-09-28T08:40:10.000Z</time>
      </trkpt>
      <trkpt lat="47.4839" lon="6.88501">
        <ele>411.3</ele>
        <time>2014-09-28T08:40:11.000Z</time>
      </trkpt>
      <trkpt lat="47.48383" lon="6.88505">
        <ele>412.5</ele>
        <time>2014-09-28T08:40:12.000Z</time>
      </trkpt>
      <trkpt lat="47.48378" lon="6.88506">
        <ele>412.7</ele>
        <time>2014-09-28T08:40:13.000Z</time>
      </trkpt>
      <trkpt lat="47.48374" lon="6.88513">
        <ele>412.2</ele>
        <time>2014-09-28T08:40:14.000Z</time>
      </trkpt>
      <trkpt lat="47.4837" lon="6.88516">
        <ele>410.9</ele>
        <time>2014-09-28T08:40:15.000Z</time>
      </trkpt>
      <trkpt lat="47.48364" lon="6.8852">
        <ele>410.7</ele>
        <time>2014-09-28T08:40:16.000Z</time>
      </trkpt>
      <trkpt lat="47.48356" lon="6.88521">
        <ele>413</ele>
        <time>2014-09-28T08:40:17.000Z</time>
      </trkpt>
      <trkpt lat="47.48351" lon="6.88522">
        <ele>413.3</ele>
        <time>2014-09-28T08:40:18.000Z</time>
      </trkpt>
      <trkpt lat="47.48345" lon="6.88524">
        <ele>415.7</ele>
        <time>2014-09-28T08:40:19.000Z</time>
      </trkpt>
      <trkpt lat="47.48339" lon="6.88526">
        <ele>417.1</ele>
        <time>2014-09-28T08:40:20.000Z</time>
      </trkpt>
      <trkpt lat="47.48335" lon="6.88528">
        <ele>416.2</ele>
        <time>2014-09-28T08:40:21.000Z</time>
      </trkpt>
      <trkpt lat="47.48331" lon="6.88529">
        <ele>417.1</ele>
        <time>2014-09-28T08:40:22.000Z</time>
      </trkpt>
      <trkpt lat="47.48327" lon="6.88529">
        <ele>417.2</ele>
        <time>2014-09-28T08:40:23.000Z</time>
      </trkpt>
      <trkpt lat="47.48322" lon="6.88527">
        <ele>415.3</ele>
        <time>2014-09-28T08:40:24.000Z</time>
      </trkpt>
      <trkpt lat="47.48318" lon="6.88529">
        <ele>412.6</ele>
        <time>2014-09-28T08:40:25.000Z</time>
      </trkpt>
      <trkpt lat="47.48313" lon="6.88532">
        <ele>412.2</ele>
        <time>2014-09-28T08:40:26.000Z</time>
      </trkpt>
      <trkpt lat="47.48302" lon="6.88534">
        <ele>412.2</ele>
        <time>2014-09-28T08:40:29.000Z</time>
      </trkpt>
      <trkpt lat="47.48296" lon="6.88532">
        <ele>413.5</ele>
        <time>2014-09-28T08:40:30.000Z</time>
      </trkpt>
      <trkpt lat="47.4829" lon="6.88531">
        <ele>414.9</ele>
        <time>2014-09-28T08:40:31.000Z</time>
      </trkpt>
      <trkpt lat="47.48287" lon="6.88529">
        <ele>412.9</ele>
        <time>2014-09-28T08:40:32.000Z</time>
      </trkpt>
      <trkpt lat="47.48283" lon="6.88528">
        <ele>412.7</ele>
        <time>2014-09-28T08:40:33.000Z</time>
      </trkpt>
      <trkpt lat="47.48279" lon="6.88526">
        <ele>411.9</ele>
        <time>2014-09-28T08:40:34.000Z</time>
      </trkpt>
      <trkpt lat="47.48276" lon="6.88524">
        <ele>411.4</ele>
        <time>2014-09-28T08:40:35.000Z</time>
      </trkpt>
      <trkpt lat="47.48272" lon="6.88523">
        <ele>410.6</ele>
        <time>2014-09-28T08:40:36.000Z</time>
      </trkpt>
      <trkpt lat="47.48268" lon="6.88521">
        <ele>409.2</ele>
        <time>2014-09-28T08:40:37.000Z</time>
      </trkpt>
      <trkpt lat="47.48264" lon="6.8852">
        <ele>409</ele>
        <time>2014-09-28T08:40:38.000Z</time>
      </trkpt>
      <trkpt lat="47.4826" lon="6.88519">
        <ele>406.8</ele>
        <time>2014-09-28T08:40:39.000Z</time>
      </trkpt>
      <trkpt lat="47.48255" lon="6.88518">
        <ele>405.8</ele>
        <time>2014-09-28T08:40:40.000Z</time>
      </trkpt>
      <trkpt lat="47.4825" lon="6.88517">
        <ele>404.8</ele>
        <time>2014-09-28T08:40:41.000Z</time>
      </trkpt>
      <trkpt lat="47.48245" lon="6.88516">
        <ele>404.1</ele>
        <time>2014-09-28T08:40:42.000Z</time>
      </trkpt>
      <trkpt lat="47.4824" lon="6.88516">
        <ele>404</ele>
        <time>2014-09-28T08:40:43.000Z</time>
      </trkpt>
      <trkpt lat="47.48235" lon="6.88516">
        <ele>403</ele>
        <time>2014-09-28T08:40:44.000Z</time>
      </trkpt>
      <trkpt lat="47.48231" lon="6.88516">
        <ele>402.9</ele>
        <time>2014-09-28T08:40:45.000Z</time>
      </trkpt>
      <trkpt lat="47.48226" lon="6.88516">
        <ele>402.4</ele>
        <time>2014-09-28T08:40:46.000Z</time>
      </trkpt>
      <trkpt lat="47.48221" lon="6.88516">
        <ele>401</ele>
        <time>2014-09-28T08:40:47.000Z</time>
      </trkpt>
      <trkpt lat="47.48216" lon="6.88517">
        <ele>400.3</ele>
        <time>2014-09-28T08:40:48.000Z</time>
      </trkpt>
      <trkpt lat="47.48212" lon="6.88519">
        <ele>400.2</ele>
        <time>2014-09-28T08:40:49.000Z</time>
      </trkpt>
      <trkpt lat="47.48208" lon="6.8852">
        <ele>399.1</ele>
        <time>2014-09-28T08:40:50.000Z</time>
      </trkpt>
      <trkpt lat="47.48205" lon="6.88521">
        <ele>398.5</ele>
        <time>2014-09-28T08:40:51.000Z</time>
      </trkpt>
      <trkpt lat="47.48203" lon="6.88523">
        <ele>398.6</ele>
        <time>2014-09-28T08:40:52.000Z</time>
      </trkpt>
      <trkpt lat="47.48201" lon="6.88529">
        <ele>400.8</ele>
        <time>2014-09-28T08:40:55.000Z</time>
      </trkpt>
      <trkpt lat="47.48201" lon="6.88531">
        <ele>401.1</ele>
        <time>2014-09-28T08:40:56.000Z</time>
      </trkpt>
      <trkpt lat="47.48202" lon="6.88537">
        <ele>401.7</ele>
        <time>2014-09-28T08:40:58.000Z</time>
      </trkpt>
      <trkpt lat="47.48203" lon="6.8854">
        <ele>402.5</ele>
        <time>2014-09-28T08:40:59.000Z</time>
      </trkpt>
      <trkpt lat="47.48203" lon="6.88544">
        <ele>401.7</ele>
        <time>2014-09-28T08:41:00.000Z</time>
      </trkpt>
      <trkpt lat="47.48204" lon="6.88549">
        <ele>401.5</ele>
        <time>2014-09-28T08:41:01.000Z</time>
      </trkpt>
      <trkpt lat="47.48204" lon="6.88553">
        <ele>402.2</ele>
        <time>2014-09-28T08:41:02.000Z</time>
      </trkpt>
      <trkpt lat="47.48206" lon="6.88557">
        <ele>404.1</ele>
        <time>2014-09-28T08:41:03.000Z</time>
      </trkpt>
      <trkpt lat="47.48207" lon="6.88561">
        <ele>405.2</ele>
        <time>2014-09-28T08:41:04.000Z</time>
      </trkpt>
      <trkpt lat="47.48209" lon="6.88564">
        <ele>405.6</ele>
        <time>2014-09-28T08:41:05.000Z</time>
      </trkpt>
      <trkpt lat="47.4821" lon="6.88567">
        <ele>406.6</ele>
        <time>2014-09-28T08:41:06.000Z</time>
      </trkpt>
      <trkpt lat="47.48211" lon="6.8857">
        <ele>408.1</ele>
        <time>2014-09-28T08:41:07.000Z</time>
      </trkpt>
      <trkpt lat="47.48212" lon="6.88574">
        <ele>409.2</ele>
        <time>2014-09-28T08:41:08.000Z</time>
      </trkpt>
      <trkpt lat="47.48213" lon="6.88578">
        <ele>408.7</ele>
        <time>2014-09-28T08:41:09.000Z</time>
      </trkpt>
      <trkpt lat="47.48214" lon="6.88583">
        <ele>408.6</ele>
        <time>2014-09-28T08:41:10.000Z</time>
      </trkpt>
      <trkpt lat="47.48214" lon="6.88588">
        <ele>407.6</ele>
        <time>2014-09-28T08:41:11.000Z</time>
      </trkpt>
      <trkpt lat="47.48215" lon="6.88592">
        <ele>408.5</ele>
        <time>2014-09-28T08:41:12.000Z</time>
      </trkpt>
      <trkpt lat="47.48216" lon="6.88597">
        <ele>409.6</ele>
        <time>2014-09-28T08:41:13.000Z</time>
      </trkpt>
      <trkpt lat="47.48217" lon="6.88601">
        <ele>410</ele>
        <time>2014-09-28T08:41:14.000Z</time>
      </trkpt>
      <trkpt lat="47.48218" lon="6.88606">
        <ele>405.5</ele>
        <time>2014-09-28T08:41:15.000Z</time>
      </trkpt>
      <trkpt lat="47.48218" lon="6.8861">
        <ele>403.9</ele>
        <time>2014-09-28T08:41:16.000Z</time>
      </trkpt>
      <trkpt lat="47.48218" lon="6.88614">
        <ele>403.3</ele>
        <time>2014-09-28T08:41:17.000Z</time>
      </trkpt>
      <trkpt lat="47.48218" lon="6.88618">
        <ele>403.7</ele>
        <time>2014-09-28T08:41:18.000Z</time>
      </trkpt>
      <trkpt lat="47.48219" lon="6.88621">
        <ele>404.4</ele>
        <time>2014-09-28T08:41:19.000Z</time>
      </trkpt>
      <trkpt lat="47.48221" lon="6.88626">
        <ele>404.4</ele>
        <time>2014-09-28T08:41:20.998Z</time>
      </trkpt>
      <trkpt lat="47.48222" lon="6.88629">
        <ele>409</ele>
        <time>2014-09-28T08:41:22.000Z</time>
      </trkpt>
      <trkpt lat="47.48223" lon="6.88632">
        <ele>409.8</ele>
        <time>2014-09-28T08:41:23.000Z</time>
      </trkpt>
      <trkpt lat="47.48224" lon="6.88636">
        <ele>409.6</ele>
        <time>2014-09-28T08:41:24.000Z</time>
      </trkpt>
      <trkpt lat="47.48224" lon="6.8864">
        <ele>409.4</ele>
        <time>2014-09-28T08:41:25.000Z</time>
      </trkpt>
      <trkpt lat="47.48225" lon="6.88645">
        <ele>409.3</ele>
        <time>2014-09-28T08:41:26.000Z</time>
      </trkpt>
      <trkpt lat="47.48227" lon="6.88653">
        <ele>409</ele>
        <time>2014-09-28T08:41:29.000Z</time>
      </trkpt>
      <trkpt lat="47.48228" lon="6.88657">
        <ele>409.5</ele>
        <time>2014-09-28T08:41:31.000Z</time>
      </trkpt>
      <trkpt lat="47.48229" lon="6.8866">
        <ele>410.6</ele>
        <time>2014-09-28T08:41:32.000Z</time>
      </trkpt>
      <trkpt lat="47.4823" lon="6.88663">
        <ele>410.9</ele>
        <time>2014-09-28T08:41:33.000Z</time>
      </trkpt>
      <trkpt lat="47.48231" lon="6.88667">
        <ele>410.6</ele>
        <time>2014-09-28T08:41:34.000Z</time>
      </trkpt>
      <trkpt lat="47.48232" lon="6.88671">
        <ele>410.3</ele>
        <time>2014-09-28T08:41:35.000Z</time>
      </trkpt>
      <trkpt lat="47.48233" lon="6.88676">
        <ele>409.6</ele>
        <time>2014-09-28T08:41:36.000Z</time>
      </trkpt>
      <trkpt lat="47.48234" lon="6.8868">
        <ele>409.8</ele>
        <time>2014-09-28T08:41:37.000Z</time>
      </trkpt>
      <trkpt lat="47.48236" lon="6.88683">
        <ele>411.7</ele>
        <time>2014-09-28T08:41:38.000Z</time>
      </trkpt>
      <trkpt lat="47.48238" lon="6.88687">
        <ele>409.8</ele>
        <time>2014-09-28T08:41:39.000Z</time>
      </trkpt>
      <trkpt lat="47.48239" lon="6.88691">
        <ele>410.6</ele>
        <time>2014-09-28T08:41:40.000Z</time>
      </trkpt>
      <trkpt lat="47.4824" lon="6.88694">
        <ele>411.9</ele>
        <time>2014-09-28T08:41:41.000Z</time>
      </trkpt>
      <trkpt lat="47.4824" lon="6.88697">
        <ele>412</ele>
        <time>2014-09-28T08:41:42.000Z</time>
      </trkpt>
      <trkpt lat="47.48238" lon="6.88703">
        <ele>411.6</ele>
        <time>2014-09-28T08:41:44.000Z</time>
      </trkpt>
      <trkpt lat="47.48237" lon="6.88706">
        <ele>411.5</ele>
        <time>2014-09-28T08:41:45.000Z</time>
      </trkpt>
      <trkpt lat="47.48234" lon="6.88709">
        <ele>410.1</ele>
        <time>2014-09-28T08:41:46.000Z</time>
      </trkpt>
      <trkpt lat="47.48231" lon="6.88711">
        <ele>410.2</ele>
        <time>2014-09-28T08:41:47.000Z</time>
      </trkpt>
      <trkpt lat="47.48228" lon="6.88715">
        <ele>410.2</ele>
        <time>2014-09-28T08:41:48.000Z</time>
      </trkpt>
      <trkpt lat="47.48225" lon="6.8872">
        <ele>410.1</ele>
        <time>2014-09-28T08:41:49.000Z</time>
      </trkpt>
      <trkpt lat="47.48222" lon="6.88725">
        <ele>410</ele>
        <time>2014-09-28T08:41:50.000Z</time>
      </trkpt>
      <trkpt lat="47.48219" lon="6.8873">
        <ele>409.4</ele>
        <time>2014-09-28T08:41:51.000Z</time>
      </trkpt>
      <trkpt lat="47.48216" lon="6.88733">
        <ele>410.5</ele>
        <time>2014-09-28T08:41:52.000Z</time>
      </trkpt>
      <trkpt lat="47.48213" lon="6.88734">
        <ele>408.8</ele>
        <time>2014-09-28T08:41:53.000Z</time>
      </trkpt>
      <trkpt lat="47.4821" lon="6.88735">
        <ele>408.9</ele>
        <time>2014-09-28T08:41:54.000Z</time>
      </trkpt>
      <trkpt lat="47.48206" lon="6.88735">
        <ele>409</ele>
        <time>2014-09-28T08:41:55.000Z</time>
      </trkpt>
      <trkpt lat="47.48203" lon="6.88735">
        <ele>408.6</ele>
        <time>2014-09-28T08:41:56.000Z</time>
      </trkpt>
      <trkpt lat="47.482" lon="6.88736">
        <ele>408.1</ele>
        <time>2014-09-28T08:41:57.000Z</time>
      </trkpt>
      <trkpt lat="47.48197" lon="6.88737">
        <ele>408.3</ele>
        <time>2014-09-28T08:41:58.000Z</time>
      </trkpt>
      <trkpt lat="47.48194" lon="6.88738">
        <ele>410.1</ele>
        <time>2014-09-28T08:41:59.000Z</time>
      </trkpt>
      <trkpt lat="47.4819" lon="6.8874">
        <ele>410.9</ele>
        <time>2014-09-28T08:42:00.000Z</time>
      </trkpt>
      <trkpt lat="47.48187" lon="6.88742">
        <ele>412.6</ele>
        <time>2014-09-28T08:42:01.000Z</time>
      </trkpt>
      <trkpt lat="47.48184" lon="6.88744">
        <ele>412.8</ele>
        <time>2014-09-28T08:42:02.000Z</time>
      </trkpt>
      <trkpt lat="47.48182" lon="6.88746">
        <ele>412.4</ele>
        <time>2014-09-28T08:42:03.000Z</time>
      </trkpt>
      <trkpt lat="47.48179" lon="6.88749">
        <ele>413.5</ele>
        <time>2014-09-28T08:42:04.000Z</time>
      </trkpt>
      <trkpt lat="47.48177" lon="6.88751">
        <ele>414.5</ele>
        <time>2014-09-28T08:42:05.000Z</time>
      </trkpt>
      <trkpt lat="47.48174" lon="6.88753">
        <ele>414.4</ele>
        <time>2014-09-28T08:42:06.000Z</time>
      </trkpt>
      <trkpt lat="47.48171" lon="6.88755">
        <ele>413.1</ele>
        <time>2014-09-28T08:42:07.000Z</time>
      </trkpt>
      <trkpt lat="47.48167" lon="6.88757">
        <ele>412.9</ele>
        <time>2014-09-28T08:42:08.000Z</time>
      </trkpt>
      <trkpt lat="47.48164" lon="6.88758">
        <ele>412</ele>
        <time>2014-09-28T08:42:09.000Z</time>
      </trkpt>
      <trkpt lat="47.4816" lon="6.8876">
        <ele>411.6</ele>
        <time>2014-09-28T08:42:10.000Z</time>
      </trkpt>
      <trkpt lat="47.48156" lon="6.88762">
        <ele>411.8</ele>
        <time>2014-09-28T08:42:11.000Z</time>
      </trkpt>
      <trkpt lat="47.48152" lon="6.88764">
        <ele>410.8</ele>
        <time>2014-09-28T08:42:12.000Z</time>
      </trkpt>
      <trkpt lat="47.48148" lon="6.88766">
        <ele>410.5</ele>
        <time>2014-09-28T08:42:13.000Z</time>
      </trkpt>
      <trkpt lat="47.48144" lon="6.88768">
        <ele>409.9</ele>
        <time>2014-09-28T08:42:14.000Z</time>
      </trkpt>
      <trkpt lat="47.4814" lon="6.8877">
        <ele>409.4</ele>
        <time>2014-09-28T08:42:15.000Z</time>
      </trkpt>
      <trkpt lat="47.48136" lon="6.88771">
        <ele>408.8</ele>
        <time>2014-09-28T08:42:16.000Z</time>
      </trkpt>
      <trkpt lat="47.48132" lon="6.88773">
        <ele>408.2</ele>
        <time>2014-09-28T08:42:17.000Z</time>
      </trkpt>
      <trkpt lat="47.48128" lon="6.88774">
        <ele>408.4</ele>
        <time>2014-09-28T08:42:18.000Z</time>
      </trkpt>
      <trkpt lat="47.48124" lon="6.88775">
        <ele>407.8</ele>
        <time>2014-09-28T08:42:19.000Z</time>
      </trkpt>
      <trkpt lat="47.4812" lon="6.88777">
        <ele>407.3</ele>
        <time>2014-09-28T08:42:20.000Z</time>
      </trkpt>
      <trkpt lat="47.48115" lon="6.8878">
        <ele>406.9</ele>
        <time>2014-09-28T08:42:21.000Z</time>
      </trkpt>
      <trkpt lat="47.4811" lon="6.88784">
        <ele>406.8</ele>
        <time>2014-09-28T08:42:22.000Z</time>
      </trkpt>
      <trkpt lat="47.48104" lon="6.88787">
        <ele>406</ele>
        <time>2014-09-28T08:42:23.000Z</time>
      </trkpt>
      <trkpt lat="47.48098" lon="6.88791">
        <ele>405.8</ele>
        <time>2014-09-28T08:42:24.000Z</time>
      </trkpt>
      <trkpt lat="47.48094" lon="6.88797">
        <ele>406.5</ele>
        <time>2014-09-28T08:42:25.000Z</time>
      </trkpt>
      <trkpt lat="47.48088" lon="6.88802">
        <ele>405.6</ele>
        <time>2014-09-28T08:42:26.000Z</time>
      </trkpt>
      <trkpt lat="47.48072" lon="6.88814">
        <ele>405.3</ele>
        <time>2014-09-28T08:42:29.000Z</time>
      </trkpt>
      <trkpt lat="47.48063" lon="6.88822">
        <ele>404.2</ele>
        <time>2014-09-28T08:42:30.000Z</time>
      </trkpt>
      <trkpt lat="47.48056" lon="6.88828">
        <ele>402.7</ele>
        <time>2014-09-28T08:42:31.000Z</time>
      </trkpt>
      <trkpt lat="47.48048" lon="6.88834">
        <ele>401.4</ele>
        <time>2014-09-28T08:42:32.000Z</time>
      </trkpt>
      <trkpt lat="47.4804" lon="6.8884">
        <ele>399.9</ele>
        <time>2014-09-28T08:42:33.000Z</time>
      </trkpt>
      <trkpt lat="47.4803" lon="6.88844">
        <ele>399.1</ele>
        <time>2014-09-28T08:42:34.000Z</time>
      </trkpt>
      <trkpt lat="47.48022" lon="6.8885">
        <ele>398.2</ele>
        <time>2014-09-28T08:42:35.000Z</time>
      </trkpt>
      <trkpt lat="47.48013" lon="6.88856">
        <ele>397.8</ele>
        <time>2014-09-28T08:42:36.000Z</time>
      </trkpt>
      <trkpt lat="47.48004" lon="6.88863">
        <ele>396.8</ele>
        <time>2014-09-28T08:42:37.000Z</time>
      </trkpt>
      <trkpt lat="47.47995" lon="6.88869">
        <ele>395.4</ele>
        <time>2014-09-28T08:42:38.000Z</time>
      </trkpt>
      <trkpt lat="47.47986" lon="6.88874">
        <ele>395.7</ele>
        <time>2014-09-28T08:42:39.000Z</time>
      </trkpt>
      <trkpt lat="47.47978" lon="6.88879">
        <ele>394.8</ele>
        <time>2014-09-28T08:42:40.000Z</time>
      </trkpt>
      <trkpt lat="47.47969" lon="6.88883">
        <ele>394.5</ele>
        <time>2014-09-28T08:42:41.000Z</time>
      </trkpt>
      <trkpt lat="47.47962" lon="6.88887">
        <ele>393.8</ele>
        <time>2014-09-28T08:42:42.000Z</time>
      </trkpt>
      <trkpt lat="47.47954" lon="6.88891">
        <ele>393.5</ele>
        <time>2014-09-28T08:42:43.000Z</time>
      </trkpt>
      <trkpt lat="47.47947" lon="6.88896">
        <ele>393.2</ele>
        <time>2014-09-28T08:42:44.000Z</time>
      </trkpt>
      <trkpt lat="47.47942" lon="6.88904">
        <ele>393.4</ele>
        <time>2014-09-28T08:42:45.000Z</time>
      </trkpt>
      <trkpt lat="47.47939" lon="6.88913">
        <ele>392.3</ele>
        <time>2014-09-28T08:42:46.000Z</time>
      </trkpt>
      <trkpt lat="47.47937" lon="6.88922">
        <ele>391.6</ele>
        <time>2014-09-28T08:42:47.000Z</time>
      </trkpt>
      <trkpt lat="47.47937" lon="6.88931">
        <ele>391</ele>
        <time>2014-09-28T08:42:48.000Z</time>
      </trkpt>
      <trkpt lat="47.47936" lon="6.88939">
        <ele>391.2</ele>
        <time>2014-09-28T08:42:49.000Z</time>
      </trkpt>
      <trkpt lat="47.47936" lon="6.88946">
        <ele>391.4</ele>
        <time>2014-09-28T08:42:50.000Z</time>
      </trkpt>
      <trkpt lat="47.47935" lon="6.88953">
        <ele>391.2</ele>
        <time>2014-09-28T08:42:51.000Z</time>
      </trkpt>
      <trkpt lat="47.47934" lon="6.88959">
        <ele>391.1</ele>
        <time>2014-09-28T08:42:52.000Z</time>
      </trkpt>
      <trkpt lat="47.47934" lon="6.88965">
        <ele>390.9</ele>
        <time>2014-09-28T08:42:53.000Z</time>
      </trkpt>
      <trkpt lat="47.47933" lon="6.88971">
        <ele>391.1</ele>
        <time>2014-09-28T08:42:54.000Z</time>
      </trkpt>
      <trkpt lat="47.47933" lon="6.88977">
        <ele>391.5</ele>
        <time>2014-09-28T08:42:55.000Z</time>
      </trkpt>
      <trkpt lat="47.47933" lon="6.88982">
        <ele>391.5</ele>
        <time>2014-09-28T08:42:56.000Z</time>
      </trkpt>
      <trkpt lat="47.47933" lon="6.88986">
        <ele>391.3</ele>
        <time>2014-09-28T08:42:57.000Z</time>
      </trkpt>
      <trkpt lat="47.47933" lon="6.88991">
        <ele>391.5</ele>
        <time>2014-09-28T08:42:58.000Z</time>
      </trkpt>
      <trkpt lat="47.47933" lon="6.88997">
        <ele>391.2</ele>
        <time>2014-09-28T08:42:59.000Z</time>
      </trkpt>
      <trkpt lat="47.47931" lon="6.89003">
        <ele>391</ele>
        <time>2014-09-28T08:43:00.000Z</time>
      </trkpt>
      <trkpt lat="47.4793" lon="6.89008">
        <ele>390.3</ele>
        <time>2014-09-28T08:43:01.000Z</time>
      </trkpt>
      <trkpt lat="47.47929" lon="6.89014">
        <ele>390.7</ele>
        <time>2014-09-28T08:43:02.000Z</time>
      </trkpt>
      <trkpt lat="47.47928" lon="6.89019">
        <ele>391</ele>
        <time>2014-09-28T08:43:03.000Z</time>
      </trkpt>
      <trkpt lat="47.47926" lon="6.89024">
        <ele>391.2</ele>
        <time>2014-09-28T08:43:04.000Z</time>
      </trkpt>
      <trkpt lat="47.47925" lon="6.89028">
        <ele>391.2</ele>
        <time>2014-09-28T08:43:05.000Z</time>
      </trkpt>
      <trkpt lat="47.47923" lon="6.89032">
        <ele>391</ele>
        <time>2014-09-28T08:43:06.000Z</time>
      </trkpt>
      <trkpt lat="47.47922" lon="6.89036">
        <ele>390.9</ele>
        <time>2014-09-28T08:43:07.000Z</time>
      </trkpt>
      <trkpt lat="47.4792" lon="6.89041">
        <ele>392.1</ele>
        <time>2014-09-28T08:43:08.000Z</time>
      </trkpt>
      <trkpt lat="47.47917" lon="6.89045">
        <ele>392.5</ele>
        <time>2014-09-28T08:43:09.000Z</time>
      </trkpt>
      <trkpt lat="47.47915" lon="6.89049">
        <ele>392</ele>
        <time>2014-09-28T08:43:10.000Z</time>
      </trkpt>
      <trkpt lat="47.47912" lon="6.89053">
        <ele>391.4</ele>
        <time>2014-09-28T08:43:11.000Z</time>
      </trkpt>
      <trkpt lat="47.47906" lon="6.89059">
        <ele>393</ele>
        <time>2014-09-28T08:43:12.000Z</time>
      </trkpt>
      <trkpt lat="47.47902" lon="6.89064">
        <ele>393.2</ele>
        <time>2014-09-28T08:43:13.000Z</time>
      </trkpt>
      <trkpt lat="47.47899" lon="6.89069">
        <ele>392.9</ele>
        <time>2014-09-28T08:43:14.000Z</time>
      </trkpt>
      <trkpt lat="47.47896" lon="6.89073">
        <ele>392.3</ele>
        <time>2014-09-28T08:43:15.000Z</time>
      </trkpt>
      <trkpt lat="47.47893" lon="6.89078">
        <ele>391.6</ele>
        <time>2014-09-28T08:43:16.000Z</time>
      </trkpt>
      <trkpt lat="47.4789" lon="6.89086">
        <ele>392.5</ele>
        <time>2014-09-28T08:43:17.000Z</time>
      </trkpt>
      <trkpt lat="47.47886" lon="6.89092">
        <ele>391.8</ele>
        <time>2014-09-28T08:43:18.000Z</time>
      </trkpt>
      <trkpt lat="47.47882" lon="6.89098">
        <ele>391</ele>
        <time>2014-09-28T08:43:19.000Z</time>
      </trkpt>
      <trkpt lat="47.47877" lon="6.89105">
        <ele>387.6</ele>
        <time>2014-09-28T08:43:20.000Z</time>
      </trkpt>
      <trkpt lat="47.47873" lon="6.89113">
        <ele>387.5</ele>
        <time>2014-09-28T08:43:21.000Z</time>
      </trkpt>
      <trkpt lat="47.47869" lon="6.8912">
        <ele>386.6</ele>
        <time>2014-09-28T08:43:22.000Z</time>
      </trkpt>
      <trkpt lat="47.47865" lon="6.89126">
        <ele>386.1</ele>
        <time>2014-09-28T08:43:23.000Z</time>
      </trkpt>
      <trkpt lat="47.4786" lon="6.89132">
        <ele>385.9</ele>
        <time>2014-09-28T08:43:24.000Z</time>
      </trkpt>
      <trkpt lat="47.47855" lon="6.89137">
        <ele>385.6</ele>
        <time>2014-09-28T08:43:25.000Z</time>
      </trkpt>
      <trkpt lat="47.47851" lon="6.89143">
        <ele>385.5</ele>
        <time>2014-09-28T08:43:26.000Z</time>
      </trkpt>
      <trkpt lat="47.47841" lon="6.89157">
        <ele>384.9</ele>
        <time>2014-09-28T08:43:29.000Z</time>
      </trkpt>
      <trkpt lat="47.47834" lon="6.89164">
        <ele>384.1</ele>
        <time>2014-09-28T08:43:30.000Z</time>
      </trkpt>
      <trkpt lat="47.47828" lon="6.89172">
        <ele>385.4</ele>
        <time>2014-09-28T08:43:31.000Z</time>
      </trkpt>
      <trkpt lat="47.47823" lon="6.89178">
        <ele>385.1</ele>
        <time>2014-09-28T08:43:32.000Z</time>
      </trkpt>
      <trkpt lat="47.47818" lon="6.89185">
        <ele>384.6</ele>
        <time>2014-09-28T08:43:33.000Z</time>
      </trkpt>
      <trkpt lat="47.47813" lon="6.89192">
        <ele>384.6</ele>
        <time>2014-09-28T08:43:34.000Z</time>
      </trkpt>
      <trkpt lat="47.47807" lon="6.892">
        <ele>384.6</ele>
        <time>2014-09-28T08:43:35.000Z</time>
      </trkpt>
      <trkpt lat="47.47801" lon="6.89206">
        <ele>384.3</ele>
        <time>2014-09-28T08:43:36.000Z</time>
      </trkpt>
      <trkpt lat="47.47795" lon="6.89212">
        <ele>383.6</ele>
        <time>2014-09-28T08:43:37.000Z</time>
      </trkpt>
      <trkpt lat="47.47788" lon="6.89218">
        <ele>383.7</ele>
        <time>2014-09-28T08:43:38.000Z</time>
      </trkpt>
      <trkpt lat="47.47781" lon="6.89222">
        <ele>382.9</ele>
        <time>2014-09-28T08:43:39.000Z</time>
      </trkpt>
      <trkpt lat="47.47773" lon="6.89226">
        <ele>383</ele>
        <time>2014-09-28T08:43:40.000Z</time>
      </trkpt>
      <trkpt lat="47.47766" lon="6.89231">
        <ele>382.8</ele>
        <time>2014-09-28T08:43:41.000Z</time>
      </trkpt>
      <trkpt lat="47.4776" lon="6.89235">
        <ele>382.8</ele>
        <time>2014-09-28T08:43:42.000Z</time>
      </trkpt>
      <trkpt lat="47.47756" lon="6.89239">
        <ele>380.7</ele>
        <time>2014-09-28T08:43:43.000Z</time>
      </trkpt>
      <trkpt lat="47.47752" lon="6.89241">
        <ele>381.9</ele>
        <time>2014-09-28T08:43:45.000Z</time>
      </trkpt>
      <trkpt lat="47.47751" lon="6.89242">
        <ele>382.4</ele>
        <time>2014-09-28T08:43:46.000Z</time>
      </trkpt>
      <trkpt lat="47.47749" lon="6.89244">
        <ele>382.1</ele>
        <time>2014-09-28T08:43:47.000Z</time>
      </trkpt>
      <trkpt lat="47.47748" lon="6.89247">
        <ele>382.1</ele>
        <time>2014-09-28T08:43:48.000Z</time>
      </trkpt>
      <trkpt lat="47.4775" lon="6.89252">
        <ele>381.3</ele>
        <time>2014-09-28T08:43:50.000Z</time>
      </trkpt>
      <trkpt lat="47.47752" lon="6.8925">
        <ele>380.3</ele>
        <time>2014-09-28T08:43:51.000Z</time>
      </trkpt>
      <trkpt lat="47.47754" lon="6.89246">
        <ele>380</ele>
        <time>2014-09-28T08:43:53.000Z</time>
      </trkpt>
      <trkpt lat="47.47753" lon="6.89243">
        <ele>380.4</ele>
        <time>2014-09-28T08:43:54.000Z</time>
      </trkpt>
      <trkpt lat="47.47751" lon="6.89239">
        <ele>382.3</ele>
        <time>2014-09-28T08:43:55.000Z</time>
      </trkpt>
      <trkpt lat="47.47749" lon="6.89235">
        <ele>383.8</ele>
        <time>2014-09-28T08:43:56.000Z</time>
      </trkpt>
      <trkpt lat="47.47746" lon="6.8923">
        <ele>382.8</ele>
        <time>2014-09-28T08:43:57.000Z</time>
      </trkpt>
      <trkpt lat="47.47744" lon="6.89224">
        <ele>382.5</ele>
        <time>2014-09-28T08:43:58.000Z</time>
      </trkpt>
      <trkpt lat="47.47738" lon="6.89214">
        <ele>382</ele>
        <time>2014-09-28T08:43:59.000Z</time>
      </trkpt>
      <trkpt lat="47.47735" lon="6.8921">
        <ele>382.1</ele>
        <time>2014-09-28T08:44:00.000Z</time>
      </trkpt>
      <trkpt lat="47.47733" lon="6.89205">
        <ele>383</ele>
        <time>2014-09-28T08:44:01.000Z</time>
      </trkpt>
      <trkpt lat="47.4773" lon="6.89198">
        <ele>383.4</ele>
        <time>2014-09-28T08:44:02.000Z</time>
      </trkpt>
      <trkpt lat="47.47728" lon="6.89192">
        <ele>384.1</ele>
        <time>2014-09-28T08:44:03.000Z</time>
      </trkpt>
      <trkpt lat="47.47725" lon="6.89186">
        <ele>383.9</ele>
        <time>2014-09-28T08:44:04.000Z</time>
      </trkpt>
      <trkpt lat="47.47721" lon="6.8918">
        <ele>383.2</ele>
        <time>2014-09-28T08:44:05.000Z</time>
      </trkpt>
      <trkpt lat="47.47718" lon="6.89175">
        <ele>382.5</ele>
        <time>2014-09-28T08:44:06.000Z</time>
      </trkpt>
      <trkpt lat="47.47715" lon="6.89169">
        <ele>382.4</ele>
        <time>2014-09-28T08:44:07.000Z</time>
      </trkpt>
      <trkpt lat="47.47711" lon="6.89164">
        <ele>381.1</ele>
        <time>2014-09-28T08:44:08.000Z</time>
      </trkpt>
      <trkpt lat="47.47707" lon="6.89159">
        <ele>380.7</ele>
        <time>2014-09-28T08:44:09.000Z</time>
      </trkpt>
      <trkpt lat="47.47703" lon="6.89154">
        <ele>380.6</ele>
        <time>2014-09-28T08:44:10.000Z</time>
      </trkpt>
      <trkpt lat="47.47697" lon="6.89153">
        <ele>380.1</ele>
        <time>2014-09-28T08:44:11.000Z</time>
      </trkpt>
      <trkpt lat="47.4769" lon="6.89153">
        <ele>380.3</ele>
        <time>2014-09-28T08:44:12.000Z</time>
      </trkpt>
      <trkpt lat="47.47685" lon="6.89153">
        <ele>380.3</ele>
        <time>2014-09-28T08:44:13.000Z</time>
      </trkpt>
      <trkpt lat="47.4768" lon="6.89155">
        <ele>380.5</ele>
        <time>2014-09-28T08:44:14.000Z</time>
      </trkpt>
      <trkpt lat="47.47674" lon="6.89157">
        <ele>380.5</ele>
        <time>2014-09-28T08:44:15.000Z</time>
      </trkpt>
      <trkpt lat="47.47669" lon="6.89158">
        <ele>380.4</ele>
        <time>2014-09-28T08:44:16.000Z</time>
      </trkpt>
      <trkpt lat="47.47664" lon="6.89161">
        <ele>380.3</ele>
        <time>2014-09-28T08:44:17.000Z</time>
      </trkpt>
      <trkpt lat="47.47659" lon="6.89164">
        <ele>380</ele>
        <time>2014-09-28T08:44:18.000Z</time>
      </trkpt>
      <trkpt lat="47.47653" lon="6.89166">
        <ele>380.5</ele>
        <time>2014-09-28T08:44:19.000Z</time>
      </trkpt>
      <trkpt lat="47.47648" lon="6.89169">
        <ele>380.7</ele>
        <time>2014-09-28T08:44:20.000Z</time>
      </trkpt>
      <trkpt lat="47.47643" lon="6.8917">
        <ele>379.5</ele>
        <time>2014-09-28T08:44:21.000Z</time>
      </trkpt>
      <trkpt lat="47.47639" lon="6.89173">
        <ele>380.4</ele>
        <time>2014-09-28T08:44:22.000Z</time>
      </trkpt>
      <trkpt lat="47.47634" lon="6.89176">
        <ele>381.1</ele>
        <time>2014-09-28T08:44:23.000Z</time>
      </trkpt>
      <trkpt lat="47.47629" lon="6.89179">
        <ele>381.4</ele>
        <time>2014-09-28T08:44:24.000Z</time>
      </trkpt>
      <trkpt lat="47.47625" lon="6.89184">
        <ele>381.2</ele>
        <time>2014-09-28T08:44:25.000Z</time>
      </trkpt>
      <trkpt lat="47.47621" lon="6.89187">
        <ele>381.5</ele>
        <time>2014-09-28T08:44:26.000Z</time>
      </trkpt>
      <trkpt lat="47.47613" lon="6.89191">
        <ele>381.4</ele>
        <time>2014-09-28T08:44:29.000Z</time>
      </trkpt>
      <trkpt lat="47.47609" lon="6.89192">
        <ele>381</ele>
        <time>2014-09-28T08:44:30.000Z</time>
      </trkpt>
      <trkpt lat="47.47606" lon="6.89194">
        <ele>381.3</ele>
        <time>2014-09-28T08:44:31.000Z</time>
      </trkpt>
      <trkpt lat="47.47604" lon="6.89197">
        <ele>379.7</ele>
        <time>2014-09-28T08:44:32.000Z</time>
      </trkpt>
      <trkpt lat="47.47603" lon="6.89201">
        <ele>379.4</ele>
        <time>2014-09-28T08:44:33.000Z</time>
      </trkpt>
      <trkpt lat="47.47603" lon="6.89207">
        <ele>379.6</ele>
        <time>2014-09-28T08:44:34.000Z</time>
      </trkpt>
      <trkpt lat="47.47603" lon="6.89213">
        <ele>379.5</ele>
        <time>2014-09-28T08:44:35.000Z</time>
      </trkpt>
      <trkpt lat="47.47603" lon="6.89219">
        <ele>378.9</ele>
        <time>2014-09-28T08:44:36.000Z</time>
      </trkpt>
      <trkpt lat="47.47604" lon="6.89226">
        <ele>378.4</ele>
        <time>2014-09-28T08:44:37.000Z</time>
      </trkpt>
      <trkpt lat="47.47604" lon="6.89232">
        <ele>378.2</ele>
        <time>2014-09-28T08:44:38.000Z</time>
      </trkpt>
      <trkpt lat="47.47605" lon="6.89238">
        <ele>377.5</ele>
        <time>2014-09-28T08:44:39.000Z</time>
      </trkpt>
      <trkpt lat="47.47606" lon="6.89246">
        <ele>377.5</ele>
        <time>2014-09-28T08:44:40.000Z</time>
      </trkpt>
      <trkpt lat="47.47607" lon="6.89252">
        <ele>377.8</ele>
        <time>2014-09-28T08:44:41.000Z</time>
      </trkpt>
      <trkpt lat="47.47607" lon="6.89258">
        <ele>377.8</ele>
        <time>2014-09-28T08:44:42.000Z</time>
      </trkpt>
      <trkpt lat="47.47606" lon="6.89262">
        <ele>378.2</ele>
        <time>2014-09-28T08:44:43.000Z</time>
      </trkpt>
      <trkpt lat="47.47605" lon="6.89268">
        <ele>376.3</ele>
        <time>2014-09-28T08:44:53.000Z</time>
      </trkpt>
      <trkpt lat="47.47604" lon="6.8927">
        <ele>376.8</ele>
        <time>2014-09-28T08:44:54.000Z</time>
      </trkpt>
      <trkpt lat="47.47602" lon="6.89272">
        <ele>377.1</ele>
        <time>2014-09-28T08:44:56.000Z</time>
      </trkpt>
      <trkpt lat="47.476" lon="6.89273">
        <ele>377.3</ele>
        <time>2014-09-28T08:44:57.000Z</time>
      </trkpt>
      <trkpt lat="47.47596" lon="6.89273">
        <ele>377.6</ele>
        <time>2014-09-28T08:44:59.000Z</time>
      </trkpt>
      <trkpt lat="47.47593" lon="6.89272">
        <ele>378</ele>
        <time>2014-09-28T08:45:00.000Z</time>
      </trkpt>
      <trkpt lat="47.47591" lon="6.8927">
        <ele>377.8</ele>
        <time>2014-09-28T08:45:01.000Z</time>
      </trkpt>
      <trkpt lat="47.47589" lon="6.89267">
        <ele>378.2</ele>
        <time>2014-09-28T08:45:02.000Z</time>
      </trkpt>
      <trkpt lat="47.47588" lon="6.89264">
        <ele>378.7</ele>
        <time>2014-09-28T08:45:03.000Z</time>
      </trkpt>
      <trkpt lat="47.47587" lon="6.8926">
        <ele>379.2</ele>
        <time>2014-09-28T08:45:04.000Z</time>
      </trkpt>
      <trkpt lat="47.47587" lon="6.89255">
        <ele>378.7</ele>
        <time>2014-09-28T08:45:05.000Z</time>
      </trkpt>
      <trkpt lat="47.47586" lon="6.8925">
        <ele>379.4</ele>
        <time>2014-09-28T08:45:06.000Z</time>
      </trkpt>
      <trkpt lat="47.47586" lon="6.89244">
        <ele>379.7</ele>
        <time>2014-09-28T08:45:07.000Z</time>
      </trkpt>
      <trkpt lat="47.47586" lon="6.89239">
        <ele>380.4</ele>
        <time>2014-09-28T08:45:08.000Z</time>
      </trkpt>
      <trkpt lat="47.47585" lon="6.89233">
        <ele>381.4</ele>
        <time>2014-09-28T08:45:09.000Z</time>
      </trkpt>
      <trkpt lat="47.47584" lon="6.89228">
        <ele>380.9</ele>
        <time>2014-09-28T08:45:10.000Z</time>
      </trkpt>
      <trkpt lat="47.47582" lon="6.89222">
        <ele>381.2</ele>
        <time>2014-09-28T08:45:11.000Z</time>
      </trkpt>
      <trkpt lat="47.47579" lon="6.89218">
        <ele>381.3</ele>
        <time>2014-09-28T08:45:12.000Z</time>
      </trkpt>
      <trkpt lat="47.47576" lon="6.89214">
        <ele>381</ele>
        <time>2014-09-28T08:45:13.000Z</time>
      </trkpt>
      <trkpt lat="47.47573" lon="6.89211">
        <ele>381.1</ele>
        <time>2014-09-28T08:45:14.000Z</time>
      </trkpt>
      <trkpt lat="47.4757" lon="6.89208">
        <ele>381</ele>
        <time>2014-09-28T08:45:15.000Z</time>
      </trkpt>
      <trkpt lat="47.47566" lon="6.89208">
        <ele>382.3</ele>
        <time>2014-09-28T08:45:16.000Z</time>
      </trkpt>
      <trkpt lat="47.47562" lon="6.89208">
        <ele>382.5</ele>
        <time>2014-09-28T08:45:17.000Z</time>
      </trkpt>
      <trkpt lat="47.47557" lon="6.89209">
        <ele>383</ele>
        <time>2014-09-28T08:45:18.000Z</time>
      </trkpt>
      <trkpt lat="47.47553" lon="6.8921">
        <ele>383.3</ele>
        <time>2014-09-28T08:45:19.000Z</time>
      </trkpt>
      <trkpt lat="47.47549" lon="6.89211">
        <ele>383.3</ele>
        <time>2014-09-28T08:45:20.000Z</time>
      </trkpt>
      <trkpt lat="47.47541" lon="6.89212">
        <ele>382.6</ele>
        <time>2014-09-28T08:45:21.000Z</time>
      </trkpt>
      <trkpt lat="47.47537" lon="6.89213">
        <ele>382.3</ele>
        <time>2014-09-28T08:45:22.000Z</time>
      </trkpt>
      <trkpt lat="47.47533" lon="6.89214">
        <ele>382.3</ele>
        <time>2014-09-28T08:45:23.000Z</time>
      </trkpt>
      <trkpt lat="47.4753" lon="6.89215">
        <ele>382.6</ele>
        <time>2014-09-28T08:45:24.000Z</time>
      </trkpt>
      <trkpt lat="47.47526" lon="6.89215">
        <ele>382.5</ele>
        <time>2014-09-28T08:45:25.000Z</time>
      </trkpt>
      <trkpt lat="47.47522" lon="6.89215">
        <ele>382.4</ele>
        <time>2014-09-28T08:45:26.000Z</time>
      </trkpt>
      <trkpt lat="47.47512" lon="6.89216">
        <ele>382.5</ele>
        <time>2014-09-28T08:45:29.000Z</time>
      </trkpt>
      <trkpt lat="47.47508" lon="6.89217">
        <ele>382.7</ele>
        <time>2014-09-28T08:45:30.000Z</time>
      </trkpt>
      <trkpt lat="47.47505" lon="6.89218">
        <ele>382.1</ele>
        <time>2014-09-28T08:45:31.000Z</time>
      </trkpt>
      <trkpt lat="47.47501" lon="6.89218">
        <ele>382.8</ele>
        <time>2014-09-28T08:45:32.000Z</time>
      </trkpt>
      <trkpt lat="47.47497" lon="6.89217">
        <ele>383.5</ele>
        <time>2014-09-28T08:45:33.000Z</time>
      </trkpt>
      <trkpt lat="47.47493" lon="6.89217">
        <ele>383.7</ele>
        <time>2014-09-28T08:45:34.000Z</time>
      </trkpt>
      <trkpt lat="47.4749" lon="6.89216">
        <ele>383.7</ele>
        <time>2014-09-28T08:45:35.000Z</time>
      </trkpt>
      <trkpt lat="47.47487" lon="6.89215">
        <ele>383.5</ele>
        <time>2014-09-28T08:45:36.000Z</time>
      </trkpt>
      <trkpt lat="47.47484" lon="6.89212">
        <ele>383.3</ele>
        <time>2014-09-28T08:45:37.000Z</time>
      </trkpt>
      <trkpt lat="47.47481" lon="6.8921">
        <ele>383.5</ele>
        <time>2014-09-28T08:45:38.000Z</time>
      </trkpt>
      <trkpt lat="47.47478" lon="6.89208">
        <ele>383.3</ele>
        <time>2014-09-28T08:45:39.000Z</time>
      </trkpt>
      <trkpt lat="47.47475" lon="6.89205">
        <ele>384</ele>
        <time>2014-09-28T08:45:40.000Z</time>
      </trkpt>
      <trkpt lat="47.47472" lon="6.89202">
        <ele>383.9</ele>
        <time>2014-09-28T08:45:41.000Z</time>
      </trkpt>
      <trkpt lat="47.4747" lon="6.89199">
        <ele>384</ele>
        <time>2014-09-28T08:45:42.000Z</time>
      </trkpt>
      <trkpt lat="47.47467" lon="6.89196">
        <ele>384</ele>
        <time>2014-09-28T08:45:43.000Z</time>
      </trkpt>
      <trkpt lat="47.47465" lon="6.89194">
        <ele>384.3</ele>
        <time>2014-09-28T08:45:44.000Z</time>
      </trkpt>
      <trkpt lat="47.47463" lon="6.89191">
        <ele>385.2</ele>
        <time>2014-09-28T08:45:45.000Z</time>
      </trkpt>
      <trkpt lat="47.4746" lon="6.89189">
        <ele>385.7</ele>
        <time>2014-09-28T08:45:46.000Z</time>
      </trkpt>
      <trkpt lat="47.47457" lon="6.89188">
        <ele>386.1</ele>
        <time>2014-09-28T08:45:47.000Z</time>
      </trkpt>
      <trkpt lat="47.47454" lon="6.89187">
        <ele>385.9</ele>
        <time>2014-09-28T08:45:48.000Z</time>
      </trkpt>
      <trkpt lat="47.47451" lon="6.89187">
        <ele>385.9</ele>
        <time>2014-09-28T08:45:49.000Z</time>
      </trkpt>
      <trkpt lat="47.47448" lon="6.89187">
        <ele>386.1</ele>
        <time>2014-09-28T08:45:50.000Z</time>
      </trkpt>
      <trkpt lat="47.47445" lon="6.89187">
        <ele>385.6</ele>
        <time>2014-09-28T08:45:51.000Z</time>
      </trkpt>
      <trkpt lat="47.47441" lon="6.89188">
        <ele>385.5</ele>
        <time>2014-09-28T08:45:52.000Z</time>
      </trkpt>
      <trkpt lat="47.47438" lon="6.89189">
        <ele>385.4</ele>
        <time>2014-09-28T08:45:53.000Z</time>
      </trkpt>
      <trkpt lat="47.47435" lon="6.89189">
        <ele>385.2</ele>
        <time>2014-09-28T08:45:54.000Z</time>
      </trkpt>
      <trkpt lat="47.47432" lon="6.8919">
        <ele>385.2</ele>
        <time>2014-09-28T08:45:55.000Z</time>
      </trkpt>
      <trkpt lat="47.47429" lon="6.8919">
        <ele>385.6</ele>
        <time>2014-09-28T08:45:56.000Z</time>
      </trkpt>
      <trkpt lat="47.47426" lon="6.89191">
        <ele>386</ele>
        <time>2014-09-28T08:45:57.000Z</time>
      </trkpt>
      <trkpt lat="47.47423" lon="6.89191">
        <ele>386</ele>
        <time>2014-09-28T08:45:58.000Z</time>
      </trkpt>
      <trkpt lat="47.4742" lon="6.89191">
        <ele>385.5</ele>
        <time>2014-09-28T08:45:59.000Z</time>
      </trkpt>
      <trkpt lat="47.47416" lon="6.89192">
        <ele>386</ele>
        <time>2014-09-28T08:46:00.000Z</time>
      </trkpt>
      <trkpt lat="47.47413" lon="6.89192">
        <ele>386.2</ele>
        <time>2014-09-28T08:46:01.000Z</time>
      </trkpt>
      <trkpt lat="47.47409" lon="6.89193">
        <ele>385</ele>
        <time>2014-09-28T08:46:02.000Z</time>
      </trkpt>
      <trkpt lat="47.47405" lon="6.89193">
        <ele>384.7</ele>
        <time>2014-09-28T08:46:03.000Z</time>
      </trkpt>
      <trkpt lat="47.47401" lon="6.89193">
        <ele>385.9</ele>
        <time>2014-09-28T08:46:04.000Z</time>
      </trkpt>
      <trkpt lat="47.47397" lon="6.89193">
        <ele>387</ele>
        <time>2014-09-28T08:46:05.000Z</time>
      </trkpt>
      <trkpt lat="47.47393" lon="6.89194">
        <ele>387.8</ele>
        <time>2014-09-28T08:46:06.000Z</time>
      </trkpt>
      <trkpt lat="47.47389" lon="6.89195">
        <ele>386.8</ele>
        <time>2014-09-28T08:46:07.000Z</time>
      </trkpt>
      <trkpt lat="47.47386" lon="6.89196">
        <ele>386.4</ele>
        <time>2014-09-28T08:46:08.000Z</time>
      </trkpt>
      <trkpt lat="47.47382" lon="6.89197">
        <ele>386.6</ele>
        <time>2014-09-28T08:46:09.000Z</time>
      </trkpt>
      <trkpt lat="47.47378" lon="6.89197">
        <ele>386.9</ele>
        <time>2014-09-28T08:46:10.000Z</time>
      </trkpt>
      <trkpt lat="47.47375" lon="6.89198">
        <ele>387.2</ele>
        <time>2014-09-28T08:46:11.000Z</time>
      </trkpt>
      <trkpt lat="47.47371" lon="6.89199">
        <ele>387</ele>
        <time>2014-09-28T08:46:12.000Z</time>
      </trkpt>
      <trkpt lat="47.47367" lon="6.89199">
        <ele>386.7</ele>
        <time>2014-09-28T08:46:13.000Z</time>
      </trkpt>
      <trkpt lat="47.47364" lon="6.892">
        <ele>386</ele>
        <time>2014-09-28T08:46:14.000Z</time>
      </trkpt>
      <trkpt lat="47.4736" lon="6.892">
        <ele>385.6</ele>
        <time>2014-09-28T08:46:15.000Z</time>
      </trkpt>
      <trkpt lat="47.47357" lon="6.89201">
        <ele>386</ele>
        <time>2014-09-28T08:46:16.000Z</time>
      </trkpt>
      <trkpt lat="47.47353" lon="6.89202">
        <ele>385.3</ele>
        <time>2014-09-28T08:46:17.000Z</time>
      </trkpt>
      <trkpt lat="47.47348" lon="6.89202">
        <ele>384.7</ele>
        <time>2014-09-28T08:46:18.000Z</time>
      </trkpt>
      <trkpt lat="47.47344" lon="6.89203">
        <ele>384.8</ele>
        <time>2014-09-28T08:46:19.000Z</time>
      </trkpt>
      <trkpt lat="47.4734" lon="6.89204">
        <ele>385.1</ele>
        <time>2014-09-28T08:46:20.000Z</time>
      </trkpt>
      <trkpt lat="47.47336" lon="6.89206">
        <ele>384.9</ele>
        <time>2014-09-28T08:46:21.000Z</time>
      </trkpt>
      <trkpt lat="47.4733" lon="6.89205">
        <ele>383.7</ele>
        <time>2014-09-28T08:46:22.000Z</time>
      </trkpt>
      <trkpt lat="47.47325" lon="6.89206">
        <ele>383.9</ele>
        <time>2014-09-28T08:46:23.000Z</time>
      </trkpt>
      <trkpt lat="47.47321" lon="6.89207">
        <ele>383.8</ele>
        <time>2014-09-28T08:46:24.000Z</time>
      </trkpt>
      <trkpt lat="47.47317" lon="6.89207">
        <ele>384</ele>
        <time>2014-09-28T08:46:25.000Z</time>
      </trkpt>
      <trkpt lat="47.47313" lon="6.89207">
        <ele>384.2</ele>
        <time>2014-09-28T08:46:26.000Z</time>
      </trkpt>
      <trkpt lat="47.47302" lon="6.89208">
        <ele>384.7</ele>
        <time>2014-09-28T08:46:29.000Z</time>
      </trkpt>
      <trkpt lat="47.47299" lon="6.89209">
        <ele>384.7</ele>
        <time>2014-09-28T08:46:30.000Z</time>
      </trkpt>
      <trkpt lat="47.47295" lon="6.89208">
        <ele>384.9</ele>
        <time>2014-09-28T08:46:31.000Z</time>
      </trkpt>
      <trkpt lat="47.47292" lon="6.89208">
        <ele>384.9</ele>
        <time>2014-09-28T08:46:32.000Z</time>
      </trkpt>
      <trkpt lat="47.4729" lon="6.89208">
        <ele>384.7</ele>
        <time>2014-09-28T08:46:33.000Z</time>
      </trkpt>
      <trkpt lat="47.47287" lon="6.89207">
        <ele>384.8</ele>
        <time>2014-09-28T08:46:34.000Z</time>
      </trkpt>
      <trkpt lat="47.47284" lon="6.89207">
        <ele>385.2</ele>
        <time>2014-09-28T08:46:35.000Z</time>
      </trkpt>
      <trkpt lat="47.47281" lon="6.89206">
        <ele>385.8</ele>
        <time>2014-09-28T08:46:36.000Z</time>
      </trkpt>
      <trkpt lat="47.47279" lon="6.89205">
        <ele>385.8</ele>
        <time>2014-09-28T08:46:37.000Z</time>
      </trkpt>
      <trkpt lat="47.47276" lon="6.89205">
        <ele>385.6</ele>
        <time>2014-09-28T08:46:38.000Z</time>
      </trkpt>
      <trkpt lat="47.47273" lon="6.89204">
        <ele>385.1</ele>
        <time>2014-09-28T08:46:39.000Z</time>
      </trkpt>
      <trkpt lat="47.47271" lon="6.89204">
        <ele>385.4</ele>
        <time>2014-09-28T08:46:40.000Z</time>
      </trkpt>
      <trkpt lat="47.47268" lon="6.89204">
        <ele>386</ele>
        <time>2014-09-28T08:46:41.000Z</time>
      </trkpt>
      <trkpt lat="47.47266" lon="6.89204">
        <ele>386.7</ele>
        <time>2014-09-28T08:46:42.000Z</time>
      </trkpt>
      <trkpt lat="47.47263" lon="6.89204">
        <ele>387.2</ele>
        <time>2014-09-28T08:46:43.000Z</time>
      </trkpt>
      <trkpt lat="47.47261" lon="6.89203">
        <ele>387.1</ele>
        <time>2014-09-28T08:46:44.000Z</time>
      </trkpt>
      <trkpt lat="47.47259" lon="6.89203">
        <ele>387.4</ele>
        <time>2014-09-28T08:46:45.000Z</time>
      </trkpt>
      <trkpt lat="47.47254" lon="6.89202">
        <ele>387.8</ele>
        <time>2014-09-28T08:46:47.000Z</time>
      </trkpt>
      <trkpt lat="47.47252" lon="6.89201">
        <ele>386.7</ele>
        <time>2014-09-28T08:46:48.000Z</time>
      </trkpt>
      <trkpt lat="47.4725" lon="6.89201">
        <ele>387.2</ele>
        <time>2014-09-28T08:46:49.000Z</time>
      </trkpt>
      <trkpt lat="47.47247" lon="6.892">
        <ele>386.7</ele>
        <time>2014-09-28T08:46:50.000Z</time>
      </trkpt>
      <trkpt lat="47.47245" lon="6.89199">
        <ele>385.7</ele>
        <time>2014-09-28T08:46:51.000Z</time>
      </trkpt>
      <trkpt lat="47.47242" lon="6.89197">
        <ele>384.6</ele>
        <time>2014-09-28T08:46:52.000Z</time>
      </trkpt>
      <trkpt lat="47.4724" lon="6.89196">
        <ele>383</ele>
        <time>2014-09-28T08:46:53.000Z</time>
      </trkpt>
      <trkpt lat="47.47237" lon="6.89195">
        <ele>383.3</ele>
        <time>2014-09-28T08:46:54.000Z</time>
      </trkpt>
      <trkpt lat="47.47235" lon="6.89193">
        <ele>383.3</ele>
        <time>2014-09-28T08:46:55.000Z</time>
      </trkpt>
      <trkpt lat="47.47232" lon="6.89192">
        <ele>382.7</ele>
        <time>2014-09-28T08:46:56.000Z</time>
      </trkpt>
      <trkpt lat="47.4723" lon="6.89191">
        <ele>382.6</ele>
        <time>2014-09-28T08:46:57.000Z</time>
      </trkpt>
      <trkpt lat="47.47227" lon="6.8919">
        <ele>383.1</ele>
        <time>2014-09-28T08:46:58.000Z</time>
      </trkpt>
      <trkpt lat="47.47225" lon="6.89189">
        <ele>383.3</ele>
        <time>2014-09-28T08:46:59.000Z</time>
      </trkpt>
      <trkpt lat="47.47223" lon="6.89188">
        <ele>383.6</ele>
        <time>2014-09-28T08:47:00.000Z</time>
      </trkpt>
      <trkpt lat="47.47221" lon="6.89188">
        <ele>383.8</ele>
        <time>2014-09-28T08:47:01.000Z</time>
      </trkpt>
      <trkpt lat="47.47218" lon="6.89187">
        <ele>382.3</ele>
        <time>2014-09-28T08:47:02.000Z</time>
      </trkpt>
      <trkpt lat="47.47216" lon="6.89186">
        <ele>382.7</ele>
        <time>2014-09-28T08:47:03.000Z</time>
      </trkpt>
      <trkpt lat="47.47213" lon="6.89185">
        <ele>383.3</ele>
        <time>2014-09-28T08:47:04.000Z</time>
      </trkpt>
      <trkpt lat="47.47209" lon="6.89185">
        <ele>383</ele>
        <time>2014-09-28T08:47:06.000Z</time>
      </trkpt>
      <trkpt lat="47.47207" lon="6.89184">
        <ele>383.5</ele>
        <time>2014-09-28T08:47:07.000Z</time>
      </trkpt>
      <trkpt lat="47.47203" lon="6.89183">
        <ele>384.4</ele>
        <time>2014-09-28T08:47:09.000Z</time>
      </trkpt>
      <trkpt lat="47.472" lon="6.89183">
        <ele>385.4</ele>
        <time>2014-09-28T08:47:10.000Z</time>
      </trkpt>
      <trkpt lat="47.47198" lon="6.89182">
        <ele>386.4</ele>
        <time>2014-09-28T08:47:11.000Z</time>
      </trkpt>
      <trkpt lat="47.47195" lon="6.89182">
        <ele>386.9</ele>
        <time>2014-09-28T08:47:12.000Z</time>
      </trkpt>
      <trkpt lat="47.47193" lon="6.89181">
        <ele>387.1</ele>
        <time>2014-09-28T08:47:13.000Z</time>
      </trkpt>
      <trkpt lat="47.47191" lon="6.89181">
        <ele>387.7</ele>
        <time>2014-09-28T08:47:14.000Z</time>
      </trkpt>
      <trkpt lat="47.47186" lon="6.8918">
        <ele>388.1</ele>
        <time>2014-09-28T08:47:16.000Z</time>
      </trkpt>
      <trkpt lat="47.47184" lon="6.89179">
        <ele>388</ele>
        <time>2014-09-28T08:47:17.000Z</time>
      </trkpt>
      <trkpt lat="47.4718" lon="6.89179">
        <ele>388</ele>
        <time>2014-09-28T08:47:19.000Z</time>
      </trkpt>
      <trkpt lat="47.47178" lon="6.89178">
        <ele>387.8</ele>
        <time>2014-09-28T08:47:20.000Z</time>
      </trkpt>
      <trkpt lat="47.47173" lon="6.89178">
        <ele>387.3</ele>
        <time>2014-09-28T08:47:22.000Z</time>
      </trkpt>
      <trkpt lat="47.47171" lon="6.89178">
        <ele>388.1</ele>
        <time>2014-09-28T08:47:23.000Z</time>
      </trkpt>
      <trkpt lat="47.47167" lon="6.89178">
        <ele>388</ele>
        <time>2014-09-28T08:47:25.000Z</time>
      </trkpt>
      <trkpt lat="47.47166" lon="6.89179">
        <ele>388.5</ele>
        <time>2014-09-28T08:47:26.000Z</time>
      </trkpt>
      <trkpt lat="47.4716" lon="6.89179">
        <ele>390.1</ele>
        <time>2014-09-28T08:47:29.000Z</time>
      </trkpt>
      <trkpt lat="47.47156" lon="6.89179">
        <ele>389.9</ele>
        <time>2014-09-28T08:47:31.000Z</time>
      </trkpt>
      <trkpt lat="47.47154" lon="6.8918">
        <ele>390.6</ele>
        <time>2014-09-28T08:47:32.000Z</time>
      </trkpt>
      <trkpt lat="47.4715" lon="6.89179">
        <ele>390.6</ele>
        <time>2014-09-28T08:47:34.000Z</time>
      </trkpt>
      <trkpt lat="47.47148" lon="6.89179">
        <ele>390.8</ele>
        <time>2014-09-28T08:47:35.000Z</time>
      </trkpt>
      <trkpt lat="47.47145" lon="6.89179">
        <ele>393</ele>
        <time>2014-09-28T08:47:38.000Z</time>
      </trkpt>
      <trkpt lat="47.47143" lon="6.89179">
        <ele>394.1</ele>
        <time>2014-09-28T08:47:39.000Z</time>
      </trkpt>
      <trkpt lat="47.47139" lon="6.89178">
        <ele>394.8</ele>
        <time>2014-09-28T08:47:41.000Z</time>
      </trkpt>
      <trkpt lat="47.47137" lon="6.89178">
        <ele>394.3</ele>
        <time>2014-09-28T08:47:42.000Z</time>
      </trkpt>
      <trkpt lat="47.47132" lon="6.89177">
        <ele>390.5</ele>
        <time>2014-09-28T08:47:44.000Z</time>
      </trkpt>
      <trkpt lat="47.4713" lon="6.89177">
        <ele>389.6</ele>
        <time>2014-09-28T08:47:45.000Z</time>
      </trkpt>
      <trkpt lat="47.47126" lon="6.89176">
        <ele>390.6</ele>
        <time>2014-09-28T08:47:47.000Z</time>
      </trkpt>
      <trkpt lat="47.47124" lon="6.89176">
        <ele>391.1</ele>
        <time>2014-09-28T08:47:48.000Z</time>
      </trkpt>
      <trkpt lat="47.4712" lon="6.89176">
        <ele>392.4</ele>
        <time>2014-09-28T08:47:50.000Z</time>
      </trkpt>
      <trkpt lat="47.47118" lon="6.89177">
        <ele>393.9</ele>
        <time>2014-09-28T08:47:51.000Z</time>
      </trkpt>
      <trkpt lat="47.47114" lon="6.89177">
        <ele>395.4</ele>
        <time>2014-09-28T08:47:53.000Z</time>
      </trkpt>
      <trkpt lat="47.47112" lon="6.89177">
        <ele>395.5</ele>
        <time>2014-09-28T08:47:54.000Z</time>
      </trkpt>
      <trkpt lat="47.47107" lon="6.89177">
        <ele>396.2</ele>
        <time>2014-09-28T08:47:56.000Z</time>
      </trkpt>
      <trkpt lat="47.47105" lon="6.89177">
        <ele>396.3</ele>
        <time>2014-09-28T08:47:57.000Z</time>
      </trkpt>
      <trkpt lat="47.47102" lon="6.89177">
        <ele>397.6</ele>
        <time>2014-09-28T08:47:58.000Z</time>
      </trkpt>
      <trkpt lat="47.47099" lon="6.89177">
        <ele>397.9</ele>
        <time>2014-09-28T08:47:59.000Z</time>
      </trkpt>
      <trkpt lat="47.47097" lon="6.89177">
        <ele>397.7</ele>
        <time>2014-09-28T08:48:00.000Z</time>
      </trkpt>
      <trkpt lat="47.47094" lon="6.89177">
        <ele>398.6</ele>
        <time>2014-09-28T08:48:01.000Z</time>
      </trkpt>
      <trkpt lat="47.47091" lon="6.89178">
        <ele>398.8</ele>
        <time>2014-09-28T08:48:02.000Z</time>
      </trkpt>
      <trkpt lat="47.47089" lon="6.89178">
        <ele>399.1</ele>
        <time>2014-09-28T08:48:03.000Z</time>
      </trkpt>
      <trkpt lat="47.47086" lon="6.89178">
        <ele>398.7</ele>
        <time>2014-09-28T08:48:04.000Z</time>
      </trkpt>
      <trkpt lat="47.47083" lon="6.89178">
        <ele>398.3</ele>
        <time>2014-09-28T08:48:05.000Z</time>
      </trkpt>
      <trkpt lat="47.4708" lon="6.89178">
        <ele>398.3</ele>
        <time>2014-09-28T08:48:06.000Z</time>
      </trkpt>
      <trkpt lat="47.47077" lon="6.89178">
        <ele>398.4</ele>
        <time>2014-09-28T08:48:07.000Z</time>
      </trkpt>
      <trkpt lat="47.47074" lon="6.89178">
        <ele>398.4</ele>
        <time>2014-09-28T08:48:08.000Z</time>
      </trkpt>
      <trkpt lat="47.47071" lon="6.89178">
        <ele>398</ele>
        <time>2014-09-28T08:48:09.000Z</time>
      </trkpt>
      <trkpt lat="47.47069" lon="6.89178">
        <ele>398.4</ele>
        <time>2014-09-28T08:48:10.000Z</time>
      </trkpt>
      <trkpt lat="47.47067" lon="6.89178">
        <ele>398.5</ele>
        <time>2014-09-28T08:48:11.000Z</time>
      </trkpt>
      <trkpt lat="47.47063" lon="6.8918">
        <ele>397.7</ele>
        <time>2014-09-28T08:48:13.000Z</time>
      </trkpt>
      <trkpt lat="47.47061" lon="6.8918">
        <ele>397.3</ele>
        <time>2014-09-28T08:48:14.000Z</time>
      </trkpt>
      <trkpt lat="47.47057" lon="6.89182">
        <ele>399.4</ele>
        <time>2014-09-28T08:48:16.000Z</time>
      </trkpt>
      <trkpt lat="47.47055" lon="6.89184">
        <ele>399.6</ele>
        <time>2014-09-28T08:48:17.000Z</time>
      </trkpt>
      <trkpt lat="47.47053" lon="6.89189">
        <ele>399.2</ele>
        <time>2014-09-28T08:48:19.000Z</time>
      </trkpt>
      <trkpt lat="47.47052" lon="6.89192">
        <ele>399.2</ele>
        <time>2014-09-28T08:48:20.000Z</time>
      </trkpt>
      <trkpt lat="47.47052" lon="6.89196">
        <ele>399.1</ele>
        <time>2014-09-28T08:48:21.000Z</time>
      </trkpt>
      <trkpt lat="47.47051" lon="6.892">
        <ele>399.8</ele>
        <time>2014-09-28T08:48:22.000Z</time>
      </trkpt>
      <trkpt lat="47.4705" lon="6.89204">
        <ele>400.4</ele>
        <time>2014-09-28T08:48:23.000Z</time>
      </trkpt>
      <trkpt lat="47.4705" lon="6.89207">
        <ele>400</ele>
        <time>2014-09-28T08:48:24.000Z</time>
      </trkpt>
      <trkpt lat="47.47049" lon="6.89211">
        <ele>401.1</ele>
        <time>2014-09-28T08:48:25.000Z</time>
      </trkpt>
      <trkpt lat="47.47048" lon="6.89215">
        <ele>402</ele>
        <time>2014-09-28T08:48:26.000Z</time>
      </trkpt>
      <trkpt lat="47.47045" lon="6.89224">
        <ele>402.4</ele>
        <time>2014-09-28T08:48:29.000Z</time>
      </trkpt>
      <trkpt lat="47.47044" lon="6.89228">
        <ele>403.9</ele>
        <time>2014-09-28T08:48:30.000Z</time>
      </trkpt>
      <trkpt lat="47.47043" lon="6.89231">
        <ele>404.2</ele>
        <time>2014-09-28T08:48:31.000Z</time>
      </trkpt>
      <trkpt lat="47.47042" lon="6.89235">
        <ele>404.3</ele>
        <time>2014-09-28T08:48:32.000Z</time>
      </trkpt>
      <trkpt lat="47.47041" lon="6.89238">
        <ele>405.3</ele>
        <time>2014-09-28T08:48:33.000Z</time>
      </trkpt>
      <trkpt lat="47.4704" lon="6.89242">
        <ele>406.4</ele>
        <time>2014-09-28T08:48:34.000Z</time>
      </trkpt>
      <trkpt lat="47.47038" lon="6.89245">
        <ele>406.7</ele>
        <time>2014-09-28T08:48:35.000Z</time>
      </trkpt>
      <trkpt lat="47.47037" lon="6.89249">
        <ele>407.2</ele>
        <time>2014-09-28T08:48:36.000Z</time>
      </trkpt>
      <trkpt lat="47.47036" lon="6.89252">
        <ele>407.5</ele>
        <time>2014-09-28T08:48:37.000Z</time>
      </trkpt>
      <trkpt lat="47.47035" lon="6.89256">
        <ele>407.5</ele>
        <time>2014-09-28T08:48:38.000Z</time>
      </trkpt>
      <trkpt lat="47.47033" lon="6.89259">
        <ele>408</ele>
        <time>2014-09-28T08:48:39.000Z</time>
      </trkpt>
      <trkpt lat="47.47032" lon="6.89262">
        <ele>407.8</ele>
        <time>2014-09-28T08:48:40.000Z</time>
      </trkpt>
      <trkpt lat="47.47031" lon="6.89265">
        <ele>407.7</ele>
        <time>2014-09-28T08:48:41.000Z</time>
      </trkpt>
      <trkpt lat="47.47029" lon="6.89267">
        <ele>407.9</ele>
        <time>2014-09-28T08:48:42.000Z</time>
      </trkpt>
      <trkpt lat="47.47028" lon="6.8927">
        <ele>408.1</ele>
        <time>2014-09-28T08:48:43.000Z</time>
      </trkpt>
      <trkpt lat="47.47026" lon="6.89273">
        <ele>409.1</ele>
        <time>2014-09-28T08:48:44.000Z</time>
      </trkpt>
      <trkpt lat="47.47025" lon="6.89275">
        <ele>409.6</ele>
        <time>2014-09-28T08:48:45.000Z</time>
      </trkpt>
      <trkpt lat="47.47024" lon="6.89278">
        <ele>409.4</ele>
        <time>2014-09-28T08:48:46.000Z</time>
      </trkpt>
      <trkpt lat="47.47023" lon="6.89281">
        <ele>407.4</ele>
        <time>2014-09-28T08:48:47.000Z</time>
      </trkpt>
      <trkpt lat="47.47022" lon="6.89284">
        <ele>406.9</ele>
        <time>2014-09-28T08:48:48.000Z</time>
      </trkpt>
      <trkpt lat="47.4702" lon="6.89287">
        <ele>407</ele>
        <time>2014-09-28T08:48:49.000Z</time>
      </trkpt>
      <trkpt lat="47.47019" lon="6.8929">
        <ele>407.1</ele>
        <time>2014-09-28T08:48:50.000Z</time>
      </trkpt>
      <trkpt lat="47.47018" lon="6.89293">
        <ele>406.7</ele>
        <time>2014-09-28T08:48:51.000Z</time>
      </trkpt>
      <trkpt lat="47.47017" lon="6.89296">
        <ele>407.2</ele>
        <time>2014-09-28T08:48:52.000Z</time>
      </trkpt>
      <trkpt lat="47.47016" lon="6.89299">
        <ele>406.9</ele>
        <time>2014-09-28T08:48:53.000Z</time>
      </trkpt>
      <trkpt lat="47.47015" lon="6.89302">
        <ele>407</ele>
        <time>2014-09-28T08:48:54.000Z</time>
      </trkpt>
      <trkpt lat="47.47014" lon="6.89305">
        <ele>407.1</ele>
        <time>2014-09-28T08:48:55.000Z</time>
      </trkpt>
      <trkpt lat="47.47013" lon="6.89309">
        <ele>407.3</ele>
        <time>2014-09-28T08:48:56.000Z</time>
      </trkpt>
      <trkpt lat="47.47012" lon="6.89312">
        <ele>407.5</ele>
        <time>2014-09-28T08:48:57.000Z</time>
      </trkpt>
      <trkpt lat="47.4701" lon="6.89315">
        <ele>407.3</ele>
        <time>2014-09-28T08:48:58.000Z</time>
      </trkpt>
      <trkpt lat="47.4701" lon="6.89318">
        <ele>408.3</ele>
        <time>2014-09-28T08:48:59.000Z</time>
      </trkpt>
      <trkpt lat="47.47009" lon="6.89321">
        <ele>407.7</ele>
        <time>2014-09-28T08:49:00.000Z</time>
      </trkpt>
      <trkpt lat="47.47008" lon="6.89325">
        <ele>408.4</ele>
        <time>2014-09-28T08:49:01.000Z</time>
      </trkpt>
      <trkpt lat="47.47007" lon="6.89328">
        <ele>408.4</ele>
        <time>2014-09-28T08:49:02.000Z</time>
      </trkpt>
      <trkpt lat="47.47006" lon="6.89332">
        <ele>408.6</ele>
        <time>2014-09-28T08:49:03.000Z</time>
      </trkpt>
      <trkpt lat="47.47006" lon="6.89335">
        <ele>408.6</ele>
        <time>2014-09-28T08:49:04.000Z</time>
      </trkpt>
      <trkpt lat="47.47005" lon="6.89338">
        <ele>408.7</ele>
        <time>2014-09-28T08:49:05.000Z</time>
      </trkpt>
      <trkpt lat="47.47004" lon="6.89341">
        <ele>409.3</ele>
        <time>2014-09-28T08:49:06.000Z</time>
      </trkpt>
      <trkpt lat="47.47003" lon="6.89345">
        <ele>409.6</ele>
        <time>2014-09-28T08:49:07.000Z</time>
      </trkpt>
      <trkpt lat="47.47002" lon="6.89348">
        <ele>408.4</ele>
        <time>2014-09-28T08:49:08.000Z</time>
      </trkpt>
      <trkpt lat="47.47001" lon="6.89352">
        <ele>408.5</ele>
        <time>2014-09-28T08:49:09.000Z</time>
      </trkpt>
      <trkpt lat="47.47" lon="6.89355">
        <ele>408.6</ele>
        <time>2014-09-28T08:49:10.000Z</time>
      </trkpt>
      <trkpt lat="47.46999" lon="6.89358">
        <ele>408.7</ele>
        <time>2014-09-28T08:49:11.000Z</time>
      </trkpt>
      <trkpt lat="47.46998" lon="6.89363">
        <ele>408.2</ele>
        <time>2014-09-28T08:49:13.000Z</time>
      </trkpt>
      <trkpt lat="47.46997" lon="6.89366">
        <ele>408.3</ele>
        <time>2014-09-28T08:49:14.000Z</time>
      </trkpt>
      <trkpt lat="47.46996" lon="6.89372">
        <ele>408.8</ele>
        <time>2014-09-28T08:49:16.000Z</time>
      </trkpt>
      <trkpt lat="47.46995" lon="6.89375">
        <ele>409.9</ele>
        <time>2014-09-28T08:49:17.000Z</time>
      </trkpt>
      <trkpt lat="47.46995" lon="6.89379">
        <ele>410.8</ele>
        <time>2014-09-28T08:49:18.000Z</time>
      </trkpt>
      <trkpt lat="47.46994" lon="6.89382">
        <ele>411.9</ele>
        <time>2014-09-28T08:49:19.000Z</time>
      </trkpt>
      <trkpt lat="47.46993" lon="6.89385">
        <ele>411.5</ele>
        <time>2014-09-28T08:49:20.000Z</time>
      </trkpt>
      <trkpt lat="47.46993" lon="6.89388">
        <ele>412</ele>
        <time>2014-09-28T08:49:21.000Z</time>
      </trkpt>
      <trkpt lat="47.46991" lon="6.89394">
        <ele>411.5</ele>
        <time>2014-09-28T08:49:23.000Z</time>
      </trkpt>
      <trkpt lat="47.4699" lon="6.89396">
        <ele>411.7</ele>
        <time>2014-09-28T08:49:24.000Z</time>
      </trkpt>
      <trkpt lat="47.46988" lon="6.89401">
        <ele>412</ele>
        <time>2014-09-28T08:49:26.000Z</time>
      </trkpt>
      <trkpt lat="47.46986" lon="6.89407">
        <ele>412.3</ele>
        <time>2014-09-28T08:49:28.216Z</time>
      </trkpt>
      <trkpt lat="47.46985" lon="6.89412">
        <ele>412.3</ele>
        <time>2014-09-28T08:49:30.000Z</time>
      </trkpt>
      <trkpt lat="47.46983" lon="6.89414">
        <ele>417.4</ele>
        <time>2014-09-28T08:49:31.000Z</time>
      </trkpt>
      <trkpt lat="47.46981" lon="6.89418">
        <ele>416</ele>
        <time>2014-09-28T08:49:33.000Z</time>
      </trkpt>
      <trkpt lat="47.46979" lon="6.89421">
        <ele>416.4</ele>
        <time>2014-09-28T08:49:34.000Z</time>
      </trkpt>
      <trkpt lat="47.46977" lon="6.89424">
        <ele>416.6</ele>
        <time>2014-09-28T08:49:35.000Z</time>
      </trkpt>
      <trkpt lat="47.46976" lon="6.89426">
        <ele>416.5</ele>
        <time>2014-09-28T08:49:36.000Z</time>
      </trkpt>
      <trkpt lat="47.46974" lon="6.89429">
        <ele>417.2</ele>
        <time>2014-09-28T08:49:37.000Z</time>
      </trkpt>
      <trkpt lat="47.46972" lon="6.89432">
        <ele>417.6</ele>
        <time>2014-09-28T08:49:38.000Z</time>
      </trkpt>
      <trkpt lat="47.46971" lon="6.89435">
        <ele>417.3</ele>
        <time>2014-09-28T08:49:39.000Z</time>
      </trkpt>
      <trkpt lat="47.46969" lon="6.89437">
        <ele>418</ele>
        <time>2014-09-28T08:49:40.000Z</time>
      </trkpt>
      <trkpt lat="47.46967" lon="6.8944">
        <ele>419.1</ele>
        <time>2014-09-28T08:49:41.000Z</time>
      </trkpt>
      <trkpt lat="47.46965" lon="6.89442">
        <ele>419.8</ele>
        <time>2014-09-28T08:49:42.000Z</time>
      </trkpt>
      <trkpt lat="47.46963" lon="6.89444">
        <ele>420.3</ele>
        <time>2014-09-28T08:49:43.000Z</time>
      </trkpt>
      <trkpt lat="47.46961" lon="6.89447">
        <ele>420.2</ele>
        <time>2014-09-28T08:49:44.000Z</time>
      </trkpt>
      <trkpt lat="47.46959" lon="6.89449">
        <ele>420</ele>
        <time>2014-09-28T08:49:45.000Z</time>
      </trkpt>
      <trkpt lat="47.46957" lon="6.89451">
        <ele>420.1</ele>
        <time>2014-09-28T08:49:46.000Z</time>
      </trkpt>
      <trkpt lat="47.46954" lon="6.89453">
        <ele>419.9</ele>
        <time>2014-09-28T08:49:47.000Z</time>
      </trkpt>
      <trkpt lat="47.46952" lon="6.89455">
        <ele>422.4</ele>
        <time>2014-09-28T08:49:48.000Z</time>
      </trkpt>
      <trkpt lat="47.46949" lon="6.89456">
        <ele>419.5</ele>
        <time>2014-09-28T08:49:49.000Z</time>
      </trkpt>
      <trkpt lat="47.46946" lon="6.89456">
        <ele>419</ele>
        <time>2014-09-28T08:49:50.000Z</time>
      </trkpt>
      <trkpt lat="47.46942" lon="6.89457">
        <ele>418.8</ele>
        <time>2014-09-28T08:49:52.000Z</time>
      </trkpt>
      <trkpt lat="47.4694" lon="6.89457">
        <ele>419.2</ele>
        <time>2014-09-28T08:49:53.000Z</time>
      </trkpt>
      <trkpt lat="47.46936" lon="6.89458">
        <ele>419.2</ele>
        <time>2014-09-28T08:49:55.000Z</time>
      </trkpt>
      <trkpt lat="47.46934" lon="6.89459">
        <ele>419.5</ele>
        <time>2014-09-28T08:49:56.000Z</time>
      </trkpt>
      <trkpt lat="47.4693" lon="6.89461">
        <ele>423.1</ele>
        <time>2014-09-28T08:49:58.000Z</time>
      </trkpt>
      <trkpt lat="47.46928" lon="6.89463">
        <ele>424.6</ele>
        <time>2014-09-28T08:49:59.000Z</time>
      </trkpt>
      <trkpt lat="47.46924" lon="6.89467">
        <ele>426.4</ele>
        <time>2014-09-28T08:50:01.000Z</time>
      </trkpt>
      <trkpt lat="47.46922" lon="6.89468">
        <ele>427.1</ele>
        <time>2014-09-28T08:50:02.000Z</time>
      </trkpt>
      <trkpt lat="47.4692" lon="6.8947">
        <ele>427.3</ele>
        <time>2014-09-28T08:50:03.000Z</time>
      </trkpt>
      <trkpt lat="47.46918" lon="6.89471">
        <ele>424.8</ele>
        <time>2014-09-28T08:50:04.000Z</time>
      </trkpt>
      <trkpt lat="47.46916" lon="6.89473">
        <ele>425.6</ele>
        <time>2014-09-28T08:50:05.000Z</time>
      </trkpt>
      <trkpt lat="47.46913" lon="6.89474">
        <ele>425.7</ele>
        <time>2014-09-28T08:50:06.000Z</time>
      </trkpt>
      <trkpt lat="47.4691" lon="6.89475">
        <ele>423.7</ele>
        <time>2014-09-28T08:50:07.000Z</time>
      </trkpt>
      <trkpt lat="47.46908" lon="6.89476">
        <ele>425.3</ele>
        <time>2014-09-28T08:50:08.000Z</time>
      </trkpt>
      <trkpt lat="47.46905" lon="6.89477">
        <ele>426</ele>
        <time>2014-09-28T08:50:09.000Z</time>
      </trkpt>
      <trkpt lat="47.46903" lon="6.89478">
        <ele>426</ele>
        <time>2014-09-28T08:50:10.000Z</time>
      </trkpt>
      <trkpt lat="47.46899" lon="6.8948">
        <ele>425.2</ele>
        <time>2014-09-28T08:50:12.000Z</time>
      </trkpt>
      <trkpt lat="47.46897" lon="6.8948">
        <ele>427.9</ele>
        <time>2014-09-28T08:50:13.000Z</time>
      </trkpt>
      <trkpt lat="47.46894" lon="6.89481">
        <ele>428.8</ele>
        <time>2014-09-28T08:50:14.000Z</time>
      </trkpt>
      <trkpt lat="47.46892" lon="6.89482">
        <ele>428.2</ele>
        <time>2014-09-28T08:50:15.000Z</time>
      </trkpt>
      <trkpt lat="47.46889" lon="6.89484">
        <ele>427.8</ele>
        <time>2014-09-28T08:50:16.000Z</time>
      </trkpt>
      <trkpt lat="47.46887" lon="6.89485">
        <ele>427.4</ele>
        <time>2014-09-28T08:50:17.000Z</time>
      </trkpt>
      <trkpt lat="47.46884" lon="6.89486">
        <ele>427.8</ele>
        <time>2014-09-28T08:50:18.000Z</time>
      </trkpt>
      <trkpt lat="47.46882" lon="6.89487">
        <ele>428</ele>
        <time>2014-09-28T08:50:19.000Z</time>
      </trkpt>
      <trkpt lat="47.46878" lon="6.89489">
        <ele>427.6</ele>
        <time>2014-09-28T08:50:21.000Z</time>
      </trkpt>
      <trkpt lat="47.46877" lon="6.89491">
        <ele>428.4</ele>
        <time>2014-09-28T08:50:22.000Z</time>
      </trkpt>
      <trkpt lat="47.46875" lon="6.89496">
        <ele>429.7</ele>
        <time>2014-09-28T08:50:26.000Z</time>
      </trkpt>
      <trkpt lat="47.46874" lon="6.89498">
        <ele>429.8</ele>
        <time>2014-09-28T08:50:29.000Z</time>
      </trkpt>
      <trkpt lat="47.46873" lon="6.89501">
        <ele>429.8</ele>
        <time>2014-09-28T08:50:31.000Z</time>
      </trkpt>
      <trkpt lat="47.46873" lon="6.89504">
        <ele>430.6</ele>
        <time>2014-09-28T08:50:32.000Z</time>
      </trkpt>
      <trkpt lat="47.46873" lon="6.89508">
        <ele>430.2</ele>
        <time>2014-09-28T08:50:33.000Z</time>
      </trkpt>
      <trkpt lat="47.46873" lon="6.89511">
        <ele>430</ele>
        <time>2014-09-28T08:50:34.000Z</time>
      </trkpt>
      <trkpt lat="47.46869" lon="6.89515">
        <ele>427.8</ele>
        <time>2014-09-28T08:50:47.000Z</time>
      </trkpt>
      <trkpt lat="47.46869" lon="6.89515">
        <ele>426.8</ele>
        <time>2014-09-28T08:50:48.000Z</time>
      </trkpt>
      <trkpt lat="47.46868" lon="6.8952">
        <ele>425.2</ele>
        <time>2014-09-28T08:53:07.000Z</time>
      </trkpt>
      <trkpt lat="47.46869" lon="6.89523">
        <ele>426.4</ele>
        <time>2014-09-28T08:53:08.000Z</time>
      </trkpt>
      <trkpt lat="47.4687" lon="6.89526">
        <ele>427.8</ele>
        <time>2014-09-28T08:53:09.000Z</time>
      </trkpt>
      <trkpt lat="47.46871" lon="6.89529">
        <ele>429.5</ele>
        <time>2014-09-28T08:53:10.000Z</time>
      </trkpt>
      <trkpt lat="47.46872" lon="6.89535">
        <ele>430.9</ele>
        <time>2014-09-28T08:53:12.000Z</time>
      </trkpt>
      <trkpt lat="47.46873" lon="6.89537">
        <ele>432.6</ele>
        <time>2014-09-28T08:53:13.000Z</time>
      </trkpt>
      <trkpt lat="47.46873" lon="6.89543">
        <ele>431.3</ele>
        <time>2014-09-28T08:53:15.000Z</time>
      </trkpt>
      <trkpt lat="47.46873" lon="6.89546">
        <ele>431.7</ele>
        <time>2014-09-28T08:53:16.000Z</time>
      </trkpt>
      <trkpt lat="47.46873" lon="6.89552">
        <ele>431.7</ele>
        <time>2014-09-28T08:53:18.000Z</time>
      </trkpt>
      <trkpt lat="47.46872" lon="6.89555">
        <ele>431.2</ele>
        <time>2014-09-28T08:53:19.000Z</time>
      </trkpt>
      <trkpt lat="47.46872" lon="6.89559">
        <ele>431.5</ele>
        <time>2014-09-28T08:53:20.000Z</time>
      </trkpt>
      <trkpt lat="47.46872" lon="6.89563">
        <ele>431.3</ele>
        <time>2014-09-28T08:53:21.000Z</time>
      </trkpt>
      <trkpt lat="47.46872" lon="6.89568">
        <ele>431.1</ele>
        <time>2014-09-28T08:53:22.000Z</time>
      </trkpt>
      <trkpt lat="47.46872" lon="6.89573">
        <ele>431</ele>
        <time>2014-09-28T08:53:23.000Z</time>
      </trkpt>
      <trkpt lat="47.46872" lon="6.89577">
        <ele>430.7</ele>
        <time>2014-09-28T08:53:24.000Z</time>
      </trkpt>
      <trkpt lat="47.46873" lon="6.89582">
        <ele>430.6</ele>
        <time>2014-09-28T08:53:25.000Z</time>
      </trkpt>
      <trkpt lat="47.46873" lon="6.89587">
        <ele>430.5</ele>
        <time>2014-09-28T08:53:26.000Z</time>
      </trkpt>
      <trkpt lat="47.46875" lon="6.89629">
        <ele>429.1</ele>
        <time>2014-09-28T08:53:35.000Z</time>
      </trkpt>
      <trkpt lat="47.46875" lon="6.89633">
        <ele>429</ele>
        <time>2014-09-28T08:53:36.000Z</time>
      </trkpt>
      <trkpt lat="47.46875" lon="6.89637">
        <ele>428.9</ele>
        <time>2014-09-28T08:53:37.000Z</time>
      </trkpt>
      <trkpt lat="47.46875" lon="6.89642">
        <ele>429.1</ele>
        <time>2014-09-28T08:53:38.000Z</time>
      </trkpt>
      <trkpt lat="47.46876" lon="6.89647">
        <ele>429.5</ele>
        <time>2014-09-28T08:53:39.000Z</time>
      </trkpt>
      <trkpt lat="47.46876" lon="6.89652">
        <ele>429.5</ele>
        <time>2014-09-28T08:53:40.000Z</time>
      </trkpt>
      <trkpt lat="47.46876" lon="6.89657">
        <ele>428.9</ele>
        <time>2014-09-28T08:53:41.000Z</time>
      </trkpt>
      <trkpt lat="47.46877" lon="6.89662">
        <ele>428.4</ele>
        <time>2014-09-28T08:53:42.000Z</time>
      </trkpt>
      <trkpt lat="47.46878" lon="6.89667">
        <ele>428.7</ele>
        <time>2014-09-28T08:53:43.000Z</time>
      </trkpt>
      <trkpt lat="47.46878" lon="6.89672">
        <ele>428.2</ele>
        <time>2014-09-28T08:53:44.000Z</time>
      </trkpt>
      <trkpt lat="47.46879" lon="6.89678">
        <ele>428.1</ele>
        <time>2014-09-28T08:53:45.000Z</time>
      </trkpt>
      <trkpt lat="47.46879" lon="6.89683">
        <ele>428.4</ele>
        <time>2014-09-28T08:53:46.000Z</time>
      </trkpt>
      <trkpt lat="47.46879" lon="6.89689">
        <ele>428.4</ele>
        <time>2014-09-28T08:53:47.000Z</time>
      </trkpt>
      <trkpt lat="47.4688" lon="6.89694">
        <ele>428.6</ele>
        <time>2014-09-28T08:53:48.000Z</time>
      </trkpt>
      <trkpt lat="47.4688" lon="6.897">
        <ele>428.7</ele>
        <time>2014-09-28T08:53:49.000Z</time>
      </trkpt>
      <trkpt lat="47.4688" lon="6.89705">
        <ele>428.8</ele>
        <time>2014-09-28T08:53:50.000Z</time>
      </trkpt>
      <trkpt lat="47.4688" lon="6.89711">
        <ele>429.3</ele>
        <time>2014-09-28T08:53:51.000Z</time>
      </trkpt>
      <trkpt lat="47.4688" lon="6.89716">
        <ele>429.5</ele>
        <time>2014-09-28T08:53:52.014Z</time>
      </trkpt>
      <trkpt lat="47.4688" lon="6.89721">
        <ele>429.2</ele>
        <time>2014-09-28T08:53:53.000Z</time>
      </trkpt>
      <trkpt lat="47.4688" lon="6.89727">
        <ele>429</ele>
        <time>2014-09-28T08:53:54.000Z</time>
      </trkpt>
      <trkpt lat="47.4688" lon="6.89732">
        <ele>428.8</ele>
        <time>2014-09-28T08:53:55.000Z</time>
      </trkpt>
      <trkpt lat="47.4688" lon="6.89738">
        <ele>428.6</ele>
        <time>2014-09-28T08:53:56.000Z</time>
      </trkpt>
      <trkpt lat="47.4688" lon="6.89743">
        <ele>428.6</ele>
        <time>2014-09-28T08:53:57.000Z</time>
      </trkpt>
      <trkpt lat="47.4688" lon="6.89748">
        <ele>428.6</ele>
        <time>2014-09-28T08:53:58.000Z</time>
      </trkpt>
      <trkpt lat="47.4688" lon="6.89752">
        <ele>428.6</ele>
        <time>2014-09-28T08:53:59.000Z</time>
      </trkpt>
      <trkpt lat="47.4688" lon="6.89757">
        <ele>428.5</ele>
        <time>2014-09-28T08:54:00.000Z</time>
      </trkpt>
      <trkpt lat="47.4688" lon="6.89761">
        <ele>428.8</ele>
        <time>2014-09-28T08:54:01.000Z</time>
      </trkpt>
      <trkpt lat="47.4688" lon="6.89766">
        <ele>428.7</ele>
        <time>2014-09-28T08:54:02.000Z</time>
      </trkpt>
      <trkpt lat="47.4688" lon="6.8977">
        <ele>428.3</ele>
        <time>2014-09-28T08:54:03.000Z</time>
      </trkpt>
      <trkpt lat="47.4688" lon="6.89775">
        <ele>428.7</ele>
        <time>2014-09-28T08:54:04.000Z</time>
      </trkpt>
      <trkpt lat="47.46879" lon="6.8978">
        <ele>429.1</ele>
        <time>2014-09-28T08:54:05.000Z</time>
      </trkpt>
      <trkpt lat="47.46879" lon="6.89784">
        <ele>429.1</ele>
        <time>2014-09-28T08:54:06.000Z</time>
      </trkpt>
      <trkpt lat="47.46879" lon="6.89788">
        <ele>428.9</ele>
        <time>2014-09-28T08:54:07.000Z</time>
      </trkpt>
      <trkpt lat="47.46879" lon="6.89792">
        <ele>429.3</ele>
        <time>2014-09-28T08:54:08.000Z</time>
      </trkpt>
      <trkpt lat="47.46879" lon="6.89797">
        <ele>429.5</ele>
        <time>2014-09-28T08:54:09.000Z</time>
      </trkpt>
      <trkpt lat="47.46879" lon="6.89801">
        <ele>428.9</ele>
        <time>2014-09-28T08:54:10.000Z</time>
      </trkpt>
      <trkpt lat="47.46879" lon="6.89806">
        <ele>429.4</ele>
        <time>2014-09-28T08:54:11.000Z</time>
      </trkpt>
      <trkpt lat="47.46879" lon="6.89811">
        <ele>430</ele>
        <time>2014-09-28T08:54:12.000Z</time>
      </trkpt>
      <trkpt lat="47.46879" lon="6.89815">
        <ele>429.7</ele>
        <time>2014-09-28T08:54:13.000Z</time>
      </trkpt>
      <trkpt lat="47.4688" lon="6.89819">
        <ele>430.9</ele>
        <time>2014-09-28T08:54:14.000Z</time>
      </trkpt>
      <trkpt lat="47.4688" lon="6.89822">
        <ele>431.5</ele>
        <time>2014-09-28T08:54:15.000Z</time>
      </trkpt>
      <trkpt lat="47.4688" lon="6.89826">
        <ele>431.5</ele>
        <time>2014-09-28T08:54:16.000Z</time>
      </trkpt>
      <trkpt lat="47.4688" lon="6.8983">
        <ele>430.7</ele>
        <time>2014-09-28T08:54:17.000Z</time>
      </trkpt>
      <trkpt lat="47.4688" lon="6.89835">
        <ele>428.2</ele>
        <time>2014-09-28T08:54:18.000Z</time>
      </trkpt>
      <trkpt lat="47.46879" lon="6.8984">
        <ele>427.6</ele>
        <time>2014-09-28T08:54:19.000Z</time>
      </trkpt>
      <trkpt lat="47.46878" lon="6.89845">
        <ele>426.9</ele>
        <time>2014-09-28T08:54:20.000Z</time>
      </trkpt>
      <trkpt lat="47.46877" lon="6.8985">
        <ele>427.5</ele>
        <time>2014-09-28T08:54:21.000Z</time>
      </trkpt>
      <trkpt lat="47.46876" lon="6.89855">
        <ele>426.6</ele>
        <time>2014-09-28T08:54:22.000Z</time>
      </trkpt>
      <trkpt lat="47.46874" lon="6.8986">
        <ele>426.6</ele>
        <time>2014-09-28T08:54:23.000Z</time>
      </trkpt>
      <trkpt lat="47.46872" lon="6.89864">
        <ele>426.5</ele>
        <time>2014-09-28T08:54:24.000Z</time>
      </trkpt>
      <trkpt lat="47.4687" lon="6.89867">
        <ele>426.4</ele>
        <time>2014-09-28T08:54:25.000Z</time>
      </trkpt>
      <trkpt lat="47.46867" lon="6.89871">
        <ele>426.2</ele>
        <time>2014-09-28T08:54:26.000Z</time>
      </trkpt>
      <trkpt lat="47.4686" lon="6.89882">
        <ele>427.6</ele>
        <time>2014-09-28T08:54:29.000Z</time>
      </trkpt>
      <trkpt lat="47.46858" lon="6.89885">
        <ele>428.1</ele>
        <time>2014-09-28T08:54:30.000Z</time>
      </trkpt>
      <trkpt lat="47.46855" lon="6.89889">
        <ele>427.7</ele>
        <time>2014-09-28T08:54:31.000Z</time>
      </trkpt>
      <trkpt lat="47.46852" lon="6.89893">
        <ele>427.6</ele>
        <time>2014-09-28T08:54:32.000Z</time>
      </trkpt>
      <trkpt lat="47.46849" lon="6.89898">
        <ele>427.5</ele>
        <time>2014-09-28T08:54:33.000Z</time>
      </trkpt>
      <trkpt lat="47.46846" lon="6.89902">
        <ele>427.4</ele>
        <time>2014-09-28T08:54:34.000Z</time>
      </trkpt>
      <trkpt lat="47.46842" lon="6.89909">
        <ele>427.5</ele>
        <time>2014-09-28T08:54:35.000Z</time>
      </trkpt>
      <trkpt lat="47.46839" lon="6.89914">
        <ele>427.7</ele>
        <time>2014-09-28T08:54:36.000Z</time>
      </trkpt>
      <trkpt lat="47.46836" lon="6.8992">
        <ele>427.6</ele>
        <time>2014-09-28T08:54:37.000Z</time>
      </trkpt>
      <trkpt lat="47.46832" lon="6.89925">
        <ele>427.3</ele>
        <time>2014-09-28T08:54:38.000Z</time>
      </trkpt>
      <trkpt lat="47.46829" lon="6.8993">
        <ele>427.7</ele>
        <time>2014-09-28T08:54:39.000Z</time>
      </trkpt>
      <trkpt lat="47.46826" lon="6.89935">
        <ele>427.2</ele>
        <time>2014-09-28T08:54:40.000Z</time>
      </trkpt>
      <trkpt lat="47.46823" lon="6.8994">
        <ele>426.7</ele>
        <time>2014-09-28T08:54:41.000Z</time>
      </trkpt>
      <trkpt lat="47.46819" lon="6.89945">
        <ele>426.8</ele>
        <time>2014-09-28T08:54:42.000Z</time>
      </trkpt>
      <trkpt lat="47.46816" lon="6.8995">
        <ele>427.1</ele>
        <time>2014-09-28T08:54:43.000Z</time>
      </trkpt>
      <trkpt lat="47.46813" lon="6.89951">
        <ele>429.1</ele>
        <time>2014-09-28T08:54:44.000Z</time>
      </trkpt>
      <trkpt lat="47.46809" lon="6.89957">
        <ele>428.9</ele>
        <time>2014-09-28T08:54:45.000Z</time>
      </trkpt>
      <trkpt lat="47.46806" lon="6.89963">
        <ele>428.7</ele>
        <time>2014-09-28T08:54:46.000Z</time>
      </trkpt>
      <trkpt lat="47.46803" lon="6.8997">
        <ele>429.4</ele>
        <time>2014-09-28T08:54:47.000Z</time>
      </trkpt>
      <trkpt lat="47.46799" lon="6.89977">
        <ele>429.4</ele>
        <time>2014-09-28T08:54:48.000Z</time>
      </trkpt>
      <trkpt lat="47.46795" lon="6.89982">
        <ele>429.9</ele>
        <time>2014-09-28T08:54:49.000Z</time>
      </trkpt>
      <trkpt lat="47.46791" lon="6.89988">
        <ele>430.5</ele>
        <time>2014-09-28T08:54:50.000Z</time>
      </trkpt>
      <trkpt lat="47.46787" lon="6.89994">
        <ele>430.9</ele>
        <time>2014-09-28T08:54:51.000Z</time>
      </trkpt>
      <trkpt lat="47.46783" lon="6.89999">
        <ele>431.1</ele>
        <time>2014-09-28T08:54:52.000Z</time>
      </trkpt>
      <trkpt lat="47.46778" lon="6.90005">
        <ele>431.2</ele>
        <time>2014-09-28T08:54:53.000Z</time>
      </trkpt>
      <trkpt lat="47.46773" lon="6.90012">
        <ele>430.4</ele>
        <time>2014-09-28T08:54:54.000Z</time>
      </trkpt>
      <trkpt lat="47.46768" lon="6.90019">
        <ele>430.6</ele>
        <time>2014-09-28T08:54:55.000Z</time>
      </trkpt>
      <trkpt lat="47.46763" lon="6.90025">
        <ele>430.7</ele>
        <time>2014-09-28T08:54:56.000Z</time>
      </trkpt>
      <trkpt lat="47.46757" lon="6.90032">
        <ele>430.8</ele>
        <time>2014-09-28T08:54:57.000Z</time>
      </trkpt>
      <trkpt lat="47.46751" lon="6.9004">
        <ele>429.8</ele>
        <time>2014-09-28T08:54:58.000Z</time>
      </trkpt>
      <trkpt lat="47.46745" lon="6.90048">
        <ele>429.6</ele>
        <time>2014-09-28T08:54:59.000Z</time>
      </trkpt>
      <trkpt lat="47.4674" lon="6.90057">
        <ele>429.2</ele>
        <time>2014-09-28T08:55:00.000Z</time>
      </trkpt>
      <trkpt lat="47.46735" lon="6.90064">
        <ele>429.1</ele>
        <time>2014-09-28T08:55:01.000Z</time>
      </trkpt>
      <trkpt lat="47.46733" lon="6.90072">
        <ele>429.1</ele>
        <time>2014-09-28T08:55:02.000Z</time>
      </trkpt>
      <trkpt lat="47.4673" lon="6.90079">
        <ele>429.3</ele>
        <time>2014-09-28T08:55:03.000Z</time>
      </trkpt>
      <trkpt lat="47.46728" lon="6.90088">
        <ele>428.1</ele>
        <time>2014-09-28T08:55:04.000Z</time>
      </trkpt>
      <trkpt lat="47.46727" lon="6.90095">
        <ele>428.4</ele>
        <time>2014-09-28T08:55:05.000Z</time>
      </trkpt>
      <trkpt lat="47.46726" lon="6.90101">
        <ele>427.9</ele>
        <time>2014-09-28T08:55:06.000Z</time>
      </trkpt>
      <trkpt lat="47.46723" lon="6.90108">
        <ele>427.7</ele>
        <time>2014-09-28T08:55:07.000Z</time>
      </trkpt>
      <trkpt lat="47.46721" lon="6.90114">
        <ele>427.1</ele>
        <time>2014-09-28T08:55:08.000Z</time>
      </trkpt>
      <trkpt lat="47.46714" lon="6.90118">
        <ele>425</ele>
        <time>2014-09-28T08:55:09.000Z</time>
      </trkpt>
      <trkpt lat="47.46709" lon="6.90122">
        <ele>424.1</ele>
        <time>2014-09-28T08:55:10.000Z</time>
      </trkpt>
      <trkpt lat="47.46701" lon="6.90126">
        <ele>423.8</ele>
        <time>2014-09-28T08:55:11.000Z</time>
      </trkpt>
      <trkpt lat="47.46694" lon="6.9013">
        <ele>423.7</ele>
        <time>2014-09-28T08:55:12.000Z</time>
      </trkpt>
      <trkpt lat="47.46688" lon="6.90135">
        <ele>424</ele>
        <time>2014-09-28T08:55:13.000Z</time>
      </trkpt>
      <trkpt lat="47.46681" lon="6.90139">
        <ele>423.4</ele>
        <time>2014-09-28T08:55:14.000Z</time>
      </trkpt>
      <trkpt lat="47.46675" lon="6.90144">
        <ele>423.5</ele>
        <time>2014-09-28T08:55:15.000Z</time>
      </trkpt>
      <trkpt lat="47.46669" lon="6.9015">
        <ele>423.1</ele>
        <time>2014-09-28T08:55:16.000Z</time>
      </trkpt>
      <trkpt lat="47.46662" lon="6.90154">
        <ele>422.9</ele>
        <time>2014-09-28T08:55:17.000Z</time>
      </trkpt>
      <trkpt lat="47.46656" lon="6.90159">
        <ele>422.3</ele>
        <time>2014-09-28T08:55:18.000Z</time>
      </trkpt>
      <trkpt lat="47.46649" lon="6.90164">
        <ele>422</ele>
        <time>2014-09-28T08:55:19.000Z</time>
      </trkpt>
      <trkpt lat="47.46644" lon="6.90169">
        <ele>422.2</ele>
        <time>2014-09-28T08:55:20.000Z</time>
      </trkpt>
      <trkpt lat="47.46639" lon="6.90172">
        <ele>423.2</ele>
        <time>2014-09-28T08:55:21.000Z</time>
      </trkpt>
      <trkpt lat="47.46633" lon="6.90176">
        <ele>423.7</ele>
        <time>2014-09-28T08:55:22.000Z</time>
      </trkpt>
      <trkpt lat="47.46628" lon="6.9018">
        <ele>424.2</ele>
        <time>2014-09-28T08:55:22.999Z</time>
      </trkpt>
      <trkpt lat="47.46625" lon="6.90185">
        <ele>424.7</ele>
        <time>2014-09-28T08:55:24.000Z</time>
      </trkpt>
      <trkpt lat="47.46621" lon="6.90189">
        <ele>424.7</ele>
        <time>2014-09-28T08:55:25.000Z</time>
      </trkpt>
      <trkpt lat="47.46617" lon="6.90192">
        <ele>424.6</ele>
        <time>2014-09-28T08:55:26.000Z</time>
      </trkpt>
      <trkpt lat="47.46606" lon="6.90201">
        <ele>424.3</ele>
        <time>2014-09-28T08:55:29.000Z</time>
      </trkpt>
      <trkpt lat="47.46603" lon="6.90205">
        <ele>424.4</ele>
        <time>2014-09-28T08:55:30.000Z</time>
      </trkpt>
      <trkpt lat="47.466" lon="6.90208">
        <ele>424</ele>
        <time>2014-09-28T08:55:31.000Z</time>
      </trkpt>
      <trkpt lat="47.46597" lon="6.90212">
        <ele>425</ele>
        <time>2014-09-28T08:55:32.000Z</time>
      </trkpt>
      <trkpt lat="47.46595" lon="6.90215">
        <ele>425.5</ele>
        <time>2014-09-28T08:55:33.000Z</time>
      </trkpt>
      <trkpt lat="47.46592" lon="6.90217">
        <ele>425</ele>
        <time>2014-09-28T08:55:34.000Z</time>
      </trkpt>
      <trkpt lat="47.4659" lon="6.90218">
        <ele>425.1</ele>
        <time>2014-09-28T08:55:35.000Z</time>
      </trkpt>
      <trkpt lat="47.46588" lon="6.9022">
        <ele>425.3</ele>
        <time>2014-09-28T08:55:36.000Z</time>
      </trkpt>
      <trkpt lat="47.46583" lon="6.90224">
        <ele>420.5</ele>
        <time>2014-09-28T08:55:37.000Z</time>
      </trkpt>
      <trkpt lat="47.46581" lon="6.90226">
        <ele>419.9</ele>
        <time>2014-09-28T08:55:38.000Z</time>
      </trkpt>
      <trkpt lat="47.4658" lon="6.9023">
        <ele>420.4</ele>
        <time>2014-09-28T08:55:39.000Z</time>
      </trkpt>
      <trkpt lat="47.46581" lon="6.90236">
        <ele>424.1</ele>
        <time>2014-09-28T08:55:41.000Z</time>
      </trkpt>
      <trkpt lat="47.46582" lon="6.90239">
        <ele>424.2</ele>
        <time>2014-09-28T08:55:42.000Z</time>
      </trkpt>
      <trkpt lat="47.46582" lon="6.90244">
        <ele>425.4</ele>
        <time>2014-09-28T08:55:44.000Z</time>
      </trkpt>
      <trkpt lat="47.4658" lon="6.90247">
        <ele>425.6</ele>
        <time>2014-09-28T08:55:45.000Z</time>
      </trkpt>
      <trkpt lat="47.46578" lon="6.90249">
        <ele>425.5</ele>
        <time>2014-09-28T08:55:46.000Z</time>
      </trkpt>
      <trkpt lat="47.46576" lon="6.90251">
        <ele>425.9</ele>
        <time>2014-09-28T08:55:47.000Z</time>
      </trkpt>
      <trkpt lat="47.46574" lon="6.90254">
        <ele>425.7</ele>
        <time>2014-09-28T08:55:48.000Z</time>
      </trkpt>
      <trkpt lat="47.46572" lon="6.90257">
        <ele>425.9</ele>
        <time>2014-09-28T08:55:49.000Z</time>
      </trkpt>
      <trkpt lat="47.46569" lon="6.90259">
        <ele>425.7</ele>
        <time>2014-09-28T08:55:50.000Z</time>
      </trkpt>
      <trkpt lat="47.46567" lon="6.90262">
        <ele>426</ele>
        <time>2014-09-28T08:55:51.000Z</time>
      </trkpt>
      <trkpt lat="47.46565" lon="6.90265">
        <ele>427</ele>
        <time>2014-09-28T08:55:52.000Z</time>
      </trkpt>
      <trkpt lat="47.46563" lon="6.90268">
        <ele>427.7</ele>
        <time>2014-09-28T08:55:53.000Z</time>
      </trkpt>
      <trkpt lat="47.46561" lon="6.9027">
        <ele>428.1</ele>
        <time>2014-09-28T08:55:54.000Z</time>
      </trkpt>
      <trkpt lat="47.46558" lon="6.90273">
        <ele>424.9</ele>
        <time>2014-09-28T08:55:55.000Z</time>
      </trkpt>
      <trkpt lat="47.46556" lon="6.90276">
        <ele>424.4</ele>
        <time>2014-09-28T08:55:56.000Z</time>
      </trkpt>
      <trkpt lat="47.46553" lon="6.9028">
        <ele>425.4</ele>
        <time>2014-09-28T08:55:57.000Z</time>
      </trkpt>
      <trkpt lat="47.4655" lon="6.90284">
        <ele>425.7</ele>
        <time>2014-09-28T08:55:58.000Z</time>
      </trkpt>
      <trkpt lat="47.46547" lon="6.90287">
        <ele>425.4</ele>
        <time>2014-09-28T08:55:59.000Z</time>
      </trkpt>
      <trkpt lat="47.46545" lon="6.90291">
        <ele>425.4</ele>
        <time>2014-09-28T08:56:00.000Z</time>
      </trkpt>
      <trkpt lat="47.46542" lon="6.90295">
        <ele>425.8</ele>
        <time>2014-09-28T08:56:01.000Z</time>
      </trkpt>
      <trkpt lat="47.46539" lon="6.90299">
        <ele>426.1</ele>
        <time>2014-09-28T08:56:02.000Z</time>
      </trkpt>
      <trkpt lat="47.46537" lon="6.90303">
        <ele>426.8</ele>
        <time>2014-09-28T08:56:03.000Z</time>
      </trkpt>
      <trkpt lat="47.46535" lon="6.90306">
        <ele>428</ele>
        <time>2014-09-28T08:56:04.000Z</time>
      </trkpt>
      <trkpt lat="47.46532" lon="6.90309">
        <ele>428.3</ele>
        <time>2014-09-28T08:56:05.000Z</time>
      </trkpt>
      <trkpt lat="47.46531" lon="6.90311">
        <ele>428.7</ele>
        <time>2014-09-28T08:56:06.000Z</time>
      </trkpt>
      <trkpt lat="47.46529" lon="6.90314">
        <ele>428.6</ele>
        <time>2014-09-28T08:56:07.000Z</time>
      </trkpt>
      <trkpt lat="47.46527" lon="6.90316">
        <ele>428.8</ele>
        <time>2014-09-28T08:56:08.000Z</time>
      </trkpt>
      <trkpt lat="47.46525" lon="6.90319">
        <ele>429.6</ele>
        <time>2014-09-28T08:56:09.000Z</time>
      </trkpt>
      <trkpt lat="47.46522" lon="6.90321">
        <ele>429.7</ele>
        <time>2014-09-28T08:56:10.000Z</time>
      </trkpt>
      <trkpt lat="47.4652" lon="6.90324">
        <ele>429.5</ele>
        <time>2014-09-28T08:56:11.000Z</time>
      </trkpt>
      <trkpt lat="47.46519" lon="6.90327">
        <ele>429.7</ele>
        <time>2014-09-28T08:56:12.000Z</time>
      </trkpt>
      <trkpt lat="47.46517" lon="6.90329">
        <ele>429.9</ele>
        <time>2014-09-28T08:56:13.000Z</time>
      </trkpt>
      <trkpt lat="47.46515" lon="6.90331">
        <ele>429.5</ele>
        <time>2014-09-28T08:56:14.000Z</time>
      </trkpt>
      <trkpt lat="47.46513" lon="6.90333">
        <ele>429.6</ele>
        <time>2014-09-28T08:56:15.000Z</time>
      </trkpt>
      <trkpt lat="47.4651" lon="6.90337">
        <ele>431.4</ele>
        <time>2014-09-28T08:56:17.000Z</time>
      </trkpt>
      <trkpt lat="47.46508" lon="6.90339">
        <ele>431.3</ele>
        <time>2014-09-28T08:56:18.000Z</time>
      </trkpt>
      <trkpt lat="47.46505" lon="6.90343">
        <ele>430.8</ele>
        <time>2014-09-28T08:56:20.000Z</time>
      </trkpt>
      <trkpt lat="47.46503" lon="6.90346">
        <ele>430.6</ele>
        <time>2014-09-28T08:56:21.000Z</time>
      </trkpt>
      <trkpt lat="47.46501" lon="6.90348">
        <ele>430.9</ele>
        <time>2014-09-28T08:56:22.000Z</time>
      </trkpt>
      <trkpt lat="47.46499" lon="6.9035">
        <ele>431.8</ele>
        <time>2014-09-28T08:56:23.000Z</time>
      </trkpt>
      <trkpt lat="47.46496" lon="6.90354">
        <ele>431.7</ele>
        <time>2014-09-28T08:56:25.000Z</time>
      </trkpt>
      <trkpt lat="47.46494" lon="6.90355">
        <ele>431.6</ele>
        <time>2014-09-28T08:56:26.000Z</time>
      </trkpt>
      <trkpt lat="47.46488" lon="6.90359">
        <ele>432.9</ele>
        <time>2014-09-28T08:56:29.000Z</time>
      </trkpt>
      <trkpt lat="47.46485" lon="6.90362">
        <ele>435.8</ele>
        <time>2014-09-28T08:56:31.000Z</time>
      </trkpt>
      <trkpt lat="47.46483" lon="6.90364">
        <ele>436</ele>
        <time>2014-09-28T08:56:32.000Z</time>
      </trkpt>
      <trkpt lat="47.4648" lon="6.90367">
        <ele>435.8</ele>
        <time>2014-09-28T08:56:34.000Z</time>
      </trkpt>
      <trkpt lat="47.46478" lon="6.90368">
        <ele>435.4</ele>
        <time>2014-09-28T08:56:35.000Z</time>
      </trkpt>
      <trkpt lat="47.46474" lon="6.90369">
        <ele>436</ele>
        <time>2014-09-28T08:56:37.000Z</time>
      </trkpt>
      <trkpt lat="47.46472" lon="6.90369">
        <ele>435.8</ele>
        <time>2014-09-28T08:56:38.000Z</time>
      </trkpt>
      <trkpt lat="47.46468" lon="6.9037">
        <ele>435.7</ele>
        <time>2014-09-28T08:56:40.000Z</time>
      </trkpt>
      <trkpt lat="47.46466" lon="6.9037">
        <ele>436.1</ele>
        <time>2014-09-28T08:56:41.000Z</time>
      </trkpt>
      <trkpt lat="47.46463" lon="6.90371">
        <ele>438.5</ele>
        <time>2014-09-28T08:56:43.000Z</time>
      </trkpt>
      <trkpt lat="47.46461" lon="6.90371">
        <ele>438.9</ele>
        <time>2014-09-28T08:56:44.000Z</time>
      </trkpt>
      <trkpt lat="47.46457" lon="6.9037">
        <ele>439.5</ele>
        <time>2014-09-28T08:56:47.000Z</time>
      </trkpt>
      <trkpt lat="47.46455" lon="6.9037">
        <ele>440.1</ele>
        <time>2014-09-28T08:56:48.000Z</time>
      </trkpt>
      <trkpt lat="47.46451" lon="6.90368">
        <ele>440.9</ele>
        <time>2014-09-28T08:56:51.000Z</time>
      </trkpt>
      <trkpt lat="47.4645" lon="6.90368">
        <ele>440.6</ele>
        <time>2014-09-28T08:56:52.000Z</time>
      </trkpt>
      <trkpt lat="47.46447" lon="6.90366">
        <ele>440.7</ele>
        <time>2014-09-28T08:56:54.000Z</time>
      </trkpt>
      <trkpt lat="47.46445" lon="6.90366">
        <ele>441.2</ele>
        <time>2014-09-28T08:56:55.000Z</time>
      </trkpt>
      <trkpt lat="47.46442" lon="6.90365">
        <ele>441.1</ele>
        <time>2014-09-28T08:56:57.000Z</time>
      </trkpt>
      <trkpt lat="47.46441" lon="6.90365">
        <ele>441.1</ele>
        <time>2014-09-28T08:56:58.000Z</time>
      </trkpt>
      <trkpt lat="47.46438" lon="6.90365">
        <ele>441.3</ele>
        <time>2014-09-28T08:57:00.000Z</time>
      </trkpt>
      <trkpt lat="47.46436" lon="6.90365">
        <ele>441.6</ele>
        <time>2014-09-28T08:57:01.000Z</time>
      </trkpt>
      <trkpt lat="47.46433" lon="6.90365">
        <ele>441.9</ele>
        <time>2014-09-28T08:57:03.000Z</time>
      </trkpt>
      <trkpt lat="47.46431" lon="6.90365">
        <ele>441.9</ele>
        <time>2014-09-28T08:57:04.000Z</time>
      </trkpt>
      <trkpt lat="47.46428" lon="6.90366">
        <ele>442</ele>
        <time>2014-09-28T08:57:06.000Z</time>
      </trkpt>
      <trkpt lat="47.46425" lon="6.90367">
        <ele>442</ele>
        <time>2014-09-28T08:57:07.000Z</time>
      </trkpt>
      <trkpt lat="47.46421" lon="6.90369">
        <ele>442.6</ele>
        <time>2014-09-28T08:57:09.000Z</time>
      </trkpt>
      <trkpt lat="47.4642" lon="6.9037">
        <ele>442.9</ele>
        <time>2014-09-28T08:57:10.000Z</time>
      </trkpt>
      <trkpt lat="47.46415" lon="6.90372">
        <ele>440.1</ele>
        <time>2014-09-28T08:57:12.000Z</time>
      </trkpt>
      <trkpt lat="47.46413" lon="6.90373">
        <ele>441.2</ele>
        <time>2014-09-28T08:57:13.000Z</time>
      </trkpt>
      <trkpt lat="47.46411" lon="6.90375">
        <ele>441.3</ele>
        <time>2014-09-28T08:57:14.000Z</time>
      </trkpt>
      <trkpt lat="47.46409" lon="6.90377">
        <ele>441.8</ele>
        <time>2014-09-28T08:57:15.000Z</time>
      </trkpt>
      <trkpt lat="47.46406" lon="6.90382">
        <ele>442.8</ele>
        <time>2014-09-28T08:57:17.000Z</time>
      </trkpt>
      <trkpt lat="47.46405" lon="6.90384">
        <ele>443.2</ele>
        <time>2014-09-28T08:57:18.000Z</time>
      </trkpt>
      <trkpt lat="47.46402" lon="6.90388">
        <ele>444.4</ele>
        <time>2014-09-28T08:57:20.000Z</time>
      </trkpt>
      <trkpt lat="47.46401" lon="6.90391">
        <ele>445</ele>
        <time>2014-09-28T08:57:21.000Z</time>
      </trkpt>
      <trkpt lat="47.464" lon="6.90394">
        <ele>445.1</ele>
        <time>2014-09-28T08:57:22.000Z</time>
      </trkpt>
      <trkpt lat="47.46398" lon="6.90396">
        <ele>445.3</ele>
        <time>2014-09-28T08:57:23.000Z</time>
      </trkpt>
      <trkpt lat="47.46397" lon="6.90399">
        <ele>445.4</ele>
        <time>2014-09-28T08:57:24.000Z</time>
      </trkpt>
      <trkpt lat="47.46395" lon="6.90402">
        <ele>445.7</ele>
        <time>2014-09-28T08:57:25.000Z</time>
      </trkpt>
      <trkpt lat="47.46394" lon="6.90405">
        <ele>446.1</ele>
        <time>2014-09-28T08:57:26.000Z</time>
      </trkpt>
      <trkpt lat="47.46389" lon="6.90415">
        <ele>444.1</ele>
        <time>2014-09-28T08:57:29.000Z</time>
      </trkpt>
      <trkpt lat="47.46388" lon="6.90419">
        <ele>444.2</ele>
        <time>2014-09-28T08:57:30.000Z</time>
      </trkpt>
      <trkpt lat="47.46387" lon="6.90423">
        <ele>444.8</ele>
        <time>2014-09-28T08:57:31.000Z</time>
      </trkpt>
      <trkpt lat="47.46386" lon="6.90428">
        <ele>445</ele>
        <time>2014-09-28T08:57:32.000Z</time>
      </trkpt>
      <trkpt lat="47.46385" lon="6.90433">
        <ele>445.2</ele>
        <time>2014-09-28T08:57:33.000Z</time>
      </trkpt>
      <trkpt lat="47.46385" lon="6.90438">
        <ele>445.5</ele>
        <time>2014-09-28T08:57:34.000Z</time>
      </trkpt>
      <trkpt lat="47.46384" lon="6.90443">
        <ele>445.7</ele>
        <time>2014-09-28T08:57:35.000Z</time>
      </trkpt>
      <trkpt lat="47.46383" lon="6.90449">
        <ele>445.5</ele>
        <time>2014-09-28T08:57:36.000Z</time>
      </trkpt>
      <trkpt lat="47.46383" lon="6.90454">
        <ele>445.4</ele>
        <time>2014-09-28T08:57:37.000Z</time>
      </trkpt>
      <trkpt lat="47.46382" lon="6.90459">
        <ele>445.8</ele>
        <time>2014-09-28T08:57:38.000Z</time>
      </trkpt>
      <trkpt lat="47.4638" lon="6.90464">
        <ele>445.6</ele>
        <time>2014-09-28T08:57:39.000Z</time>
      </trkpt>
      <trkpt lat="47.46378" lon="6.90469">
        <ele>445.5</ele>
        <time>2014-09-28T08:57:40.000Z</time>
      </trkpt>
      <trkpt lat="47.46376" lon="6.90474">
        <ele>445.6</ele>
        <time>2014-09-28T08:57:41.000Z</time>
      </trkpt>
      <trkpt lat="47.46374" lon="6.90478">
        <ele>445.5</ele>
        <time>2014-09-28T08:57:42.000Z</time>
      </trkpt>
      <trkpt lat="47.46372" lon="6.90482">
        <ele>446.2</ele>
        <time>2014-09-28T08:57:43.000Z</time>
      </trkpt>
      <trkpt lat="47.46369" lon="6.90486">
        <ele>445.6</ele>
        <time>2014-09-28T08:57:44.000Z</time>
      </trkpt>
      <trkpt lat="47.46367" lon="6.90489">
        <ele>445.7</ele>
        <time>2014-09-28T08:57:45.000Z</time>
      </trkpt>
      <trkpt lat="47.46364" lon="6.90492">
        <ele>445.8</ele>
        <time>2014-09-28T08:57:46.000Z</time>
      </trkpt>
      <trkpt lat="47.46361" lon="6.90495">
        <ele>445.9</ele>
        <time>2014-09-28T08:57:46.999Z</time>
      </trkpt>
      <trkpt lat="47.46358" lon="6.90497">
        <ele>446.1</ele>
        <time>2014-09-28T08:57:48.000Z</time>
      </trkpt>
      <trkpt lat="47.46355" lon="6.90499">
        <ele>445.7</ele>
        <time>2014-09-28T08:57:49.000Z</time>
      </trkpt>
      <trkpt lat="47.46352" lon="6.905">
        <ele>446.2</ele>
        <time>2014-09-28T08:57:50.000Z</time>
      </trkpt>
      <trkpt lat="47.46349" lon="6.90502">
        <ele>446.5</ele>
        <time>2014-09-28T08:57:51.000Z</time>
      </trkpt>
      <trkpt lat="47.46347" lon="6.90503">
        <ele>446.2</ele>
        <time>2014-09-28T08:57:52.000Z</time>
      </trkpt>
      <trkpt lat="47.46344" lon="6.90505">
        <ele>446.4</ele>
        <time>2014-09-28T08:57:53.000Z</time>
      </trkpt>
      <trkpt lat="47.46341" lon="6.90507">
        <ele>446.4</ele>
        <time>2014-09-28T08:57:54.000Z</time>
      </trkpt>
      <trkpt lat="47.46339" lon="6.90509">
        <ele>446.4</ele>
        <time>2014-09-28T08:57:55.000Z</time>
      </trkpt>
      <trkpt lat="47.46336" lon="6.9051">
        <ele>446.5</ele>
        <time>2014-09-28T08:57:56.000Z</time>
      </trkpt>
      <trkpt lat="47.46334" lon="6.90512">
        <ele>446.8</ele>
        <time>2014-09-28T08:57:57.000Z</time>
      </trkpt>
      <trkpt lat="47.46331" lon="6.90513">
        <ele>446.4</ele>
        <time>2014-09-28T08:57:58.000Z</time>
      </trkpt>
      <trkpt lat="47.46328" lon="6.90514">
        <ele>447.2</ele>
        <time>2014-09-28T08:57:59.000Z</time>
      </trkpt>
      <trkpt lat="47.46325" lon="6.90516">
        <ele>447.2</ele>
        <time>2014-09-28T08:58:00.000Z</time>
      </trkpt>
      <trkpt lat="47.46323" lon="6.90517">
        <ele>446.6</ele>
        <time>2014-09-28T08:58:01.000Z</time>
      </trkpt>
      <trkpt lat="47.4632" lon="6.90518">
        <ele>446.7</ele>
        <time>2014-09-28T08:58:02.000Z</time>
      </trkpt>
      <trkpt lat="47.46317" lon="6.9052">
        <ele>446.3</ele>
        <time>2014-09-28T08:58:03.000Z</time>
      </trkpt>
      <trkpt lat="47.46315" lon="6.90521">
        <ele>446.9</ele>
        <time>2014-09-28T08:58:04.000Z</time>
      </trkpt>
      <trkpt lat="47.46312" lon="6.90523">
        <ele>447.4</ele>
        <time>2014-09-28T08:58:05.000Z</time>
      </trkpt>
      <trkpt lat="47.46309" lon="6.90524">
        <ele>448.1</ele>
        <time>2014-09-28T08:58:06.000Z</time>
      </trkpt>
      <trkpt lat="47.46307" lon="6.90525">
        <ele>448.2</ele>
        <time>2014-09-28T08:58:07.000Z</time>
      </trkpt>
      <trkpt lat="47.46304" lon="6.90526">
        <ele>448.3</ele>
        <time>2014-09-28T08:58:08.000Z</time>
      </trkpt>
      <trkpt lat="47.46302" lon="6.90527">
        <ele>448.6</ele>
        <time>2014-09-28T08:58:09.000Z</time>
      </trkpt>
      <trkpt lat="47.46299" lon="6.90528">
        <ele>449</ele>
        <time>2014-09-28T08:58:10.000Z</time>
      </trkpt>
      <trkpt lat="47.46297" lon="6.90529">
        <ele>449.4</ele>
        <time>2014-09-28T08:58:11.000Z</time>
      </trkpt>
      <trkpt lat="47.46294" lon="6.9053">
        <ele>449.5</ele>
        <time>2014-09-28T08:58:12.058Z</time>
      </trkpt>
      <trkpt lat="47.46292" lon="6.90531">
        <ele>449.9</ele>
        <time>2014-09-28T08:58:13.000Z</time>
      </trkpt>
      <trkpt lat="47.46288" lon="6.90533">
        <ele>449.4</ele>
        <time>2014-09-28T08:58:17.000Z</time>
      </trkpt>
      <trkpt lat="47.46287" lon="6.90534">
        <ele>449.4</ele>
        <time>2014-09-28T08:58:18.000Z</time>
      </trkpt>
      <trkpt lat="47.46283" lon="6.90535">
        <ele>449.4</ele>
        <time>2014-09-28T08:58:20.000Z</time>
      </trkpt>
      <trkpt lat="47.46281" lon="6.90536">
        <ele>449.4</ele>
        <time>2014-09-28T08:58:21.000Z</time>
      </trkpt>
      <trkpt lat="47.46276" lon="6.90538">
        <ele>449</ele>
        <time>2014-09-28T08:58:23.000Z</time>
      </trkpt>
      <trkpt lat="47.46274" lon="6.90539">
        <ele>448.1</ele>
        <time>2014-09-28T08:58:24.000Z</time>
      </trkpt>
      <trkpt lat="47.46272" lon="6.90539">
        <ele>448.6</ele>
        <time>2014-09-28T08:58:25.000Z</time>
      </trkpt>
      <trkpt lat="47.4627" lon="6.9054">
        <ele>448.1</ele>
        <time>2014-09-28T08:58:26.000Z</time>
      </trkpt>
      <trkpt lat="47.46263" lon="6.90542">
        <ele>445.9</ele>
        <time>2014-09-28T08:58:29.000Z</time>
      </trkpt>
      <trkpt lat="47.46259" lon="6.90541">
        <ele>446.8</ele>
        <time>2014-09-28T08:58:32.000Z</time>
      </trkpt>
      <trkpt lat="47.46258" lon="6.9054">
        <ele>446.5</ele>
        <time>2014-09-28T08:58:33.000Z</time>
      </trkpt>
      <trkpt lat="47.46255" lon="6.90544">
        <ele>447</ele>
        <time>2014-09-28T08:58:36.000Z</time>
      </trkpt>
      <trkpt lat="47.46253" lon="6.90546">
        <ele>447</ele>
        <time>2014-09-28T08:58:37.000Z</time>
      </trkpt>
      <trkpt lat="47.46251" lon="6.90549">
        <ele>447</ele>
        <time>2014-09-28T08:58:39.000Z</time>
      </trkpt>
      <trkpt lat="47.46249" lon="6.90551">
        <ele>447.2</ele>
        <time>2014-09-28T08:58:40.000Z</time>
      </trkpt>
      <trkpt lat="47.46247" lon="6.90553">
        <ele>445.9</ele>
        <time>2014-09-28T08:58:41.000Z</time>
      </trkpt>
      <trkpt lat="47.46244" lon="6.90554">
        <ele>445.8</ele>
        <time>2014-09-28T08:58:42.000Z</time>
      </trkpt>
      <trkpt lat="47.46241" lon="6.90555">
        <ele>446</ele>
        <time>2014-09-28T08:58:43.000Z</time>
      </trkpt>
      <trkpt lat="47.46238" lon="6.90556">
        <ele>446.1</ele>
        <time>2014-09-28T08:58:44.000Z</time>
      </trkpt>
      <trkpt lat="47.46235" lon="6.90557">
        <ele>445.9</ele>
        <time>2014-09-28T08:58:45.000Z</time>
      </trkpt>
      <trkpt lat="47.46232" lon="6.90558">
        <ele>446</ele>
        <time>2014-09-28T08:58:46.000Z</time>
      </trkpt>
      <trkpt lat="47.46229" lon="6.90559">
        <ele>445.9</ele>
        <time>2014-09-28T08:58:47.000Z</time>
      </trkpt>
      <trkpt lat="47.46226" lon="6.9056">
        <ele>445.8</ele>
        <time>2014-09-28T08:58:48.000Z</time>
      </trkpt>
      <trkpt lat="47.46222" lon="6.90561">
        <ele>446.4</ele>
        <time>2014-09-28T08:58:49.000Z</time>
      </trkpt>
      <trkpt lat="47.46219" lon="6.90562">
        <ele>446.8</ele>
        <time>2014-09-28T08:58:50.000Z</time>
      </trkpt>
      <trkpt lat="47.46216" lon="6.90563">
        <ele>446.3</ele>
        <time>2014-09-28T08:58:51.000Z</time>
      </trkpt>
      <trkpt lat="47.46214" lon="6.90564">
        <ele>447.3</ele>
        <time>2014-09-28T08:58:52.000Z</time>
      </trkpt>
      <trkpt lat="47.46211" lon="6.90565">
        <ele>447.3</ele>
        <time>2014-09-28T08:58:53.000Z</time>
      </trkpt>
      <trkpt lat="47.46209" lon="6.90566">
        <ele>447.3</ele>
        <time>2014-09-28T08:58:54.000Z</time>
      </trkpt>
      <trkpt lat="47.46206" lon="6.90566">
        <ele>447.9</ele>
        <time>2014-09-28T08:58:55.000Z</time>
      </trkpt>
      <trkpt lat="47.46204" lon="6.90566">
        <ele>448.4</ele>
        <time>2014-09-28T08:58:56.000Z</time>
      </trkpt>
      <trkpt lat="47.46201" lon="6.9057">
        <ele>458.8</ele>
        <time>2014-09-28T08:59:01.000Z</time>
      </trkpt>
      <trkpt lat="47.462" lon="6.90572">
        <ele>457.7</ele>
        <time>2014-09-28T08:59:02.000Z</time>
      </trkpt>
      <trkpt lat="47.46198" lon="6.90575">
        <ele>459.8</ele>
        <time>2014-09-28T08:59:04.000Z</time>
      </trkpt>
      <trkpt lat="47.46196" lon="6.90577">
        <ele>461.1</ele>
        <time>2014-09-28T08:59:05.000Z</time>
      </trkpt>
      <trkpt lat="47.46194" lon="6.9058">
        <ele>461.4</ele>
        <time>2014-09-28T08:59:06.000Z</time>
      </trkpt>
      <trkpt lat="47.46192" lon="6.90581">
        <ele>461.8</ele>
        <time>2014-09-28T08:59:07.000Z</time>
      </trkpt>
      <trkpt lat="47.46188" lon="6.90585">
        <ele>462.5</ele>
        <time>2014-09-28T08:59:09.000Z</time>
      </trkpt>
      <trkpt lat="47.46187" lon="6.90587">
        <ele>462.6</ele>
        <time>2014-09-28T08:59:10.000Z</time>
      </trkpt>
      <trkpt lat="47.46183" lon="6.90591">
        <ele>462.1</ele>
        <time>2014-09-28T08:59:12.000Z</time>
      </trkpt>
      <trkpt lat="47.46181" lon="6.90593">
        <ele>461.9</ele>
        <time>2014-09-28T08:59:13.000Z</time>
      </trkpt>
      <trkpt lat="47.46178" lon="6.90597">
        <ele>461.2</ele>
        <time>2014-09-28T08:59:14.000Z</time>
      </trkpt>
      <trkpt lat="47.46174" lon="6.90601">
        <ele>461</ele>
        <time>2014-09-28T08:59:15.000Z</time>
      </trkpt>
      <trkpt lat="47.46171" lon="6.90606">
        <ele>465.3</ele>
        <time>2014-09-28T08:59:16.000Z</time>
      </trkpt>
      <trkpt lat="47.46168" lon="6.90612">
        <ele>465.9</ele>
        <time>2014-09-28T08:59:17.000Z</time>
      </trkpt>
      <trkpt lat="47.46165" lon="6.90618">
        <ele>466.4</ele>
        <time>2014-09-28T08:59:18.000Z</time>
      </trkpt>
      <trkpt lat="47.46161" lon="6.90624">
        <ele>467.1</ele>
        <time>2014-09-28T08:59:19.000Z</time>
      </trkpt>
      <trkpt lat="47.46158" lon="6.90629">
        <ele>468.1</ele>
        <time>2014-09-28T08:59:20.000Z</time>
      </trkpt>
      <trkpt lat="47.46155" lon="6.90633">
        <ele>471.1</ele>
        <time>2014-09-28T08:59:21.000Z</time>
      </trkpt>
      <trkpt lat="47.46152" lon="6.90637">
        <ele>473.6</ele>
        <time>2014-09-28T08:59:22.000Z</time>
      </trkpt>
      <trkpt lat="47.4615" lon="6.9064">
        <ele>475</ele>
        <time>2014-09-28T08:59:23.000Z</time>
      </trkpt>
      <trkpt lat="47.46148" lon="6.90642">
        <ele>474.9</ele>
        <time>2014-09-28T08:59:24.000Z</time>
      </trkpt>
      <trkpt lat="47.46146" lon="6.90647">
        <ele>468.8</ele>
        <time>2014-09-28T08:59:35.000Z</time>
      </trkpt>
      <trkpt lat="47.46146" lon="6.90648">
        <ele>468.4</ele>
        <time>2014-09-28T08:59:36.000Z</time>
      </trkpt>
      <trkpt lat="47.46143" lon="6.90651">
        <ele>468.1</ele>
        <time>2014-09-28T08:59:38.000Z</time>
      </trkpt>
      <trkpt lat="47.46141" lon="6.90652">
        <ele>468.7</ele>
        <time>2014-09-28T08:59:39.000Z</time>
      </trkpt>
      <trkpt lat="47.46138" lon="6.90655">
        <ele>469.9</ele>
        <time>2014-09-28T08:59:40.000Z</time>
      </trkpt>
      <trkpt lat="47.46135" lon="6.90658">
        <ele>470.7</ele>
        <time>2014-09-28T08:59:41.000Z</time>
      </trkpt>
      <trkpt lat="47.46133" lon="6.90662">
        <ele>471.5</ele>
        <time>2014-09-28T08:59:42.000Z</time>
      </trkpt>
      <trkpt lat="47.4613" lon="6.90666">
        <ele>472.5</ele>
        <time>2014-09-28T08:59:43.000Z</time>
      </trkpt>
      <trkpt lat="47.46128" lon="6.9067">
        <ele>472.8</ele>
        <time>2014-09-28T08:59:44.000Z</time>
      </trkpt>
      <trkpt lat="47.46125" lon="6.90675">
        <ele>473.6</ele>
        <time>2014-09-28T08:59:45.000Z</time>
      </trkpt>
      <trkpt lat="47.46119" lon="6.90697">
        <ele>473.5</ele>
        <time>2014-09-28T08:59:46.000Z</time>
      </trkpt>
      <trkpt lat="47.46115" lon="6.90705">
        <ele>473.9</ele>
        <time>2014-09-28T08:59:47.000Z</time>
      </trkpt>
      <trkpt lat="47.46111" lon="6.90709">
        <ele>474.1</ele>
        <time>2014-09-28T08:59:48.000Z</time>
      </trkpt>
      <trkpt lat="47.46108" lon="6.90715">
        <ele>474.1</ele>
        <time>2014-09-28T08:59:49.000Z</time>
      </trkpt>
      <trkpt lat="47.46105" lon="6.9072">
        <ele>474.1</ele>
        <time>2014-09-28T08:59:50.000Z</time>
      </trkpt>
      <trkpt lat="47.46103" lon="6.90729">
        <ele>475.4</ele>
        <time>2014-09-28T08:59:51.000Z</time>
      </trkpt>
      <trkpt lat="47.46101" lon="6.9074">
        <ele>476.8</ele>
        <time>2014-09-28T08:59:52.000Z</time>
      </trkpt>
      <trkpt lat="47.46099" lon="6.90746">
        <ele>476.5</ele>
        <time>2014-09-28T08:59:53.000Z</time>
      </trkpt>
      <trkpt lat="47.46097" lon="6.90754">
        <ele>476.4</ele>
        <time>2014-09-28T08:59:54.000Z</time>
      </trkpt>
      <trkpt lat="47.46095" lon="6.90759">
        <ele>476.2</ele>
        <time>2014-09-28T08:59:55.000Z</time>
      </trkpt>
      <trkpt lat="47.46092" lon="6.90763">
        <ele>476.4</ele>
        <time>2014-09-28T08:59:56.000Z</time>
      </trkpt>
      <trkpt lat="47.4609" lon="6.90768">
        <ele>476.1</ele>
        <time>2014-09-28T08:59:57.000Z</time>
      </trkpt>
      <trkpt lat="47.46088" lon="6.90775">
        <ele>476.3</ele>
        <time>2014-09-28T08:59:58.000Z</time>
      </trkpt>
      <trkpt lat="47.46087" lon="6.90779">
        <ele>477</ele>
        <time>2014-09-28T08:59:59.000Z</time>
      </trkpt>
      <trkpt lat="47.46087" lon="6.90785">
        <ele>477.6</ele>
        <time>2014-09-28T09:00:00.000Z</time>
      </trkpt>
      <trkpt lat="47.46087" lon="6.9079">
        <ele>479.3</ele>
        <time>2014-09-28T09:00:01.000Z</time>
      </trkpt>
      <trkpt lat="47.46085" lon="6.90793">
        <ele>480.9</ele>
        <time>2014-09-28T09:00:02.000Z</time>
      </trkpt>
      <trkpt lat="47.46085" lon="6.90798">
        <ele>482.7</ele>
        <time>2014-09-28T09:00:03.000Z</time>
      </trkpt>
      <trkpt lat="47.46084" lon="6.90803">
        <ele>483.8</ele>
        <time>2014-09-28T09:00:04.000Z</time>
      </trkpt>
      <trkpt lat="47.46082" lon="6.90806">
        <ele>491.3</ele>
        <time>2014-09-28T09:00:05.000Z</time>
      </trkpt>
      <trkpt lat="47.4608" lon="6.90808">
        <ele>493</ele>
        <time>2014-09-28T09:00:06.000Z</time>
      </trkpt>
      <trkpt lat="47.46077" lon="6.90809">
        <ele>494.2</ele>
        <time>2014-09-28T09:00:07.000Z</time>
      </trkpt>
      <trkpt lat="47.46075" lon="6.90811">
        <ele>494.5</ele>
        <time>2014-09-28T09:00:08.000Z</time>
      </trkpt>
      <trkpt lat="47.46072" lon="6.90812">
        <ele>494.3</ele>
        <time>2014-09-28T09:00:09.000Z</time>
      </trkpt>
      <trkpt lat="47.46069" lon="6.90816">
        <ele>495.4</ele>
        <time>2014-09-28T09:00:10.000Z</time>
      </trkpt>
      <trkpt lat="47.46067" lon="6.9082">
        <ele>495.9</ele>
        <time>2014-09-28T09:00:11.000Z</time>
      </trkpt>
      <trkpt lat="47.46064" lon="6.90825">
        <ele>496.4</ele>
        <time>2014-09-28T09:00:12.000Z</time>
      </trkpt>
      <trkpt lat="47.46063" lon="6.9083">
        <ele>497.1</ele>
        <time>2014-09-28T09:00:13.000Z</time>
      </trkpt>
      <trkpt lat="47.46062" lon="6.90834">
        <ele>496.9</ele>
        <time>2014-09-28T09:00:14.000Z</time>
      </trkpt>
      <trkpt lat="47.46061" lon="6.90839">
        <ele>497</ele>
        <time>2014-09-28T09:00:15.000Z</time>
      </trkpt>
      <trkpt lat="47.4606" lon="6.90844">
        <ele>496.8</ele>
        <time>2014-09-28T09:00:16.000Z</time>
      </trkpt>
      <trkpt lat="47.46058" lon="6.9085">
        <ele>496.9</ele>
        <time>2014-09-28T09:00:17.000Z</time>
      </trkpt>
      <trkpt lat="47.46057" lon="6.90856">
        <ele>496.9</ele>
        <time>2014-09-28T09:00:18.000Z</time>
      </trkpt>
      <trkpt lat="47.46055" lon="6.90861">
        <ele>497.3</ele>
        <time>2014-09-28T09:00:19.000Z</time>
      </trkpt>
      <trkpt lat="47.46053" lon="6.90866">
        <ele>497.5</ele>
        <time>2014-09-28T09:00:20.000Z</time>
      </trkpt>
      <trkpt lat="47.46051" lon="6.90871">
        <ele>495.9</ele>
        <time>2014-09-28T09:00:21.000Z</time>
      </trkpt>
      <trkpt lat="47.4605" lon="6.90876">
        <ele>495.8</ele>
        <time>2014-09-28T09:00:22.000Z</time>
      </trkpt>
      <trkpt lat="47.46048" lon="6.90879">
        <ele>494.7</ele>
        <time>2014-09-28T09:00:23.000Z</time>
      </trkpt>
      <trkpt lat="47.46046" lon="6.90881">
        <ele>494.4</ele>
        <time>2014-09-28T09:00:24.000Z</time>
      </trkpt>
      <trkpt lat="47.46043" lon="6.90883">
        <ele>493.4</ele>
        <time>2014-09-28T09:00:26.000Z</time>
      </trkpt>
      <trkpt lat="47.46039" lon="6.90885">
        <ele>445.9</ele>
        <time>2014-09-28T09:00:29.000Z</time>
      </trkpt>
      <trkpt lat="47.46039" lon="6.90891">
        <ele>446.6</ele>
        <time>2014-09-28T09:00:32.000Z</time>
      </trkpt>
      <trkpt lat="47.46039" lon="6.90892">
        <ele>446.9</ele>
        <time>2014-09-28T09:00:33.000Z</time>
      </trkpt>
      <trkpt lat="47.46037" lon="6.90898">
        <ele>448.2</ele>
        <time>2014-09-28T09:00:39.000Z</time>
      </trkpt>
      <trkpt lat="47.46036" lon="6.90898">
        <ele>448.5</ele>
        <time>2014-09-28T09:00:40.000Z</time>
      </trkpt>
      <trkpt lat="47.46032" lon="6.90899">
        <ele>453.4</ele>
        <time>2014-09-28T09:00:49.000Z</time>
      </trkpt>
      <trkpt lat="47.4603" lon="6.90898">
        <ele>454.4</ele>
        <time>2014-09-28T09:00:50.000Z</time>
      </trkpt>
      <trkpt lat="47.46026" lon="6.90898">
        <ele>457.1</ele>
        <time>2014-09-28T09:00:52.000Z</time>
      </trkpt>
      <trkpt lat="47.46024" lon="6.90898">
        <ele>458.3</ele>
        <time>2014-09-28T09:00:53.000Z</time>
      </trkpt>
      <trkpt lat="47.4602" lon="6.90897">
        <ele>458.5</ele>
        <time>2014-09-28T09:00:55.000Z</time>
      </trkpt>
      <trkpt lat="47.46018" lon="6.90896">
        <ele>458.2</ele>
        <time>2014-09-28T09:00:56.000Z</time>
      </trkpt>
      <trkpt lat="47.46015" lon="6.90896">
        <ele>459.8</ele>
        <time>2014-09-28T09:00:58.000Z</time>
      </trkpt>
      <trkpt lat="47.46013" lon="6.90896">
        <ele>460.9</ele>
        <time>2014-09-28T09:00:59.000Z</time>
      </trkpt>
      <trkpt lat="47.4601" lon="6.90894">
        <ele>465.7</ele>
        <time>2014-09-28T09:01:02.000Z</time>
      </trkpt>
      <trkpt lat="47.46009" lon="6.90893">
        <ele>466.6</ele>
        <time>2014-09-28T09:01:03.000Z</time>
      </trkpt>
      <trkpt lat="47.46006" lon="6.9089">
        <ele>468.5</ele>
        <time>2014-09-28T09:01:05.000Z</time>
      </trkpt>
      <trkpt lat="47.46005" lon="6.90888">
        <ele>469.6</ele>
        <time>2014-09-28T09:01:06.000Z</time>
      </trkpt>
      <trkpt lat="47.46002" lon="6.90885">
        <ele>474.1</ele>
        <time>2014-09-28T09:01:09.000Z</time>
      </trkpt>
      <trkpt lat="47.46001" lon="6.90884">
        <ele>475.2</ele>
        <time>2014-09-28T09:01:10.000Z</time>
      </trkpt>
      <trkpt lat="47.45999" lon="6.9088">
        <ele>478</ele>
        <time>2014-09-28T09:01:13.000Z</time>
      </trkpt>
      <trkpt lat="47.45998" lon="6.90879">
        <ele>479.1</ele>
        <time>2014-09-28T09:01:14.000Z</time>
      </trkpt>
      <trkpt lat="47.45995" lon="6.90875">
        <ele>481.3</ele>
        <time>2014-09-28T09:01:17.000Z</time>
      </trkpt>
      <trkpt lat="47.45994" lon="6.90874">
        <ele>481.8</ele>
        <time>2014-09-28T09:01:18.000Z</time>
      </trkpt>
      <trkpt lat="47.45994" lon="6.90869">
        <ele>489.8</ele>
        <time>2014-09-28T09:01:26.000Z</time>
      </trkpt>
      <trkpt lat="47.45996" lon="6.90865">
        <ele>477.3</ele>
        <time>2014-09-28T09:01:29.000Z</time>
      </trkpt>
      <trkpt lat="47.45994" lon="6.90861">
        <ele>477.1</ele>
        <time>2014-09-28T09:01:31.000Z</time>
      </trkpt>
      <trkpt lat="47.45992" lon="6.90859">
        <ele>478.2</ele>
        <time>2014-09-28T09:01:32.000Z</time>
      </trkpt>
      <trkpt lat="47.4599" lon="6.90855">
        <ele>480.1</ele>
        <time>2014-09-28T09:01:34.000Z</time>
      </trkpt>
      <trkpt lat="47.45989" lon="6.90853">
        <ele>480.9</ele>
        <time>2014-09-28T09:01:35.000Z</time>
      </trkpt>
      <trkpt lat="47.45988" lon="6.90848">
        <ele>482.1</ele>
        <time>2014-09-28T09:01:38.000Z</time>
      </trkpt>
      <trkpt lat="47.45987" lon="6.90846">
        <ele>482.3</ele>
        <time>2014-09-28T09:01:39.000Z</time>
      </trkpt>
      <trkpt lat="47.45985" lon="6.90842">
        <ele>482.5</ele>
        <time>2014-09-28T09:01:41.000Z</time>
      </trkpt>
      <trkpt lat="47.45985" lon="6.9084">
        <ele>482.4</ele>
        <time>2014-09-28T09:01:42.000Z</time>
      </trkpt>
      <trkpt lat="47.45983" lon="6.90836">
        <ele>485</ele>
        <time>2014-09-28T09:01:44.000Z</time>
      </trkpt>
      <trkpt lat="47.45983" lon="6.90833">
        <ele>485.1</ele>
        <time>2014-09-28T09:01:45.000Z</time>
      </trkpt>
      <trkpt lat="47.45981" lon="6.90829">
        <ele>485.2</ele>
        <time>2014-09-28T09:01:47.000Z</time>
      </trkpt>
      <trkpt lat="47.4598" lon="6.90827">
        <ele>485.6</ele>
        <time>2014-09-28T09:01:48.000Z</time>
      </trkpt>
      <trkpt lat="47.45979" lon="6.90822">
        <ele>488.6</ele>
        <time>2014-09-28T09:01:51.000Z</time>
      </trkpt>
      <trkpt lat="47.45979" lon="6.9082">
        <ele>489.6</ele>
        <time>2014-09-28T09:01:52.000Z</time>
      </trkpt>
      <trkpt lat="47.45977" lon="6.90816">
        <ele>489.3</ele>
        <time>2014-09-28T09:01:54.000Z</time>
      </trkpt>
      <trkpt lat="47.45977" lon="6.90813">
        <ele>490.1</ele>
        <time>2014-09-28T09:01:55.000Z</time>
      </trkpt>
      <trkpt lat="47.45975" lon="6.90809">
        <ele>490.1</ele>
        <time>2014-09-28T09:01:57.000Z</time>
      </trkpt>
      <trkpt lat="47.45974" lon="6.90807">
        <ele>490.5</ele>
        <time>2014-09-28T09:01:58.000Z</time>
      </trkpt>
      <trkpt lat="47.45972" lon="6.90801">
        <ele>491.8</ele>
        <time>2014-09-28T09:02:01.000Z</time>
      </trkpt>
      <trkpt lat="47.45972" lon="6.908">
        <ele>493.3</ele>
        <time>2014-09-28T09:02:02.000Z</time>
      </trkpt>
      <trkpt lat="47.4597" lon="6.90794">
        <ele>493.5</ele>
        <time>2014-09-28T09:02:06.000Z</time>
      </trkpt>
      <trkpt lat="47.4597" lon="6.90792">
        <ele>493.6</ele>
        <time>2014-09-28T09:02:07.000Z</time>
      </trkpt>
      <trkpt lat="47.45968" lon="6.90786">
        <ele>493.8</ele>
        <time>2014-09-28T09:02:10.000Z</time>
      </trkpt>
      <trkpt lat="47.45968" lon="6.90784">
        <ele>494</ele>
        <time>2014-09-28T09:02:11.000Z</time>
      </trkpt>
      <trkpt lat="47.45968" lon="6.90778">
        <ele>494.5</ele>
        <time>2014-09-28T09:02:14.000Z</time>
      </trkpt>
      <trkpt lat="47.45968" lon="6.90776">
        <ele>494.1</ele>
        <time>2014-09-28T09:02:15.000Z</time>
      </trkpt>
      <trkpt lat="47.45967" lon="6.90771">
        <ele>495</ele>
        <time>2014-09-28T09:02:17.000Z</time>
      </trkpt>
      <trkpt lat="47.45966" lon="6.90767">
        <ele>493.1</ele>
        <time>2014-09-28T09:02:18.000Z</time>
      </trkpt>
      <trkpt lat="47.45964" lon="6.90762">
        <ele>491.8</ele>
        <time>2014-09-28T09:02:20.000Z</time>
      </trkpt>
      <trkpt lat="47.45963" lon="6.90759">
        <ele>492</ele>
        <time>2014-09-28T09:02:21.000Z</time>
      </trkpt>
      <trkpt lat="47.45961" lon="6.90753">
        <ele>492.7</ele>
        <time>2014-09-28T09:02:24.000Z</time>
      </trkpt>
      <trkpt lat="47.45961" lon="6.90752">
        <ele>495</ele>
        <time>2014-09-28T09:02:25.000Z</time>
      </trkpt>
      <trkpt lat="47.45959" lon="6.90746">
        <ele>492.1</ele>
        <time>2014-09-28T09:02:31.000Z</time>
      </trkpt>
      <trkpt lat="47.45959" lon="6.90744">
        <ele>492.3</ele>
        <time>2014-09-28T09:02:32.000Z</time>
      </trkpt>
      <trkpt lat="47.45957" lon="6.90738">
        <ele>493.3</ele>
        <time>2014-09-28T09:02:35.000Z</time>
      </trkpt>
      <trkpt lat="47.45956" lon="6.90737">
        <ele>493.2</ele>
        <time>2014-09-28T09:02:36.000Z</time>
      </trkpt>
      <trkpt lat="47.45954" lon="6.90733">
        <ele>492.8</ele>
        <time>2014-09-28T09:02:38.000Z</time>
      </trkpt>
      <trkpt lat="47.45952" lon="6.90732">
        <ele>492.9</ele>
        <time>2014-09-28T09:02:39.000Z</time>
      </trkpt>
      <trkpt lat="47.4595" lon="6.90729">
        <ele>491.7</ele>
        <time>2014-09-28T09:02:41.000Z</time>
      </trkpt>
      <trkpt lat="47.45949" lon="6.90727">
        <ele>491.7</ele>
        <time>2014-09-28T09:02:42.000Z</time>
      </trkpt>
      <trkpt lat="47.45945" lon="6.90724">
        <ele>491.3</ele>
        <time>2014-09-28T09:02:45.000Z</time>
      </trkpt>
      <trkpt lat="47.45944" lon="6.90723">
        <ele>493.2</ele>
        <time>2014-09-28T09:02:46.000Z</time>
      </trkpt>
      <trkpt lat="47.45941" lon="6.90722">
        <ele>493.1</ele>
        <time>2014-09-28T09:02:51.000Z</time>
      </trkpt>
      <trkpt lat="47.45939" lon="6.90723">
        <ele>493</ele>
        <time>2014-09-28T09:02:52.000Z</time>
      </trkpt>
      <trkpt lat="47.45936" lon="6.90724">
        <ele>492.5</ele>
        <time>2014-09-28T09:02:54.000Z</time>
      </trkpt>
      <trkpt lat="47.45935" lon="6.90725">
        <ele>492.4</ele>
        <time>2014-09-28T09:02:55.000Z</time>
      </trkpt>
      <trkpt lat="47.45932" lon="6.90728">
        <ele>491.8</ele>
        <time>2014-09-28T09:02:57.000Z</time>
      </trkpt>
      <trkpt lat="47.45931" lon="6.90729">
        <ele>492.4</ele>
        <time>2014-09-28T09:02:58.000Z</time>
      </trkpt>
      <trkpt lat="47.45927" lon="6.90731">
        <ele>496.7</ele>
        <time>2014-09-28T09:03:02.000Z</time>
      </trkpt>
      <trkpt lat="47.45927" lon="6.90731">
        <ele>497.8</ele>
        <time>2014-09-28T09:03:03.000Z</time>
      </trkpt>
      <trkpt lat="47.45923" lon="6.90733">
        <ele>498.9</ele>
        <time>2014-09-28T09:03:07.000Z</time>
      </trkpt>
      <trkpt lat="47.45922" lon="6.90735">
        <ele>497.9</ele>
        <time>2014-09-28T09:03:08.000Z</time>
      </trkpt>
      <trkpt lat="47.45921" lon="6.9074">
        <ele>496.6</ele>
        <time>2014-09-28T09:03:10.000Z</time>
      </trkpt>
      <trkpt lat="47.45921" lon="6.90743">
        <ele>496.7</ele>
        <time>2014-09-28T09:03:11.000Z</time>
      </trkpt>
      <trkpt lat="47.45918" lon="6.90748">
        <ele>498.2</ele>
        <time>2014-09-28T09:03:14.000Z</time>
      </trkpt>
      <trkpt lat="47.45917" lon="6.90748">
        <ele>499.2</ele>
        <time>2014-09-28T09:03:15.000Z</time>
      </trkpt>
      <trkpt lat="47.45913" lon="6.9075">
        <ele>502.5</ele>
        <time>2014-09-28T09:03:20.000Z</time>
      </trkpt>
      <trkpt lat="47.45912" lon="6.90751">
        <ele>502.3</ele>
        <time>2014-09-28T09:03:21.000Z</time>
      </trkpt>
      <trkpt lat="47.45909" lon="6.90755">
        <ele>504.3</ele>
        <time>2014-09-28T09:03:25.000Z</time>
      </trkpt>
      <trkpt lat="47.45908" lon="6.90756">
        <ele>504.9</ele>
        <time>2014-09-28T09:03:26.000Z</time>
      </trkpt>
      <trkpt lat="47.45906" lon="6.90761">
        <ele>497.1</ele>
        <time>2014-09-28T09:03:29.000Z</time>
      </trkpt>
      <trkpt lat="47.45906" lon="6.90763">
        <ele>497.1</ele>
        <time>2014-09-28T09:03:30.000Z</time>
      </trkpt>
      <trkpt lat="47.45904" lon="6.90767">
        <ele>494.7</ele>
        <time>2014-09-28T09:03:32.000Z</time>
      </trkpt>
      <trkpt lat="47.45903" lon="6.90769">
        <ele>494.4</ele>
        <time>2014-09-28T09:03:33.000Z</time>
      </trkpt>
      <trkpt lat="47.45901" lon="6.90773">
        <ele>493.5</ele>
        <time>2014-09-28T09:03:35.000Z</time>
      </trkpt>
      <trkpt lat="47.459" lon="6.90775">
        <ele>493.9</ele>
        <time>2014-09-28T09:03:36.000Z</time>
      </trkpt>
      <trkpt lat="47.45898" lon="6.90779">
        <ele>494</ele>
        <time>2014-09-28T09:03:38.000Z</time>
      </trkpt>
      <trkpt lat="47.45897" lon="6.9078">
        <ele>493.9</ele>
        <time>2014-09-28T09:03:39.000Z</time>
      </trkpt>
      <trkpt lat="47.45895" lon="6.90785">
        <ele>494.6</ele>
        <time>2014-09-28T09:03:43.000Z</time>
      </trkpt>
      <trkpt lat="47.45894" lon="6.90787">
        <ele>494.7</ele>
        <time>2014-09-28T09:03:44.000Z</time>
      </trkpt>
      <trkpt lat="47.45891" lon="6.90791">
        <ele>494.9</ele>
        <time>2014-09-28T09:03:47.000Z</time>
      </trkpt>
      <trkpt lat="47.45891" lon="6.90793">
        <ele>495.3</ele>
        <time>2014-09-28T09:03:48.000Z</time>
      </trkpt>
      <trkpt lat="47.45889" lon="6.90798">
        <ele>497</ele>
        <time>2014-09-28T09:03:52.000Z</time>
      </trkpt>
      <trkpt lat="47.45888" lon="6.908">
        <ele>497.4</ele>
        <time>2014-09-28T09:03:53.000Z</time>
      </trkpt>
      <trkpt lat="47.45886" lon="6.90803">
        <ele>500.1</ele>
        <time>2014-09-28T09:03:56.000Z</time>
      </trkpt>
      <trkpt lat="47.45885" lon="6.90805">
        <ele>500.4</ele>
        <time>2014-09-28T09:03:57.000Z</time>
      </trkpt>
      <trkpt lat="47.45882" lon="6.90809">
        <ele>501.8</ele>
        <time>2014-09-28T09:04:00.000Z</time>
      </trkpt>
      <trkpt lat="47.45881" lon="6.90811">
        <ele>502.1</ele>
        <time>2014-09-28T09:04:01.000Z</time>
      </trkpt>
      <trkpt lat="47.45878" lon="6.90814">
        <ele>504</ele>
        <time>2014-09-28T09:04:05.000Z</time>
      </trkpt>
      <trkpt lat="47.45877" lon="6.90815">
        <ele>504.2</ele>
        <time>2014-09-28T09:04:06.000Z</time>
      </trkpt>
      <trkpt lat="47.45874" lon="6.90819">
        <ele>507.6</ele>
        <time>2014-09-28T09:04:09.000Z</time>
      </trkpt>
      <trkpt lat="47.45873" lon="6.90821">
        <ele>509.2</ele>
        <time>2014-09-28T09:04:10.000Z</time>
      </trkpt>
      <trkpt lat="47.4587" lon="6.90826">
        <ele>511.7</ele>
        <time>2014-09-28T09:04:13.000Z</time>
      </trkpt>
      <trkpt lat="47.4587" lon="6.90828">
        <ele>512</ele>
        <time>2014-09-28T09:04:14.000Z</time>
      </trkpt>
      <trkpt lat="47.4587" lon="6.90833">
        <ele>513.9</ele>
        <time>2014-09-28T09:04:18.000Z</time>
      </trkpt>
      <trkpt lat="47.45869" lon="6.90834">
        <ele>514.5</ele>
        <time>2014-09-28T09:04:19.000Z</time>
      </trkpt>
      <trkpt lat="47.45868" lon="6.9084">
        <ele>516.5</ele>
        <time>2014-09-28T09:04:23.000Z</time>
      </trkpt>
      <trkpt lat="47.45867" lon="6.90842">
        <ele>516.5</ele>
        <time>2014-09-28T09:04:24.000Z</time>
      </trkpt>
      <trkpt lat="47.45867" lon="6.90847">
        <ele>518.1</ele>
        <time>2014-09-28T09:04:26.000Z</time>
      </trkpt>
      <trkpt lat="47.45865" lon="6.90854">
        <ele>507.3</ele>
        <time>2014-09-28T09:04:29.000Z</time>
      </trkpt>
      <trkpt lat="47.45864" lon="6.9086">
        <ele>509.5</ele>
        <time>2014-09-28T09:04:32.000Z</time>
      </trkpt>
      <trkpt lat="47.45864" lon="6.90861">
        <ele>510.5</ele>
        <time>2014-09-28T09:04:33.000Z</time>
      </trkpt>
      <trkpt lat="47.45861" lon="6.90865">
        <ele>511.5</ele>
        <time>2014-09-28T09:04:37.000Z</time>
      </trkpt>
      <trkpt lat="47.45859" lon="6.90867">
        <ele>511.6</ele>
        <time>2014-09-28T09:04:38.000Z</time>
      </trkpt>
      <trkpt lat="47.45857" lon="6.9087">
        <ele>513.9</ele>
        <time>2014-09-28T09:04:40.000Z</time>
      </trkpt>
      <trkpt lat="47.45855" lon="6.90871">
        <ele>514</ele>
        <time>2014-09-28T09:04:41.000Z</time>
      </trkpt>
      <trkpt lat="47.45853" lon="6.90875">
        <ele>514</ele>
        <time>2014-09-28T09:04:43.000Z</time>
      </trkpt>
      <trkpt lat="47.45852" lon="6.90877">
        <ele>514.4</ele>
        <time>2014-09-28T09:04:44.000Z</time>
      </trkpt>
      <trkpt lat="47.4585" lon="6.90881">
        <ele>514.2</ele>
        <time>2014-09-28T09:04:46.000Z</time>
      </trkpt>
      <trkpt lat="47.45849" lon="6.90883">
        <ele>515</ele>
        <time>2014-09-28T09:04:47.000Z</time>
      </trkpt>
      <trkpt lat="47.45847" lon="6.90888">
        <ele>516.2</ele>
        <time>2014-09-28T09:04:49.000Z</time>
      </trkpt>
      <trkpt lat="47.45846" lon="6.9089">
        <ele>517.1</ele>
        <time>2014-09-28T09:04:50.000Z</time>
      </trkpt>
      <trkpt lat="47.45844" lon="6.90896">
        <ele>519.9</ele>
        <time>2014-09-28T09:04:53.000Z</time>
      </trkpt>
      <trkpt lat="47.45844" lon="6.90898">
        <ele>520.3</ele>
        <time>2014-09-28T09:04:54.000Z</time>
      </trkpt>
      <trkpt lat="47.45843" lon="6.90904">
        <ele>521.7</ele>
        <time>2014-09-28T09:04:57.000Z</time>
      </trkpt>
      <trkpt lat="47.45842" lon="6.90905">
        <ele>521.9</ele>
        <time>2014-09-28T09:04:58.000Z</time>
      </trkpt>
      <trkpt lat="47.45838" lon="6.90908">
        <ele>523.8</ele>
        <time>2014-09-28T09:05:03.000Z</time>
      </trkpt>
      <trkpt lat="47.45838" lon="6.90909">
        <ele>523.7</ele>
        <time>2014-09-28T09:05:04.000Z</time>
      </trkpt>
      <trkpt lat="47.45836" lon="6.90913">
        <ele>524.1</ele>
        <time>2014-09-28T09:05:09.000Z</time>
      </trkpt>
      <trkpt lat="47.45834" lon="6.90914">
        <ele>524.5</ele>
        <time>2014-09-28T09:05:10.000Z</time>
      </trkpt>
      <trkpt lat="47.45831" lon="6.90917">
        <ele>523</ele>
        <time>2014-09-28T09:05:12.000Z</time>
      </trkpt>
      <trkpt lat="47.4583" lon="6.90918">
        <ele>521.2</ele>
        <time>2014-09-28T09:05:13.000Z</time>
      </trkpt>
      <trkpt lat="47.45828" lon="6.90922">
        <ele>520.8</ele>
        <time>2014-09-28T09:05:15.000Z</time>
      </trkpt>
      <trkpt lat="47.45828" lon="6.90925">
        <ele>520.9</ele>
        <time>2014-09-28T09:05:16.000Z</time>
      </trkpt>
      <trkpt lat="47.45827" lon="6.90931">
        <ele>519.9</ele>
        <time>2014-09-28T09:05:19.000Z</time>
      </trkpt>
      <trkpt lat="47.45827" lon="6.90932">
        <ele>520.4</ele>
        <time>2014-09-28T09:05:20.000Z</time>
      </trkpt>
      <trkpt lat="47.45824" lon="6.90935">
        <ele>522</ele>
        <time>2014-09-28T09:05:23.000Z</time>
      </trkpt>
      <trkpt lat="47.45822" lon="6.90936">
        <ele>522.6</ele>
        <time>2014-09-28T09:05:24.000Z</time>
      </trkpt>
      <trkpt lat="47.4582" lon="6.90937">
        <ele>524.6</ele>
        <time>2014-09-28T09:05:26.000Z</time>
      </trkpt>
      <trkpt lat="47.45816" lon="6.9094">
        <ele>511.7</ele>
        <time>2014-09-28T09:05:29.000Z</time>
      </trkpt>
      <trkpt lat="47.45811" lon="6.90941">
        <ele>511.5</ele>
        <time>2014-09-28T09:05:31.000Z</time>
      </trkpt>
      <trkpt lat="47.45809" lon="6.90943">
        <ele>512.4</ele>
        <time>2014-09-28T09:05:32.000Z</time>
      </trkpt>
      <trkpt lat="47.45806" lon="6.90947">
        <ele>513.2</ele>
        <time>2014-09-28T09:05:34.000Z</time>
      </trkpt>
      <trkpt lat="47.45805" lon="6.90949">
        <ele>513.5</ele>
        <time>2014-09-28T09:05:35.000Z</time>
      </trkpt>
      <trkpt lat="47.45802" lon="6.90953">
        <ele>514.4</ele>
        <time>2014-09-28T09:05:37.000Z</time>
      </trkpt>
      <trkpt lat="47.458" lon="6.90956">
        <ele>514.7</ele>
        <time>2014-09-28T09:05:38.000Z</time>
      </trkpt>
      <trkpt lat="47.45797" lon="6.90959">
        <ele>515.5</ele>
        <time>2014-09-28T09:05:40.000Z</time>
      </trkpt>
      <trkpt lat="47.45795" lon="6.9096">
        <ele>515.5</ele>
        <time>2014-09-28T09:05:41.000Z</time>
      </trkpt>
      <trkpt lat="47.45792" lon="6.90963">
        <ele>516.9</ele>
        <time>2014-09-28T09:05:43.000Z</time>
      </trkpt>
      <trkpt lat="47.45791" lon="6.90964">
        <ele>517.5</ele>
        <time>2014-09-28T09:05:44.000Z</time>
      </trkpt>
      <trkpt lat="47.45787" lon="6.90967">
        <ele>518.9</ele>
        <time>2014-09-28T09:05:46.000Z</time>
      </trkpt>
      <trkpt lat="47.45786" lon="6.90969">
        <ele>519.6</ele>
        <time>2014-09-28T09:05:47.000Z</time>
      </trkpt>
      <trkpt lat="47.45783" lon="6.90974">
        <ele>521.3</ele>
        <time>2014-09-28T09:05:50.000Z</time>
      </trkpt>
      <trkpt lat="47.45783" lon="6.90975">
        <ele>521.8</ele>
        <time>2014-09-28T09:05:51.000Z</time>
      </trkpt>
      <trkpt lat="47.45779" lon="6.90979">
        <ele>522.4</ele>
        <time>2014-09-28T09:05:54.000Z</time>
      </trkpt>
      <trkpt lat="47.45778" lon="6.9098">
        <ele>523.1</ele>
        <time>2014-09-28T09:05:55.000Z</time>
      </trkpt>
      <trkpt lat="47.45774" lon="6.90983">
        <ele>523.2</ele>
        <time>2014-09-28T09:05:57.000Z</time>
      </trkpt>
      <trkpt lat="47.45772" lon="6.90984">
        <ele>523.5</ele>
        <time>2014-09-28T09:05:58.000Z</time>
      </trkpt>
      <trkpt lat="47.45769" lon="6.90986">
        <ele>524.7</ele>
        <time>2014-09-28T09:06:01.000Z</time>
      </trkpt>
      <trkpt lat="47.45767" lon="6.90987">
        <ele>525</ele>
        <time>2014-09-28T09:06:02.000Z</time>
      </trkpt>
      <trkpt lat="47.45764" lon="6.90989">
        <ele>526.8</ele>
        <time>2014-09-28T09:06:06.000Z</time>
      </trkpt>
      <trkpt lat="47.45763" lon="6.9099">
        <ele>527.2</ele>
        <time>2014-09-28T09:06:07.000Z</time>
      </trkpt>
      <trkpt lat="47.4576" lon="6.90991">
        <ele>528</ele>
        <time>2014-09-28T09:06:09.000Z</time>
      </trkpt>
      <trkpt lat="47.45759" lon="6.90992">
        <ele>528.5</ele>
        <time>2014-09-28T09:06:10.000Z</time>
      </trkpt>
      <trkpt lat="47.45755" lon="6.90995">
        <ele>527.8</ele>
        <time>2014-09-28T09:06:12.000Z</time>
      </trkpt>
      <trkpt lat="47.45752" lon="6.90996">
        <ele>528.4</ele>
        <time>2014-09-28T09:06:13.000Z</time>
      </trkpt>
      <trkpt lat="47.4575" lon="6.90997">
        <ele>529.4</ele>
        <time>2014-09-28T09:06:14.000Z</time>
      </trkpt>
      <trkpt lat="47.45748" lon="6.90999">
        <ele>530.1</ele>
        <time>2014-09-28T09:06:15.000Z</time>
      </trkpt>
      <trkpt lat="47.45744" lon="6.91002">
        <ele>530.6</ele>
        <time>2014-09-28T09:06:17.000Z</time>
      </trkpt>
      <trkpt lat="47.45742" lon="6.91003">
        <ele>530.7</ele>
        <time>2014-09-28T09:06:18.000Z</time>
      </trkpt>
      <trkpt lat="47.45739" lon="6.91007">
        <ele>530.6</ele>
        <time>2014-09-28T09:06:20.000Z</time>
      </trkpt>
      <trkpt lat="47.45737" lon="6.91008">
        <ele>531.3</ele>
        <time>2014-09-28T09:06:21.000Z</time>
      </trkpt>
      <trkpt lat="47.45735" lon="6.91012">
        <ele>532.5</ele>
        <time>2014-09-28T09:06:23.000Z</time>
      </trkpt>
      <trkpt lat="47.45734" lon="6.91015">
        <ele>533.8</ele>
        <time>2014-09-28T09:06:24.000Z</time>
      </trkpt>
      <trkpt lat="47.45732" lon="6.91019">
        <ele>536.1</ele>
        <time>2014-09-28T09:06:26.000Z</time>
      </trkpt>
      <trkpt lat="47.4573" lon="6.91022">
        <ele>526.1</ele>
        <time>2014-09-28T09:06:29.000Z</time>
      </trkpt>
      <trkpt lat="47.45729" lon="6.91026">
        <ele>527.7</ele>
        <time>2014-09-28T09:06:31.000Z</time>
      </trkpt>
      <trkpt lat="47.45728" lon="6.91029">
        <ele>529.2</ele>
        <time>2014-09-28T09:06:32.000Z</time>
      </trkpt>
      <trkpt lat="47.45727" lon="6.91032">
        <ele>527.5</ele>
        <time>2014-09-28T09:06:33.000Z</time>
      </trkpt>
      <trkpt lat="47.45726" lon="6.91036">
        <ele>527.6</ele>
        <time>2014-09-28T09:06:34.000Z</time>
      </trkpt>
      <trkpt lat="47.45725" lon="6.91041">
        <ele>530.5</ele>
        <time>2014-09-28T09:06:35.000Z</time>
      </trkpt>
      <trkpt lat="47.45723" lon="6.91046">
        <ele>531.9</ele>
        <time>2014-09-28T09:06:36.000Z</time>
      </trkpt>
      <trkpt lat="47.45723" lon="6.9105">
        <ele>532.5</ele>
        <time>2014-09-28T09:06:37.000Z</time>
      </trkpt>
      <trkpt lat="47.45722" lon="6.91054">
        <ele>533</ele>
        <time>2014-09-28T09:06:38.000Z</time>
      </trkpt>
      <trkpt lat="47.45721" lon="6.91059">
        <ele>533.4</ele>
        <time>2014-09-28T09:06:40.000Z</time>
      </trkpt>
      <trkpt lat="47.45721" lon="6.9106">
        <ele>534.9</ele>
        <time>2014-09-28T09:06:41.000Z</time>
      </trkpt>
      <trkpt lat="47.45718" lon="6.91064">
        <ele>536.9</ele>
        <time>2014-09-28T09:06:44.000Z</time>
      </trkpt>
      <trkpt lat="47.45718" lon="6.91065">
        <ele>537.3</ele>
        <time>2014-09-28T09:06:45.000Z</time>
      </trkpt>
      <trkpt lat="47.45715" lon="6.91069">
        <ele>540.4</ele>
        <time>2014-09-28T09:06:48.000Z</time>
      </trkpt>
      <trkpt lat="47.45715" lon="6.91071">
        <ele>541.6</ele>
        <time>2014-09-28T09:06:49.000Z</time>
      </trkpt>
      <trkpt lat="47.45714" lon="6.91077">
        <ele>542.7</ele>
        <time>2014-09-28T09:06:52.000Z</time>
      </trkpt>
      <trkpt lat="47.45714" lon="6.91079">
        <ele>544.2</ele>
        <time>2014-09-28T09:06:53.000Z</time>
      </trkpt>
      <trkpt lat="47.45712" lon="6.91085">
        <ele>546.2</ele>
        <time>2014-09-28T09:06:56.000Z</time>
      </trkpt>
      <trkpt lat="47.45711" lon="6.91086">
        <ele>546.8</ele>
        <time>2014-09-28T09:06:57.000Z</time>
      </trkpt>
      <trkpt lat="47.4571" lon="6.91092">
        <ele>546.6</ele>
        <time>2014-09-28T09:07:00.000Z</time>
      </trkpt>
      <trkpt lat="47.4571" lon="6.91094">
        <ele>548.3</ele>
        <time>2014-09-28T09:07:01.000Z</time>
      </trkpt>
      <trkpt lat="47.4571" lon="6.911">
        <ele>548.2</ele>
        <time>2014-09-28T09:07:03.000Z</time>
      </trkpt>
      <trkpt lat="47.4571" lon="6.91103">
        <ele>549.9</ele>
        <time>2014-09-28T09:07:04.000Z</time>
      </trkpt>
      <trkpt lat="47.4571" lon="6.91109">
        <ele>552.2</ele>
        <time>2014-09-28T09:07:07.000Z</time>
      </trkpt>
      <trkpt lat="47.4571" lon="6.9111">
        <ele>552.2</ele>
        <time>2014-09-28T09:07:08.000Z</time>
      </trkpt>
      <trkpt lat="47.4571" lon="6.91114">
        <ele>552</ele>
        <time>2014-09-28T09:07:11.000Z</time>
      </trkpt>
      <trkpt lat="47.45711" lon="6.91117">
        <ele>552.6</ele>
        <time>2014-09-28T09:07:12.000Z</time>
      </trkpt>
      <trkpt lat="47.45711" lon="6.91123">
        <ele>552.2</ele>
        <time>2014-09-28T09:07:14.000Z</time>
      </trkpt>
      <trkpt lat="47.45711" lon="6.91126">
        <ele>552.4</ele>
        <time>2014-09-28T09:07:15.000Z</time>
      </trkpt>
      <trkpt lat="47.45711" lon="6.91131">
        <ele>552.4</ele>
        <time>2014-09-28T09:07:17.000Z</time>
      </trkpt>
      <trkpt lat="47.4571" lon="6.91134">
        <ele>552.1</ele>
        <time>2014-09-28T09:07:18.000Z</time>
      </trkpt>
      <trkpt lat="47.4571" lon="6.91138">
        <ele>550.9</ele>
        <time>2014-09-28T09:07:20.000Z</time>
      </trkpt>
      <trkpt lat="47.45711" lon="6.91141">
        <ele>550.3</ele>
        <time>2014-09-28T09:07:21.000Z</time>
      </trkpt>
      <trkpt lat="47.45711" lon="6.91146">
        <ele>549.7</ele>
        <time>2014-09-28T09:07:23.000Z</time>
      </trkpt>
      <trkpt lat="47.4571" lon="6.91149">
        <ele>549.7</ele>
        <time>2014-09-28T09:07:24.000Z</time>
      </trkpt>
      <trkpt lat="47.4571" lon="6.91155">
        <ele>547.8</ele>
        <time>2014-09-28T09:07:26.000Z</time>
      </trkpt>
      <trkpt lat="47.45709" lon="6.91161">
        <ele>501.1</ele>
        <time>2014-09-28T09:07:29.000Z</time>
      </trkpt>
      <trkpt lat="47.45708" lon="6.91164">
        <ele>502</ele>
        <time>2014-09-28T09:07:30.000Z</time>
      </trkpt>
      <trkpt lat="47.45707" lon="6.91167">
        <ele>504</ele>
        <time>2014-09-28T09:07:31.000Z</time>
      </trkpt>
      <trkpt lat="47.45706" lon="6.91171">
        <ele>506</ele>
        <time>2014-09-28T09:07:32.000Z</time>
      </trkpt>
      <trkpt lat="47.45705" lon="6.91175">
        <ele>507</ele>
        <time>2014-09-28T09:07:33.000Z</time>
      </trkpt>
      <trkpt lat="47.45704" lon="6.91179">
        <ele>506.9</ele>
        <time>2014-09-28T09:07:34.000Z</time>
      </trkpt>
      <trkpt lat="47.45703" lon="6.91183">
        <ele>506.4</ele>
        <time>2014-09-28T09:07:35.000Z</time>
      </trkpt>
      <trkpt lat="47.45702" lon="6.91187">
        <ele>507.7</ele>
        <time>2014-09-28T09:07:36.000Z</time>
      </trkpt>
      <trkpt lat="47.457" lon="6.91191">
        <ele>508.2</ele>
        <time>2014-09-28T09:07:37.000Z</time>
      </trkpt>
      <trkpt lat="47.45699" lon="6.91192">
        <ele>508.5</ele>
        <time>2014-09-28T09:07:37.999Z</time>
      </trkpt>
      <trkpt lat="47.45697" lon="6.91197">
        <ele>511.2</ele>
        <time>2014-09-28T09:07:39.000Z</time>
      </trkpt>
      <trkpt lat="47.45695" lon="6.91202">
        <ele>513.6</ele>
        <time>2014-09-28T09:07:41.000Z</time>
      </trkpt>
      <trkpt lat="47.45694" lon="6.91203">
        <ele>515.7</ele>
        <time>2014-09-28T09:07:42.000Z</time>
      </trkpt>
      <trkpt lat="47.45691" lon="6.91207">
        <ele>518</ele>
        <time>2014-09-28T09:07:44.000Z</time>
      </trkpt>
      <trkpt lat="47.4569" lon="6.9121">
        <ele>519.4</ele>
        <time>2014-09-28T09:07:45.000Z</time>
      </trkpt>
      <trkpt lat="47.45687" lon="6.91215">
        <ele>521.3</ele>
        <time>2014-09-28T09:07:47.000Z</time>
      </trkpt>
      <trkpt lat="47.45686" lon="6.91218">
        <ele>521.9</ele>
        <time>2014-09-28T09:07:48.000Z</time>
      </trkpt>
      <trkpt lat="47.45684" lon="6.91222">
        <ele>522.5</ele>
        <time>2014-09-28T09:07:50.000Z</time>
      </trkpt>
      <trkpt lat="47.45683" lon="6.91223">
        <ele>522.7</ele>
        <time>2014-09-28T09:07:51.000Z</time>
      </trkpt>
      <trkpt lat="47.45681" lon="6.91227">
        <ele>523.7</ele>
        <time>2014-09-28T09:07:53.000Z</time>
      </trkpt>
      <trkpt lat="47.4568" lon="6.91229">
        <ele>524.8</ele>
        <time>2014-09-28T09:07:54.000Z</time>
      </trkpt>
      <trkpt lat="47.45677" lon="6.91233">
        <ele>526.9</ele>
        <time>2014-09-28T09:07:56.000Z</time>
      </trkpt>
      <trkpt lat="47.45676" lon="6.91236">
        <ele>527.6</ele>
        <time>2014-09-28T09:07:57.000Z</time>
      </trkpt>
      <trkpt lat="47.45674" lon="6.91241">
        <ele>530.1</ele>
        <time>2014-09-28T09:07:59.000Z</time>
      </trkpt>
      <trkpt lat="47.45673" lon="6.91244">
        <ele>532.1</ele>
        <time>2014-09-28T09:08:00.000Z</time>
      </trkpt>
      <trkpt lat="47.45672" lon="6.91249">
        <ele>533.8</ele>
        <time>2014-09-28T09:08:02.000Z</time>
      </trkpt>
      <trkpt lat="47.45672" lon="6.91251">
        <ele>536.4</ele>
        <time>2014-09-28T09:08:03.000Z</time>
      </trkpt>
      <trkpt lat="47.4567" lon="6.91256">
        <ele>537.8</ele>
        <time>2014-09-28T09:08:06.000Z</time>
      </trkpt>
      <trkpt lat="47.45669" lon="6.91257">
        <ele>538.2</ele>
        <time>2014-09-28T09:08:07.000Z</time>
      </trkpt>
      <trkpt lat="47.45666" lon="6.91261">
        <ele>540.7</ele>
        <time>2014-09-28T09:08:10.000Z</time>
      </trkpt>
      <trkpt lat="47.45665" lon="6.91263">
        <ele>541</ele>
        <time>2014-09-28T09:08:11.000Z</time>
      </trkpt>
      <trkpt lat="47.45662" lon="6.91267">
        <ele>542.2</ele>
        <time>2014-09-28T09:08:13.000Z</time>
      </trkpt>
      <trkpt lat="47.45661" lon="6.91269">
        <ele>542.7</ele>
        <time>2014-09-28T09:08:14.000Z</time>
      </trkpt>
      <trkpt lat="47.45658" lon="6.91274">
        <ele>549.3</ele>
        <time>2014-09-28T09:08:16.000Z</time>
      </trkpt>
      <trkpt lat="47.45657" lon="6.91277">
        <ele>551.6</ele>
        <time>2014-09-28T09:08:17.000Z</time>
      </trkpt>
      <trkpt lat="47.45656" lon="6.91282">
        <ele>554.2</ele>
        <time>2014-09-28T09:08:19.000Z</time>
      </trkpt>
      <trkpt lat="47.45655" lon="6.91283">
        <ele>554.8</ele>
        <time>2014-09-28T09:08:20.000Z</time>
      </trkpt>
      <trkpt lat="47.45652" lon="6.91288">
        <ele>555.7</ele>
        <time>2014-09-28T09:08:23.000Z</time>
      </trkpt>
      <trkpt lat="47.45652" lon="6.9129">
        <ele>558.7</ele>
        <time>2014-09-28T09:08:24.000Z</time>
      </trkpt>
      <trkpt lat="47.45651" lon="6.91294">
        <ele>559.2</ele>
        <time>2014-09-28T09:08:26.000Z</time>
      </trkpt>
      <trkpt lat="47.45649" lon="6.91299">
        <ele>553</ele>
        <time>2014-09-28T09:08:29.000Z</time>
      </trkpt>
      <trkpt lat="47.45647" lon="6.91305">
        <ele>552.9</ele>
        <time>2014-09-28T09:08:31.000Z</time>
      </trkpt>
      <trkpt lat="47.45647" lon="6.91307">
        <ele>554.4</ele>
        <time>2014-09-28T09:08:32.000Z</time>
      </trkpt>
      <trkpt lat="47.45647" lon="6.91312">
        <ele>555.2</ele>
        <time>2014-09-28T09:08:34.000Z</time>
      </trkpt>
      <trkpt lat="47.45647" lon="6.91315">
        <ele>555.3</ele>
        <time>2014-09-28T09:08:35.000Z</time>
      </trkpt>
      <trkpt lat="47.45645" lon="6.91321">
        <ele>558.4</ele>
        <time>2014-09-28T09:08:37.000Z</time>
      </trkpt>
      <trkpt lat="47.45644" lon="6.91323">
        <ele>558.8</ele>
        <time>2014-09-28T09:08:38.000Z</time>
      </trkpt>
      <trkpt lat="47.45643" lon="6.91326">
        <ele>559.3</ele>
        <time>2014-09-28T09:08:39.000Z</time>
      </trkpt>
      <trkpt lat="47.45641" lon="6.9133">
        <ele>561.6</ele>
        <time>2014-09-28T09:08:40.000Z</time>
      </trkpt>
      <trkpt lat="47.45641" lon="6.91333">
        <ele>562.4</ele>
        <time>2014-09-28T09:08:41.000Z</time>
      </trkpt>
      <trkpt lat="47.4564" lon="6.91336">
        <ele>562.4</ele>
        <time>2014-09-28T09:08:42.000Z</time>
      </trkpt>
      <trkpt lat="47.45639" lon="6.91341">
        <ele>563.9</ele>
        <time>2014-09-28T09:08:43.000Z</time>
      </trkpt>
      <trkpt lat="47.45639" lon="6.91345">
        <ele>566</ele>
        <time>2014-09-28T09:08:44.000Z</time>
      </trkpt>
      <trkpt lat="47.45638" lon="6.91349">
        <ele>567.6</ele>
        <time>2014-09-28T09:08:45.000Z</time>
      </trkpt>
      <trkpt lat="47.45638" lon="6.91352">
        <ele>568.1</ele>
        <time>2014-09-28T09:08:46.000Z</time>
      </trkpt>
      <trkpt lat="47.45637" lon="6.91356">
        <ele>571.5</ele>
        <time>2014-09-28T09:08:47.000Z</time>
      </trkpt>
      <trkpt lat="47.45637" lon="6.91359">
        <ele>572.4</ele>
        <time>2014-09-28T09:08:48.000Z</time>
      </trkpt>
      <trkpt lat="47.45636" lon="6.91362">
        <ele>573.2</ele>
        <time>2014-09-28T09:08:49.000Z</time>
      </trkpt>
      <trkpt lat="47.45636" lon="6.91366">
        <ele>573.4</ele>
        <time>2014-09-28T09:08:50.000Z</time>
      </trkpt>
      <trkpt lat="47.45634" lon="6.91372">
        <ele>574.1</ele>
        <time>2014-09-28T09:08:52.000Z</time>
      </trkpt>
      <trkpt lat="47.45634" lon="6.91374">
        <ele>574</ele>
        <time>2014-09-28T09:08:53.000Z</time>
      </trkpt>
      <trkpt lat="47.45634" lon="6.91379">
        <ele>578.6</ele>
        <time>2014-09-28T09:08:55.000Z</time>
      </trkpt>
      <trkpt lat="47.45634" lon="6.91382">
        <ele>578.6</ele>
        <time>2014-09-28T09:08:56.000Z</time>
      </trkpt>
      <trkpt lat="47.45635" lon="6.91388">
        <ele>576.7</ele>
        <time>2014-09-28T09:08:58.000Z</time>
      </trkpt>
      <trkpt lat="47.45634" lon="6.91391">
        <ele>576.4</ele>
        <time>2014-09-28T09:08:59.000Z</time>
      </trkpt>
      <trkpt lat="47.45634" lon="6.91395">
        <ele>575.8</ele>
        <time>2014-09-28T09:09:00.000Z</time>
      </trkpt>
      <trkpt lat="47.45634" lon="6.91398">
        <ele>576</ele>
        <time>2014-09-28T09:09:01.000Z</time>
      </trkpt>
      <trkpt lat="47.45634" lon="6.91403">
        <ele>578.8</ele>
        <time>2014-09-28T09:09:02.000Z</time>
      </trkpt>
      <trkpt lat="47.45633" lon="6.91408">
        <ele>579.1</ele>
        <time>2014-09-28T09:09:03.000Z</time>
      </trkpt>
      <trkpt lat="47.45633" lon="6.91412">
        <ele>578.3</ele>
        <time>2014-09-28T09:09:04.000Z</time>
      </trkpt>
      <trkpt lat="47.45632" lon="6.91416">
        <ele>578.8</ele>
        <time>2014-09-28T09:09:05.000Z</time>
      </trkpt>
      <trkpt lat="47.45632" lon="6.9142">
        <ele>581.3</ele>
        <time>2014-09-28T09:09:06.000Z</time>
      </trkpt>
      <trkpt lat="47.45632" lon="6.91424">
        <ele>581.7</ele>
        <time>2014-09-28T09:09:07.000Z</time>
      </trkpt>
      <trkpt lat="47.45632" lon="6.91428">
        <ele>581.5</ele>
        <time>2014-09-28T09:09:08.000Z</time>
      </trkpt>
      <trkpt lat="47.45632" lon="6.91431">
        <ele>581.3</ele>
        <time>2014-09-28T09:09:09.000Z</time>
      </trkpt>
      <trkpt lat="47.45631" lon="6.91437">
        <ele>582.9</ele>
        <time>2014-09-28T09:09:11.000Z</time>
      </trkpt>
      <trkpt lat="47.4563" lon="6.91439">
        <ele>583.2</ele>
        <time>2014-09-28T09:09:12.000Z</time>
      </trkpt>
      <trkpt lat="47.4563" lon="6.91444">
        <ele>584.1</ele>
        <time>2014-09-28T09:09:14.000Z</time>
      </trkpt>
      <trkpt lat="47.45629" lon="6.91446">
        <ele>583.2</ele>
        <time>2014-09-28T09:09:15.000Z</time>
      </trkpt>
      <trkpt lat="47.45628" lon="6.91452">
        <ele>582</ele>
        <time>2014-09-28T09:09:18.000Z</time>
      </trkpt>
      <trkpt lat="47.45628" lon="6.91454">
        <ele>581.5</ele>
        <time>2014-09-28T09:09:19.000Z</time>
      </trkpt>
      <trkpt lat="47.45626" lon="6.91459">
        <ele>582.9</ele>
        <time>2014-09-28T09:09:21.000Z</time>
      </trkpt>
      <trkpt lat="47.45625" lon="6.91461">
        <ele>583.5</ele>
        <time>2014-09-28T09:09:22.000Z</time>
      </trkpt>
      <trkpt lat="47.45625" lon="6.91466">
        <ele>584.7</ele>
        <time>2014-09-28T09:09:24.000Z</time>
      </trkpt>
      <trkpt lat="47.45625" lon="6.91468">
        <ele>584.8</ele>
        <time>2014-09-28T09:09:25.000Z</time>
      </trkpt>
      <trkpt lat="47.45623" lon="6.91474">
        <ele>576.4</ele>
        <time>2014-09-28T09:09:28.445Z</time>
      </trkpt>
      <trkpt lat="47.45623" lon="6.91476">
        <ele>576.4</ele>
        <time>2014-09-28T09:09:31.000Z</time>
      </trkpt>
      <trkpt lat="47.45626" lon="6.9148">
        <ele>563.3</ele>
        <time>2014-09-28T09:11:48.000Z</time>
      </trkpt>
      <trkpt lat="47.45626" lon="6.91481">
        <ele>563.5</ele>
        <time>2014-09-28T09:11:49.000Z</time>
      </trkpt>
      <trkpt lat="47.45626" lon="6.91486">
        <ele>563.4</ele>
        <time>2014-09-28T09:11:52.000Z</time>
      </trkpt>
      <trkpt lat="47.45626" lon="6.91488">
        <ele>563.7</ele>
        <time>2014-09-28T09:11:53.000Z</time>
      </trkpt>
      <trkpt lat="47.45625" lon="6.91494">
        <ele>553.6</ele>
        <time>2014-09-28T09:12:54.000Z</time>
      </trkpt>
      <trkpt lat="47.45625" lon="6.91494">
        <ele>554.7</ele>
        <time>2014-09-28T09:12:55.000Z</time>
      </trkpt>
      <trkpt lat="47.45626" lon="6.915">
        <ele>546.4</ele>
        <time>2014-09-28T09:13:36.000Z</time>
      </trkpt>
      <trkpt lat="47.45626" lon="6.91501">
        <ele>546.8</ele>
        <time>2014-09-28T09:13:37.000Z</time>
      </trkpt>
      <trkpt lat="47.45628" lon="6.91505">
        <ele>545.9</ele>
        <time>2014-09-28T09:13:41.000Z</time>
      </trkpt>
      <trkpt lat="47.45629" lon="6.91508">
        <ele>545.6</ele>
        <time>2014-09-28T09:13:42.000Z</time>
      </trkpt>
      <trkpt lat="47.45627" lon="6.91513">
        <ele>547.2</ele>
        <time>2014-09-28T09:13:46.000Z</time>
      </trkpt>
      <trkpt lat="47.45626" lon="6.91514">
        <ele>547</ele>
        <time>2014-09-28T09:13:47.000Z</time>
      </trkpt>
      <trkpt lat="47.45623" lon="6.91517">
        <ele>547.2</ele>
        <time>2014-09-28T09:13:50.000Z</time>
      </trkpt>
      <trkpt lat="47.45622" lon="6.91518">
        <ele>547.4</ele>
        <time>2014-09-28T09:13:51.000Z</time>
      </trkpt>
      <trkpt lat="47.45618" lon="6.91522">
        <ele>547.4</ele>
        <time>2014-09-28T09:13:54.000Z</time>
      </trkpt>
      <trkpt lat="47.45617" lon="6.91523">
        <ele>547.7</ele>
        <time>2014-09-28T09:13:55.000Z</time>
      </trkpt>
      <trkpt lat="47.45614" lon="6.91527">
        <ele>547.9</ele>
        <time>2014-09-28T09:13:57.000Z</time>
      </trkpt>
      <trkpt lat="47.45613" lon="6.91529">
        <ele>548.5</ele>
        <time>2014-09-28T09:13:58.000Z</time>
      </trkpt>
      <trkpt lat="47.45612" lon="6.91535">
        <ele>553.6</ele>
        <time>2014-09-28T09:14:00.000Z</time>
      </trkpt>
      <trkpt lat="47.45612" lon="6.91539">
        <ele>555.3</ele>
        <time>2014-09-28T09:14:01.000Z</time>
      </trkpt>
      <trkpt lat="47.45612" lon="6.91544">
        <ele>555.4</ele>
        <time>2014-09-28T09:14:02.000Z</time>
      </trkpt>
      <trkpt lat="47.45613" lon="6.91549">
        <ele>555.2</ele>
        <time>2014-09-28T09:14:03.000Z</time>
      </trkpt>
      <trkpt lat="47.45614" lon="6.91556">
        <ele>556.4</ele>
        <time>2014-09-28T09:14:04.000Z</time>
      </trkpt>
      <trkpt lat="47.45614" lon="6.91562">
        <ele>557.5</ele>
        <time>2014-09-28T09:14:05.000Z</time>
      </trkpt>
      <trkpt lat="47.45615" lon="6.91569">
        <ele>557.6</ele>
        <time>2014-09-28T09:14:06.000Z</time>
      </trkpt>
      <trkpt lat="47.45617" lon="6.91573">
        <ele>559.2</ele>
        <time>2014-09-28T09:14:07.000Z</time>
      </trkpt>
      <trkpt lat="47.4562" lon="6.91577">
        <ele>559</ele>
        <time>2014-09-28T09:14:08.000Z</time>
      </trkpt>
      <trkpt lat="47.45622" lon="6.9158">
        <ele>560.1</ele>
        <time>2014-09-28T09:14:09.000Z</time>
      </trkpt>
      <trkpt lat="47.45625" lon="6.91581">
        <ele>557.7</ele>
        <time>2014-09-28T09:14:11.000Z</time>
      </trkpt>
      <trkpt lat="47.45626" lon="6.9158">
        <ele>555</ele>
        <time>2014-09-28T09:14:12.000Z</time>
      </trkpt>
      <trkpt lat="47.45629" lon="6.91576">
        <ele>553.8</ele>
        <time>2014-09-28T09:14:15.000Z</time>
      </trkpt>
      <trkpt lat="47.4563" lon="6.91575">
        <ele>552.9</ele>
        <time>2014-09-28T09:14:16.000Z</time>
      </trkpt>
      <trkpt lat="47.45633" lon="6.91573">
        <ele>554.8</ele>
        <time>2014-09-28T09:14:19.000Z</time>
      </trkpt>
      <trkpt lat="47.45635" lon="6.91572">
        <ele>554.6</ele>
        <time>2014-09-28T09:14:20.000Z</time>
      </trkpt>
      <trkpt lat="47.45639" lon="6.91573">
        <ele>556.3</ele>
        <time>2014-09-28T09:14:22.000Z</time>
      </trkpt>
      <trkpt lat="47.45641" lon="6.91572">
        <ele>554.4</ele>
        <time>2014-09-28T09:14:23.000Z</time>
      </trkpt>
      <trkpt lat="47.45645" lon="6.91569">
        <ele>557</ele>
        <time>2014-09-28T09:14:25.000Z</time>
      </trkpt>
      <trkpt lat="47.45646" lon="6.91566">
        <ele>557.3</ele>
        <time>2014-09-28T09:14:26.000Z</time>
      </trkpt>
      <trkpt lat="47.4565" lon="6.91559">
        <ele>549.5</ele>
        <time>2014-09-28T09:14:29.000Z</time>
      </trkpt>
      <trkpt lat="47.45652" lon="6.91556">
        <ele>551.5</ele>
        <time>2014-09-28T09:14:31.000Z</time>
      </trkpt>
      <trkpt lat="47.45653" lon="6.91554">
        <ele>553.2</ele>
        <time>2014-09-28T09:14:32.000Z</time>
      </trkpt>
      <trkpt lat="47.45655" lon="6.9155">
        <ele>551.7</ele>
        <time>2014-09-28T09:14:34.000Z</time>
      </trkpt>
      <trkpt lat="47.45656" lon="6.91549">
        <ele>553.2</ele>
        <time>2014-09-28T09:14:35.000Z</time>
      </trkpt>
      <trkpt lat="47.45658" lon="6.91545">
        <ele>553.7</ele>
        <time>2014-09-28T09:14:38.000Z</time>
      </trkpt>
      <trkpt lat="47.45659" lon="6.91543">
        <ele>554.1</ele>
        <time>2014-09-28T09:14:39.000Z</time>
      </trkpt>
      <trkpt lat="47.45663" lon="6.9154">
        <ele>553</ele>
        <time>2014-09-28T09:14:41.000Z</time>
      </trkpt>
      <trkpt lat="47.45665" lon="6.91538">
        <ele>553</ele>
        <time>2014-09-28T09:14:42.000Z</time>
      </trkpt>
      <trkpt lat="47.45667" lon="6.91536">
        <ele>551.9</ele>
        <time>2014-09-28T09:14:44.000Z</time>
      </trkpt>
      <trkpt lat="47.45669" lon="6.91535">
        <ele>551.6</ele>
        <time>2014-09-28T09:14:45.000Z</time>
      </trkpt>
      <trkpt lat="47.45672" lon="6.91533">
        <ele>555.5</ele>
        <time>2014-09-28T09:14:47.000Z</time>
      </trkpt>
      <trkpt lat="47.45674" lon="6.91532">
        <ele>555.9</ele>
        <time>2014-09-28T09:14:48.000Z</time>
      </trkpt>
      <trkpt lat="47.45677" lon="6.91531">
        <ele>555.3</ele>
        <time>2014-09-28T09:14:49.000Z</time>
      </trkpt>
      <trkpt lat="47.4568" lon="6.9153">
        <ele>556.4</ele>
        <time>2014-09-28T09:14:50.000Z</time>
      </trkpt>
      <trkpt lat="47.45683" lon="6.91528">
        <ele>557.3</ele>
        <time>2014-09-28T09:14:52.000Z</time>
      </trkpt>
      <trkpt lat="47.45685" lon="6.91527">
        <ele>557.5</ele>
        <time>2014-09-28T09:14:53.000Z</time>
      </trkpt>
      <trkpt lat="47.45689" lon="6.91526">
        <ele>557.9</ele>
        <time>2014-09-28T09:14:55.000Z</time>
      </trkpt>
      <trkpt lat="47.45691" lon="6.91526">
        <ele>557.7</ele>
        <time>2014-09-28T09:14:56.000Z</time>
      </trkpt>
      <trkpt lat="47.45694" lon="6.91525">
        <ele>559</ele>
        <time>2014-09-28T09:14:58.000Z</time>
      </trkpt>
      <trkpt lat="47.45695" lon="6.91524">
        <ele>557.1</ele>
        <time>2014-09-28T09:14:59.000Z</time>
      </trkpt>
      <trkpt lat="47.45698" lon="6.9152">
        <ele>558.7</ele>
        <time>2014-09-28T09:15:02.000Z</time>
      </trkpt>
      <trkpt lat="47.45699" lon="6.91519">
        <ele>559.3</ele>
        <time>2014-09-28T09:15:03.000Z</time>
      </trkpt>
      <trkpt lat="47.45701" lon="6.91516">
        <ele>561.1</ele>
        <time>2014-09-28T09:15:05.000Z</time>
      </trkpt>
      <trkpt lat="47.45702" lon="6.91514">
        <ele>561.4</ele>
        <time>2014-09-28T09:15:06.000Z</time>
      </trkpt>
      <trkpt lat="47.45705" lon="6.91509">
        <ele>561.2</ele>
        <time>2014-09-28T09:15:08.000Z</time>
      </trkpt>
      <trkpt lat="47.45707" lon="6.91506">
        <ele>563.9</ele>
        <time>2014-09-28T09:15:09.000Z</time>
      </trkpt>
      <trkpt lat="47.45709" lon="6.91503">
        <ele>563.5</ele>
        <time>2014-09-28T09:15:10.000Z</time>
      </trkpt>
      <trkpt lat="47.45711" lon="6.915">
        <ele>563.8</ele>
        <time>2014-09-28T09:15:11.000Z</time>
      </trkpt>
      <trkpt lat="47.45713" lon="6.91497">
        <ele>563.6</ele>
        <time>2014-09-28T09:15:12.000Z</time>
      </trkpt>
      <trkpt lat="47.45715" lon="6.91494">
        <ele>563.8</ele>
        <time>2014-09-28T09:15:13.000Z</time>
      </trkpt>
      <trkpt lat="47.45716" lon="6.91491">
        <ele>564.3</ele>
        <time>2014-09-28T09:15:14.000Z</time>
      </trkpt>
      <trkpt lat="47.45718" lon="6.91488">
        <ele>565.1</ele>
        <time>2014-09-28T09:15:15.000Z</time>
      </trkpt>
      <trkpt lat="47.4572" lon="6.91485">
        <ele>565.1</ele>
        <time>2014-09-28T09:15:16.000Z</time>
      </trkpt>
      <trkpt lat="47.45728" lon="6.91476">
        <ele>573.9</ele>
        <time>2014-09-28T09:15:17.000Z</time>
      </trkpt>
      <trkpt lat="47.4573" lon="6.91471">
        <ele>575.5</ele>
        <time>2014-09-28T09:15:18.000Z</time>
      </trkpt>
      <trkpt lat="47.45739" lon="6.91462">
        <ele>572.8</ele>
        <time>2014-09-28T09:15:19.000Z</time>
      </trkpt>
      <trkpt lat="47.45745" lon="6.91458">
        <ele>572.5</ele>
        <time>2014-09-28T09:15:20.000Z</time>
      </trkpt>
      <trkpt lat="47.4575" lon="6.91457">
        <ele>571.5</ele>
        <time>2014-09-28T09:15:21.000Z</time>
      </trkpt>
      <trkpt lat="47.45755" lon="6.91454">
        <ele>570.2</ele>
        <time>2014-09-28T09:15:22.000Z</time>
      </trkpt>
      <trkpt lat="47.45762" lon="6.91457">
        <ele>570</ele>
        <time>2014-09-28T09:15:23.000Z</time>
      </trkpt>
      <trkpt lat="47.45771" lon="6.91455">
        <ele>567.4</ele>
        <time>2014-09-28T09:15:24.000Z</time>
      </trkpt>
      <trkpt lat="47.45778" lon="6.91454">
        <ele>567</ele>
        <time>2014-09-28T09:15:25.000Z</time>
      </trkpt>
      <trkpt lat="47.45784" lon="6.91452">
        <ele>565</ele>
        <time>2014-09-28T09:15:26.000Z</time>
      </trkpt>
      <trkpt lat="47.45797" lon="6.91455">
        <ele>558.8</ele>
        <time>2014-09-28T09:15:29.000Z</time>
      </trkpt>
      <trkpt lat="47.45802" lon="6.91455">
        <ele>558.9</ele>
        <time>2014-09-28T09:15:30.000Z</time>
      </trkpt>
      <trkpt lat="47.45808" lon="6.91452">
        <ele>558.6</ele>
        <time>2014-09-28T09:15:31.000Z</time>
      </trkpt>
      <trkpt lat="47.45812" lon="6.91451">
        <ele>559.5</ele>
        <time>2014-09-28T09:15:32.000Z</time>
      </trkpt>
      <trkpt lat="47.45818" lon="6.9145">
        <ele>560.6</ele>
        <time>2014-09-28T09:15:33.000Z</time>
      </trkpt>
      <trkpt lat="47.4582" lon="6.91448">
        <ele>557.7</ele>
        <time>2014-09-28T09:15:34.000Z</time>
      </trkpt>
      <trkpt lat="47.45823" lon="6.91445">
        <ele>556.9</ele>
        <time>2014-09-28T09:15:35.000Z</time>
      </trkpt>
      <trkpt lat="47.45826" lon="6.91443">
        <ele>552.4</ele>
        <time>2014-09-28T09:15:40.000Z</time>
      </trkpt>
      <trkpt lat="47.45827" lon="6.91443">
        <ele>551.5</ele>
        <time>2014-09-28T09:15:41.000Z</time>
      </trkpt>
      <trkpt lat="47.45831" lon="6.91443">
        <ele>547.1</ele>
        <time>2014-09-28T09:15:58.000Z</time>
      </trkpt>
      <trkpt lat="47.45832" lon="6.91443">
        <ele>546.9</ele>
        <time>2014-09-28T09:15:59.000Z</time>
      </trkpt>
      <trkpt lat="47.45835" lon="6.91439">
        <ele>540.2</ele>
        <time>2014-09-28T09:16:26.000Z</time>
      </trkpt>
      <trkpt lat="47.45837" lon="6.91433">
        <ele>535.3</ele>
        <time>2014-09-28T09:16:29.000Z</time>
      </trkpt>
      <trkpt lat="47.45838" lon="6.9143">
        <ele>536.1</ele>
        <time>2014-09-28T09:16:30.000Z</time>
      </trkpt>
      <trkpt lat="47.4584" lon="6.91428">
        <ele>536.3</ele>
        <time>2014-09-28T09:16:31.000Z</time>
      </trkpt>
      <trkpt lat="47.45842" lon="6.91425">
        <ele>535.9</ele>
        <time>2014-09-28T09:16:32.000Z</time>
      </trkpt>
      <trkpt lat="47.45844" lon="6.91423">
        <ele>535.3</ele>
        <time>2014-09-28T09:16:33.000Z</time>
      </trkpt>
      <trkpt lat="47.45846" lon="6.9142">
        <ele>533.6</ele>
        <time>2014-09-28T09:16:34.000Z</time>
      </trkpt>
      <trkpt lat="47.45848" lon="6.91417">
        <ele>533.7</ele>
        <time>2014-09-28T09:16:35.000Z</time>
      </trkpt>
      <trkpt lat="47.45851" lon="6.91412">
        <ele>533.6</ele>
        <time>2014-09-28T09:16:37.000Z</time>
      </trkpt>
      <trkpt lat="47.45851" lon="6.9141">
        <ele>534</ele>
        <time>2014-09-28T09:16:38.000Z</time>
      </trkpt>
      <trkpt lat="47.45852" lon="6.91404">
        <ele>534</ele>
        <time>2014-09-28T09:16:40.000Z</time>
      </trkpt>
      <trkpt lat="47.45853" lon="6.91401">
        <ele>534.6</ele>
        <time>2014-09-28T09:16:41.000Z</time>
      </trkpt>
      <trkpt lat="47.45854" lon="6.91395">
        <ele>535</ele>
        <time>2014-09-28T09:16:43.000Z</time>
      </trkpt>
      <trkpt lat="47.45854" lon="6.91392">
        <ele>534.5</ele>
        <time>2014-09-28T09:16:44.000Z</time>
      </trkpt>
      <trkpt lat="47.45856" lon="6.91387">
        <ele>533.9</ele>
        <time>2014-09-28T09:16:46.000Z</time>
      </trkpt>
      <trkpt lat="47.45857" lon="6.91384">
        <ele>533.9</ele>
        <time>2014-09-28T09:16:47.000Z</time>
      </trkpt>
      <trkpt lat="47.45858" lon="6.91379">
        <ele>534.3</ele>
        <time>2014-09-28T09:16:50.000Z</time>
      </trkpt>
      <trkpt lat="47.45858" lon="6.91378">
        <ele>533.9</ele>
        <time>2014-09-28T09:16:51.000Z</time>
      </trkpt>
      <trkpt lat="47.45863" lon="6.91378">
        <ele>533.8</ele>
        <time>2014-09-28T09:17:16.000Z</time>
      </trkpt>
      <trkpt lat="47.45863" lon="6.91378">
        <ele>533.7</ele>
        <time>2014-09-28T09:17:17.000Z</time>
      </trkpt>
      <trkpt lat="47.45865" lon="6.91382">
        <ele>534.2</ele>
        <time>2014-09-28T09:17:21.000Z</time>
      </trkpt>
      <trkpt lat="47.45865" lon="6.91385">
        <ele>535.3</ele>
        <time>2014-09-28T09:17:22.000Z</time>
      </trkpt>
      <trkpt lat="47.45863" lon="6.91381">
        <ele>519.1</ele>
        <time>2014-09-28T09:17:39.000Z</time>
      </trkpt>
      <trkpt lat="47.45861" lon="6.91378">
        <ele>518</ele>
        <time>2014-09-28T09:17:40.000Z</time>
      </trkpt>
      <trkpt lat="47.45859" lon="6.91375">
        <ele>517.3</ele>
        <time>2014-09-28T09:17:41.000Z</time>
      </trkpt>
      <trkpt lat="47.45857" lon="6.91374">
        <ele>517.3</ele>
        <time>2014-09-28T09:17:41.999Z</time>
      </trkpt>
      <trkpt lat="47.45854" lon="6.91366">
        <ele>515.7</ele>
        <time>2014-09-28T09:17:43.000Z</time>
      </trkpt>
      <trkpt lat="47.45851" lon="6.91359">
        <ele>515.4</ele>
        <time>2014-09-28T09:17:44.000Z</time>
      </trkpt>
      <trkpt lat="47.45848" lon="6.91352">
        <ele>515.3</ele>
        <time>2014-09-28T09:17:45.000Z</time>
      </trkpt>
      <trkpt lat="47.45833" lon="6.91327">
        <ele>515.4</ele>
        <time>2014-09-28T09:17:46.000Z</time>
      </trkpt>
      <trkpt lat="47.45828" lon="6.9132">
        <ele>515.2</ele>
        <time>2014-09-28T09:17:47.000Z</time>
      </trkpt>
      <trkpt lat="47.45823" lon="6.91312">
        <ele>515.4</ele>
        <time>2014-09-28T09:17:48.000Z</time>
      </trkpt>
      <trkpt lat="47.4582" lon="6.91309">
        <ele>514.6</ele>
        <time>2014-09-28T09:17:49.000Z</time>
      </trkpt>
      <trkpt lat="47.45815" lon="6.91304">
        <ele>514.7</ele>
        <time>2014-09-28T09:17:50.000Z</time>
      </trkpt>
      <trkpt lat="47.45812" lon="6.91299">
        <ele>514.9</ele>
        <time>2014-09-28T09:17:51.000Z</time>
      </trkpt>
      <trkpt lat="47.45807" lon="6.91294">
        <ele>515.5</ele>
        <time>2014-09-28T09:17:52.000Z</time>
      </trkpt>
      <trkpt lat="47.45801" lon="6.91291">
        <ele>516.4</ele>
        <time>2014-09-28T09:17:53.000Z</time>
      </trkpt>
      <trkpt lat="47.45798" lon="6.91286">
        <ele>516.6</ele>
        <time>2014-09-28T09:17:55.000Z</time>
      </trkpt>
      <trkpt lat="47.45798" lon="6.91285">
        <ele>516.6</ele>
        <time>2014-09-28T09:17:56.000Z</time>
      </trkpt>
      <trkpt lat="47.45797" lon="6.91279">
        <ele>515.8</ele>
        <time>2014-09-28T09:17:57.000Z</time>
      </trkpt>
      <trkpt lat="47.45798" lon="6.91277">
        <ele>515.6</ele>
        <time>2014-09-28T09:17:58.000Z</time>
      </trkpt>
      <trkpt lat="47.45802" lon="6.91276">
        <ele>516.1</ele>
        <time>2014-09-28T09:18:03.000Z</time>
      </trkpt>
      <trkpt lat="47.45804" lon="6.91276">
        <ele>515.7</ele>
        <time>2014-09-28T09:18:04.000Z</time>
      </trkpt>
      <trkpt lat="47.45807" lon="6.91277">
        <ele>516</ele>
        <time>2014-09-28T09:18:05.000Z</time>
      </trkpt>
      <trkpt lat="47.45811" lon="6.91277">
        <ele>516</ele>
        <time>2014-09-28T09:18:06.000Z</time>
      </trkpt>
      <trkpt lat="47.45816" lon="6.91276">
        <ele>515.5</ele>
        <time>2014-09-28T09:18:07.000Z</time>
      </trkpt>
      <trkpt lat="47.45821" lon="6.91275">
        <ele>515.1</ele>
        <time>2014-09-28T09:18:08.000Z</time>
      </trkpt>
      <trkpt lat="47.45827" lon="6.91271">
        <ele>515.8</ele>
        <time>2014-09-28T09:18:09.000Z</time>
      </trkpt>
      <trkpt lat="47.45832" lon="6.91266">
        <ele>515.6</ele>
        <time>2014-09-28T09:18:10.000Z</time>
      </trkpt>
      <trkpt lat="47.45837" lon="6.9126">
        <ele>515.1</ele>
        <time>2014-09-28T09:18:11.000Z</time>
      </trkpt>
      <trkpt lat="47.45842" lon="6.91253">
        <ele>515.1</ele>
        <time>2014-09-28T09:18:12.000Z</time>
      </trkpt>
      <trkpt lat="47.45846" lon="6.91247">
        <ele>515.3</ele>
        <time>2014-09-28T09:18:13.000Z</time>
      </trkpt>
      <trkpt lat="47.45851" lon="6.91241">
        <ele>515.5</ele>
        <time>2014-09-28T09:18:14.000Z</time>
      </trkpt>
      <trkpt lat="47.45856" lon="6.91236">
        <ele>515.3</ele>
        <time>2014-09-28T09:18:15.000Z</time>
      </trkpt>
      <trkpt lat="47.4586" lon="6.91231">
        <ele>516.5</ele>
        <time>2014-09-28T09:18:16.000Z</time>
      </trkpt>
      <trkpt lat="47.45864" lon="6.91225">
        <ele>516.2</ele>
        <time>2014-09-28T09:18:17.000Z</time>
      </trkpt>
      <trkpt lat="47.45868" lon="6.91219">
        <ele>515.3</ele>
        <time>2014-09-28T09:18:18.000Z</time>
      </trkpt>
      <trkpt lat="47.45872" lon="6.91214">
        <ele>515.8</ele>
        <time>2014-09-28T09:18:19.000Z</time>
      </trkpt>
      <trkpt lat="47.45876" lon="6.91208">
        <ele>518.7</ele>
        <time>2014-09-28T09:18:20.000Z</time>
      </trkpt>
      <trkpt lat="47.4588" lon="6.91201">
        <ele>521.2</ele>
        <time>2014-09-28T09:18:21.000Z</time>
      </trkpt>
      <trkpt lat="47.45884" lon="6.91195">
        <ele>522.3</ele>
        <time>2014-09-28T09:18:22.000Z</time>
      </trkpt>
      <trkpt lat="47.45888" lon="6.91189">
        <ele>522.9</ele>
        <time>2014-09-28T09:18:23.000Z</time>
      </trkpt>
      <trkpt lat="47.45892" lon="6.91184">
        <ele>523.9</ele>
        <time>2014-09-28T09:18:24.000Z</time>
      </trkpt>
      <trkpt lat="47.45896" lon="6.91179">
        <ele>524.6</ele>
        <time>2014-09-28T09:18:25.000Z</time>
      </trkpt>
      <trkpt lat="47.45899" lon="6.91172">
        <ele>525</ele>
        <time>2014-09-28T09:18:26.000Z</time>
      </trkpt>
      <trkpt lat="47.45906" lon="6.91155">
        <ele>513.9</ele>
        <time>2014-09-28T09:18:29.000Z</time>
      </trkpt>
      <trkpt lat="47.45915" lon="6.91136">
        <ele>511.5</ele>
        <time>2014-09-28T09:18:30.000Z</time>
      </trkpt>
      <trkpt lat="47.45923" lon="6.91124">
        <ele>509.5</ele>
        <time>2014-09-28T09:18:31.000Z</time>
      </trkpt>
      <trkpt lat="47.45931" lon="6.91114">
        <ele>507.9</ele>
        <time>2014-09-28T09:18:32.000Z</time>
      </trkpt>
      <trkpt lat="47.4594" lon="6.91103">
        <ele>506.1</ele>
        <time>2014-09-28T09:18:33.000Z</time>
      </trkpt>
      <trkpt lat="47.45946" lon="6.9109">
        <ele>504.9</ele>
        <time>2014-09-28T09:18:34.000Z</time>
      </trkpt>
      <trkpt lat="47.45953" lon="6.9108">
        <ele>504</ele>
        <time>2014-09-28T09:18:35.000Z</time>
      </trkpt>
      <trkpt lat="47.45961" lon="6.91072">
        <ele>501.1</ele>
        <time>2014-09-28T09:18:36.000Z</time>
      </trkpt>
      <trkpt lat="47.45969" lon="6.91062">
        <ele>498.3</ele>
        <time>2014-09-28T09:18:37.000Z</time>
      </trkpt>
      <trkpt lat="47.45976" lon="6.9105">
        <ele>494.4</ele>
        <time>2014-09-28T09:18:38.000Z</time>
      </trkpt>
      <trkpt lat="47.45982" lon="6.91039">
        <ele>491.7</ele>
        <time>2014-09-28T09:18:39.000Z</time>
      </trkpt>
      <trkpt lat="47.45988" lon="6.91029">
        <ele>489.9</ele>
        <time>2014-09-28T09:18:40.000Z</time>
      </trkpt>
      <trkpt lat="47.45995" lon="6.91019">
        <ele>488</ele>
        <time>2014-09-28T09:18:41.000Z</time>
      </trkpt>
      <trkpt lat="47.46003" lon="6.9101">
        <ele>487.1</ele>
        <time>2014-09-28T09:18:42.000Z</time>
      </trkpt>
      <trkpt lat="47.46011" lon="6.91002">
        <ele>485.6</ele>
        <time>2014-09-28T09:18:43.000Z</time>
      </trkpt>
      <trkpt lat="47.46018" lon="6.90993">
        <ele>485.9</ele>
        <time>2014-09-28T09:18:44.000Z</time>
      </trkpt>
      <trkpt lat="47.46026" lon="6.90985">
        <ele>485.1</ele>
        <time>2014-09-28T09:18:45.000Z</time>
      </trkpt>
      <trkpt lat="47.46034" lon="6.90978">
        <ele>484.6</ele>
        <time>2014-09-28T09:18:46.000Z</time>
      </trkpt>
      <trkpt lat="47.46041" lon="6.90969">
        <ele>484.4</ele>
        <time>2014-09-28T09:18:47.000Z</time>
      </trkpt>
      <trkpt lat="47.46046" lon="6.90961">
        <ele>484.4</ele>
        <time>2014-09-28T09:18:48.000Z</time>
      </trkpt>
      <trkpt lat="47.4605" lon="6.90956">
        <ele>484.4</ele>
        <time>2014-09-28T09:18:49.000Z</time>
      </trkpt>
      <trkpt lat="47.46055" lon="6.90951">
        <ele>484.1</ele>
        <time>2014-09-28T09:18:50.000Z</time>
      </trkpt>
      <trkpt lat="47.46059" lon="6.90944">
        <ele>483.9</ele>
        <time>2014-09-28T09:18:51.000Z</time>
      </trkpt>
      <trkpt lat="47.46064" lon="6.90936">
        <ele>484.5</ele>
        <time>2014-09-28T09:18:52.000Z</time>
      </trkpt>
      <trkpt lat="47.46067" lon="6.9093">
        <ele>484.3</ele>
        <time>2014-09-28T09:18:53.000Z</time>
      </trkpt>
      <trkpt lat="47.46069" lon="6.90923">
        <ele>484.5</ele>
        <time>2014-09-28T09:18:54.000Z</time>
      </trkpt>
      <trkpt lat="47.46071" lon="6.90918">
        <ele>484.7</ele>
        <time>2014-09-28T09:18:55.000Z</time>
      </trkpt>
      <trkpt lat="47.46072" lon="6.90914">
        <ele>485.1</ele>
        <time>2014-09-28T09:18:56.000Z</time>
      </trkpt>
      <trkpt lat="47.46073" lon="6.90909">
        <ele>485.2</ele>
        <time>2014-09-28T09:18:57.000Z</time>
      </trkpt>
      <trkpt lat="47.46072" lon="6.90903">
        <ele>485</ele>
        <time>2014-09-28T09:18:58.000Z</time>
      </trkpt>
      <trkpt lat="47.46073" lon="6.90897">
        <ele>485.2</ele>
        <time>2014-09-28T09:18:59.000Z</time>
      </trkpt>
      <trkpt lat="47.46075" lon="6.90891">
        <ele>485.3</ele>
        <time>2014-09-28T09:19:00.000Z</time>
      </trkpt>
      <trkpt lat="47.46076" lon="6.90883">
        <ele>485.4</ele>
        <time>2014-09-28T09:19:01.000Z</time>
      </trkpt>
      <trkpt lat="47.46078" lon="6.90878">
        <ele>489.4</ele>
        <time>2014-09-28T09:19:02.000Z</time>
      </trkpt>
      <trkpt lat="47.4608" lon="6.90871">
        <ele>489.9</ele>
        <time>2014-09-28T09:19:03.000Z</time>
      </trkpt>
      <trkpt lat="47.46081" lon="6.90866">
        <ele>490.1</ele>
        <time>2014-09-28T09:19:04.000Z</time>
      </trkpt>
      <trkpt lat="47.46084" lon="6.90856">
        <ele>490</ele>
        <time>2014-09-28T09:19:05.000Z</time>
      </trkpt>
      <trkpt lat="47.46086" lon="6.90848">
        <ele>490.5</ele>
        <time>2014-09-28T09:19:06.000Z</time>
      </trkpt>
      <trkpt lat="47.46089" lon="6.90836">
        <ele>490.7</ele>
        <time>2014-09-28T09:19:07.000Z</time>
      </trkpt>
      <trkpt lat="47.46093" lon="6.90828">
        <ele>491.1</ele>
        <time>2014-09-28T09:19:08.000Z</time>
      </trkpt>
      <trkpt lat="47.46095" lon="6.90817">
        <ele>490.9</ele>
        <time>2014-09-28T09:19:09.000Z</time>
      </trkpt>
      <trkpt lat="47.46098" lon="6.90809">
        <ele>490.7</ele>
        <time>2014-09-28T09:19:10.000Z</time>
      </trkpt>
      <trkpt lat="47.46101" lon="6.90802">
        <ele>490.7</ele>
        <time>2014-09-28T09:19:11.000Z</time>
      </trkpt>
      <trkpt lat="47.46103" lon="6.90795">
        <ele>490.2</ele>
        <time>2014-09-28T09:19:12.000Z</time>
      </trkpt>
      <trkpt lat="47.46107" lon="6.90784">
        <ele>490.1</ele>
        <time>2014-09-28T09:19:13.000Z</time>
      </trkpt>
      <trkpt lat="47.46109" lon="6.90772">
        <ele>489.9</ele>
        <time>2014-09-28T09:19:14.000Z</time>
      </trkpt>
      <trkpt lat="47.46113" lon="6.90758">
        <ele>490</ele>
        <time>2014-09-28T09:19:15.000Z</time>
      </trkpt>
      <trkpt lat="47.46114" lon="6.90754">
        <ele>491</ele>
        <time>2014-09-28T09:19:16.000Z</time>
      </trkpt>
      <trkpt lat="47.46115" lon="6.90745">
        <ele>490</ele>
        <time>2014-09-28T09:19:17.000Z</time>
      </trkpt>
      <trkpt lat="47.46116" lon="6.90738">
        <ele>490.6</ele>
        <time>2014-09-28T09:19:18.000Z</time>
      </trkpt>
      <trkpt lat="47.46117" lon="6.90729">
        <ele>490.5</ele>
        <time>2014-09-28T09:19:19.000Z</time>
      </trkpt>
      <trkpt lat="47.46118" lon="6.90722">
        <ele>490.4</ele>
        <time>2014-09-28T09:19:20.000Z</time>
      </trkpt>
      <trkpt lat="47.46119" lon="6.90714">
        <ele>490.7</ele>
        <time>2014-09-28T09:19:21.000Z</time>
      </trkpt>
      <trkpt lat="47.4612" lon="6.90702">
        <ele>490.2</ele>
        <time>2014-09-28T09:19:22.000Z</time>
      </trkpt>
      <trkpt lat="47.46122" lon="6.90693">
        <ele>489.6</ele>
        <time>2014-09-28T09:19:23.000Z</time>
      </trkpt>
      <trkpt lat="47.46124" lon="6.90687">
        <ele>489.5</ele>
        <time>2014-09-28T09:19:24.000Z</time>
      </trkpt>
      <trkpt lat="47.46128" lon="6.90682">
        <ele>490.1</ele>
        <time>2014-09-28T09:19:25.000Z</time>
      </trkpt>
      <trkpt lat="47.46129" lon="6.90677">
        <ele>490.5</ele>
        <time>2014-09-28T09:19:26.000Z</time>
      </trkpt>
      <trkpt lat="47.46136" lon="6.90649">
        <ele>479.9</ele>
        <time>2014-09-28T09:19:29.000Z</time>
      </trkpt>
      <trkpt lat="47.46139" lon="6.9064">
        <ele>480.1</ele>
        <time>2014-09-28T09:19:30.000Z</time>
      </trkpt>
      <trkpt lat="47.4614" lon="6.90635">
        <ele>480.4</ele>
        <time>2014-09-28T09:19:31.000Z</time>
      </trkpt>
      <trkpt lat="47.46143" lon="6.90629">
        <ele>480.6</ele>
        <time>2014-09-28T09:19:32.000Z</time>
      </trkpt>
      <trkpt lat="47.46146" lon="6.90625">
        <ele>480.7</ele>
        <time>2014-09-28T09:19:33.000Z</time>
      </trkpt>
      <trkpt lat="47.46149" lon="6.9062">
        <ele>484.6</ele>
        <time>2014-09-28T09:19:34.000Z</time>
      </trkpt>
      <trkpt lat="47.46157" lon="6.90616">
        <ele>484.2</ele>
        <time>2014-09-28T09:19:35.000Z</time>
      </trkpt>
      <trkpt lat="47.46163" lon="6.90612">
        <ele>483.8</ele>
        <time>2014-09-28T09:19:36.000Z</time>
      </trkpt>
      <trkpt lat="47.46166" lon="6.90608">
        <ele>485.6</ele>
        <time>2014-09-28T09:19:37.000Z</time>
      </trkpt>
      <trkpt lat="47.46169" lon="6.90605">
        <ele>487.1</ele>
        <time>2014-09-28T09:19:38.000Z</time>
      </trkpt>
      <trkpt lat="47.46171" lon="6.90602">
        <ele>488.1</ele>
        <time>2014-09-28T09:19:39.000Z</time>
      </trkpt>
      <trkpt lat="47.46174" lon="6.90599">
        <ele>487.8</ele>
        <time>2014-09-28T09:19:40.000Z</time>
      </trkpt>
      <trkpt lat="47.46178" lon="6.90596">
        <ele>485</ele>
        <time>2014-09-28T09:19:41.000Z</time>
      </trkpt>
      <trkpt lat="47.46181" lon="6.90592">
        <ele>480.3</ele>
        <time>2014-09-28T09:19:42.000Z</time>
      </trkpt>
      <trkpt lat="47.46185" lon="6.90588">
        <ele>479</ele>
        <time>2014-09-28T09:19:43.000Z</time>
      </trkpt>
      <trkpt lat="47.46189" lon="6.90585">
        <ele>479.2</ele>
        <time>2014-09-28T09:19:44.000Z</time>
      </trkpt>
      <trkpt lat="47.46192" lon="6.90583">
        <ele>478.6</ele>
        <time>2014-09-28T09:19:45.000Z</time>
      </trkpt>
      <trkpt lat="47.46195" lon="6.90581">
        <ele>477.6</ele>
        <time>2014-09-28T09:19:46.000Z</time>
      </trkpt>
      <trkpt lat="47.46197" lon="6.90579">
        <ele>477.2</ele>
        <time>2014-09-28T09:19:47.000Z</time>
      </trkpt>
      <trkpt lat="47.462" lon="6.90577">
        <ele>477</ele>
        <time>2014-09-28T09:19:48.000Z</time>
      </trkpt>
      <trkpt lat="47.46203" lon="6.90576">
        <ele>476.9</ele>
        <time>2014-09-28T09:19:49.000Z</time>
      </trkpt>
      <trkpt lat="47.46205" lon="6.90574">
        <ele>476.7</ele>
        <time>2014-09-28T09:19:50.000Z</time>
      </trkpt>
      <trkpt lat="47.46208" lon="6.90573">
        <ele>476.8</ele>
        <time>2014-09-28T09:19:51.000Z</time>
      </trkpt>
      <trkpt lat="47.46212" lon="6.90572">
        <ele>477.8</ele>
        <time>2014-09-28T09:19:52.000Z</time>
      </trkpt>
      <trkpt lat="47.46218" lon="6.90572">
        <ele>476.3</ele>
        <time>2014-09-28T09:19:53.000Z</time>
      </trkpt>
      <trkpt lat="47.46224" lon="6.90573">
        <ele>475.4</ele>
        <time>2014-09-28T09:19:54.000Z</time>
      </trkpt>
      <trkpt lat="47.4623" lon="6.90576">
        <ele>475.4</ele>
        <time>2014-09-28T09:19:55.000Z</time>
      </trkpt>
      <trkpt lat="47.46234" lon="6.90579">
        <ele>475.3</ele>
        <time>2014-09-28T09:19:56.000Z</time>
      </trkpt>
      <trkpt lat="47.46237" lon="6.90583">
        <ele>476.1</ele>
        <time>2014-09-28T09:19:57.000Z</time>
      </trkpt>
      <trkpt lat="47.46239" lon="6.90586">
        <ele>476.8</ele>
        <time>2014-09-28T09:19:58.000Z</time>
      </trkpt>
      <trkpt lat="47.46241" lon="6.90589">
        <ele>476.5</ele>
        <time>2014-09-28T09:19:59.000Z</time>
      </trkpt>
      <trkpt lat="47.46242" lon="6.90592">
        <ele>476.5</ele>
        <time>2014-09-28T09:20:00.000Z</time>
      </trkpt>
      <trkpt lat="47.46244" lon="6.90595">
        <ele>477.2</ele>
        <time>2014-09-28T09:20:01.000Z</time>
      </trkpt>
      <trkpt lat="47.46244" lon="6.90599">
        <ele>476.8</ele>
        <time>2014-09-28T09:20:02.000Z</time>
      </trkpt>
      <trkpt lat="47.46245" lon="6.90605">
        <ele>476.4</ele>
        <time>2014-09-28T09:20:04.000Z</time>
      </trkpt>
      <trkpt lat="47.46245" lon="6.90608">
        <ele>476.2</ele>
        <time>2014-09-28T09:20:05.000Z</time>
      </trkpt>
      <trkpt lat="47.46245" lon="6.90611">
        <ele>475.6</ele>
        <time>2014-09-28T09:20:06.000Z</time>
      </trkpt>
      <trkpt lat="47.46244" lon="6.90615">
        <ele>476</ele>
        <time>2014-09-28T09:20:07.000Z</time>
      </trkpt>
      <trkpt lat="47.46244" lon="6.90618">
        <ele>476.3</ele>
        <time>2014-09-28T09:20:08.000Z</time>
      </trkpt>
      <trkpt lat="47.46244" lon="6.90621">
        <ele>476.4</ele>
        <time>2014-09-28T09:20:09.000Z</time>
      </trkpt>
      <trkpt lat="47.46244" lon="6.90628">
        <ele>477</ele>
        <time>2014-09-28T09:20:11.000Z</time>
      </trkpt>
      <trkpt lat="47.46246" lon="6.9063">
        <ele>476.9</ele>
        <time>2014-09-28T09:20:12.000Z</time>
      </trkpt>
      <trkpt lat="47.46248" lon="6.90633">
        <ele>477.4</ele>
        <time>2014-09-28T09:20:13.000Z</time>
      </trkpt>
      <trkpt lat="47.46251" lon="6.90634">
        <ele>477.3</ele>
        <time>2014-09-28T09:20:14.000Z</time>
      </trkpt>
      <trkpt lat="47.46254" lon="6.90635">
        <ele>477.2</ele>
        <time>2014-09-28T09:20:15.000Z</time>
      </trkpt>
      <trkpt lat="47.46256" lon="6.90637">
        <ele>476.9</ele>
        <time>2014-09-28T09:20:16.000Z</time>
      </trkpt>
      <trkpt lat="47.46259" lon="6.90639">
        <ele>477.9</ele>
        <time>2014-09-28T09:20:17.000Z</time>
      </trkpt>
      <trkpt lat="47.46262" lon="6.9064">
        <ele>478.2</ele>
        <time>2014-09-28T09:20:18.000Z</time>
      </trkpt>
      <trkpt lat="47.46264" lon="6.90642">
        <ele>478.4</ele>
        <time>2014-09-28T09:20:19.000Z</time>
      </trkpt>
      <trkpt lat="47.46267" lon="6.90644">
        <ele>478.6</ele>
        <time>2014-09-28T09:20:20.000Z</time>
      </trkpt>
      <trkpt lat="47.46271" lon="6.90646">
        <ele>479</ele>
        <time>2014-09-28T09:20:22.000Z</time>
      </trkpt>
      <trkpt lat="47.46272" lon="6.90647">
        <ele>478.9</ele>
        <time>2014-09-28T09:20:23.000Z</time>
      </trkpt>
      <trkpt lat="47.46275" lon="6.9065">
        <ele>478.9</ele>
        <time>2014-09-28T09:20:25.000Z</time>
      </trkpt>
      <trkpt lat="47.46276" lon="6.90652">
        <ele>478.9</ele>
        <time>2014-09-28T09:20:26.000Z</time>
      </trkpt>
      <trkpt lat="47.46281" lon="6.90658">
        <ele>469.9</ele>
        <time>2014-09-28T09:20:29.000Z</time>
      </trkpt>
      <trkpt lat="47.46285" lon="6.90662">
        <ele>469.4</ele>
        <time>2014-09-28T09:20:31.000Z</time>
      </trkpt>
      <trkpt lat="47.46287" lon="6.90664">
        <ele>469.1</ele>
        <time>2014-09-28T09:20:32.000Z</time>
      </trkpt>
      <trkpt lat="47.4629" lon="6.90667">
        <ele>468.7</ele>
        <time>2014-09-28T09:20:34.000Z</time>
      </trkpt>
      <trkpt lat="47.46291" lon="6.90669">
        <ele>469.2</ele>
        <time>2014-09-28T09:20:35.000Z</time>
      </trkpt>
      <trkpt lat="47.46294" lon="6.90673">
        <ele>469.9</ele>
        <time>2014-09-28T09:20:37.000Z</time>
      </trkpt>
      <trkpt lat="47.46295" lon="6.90675">
        <ele>470.3</ele>
        <time>2014-09-28T09:20:38.000Z</time>
      </trkpt>
      <trkpt lat="47.46297" lon="6.90679">
        <ele>474.8</ele>
        <time>2014-09-28T09:20:39.000Z</time>
      </trkpt>
      <trkpt lat="47.46298" lon="6.90684">
        <ele>475.8</ele>
        <time>2014-09-28T09:20:40.000Z</time>
      </trkpt>
      <trkpt lat="47.463" lon="6.90689">
        <ele>476.8</ele>
        <time>2014-09-28T09:20:41.000Z</time>
      </trkpt>
      <trkpt lat="47.46302" lon="6.90694">
        <ele>477.6</ele>
        <time>2014-09-28T09:20:42.000Z</time>
      </trkpt>
      <trkpt lat="47.46304" lon="6.90697">
        <ele>478.6</ele>
        <time>2014-09-28T09:20:43.000Z</time>
      </trkpt>
      <trkpt lat="47.46306" lon="6.907">
        <ele>479.1</ele>
        <time>2014-09-28T09:20:44.000Z</time>
      </trkpt>
      <trkpt lat="47.46309" lon="6.90703">
        <ele>479.5</ele>
        <time>2014-09-28T09:20:45.000Z</time>
      </trkpt>
      <trkpt lat="47.46311" lon="6.90705">
        <ele>479.1</ele>
        <time>2014-09-28T09:20:46.000Z</time>
      </trkpt>
      <trkpt lat="47.46314" lon="6.90707">
        <ele>479.9</ele>
        <time>2014-09-28T09:20:47.000Z</time>
      </trkpt>
      <trkpt lat="47.46317" lon="6.90709">
        <ele>480</ele>
        <time>2014-09-28T09:20:48.000Z</time>
      </trkpt>
      <trkpt lat="47.4632" lon="6.90711">
        <ele>480.4</ele>
        <time>2014-09-28T09:20:49.000Z</time>
      </trkpt>
      <trkpt lat="47.46322" lon="6.90712">
        <ele>477.8</ele>
        <time>2014-09-28T09:20:50.000Z</time>
      </trkpt>
      <trkpt lat="47.46325" lon="6.90711">
        <ele>474.2</ele>
        <time>2014-09-28T09:20:51.000Z</time>
      </trkpt>
      <trkpt lat="47.46327" lon="6.90709">
        <ele>472.4</ele>
        <time>2014-09-28T09:20:52.000Z</time>
      </trkpt>
      <trkpt lat="47.46328" lon="6.90705">
        <ele>470.8</ele>
        <time>2014-09-28T09:20:53.000Z</time>
      </trkpt>
      <trkpt lat="47.46329" lon="6.907">
        <ele>469.3</ele>
        <time>2014-09-28T09:20:54.000Z</time>
      </trkpt>
      <trkpt lat="47.46331" lon="6.90695">
        <ele>469</ele>
        <time>2014-09-28T09:20:55.000Z</time>
      </trkpt>
      <trkpt lat="47.46332" lon="6.9069">
        <ele>468.7</ele>
        <time>2014-09-28T09:20:56.000Z</time>
      </trkpt>
      <trkpt lat="47.46334" lon="6.90687">
        <ele>468.6</ele>
        <time>2014-09-28T09:20:57.000Z</time>
      </trkpt>
      <trkpt lat="47.46335" lon="6.90684">
        <ele>469.3</ele>
        <time>2014-09-28T09:20:58.000Z</time>
      </trkpt>
      <trkpt lat="47.46337" lon="6.90679">
        <ele>467.1</ele>
        <time>2014-09-28T09:21:00.000Z</time>
      </trkpt>
      <trkpt lat="47.46338" lon="6.90675">
        <ele>466.8</ele>
        <time>2014-09-28T09:21:01.000Z</time>
      </trkpt>
      <trkpt lat="47.46339" lon="6.90671">
        <ele>466.4</ele>
        <time>2014-09-28T09:21:02.000Z</time>
      </trkpt>
      <trkpt lat="47.46342" lon="6.90667">
        <ele>465.5</ele>
        <time>2014-09-28T09:21:03.000Z</time>
      </trkpt>
      <trkpt lat="47.4635" lon="6.90664">
        <ele>466</ele>
        <time>2014-09-28T09:21:04.000Z</time>
      </trkpt>
      <trkpt lat="47.46354" lon="6.90662">
        <ele>465.7</ele>
        <time>2014-09-28T09:21:05.000Z</time>
      </trkpt>
      <trkpt lat="47.46359" lon="6.9066">
        <ele>465.6</ele>
        <time>2014-09-28T09:21:06.000Z</time>
      </trkpt>
      <trkpt lat="47.46363" lon="6.90659">
        <ele>465.8</ele>
        <time>2014-09-28T09:21:07.000Z</time>
      </trkpt>
      <trkpt lat="47.46368" lon="6.90658">
        <ele>465.8</ele>
        <time>2014-09-28T09:21:08.000Z</time>
      </trkpt>
      <trkpt lat="47.46372" lon="6.90656">
        <ele>465.4</ele>
        <time>2014-09-28T09:21:09.000Z</time>
      </trkpt>
      <trkpt lat="47.46377" lon="6.90652">
        <ele>465.1</ele>
        <time>2014-09-28T09:21:10.000Z</time>
      </trkpt>
      <trkpt lat="47.46382" lon="6.90648">
        <ele>464.9</ele>
        <time>2014-09-28T09:21:11.000Z</time>
      </trkpt>
      <trkpt lat="47.46387" lon="6.90645">
        <ele>465.3</ele>
        <time>2014-09-28T09:21:12.000Z</time>
      </trkpt>
      <trkpt lat="47.46392" lon="6.90641">
        <ele>464.8</ele>
        <time>2014-09-28T09:21:13.000Z</time>
      </trkpt>
      <trkpt lat="47.46396" lon="6.90635">
        <ele>465</ele>
        <time>2014-09-28T09:21:14.000Z</time>
      </trkpt>
      <trkpt lat="47.46401" lon="6.9063">
        <ele>465.1</ele>
        <time>2014-09-28T09:21:15.000Z</time>
      </trkpt>
      <trkpt lat="47.46404" lon="6.9062">
        <ele>464.8</ele>
        <time>2014-09-28T09:21:16.000Z</time>
      </trkpt>
      <trkpt lat="47.46407" lon="6.90613">
        <ele>464.3</ele>
        <time>2014-09-28T09:21:17.000Z</time>
      </trkpt>
      <trkpt lat="47.46411" lon="6.90605">
        <ele>464.2</ele>
        <time>2014-09-28T09:21:18.000Z</time>
      </trkpt>
      <trkpt lat="47.46414" lon="6.90597">
        <ele>463.4</ele>
        <time>2014-09-28T09:21:19.000Z</time>
      </trkpt>
      <trkpt lat="47.46417" lon="6.9059">
        <ele>462.5</ele>
        <time>2014-09-28T09:21:20.000Z</time>
      </trkpt>
      <trkpt lat="47.46419" lon="6.90583">
        <ele>461.5</ele>
        <time>2014-09-28T09:21:21.000Z</time>
      </trkpt>
      <trkpt lat="47.46422" lon="6.90576">
        <ele>461.1</ele>
        <time>2014-09-28T09:21:22.000Z</time>
      </trkpt>
      <trkpt lat="47.46424" lon="6.90569">
        <ele>460.5</ele>
        <time>2014-09-28T09:21:23.000Z</time>
      </trkpt>
      <trkpt lat="47.46426" lon="6.90562">
        <ele>459.7</ele>
        <time>2014-09-28T09:21:24.000Z</time>
      </trkpt>
      <trkpt lat="47.46428" lon="6.90555">
        <ele>459.1</ele>
        <time>2014-09-28T09:21:25.000Z</time>
      </trkpt>
      <trkpt lat="47.4643" lon="6.90547">
        <ele>459.5</ele>
        <time>2014-09-28T09:21:26.000Z</time>
      </trkpt>
      <trkpt lat="47.46438" lon="6.90527">
        <ele>454.9</ele>
        <time>2014-09-28T09:21:29.000Z</time>
      </trkpt>
      <trkpt lat="47.4644" lon="6.90521">
        <ele>455.4</ele>
        <time>2014-09-28T09:21:30.000Z</time>
      </trkpt>
      <trkpt lat="47.46443" lon="6.90514">
        <ele>455.1</ele>
        <time>2014-09-28T09:21:31.000Z</time>
      </trkpt>
      <trkpt lat="47.46445" lon="6.90507">
        <ele>455.1</ele>
        <time>2014-09-28T09:21:32.000Z</time>
      </trkpt>
      <trkpt lat="47.46448" lon="6.905">
        <ele>454.5</ele>
        <time>2014-09-28T09:21:33.000Z</time>
      </trkpt>
      <trkpt lat="47.4645" lon="6.90494">
        <ele>454</ele>
        <time>2014-09-28T09:21:34.000Z</time>
      </trkpt>
      <trkpt lat="47.46452" lon="6.90487">
        <ele>453.5</ele>
        <time>2014-09-28T09:21:35.000Z</time>
      </trkpt>
      <trkpt lat="47.46454" lon="6.9048">
        <ele>453</ele>
        <time>2014-09-28T09:21:36.000Z</time>
      </trkpt>
      <trkpt lat="47.46457" lon="6.90474">
        <ele>452.9</ele>
        <time>2014-09-28T09:21:37.000Z</time>
      </trkpt>
      <trkpt lat="47.4646" lon="6.90466">
        <ele>451.8</ele>
        <time>2014-09-28T09:21:38.000Z</time>
      </trkpt>
      <trkpt lat="47.46463" lon="6.90458">
        <ele>451.5</ele>
        <time>2014-09-28T09:21:39.000Z</time>
      </trkpt>
      <trkpt lat="47.46466" lon="6.9045">
        <ele>451.3</ele>
        <time>2014-09-28T09:21:40.000Z</time>
      </trkpt>
      <trkpt lat="47.46468" lon="6.90442">
        <ele>450.7</ele>
        <time>2014-09-28T09:21:41.000Z</time>
      </trkpt>
      <trkpt lat="47.4647" lon="6.90434">
        <ele>449.9</ele>
        <time>2014-09-28T09:21:42.000Z</time>
      </trkpt>
      <trkpt lat="47.46472" lon="6.90425">
        <ele>448.3</ele>
        <time>2014-09-28T09:21:43.000Z</time>
      </trkpt>
      <trkpt lat="47.46474" lon="6.90415">
        <ele>447.9</ele>
        <time>2014-09-28T09:21:44.000Z</time>
      </trkpt>
      <trkpt lat="47.46477" lon="6.90405">
        <ele>447.2</ele>
        <time>2014-09-28T09:21:45.000Z</time>
      </trkpt>
      <trkpt lat="47.4648" lon="6.90395">
        <ele>447.3</ele>
        <time>2014-09-28T09:21:46.000Z</time>
      </trkpt>
      <trkpt lat="47.46482" lon="6.90385">
        <ele>445.5</ele>
        <time>2014-09-28T09:21:47.000Z</time>
      </trkpt>
      <trkpt lat="47.46485" lon="6.90376">
        <ele>445.3</ele>
        <time>2014-09-28T09:21:48.000Z</time>
      </trkpt>
      <trkpt lat="47.46488" lon="6.90368">
        <ele>445.5</ele>
        <time>2014-09-28T09:21:49.000Z</time>
      </trkpt>
      <trkpt lat="47.46492" lon="6.90361">
        <ele>445.7</ele>
        <time>2014-09-28T09:21:50.000Z</time>
      </trkpt>
      <trkpt lat="47.46499" lon="6.90354">
        <ele>444.4</ele>
        <time>2014-09-28T09:21:51.000Z</time>
      </trkpt>
      <trkpt lat="47.46505" lon="6.90347">
        <ele>442.9</ele>
        <time>2014-09-28T09:21:52.000Z</time>
      </trkpt>
      <trkpt lat="47.46512" lon="6.90338">
        <ele>442.8</ele>
        <time>2014-09-28T09:21:53.000Z</time>
      </trkpt>
      <trkpt lat="47.46519" lon="6.9033">
        <ele>440.4</ele>
        <time>2014-09-28T09:21:54.000Z</time>
      </trkpt>
      <trkpt lat="47.46526" lon="6.90321">
        <ele>439.4</ele>
        <time>2014-09-28T09:21:55.000Z</time>
      </trkpt>
      <trkpt lat="47.46533" lon="6.90313">
        <ele>438.2</ele>
        <time>2014-09-28T09:21:56.000Z</time>
      </trkpt>
      <trkpt lat="47.4654" lon="6.90303">
        <ele>438.1</ele>
        <time>2014-09-28T09:21:57.000Z</time>
      </trkpt>
      <trkpt lat="47.46547" lon="6.90294">
        <ele>437.7</ele>
        <time>2014-09-28T09:21:58.000Z</time>
      </trkpt>
      <trkpt lat="47.46554" lon="6.90285">
        <ele>436.2</ele>
        <time>2014-09-28T09:21:59.000Z</time>
      </trkpt>
      <trkpt lat="47.46561" lon="6.90277">
        <ele>435.8</ele>
        <time>2014-09-28T09:22:00.000Z</time>
      </trkpt>
      <trkpt lat="47.46567" lon="6.90269">
        <ele>435.5</ele>
        <time>2014-09-28T09:22:01.000Z</time>
      </trkpt>
      <trkpt lat="47.46572" lon="6.90262">
        <ele>434.4</ele>
        <time>2014-09-28T09:22:02.000Z</time>
      </trkpt>
      <trkpt lat="47.46576" lon="6.90255">
        <ele>433.3</ele>
        <time>2014-09-28T09:22:03.000Z</time>
      </trkpt>
      <trkpt lat="47.4658" lon="6.9025">
        <ele>432.8</ele>
        <time>2014-09-28T09:22:04.000Z</time>
      </trkpt>
      <trkpt lat="47.46582" lon="6.90244">
        <ele>432.3</ele>
        <time>2014-09-28T09:22:05.000Z</time>
      </trkpt>
      <trkpt lat="47.46585" lon="6.90242">
        <ele>432.6</ele>
        <time>2014-09-28T09:22:06.000Z</time>
      </trkpt>
      <trkpt lat="47.46587" lon="6.9024">
        <ele>432.6</ele>
        <time>2014-09-28T09:22:07.000Z</time>
      </trkpt>
      <trkpt lat="47.46588" lon="6.90236">
        <ele>432.4</ele>
        <time>2014-09-28T09:22:08.000Z</time>
      </trkpt>
      <trkpt lat="47.46589" lon="6.9023">
        <ele>431.9</ele>
        <time>2014-09-28T09:22:09.000Z</time>
      </trkpt>
      <trkpt lat="47.4659" lon="6.90225">
        <ele>431.6</ele>
        <time>2014-09-28T09:22:10.000Z</time>
      </trkpt>
      <trkpt lat="47.46595" lon="6.90219">
        <ele>431.6</ele>
        <time>2014-09-28T09:22:11.000Z</time>
      </trkpt>
      <trkpt lat="47.46599" lon="6.90213">
        <ele>431.2</ele>
        <time>2014-09-28T09:22:12.000Z</time>
      </trkpt>
      <trkpt lat="47.46604" lon="6.90206">
        <ele>431.2</ele>
        <time>2014-09-28T09:22:13.000Z</time>
      </trkpt>
      <trkpt lat="47.4661" lon="6.90201">
        <ele>430.4</ele>
        <time>2014-09-28T09:22:14.000Z</time>
      </trkpt>
      <trkpt lat="47.46615" lon="6.90195">
        <ele>430.3</ele>
        <time>2014-09-28T09:22:15.000Z</time>
      </trkpt>
      <trkpt lat="47.46621" lon="6.90189">
        <ele>430.3</ele>
        <time>2014-09-28T09:22:16.000Z</time>
      </trkpt>
      <trkpt lat="47.46628" lon="6.90183">
        <ele>429.7</ele>
        <time>2014-09-28T09:22:17.000Z</time>
      </trkpt>
      <trkpt lat="47.46635" lon="6.90178">
        <ele>430.1</ele>
        <time>2014-09-28T09:22:18.000Z</time>
      </trkpt>
      <trkpt lat="47.46641" lon="6.90173">
        <ele>429.9</ele>
        <time>2014-09-28T09:22:19.000Z</time>
      </trkpt>
      <trkpt lat="47.46647" lon="6.90168">
        <ele>429.5</ele>
        <time>2014-09-28T09:22:20.000Z</time>
      </trkpt>
      <trkpt lat="47.46653" lon="6.90164">
        <ele>429.4</ele>
        <time>2014-09-28T09:22:21.000Z</time>
      </trkpt>
      <trkpt lat="47.46659" lon="6.90159">
        <ele>429.9</ele>
        <time>2014-09-28T09:22:22.000Z</time>
      </trkpt>
      <trkpt lat="47.46665" lon="6.90155">
        <ele>430</ele>
        <time>2014-09-28T09:22:23.000Z</time>
      </trkpt>
      <trkpt lat="47.46671" lon="6.9015">
        <ele>429.7</ele>
        <time>2014-09-28T09:22:24.000Z</time>
      </trkpt>
      <trkpt lat="47.46676" lon="6.90146">
        <ele>429.7</ele>
        <time>2014-09-28T09:22:25.000Z</time>
      </trkpt>
      <trkpt lat="47.46682" lon="6.90143">
        <ele>429.5</ele>
        <time>2014-09-28T09:22:26.000Z</time>
      </trkpt>
      <trkpt lat="47.46696" lon="6.90134">
        <ele>423.1</ele>
        <time>2014-09-28T09:22:29.000Z</time>
      </trkpt>
      <trkpt lat="47.467" lon="6.9013">
        <ele>424.3</ele>
        <time>2014-09-28T09:22:30.000Z</time>
      </trkpt>
      <trkpt lat="47.46704" lon="6.90127">
        <ele>424.6</ele>
        <time>2014-09-28T09:22:31.000Z</time>
      </trkpt>
      <trkpt lat="47.46707" lon="6.90125">
        <ele>424.9</ele>
        <time>2014-09-28T09:22:32.000Z</time>
      </trkpt>
      <trkpt lat="47.46711" lon="6.90123">
        <ele>425.2</ele>
        <time>2014-09-28T09:22:33.000Z</time>
      </trkpt>
      <trkpt lat="47.46714" lon="6.90122">
        <ele>425</ele>
        <time>2014-09-28T09:22:34.000Z</time>
      </trkpt>
      <trkpt lat="47.46717" lon="6.9012">
        <ele>424.8</ele>
        <time>2014-09-28T09:22:35.000Z</time>
      </trkpt>
      <trkpt lat="47.4672" lon="6.90118">
        <ele>424.7</ele>
        <time>2014-09-28T09:22:36.000Z</time>
      </trkpt>
      <trkpt lat="47.46723" lon="6.90116">
        <ele>425</ele>
        <time>2014-09-28T09:22:37.000Z</time>
      </trkpt>
      <trkpt lat="47.46725" lon="6.90113">
        <ele>427.3</ele>
        <time>2014-09-28T09:22:39.000Z</time>
      </trkpt>
      <trkpt lat="47.46727" lon="6.90109">
        <ele>427.5</ele>
        <time>2014-09-28T09:22:40.000Z</time>
      </trkpt>
      <trkpt lat="47.46729" lon="6.90106">
        <ele>427.5</ele>
        <time>2014-09-28T09:22:41.000Z</time>
      </trkpt>
      <trkpt lat="47.4673" lon="6.90101">
        <ele>427.4</ele>
        <time>2014-09-28T09:22:42.000Z</time>
      </trkpt>
      <trkpt lat="47.46731" lon="6.90095">
        <ele>427.5</ele>
        <time>2014-09-28T09:22:43.000Z</time>
      </trkpt>
      <trkpt lat="47.46732" lon="6.90089">
        <ele>427.7</ele>
        <time>2014-09-28T09:22:44.000Z</time>
      </trkpt>
      <trkpt lat="47.46733" lon="6.90083">
        <ele>427.7</ele>
        <time>2014-09-28T09:22:45.000Z</time>
      </trkpt>
      <trkpt lat="47.46734" lon="6.90078">
        <ele>428.6</ele>
        <time>2014-09-28T09:22:46.000Z</time>
      </trkpt>
      <trkpt lat="47.46736" lon="6.90072">
        <ele>428.7</ele>
        <time>2014-09-28T09:22:47.000Z</time>
      </trkpt>
      <trkpt lat="47.46738" lon="6.90067">
        <ele>429.3</ele>
        <time>2014-09-28T09:22:48.000Z</time>
      </trkpt>
      <trkpt lat="47.4674" lon="6.90062">
        <ele>429.9</ele>
        <time>2014-09-28T09:22:49.000Z</time>
      </trkpt>
      <trkpt lat="47.46742" lon="6.90058">
        <ele>430.3</ele>
        <time>2014-09-28T09:22:50.000Z</time>
      </trkpt>
      <trkpt lat="47.46745" lon="6.90055">
        <ele>430.2</ele>
        <time>2014-09-28T09:22:51.000Z</time>
      </trkpt>
      <trkpt lat="47.46747" lon="6.90051">
        <ele>431.4</ele>
        <time>2014-09-28T09:22:52.000Z</time>
      </trkpt>
      <trkpt lat="47.4675" lon="6.90048">
        <ele>431.7</ele>
        <time>2014-09-28T09:22:53.000Z</time>
      </trkpt>
      <trkpt lat="47.46752" lon="6.90044">
        <ele>432</ele>
        <time>2014-09-28T09:22:54.000Z</time>
      </trkpt>
      <trkpt lat="47.46755" lon="6.90041">
        <ele>432.6</ele>
        <time>2014-09-28T09:22:55.000Z</time>
      </trkpt>
      <trkpt lat="47.46757" lon="6.90038">
        <ele>433.1</ele>
        <time>2014-09-28T09:22:56.000Z</time>
      </trkpt>
      <trkpt lat="47.4676" lon="6.90036">
        <ele>433.7</ele>
        <time>2014-09-28T09:22:57.000Z</time>
      </trkpt>
      <trkpt lat="47.46763" lon="6.90034">
        <ele>433.2</ele>
        <time>2014-09-28T09:22:58.000Z</time>
      </trkpt>
      <trkpt lat="47.46765" lon="6.90032">
        <ele>433.5</ele>
        <time>2014-09-28T09:22:59.000Z</time>
      </trkpt>
      <trkpt lat="47.46768" lon="6.9003">
        <ele>433.6</ele>
        <time>2014-09-28T09:23:00.000Z</time>
      </trkpt>
      <trkpt lat="47.4677" lon="6.90028">
        <ele>434</ele>
        <time>2014-09-28T09:23:01.000Z</time>
      </trkpt>
      <trkpt lat="47.46773" lon="6.90025">
        <ele>434.3</ele>
        <time>2014-09-28T09:23:02.000Z</time>
      </trkpt>
      <trkpt lat="47.46775" lon="6.90022">
        <ele>435</ele>
        <time>2014-09-28T09:23:03.000Z</time>
      </trkpt>
      <trkpt lat="47.46777" lon="6.9002">
        <ele>435.3</ele>
        <time>2014-09-28T09:23:04.000Z</time>
      </trkpt>
      <trkpt lat="47.46779" lon="6.90017">
        <ele>435.7</ele>
        <time>2014-09-28T09:23:05.000Z</time>
      </trkpt>
      <trkpt lat="47.46781" lon="6.90014">
        <ele>435.4</ele>
        <time>2014-09-28T09:23:06.000Z</time>
      </trkpt>
      <trkpt lat="47.46784" lon="6.9001">
        <ele>435.5</ele>
        <time>2014-09-28T09:23:07.000Z</time>
      </trkpt>
      <trkpt lat="47.46785" lon="6.90007">
        <ele>436.2</ele>
        <time>2014-09-28T09:23:08.000Z</time>
      </trkpt>
      <trkpt lat="47.46787" lon="6.90004">
        <ele>436.5</ele>
        <time>2014-09-28T09:23:09.000Z</time>
      </trkpt>
      <trkpt lat="47.46789" lon="6.90001">
        <ele>436.7</ele>
        <time>2014-09-28T09:23:10.000Z</time>
      </trkpt>
      <trkpt lat="47.4679" lon="6.89998">
        <ele>436.6</ele>
        <time>2014-09-28T09:23:11.000Z</time>
      </trkpt>
      <trkpt lat="47.46792" lon="6.89995">
        <ele>437.4</ele>
        <time>2014-09-28T09:23:12.000Z</time>
      </trkpt>
      <trkpt lat="47.46794" lon="6.89991">
        <ele>437</ele>
        <time>2014-09-28T09:23:13.000Z</time>
      </trkpt>
      <trkpt lat="47.46796" lon="6.89987">
        <ele>437.4</ele>
        <time>2014-09-28T09:23:14.000Z</time>
      </trkpt>
      <trkpt lat="47.46798" lon="6.89984">
        <ele>437.8</ele>
        <time>2014-09-28T09:23:15.000Z</time>
      </trkpt>
      <trkpt lat="47.468" lon="6.8998">
        <ele>437.5</ele>
        <time>2014-09-28T09:23:16.000Z</time>
      </trkpt>
      <trkpt lat="47.46803" lon="6.89977">
        <ele>437</ele>
        <time>2014-09-28T09:23:17.000Z</time>
      </trkpt>
      <trkpt lat="47.46806" lon="6.89973">
        <ele>437.2</ele>
        <time>2014-09-28T09:23:18.000Z</time>
      </trkpt>
      <trkpt lat="47.46809" lon="6.8997">
        <ele>437.5</ele>
        <time>2014-09-28T09:23:19.000Z</time>
      </trkpt>
      <trkpt lat="47.46812" lon="6.89966">
        <ele>438.3</ele>
        <time>2014-09-28T09:23:20.000Z</time>
      </trkpt>
      <trkpt lat="47.46814" lon="6.89963">
        <ele>438.7</ele>
        <time>2014-09-28T09:23:21.000Z</time>
      </trkpt>
      <trkpt lat="47.46817" lon="6.89959">
        <ele>438.8</ele>
        <time>2014-09-28T09:23:22.000Z</time>
      </trkpt>
      <trkpt lat="47.46819" lon="6.89955">
        <ele>439.1</ele>
        <time>2014-09-28T09:23:23.000Z</time>
      </trkpt>
      <trkpt lat="47.46821" lon="6.89951">
        <ele>439.5</ele>
        <time>2014-09-28T09:23:24.000Z</time>
      </trkpt>
      <trkpt lat="47.46824" lon="6.89948">
        <ele>440.1</ele>
        <time>2014-09-28T09:23:25.000Z</time>
      </trkpt>
      <trkpt lat="47.46826" lon="6.89944">
        <ele>440.1</ele>
        <time>2014-09-28T09:23:26.000Z</time>
      </trkpt>
      <trkpt lat="47.46833" lon="6.89933">
        <ele>436.3</ele>
        <time>2014-09-28T09:23:29.000Z</time>
      </trkpt>
      <trkpt lat="47.46836" lon="6.89929">
        <ele>436.5</ele>
        <time>2014-09-28T09:23:30.000Z</time>
      </trkpt>
      <trkpt lat="47.46839" lon="6.89925">
        <ele>436.9</ele>
        <time>2014-09-28T09:23:31.000Z</time>
      </trkpt>
      <trkpt lat="47.46842" lon="6.8992">
        <ele>437</ele>
        <time>2014-09-28T09:23:32.000Z</time>
      </trkpt>
      <trkpt lat="47.46845" lon="6.89916">
        <ele>437</ele>
        <time>2014-09-28T09:23:33.000Z</time>
      </trkpt>
      <trkpt lat="47.46848" lon="6.89911">
        <ele>437.5</ele>
        <time>2014-09-28T09:23:34.000Z</time>
      </trkpt>
      <trkpt lat="47.46851" lon="6.89906">
        <ele>437.8</ele>
        <time>2014-09-28T09:23:35.000Z</time>
      </trkpt>
      <trkpt lat="47.46853" lon="6.89902">
        <ele>438.5</ele>
        <time>2014-09-28T09:23:36.000Z</time>
      </trkpt>
      <trkpt lat="47.46856" lon="6.89898">
        <ele>439.1</ele>
        <time>2014-09-28T09:23:37.000Z</time>
      </trkpt>
      <trkpt lat="47.46858" lon="6.89894">
        <ele>438.4</ele>
        <time>2014-09-28T09:23:38.000Z</time>
      </trkpt>
      <trkpt lat="47.46861" lon="6.8989">
        <ele>438.6</ele>
        <time>2014-09-28T09:23:39.000Z</time>
      </trkpt>
      <trkpt lat="47.46863" lon="6.89887">
        <ele>439.1</ele>
        <time>2014-09-28T09:23:40.000Z</time>
      </trkpt>
      <trkpt lat="47.46866" lon="6.89883">
        <ele>438.9</ele>
        <time>2014-09-28T09:23:41.000Z</time>
      </trkpt>
      <trkpt lat="47.46868" lon="6.89879">
        <ele>439.3</ele>
        <time>2014-09-28T09:23:42.000Z</time>
      </trkpt>
      <trkpt lat="47.46871" lon="6.89875">
        <ele>439.3</ele>
        <time>2014-09-28T09:23:43.000Z</time>
      </trkpt>
      <trkpt lat="47.46873" lon="6.89872">
        <ele>439.3</ele>
        <time>2014-09-28T09:23:44.000Z</time>
      </trkpt>
      <trkpt lat="47.46875" lon="6.89869">
        <ele>439.3</ele>
        <time>2014-09-28T09:23:45.000Z</time>
      </trkpt>
      <trkpt lat="47.46877" lon="6.89867">
        <ele>439.5</ele>
        <time>2014-09-28T09:23:46.000Z</time>
      </trkpt>
      <trkpt lat="47.4688" lon="6.89866">
        <ele>439.8</ele>
        <time>2014-09-28T09:23:47.000Z</time>
      </trkpt>
      <trkpt lat="47.46882" lon="6.89864">
        <ele>439.3</ele>
        <time>2014-09-28T09:23:48.000Z</time>
      </trkpt>
      <trkpt lat="47.46883" lon="6.8986">
        <ele>439</ele>
        <time>2014-09-28T09:23:49.000Z</time>
      </trkpt>
      <trkpt lat="47.46884" lon="6.89855">
        <ele>439</ele>
        <time>2014-09-28T09:23:50.000Z</time>
      </trkpt>
      <trkpt lat="47.46885" lon="6.8985">
        <ele>439.2</ele>
        <time>2014-09-28T09:23:51.000Z</time>
      </trkpt>
      <trkpt lat="47.46886" lon="6.89844">
        <ele>439.3</ele>
        <time>2014-09-28T09:23:52.000Z</time>
      </trkpt>
      <trkpt lat="47.46886" lon="6.89838">
        <ele>438.3</ele>
        <time>2014-09-28T09:23:53.000Z</time>
      </trkpt>
      <trkpt lat="47.46886" lon="6.89833">
        <ele>438.2</ele>
        <time>2014-09-28T09:23:54.000Z</time>
      </trkpt>
      <trkpt lat="47.46886" lon="6.89828">
        <ele>439.1</ele>
        <time>2014-09-28T09:23:55.000Z</time>
      </trkpt>
      <trkpt lat="47.46886" lon="6.89824">
        <ele>439.6</ele>
        <time>2014-09-28T09:23:56.000Z</time>
      </trkpt>
      <trkpt lat="47.46885" lon="6.8982">
        <ele>440.3</ele>
        <time>2014-09-28T09:23:57.000Z</time>
      </trkpt>
      <trkpt lat="47.46885" lon="6.89816">
        <ele>439.2</ele>
        <time>2014-09-28T09:23:58.000Z</time>
      </trkpt>
      <trkpt lat="47.46885" lon="6.89811">
        <ele>438.9</ele>
        <time>2014-09-28T09:23:59.000Z</time>
      </trkpt>
      <trkpt lat="47.46885" lon="6.89805">
        <ele>438.8</ele>
        <time>2014-09-28T09:24:00.000Z</time>
      </trkpt>
      <trkpt lat="47.46885" lon="6.89798">
        <ele>438.6</ele>
        <time>2014-09-28T09:24:01.000Z</time>
      </trkpt>
      <trkpt lat="47.46886" lon="6.89788">
        <ele>438.2</ele>
        <time>2014-09-28T09:24:02.000Z</time>
      </trkpt>
      <trkpt lat="47.46886" lon="6.8978">
        <ele>438.1</ele>
        <time>2014-09-28T09:24:03.000Z</time>
      </trkpt>
      <trkpt lat="47.46886" lon="6.89773">
        <ele>438.1</ele>
        <time>2014-09-28T09:24:04.000Z</time>
      </trkpt>
      <trkpt lat="47.46886" lon="6.89766">
        <ele>437.9</ele>
        <time>2014-09-28T09:24:05.000Z</time>
      </trkpt>
      <trkpt lat="47.46886" lon="6.89758">
        <ele>438.1</ele>
        <time>2014-09-28T09:24:06.000Z</time>
      </trkpt>
      <trkpt lat="47.46886" lon="6.8975">
        <ele>437.6</ele>
        <time>2014-09-28T09:24:07.000Z</time>
      </trkpt>
      <trkpt lat="47.46885" lon="6.89743">
        <ele>437.9</ele>
        <time>2014-09-28T09:24:08.000Z</time>
      </trkpt>
      <trkpt lat="47.46885" lon="6.89734">
        <ele>437</ele>
        <time>2014-09-28T09:24:09.000Z</time>
      </trkpt>
      <trkpt lat="47.46885" lon="6.89726">
        <ele>436.8</ele>
        <time>2014-09-28T09:24:10.000Z</time>
      </trkpt>
      <trkpt lat="47.46885" lon="6.89718">
        <ele>436.5</ele>
        <time>2014-09-28T09:24:11.000Z</time>
      </trkpt>
      <trkpt lat="47.46885" lon="6.8971">
        <ele>436.4</ele>
        <time>2014-09-28T09:24:12.000Z</time>
      </trkpt>
      <trkpt lat="47.46884" lon="6.89702">
        <ele>436.1</ele>
        <time>2014-09-28T09:24:13.000Z</time>
      </trkpt>
      <trkpt lat="47.46884" lon="6.89694">
        <ele>435.8</ele>
        <time>2014-09-28T09:24:14.000Z</time>
      </trkpt>
      <trkpt lat="47.46884" lon="6.89685">
        <ele>435.2</ele>
        <time>2014-09-28T09:24:15.000Z</time>
      </trkpt>
      <trkpt lat="47.46883" lon="6.89677">
        <ele>435.4</ele>
        <time>2014-09-28T09:24:16.000Z</time>
      </trkpt>
      <trkpt lat="47.46883" lon="6.8967">
        <ele>435.5</ele>
        <time>2014-09-28T09:24:17.000Z</time>
      </trkpt>
      <trkpt lat="47.46883" lon="6.89662">
        <ele>435</ele>
        <time>2014-09-28T09:24:18.000Z</time>
      </trkpt>
      <trkpt lat="47.46882" lon="6.89655">
        <ele>435.1</ele>
        <time>2014-09-28T09:24:19.000Z</time>
      </trkpt>
      <trkpt lat="47.46882" lon="6.89647">
        <ele>434.6</ele>
        <time>2014-09-28T09:24:20.000Z</time>
      </trkpt>
      <trkpt lat="47.46881" lon="6.89639">
        <ele>434.4</ele>
        <time>2014-09-28T09:24:21.000Z</time>
      </trkpt>
      <trkpt lat="47.46881" lon="6.89631">
        <ele>433.9</ele>
        <time>2014-09-28T09:24:22.000Z</time>
      </trkpt>
      <trkpt lat="47.4688" lon="6.89624">
        <ele>433.3</ele>
        <time>2014-09-28T09:24:23.000Z</time>
      </trkpt>
      <trkpt lat="47.4688" lon="6.89617">
        <ele>433.4</ele>
        <time>2014-09-28T09:24:24.000Z</time>
      </trkpt>
      <trkpt lat="47.4688" lon="6.89611">
        <ele>433.6</ele>
        <time>2014-09-28T09:24:25.000Z</time>
      </trkpt>
      <trkpt lat="47.4688" lon="6.89603">
        <ele>433.3</ele>
        <time>2014-09-28T09:24:26.000Z</time>
      </trkpt>
      <trkpt lat="47.46879" lon="6.89582">
        <ele>430.5</ele>
        <time>2014-09-28T09:24:29.000Z</time>
      </trkpt>
      <trkpt lat="47.46878" lon="6.89573">
        <ele>430.4</ele>
        <time>2014-09-28T09:24:30.000Z</time>
      </trkpt>
      <trkpt lat="47.46878" lon="6.89565">
        <ele>430.8</ele>
        <time>2014-09-28T09:24:31.000Z</time>
      </trkpt>
      <trkpt lat="47.46878" lon="6.89557">
        <ele>430.8</ele>
        <time>2014-09-28T09:24:32.000Z</time>
      </trkpt>
      <trkpt lat="47.46877" lon="6.89549">
        <ele>430.7</ele>
        <time>2014-09-28T09:24:33.000Z</time>
      </trkpt>
      <trkpt lat="47.46877" lon="6.89542">
        <ele>430.6</ele>
        <time>2014-09-28T09:24:34.000Z</time>
      </trkpt>
      <trkpt lat="47.46876" lon="6.89533">
        <ele>430.6</ele>
        <time>2014-09-28T09:24:35.000Z</time>
      </trkpt>
      <trkpt lat="47.46876" lon="6.89526">
        <ele>430.9</ele>
        <time>2014-09-28T09:24:36.000Z</time>
      </trkpt>
      <trkpt lat="47.46876" lon="6.89512">
        <ele>429.8</ele>
        <time>2014-09-28T09:24:37.000Z</time>
      </trkpt>
      <trkpt lat="47.46875" lon="6.89508">
        <ele>430.5</ele>
        <time>2014-09-28T09:24:38.000Z</time>
      </trkpt>
      <trkpt lat="47.46875" lon="6.895">
        <ele>430.1</ele>
        <time>2014-09-28T09:24:39.000Z</time>
      </trkpt>
      <trkpt lat="47.46874" lon="6.89491">
        <ele>429.9</ele>
        <time>2014-09-28T09:24:40.000Z</time>
      </trkpt>
      <trkpt lat="47.46873" lon="6.89486">
        <ele>430.8</ele>
        <time>2014-09-28T09:24:41.000Z</time>
      </trkpt>
      <trkpt lat="47.46872" lon="6.89478">
        <ele>430.2</ele>
        <time>2014-09-28T09:24:42.000Z</time>
      </trkpt>
      <trkpt lat="47.46871" lon="6.89469">
        <ele>429.8</ele>
        <time>2014-09-28T09:24:43.000Z</time>
      </trkpt>
      <trkpt lat="47.46871" lon="6.89461">
        <ele>430.7</ele>
        <time>2014-09-28T09:24:44.000Z</time>
      </trkpt>
      <trkpt lat="47.46871" lon="6.89454">
        <ele>430.7</ele>
        <time>2014-09-28T09:24:45.000Z</time>
      </trkpt>
      <trkpt lat="47.4687" lon="6.89447">
        <ele>430.8</ele>
        <time>2014-09-28T09:24:46.000Z</time>
      </trkpt>
      <trkpt lat="47.4687" lon="6.89439">
        <ele>430.7</ele>
        <time>2014-09-28T09:24:47.000Z</time>
      </trkpt>
      <trkpt lat="47.46869" lon="6.89432">
        <ele>430.8</ele>
        <time>2014-09-28T09:24:48.000Z</time>
      </trkpt>
      <trkpt lat="47.46868" lon="6.89425">
        <ele>430.7</ele>
        <time>2014-09-28T09:24:49.000Z</time>
      </trkpt>
      <trkpt lat="47.46867" lon="6.89417">
        <ele>430.7</ele>
        <time>2014-09-28T09:24:50.000Z</time>
      </trkpt>
      <trkpt lat="47.46866" lon="6.89409">
        <ele>431</ele>
        <time>2014-09-28T09:24:51.000Z</time>
      </trkpt>
      <trkpt lat="47.46866" lon="6.89402">
        <ele>430.3</ele>
        <time>2014-09-28T09:24:52.000Z</time>
      </trkpt>
      <trkpt lat="47.46865" lon="6.89394">
        <ele>430.6</ele>
        <time>2014-09-28T09:24:53.000Z</time>
      </trkpt>
      <trkpt lat="47.46865" lon="6.89386">
        <ele>430</ele>
        <time>2014-09-28T09:24:54.000Z</time>
      </trkpt>
      <trkpt lat="47.46864" lon="6.89378">
        <ele>430</ele>
        <time>2014-09-28T09:24:55.000Z</time>
      </trkpt>
      <trkpt lat="47.46864" lon="6.89371">
        <ele>430</ele>
        <time>2014-09-28T09:24:56.000Z</time>
      </trkpt>
      <trkpt lat="47.46863" lon="6.89363">
        <ele>429.6</ele>
        <time>2014-09-28T09:24:57.000Z</time>
      </trkpt>
      <trkpt lat="47.46863" lon="6.89356">
        <ele>429.1</ele>
        <time>2014-09-28T09:24:58.000Z</time>
      </trkpt>
      <trkpt lat="47.46862" lon="6.89348">
        <ele>428.8</ele>
        <time>2014-09-28T09:24:59.000Z</time>
      </trkpt>
      <trkpt lat="47.46862" lon="6.89339">
        <ele>428.4</ele>
        <time>2014-09-28T09:25:00.000Z</time>
      </trkpt>
      <trkpt lat="47.46861" lon="6.89331">
        <ele>428.1</ele>
        <time>2014-09-28T09:25:01.000Z</time>
      </trkpt>
      <trkpt lat="47.46859" lon="6.89322">
        <ele>428.2</ele>
        <time>2014-09-28T09:25:02.000Z</time>
      </trkpt>
      <trkpt lat="47.46859" lon="6.89314">
        <ele>428.4</ele>
        <time>2014-09-28T09:25:03.000Z</time>
      </trkpt>
      <trkpt lat="47.46858" lon="6.89306">
        <ele>429</ele>
        <time>2014-09-28T09:25:04.000Z</time>
      </trkpt>
      <trkpt lat="47.46857" lon="6.89298">
        <ele>428.9</ele>
        <time>2014-09-28T09:25:05.000Z</time>
      </trkpt>
      <trkpt lat="47.46855" lon="6.89291">
        <ele>428.2</ele>
        <time>2014-09-28T09:25:06.000Z</time>
      </trkpt>
      <trkpt lat="47.46855" lon="6.89284">
        <ele>428.5</ele>
        <time>2014-09-28T09:25:07.000Z</time>
      </trkpt>
      <trkpt lat="47.46854" lon="6.89277">
        <ele>428.3</ele>
        <time>2014-09-28T09:25:08.000Z</time>
      </trkpt>
      <trkpt lat="47.46853" lon="6.89268">
        <ele>427.9</ele>
        <time>2014-09-28T09:25:09.000Z</time>
      </trkpt>
      <trkpt lat="47.46852" lon="6.8926">
        <ele>428</ele>
        <time>2014-09-28T09:25:10.000Z</time>
      </trkpt>
      <trkpt lat="47.46851" lon="6.89252">
        <ele>427.5</ele>
        <time>2014-09-28T09:25:11.000Z</time>
      </trkpt>
      <trkpt lat="47.4685" lon="6.89243">
        <ele>427.1</ele>
        <time>2014-09-28T09:25:12.000Z</time>
      </trkpt>
      <trkpt lat="47.46849" lon="6.89235">
        <ele>426.9</ele>
        <time>2014-09-28T09:25:13.000Z</time>
      </trkpt>
      <trkpt lat="47.46848" lon="6.89226">
        <ele>426.5</ele>
        <time>2014-09-28T09:25:14.000Z</time>
      </trkpt>
      <trkpt lat="47.46847" lon="6.89218">
        <ele>426.7</ele>
        <time>2014-09-28T09:25:15.000Z</time>
      </trkpt>
      <trkpt lat="47.46846" lon="6.89209">
        <ele>427</ele>
        <time>2014-09-28T09:25:16.000Z</time>
      </trkpt>
      <trkpt lat="47.46845" lon="6.89199">
        <ele>426.5</ele>
        <time>2014-09-28T09:25:17.000Z</time>
      </trkpt>
      <trkpt lat="47.46844" lon="6.8919">
        <ele>426.5</ele>
        <time>2014-09-28T09:25:18.000Z</time>
      </trkpt>
      <trkpt lat="47.46843" lon="6.8918">
        <ele>426.3</ele>
        <time>2014-09-28T09:25:19.000Z</time>
      </trkpt>
      <trkpt lat="47.46842" lon="6.89171">
        <ele>426</ele>
        <time>2014-09-28T09:25:20.000Z</time>
      </trkpt>
      <trkpt lat="47.46841" lon="6.89163">
        <ele>425.9</ele>
        <time>2014-09-28T09:25:21.000Z</time>
      </trkpt>
      <trkpt lat="47.4684" lon="6.89156">
        <ele>425.9</ele>
        <time>2014-09-28T09:25:22.000Z</time>
      </trkpt>
      <trkpt lat="47.46838" lon="6.89148">
        <ele>426.4</ele>
        <time>2014-09-28T09:25:23.000Z</time>
      </trkpt>
      <trkpt lat="47.46837" lon="6.89141">
        <ele>426.5</ele>
        <time>2014-09-28T09:25:24.000Z</time>
      </trkpt>
      <trkpt lat="47.46835" lon="6.89135">
        <ele>426.8</ele>
        <time>2014-09-28T09:25:25.000Z</time>
      </trkpt>
      <trkpt lat="47.46834" lon="6.89127">
        <ele>426.7</ele>
        <time>2014-09-28T09:25:26.000Z</time>
      </trkpt>
      <trkpt lat="47.46829" lon="6.89101">
        <ele>420.3</ele>
        <time>2014-09-28T09:25:29.000Z</time>
      </trkpt>
      <trkpt lat="47.46829" lon="6.89093">
        <ele>420.6</ele>
        <time>2014-09-28T09:25:30.000Z</time>
      </trkpt>
      <trkpt lat="47.46828" lon="6.89084">
        <ele>420.9</ele>
        <time>2014-09-28T09:25:31.000Z</time>
      </trkpt>
      <trkpt lat="47.46827" lon="6.89074">
        <ele>420.6</ele>
        <time>2014-09-28T09:25:32.000Z</time>
      </trkpt>
      <trkpt lat="47.46826" lon="6.89065">
        <ele>420.5</ele>
        <time>2014-09-28T09:25:33.000Z</time>
      </trkpt>
      <trkpt lat="47.46824" lon="6.89057">
        <ele>419.9</ele>
        <time>2014-09-28T09:25:34.000Z</time>
      </trkpt>
      <trkpt lat="47.46825" lon="6.89046">
        <ele>420.4</ele>
        <time>2014-09-28T09:25:35.000Z</time>
      </trkpt>
      <trkpt lat="47.46823" lon="6.89039">
        <ele>421.3</ele>
        <time>2014-09-28T09:25:36.000Z</time>
      </trkpt>
      <trkpt lat="47.46822" lon="6.8903">
        <ele>421.5</ele>
        <time>2014-09-28T09:25:37.000Z</time>
      </trkpt>
      <trkpt lat="47.46821" lon="6.89018">
        <ele>421</ele>
        <time>2014-09-28T09:25:38.000Z</time>
      </trkpt>
      <trkpt lat="47.4682" lon="6.89007">
        <ele>421.8</ele>
        <time>2014-09-28T09:25:39.000Z</time>
      </trkpt>
      <trkpt lat="47.46819" lon="6.88998">
        <ele>421.9</ele>
        <time>2014-09-28T09:25:40.000Z</time>
      </trkpt>
      <trkpt lat="47.46818" lon="6.88987">
        <ele>421.7</ele>
        <time>2014-09-28T09:25:41.000Z</time>
      </trkpt>
      <trkpt lat="47.46817" lon="6.88976">
        <ele>421.5</ele>
        <time>2014-09-28T09:25:42.000Z</time>
      </trkpt>
      <trkpt lat="47.46816" lon="6.88964">
        <ele>421.2</ele>
        <time>2014-09-28T09:25:43.000Z</time>
      </trkpt>
      <trkpt lat="47.46815" lon="6.88953">
        <ele>421.2</ele>
        <time>2014-09-28T09:25:44.000Z</time>
      </trkpt>
      <trkpt lat="47.46814" lon="6.88942">
        <ele>420.8</ele>
        <time>2014-09-28T09:25:45.000Z</time>
      </trkpt>
      <trkpt lat="47.46813" lon="6.8893">
        <ele>420</ele>
        <time>2014-09-28T09:25:46.000Z</time>
      </trkpt>
      <trkpt lat="47.46811" lon="6.88919">
        <ele>420</ele>
        <time>2014-09-28T09:25:47.000Z</time>
      </trkpt>
      <trkpt lat="47.4681" lon="6.88908">
        <ele>419.4</ele>
        <time>2014-09-28T09:25:48.000Z</time>
      </trkpt>
      <trkpt lat="47.46808" lon="6.88897">
        <ele>419.6</ele>
        <time>2014-09-28T09:25:49.000Z</time>
      </trkpt>
      <trkpt lat="47.46807" lon="6.88887">
        <ele>419.5</ele>
        <time>2014-09-28T09:25:49.999Z</time>
      </trkpt>
      <trkpt lat="47.46805" lon="6.88877">
        <ele>419.3</ele>
        <time>2014-09-28T09:25:51.000Z</time>
      </trkpt>
      <trkpt lat="47.46804" lon="6.88867">
        <ele>419.1</ele>
        <time>2014-09-28T09:25:52.000Z</time>
      </trkpt>
      <trkpt lat="47.46802" lon="6.88857">
        <ele>419.1</ele>
        <time>2014-09-28T09:25:53.000Z</time>
      </trkpt>
      <trkpt lat="47.46801" lon="6.88844">
        <ele>418.6</ele>
        <time>2014-09-28T09:25:54.000Z</time>
      </trkpt>
      <trkpt lat="47.468" lon="6.88834">
        <ele>418.2</ele>
        <time>2014-09-28T09:25:55.000Z</time>
      </trkpt>
      <trkpt lat="47.46798" lon="6.88829">
        <ele>418.4</ele>
        <time>2014-09-28T09:25:56.000Z</time>
      </trkpt>
      <trkpt lat="47.46796" lon="6.8882">
        <ele>418</ele>
        <time>2014-09-28T09:25:57.000Z</time>
      </trkpt>
      <trkpt lat="47.46794" lon="6.88809">
        <ele>417.3</ele>
        <time>2014-09-28T09:25:58.000Z</time>
      </trkpt>
      <trkpt lat="47.46793" lon="6.88799">
        <ele>417.1</ele>
        <time>2014-09-28T09:25:59.000Z</time>
      </trkpt>
      <trkpt lat="47.46792" lon="6.88788">
        <ele>417.1</ele>
        <time>2014-09-28T09:26:00.000Z</time>
      </trkpt>
      <trkpt lat="47.46791" lon="6.88778">
        <ele>417</ele>
        <time>2014-09-28T09:26:01.000Z</time>
      </trkpt>
      <trkpt lat="47.46791" lon="6.88768">
        <ele>416.6</ele>
        <time>2014-09-28T09:26:02.000Z</time>
      </trkpt>
      <trkpt lat="47.4679" lon="6.88758">
        <ele>416.7</ele>
        <time>2014-09-28T09:26:03.000Z</time>
      </trkpt>
      <trkpt lat="47.46791" lon="6.88747">
        <ele>415.9</ele>
        <time>2014-09-28T09:26:04.000Z</time>
      </trkpt>
      <trkpt lat="47.4679" lon="6.88736">
        <ele>415.5</ele>
        <time>2014-09-28T09:26:05.000Z</time>
      </trkpt>
      <trkpt lat="47.4679" lon="6.88726">
        <ele>415.7</ele>
        <time>2014-09-28T09:26:06.000Z</time>
      </trkpt>
      <trkpt lat="47.46789" lon="6.88717">
        <ele>415.6</ele>
        <time>2014-09-28T09:26:07.000Z</time>
      </trkpt>
      <trkpt lat="47.46788" lon="6.88706">
        <ele>415.2</ele>
        <time>2014-09-28T09:26:08.000Z</time>
      </trkpt>
      <trkpt lat="47.46788" lon="6.88696">
        <ele>415</ele>
        <time>2014-09-28T09:26:09.000Z</time>
      </trkpt>
      <trkpt lat="47.46787" lon="6.88685">
        <ele>414.7</ele>
        <time>2014-09-28T09:26:10.000Z</time>
      </trkpt>
      <trkpt lat="47.46786" lon="6.88675">
        <ele>414.5</ele>
        <time>2014-09-28T09:26:11.000Z</time>
      </trkpt>
      <trkpt lat="47.46785" lon="6.88665">
        <ele>414.8</ele>
        <time>2014-09-28T09:26:12.000Z</time>
      </trkpt>
      <trkpt lat="47.46784" lon="6.88655">
        <ele>414.7</ele>
        <time>2014-09-28T09:26:13.000Z</time>
      </trkpt>
      <trkpt lat="47.46784" lon="6.88645">
        <ele>414.6</ele>
        <time>2014-09-28T09:26:14.000Z</time>
      </trkpt>
      <trkpt lat="47.46784" lon="6.88634">
        <ele>414.5</ele>
        <time>2014-09-28T09:26:15.000Z</time>
      </trkpt>
      <trkpt lat="47.46783" lon="6.88625">
        <ele>414.3</ele>
        <time>2014-09-28T09:26:16.000Z</time>
      </trkpt>
      <trkpt lat="47.46783" lon="6.88615">
        <ele>414.2</ele>
        <time>2014-09-28T09:26:17.000Z</time>
      </trkpt>
      <trkpt lat="47.46783" lon="6.88605">
        <ele>414</ele>
        <time>2014-09-28T09:26:18.000Z</time>
      </trkpt>
      <trkpt lat="47.46782" lon="6.88596">
        <ele>414.2</ele>
        <time>2014-09-28T09:26:19.000Z</time>
      </trkpt>
      <trkpt lat="47.46782" lon="6.88586">
        <ele>414.2</ele>
        <time>2014-09-28T09:26:20.000Z</time>
      </trkpt>
      <trkpt lat="47.46783" lon="6.88576">
        <ele>414.6</ele>
        <time>2014-09-28T09:26:21.000Z</time>
      </trkpt>
      <trkpt lat="47.46783" lon="6.88567">
        <ele>414.2</ele>
        <time>2014-09-28T09:26:22.000Z</time>
      </trkpt>
      <trkpt lat="47.46784" lon="6.88558">
        <ele>413.7</ele>
        <time>2014-09-28T09:26:23.000Z</time>
      </trkpt>
      <trkpt lat="47.46784" lon="6.88549">
        <ele>413.9</ele>
        <time>2014-09-28T09:26:24.000Z</time>
      </trkpt>
      <trkpt lat="47.46785" lon="6.88539">
        <ele>412.9</ele>
        <time>2014-09-28T09:26:25.000Z</time>
      </trkpt>
      <trkpt lat="47.46786" lon="6.8853">
        <ele>412.7</ele>
        <time>2014-09-28T09:26:26.000Z</time>
      </trkpt>
      <trkpt lat="47.46785" lon="6.88502">
        <ele>410.2</ele>
        <time>2014-09-28T09:26:29.000Z</time>
      </trkpt>
      <trkpt lat="47.46785" lon="6.88493">
        <ele>410.4</ele>
        <time>2014-09-28T09:26:30.000Z</time>
      </trkpt>
      <trkpt lat="47.46785" lon="6.88483">
        <ele>411.4</ele>
        <time>2014-09-28T09:26:31.000Z</time>
      </trkpt>
      <trkpt lat="47.46786" lon="6.88475">
        <ele>411.5</ele>
        <time>2014-09-28T09:26:32.000Z</time>
      </trkpt>
      <trkpt lat="47.46787" lon="6.88467">
        <ele>412.5</ele>
        <time>2014-09-28T09:26:33.000Z</time>
      </trkpt>
      <trkpt lat="47.46787" lon="6.88459">
        <ele>412.5</ele>
        <time>2014-09-28T09:26:34.000Z</time>
      </trkpt>
      <trkpt lat="47.46787" lon="6.8845">
        <ele>413</ele>
        <time>2014-09-28T09:26:35.000Z</time>
      </trkpt>
      <trkpt lat="47.46788" lon="6.88443">
        <ele>414</ele>
        <time>2014-09-28T09:26:36.000Z</time>
      </trkpt>
      <trkpt lat="47.46788" lon="6.88435">
        <ele>414.1</ele>
        <time>2014-09-28T09:26:37.000Z</time>
      </trkpt>
      <trkpt lat="47.46788" lon="6.88427">
        <ele>414.1</ele>
        <time>2014-09-28T09:26:38.000Z</time>
      </trkpt>
      <trkpt lat="47.46789" lon="6.88419">
        <ele>414.7</ele>
        <time>2014-09-28T09:26:39.000Z</time>
      </trkpt>
      <trkpt lat="47.4679" lon="6.88411">
        <ele>414.9</ele>
        <time>2014-09-28T09:26:40.000Z</time>
      </trkpt>
      <trkpt lat="47.46791" lon="6.88404">
        <ele>415.3</ele>
        <time>2014-09-28T09:26:41.000Z</time>
      </trkpt>
      <trkpt lat="47.46791" lon="6.88396">
        <ele>415</ele>
        <time>2014-09-28T09:26:42.000Z</time>
      </trkpt>
      <trkpt lat="47.46791" lon="6.88389">
        <ele>414.8</ele>
        <time>2014-09-28T09:26:43.000Z</time>
      </trkpt>
      <trkpt lat="47.46792" lon="6.88382">
        <ele>414.5</ele>
        <time>2014-09-28T09:26:44.000Z</time>
      </trkpt>
      <trkpt lat="47.46792" lon="6.88373">
        <ele>414</ele>
        <time>2014-09-28T09:26:45.000Z</time>
      </trkpt>
      <trkpt lat="47.46792" lon="6.88366">
        <ele>414.6</ele>
        <time>2014-09-28T09:26:46.000Z</time>
      </trkpt>
      <trkpt lat="47.46792" lon="6.88359">
        <ele>415</ele>
        <time>2014-09-28T09:26:47.000Z</time>
      </trkpt>
      <trkpt lat="47.46792" lon="6.88353">
        <ele>415.6</ele>
        <time>2014-09-28T09:26:48.000Z</time>
      </trkpt>
      <trkpt lat="47.46793" lon="6.88346">
        <ele>415.5</ele>
        <time>2014-09-28T09:26:49.000Z</time>
      </trkpt>
      <trkpt lat="47.46793" lon="6.8834">
        <ele>415.3</ele>
        <time>2014-09-28T09:26:50.000Z</time>
      </trkpt>
      <trkpt lat="47.46793" lon="6.88334">
        <ele>415.8</ele>
        <time>2014-09-28T09:26:51.000Z</time>
      </trkpt>
      <trkpt lat="47.46793" lon="6.88329">
        <ele>415.8</ele>
        <time>2014-09-28T09:26:52.000Z</time>
      </trkpt>
      <trkpt lat="47.46793" lon="6.88324">
        <ele>416</ele>
        <time>2014-09-28T09:26:53.000Z</time>
      </trkpt>
      <trkpt lat="47.46794" lon="6.88318">
        <ele>415.7</ele>
        <time>2014-09-28T09:26:54.000Z</time>
      </trkpt>
      <trkpt lat="47.46794" lon="6.88312">
        <ele>415.7</ele>
        <time>2014-09-28T09:26:55.000Z</time>
      </trkpt>
      <trkpt lat="47.46795" lon="6.88306">
        <ele>415.6</ele>
        <time>2014-09-28T09:26:56.000Z</time>
      </trkpt>
      <trkpt lat="47.46795" lon="6.88299">
        <ele>415.2</ele>
        <time>2014-09-28T09:26:57.000Z</time>
      </trkpt>
      <trkpt lat="47.46796" lon="6.88293">
        <ele>415.2</ele>
        <time>2014-09-28T09:26:58.000Z</time>
      </trkpt>
      <trkpt lat="47.46796" lon="6.88287">
        <ele>415.4</ele>
        <time>2014-09-28T09:26:59.000Z</time>
      </trkpt>
      <trkpt lat="47.46796" lon="6.8828">
        <ele>415.2</ele>
        <time>2014-09-28T09:27:00.000Z</time>
      </trkpt>
      <trkpt lat="47.46797" lon="6.88274">
        <ele>415.2</ele>
        <time>2014-09-28T09:27:01.000Z</time>
      </trkpt>
      <trkpt lat="47.46797" lon="6.88268">
        <ele>415.3</ele>
        <time>2014-09-28T09:27:02.000Z</time>
      </trkpt>
      <trkpt lat="47.46798" lon="6.88261">
        <ele>415.1</ele>
        <time>2014-09-28T09:27:03.000Z</time>
      </trkpt>
      <trkpt lat="47.46798" lon="6.88254">
        <ele>415</ele>
        <time>2014-09-28T09:27:04.000Z</time>
      </trkpt>
      <trkpt lat="47.46798" lon="6.88247">
        <ele>415.5</ele>
        <time>2014-09-28T09:27:05.000Z</time>
      </trkpt>
      <trkpt lat="47.46799" lon="6.8824">
        <ele>415.4</ele>
        <time>2014-09-28T09:27:06.000Z</time>
      </trkpt>
      <trkpt lat="47.468" lon="6.88233">
        <ele>415.4</ele>
        <time>2014-09-28T09:27:07.000Z</time>
      </trkpt>
      <trkpt lat="47.468" lon="6.88226">
        <ele>415.3</ele>
        <time>2014-09-28T09:27:08.000Z</time>
      </trkpt>
      <trkpt lat="47.46801" lon="6.88219">
        <ele>415.4</ele>
        <time>2014-09-28T09:27:09.000Z</time>
      </trkpt>
      <trkpt lat="47.46802" lon="6.88213">
        <ele>415.7</ele>
        <time>2014-09-28T09:27:10.000Z</time>
      </trkpt>
      <trkpt lat="47.46803" lon="6.88206">
        <ele>415.9</ele>
        <time>2014-09-28T09:27:11.000Z</time>
      </trkpt>
      <trkpt lat="47.46804" lon="6.882">
        <ele>416.6</ele>
        <time>2014-09-28T09:27:12.000Z</time>
      </trkpt>
      <trkpt lat="47.46805" lon="6.88194">
        <ele>416.6</ele>
        <time>2014-09-28T09:27:13.000Z</time>
      </trkpt>
      <trkpt lat="47.46806" lon="6.88188">
        <ele>416.2</ele>
        <time>2014-09-28T09:27:14.000Z</time>
      </trkpt>
      <trkpt lat="47.46807" lon="6.88183">
        <ele>416.6</ele>
        <time>2014-09-28T09:27:15.000Z</time>
      </trkpt>
      <trkpt lat="47.46808" lon="6.88178">
        <ele>417.6</ele>
        <time>2014-09-28T09:27:16.000Z</time>
      </trkpt>
      <trkpt lat="47.46809" lon="6.88173">
        <ele>417.6</ele>
        <time>2014-09-28T09:27:17.000Z</time>
      </trkpt>
      <trkpt lat="47.4681" lon="6.88168">
        <ele>417.9</ele>
        <time>2014-09-28T09:27:18.000Z</time>
      </trkpt>
      <trkpt lat="47.46811" lon="6.88163">
        <ele>417.8</ele>
        <time>2014-09-28T09:27:19.000Z</time>
      </trkpt>
      <trkpt lat="47.46812" lon="6.88158">
        <ele>418.1</ele>
        <time>2014-09-28T09:27:20.000Z</time>
      </trkpt>
      <trkpt lat="47.46814" lon="6.88153">
        <ele>418.2</ele>
        <time>2014-09-28T09:27:21.000Z</time>
      </trkpt>
      <trkpt lat="47.46815" lon="6.88148">
        <ele>418.6</ele>
        <time>2014-09-28T09:27:22.000Z</time>
      </trkpt>
      <trkpt lat="47.46816" lon="6.88143">
        <ele>418.7</ele>
        <time>2014-09-28T09:27:23.000Z</time>
      </trkpt>
      <trkpt lat="47.46817" lon="6.88138">
        <ele>419.2</ele>
        <time>2014-09-28T09:27:24.000Z</time>
      </trkpt>
      <trkpt lat="47.46818" lon="6.88133">
        <ele>419.6</ele>
        <time>2014-09-28T09:27:25.000Z</time>
      </trkpt>
      <trkpt lat="47.46819" lon="6.88128">
        <ele>419.8</ele>
        <time>2014-09-28T09:27:26.000Z</time>
      </trkpt>
      <trkpt lat="47.46822" lon="6.88116">
        <ele>419.8</ele>
        <time>2014-09-28T09:27:29.000Z</time>
      </trkpt>
      <trkpt lat="47.46823" lon="6.88112">
        <ele>419.5</ele>
        <time>2014-09-28T09:27:30.000Z</time>
      </trkpt>
      <trkpt lat="47.46824" lon="6.88108">
        <ele>419.4</ele>
        <time>2014-09-28T09:27:31.000Z</time>
      </trkpt>
      <trkpt lat="47.46825" lon="6.88104">
        <ele>419.4</ele>
        <time>2014-09-28T09:27:32.000Z</time>
      </trkpt>
      <trkpt lat="47.46826" lon="6.881">
        <ele>419.5</ele>
        <time>2014-09-28T09:27:33.000Z</time>
      </trkpt>
      <trkpt lat="47.46827" lon="6.88095">
        <ele>419.8</ele>
        <time>2014-09-28T09:27:34.000Z</time>
      </trkpt>
      <trkpt lat="47.46827" lon="6.88091">
        <ele>419.6</ele>
        <time>2014-09-28T09:27:35.000Z</time>
      </trkpt>
      <trkpt lat="47.46828" lon="6.88087">
        <ele>419.5</ele>
        <time>2014-09-28T09:27:36.000Z</time>
      </trkpt>
      <trkpt lat="47.46829" lon="6.88083">
        <ele>420</ele>
        <time>2014-09-28T09:27:37.000Z</time>
      </trkpt>
      <trkpt lat="47.46829" lon="6.88079">
        <ele>419.9</ele>
        <time>2014-09-28T09:27:38.000Z</time>
      </trkpt>
      <trkpt lat="47.4683" lon="6.88075">
        <ele>420</ele>
        <time>2014-09-28T09:27:39.000Z</time>
      </trkpt>
      <trkpt lat="47.4683" lon="6.88071">
        <ele>419.8</ele>
        <time>2014-09-28T09:27:40.000Z</time>
      </trkpt>
      <trkpt lat="47.46831" lon="6.88067">
        <ele>419.9</ele>
        <time>2014-09-28T09:27:41.000Z</time>
      </trkpt>
      <trkpt lat="47.46831" lon="6.88063">
        <ele>419.8</ele>
        <time>2014-09-28T09:27:42.000Z</time>
      </trkpt>
      <trkpt lat="47.46832" lon="6.88058">
        <ele>420</ele>
        <time>2014-09-28T09:27:43.000Z</time>
      </trkpt>
      <trkpt lat="47.46833" lon="6.88054">
        <ele>420.2</ele>
        <time>2014-09-28T09:27:44.000Z</time>
      </trkpt>
      <trkpt lat="47.46833" lon="6.88049">
        <ele>420.2</ele>
        <time>2014-09-28T09:27:45.000Z</time>
      </trkpt>
      <trkpt lat="47.46834" lon="6.88044">
        <ele>420.4</ele>
        <time>2014-09-28T09:27:46.000Z</time>
      </trkpt>
      <trkpt lat="47.46834" lon="6.88039">
        <ele>420.4</ele>
        <time>2014-09-28T09:27:47.000Z</time>
      </trkpt>
      <trkpt lat="47.46834" lon="6.88035">
        <ele>420.5</ele>
        <time>2014-09-28T09:27:48.000Z</time>
      </trkpt>
      <trkpt lat="47.46835" lon="6.8803">
        <ele>420.4</ele>
        <time>2014-09-28T09:27:49.000Z</time>
      </trkpt>
      <trkpt lat="47.46835" lon="6.88025">
        <ele>420.3</ele>
        <time>2014-09-28T09:27:50.000Z</time>
      </trkpt>
      <trkpt lat="47.46835" lon="6.8802">
        <ele>420.3</ele>
        <time>2014-09-28T09:27:51.000Z</time>
      </trkpt>
      <trkpt lat="47.46835" lon="6.88016">
        <ele>419.8</ele>
        <time>2014-09-28T09:27:52.000Z</time>
      </trkpt>
      <trkpt lat="47.46835" lon="6.88011">
        <ele>419.8</ele>
        <time>2014-09-28T09:27:53.000Z</time>
      </trkpt>
      <trkpt lat="47.46835" lon="6.88007">
        <ele>419.6</ele>
        <time>2014-09-28T09:27:54.000Z</time>
      </trkpt>
      <trkpt lat="47.46835" lon="6.88002">
        <ele>419.8</ele>
        <time>2014-09-28T09:27:55.000Z</time>
      </trkpt>
      <trkpt lat="47.46835" lon="6.87998">
        <ele>419.8</ele>
        <time>2014-09-28T09:27:56.000Z</time>
      </trkpt>
      <trkpt lat="47.46835" lon="6.87993">
        <ele>419.6</ele>
        <time>2014-09-28T09:27:57.000Z</time>
      </trkpt>
      <trkpt lat="47.46835" lon="6.87988">
        <ele>419.7</ele>
        <time>2014-09-28T09:27:58.000Z</time>
      </trkpt>
      <trkpt lat="47.46835" lon="6.87984">
        <ele>419.7</ele>
        <time>2014-09-28T09:27:59.000Z</time>
      </trkpt>
      <trkpt lat="47.46834" lon="6.87979">
        <ele>419.9</ele>
        <time>2014-09-28T09:28:00.000Z</time>
      </trkpt>
      <trkpt lat="47.46834" lon="6.87974">
        <ele>419.7</ele>
        <time>2014-09-28T09:28:01.000Z</time>
      </trkpt>
      <trkpt lat="47.46834" lon="6.87969">
        <ele>419.9</ele>
        <time>2014-09-28T09:28:02.000Z</time>
      </trkpt>
      <trkpt lat="47.46834" lon="6.87964">
        <ele>420</ele>
        <time>2014-09-28T09:28:03.000Z</time>
      </trkpt>
      <trkpt lat="47.46834" lon="6.87959">
        <ele>420</ele>
        <time>2014-09-28T09:28:04.000Z</time>
      </trkpt>
      <trkpt lat="47.46834" lon="6.87954">
        <ele>420.1</ele>
        <time>2014-09-28T09:28:05.000Z</time>
      </trkpt>
      <trkpt lat="47.46834" lon="6.87948">
        <ele>420.1</ele>
        <time>2014-09-28T09:28:06.000Z</time>
      </trkpt>
      <trkpt lat="47.46834" lon="6.87943">
        <ele>420.2</ele>
        <time>2014-09-28T09:28:07.000Z</time>
      </trkpt>
      <trkpt lat="47.46834" lon="6.87938">
        <ele>420.1</ele>
        <time>2014-09-28T09:28:08.000Z</time>
      </trkpt>
      <trkpt lat="47.46834" lon="6.87933">
        <ele>420.3</ele>
        <time>2014-09-28T09:28:09.000Z</time>
      </trkpt>
      <trkpt lat="47.46834" lon="6.87927">
        <ele>420.6</ele>
        <time>2014-09-28T09:28:10.000Z</time>
      </trkpt>
      <trkpt lat="47.46834" lon="6.87922">
        <ele>420.6</ele>
        <time>2014-09-28T09:28:11.000Z</time>
      </trkpt>
      <trkpt lat="47.46834" lon="6.87917">
        <ele>420.2</ele>
        <time>2014-09-28T09:28:12.000Z</time>
      </trkpt>
      <trkpt lat="47.46835" lon="6.87912">
        <ele>420.2</ele>
        <time>2014-09-28T09:28:13.000Z</time>
      </trkpt>
      <trkpt lat="47.46835" lon="6.87907">
        <ele>420.2</ele>
        <time>2014-09-28T09:28:14.000Z</time>
      </trkpt>
      <trkpt lat="47.46835" lon="6.87902">
        <ele>420.5</ele>
        <time>2014-09-28T09:28:15.000Z</time>
      </trkpt>
      <trkpt lat="47.46835" lon="6.87897">
        <ele>420.4</ele>
        <time>2014-09-28T09:28:16.000Z</time>
      </trkpt>
      <trkpt lat="47.46835" lon="6.87892">
        <ele>420.6</ele>
        <time>2014-09-28T09:28:17.000Z</time>
      </trkpt>
      <trkpt lat="47.46836" lon="6.87888">
        <ele>420.9</ele>
        <time>2014-09-28T09:28:18.000Z</time>
      </trkpt>
      <trkpt lat="47.46836" lon="6.87883">
        <ele>420.7</ele>
        <time>2014-09-28T09:28:19.000Z</time>
      </trkpt>
      <trkpt lat="47.46836" lon="6.87879">
        <ele>420.9</ele>
        <time>2014-09-28T09:28:20.000Z</time>
      </trkpt>
      <trkpt lat="47.46836" lon="6.87875">
        <ele>420.8</ele>
        <time>2014-09-28T09:28:21.000Z</time>
      </trkpt>
      <trkpt lat="47.46836" lon="6.87871">
        <ele>420.9</ele>
        <time>2014-09-28T09:28:22.000Z</time>
      </trkpt>
      <trkpt lat="47.46836" lon="6.87867">
        <ele>421</ele>
        <time>2014-09-28T09:28:23.000Z</time>
      </trkpt>
      <trkpt lat="47.46836" lon="6.87862">
        <ele>421</ele>
        <time>2014-09-28T09:28:24.000Z</time>
      </trkpt>
      <trkpt lat="47.46836" lon="6.87857">
        <ele>421.2</ele>
        <time>2014-09-28T09:28:25.000Z</time>
      </trkpt>
      <trkpt lat="47.46836" lon="6.87852">
        <ele>421</ele>
        <time>2014-09-28T09:28:26.000Z</time>
      </trkpt>
      <trkpt lat="47.46837" lon="6.87836">
        <ele>421</ele>
        <time>2014-09-28T09:28:29.000Z</time>
      </trkpt>
      <trkpt lat="47.46837" lon="6.8783">
        <ele>421</ele>
        <time>2014-09-28T09:28:30.000Z</time>
      </trkpt>
      <trkpt lat="47.46837" lon="6.87825">
        <ele>421.1</ele>
        <time>2014-09-28T09:28:31.000Z</time>
      </trkpt>
      <trkpt lat="47.46838" lon="6.87819">
        <ele>421.3</ele>
        <time>2014-09-28T09:28:32.000Z</time>
      </trkpt>
      <trkpt lat="47.46838" lon="6.87814">
        <ele>421.3</ele>
        <time>2014-09-28T09:28:33.000Z</time>
      </trkpt>
      <trkpt lat="47.46838" lon="6.87808">
        <ele>421.5</ele>
        <time>2014-09-28T09:28:34.000Z</time>
      </trkpt>
      <trkpt lat="47.46839" lon="6.87803">
        <ele>421.4</ele>
        <time>2014-09-28T09:28:35.000Z</time>
      </trkpt>
      <trkpt lat="47.46839" lon="6.87797">
        <ele>421.5</ele>
        <time>2014-09-28T09:28:36.000Z</time>
      </trkpt>
      <trkpt lat="47.46839" lon="6.87792">
        <ele>421.5</ele>
        <time>2014-09-28T09:28:37.000Z</time>
      </trkpt>
      <trkpt lat="47.46839" lon="6.87786">
        <ele>421.6</ele>
        <time>2014-09-28T09:28:38.000Z</time>
      </trkpt>
      <trkpt lat="47.46839" lon="6.87781">
        <ele>422</ele>
        <time>2014-09-28T09:28:39.000Z</time>
      </trkpt>
      <trkpt lat="47.4684" lon="6.87775">
        <ele>422</ele>
        <time>2014-09-28T09:28:40.000Z</time>
      </trkpt>
      <trkpt lat="47.4684" lon="6.8777">
        <ele>422.1</ele>
        <time>2014-09-28T09:28:41.000Z</time>
      </trkpt>
      <trkpt lat="47.4684" lon="6.87764">
        <ele>422.1</ele>
        <time>2014-09-28T09:28:42.000Z</time>
      </trkpt>
      <trkpt lat="47.4684" lon="6.87759">
        <ele>421.9</ele>
        <time>2014-09-28T09:28:43.000Z</time>
      </trkpt>
      <trkpt lat="47.46841" lon="6.87754">
        <ele>421.9</ele>
        <time>2014-09-28T09:28:44.000Z</time>
      </trkpt>
      <trkpt lat="47.46841" lon="6.87749">
        <ele>422.1</ele>
        <time>2014-09-28T09:28:45.000Z</time>
      </trkpt>
      <trkpt lat="47.46841" lon="6.87743">
        <ele>421.7</ele>
        <time>2014-09-28T09:28:46.000Z</time>
      </trkpt>
      <trkpt lat="47.46841" lon="6.87737">
        <ele>421.8</ele>
        <time>2014-09-28T09:28:47.000Z</time>
      </trkpt>
      <trkpt lat="47.46841" lon="6.87731">
        <ele>421.9</ele>
        <time>2014-09-28T09:28:48.000Z</time>
      </trkpt>
      <trkpt lat="47.4684" lon="6.87725">
        <ele>421.8</ele>
        <time>2014-09-28T09:28:49.000Z</time>
      </trkpt>
      <trkpt lat="47.46839" lon="6.87719">
        <ele>421.8</ele>
        <time>2014-09-28T09:28:50.000Z</time>
      </trkpt>
      <trkpt lat="47.46839" lon="6.87713">
        <ele>421.9</ele>
        <time>2014-09-28T09:28:51.000Z</time>
      </trkpt>
      <trkpt lat="47.46839" lon="6.87707">
        <ele>421.8</ele>
        <time>2014-09-28T09:28:52.000Z</time>
      </trkpt>
      <trkpt lat="47.46838" lon="6.87701">
        <ele>422</ele>
        <time>2014-09-28T09:28:53.000Z</time>
      </trkpt>
      <trkpt lat="47.46838" lon="6.87695">
        <ele>422.1</ele>
        <time>2014-09-28T09:28:54.000Z</time>
      </trkpt>
      <trkpt lat="47.46837" lon="6.8769">
        <ele>422.7</ele>
        <time>2014-09-28T09:28:55.000Z</time>
      </trkpt>
      <trkpt lat="47.46836" lon="6.87684">
        <ele>422.8</ele>
        <time>2014-09-28T09:28:56.000Z</time>
      </trkpt>
      <trkpt lat="47.46835" lon="6.87679">
        <ele>422.7</ele>
        <time>2014-09-28T09:28:57.000Z</time>
      </trkpt>
      <trkpt lat="47.46835" lon="6.87673">
        <ele>422.8</ele>
        <time>2014-09-28T09:28:58.000Z</time>
      </trkpt>
      <trkpt lat="47.46834" lon="6.87667">
        <ele>422.9</ele>
        <time>2014-09-28T09:28:58.999Z</time>
      </trkpt>
      <trkpt lat="47.46833" lon="6.8766">
        <ele>423.9</ele>
        <time>2014-09-28T09:29:00.000Z</time>
      </trkpt>
      <trkpt lat="47.46833" lon="6.87654">
        <ele>424</ele>
        <time>2014-09-28T09:29:01.000Z</time>
      </trkpt>
      <trkpt lat="47.46832" lon="6.87646">
        <ele>422.7</ele>
        <time>2014-09-28T09:29:02.000Z</time>
      </trkpt>
      <trkpt lat="47.46832" lon="6.87638">
        <ele>423.1</ele>
        <time>2014-09-28T09:29:03.000Z</time>
      </trkpt>
      <trkpt lat="47.46831" lon="6.8763">
        <ele>422.8</ele>
        <time>2014-09-28T09:29:04.000Z</time>
      </trkpt>
      <trkpt lat="47.46831" lon="6.87624">
        <ele>423.3</ele>
        <time>2014-09-28T09:29:05.000Z</time>
      </trkpt>
      <trkpt lat="47.4683" lon="6.87617">
        <ele>423.4</ele>
        <time>2014-09-28T09:29:06.000Z</time>
      </trkpt>
      <trkpt lat="47.46831" lon="6.87611">
        <ele>423.7</ele>
        <time>2014-09-28T09:29:07.000Z</time>
      </trkpt>
      <trkpt lat="47.46831" lon="6.87605">
        <ele>424.3</ele>
        <time>2014-09-28T09:29:08.000Z</time>
      </trkpt>
      <trkpt lat="47.46831" lon="6.87599">
        <ele>424.3</ele>
        <time>2014-09-28T09:29:09.000Z</time>
      </trkpt>
      <trkpt lat="47.46831" lon="6.87592">
        <ele>424</ele>
        <time>2014-09-28T09:29:10.000Z</time>
      </trkpt>
      <trkpt lat="47.46831" lon="6.87585">
        <ele>424.1</ele>
        <time>2014-09-28T09:29:11.000Z</time>
      </trkpt>
      <trkpt lat="47.46832" lon="6.87579">
        <ele>423.9</ele>
        <time>2014-09-28T09:29:12.000Z</time>
      </trkpt>
      <trkpt lat="47.46833" lon="6.87573">
        <ele>424.2</ele>
        <time>2014-09-28T09:29:13.000Z</time>
      </trkpt>
      <trkpt lat="47.46834" lon="6.87567">
        <ele>424.3</ele>
        <time>2014-09-28T09:29:14.000Z</time>
      </trkpt>
      <trkpt lat="47.46836" lon="6.87561">
        <ele>424.5</ele>
        <time>2014-09-28T09:29:15.000Z</time>
      </trkpt>
      <trkpt lat="47.46837" lon="6.87556">
        <ele>424.2</ele>
        <time>2014-09-28T09:29:16.000Z</time>
      </trkpt>
      <trkpt lat="47.46839" lon="6.87551">
        <ele>424</ele>
        <time>2014-09-28T09:29:17.000Z</time>
      </trkpt>
      <trkpt lat="47.46841" lon="6.87545">
        <ele>424.3</ele>
        <time>2014-09-28T09:29:18.000Z</time>
      </trkpt>
      <trkpt lat="47.46842" lon="6.8754">
        <ele>424.1</ele>
        <time>2014-09-28T09:29:19.000Z</time>
      </trkpt>
      <trkpt lat="47.46843" lon="6.87535">
        <ele>424.1</ele>
        <time>2014-09-28T09:29:20.000Z</time>
      </trkpt>
      <trkpt lat="47.46844" lon="6.87529">
        <ele>424.6</ele>
        <time>2014-09-28T09:29:21.000Z</time>
      </trkpt>
      <trkpt lat="47.46845" lon="6.87524">
        <ele>424.5</ele>
        <time>2014-09-28T09:29:22.000Z</time>
      </trkpt>
      <trkpt lat="47.46845" lon="6.87519">
        <ele>424.7</ele>
        <time>2014-09-28T09:29:23.000Z</time>
      </trkpt>
      <trkpt lat="47.46847" lon="6.87514">
        <ele>424.8</ele>
        <time>2014-09-28T09:29:24.000Z</time>
      </trkpt>
      <trkpt lat="47.46849" lon="6.87511">
        <ele>424.5</ele>
        <time>2014-09-28T09:29:25.000Z</time>
      </trkpt>
      <trkpt lat="47.46851" lon="6.87509">
        <ele>424.9</ele>
        <time>2014-09-28T09:29:26.000Z</time>
      </trkpt>
      <trkpt lat="47.4686" lon="6.87507">
        <ele>425.4</ele>
        <time>2014-09-28T09:29:29.000Z</time>
      </trkpt>
      <trkpt lat="47.46868" lon="6.87507">
        <ele>425</ele>
        <time>2014-09-28T09:29:30.000Z</time>
      </trkpt>
      <trkpt lat="47.46872" lon="6.87505">
        <ele>426</ele>
        <time>2014-09-28T09:29:31.000Z</time>
      </trkpt>
      <trkpt lat="47.46876" lon="6.87502">
        <ele>426.6</ele>
        <time>2014-09-28T09:29:32.000Z</time>
      </trkpt>
      <trkpt lat="47.4688" lon="6.87501">
        <ele>427.5</ele>
        <time>2014-09-28T09:29:33.000Z</time>
      </trkpt>
      <trkpt lat="47.46884" lon="6.87498">
        <ele>428.2</ele>
        <time>2014-09-28T09:29:34.000Z</time>
      </trkpt>
      <trkpt lat="47.46888" lon="6.87495">
        <ele>428.6</ele>
        <time>2014-09-28T09:29:35.000Z</time>
      </trkpt>
      <trkpt lat="47.46891" lon="6.87491">
        <ele>429.2</ele>
        <time>2014-09-28T09:29:36.000Z</time>
      </trkpt>
      <trkpt lat="47.46894" lon="6.87487">
        <ele>429.2</ele>
        <time>2014-09-28T09:29:37.000Z</time>
      </trkpt>
      <trkpt lat="47.46896" lon="6.87482">
        <ele>429.6</ele>
        <time>2014-09-28T09:29:38.000Z</time>
      </trkpt>
      <trkpt lat="47.46898" lon="6.87477">
        <ele>429.8</ele>
        <time>2014-09-28T09:29:39.000Z</time>
      </trkpt>
      <trkpt lat="47.46899" lon="6.87474">
        <ele>429.9</ele>
        <time>2014-09-28T09:29:40.000Z</time>
      </trkpt>
      <trkpt lat="47.469" lon="6.87469">
        <ele>429.7</ele>
        <time>2014-09-28T09:29:41.000Z</time>
      </trkpt>
      <trkpt lat="47.46901" lon="6.87465">
        <ele>429.4</ele>
        <time>2014-09-28T09:29:42.000Z</time>
      </trkpt>
      <trkpt lat="47.46902" lon="6.87461">
        <ele>429.7</ele>
        <time>2014-09-28T09:29:43.000Z</time>
      </trkpt>
      <trkpt lat="47.46903" lon="6.87457">
        <ele>429.5</ele>
        <time>2014-09-28T09:29:44.000Z</time>
      </trkpt>
      <trkpt lat="47.46904" lon="6.87454">
        <ele>429.6</ele>
        <time>2014-09-28T09:29:45.000Z</time>
      </trkpt>
      <trkpt lat="47.46906" lon="6.87448">
        <ele>429.6</ele>
        <time>2014-09-28T09:29:47.000Z</time>
      </trkpt>
      <trkpt lat="47.46907" lon="6.87445">
        <ele>429.4</ele>
        <time>2014-09-28T09:29:48.000Z</time>
      </trkpt>
      <trkpt lat="47.46909" lon="6.8744">
        <ele>430.2</ele>
        <time>2014-09-28T09:29:50.000Z</time>
      </trkpt>
      <trkpt lat="47.4691" lon="6.87437">
        <ele>430.2</ele>
        <time>2014-09-28T09:29:51.000Z</time>
      </trkpt>
      <trkpt lat="47.46913" lon="6.87432">
        <ele>430.4</ele>
        <time>2014-09-28T09:29:53.000Z</time>
      </trkpt>
      <trkpt lat="47.46914" lon="6.8743">
        <ele>430.3</ele>
        <time>2014-09-28T09:29:54.000Z</time>
      </trkpt>
      <trkpt lat="47.46916" lon="6.87427">
        <ele>430.3</ele>
        <time>2014-09-28T09:29:55.000Z</time>
      </trkpt>
      <trkpt lat="47.46918" lon="6.87425">
        <ele>430.1</ele>
        <time>2014-09-28T09:29:56.000Z</time>
      </trkpt>
      <trkpt lat="47.46921" lon="6.87421">
        <ele>431</ele>
        <time>2014-09-28T09:29:58.000Z</time>
      </trkpt>
      <trkpt lat="47.46923" lon="6.87419">
        <ele>431.4</ele>
        <time>2014-09-28T09:29:59.000Z</time>
      </trkpt>
      <trkpt lat="47.46925" lon="6.87415">
        <ele>431.7</ele>
        <time>2014-09-28T09:30:01.000Z</time>
      </trkpt>
      <trkpt lat="47.46926" lon="6.87412">
        <ele>431.8</ele>
        <time>2014-09-28T09:30:02.000Z</time>
      </trkpt>
      <trkpt lat="47.46928" lon="6.87407">
        <ele>431.4</ele>
        <time>2014-09-28T09:30:04.000Z</time>
      </trkpt>
      <trkpt lat="47.46929" lon="6.87404">
        <ele>431.9</ele>
        <time>2014-09-28T09:30:05.000Z</time>
      </trkpt>
      <trkpt lat="47.46929" lon="6.87399">
        <ele>432.4</ele>
        <time>2014-09-28T09:30:07.000Z</time>
      </trkpt>
      <trkpt lat="47.46929" lon="6.87396">
        <ele>432.7</ele>
        <time>2014-09-28T09:30:08.000Z</time>
      </trkpt>
      <trkpt lat="47.46929" lon="6.87391">
        <ele>432.8</ele>
        <time>2014-09-28T09:30:10.000Z</time>
      </trkpt>
      <trkpt lat="47.46929" lon="6.87389">
        <ele>432.7</ele>
        <time>2014-09-28T09:30:11.000Z</time>
      </trkpt>
      <trkpt lat="47.46928" lon="6.87382">
        <ele>432.8</ele>
        <time>2014-09-28T09:30:13.000Z</time>
      </trkpt>
      <trkpt lat="47.46929" lon="6.87378">
        <ele>434.3</ele>
        <time>2014-09-28T09:30:14.000Z</time>
      </trkpt>
      <trkpt lat="47.46942" lon="6.87351">
        <ele>434.1</ele>
        <time>2014-09-28T09:30:15.000Z</time>
      </trkpt>
      <trkpt lat="47.46945" lon="6.87343">
        <ele>434.3</ele>
        <time>2014-09-28T09:30:16.000Z</time>
      </trkpt>
      <trkpt lat="47.46946" lon="6.87337">
        <ele>434.6</ele>
        <time>2014-09-28T09:30:17.000Z</time>
      </trkpt>
      <trkpt lat="47.46946" lon="6.87332">
        <ele>436.1</ele>
        <time>2014-09-28T09:30:18.000Z</time>
      </trkpt>
      <trkpt lat="47.46948" lon="6.87327">
        <ele>436.2</ele>
        <time>2014-09-28T09:30:19.000Z</time>
      </trkpt>
      <trkpt lat="47.46947" lon="6.87322">
        <ele>436.7</ele>
        <time>2014-09-28T09:30:20.000Z</time>
      </trkpt>
      <trkpt lat="47.46947" lon="6.87317">
        <ele>437.5</ele>
        <time>2014-09-28T09:30:21.000Z</time>
      </trkpt>
      <trkpt lat="47.46947" lon="6.87311">
        <ele>437.5</ele>
        <time>2014-09-28T09:30:22.000Z</time>
      </trkpt>
      <trkpt lat="47.46948" lon="6.87303">
        <ele>436.3</ele>
        <time>2014-09-28T09:30:23.000Z</time>
      </trkpt>
      <trkpt lat="47.4695" lon="6.87293">
        <ele>435.5</ele>
        <time>2014-09-28T09:30:24.000Z</time>
      </trkpt>
      <trkpt lat="47.46951" lon="6.87287">
        <ele>436.6</ele>
        <time>2014-09-28T09:30:25.000Z</time>
      </trkpt>
      <trkpt lat="47.46952" lon="6.8728">
        <ele>435.6</ele>
        <time>2014-09-28T09:30:26.000Z</time>
      </trkpt>
      <trkpt lat="47.46958" lon="6.87247">
        <ele>423.7</ele>
        <time>2014-09-28T09:30:29.000Z</time>
      </trkpt>
      <trkpt lat="47.46963" lon="6.87233">
        <ele>424.3</ele>
        <time>2014-09-28T09:30:30.000Z</time>
      </trkpt>
      <trkpt lat="47.46968" lon="6.87221">
        <ele>426.2</ele>
        <time>2014-09-28T09:30:31.000Z</time>
      </trkpt>
      <trkpt lat="47.4697" lon="6.87212">
        <ele>426.6</ele>
        <time>2014-09-28T09:30:32.000Z</time>
      </trkpt>
      <trkpt lat="47.46971" lon="6.872">
        <ele>426.4</ele>
        <time>2014-09-28T09:30:33.000Z</time>
      </trkpt>
      <trkpt lat="47.46975" lon="6.87188">
        <ele>425.6</ele>
        <time>2014-09-28T09:30:34.000Z</time>
      </trkpt>
      <trkpt lat="47.4698" lon="6.87171">
        <ele>425.6</ele>
        <time>2014-09-28T09:30:35.000Z</time>
      </trkpt>
      <trkpt lat="47.46982" lon="6.87162">
        <ele>426.4</ele>
        <time>2014-09-28T09:30:36.000Z</time>
      </trkpt>
      <trkpt lat="47.46984" lon="6.87151">
        <ele>426.5</ele>
        <time>2014-09-28T09:30:37.000Z</time>
      </trkpt>
      <trkpt lat="47.46985" lon="6.87142">
        <ele>427</ele>
        <time>2014-09-28T09:30:38.000Z</time>
      </trkpt>
      <trkpt lat="47.46986" lon="6.87132">
        <ele>427.8</ele>
        <time>2014-09-28T09:30:39.000Z</time>
      </trkpt>
      <trkpt lat="47.46988" lon="6.87119">
        <ele>427.9</ele>
        <time>2014-09-28T09:30:40.000Z</time>
      </trkpt>
      <trkpt lat="47.46992" lon="6.87105">
        <ele>428.3</ele>
        <time>2014-09-28T09:30:41.000Z</time>
      </trkpt>
      <trkpt lat="47.46995" lon="6.87093">
        <ele>429.3</ele>
        <time>2014-09-28T09:30:42.000Z</time>
      </trkpt>
      <trkpt lat="47.46996" lon="6.87084">
        <ele>430.5</ele>
        <time>2014-09-28T09:30:43.000Z</time>
      </trkpt>
      <trkpt lat="47.47002" lon="6.87073">
        <ele>429.6</ele>
        <time>2014-09-28T09:30:44.000Z</time>
      </trkpt>
      <trkpt lat="47.47005" lon="6.87072">
        <ele>431</ele>
        <time>2014-09-28T09:30:45.000Z</time>
      </trkpt>
      <trkpt lat="47.47006" lon="6.87067">
        <ele>430.3</ele>
        <time>2014-09-28T09:30:46.000Z</time>
      </trkpt>
      <trkpt lat="47.47008" lon="6.87062">
        <ele>429.5</ele>
        <time>2014-09-28T09:30:47.000Z</time>
      </trkpt>
      <trkpt lat="47.47009" lon="6.87061">
        <ele>429</ele>
        <time>2014-09-28T09:30:48.000Z</time>
      </trkpt>
      <trkpt lat="47.4701" lon="6.87055">
        <ele>427.2</ele>
        <time>2014-09-28T09:30:54.000Z</time>
      </trkpt>
      <trkpt lat="47.4701" lon="6.87054">
        <ele>427.3</ele>
        <time>2014-09-28T09:30:55.000Z</time>
      </trkpt>
      <trkpt lat="47.47012" lon="6.87054">
        <ele>426.7</ele>
        <time>2014-09-28T09:31:18.000Z</time>
      </trkpt>
      <trkpt lat="47.47016" lon="6.8705">
        <ele>423.4</ele>
        <time>2014-09-28T09:31:19.000Z</time>
      </trkpt>
      <trkpt lat="47.47019" lon="6.87047">
        <ele>420.6</ele>
        <time>2014-09-28T09:31:21.000Z</time>
      </trkpt>
      <trkpt lat="47.47021" lon="6.87044">
        <ele>419.5</ele>
        <time>2014-09-28T09:31:22.000Z</time>
      </trkpt>
      <trkpt lat="47.47024" lon="6.87042">
        <ele>418.4</ele>
        <time>2014-09-28T09:31:24.000Z</time>
      </trkpt>
      <trkpt lat="47.47026" lon="6.87041">
        <ele>417.3</ele>
        <time>2014-09-28T09:31:25.000Z</time>
      </trkpt>
      <trkpt lat="47.47027" lon="6.87038">
        <ele>416.9</ele>
        <time>2014-09-28T09:31:27.000Z</time>
      </trkpt>
      <trkpt lat="47.47038" lon="6.87031">
        <ele>403.3</ele>
        <time>2014-09-28T09:31:35.000Z</time>
      </trkpt>
      <trkpt lat="47.47041" lon="6.8703">
        <ele>403.7</ele>
        <time>2014-09-28T09:31:36.000Z</time>
      </trkpt>
      <trkpt lat="47.47043" lon="6.8703">
        <ele>403.9</ele>
        <time>2014-09-28T09:31:37.000Z</time>
      </trkpt>
      <trkpt lat="47.47045" lon="6.87031">
        <ele>403.7</ele>
        <time>2014-09-28T09:31:38.000Z</time>
      </trkpt>
      <trkpt lat="47.47048" lon="6.87032">
        <ele>411.7</ele>
        <time>2014-09-28T09:31:39.000Z</time>
      </trkpt>
      <trkpt lat="47.47052" lon="6.87033">
        <ele>413.5</ele>
        <time>2014-09-28T09:31:40.000Z</time>
      </trkpt>
      <trkpt lat="47.47055" lon="6.87033">
        <ele>415</ele>
        <time>2014-09-28T09:31:41.000Z</time>
      </trkpt>
      <trkpt lat="47.47058" lon="6.87034">
        <ele>415.4</ele>
        <time>2014-09-28T09:31:42.000Z</time>
      </trkpt>
      <trkpt lat="47.47062" lon="6.87034">
        <ele>415.7</ele>
        <time>2014-09-28T09:31:43.000Z</time>
      </trkpt>
      <trkpt lat="47.47065" lon="6.87034">
        <ele>415.5</ele>
        <time>2014-09-28T09:31:44.000Z</time>
      </trkpt>
      <trkpt lat="47.47069" lon="6.87035">
        <ele>415.7</ele>
        <time>2014-09-28T09:31:45.000Z</time>
      </trkpt>
      <trkpt lat="47.47074" lon="6.87036">
        <ele>416.3</ele>
        <time>2014-09-28T09:31:46.000Z</time>
      </trkpt>
      <trkpt lat="47.47079" lon="6.87036">
        <ele>416.8</ele>
        <time>2014-09-28T09:31:47.000Z</time>
      </trkpt>
      <trkpt lat="47.47085" lon="6.87036">
        <ele>417</ele>
        <time>2014-09-28T09:31:48.000Z</time>
      </trkpt>
      <trkpt lat="47.47091" lon="6.87036">
        <ele>417.1</ele>
        <time>2014-09-28T09:31:49.000Z</time>
      </trkpt>
      <trkpt lat="47.47108" lon="6.87033">
        <ele>416.8</ele>
        <time>2014-09-28T09:31:50.000Z</time>
      </trkpt>
      <trkpt lat="47.47118" lon="6.87027">
        <ele>416</ele>
        <time>2014-09-28T09:31:51.000Z</time>
      </trkpt>
      <trkpt lat="47.47123" lon="6.87024">
        <ele>416.1</ele>
        <time>2014-09-28T09:31:52.000Z</time>
      </trkpt>
      <trkpt lat="47.47126" lon="6.87023">
        <ele>416.3</ele>
        <time>2014-09-28T09:31:54.000Z</time>
      </trkpt>
      <trkpt lat="47.47129" lon="6.87022">
        <ele>416.3</ele>
        <time>2014-09-28T09:31:55.000Z</time>
      </trkpt>
      <trkpt lat="47.47132" lon="6.87017">
        <ele>417</ele>
        <time>2014-09-28T09:31:57.000Z</time>
      </trkpt>
      <trkpt lat="47.47134" lon="6.87014">
        <ele>416.9</ele>
        <time>2014-09-28T09:31:58.000Z</time>
      </trkpt>
      <trkpt lat="47.47136" lon="6.87011">
        <ele>417</ele>
        <time>2014-09-28T09:31:59.000Z</time>
      </trkpt>
      <trkpt lat="47.47139" lon="6.87007">
        <ele>417.4</ele>
        <time>2014-09-28T09:32:00.000Z</time>
      </trkpt>
      <trkpt lat="47.4714" lon="6.87003">
        <ele>417.4</ele>
        <time>2014-09-28T09:32:01.000Z</time>
      </trkpt>
      <trkpt lat="47.47142" lon="6.87">
        <ele>417.9</ele>
        <time>2014-09-28T09:32:02.000Z</time>
      </trkpt>
      <trkpt lat="47.47143" lon="6.86995">
        <ele>418</ele>
        <time>2014-09-28T09:32:03.000Z</time>
      </trkpt>
      <trkpt lat="47.47145" lon="6.86991">
        <ele>418.7</ele>
        <time>2014-09-28T09:32:04.000Z</time>
      </trkpt>
      <trkpt lat="47.47147" lon="6.86986">
        <ele>419.3</ele>
        <time>2014-09-28T09:32:05.000Z</time>
      </trkpt>
      <trkpt lat="47.47149" lon="6.8698">
        <ele>418.9</ele>
        <time>2014-09-28T09:32:06.000Z</time>
      </trkpt>
      <trkpt lat="47.4715" lon="6.86974">
        <ele>419.3</ele>
        <time>2014-09-28T09:32:07.000Z</time>
      </trkpt>
      <trkpt lat="47.47152" lon="6.86968">
        <ele>419.7</ele>
        <time>2014-09-28T09:32:08.000Z</time>
      </trkpt>
      <trkpt lat="47.47154" lon="6.8696">
        <ele>419.6</ele>
        <time>2014-09-28T09:32:09.000Z</time>
      </trkpt>
      <trkpt lat="47.47155" lon="6.86953">
        <ele>419.9</ele>
        <time>2014-09-28T09:32:10.000Z</time>
      </trkpt>
      <trkpt lat="47.47156" lon="6.86945">
        <ele>420.1</ele>
        <time>2014-09-28T09:32:11.000Z</time>
      </trkpt>
      <trkpt lat="47.47157" lon="6.86939">
        <ele>420.5</ele>
        <time>2014-09-28T09:32:12.000Z</time>
      </trkpt>
      <trkpt lat="47.47158" lon="6.86933">
        <ele>420.2</ele>
        <time>2014-09-28T09:32:13.000Z</time>
      </trkpt>
      <trkpt lat="47.47159" lon="6.86928">
        <ele>420</ele>
        <time>2014-09-28T09:32:14.000Z</time>
      </trkpt>
      <trkpt lat="47.47159" lon="6.86924">
        <ele>419.4</ele>
        <time>2014-09-28T09:32:15.000Z</time>
      </trkpt>
      <trkpt lat="47.47159" lon="6.86919">
        <ele>419.4</ele>
        <time>2014-09-28T09:32:16.000Z</time>
      </trkpt>
      <trkpt lat="47.4716" lon="6.86914">
        <ele>419.3</ele>
        <time>2014-09-28T09:32:17.000Z</time>
      </trkpt>
      <trkpt lat="47.4716" lon="6.8691">
        <ele>419.9</ele>
        <time>2014-09-28T09:32:18.000Z</time>
      </trkpt>
      <trkpt lat="47.47161" lon="6.86905">
        <ele>420.3</ele>
        <time>2014-09-28T09:32:19.000Z</time>
      </trkpt>
      <trkpt lat="47.47162" lon="6.86898">
        <ele>420.2</ele>
        <time>2014-09-28T09:32:20.000Z</time>
      </trkpt>
      <trkpt lat="47.47164" lon="6.86892">
        <ele>419.8</ele>
        <time>2014-09-28T09:32:21.000Z</time>
      </trkpt>
      <trkpt lat="47.47166" lon="6.86885">
        <ele>419.4</ele>
        <time>2014-09-28T09:32:22.000Z</time>
      </trkpt>
      <trkpt lat="47.47167" lon="6.86879">
        <ele>418.7</ele>
        <time>2014-09-28T09:32:23.000Z</time>
      </trkpt>
      <trkpt lat="47.4717" lon="6.86873">
        <ele>418.1</ele>
        <time>2014-09-28T09:32:24.000Z</time>
      </trkpt>
      <trkpt lat="47.47172" lon="6.86868">
        <ele>417.6</ele>
        <time>2014-09-28T09:32:25.000Z</time>
      </trkpt>
      <trkpt lat="47.47176" lon="6.86863">
        <ele>416.5</ele>
        <time>2014-09-28T09:32:26.000Z</time>
      </trkpt>
      <trkpt lat="47.47184" lon="6.86857">
        <ele>369.4</ele>
        <time>2014-09-28T09:32:29.000Z</time>
      </trkpt>
      <trkpt lat="47.47188" lon="6.86856">
        <ele>369.3</ele>
        <time>2014-09-28T09:32:30.000Z</time>
      </trkpt>
      <trkpt lat="47.47198" lon="6.86839">
        <ele>370.4</ele>
        <time>2014-09-28T09:32:31.000Z</time>
      </trkpt>
      <trkpt lat="47.47204" lon="6.86829">
        <ele>371.5</ele>
        <time>2014-09-28T09:32:32.000Z</time>
      </trkpt>
      <trkpt lat="47.47209" lon="6.86824">
        <ele>371.8</ele>
        <time>2014-09-28T09:32:33.000Z</time>
      </trkpt>
      <trkpt lat="47.47216" lon="6.86818">
        <ele>371.9</ele>
        <time>2014-09-28T09:32:34.000Z</time>
      </trkpt>
      <trkpt lat="47.47224" lon="6.86812">
        <ele>371.4</ele>
        <time>2014-09-28T09:32:35.000Z</time>
      </trkpt>
      <trkpt lat="47.47229" lon="6.86809">
        <ele>371.5</ele>
        <time>2014-09-28T09:32:36.000Z</time>
      </trkpt>
      <trkpt lat="47.4724" lon="6.86801">
        <ele>371.3</ele>
        <time>2014-09-28T09:32:37.000Z</time>
      </trkpt>
      <trkpt lat="47.47251" lon="6.86791">
        <ele>370.3</ele>
        <time>2014-09-28T09:32:38.000Z</time>
      </trkpt>
      <trkpt lat="47.47263" lon="6.86783">
        <ele>370.4</ele>
        <time>2014-09-28T09:32:39.000Z</time>
      </trkpt>
      <trkpt lat="47.4727" lon="6.86783">
        <ele>370.6</ele>
        <time>2014-09-28T09:32:40.000Z</time>
      </trkpt>
      <trkpt lat="47.47278" lon="6.86782">
        <ele>370.5</ele>
        <time>2014-09-28T09:32:41.000Z</time>
      </trkpt>
      <trkpt lat="47.47286" lon="6.86783">
        <ele>371.3</ele>
        <time>2014-09-28T09:32:42.000Z</time>
      </trkpt>
      <trkpt lat="47.47289" lon="6.8678">
        <ele>372.7</ele>
        <time>2014-09-28T09:32:43.000Z</time>
      </trkpt>
      <trkpt lat="47.47295" lon="6.86774">
        <ele>373.1</ele>
        <time>2014-09-28T09:32:44.000Z</time>
      </trkpt>
      <trkpt lat="47.47299" lon="6.86768">
        <ele>373.6</ele>
        <time>2014-09-28T09:32:45.000Z</time>
      </trkpt>
      <trkpt lat="47.47302" lon="6.86766">
        <ele>373.1</ele>
        <time>2014-09-28T09:32:46.000Z</time>
      </trkpt>
      <trkpt lat="47.47305" lon="6.86766">
        <ele>373</ele>
        <time>2014-09-28T09:32:47.000Z</time>
      </trkpt>
      <trkpt lat="47.47308" lon="6.86766">
        <ele>373.2</ele>
        <time>2014-09-28T09:32:48.000Z</time>
      </trkpt>
      <trkpt lat="47.47311" lon="6.86765">
        <ele>373.2</ele>
        <time>2014-09-28T09:32:49.000Z</time>
      </trkpt>
      <trkpt lat="47.47316" lon="6.86764">
        <ele>373.6</ele>
        <time>2014-09-28T09:32:50.000Z</time>
      </trkpt>
      <trkpt lat="47.4732" lon="6.86761">
        <ele>372.8</ele>
        <time>2014-09-28T09:32:51.000Z</time>
      </trkpt>
      <trkpt lat="47.47323" lon="6.86759">
        <ele>372.6</ele>
        <time>2014-09-28T09:32:52.000Z</time>
      </trkpt>
      <trkpt lat="47.47327" lon="6.86758">
        <ele>372.2</ele>
        <time>2014-09-28T09:32:53.000Z</time>
      </trkpt>
      <trkpt lat="47.47331" lon="6.86756">
        <ele>371.9</ele>
        <time>2014-09-28T09:32:54.000Z</time>
      </trkpt>
      <trkpt lat="47.47335" lon="6.86756">
        <ele>372.1</ele>
        <time>2014-09-28T09:32:55.000Z</time>
      </trkpt>
      <trkpt lat="47.4734" lon="6.86755">
        <ele>372.7</ele>
        <time>2014-09-28T09:32:56.000Z</time>
      </trkpt>
      <trkpt lat="47.47344" lon="6.86755">
        <ele>373.4</ele>
        <time>2014-09-28T09:32:57.000Z</time>
      </trkpt>
      <trkpt lat="47.47347" lon="6.86756">
        <ele>373</ele>
        <time>2014-09-28T09:32:58.000Z</time>
      </trkpt>
      <trkpt lat="47.4735" lon="6.86757">
        <ele>371.6</ele>
        <time>2014-09-28T09:32:59.000Z</time>
      </trkpt>
      <trkpt lat="47.47353" lon="6.86757">
        <ele>371.9</ele>
        <time>2014-09-28T09:33:00.000Z</time>
      </trkpt>
      <trkpt lat="47.47355" lon="6.86757">
        <ele>371.6</ele>
        <time>2014-09-28T09:33:01.000Z</time>
      </trkpt>
      <trkpt lat="47.47358" lon="6.86757">
        <ele>370.9</ele>
        <time>2014-09-28T09:33:02.000Z</time>
      </trkpt>
      <trkpt lat="47.47361" lon="6.86756">
        <ele>371.1</ele>
        <time>2014-09-28T09:33:03.000Z</time>
      </trkpt>
      <trkpt lat="47.47364" lon="6.86755">
        <ele>372.8</ele>
        <time>2014-09-28T09:33:04.000Z</time>
      </trkpt>
      <trkpt lat="47.47367" lon="6.86754">
        <ele>372.8</ele>
        <time>2014-09-28T09:33:05.000Z</time>
      </trkpt>
      <trkpt lat="47.4737" lon="6.86753">
        <ele>373.3</ele>
        <time>2014-09-28T09:33:06.000Z</time>
      </trkpt>
      <trkpt lat="47.47372" lon="6.86751">
        <ele>373.7</ele>
        <time>2014-09-28T09:33:07.000Z</time>
      </trkpt>
      <trkpt lat="47.47374" lon="6.8675">
        <ele>374</ele>
        <time>2014-09-28T09:33:08.000Z</time>
      </trkpt>
      <trkpt lat="47.47377" lon="6.86748">
        <ele>374.6</ele>
        <time>2014-09-28T09:33:09.000Z</time>
      </trkpt>
      <trkpt lat="47.47379" lon="6.86746">
        <ele>375.9</ele>
        <time>2014-09-28T09:33:10.000Z</time>
      </trkpt>
      <trkpt lat="47.47381" lon="6.86743">
        <ele>377.2</ele>
        <time>2014-09-28T09:33:11.000Z</time>
      </trkpt>
      <trkpt lat="47.47383" lon="6.8674">
        <ele>378.1</ele>
        <time>2014-09-28T09:33:12.000Z</time>
      </trkpt>
      <trkpt lat="47.47385" lon="6.86737">
        <ele>378.3</ele>
        <time>2014-09-28T09:33:13.000Z</time>
      </trkpt>
      <trkpt lat="47.47386" lon="6.86733">
        <ele>378.5</ele>
        <time>2014-09-28T09:33:14.000Z</time>
      </trkpt>
      <trkpt lat="47.47388" lon="6.86729">
        <ele>379.2</ele>
        <time>2014-09-28T09:33:15.000Z</time>
      </trkpt>
      <trkpt lat="47.47391" lon="6.86723">
        <ele>379.1</ele>
        <time>2014-09-28T09:33:16.000Z</time>
      </trkpt>
      <trkpt lat="47.47394" lon="6.86717">
        <ele>379.6</ele>
        <time>2014-09-28T09:33:17.000Z</time>
      </trkpt>
      <trkpt lat="47.47397" lon="6.8671">
        <ele>379.7</ele>
        <time>2014-09-28T09:33:18.000Z</time>
      </trkpt>
      <trkpt lat="47.47401" lon="6.86704">
        <ele>380</ele>
        <time>2014-09-28T09:33:19.000Z</time>
      </trkpt>
      <trkpt lat="47.47404" lon="6.86699">
        <ele>379.7</ele>
        <time>2014-09-28T09:33:20.000Z</time>
      </trkpt>
      <trkpt lat="47.47406" lon="6.86694">
        <ele>379.6</ele>
        <time>2014-09-28T09:33:21.000Z</time>
      </trkpt>
      <trkpt lat="47.47409" lon="6.86689">
        <ele>379.9</ele>
        <time>2014-09-28T09:33:22.000Z</time>
      </trkpt>
      <trkpt lat="47.47412" lon="6.86682">
        <ele>381.8</ele>
        <time>2014-09-28T09:33:23.000Z</time>
      </trkpt>
      <trkpt lat="47.47431" lon="6.86649">
        <ele>384.7</ele>
        <time>2014-09-28T09:33:24.000Z</time>
      </trkpt>
      <trkpt lat="47.47435" lon="6.86639">
        <ele>387</ele>
        <time>2014-09-28T09:33:25.000Z</time>
      </trkpt>
      <trkpt lat="47.47439" lon="6.86629">
        <ele>388.3</ele>
        <time>2014-09-28T09:33:26.000Z</time>
      </trkpt>
      <trkpt lat="47.47443" lon="6.86611">
        <ele>375.9</ele>
        <time>2014-09-28T09:33:29.000Z</time>
      </trkpt>
      <trkpt lat="47.47444" lon="6.86606">
        <ele>374.6</ele>
        <time>2014-09-28T09:33:30.000Z</time>
      </trkpt>
      <trkpt lat="47.47445" lon="6.86602">
        <ele>373.6</ele>
        <time>2014-09-28T09:33:31.000Z</time>
      </trkpt>
      <trkpt lat="47.47446" lon="6.86596">
        <ele>373.2</ele>
        <time>2014-09-28T09:33:33.000Z</time>
      </trkpt>
      <trkpt lat="47.47446" lon="6.86593">
        <ele>371.5</ele>
        <time>2014-09-28T09:33:34.000Z</time>
      </trkpt>
      <trkpt lat="47.47448" lon="6.86587">
        <ele>368.6</ele>
        <time>2014-09-28T09:33:36.000Z</time>
      </trkpt>
      <trkpt lat="47.47449" lon="6.86583">
        <ele>366.8</ele>
        <time>2014-09-28T09:33:37.000Z</time>
      </trkpt>
      <trkpt lat="47.47451" lon="6.86579">
        <ele>366.2</ele>
        <time>2014-09-28T09:33:38.000Z</time>
      </trkpt>
      <trkpt lat="47.47452" lon="6.86575">
        <ele>366.6</ele>
        <time>2014-09-28T09:33:39.000Z</time>
      </trkpt>
      <trkpt lat="47.47454" lon="6.8657">
        <ele>367</ele>
        <time>2014-09-28T09:33:40.000Z</time>
      </trkpt>
      <trkpt lat="47.47456" lon="6.86566">
        <ele>367.1</ele>
        <time>2014-09-28T09:33:41.000Z</time>
      </trkpt>
      <trkpt lat="47.47459" lon="6.8656">
        <ele>366.9</ele>
        <time>2014-09-28T09:33:42.000Z</time>
      </trkpt>
      <trkpt lat="47.47462" lon="6.86555">
        <ele>368.9</ele>
        <time>2014-09-28T09:33:43.000Z</time>
      </trkpt>
      <trkpt lat="47.47463" lon="6.86552">
        <ele>368.5</ele>
        <time>2014-09-28T09:33:44.000Z</time>
      </trkpt>
      <trkpt lat="47.47466" lon="6.86547">
        <ele>369</ele>
        <time>2014-09-28T09:33:46.000Z</time>
      </trkpt>
      <trkpt lat="47.47466" lon="6.86545">
        <ele>368.8</ele>
        <time>2014-09-28T09:33:47.000Z</time>
      </trkpt>
      <trkpt lat="47.47468" lon="6.8654">
        <ele>367.1</ele>
        <time>2014-09-28T09:33:50.000Z</time>
      </trkpt>
      <trkpt lat="47.47468" lon="6.86538">
        <ele>367.8</ele>
        <time>2014-09-28T09:33:51.000Z</time>
      </trkpt>
      <trkpt lat="47.47471" lon="6.86533">
        <ele>368.4</ele>
        <time>2014-09-28T09:33:52.000Z</time>
      </trkpt>
      <trkpt lat="47.47472" lon="6.8653">
        <ele>368.3</ele>
        <time>2014-09-28T09:33:53.000Z</time>
      </trkpt>
      <trkpt lat="47.47474" lon="6.86525">
        <ele>368.8</ele>
        <time>2014-09-28T09:34:08.000Z</time>
      </trkpt>
      <trkpt lat="47.47475" lon="6.86524">
        <ele>368.9</ele>
        <time>2014-09-28T09:34:09.000Z</time>
      </trkpt>
      <trkpt lat="47.47476" lon="6.86518">
        <ele>369.1</ele>
        <time>2014-09-28T09:34:13.000Z</time>
      </trkpt>
      <trkpt lat="47.47476" lon="6.86516">
        <ele>369</ele>
        <time>2014-09-28T09:34:14.000Z</time>
      </trkpt>
      <trkpt lat="47.47478" lon="6.86511">
        <ele>369.6</ele>
        <time>2014-09-28T09:34:16.000Z</time>
      </trkpt>
      <trkpt lat="47.47479" lon="6.86508">
        <ele>369</ele>
        <time>2014-09-28T09:34:17.000Z</time>
      </trkpt>
      <trkpt lat="47.47481" lon="6.86506">
        <ele>368.5</ele>
        <time>2014-09-28T09:34:18.000Z</time>
      </trkpt>
      <trkpt lat="47.47483" lon="6.86503">
        <ele>368.6</ele>
        <time>2014-09-28T09:34:19.000Z</time>
      </trkpt>
      <trkpt lat="47.47485" lon="6.86501">
        <ele>368.3</ele>
        <time>2014-09-28T09:34:20.000Z</time>
      </trkpt>
      <trkpt lat="47.47486" lon="6.86498">
        <ele>368.7</ele>
        <time>2014-09-28T09:34:21.000Z</time>
      </trkpt>
      <trkpt lat="47.47488" lon="6.86495">
        <ele>368.3</ele>
        <time>2014-09-28T09:34:22.000Z</time>
      </trkpt>
      <trkpt lat="47.47489" lon="6.86492">
        <ele>368.3</ele>
        <time>2014-09-28T09:34:23.000Z</time>
      </trkpt>
      <trkpt lat="47.47491" lon="6.86487">
        <ele>369.2</ele>
        <time>2014-09-28T09:34:25.000Z</time>
      </trkpt>
      <trkpt lat="47.47491" lon="6.86485">
        <ele>369.5</ele>
        <time>2014-09-28T09:34:26.000Z</time>
      </trkpt>
      <trkpt lat="47.47491" lon="6.8648">
        <ele>350.4</ele>
        <time>2014-09-28T09:34:31.000Z</time>
      </trkpt>
      <trkpt lat="47.47491" lon="6.86478">
        <ele>350.8</ele>
        <time>2014-09-28T09:34:32.000Z</time>
      </trkpt>
      <trkpt lat="47.47493" lon="6.86473">
        <ele>351.8</ele>
        <time>2014-09-28T09:34:34.000Z</time>
      </trkpt>
      <trkpt lat="47.47494" lon="6.8647">
        <ele>352.2</ele>
        <time>2014-09-28T09:34:35.000Z</time>
      </trkpt>
      <trkpt lat="47.47494" lon="6.86467">
        <ele>352.1</ele>
        <time>2014-09-28T09:34:36.000Z</time>
      </trkpt>
      <trkpt lat="47.47495" lon="6.86463">
        <ele>351.8</ele>
        <time>2014-09-28T09:34:37.000Z</time>
      </trkpt>
      <trkpt lat="47.47496" lon="6.86458">
        <ele>351.4</ele>
        <time>2014-09-28T09:34:38.000Z</time>
      </trkpt>
      <trkpt lat="47.47498" lon="6.86452">
        <ele>351.6</ele>
        <time>2014-09-28T09:34:39.000Z</time>
      </trkpt>
      <trkpt lat="47.47501" lon="6.86444">
        <ele>352</ele>
        <time>2014-09-28T09:34:40.000Z</time>
      </trkpt>
      <trkpt lat="47.47504" lon="6.86435">
        <ele>351.8</ele>
        <time>2014-09-28T09:34:41.000Z</time>
      </trkpt>
      <trkpt lat="47.47507" lon="6.86427">
        <ele>351.8</ele>
        <time>2014-09-28T09:34:42.000Z</time>
      </trkpt>
      <trkpt lat="47.47511" lon="6.86417">
        <ele>348.3</ele>
        <time>2014-09-28T09:34:43.000Z</time>
      </trkpt>
      <trkpt lat="47.47527" lon="6.86384">
        <ele>350.3</ele>
        <time>2014-09-28T09:34:44.000Z</time>
      </trkpt>
      <trkpt lat="47.47532" lon="6.86374">
        <ele>353.4</ele>
        <time>2014-09-28T09:34:45.000Z</time>
      </trkpt>
      <trkpt lat="47.47538" lon="6.86362">
        <ele>357.6</ele>
        <time>2014-09-28T09:34:46.000Z</time>
      </trkpt>
      <trkpt lat="47.47542" lon="6.86352">
        <ele>360.5</ele>
        <time>2014-09-28T09:34:47.000Z</time>
      </trkpt>
      <trkpt lat="47.47548" lon="6.8634">
        <ele>363.9</ele>
        <time>2014-09-28T09:34:48.000Z</time>
      </trkpt>
      <trkpt lat="47.47551" lon="6.86332">
        <ele>366.1</ele>
        <time>2014-09-28T09:34:49.000Z</time>
      </trkpt>
      <trkpt lat="47.47555" lon="6.86324">
        <ele>367.2</ele>
        <time>2014-09-28T09:34:50.000Z</time>
      </trkpt>
      <trkpt lat="47.47557" lon="6.86321">
        <ele>368.1</ele>
        <time>2014-09-28T09:34:51.000Z</time>
      </trkpt>
      <trkpt lat="47.47559" lon="6.86316">
        <ele>368.3</ele>
        <time>2014-09-28T09:34:52.000Z</time>
      </trkpt>
      <trkpt lat="47.4756" lon="6.86312">
        <ele>368.6</ele>
        <time>2014-09-28T09:34:53.000Z</time>
      </trkpt>
      <trkpt lat="47.47562" lon="6.86307">
        <ele>368.8</ele>
        <time>2014-09-28T09:34:54.000Z</time>
      </trkpt>
      <trkpt lat="47.47562" lon="6.86301">
        <ele>369.7</ele>
        <time>2014-09-28T09:34:55.000Z</time>
      </trkpt>
      <trkpt lat="47.47564" lon="6.86297">
        <ele>370.1</ele>
        <time>2014-09-28T09:34:56.000Z</time>
      </trkpt>
      <trkpt lat="47.47565" lon="6.86293">
        <ele>370.7</ele>
        <time>2014-09-28T09:34:57.000Z</time>
      </trkpt>
      <trkpt lat="47.47566" lon="6.8629">
        <ele>371.5</ele>
        <time>2014-09-28T09:34:58.000Z</time>
      </trkpt>
      <trkpt lat="47.47567" lon="6.86284">
        <ele>372.2</ele>
        <time>2014-09-28T09:34:59.000Z</time>
      </trkpt>
      <trkpt lat="47.47568" lon="6.86282">
        <ele>372.8</ele>
        <time>2014-09-28T09:35:00.000Z</time>
      </trkpt>
      <trkpt lat="47.47569" lon="6.86276">
        <ele>371.7</ele>
        <time>2014-09-28T09:35:02.000Z</time>
      </trkpt>
      <trkpt lat="47.47569" lon="6.86273">
        <ele>371.9</ele>
        <time>2014-09-28T09:35:03.000Z</time>
      </trkpt>
      <trkpt lat="47.47569" lon="6.86268">
        <ele>371.1</ele>
        <time>2014-09-28T09:35:05.000Z</time>
      </trkpt>
      <trkpt lat="47.4757" lon="6.86265">
        <ele>370.7</ele>
        <time>2014-09-28T09:35:06.000Z</time>
      </trkpt>
      <trkpt lat="47.4757" lon="6.86262">
        <ele>370.7</ele>
        <time>2014-09-28T09:35:07.000Z</time>
      </trkpt>
      <trkpt lat="47.47571" lon="6.86258">
        <ele>372.1</ele>
        <time>2014-09-28T09:35:08.000Z</time>
      </trkpt>
      <trkpt lat="47.47571" lon="6.86253">
        <ele>371.8</ele>
        <time>2014-09-28T09:35:09.000Z</time>
      </trkpt>
      <trkpt lat="47.47572" lon="6.86247">
        <ele>372.7</ele>
        <time>2014-09-28T09:35:10.000Z</time>
      </trkpt>
      <trkpt lat="47.47574" lon="6.86242">
        <ele>372.6</ele>
        <time>2014-09-28T09:35:11.000Z</time>
      </trkpt>
      <trkpt lat="47.47575" lon="6.86237">
        <ele>372.6</ele>
        <time>2014-09-28T09:35:12.000Z</time>
      </trkpt>
      <trkpt lat="47.47577" lon="6.86232">
        <ele>372.7</ele>
        <time>2014-09-28T09:35:13.000Z</time>
      </trkpt>
      <trkpt lat="47.47578" lon="6.86227">
        <ele>371.2</ele>
        <time>2014-09-28T09:35:14.000Z</time>
      </trkpt>
      <trkpt lat="47.4758" lon="6.86222">
        <ele>370.8</ele>
        <time>2014-09-28T09:35:15.000Z</time>
      </trkpt>
      <trkpt lat="47.47581" lon="6.86218">
        <ele>370.4</ele>
        <time>2014-09-28T09:35:16.000Z</time>
      </trkpt>
      <trkpt lat="47.47582" lon="6.86213">
        <ele>366.7</ele>
        <time>2014-09-28T09:35:17.000Z</time>
      </trkpt>
      <trkpt lat="47.47583" lon="6.86208">
        <ele>365.5</ele>
        <time>2014-09-28T09:35:18.000Z</time>
      </trkpt>
      <trkpt lat="47.47583" lon="6.86204">
        <ele>363.8</ele>
        <time>2014-09-28T09:35:19.000Z</time>
      </trkpt>
      <trkpt lat="47.47584" lon="6.86201">
        <ele>363.2</ele>
        <time>2014-09-28T09:35:20.000Z</time>
      </trkpt>
      <trkpt lat="47.47584" lon="6.86198">
        <ele>363</ele>
        <time>2014-09-28T09:35:21.000Z</time>
      </trkpt>
      <trkpt lat="47.47585" lon="6.86195">
        <ele>363.5</ele>
        <time>2014-09-28T09:35:22.000Z</time>
      </trkpt>
      <trkpt lat="47.47585" lon="6.86191">
        <ele>363.4</ele>
        <time>2014-09-28T09:35:23.000Z</time>
      </trkpt>
      <trkpt lat="47.47586" lon="6.86188">
        <ele>363.3</ele>
        <time>2014-09-28T09:35:24.000Z</time>
      </trkpt>
      <trkpt lat="47.47586" lon="6.86184">
        <ele>364.2</ele>
        <time>2014-09-28T09:35:25.000Z</time>
      </trkpt>
      <trkpt lat="47.47587" lon="6.8618">
        <ele>365.5</ele>
        <time>2014-09-28T09:35:26.000Z</time>
      </trkpt>
      <trkpt lat="47.47589" lon="6.86171">
        <ele>354.3</ele>
        <time>2014-09-28T09:35:29.000Z</time>
      </trkpt>
      <trkpt lat="47.4759" lon="6.86168">
        <ele>354.8</ele>
        <time>2014-09-28T09:35:30.000Z</time>
      </trkpt>
      <trkpt lat="47.4759" lon="6.86164">
        <ele>355.4</ele>
        <time>2014-09-28T09:35:31.000Z</time>
      </trkpt>
      <trkpt lat="47.4759" lon="6.86159">
        <ele>355.7</ele>
        <time>2014-09-28T09:35:32.000Z</time>
      </trkpt>
      <trkpt lat="47.4759" lon="6.86155">
        <ele>356.1</ele>
        <time>2014-09-28T09:35:33.000Z</time>
      </trkpt>
      <trkpt lat="47.4759" lon="6.86151">
        <ele>356.2</ele>
        <time>2014-09-28T09:35:34.000Z</time>
      </trkpt>
      <trkpt lat="47.47592" lon="6.86146">
        <ele>356.1</ele>
        <time>2014-09-28T09:35:35.000Z</time>
      </trkpt>
      <trkpt lat="47.47593" lon="6.86141">
        <ele>356</ele>
        <time>2014-09-28T09:35:36.000Z</time>
      </trkpt>
      <trkpt lat="47.47595" lon="6.86136">
        <ele>356.2</ele>
        <time>2014-09-28T09:35:37.000Z</time>
      </trkpt>
      <trkpt lat="47.47596" lon="6.86131">
        <ele>356.5</ele>
        <time>2014-09-28T09:35:38.000Z</time>
      </trkpt>
      <trkpt lat="47.47598" lon="6.86126">
        <ele>357.4</ele>
        <time>2014-09-28T09:35:39.000Z</time>
      </trkpt>
      <trkpt lat="47.476" lon="6.86121">
        <ele>357.2</ele>
        <time>2014-09-28T09:35:40.000Z</time>
      </trkpt>
      <trkpt lat="47.47603" lon="6.86114">
        <ele>358.8</ele>
        <time>2014-09-28T09:35:41.000Z</time>
      </trkpt>
      <trkpt lat="47.47606" lon="6.86107">
        <ele>360.1</ele>
        <time>2014-09-28T09:35:42.000Z</time>
      </trkpt>
      <trkpt lat="47.47609" lon="6.86099">
        <ele>361.9</ele>
        <time>2014-09-28T09:35:43.000Z</time>
      </trkpt>
      <trkpt lat="47.47612" lon="6.86091">
        <ele>362.9</ele>
        <time>2014-09-28T09:35:44.000Z</time>
      </trkpt>
      <trkpt lat="47.47615" lon="6.86083">
        <ele>364.6</ele>
        <time>2014-09-28T09:35:45.000Z</time>
      </trkpt>
      <trkpt lat="47.47625" lon="6.8605">
        <ele>364.9</ele>
        <time>2014-09-28T09:35:46.000Z</time>
      </trkpt>
      <trkpt lat="47.47629" lon="6.86041">
        <ele>366.5</ele>
        <time>2014-09-28T09:35:47.000Z</time>
      </trkpt>
      <trkpt lat="47.4763" lon="6.86034">
        <ele>367.3</ele>
        <time>2014-09-28T09:35:48.000Z</time>
      </trkpt>
      <trkpt lat="47.47631" lon="6.86028">
        <ele>366.9</ele>
        <time>2014-09-28T09:35:49.000Z</time>
      </trkpt>
      <trkpt lat="47.47632" lon="6.86024">
        <ele>366.2</ele>
        <time>2014-09-28T09:35:50.000Z</time>
      </trkpt>
      <trkpt lat="47.47633" lon="6.86018">
        <ele>366.3</ele>
        <time>2014-09-28T09:35:51.000Z</time>
      </trkpt>
      <trkpt lat="47.47635" lon="6.86009">
        <ele>366.7</ele>
        <time>2014-09-28T09:35:52.000Z</time>
      </trkpt>
      <trkpt lat="47.47639" lon="6.85998">
        <ele>366.8</ele>
        <time>2014-09-28T09:35:53.000Z</time>
      </trkpt>
      <trkpt lat="47.47642" lon="6.85989">
        <ele>367.7</ele>
        <time>2014-09-28T09:35:54.000Z</time>
      </trkpt>
      <trkpt lat="47.47645" lon="6.8598">
        <ele>368.5</ele>
        <time>2014-09-28T09:35:55.000Z</time>
      </trkpt>
      <trkpt lat="47.47648" lon="6.85972">
        <ele>369.3</ele>
        <time>2014-09-28T09:35:56.000Z</time>
      </trkpt>
      <trkpt lat="47.47648" lon="6.85966">
        <ele>370.7</ele>
        <time>2014-09-28T09:35:57.000Z</time>
      </trkpt>
      <trkpt lat="47.47649" lon="6.8596">
        <ele>370.8</ele>
        <time>2014-09-28T09:35:58.000Z</time>
      </trkpt>
      <trkpt lat="47.47649" lon="6.85954">
        <ele>371.2</ele>
        <time>2014-09-28T09:35:59.000Z</time>
      </trkpt>
      <trkpt lat="47.47649" lon="6.85949">
        <ele>371.5</ele>
        <time>2014-09-28T09:36:00.000Z</time>
      </trkpt>
      <trkpt lat="47.47649" lon="6.85944">
        <ele>371.3</ele>
        <time>2014-09-28T09:36:01.000Z</time>
      </trkpt>
      <trkpt lat="47.47649" lon="6.85939">
        <ele>372.4</ele>
        <time>2014-09-28T09:36:02.000Z</time>
      </trkpt>
      <trkpt lat="47.47649" lon="6.85933">
        <ele>372</ele>
        <time>2014-09-28T09:36:03.000Z</time>
      </trkpt>
      <trkpt lat="47.47648" lon="6.85927">
        <ele>371.8</ele>
        <time>2014-09-28T09:36:04.000Z</time>
      </trkpt>
      <trkpt lat="47.47647" lon="6.85921">
        <ele>372.2</ele>
        <time>2014-09-28T09:36:05.000Z</time>
      </trkpt>
      <trkpt lat="47.47647" lon="6.85915">
        <ele>372.8</ele>
        <time>2014-09-28T09:36:06.000Z</time>
      </trkpt>
      <trkpt lat="47.47647" lon="6.8591">
        <ele>373.8</ele>
        <time>2014-09-28T09:36:07.000Z</time>
      </trkpt>
      <trkpt lat="47.47647" lon="6.85904">
        <ele>374</ele>
        <time>2014-09-28T09:36:08.000Z</time>
      </trkpt>
      <trkpt lat="47.47647" lon="6.85897">
        <ele>374</ele>
        <time>2014-09-28T09:36:09.000Z</time>
      </trkpt>
      <trkpt lat="47.47648" lon="6.8589">
        <ele>374.2</ele>
        <time>2014-09-28T09:36:10.000Z</time>
      </trkpt>
      <trkpt lat="47.47649" lon="6.85883">
        <ele>373.9</ele>
        <time>2014-09-28T09:36:11.000Z</time>
      </trkpt>
      <trkpt lat="47.47649" lon="6.85876">
        <ele>373.6</ele>
        <time>2014-09-28T09:36:12.000Z</time>
      </trkpt>
      <trkpt lat="47.4765" lon="6.85868">
        <ele>373.3</ele>
        <time>2014-09-28T09:36:13.000Z</time>
      </trkpt>
      <trkpt lat="47.47651" lon="6.85861">
        <ele>373.3</ele>
        <time>2014-09-28T09:36:14.000Z</time>
      </trkpt>
      <trkpt lat="47.47652" lon="6.85852">
        <ele>372</ele>
        <time>2014-09-28T09:36:15.000Z</time>
      </trkpt>
      <trkpt lat="47.47653" lon="6.85844">
        <ele>372.3</ele>
        <time>2014-09-28T09:36:16.000Z</time>
      </trkpt>
      <trkpt lat="47.47655" lon="6.85835">
        <ele>371.4</ele>
        <time>2014-09-28T09:36:17.000Z</time>
      </trkpt>
      <trkpt lat="47.47656" lon="6.85826">
        <ele>371.3</ele>
        <time>2014-09-28T09:36:18.000Z</time>
      </trkpt>
      <trkpt lat="47.47657" lon="6.85817">
        <ele>372</ele>
        <time>2014-09-28T09:36:19.000Z</time>
      </trkpt>
      <trkpt lat="47.47659" lon="6.85808">
        <ele>373.1</ele>
        <time>2014-09-28T09:36:20.000Z</time>
      </trkpt>
      <trkpt lat="47.47661" lon="6.858">
        <ele>374.9</ele>
        <time>2014-09-28T09:36:21.000Z</time>
      </trkpt>
      <trkpt lat="47.47662" lon="6.85792">
        <ele>374.4</ele>
        <time>2014-09-28T09:36:22.000Z</time>
      </trkpt>
      <trkpt lat="47.47664" lon="6.85785">
        <ele>374.1</ele>
        <time>2014-09-28T09:36:23.000Z</time>
      </trkpt>
      <trkpt lat="47.47665" lon="6.85778">
        <ele>373.7</ele>
        <time>2014-09-28T09:36:24.000Z</time>
      </trkpt>
      <trkpt lat="47.47668" lon="6.85771">
        <ele>371</ele>
        <time>2014-09-28T09:36:25.000Z</time>
      </trkpt>
      <trkpt lat="47.47683" lon="6.85736">
        <ele>367.3</ele>
        <time>2014-09-28T09:36:26.000Z</time>
      </trkpt>
      <trkpt lat="47.47695" lon="6.85719">
        <ele>354.4</ele>
        <time>2014-09-28T09:36:29.000Z</time>
      </trkpt>
      <trkpt lat="47.477" lon="6.85716">
        <ele>353.9</ele>
        <time>2014-09-28T09:36:30.000Z</time>
      </trkpt>
      <trkpt lat="47.47706" lon="6.85713">
        <ele>350.4</ele>
        <time>2014-09-28T09:36:31.000Z</time>
      </trkpt>
      <trkpt lat="47.47712" lon="6.85711">
        <ele>348.2</ele>
        <time>2014-09-28T09:36:32.000Z</time>
      </trkpt>
      <trkpt lat="47.47718" lon="6.85709">
        <ele>346.7</ele>
        <time>2014-09-28T09:36:33.000Z</time>
      </trkpt>
      <trkpt lat="47.47724" lon="6.85708">
        <ele>345.8</ele>
        <time>2014-09-28T09:36:34.000Z</time>
      </trkpt>
      <trkpt lat="47.47729" lon="6.85707">
        <ele>344.8</ele>
        <time>2014-09-28T09:36:35.000Z</time>
      </trkpt>
      <trkpt lat="47.47734" lon="6.85706">
        <ele>344.3</ele>
        <time>2014-09-28T09:36:36.000Z</time>
      </trkpt>
      <trkpt lat="47.47739" lon="6.85706">
        <ele>342.7</ele>
        <time>2014-09-28T09:36:37.000Z</time>
      </trkpt>
      <trkpt lat="47.47744" lon="6.85704">
        <ele>342.5</ele>
        <time>2014-09-28T09:36:38.000Z</time>
      </trkpt>
      <trkpt lat="47.47748" lon="6.85703">
        <ele>341.6</ele>
        <time>2014-09-28T09:36:39.000Z</time>
      </trkpt>
      <trkpt lat="47.47753" lon="6.85701">
        <ele>340.7</ele>
        <time>2014-09-28T09:36:40.000Z</time>
      </trkpt>
      <trkpt lat="47.47758" lon="6.85701">
        <ele>340.1</ele>
        <time>2014-09-28T09:36:41.000Z</time>
      </trkpt>
      <trkpt lat="47.47762" lon="6.85701">
        <ele>340.3</ele>
        <time>2014-09-28T09:36:42.000Z</time>
      </trkpt>
      <trkpt lat="47.47766" lon="6.85701">
        <ele>341.3</ele>
        <time>2014-09-28T09:36:43.000Z</time>
      </trkpt>
      <trkpt lat="47.4777" lon="6.85702">
        <ele>340.9</ele>
        <time>2014-09-28T09:36:44.000Z</time>
      </trkpt>
      <trkpt lat="47.47773" lon="6.85702">
        <ele>340</ele>
        <time>2014-09-28T09:36:45.000Z</time>
      </trkpt>
      <trkpt lat="47.47776" lon="6.85702">
        <ele>339.8</ele>
        <time>2014-09-28T09:36:46.000Z</time>
      </trkpt>
      <trkpt lat="47.47779" lon="6.85701">
        <ele>340.1</ele>
        <time>2014-09-28T09:36:47.000Z</time>
      </trkpt>
      <trkpt lat="47.47782" lon="6.85701">
        <ele>340</ele>
        <time>2014-09-28T09:36:48.000Z</time>
      </trkpt>
      <trkpt lat="47.47785" lon="6.85699">
        <ele>338.8</ele>
        <time>2014-09-28T09:36:49.000Z</time>
      </trkpt>
      <trkpt lat="47.47788" lon="6.85698">
        <ele>337.8</ele>
        <time>2014-09-28T09:36:50.000Z</time>
      </trkpt>
      <trkpt lat="47.47791" lon="6.85695">
        <ele>337.7</ele>
        <time>2014-09-28T09:36:51.000Z</time>
      </trkpt>
      <trkpt lat="47.47794" lon="6.85692">
        <ele>337.3</ele>
        <time>2014-09-28T09:36:52.000Z</time>
      </trkpt>
      <trkpt lat="47.47797" lon="6.85689">
        <ele>336.9</ele>
        <time>2014-09-28T09:36:53.000Z</time>
      </trkpt>
      <trkpt lat="47.478" lon="6.85685">
        <ele>336.4</ele>
        <time>2014-09-28T09:36:54.000Z</time>
      </trkpt>
      <trkpt lat="47.47803" lon="6.85682">
        <ele>336</ele>
        <time>2014-09-28T09:36:55.000Z</time>
      </trkpt>
      <trkpt lat="47.47805" lon="6.85677">
        <ele>337.1</ele>
        <time>2014-09-28T09:36:56.000Z</time>
      </trkpt>
      <trkpt lat="47.47807" lon="6.85672">
        <ele>336.8</ele>
        <time>2014-09-28T09:36:57.000Z</time>
      </trkpt>
      <trkpt lat="47.47809" lon="6.85669">
        <ele>337.5</ele>
        <time>2014-09-28T09:36:58.000Z</time>
      </trkpt>
      <trkpt lat="47.47812" lon="6.85668">
        <ele>338.2</ele>
        <time>2014-09-28T09:36:59.000Z</time>
      </trkpt>
      <trkpt lat="47.47815" lon="6.85668">
        <ele>339</ele>
        <time>2014-09-28T09:37:00.000Z</time>
      </trkpt>
      <trkpt lat="47.47819" lon="6.85669">
        <ele>338.3</ele>
        <time>2014-09-28T09:37:01.000Z</time>
      </trkpt>
      <trkpt lat="47.47821" lon="6.85668">
        <ele>340.7</ele>
        <time>2014-09-28T09:37:02.000Z</time>
      </trkpt>
      <trkpt lat="47.47824" lon="6.85666">
        <ele>342.4</ele>
        <time>2014-09-28T09:37:03.000Z</time>
      </trkpt>
      <trkpt lat="47.47826" lon="6.85663">
        <ele>343.4</ele>
        <time>2014-09-28T09:37:04.000Z</time>
      </trkpt>
      <trkpt lat="47.47829" lon="6.85659">
        <ele>344.4</ele>
        <time>2014-09-28T09:37:05.000Z</time>
      </trkpt>
      <trkpt lat="47.47831" lon="6.85656">
        <ele>345</ele>
        <time>2014-09-28T09:37:06.000Z</time>
      </trkpt>
      <trkpt lat="47.47833" lon="6.85652">
        <ele>345.4</ele>
        <time>2014-09-28T09:37:07.000Z</time>
      </trkpt>
      <trkpt lat="47.47835" lon="6.85647">
        <ele>345.4</ele>
        <time>2014-09-28T09:37:08.000Z</time>
      </trkpt>
      <trkpt lat="47.47837" lon="6.85643">
        <ele>346.7</ele>
        <time>2014-09-28T09:37:09.000Z</time>
      </trkpt>
      <trkpt lat="47.47839" lon="6.85639">
        <ele>347.9</ele>
        <time>2014-09-28T09:37:10.000Z</time>
      </trkpt>
      <trkpt lat="47.4784" lon="6.85634">
        <ele>347.8</ele>
        <time>2014-09-28T09:37:11.000Z</time>
      </trkpt>
      <trkpt lat="47.47841" lon="6.85629">
        <ele>347.8</ele>
        <time>2014-09-28T09:37:12.000Z</time>
      </trkpt>
      <trkpt lat="47.47841" lon="6.85624">
        <ele>348.1</ele>
        <time>2014-09-28T09:37:13.000Z</time>
      </trkpt>
      <trkpt lat="47.47841" lon="6.85619">
        <ele>348.3</ele>
        <time>2014-09-28T09:37:14.000Z</time>
      </trkpt>
      <trkpt lat="47.47841" lon="6.85614">
        <ele>348.4</ele>
        <time>2014-09-28T09:37:15.000Z</time>
      </trkpt>
      <trkpt lat="47.47841" lon="6.8561">
        <ele>348.4</ele>
        <time>2014-09-28T09:37:16.000Z</time>
      </trkpt>
      <trkpt lat="47.4784" lon="6.85605">
        <ele>348.3</ele>
        <time>2014-09-28T09:37:17.000Z</time>
      </trkpt>
      <trkpt lat="47.4784" lon="6.85601">
        <ele>348.4</ele>
        <time>2014-09-28T09:37:18.000Z</time>
      </trkpt>
      <trkpt lat="47.47839" lon="6.85595">
        <ele>348.6</ele>
        <time>2014-09-28T09:37:19.000Z</time>
      </trkpt>
      <trkpt lat="47.47838" lon="6.8559">
        <ele>348.7</ele>
        <time>2014-09-28T09:37:20.000Z</time>
      </trkpt>
      <trkpt lat="47.47837" lon="6.85585">
        <ele>348.5</ele>
        <time>2014-09-28T09:37:21.000Z</time>
      </trkpt>
      <trkpt lat="47.47836" lon="6.8558">
        <ele>348.4</ele>
        <time>2014-09-28T09:37:22.000Z</time>
      </trkpt>
      <trkpt lat="47.47835" lon="6.85575">
        <ele>348.3</ele>
        <time>2014-09-28T09:37:23.000Z</time>
      </trkpt>
      <trkpt lat="47.47834" lon="6.8557">
        <ele>348.2</ele>
        <time>2014-09-28T09:37:24.000Z</time>
      </trkpt>
      <trkpt lat="47.47833" lon="6.85565">
        <ele>348.3</ele>
        <time>2014-09-28T09:37:25.000Z</time>
      </trkpt>
      <trkpt lat="47.47833" lon="6.8556">
        <ele>348.3</ele>
        <time>2014-09-28T09:37:26.000Z</time>
      </trkpt>
      <trkpt lat="47.47832" lon="6.85554">
        <ele>348.6</ele>
        <time>2014-09-28T09:37:27.000Z</time>
      </trkpt>
      <trkpt lat="47.4783" lon="6.85537">
        <ele>333.4</ele>
        <time>2014-09-28T09:37:30.000Z</time>
      </trkpt>
      <trkpt lat="47.4783" lon="6.85529">
        <ele>333.4</ele>
        <time>2014-09-28T09:37:31.000Z</time>
      </trkpt>
      <trkpt lat="47.47829" lon="6.85522">
        <ele>333.8</ele>
        <time>2014-09-28T09:37:32.000Z</time>
      </trkpt>
      <trkpt lat="47.47827" lon="6.85515">
        <ele>334</ele>
        <time>2014-09-28T09:37:33.000Z</time>
      </trkpt>
      <trkpt lat="47.47825" lon="6.85507">
        <ele>334.6</ele>
        <time>2014-09-28T09:37:34.000Z</time>
      </trkpt>
      <trkpt lat="47.47824" lon="6.85499">
        <ele>334.9</ele>
        <time>2014-09-28T09:37:35.000Z</time>
      </trkpt>
      <trkpt lat="47.47822" lon="6.85491">
        <ele>335.2</ele>
        <time>2014-09-28T09:37:36.000Z</time>
      </trkpt>
      <trkpt lat="47.47821" lon="6.85483">
        <ele>339</ele>
        <time>2014-09-28T09:37:37.000Z</time>
      </trkpt>
      <trkpt lat="47.47819" lon="6.85475">
        <ele>339.9</ele>
        <time>2014-09-28T09:37:38.000Z</time>
      </trkpt>
      <trkpt lat="47.47818" lon="6.85467">
        <ele>340.5</ele>
        <time>2014-09-28T09:37:39.000Z</time>
      </trkpt>
      <trkpt lat="47.47818" lon="6.85448">
        <ele>341.3</ele>
        <time>2014-09-28T09:37:40.000Z</time>
      </trkpt>
      <trkpt lat="47.47816" lon="6.85437">
        <ele>340.1</ele>
        <time>2014-09-28T09:37:41.000Z</time>
      </trkpt>
      <trkpt lat="47.47815" lon="6.85428">
        <ele>340.7</ele>
        <time>2014-09-28T09:37:42.000Z</time>
      </trkpt>
      <trkpt lat="47.47814" lon="6.85419">
        <ele>340.5</ele>
        <time>2014-09-28T09:37:43.000Z</time>
      </trkpt>
      <trkpt lat="47.47813" lon="6.85408">
        <ele>339.9</ele>
        <time>2014-09-28T09:37:44.000Z</time>
      </trkpt>
      <trkpt lat="47.47813" lon="6.85398">
        <ele>339.2</ele>
        <time>2014-09-28T09:37:45.000Z</time>
      </trkpt>
      <trkpt lat="47.47812" lon="6.85389">
        <ele>339</ele>
        <time>2014-09-28T09:37:46.000Z</time>
      </trkpt>
      <trkpt lat="47.47812" lon="6.85378">
        <ele>339.2</ele>
        <time>2014-09-28T09:37:47.000Z</time>
      </trkpt>
      <trkpt lat="47.47812" lon="6.85368">
        <ele>338.8</ele>
        <time>2014-09-28T09:37:48.000Z</time>
      </trkpt>
      <trkpt lat="47.47812" lon="6.85358">
        <ele>339.3</ele>
        <time>2014-09-28T09:37:49.000Z</time>
      </trkpt>
      <trkpt lat="47.47812" lon="6.85348">
        <ele>339.8</ele>
        <time>2014-09-28T09:37:50.000Z</time>
      </trkpt>
      <trkpt lat="47.47813" lon="6.85338">
        <ele>339.6</ele>
        <time>2014-09-28T09:37:51.000Z</time>
      </trkpt>
      <trkpt lat="47.47812" lon="6.8533">
        <ele>339.8</ele>
        <time>2014-09-28T09:37:52.000Z</time>
      </trkpt>
      <trkpt lat="47.47813" lon="6.85319">
        <ele>339.2</ele>
        <time>2014-09-28T09:37:53.000Z</time>
      </trkpt>
      <trkpt lat="47.47813" lon="6.85311">
        <ele>340.2</ele>
        <time>2014-09-28T09:37:54.000Z</time>
      </trkpt>
      <trkpt lat="47.47812" lon="6.85302">
        <ele>341.3</ele>
        <time>2014-09-28T09:37:55.000Z</time>
      </trkpt>
      <trkpt lat="47.47813" lon="6.85293">
        <ele>340.8</ele>
        <time>2014-09-28T09:37:56.000Z</time>
      </trkpt>
      <trkpt lat="47.47814" lon="6.85283">
        <ele>340.9</ele>
        <time>2014-09-28T09:37:57.000Z</time>
      </trkpt>
      <trkpt lat="47.47813" lon="6.85275">
        <ele>342.9</ele>
        <time>2014-09-28T09:37:58.000Z</time>
      </trkpt>
      <trkpt lat="47.47813" lon="6.85263">
        <ele>343.2</ele>
        <time>2014-09-28T09:37:59.000Z</time>
      </trkpt>
      <trkpt lat="47.47814" lon="6.85252">
        <ele>342.1</ele>
        <time>2014-09-28T09:38:00.000Z</time>
      </trkpt>
      <trkpt lat="47.47814" lon="6.85242">
        <ele>342.7</ele>
        <time>2014-09-28T09:38:01.000Z</time>
      </trkpt>
      <trkpt lat="47.47814" lon="6.8523">
        <ele>341.9</ele>
        <time>2014-09-28T09:38:02.000Z</time>
      </trkpt>
      <trkpt lat="47.47816" lon="6.8522">
        <ele>342</ele>
        <time>2014-09-28T09:38:03.000Z</time>
      </trkpt>
      <trkpt lat="47.47818" lon="6.85206">
        <ele>341.1</ele>
        <time>2014-09-28T09:38:04.000Z</time>
      </trkpt>
      <trkpt lat="47.4782" lon="6.85195">
        <ele>340.8</ele>
        <time>2014-09-28T09:38:05.000Z</time>
      </trkpt>
      <trkpt lat="47.4782" lon="6.85185">
        <ele>341.2</ele>
        <time>2014-09-28T09:38:06.000Z</time>
      </trkpt>
      <trkpt lat="47.47822" lon="6.85174">
        <ele>341.5</ele>
        <time>2014-09-28T09:38:07.000Z</time>
      </trkpt>
      <trkpt lat="47.47825" lon="6.85164">
        <ele>341.4</ele>
        <time>2014-09-28T09:38:08.000Z</time>
      </trkpt>
      <trkpt lat="47.47826" lon="6.85154">
        <ele>341.1</ele>
        <time>2014-09-28T09:38:09.000Z</time>
      </trkpt>
      <trkpt lat="47.47828" lon="6.85144">
        <ele>341.3</ele>
        <time>2014-09-28T09:38:10.000Z</time>
      </trkpt>
      <trkpt lat="47.47829" lon="6.85136">
        <ele>340.8</ele>
        <time>2014-09-28T09:38:11.000Z</time>
      </trkpt>
      <trkpt lat="47.47832" lon="6.85128">
        <ele>340.5</ele>
        <time>2014-09-28T09:38:12.000Z</time>
      </trkpt>
      <trkpt lat="47.47833" lon="6.85118">
        <ele>340.8</ele>
        <time>2014-09-28T09:38:13.000Z</time>
      </trkpt>
      <trkpt lat="47.47836" lon="6.8511">
        <ele>341</ele>
        <time>2014-09-28T09:38:14.000Z</time>
      </trkpt>
      <trkpt lat="47.47839" lon="6.85101">
        <ele>340.8</ele>
        <time>2014-09-28T09:38:15.000Z</time>
      </trkpt>
      <trkpt lat="47.47843" lon="6.85093">
        <ele>340.9</ele>
        <time>2014-09-28T09:38:16.000Z</time>
      </trkpt>
      <trkpt lat="47.47846" lon="6.85083">
        <ele>341</ele>
        <time>2014-09-28T09:38:17.000Z</time>
      </trkpt>
      <trkpt lat="47.47848" lon="6.85073">
        <ele>340.4</ele>
        <time>2014-09-28T09:38:18.000Z</time>
      </trkpt>
      <trkpt lat="47.47851" lon="6.85061">
        <ele>340.4</ele>
        <time>2014-09-28T09:38:19.000Z</time>
      </trkpt>
      <trkpt lat="47.47852" lon="6.85049">
        <ele>339.8</ele>
        <time>2014-09-28T09:38:20.000Z</time>
      </trkpt>
      <trkpt lat="47.47856" lon="6.85035">
        <ele>339.7</ele>
        <time>2014-09-28T09:38:21.000Z</time>
      </trkpt>
      <trkpt lat="47.4786" lon="6.85024">
        <ele>339.8</ele>
        <time>2014-09-28T09:38:22.038Z</time>
      </trkpt>
      <trkpt lat="47.47868" lon="6.85006">
        <ele>339.3</ele>
        <time>2014-09-28T09:38:23.000Z</time>
      </trkpt>
      <trkpt lat="47.47875" lon="6.84992">
        <ele>340.1</ele>
        <time>2014-09-28T09:38:24.000Z</time>
      </trkpt>
      <trkpt lat="47.4788" lon="6.84981">
        <ele>340.6</ele>
        <time>2014-09-28T09:38:25.000Z</time>
      </trkpt>
      <trkpt lat="47.47885" lon="6.84971">
        <ele>340.9</ele>
        <time>2014-09-28T09:38:26.000Z</time>
      </trkpt>
      <trkpt lat="47.47902" lon="6.84938">
        <ele>330.1</ele>
        <time>2014-09-28T09:38:29.000Z</time>
      </trkpt>
      <trkpt lat="47.47907" lon="6.8493">
        <ele>330.8</ele>
        <time>2014-09-28T09:38:30.000Z</time>
      </trkpt>
      <trkpt lat="47.47912" lon="6.84922">
        <ele>331.6</ele>
        <time>2014-09-28T09:38:31.000Z</time>
      </trkpt>
      <trkpt lat="47.47915" lon="6.84914">
        <ele>332.1</ele>
        <time>2014-09-28T09:38:32.000Z</time>
      </trkpt>
      <trkpt lat="47.47919" lon="6.84907">
        <ele>332.7</ele>
        <time>2014-09-28T09:38:33.000Z</time>
      </trkpt>
      <trkpt lat="47.47923" lon="6.849">
        <ele>332.6</ele>
        <time>2014-09-28T09:38:34.000Z</time>
      </trkpt>
      <trkpt lat="47.47927" lon="6.84894">
        <ele>333.4</ele>
        <time>2014-09-28T09:38:35.000Z</time>
      </trkpt>
      <trkpt lat="47.47931" lon="6.84888">
        <ele>334.7</ele>
        <time>2014-09-28T09:38:36.000Z</time>
      </trkpt>
      <trkpt lat="47.47936" lon="6.84881">
        <ele>334.3</ele>
        <time>2014-09-28T09:38:37.000Z</time>
      </trkpt>
      <trkpt lat="47.47941" lon="6.84874">
        <ele>334.9</ele>
        <time>2014-09-28T09:38:38.000Z</time>
      </trkpt>
      <trkpt lat="47.47946" lon="6.84869">
        <ele>335.9</ele>
        <time>2014-09-28T09:38:39.000Z</time>
      </trkpt>
      <trkpt lat="47.47951" lon="6.84862">
        <ele>336.5</ele>
        <time>2014-09-28T09:38:40.000Z</time>
      </trkpt>
      <trkpt lat="47.47956" lon="6.84855">
        <ele>337.3</ele>
        <time>2014-09-28T09:38:41.000Z</time>
      </trkpt>
      <trkpt lat="47.47961" lon="6.84848">
        <ele>337.5</ele>
        <time>2014-09-28T09:38:42.000Z</time>
      </trkpt>
      <trkpt lat="47.47967" lon="6.84842">
        <ele>337.4</ele>
        <time>2014-09-28T09:38:43.000Z</time>
      </trkpt>
      <trkpt lat="47.47973" lon="6.84836">
        <ele>338</ele>
        <time>2014-09-28T09:38:44.000Z</time>
      </trkpt>
      <trkpt lat="47.47978" lon="6.84829">
        <ele>337.7</ele>
        <time>2014-09-28T09:38:45.000Z</time>
      </trkpt>
      <trkpt lat="47.47984" lon="6.84822">
        <ele>338.1</ele>
        <time>2014-09-28T09:38:46.000Z</time>
      </trkpt>
      <trkpt lat="47.47989" lon="6.84815">
        <ele>338.5</ele>
        <time>2014-09-28T09:38:47.000Z</time>
      </trkpt>
      <trkpt lat="47.47995" lon="6.84809">
        <ele>338.9</ele>
        <time>2014-09-28T09:38:48.000Z</time>
      </trkpt>
      <trkpt lat="47.48" lon="6.84803">
        <ele>339.4</ele>
        <time>2014-09-28T09:38:49.000Z</time>
      </trkpt>
      <trkpt lat="47.48006" lon="6.84797">
        <ele>339.7</ele>
        <time>2014-09-28T09:38:50.000Z</time>
      </trkpt>
      <trkpt lat="47.48011" lon="6.8479">
        <ele>339.2</ele>
        <time>2014-09-28T09:38:51.000Z</time>
      </trkpt>
      <trkpt lat="47.48017" lon="6.84784">
        <ele>339.2</ele>
        <time>2014-09-28T09:38:52.000Z</time>
      </trkpt>
      <trkpt lat="47.48022" lon="6.84779">
        <ele>339</ele>
        <time>2014-09-28T09:38:53.000Z</time>
      </trkpt>
      <trkpt lat="47.48028" lon="6.84774">
        <ele>338.7</ele>
        <time>2014-09-28T09:38:54.000Z</time>
      </trkpt>
      <trkpt lat="47.48033" lon="6.84768">
        <ele>338.7</ele>
        <time>2014-09-28T09:38:55.000Z</time>
      </trkpt>
      <trkpt lat="47.48039" lon="6.84763">
        <ele>338.9</ele>
        <time>2014-09-28T09:38:56.000Z</time>
      </trkpt>
      <trkpt lat="47.48045" lon="6.84758">
        <ele>339.7</ele>
        <time>2014-09-28T09:38:57.000Z</time>
      </trkpt>
      <trkpt lat="47.48051" lon="6.84752">
        <ele>339.1</ele>
        <time>2014-09-28T09:38:58.000Z</time>
      </trkpt>
      <trkpt lat="47.48056" lon="6.84747">
        <ele>339.8</ele>
        <time>2014-09-28T09:38:59.000Z</time>
      </trkpt>
      <trkpt lat="47.48063" lon="6.8474">
        <ele>338.9</ele>
        <time>2014-09-28T09:39:00.000Z</time>
      </trkpt>
      <trkpt lat="47.48068" lon="6.84735">
        <ele>339.7</ele>
        <time>2014-09-28T09:39:01.000Z</time>
      </trkpt>
      <trkpt lat="47.48074" lon="6.84729">
        <ele>339.3</ele>
        <time>2014-09-28T09:39:02.000Z</time>
      </trkpt>
      <trkpt lat="47.4808" lon="6.84723">
        <ele>339</ele>
        <time>2014-09-28T09:39:03.000Z</time>
      </trkpt>
      <trkpt lat="47.48086" lon="6.84717">
        <ele>339.1</ele>
        <time>2014-09-28T09:39:04.000Z</time>
      </trkpt>
      <trkpt lat="47.48092" lon="6.84711">
        <ele>338.1</ele>
        <time>2014-09-28T09:39:05.000Z</time>
      </trkpt>
      <trkpt lat="47.48097" lon="6.84705">
        <ele>338</ele>
        <time>2014-09-28T09:39:06.000Z</time>
      </trkpt>
      <trkpt lat="47.48103" lon="6.847">
        <ele>338.9</ele>
        <time>2014-09-28T09:39:07.000Z</time>
      </trkpt>
      <trkpt lat="47.48108" lon="6.84694">
        <ele>339.3</ele>
        <time>2014-09-28T09:39:08.000Z</time>
      </trkpt>
      <trkpt lat="47.48115" lon="6.84688">
        <ele>338.7</ele>
        <time>2014-09-28T09:39:09.000Z</time>
      </trkpt>
      <trkpt lat="47.48122" lon="6.84682">
        <ele>337.8</ele>
        <time>2014-09-28T09:39:10.000Z</time>
      </trkpt>
      <trkpt lat="47.48129" lon="6.84675">
        <ele>337.8</ele>
        <time>2014-09-28T09:39:11.000Z</time>
      </trkpt>
      <trkpt lat="47.48135" lon="6.84668">
        <ele>337.6</ele>
        <time>2014-09-28T09:39:12.000Z</time>
      </trkpt>
      <trkpt lat="47.48141" lon="6.8466">
        <ele>336.7</ele>
        <time>2014-09-28T09:39:13.000Z</time>
      </trkpt>
      <trkpt lat="47.48148" lon="6.84653">
        <ele>337.2</ele>
        <time>2014-09-28T09:39:14.000Z</time>
      </trkpt>
      <trkpt lat="47.48155" lon="6.84646">
        <ele>337.5</ele>
        <time>2014-09-28T09:39:15.000Z</time>
      </trkpt>
      <trkpt lat="47.48162" lon="6.8464">
        <ele>337.8</ele>
        <time>2014-09-28T09:39:16.000Z</time>
      </trkpt>
      <trkpt lat="47.48168" lon="6.84633">
        <ele>338.2</ele>
        <time>2014-09-28T09:39:17.000Z</time>
      </trkpt>
      <trkpt lat="47.48175" lon="6.84626">
        <ele>337.5</ele>
        <time>2014-09-28T09:39:18.000Z</time>
      </trkpt>
      <trkpt lat="47.48182" lon="6.84619">
        <ele>336.3</ele>
        <time>2014-09-28T09:39:19.000Z</time>
      </trkpt>
      <trkpt lat="47.4819" lon="6.84612">
        <ele>335.7</ele>
        <time>2014-09-28T09:39:20.000Z</time>
      </trkpt>
      <trkpt lat="47.48196" lon="6.84605">
        <ele>335.9</ele>
        <time>2014-09-28T09:39:21.000Z</time>
      </trkpt>
      <trkpt lat="47.48202" lon="6.84599">
        <ele>336</ele>
        <time>2014-09-28T09:39:22.000Z</time>
      </trkpt>
      <trkpt lat="47.48209" lon="6.84592">
        <ele>336</ele>
        <time>2014-09-28T09:39:23.000Z</time>
      </trkpt>
      <trkpt lat="47.48216" lon="6.84586">
        <ele>336</ele>
        <time>2014-09-28T09:39:24.000Z</time>
      </trkpt>
      <trkpt lat="47.48222" lon="6.8458">
        <ele>335.9</ele>
        <time>2014-09-28T09:39:25.000Z</time>
      </trkpt>
      <trkpt lat="47.48229" lon="6.84574">
        <ele>335.7</ele>
        <time>2014-09-28T09:39:26.000Z</time>
      </trkpt>
      <trkpt lat="47.48247" lon="6.84554">
        <ele>331.6</ele>
        <time>2014-09-28T09:39:29.000Z</time>
      </trkpt>
      <trkpt lat="47.48253" lon="6.84547">
        <ele>332</ele>
        <time>2014-09-28T09:39:30.000Z</time>
      </trkpt>
      <trkpt lat="47.48259" lon="6.8454">
        <ele>331.6</ele>
        <time>2014-09-28T09:39:31.000Z</time>
      </trkpt>
      <trkpt lat="47.48265" lon="6.84534">
        <ele>331.3</ele>
        <time>2014-09-28T09:39:32.000Z</time>
      </trkpt>
      <trkpt lat="47.4827" lon="6.84529">
        <ele>331.7</ele>
        <time>2014-09-28T09:39:33.000Z</time>
      </trkpt>
      <trkpt lat="47.48276" lon="6.84522">
        <ele>331.7</ele>
        <time>2014-09-28T09:39:34.000Z</time>
      </trkpt>
      <trkpt lat="47.48282" lon="6.84516">
        <ele>331.7</ele>
        <time>2014-09-28T09:39:35.000Z</time>
      </trkpt>
      <trkpt lat="47.48288" lon="6.84511">
        <ele>332</ele>
        <time>2014-09-28T09:39:36.000Z</time>
      </trkpt>
      <trkpt lat="47.48293" lon="6.84506">
        <ele>332.4</ele>
        <time>2014-09-28T09:39:37.000Z</time>
      </trkpt>
      <trkpt lat="47.48299" lon="6.845">
        <ele>332.5</ele>
        <time>2014-09-28T09:39:38.000Z</time>
      </trkpt>
      <trkpt lat="47.48304" lon="6.84494">
        <ele>332.5</ele>
        <time>2014-09-28T09:39:39.000Z</time>
      </trkpt>
      <trkpt lat="47.4831" lon="6.84488">
        <ele>332.2</ele>
        <time>2014-09-28T09:39:40.000Z</time>
      </trkpt>
      <trkpt lat="47.48316" lon="6.84484">
        <ele>332.4</ele>
        <time>2014-09-28T09:39:41.000Z</time>
      </trkpt>
      <trkpt lat="47.48321" lon="6.84478">
        <ele>332.9</ele>
        <time>2014-09-28T09:39:42.000Z</time>
      </trkpt>
      <trkpt lat="47.48327" lon="6.84473">
        <ele>333.3</ele>
        <time>2014-09-28T09:39:43.000Z</time>
      </trkpt>
      <trkpt lat="47.48331" lon="6.84468">
        <ele>333.2</ele>
        <time>2014-09-28T09:39:44.000Z</time>
      </trkpt>
      <trkpt lat="47.48335" lon="6.84466">
        <ele>333.6</ele>
        <time>2014-09-28T09:39:45.000Z</time>
      </trkpt>
      <trkpt lat="47.48339" lon="6.84462">
        <ele>333.7</ele>
        <time>2014-09-28T09:39:46.000Z</time>
      </trkpt>
      <trkpt lat="47.48343" lon="6.84457">
        <ele>333.7</ele>
        <time>2014-09-28T09:39:47.000Z</time>
      </trkpt>
      <trkpt lat="47.4835" lon="6.84452">
        <ele>333.4</ele>
        <time>2014-09-28T09:39:48.000Z</time>
      </trkpt>
      <trkpt lat="47.48355" lon="6.84446">
        <ele>332.5</ele>
        <time>2014-09-28T09:39:49.000Z</time>
      </trkpt>
      <trkpt lat="47.48362" lon="6.84439">
        <ele>333.5</ele>
        <time>2014-09-28T09:39:50.000Z</time>
      </trkpt>
      <trkpt lat="47.48367" lon="6.84433">
        <ele>333.5</ele>
        <time>2014-09-28T09:39:51.000Z</time>
      </trkpt>
      <trkpt lat="47.48374" lon="6.84424">
        <ele>333.9</ele>
        <time>2014-09-28T09:39:52.000Z</time>
      </trkpt>
      <trkpt lat="47.48381" lon="6.84417">
        <ele>334.5</ele>
        <time>2014-09-28T09:39:53.000Z</time>
      </trkpt>
      <trkpt lat="47.48387" lon="6.8441">
        <ele>335</ele>
        <time>2014-09-28T09:39:54.000Z</time>
      </trkpt>
      <trkpt lat="47.48393" lon="6.84403">
        <ele>335</ele>
        <time>2014-09-28T09:39:55.000Z</time>
      </trkpt>
      <trkpt lat="47.484" lon="6.84396">
        <ele>335</ele>
        <time>2014-09-28T09:39:56.000Z</time>
      </trkpt>
      <trkpt lat="47.48407" lon="6.84389">
        <ele>333.8</ele>
        <time>2014-09-28T09:39:57.000Z</time>
      </trkpt>
      <trkpt lat="47.48413" lon="6.84382">
        <ele>334.5</ele>
        <time>2014-09-28T09:39:58.000Z</time>
      </trkpt>
      <trkpt lat="47.4842" lon="6.84375">
        <ele>333.7</ele>
        <time>2014-09-28T09:39:59.000Z</time>
      </trkpt>
      <trkpt lat="47.48426" lon="6.84368">
        <ele>334.2</ele>
        <time>2014-09-28T09:40:00.000Z</time>
      </trkpt>
      <trkpt lat="47.48432" lon="6.8436">
        <ele>334.4</ele>
        <time>2014-09-28T09:40:01.000Z</time>
      </trkpt>
      <trkpt lat="47.48439" lon="6.84353">
        <ele>334.7</ele>
        <time>2014-09-28T09:40:02.000Z</time>
      </trkpt>
      <trkpt lat="47.48445" lon="6.84346">
        <ele>334.4</ele>
        <time>2014-09-28T09:40:03.000Z</time>
      </trkpt>
      <trkpt lat="47.48452" lon="6.84339">
        <ele>333.3</ele>
        <time>2014-09-28T09:40:04.000Z</time>
      </trkpt>
      <trkpt lat="47.48458" lon="6.84331">
        <ele>333.6</ele>
        <time>2014-09-28T09:40:05.000Z</time>
      </trkpt>
      <trkpt lat="47.48464" lon="6.84325">
        <ele>332.9</ele>
        <time>2014-09-28T09:40:06.000Z</time>
      </trkpt>
      <trkpt lat="47.48471" lon="6.84318">
        <ele>332.6</ele>
        <time>2014-09-28T09:40:07.000Z</time>
      </trkpt>
      <trkpt lat="47.48476" lon="6.84311">
        <ele>332.4</ele>
        <time>2014-09-28T09:40:08.000Z</time>
      </trkpt>
      <trkpt lat="47.48481" lon="6.84303">
        <ele>332.5</ele>
        <time>2014-09-28T09:40:09.000Z</time>
      </trkpt>
      <trkpt lat="47.48487" lon="6.84295">
        <ele>332.2</ele>
        <time>2014-09-28T09:40:10.000Z</time>
      </trkpt>
      <trkpt lat="47.48492" lon="6.84288">
        <ele>332.2</ele>
        <time>2014-09-28T09:40:11.000Z</time>
      </trkpt>
      <trkpt lat="47.48498" lon="6.8428">
        <ele>332.5</ele>
        <time>2014-09-28T09:40:12.000Z</time>
      </trkpt>
      <trkpt lat="47.48502" lon="6.84273">
        <ele>333.1</ele>
        <time>2014-09-28T09:40:13.000Z</time>
      </trkpt>
      <trkpt lat="47.48507" lon="6.84265">
        <ele>333.2</ele>
        <time>2014-09-28T09:40:14.000Z</time>
      </trkpt>
      <trkpt lat="47.48513" lon="6.84257">
        <ele>332.7</ele>
        <time>2014-09-28T09:40:15.000Z</time>
      </trkpt>
      <trkpt lat="47.4852" lon="6.8425">
        <ele>332.3</ele>
        <time>2014-09-28T09:40:16.000Z</time>
      </trkpt>
      <trkpt lat="47.48525" lon="6.84243">
        <ele>332.7</ele>
        <time>2014-09-28T09:40:17.000Z</time>
      </trkpt>
      <trkpt lat="47.4853" lon="6.84238">
        <ele>333.6</ele>
        <time>2014-09-28T09:40:18.000Z</time>
      </trkpt>
      <trkpt lat="47.48534" lon="6.8423">
        <ele>333.5</ele>
        <time>2014-09-28T09:40:19.000Z</time>
      </trkpt>
      <trkpt lat="47.48539" lon="6.84223">
        <ele>333.1</ele>
        <time>2014-09-28T09:40:20.000Z</time>
      </trkpt>
      <trkpt lat="47.48544" lon="6.84215">
        <ele>332.8</ele>
        <time>2014-09-28T09:40:21.000Z</time>
      </trkpt>
      <trkpt lat="47.48549" lon="6.84209">
        <ele>333.1</ele>
        <time>2014-09-28T09:40:22.000Z</time>
      </trkpt>
      <trkpt lat="47.48554" lon="6.84204">
        <ele>333.1</ele>
        <time>2014-09-28T09:40:23.000Z</time>
      </trkpt>
      <trkpt lat="47.48559" lon="6.84199">
        <ele>332.7</ele>
        <time>2014-09-28T09:40:24.000Z</time>
      </trkpt>
      <trkpt lat="47.48563" lon="6.84194">
        <ele>332.5</ele>
        <time>2014-09-28T09:40:25.000Z</time>
      </trkpt>
      <trkpt lat="47.48566" lon="6.8419">
        <ele>333.1</ele>
        <time>2014-09-28T09:40:26.000Z</time>
      </trkpt>
      <trkpt lat="47.48573" lon="6.84179">
        <ele>327.6</ele>
        <time>2014-09-28T09:40:28.303Z</time>
      </trkpt>
      <trkpt lat="47.48575" lon="6.84176">
        <ele>327.5</ele>
        <time>2014-09-28T09:40:29.000Z</time>
      </trkpt>
      <trkpt lat="47.48589" lon="6.84159">
        <ele>329</ele>
        <time>2014-09-28T09:40:34.000Z</time>
      </trkpt>
      <trkpt lat="47.48592" lon="6.84157">
        <ele>329.7</ele>
        <time>2014-09-28T09:40:35.000Z</time>
      </trkpt>
      <trkpt lat="47.48595" lon="6.84155">
        <ele>329</ele>
        <time>2014-09-28T09:40:36.000Z</time>
      </trkpt>
      <trkpt lat="47.486" lon="6.8415">
        <ele>328.2</ele>
        <time>2014-09-28T09:40:37.000Z</time>
      </trkpt>
      <trkpt lat="47.48602" lon="6.84147">
        <ele>328.3</ele>
        <time>2014-09-28T09:40:38.000Z</time>
      </trkpt>
      <trkpt lat="47.48605" lon="6.84143">
        <ele>329.5</ele>
        <time>2014-09-28T09:40:39.000Z</time>
      </trkpt>
      <trkpt lat="47.48609" lon="6.84137">
        <ele>329.9</ele>
        <time>2014-09-28T09:40:40.000Z</time>
      </trkpt>
      <trkpt lat="47.48612" lon="6.84131">
        <ele>329.8</ele>
        <time>2014-09-28T09:40:41.000Z</time>
      </trkpt>
      <trkpt lat="47.48617" lon="6.84124">
        <ele>330.7</ele>
        <time>2014-09-28T09:40:42.000Z</time>
      </trkpt>
      <trkpt lat="47.4862" lon="6.84121">
        <ele>331.6</ele>
        <time>2014-09-28T09:40:43.000Z</time>
      </trkpt>
      <trkpt lat="47.48623" lon="6.84117">
        <ele>333.1</ele>
        <time>2014-09-28T09:40:44.000Z</time>
      </trkpt>
      <trkpt lat="47.48627" lon="6.84113">
        <ele>334</ele>
        <time>2014-09-28T09:40:45.000Z</time>
      </trkpt>
      <trkpt lat="47.48631" lon="6.84106">
        <ele>333.6</ele>
        <time>2014-09-28T09:40:46.000Z</time>
      </trkpt>
      <trkpt lat="47.48634" lon="6.84101">
        <ele>333.9</ele>
        <time>2014-09-28T09:40:47.000Z</time>
      </trkpt>
      <trkpt lat="47.48637" lon="6.84097">
        <ele>334.3</ele>
        <time>2014-09-28T09:40:48.000Z</time>
      </trkpt>
      <trkpt lat="47.48641" lon="6.84091">
        <ele>335.2</ele>
        <time>2014-09-28T09:40:49.000Z</time>
      </trkpt>
      <trkpt lat="47.48645" lon="6.84084">
        <ele>335.2</ele>
        <time>2014-09-28T09:40:50.000Z</time>
      </trkpt>
      <trkpt lat="47.4865" lon="6.84076">
        <ele>334.4</ele>
        <time>2014-09-28T09:40:51.000Z</time>
      </trkpt>
      <trkpt lat="47.48656" lon="6.84068">
        <ele>334.1</ele>
        <time>2014-09-28T09:40:52.000Z</time>
      </trkpt>
      <trkpt lat="47.48661" lon="6.8406">
        <ele>333.6</ele>
        <time>2014-09-28T09:40:53.000Z</time>
      </trkpt>
      <trkpt lat="47.48665" lon="6.84052">
        <ele>334.1</ele>
        <time>2014-09-28T09:40:54.000Z</time>
      </trkpt>
      <trkpt lat="47.4867" lon="6.84044">
        <ele>334.5</ele>
        <time>2014-09-28T09:40:55.000Z</time>
      </trkpt>
      <trkpt lat="47.48675" lon="6.84035">
        <ele>334.9</ele>
        <time>2014-09-28T09:40:56.000Z</time>
      </trkpt>
      <trkpt lat="47.48681" lon="6.84025">
        <ele>334.3</ele>
        <time>2014-09-28T09:40:57.000Z</time>
      </trkpt>
      <trkpt lat="47.48686" lon="6.84017">
        <ele>335.1</ele>
        <time>2014-09-28T09:40:58.000Z</time>
      </trkpt>
      <trkpt lat="47.48692" lon="6.84008">
        <ele>334.9</ele>
        <time>2014-09-28T09:40:59.000Z</time>
      </trkpt>
      <trkpt lat="47.48697" lon="6.84">
        <ele>334.4</ele>
        <time>2014-09-28T09:41:00.000Z</time>
      </trkpt>
      <trkpt lat="47.48703" lon="6.83991">
        <ele>334.9</ele>
        <time>2014-09-28T09:41:01.000Z</time>
      </trkpt>
      <trkpt lat="47.48707" lon="6.83983">
        <ele>335.2</ele>
        <time>2014-09-28T09:41:02.000Z</time>
      </trkpt>
      <trkpt lat="47.48712" lon="6.83975">
        <ele>334.6</ele>
        <time>2014-09-28T09:41:03.000Z</time>
      </trkpt>
      <trkpt lat="47.48716" lon="6.83968">
        <ele>334.9</ele>
        <time>2014-09-28T09:41:04.000Z</time>
      </trkpt>
      <trkpt lat="47.48721" lon="6.83961">
        <ele>335.3</ele>
        <time>2014-09-28T09:41:05.000Z</time>
      </trkpt>
      <trkpt lat="47.48726" lon="6.83954">
        <ele>335.9</ele>
        <time>2014-09-28T09:41:06.000Z</time>
      </trkpt>
      <trkpt lat="47.48731" lon="6.83946">
        <ele>335.8</ele>
        <time>2014-09-28T09:41:07.000Z</time>
      </trkpt>
      <trkpt lat="47.48735" lon="6.83939">
        <ele>335.3</ele>
        <time>2014-09-28T09:41:08.000Z</time>
      </trkpt>
      <trkpt lat="47.48739" lon="6.83932">
        <ele>335.1</ele>
        <time>2014-09-28T09:41:09.000Z</time>
      </trkpt>
      <trkpt lat="47.48742" lon="6.83923">
        <ele>334.9</ele>
        <time>2014-09-28T09:41:10.000Z</time>
      </trkpt>
      <trkpt lat="47.48745" lon="6.83916">
        <ele>334.6</ele>
        <time>2014-09-28T09:41:11.000Z</time>
      </trkpt>
      <trkpt lat="47.48748" lon="6.83907">
        <ele>334.7</ele>
        <time>2014-09-28T09:41:12.000Z</time>
      </trkpt>
      <trkpt lat="47.48751" lon="6.839">
        <ele>334.5</ele>
        <time>2014-09-28T09:41:13.000Z</time>
      </trkpt>
      <trkpt lat="47.48753" lon="6.83895">
        <ele>336</ele>
        <time>2014-09-28T09:41:14.000Z</time>
      </trkpt>
      <trkpt lat="47.48756" lon="6.83888">
        <ele>334.9</ele>
        <time>2014-09-28T09:41:15.000Z</time>
      </trkpt>
      <trkpt lat="47.48759" lon="6.83883">
        <ele>334.7</ele>
        <time>2014-09-28T09:41:16.000Z</time>
      </trkpt>
      <trkpt lat="47.48762" lon="6.83879">
        <ele>335</ele>
        <time>2014-09-28T09:41:17.000Z</time>
      </trkpt>
      <trkpt lat="47.48764" lon="6.83874">
        <ele>335</ele>
        <time>2014-09-28T09:41:18.000Z</time>
      </trkpt>
      <trkpt lat="47.48766" lon="6.83868">
        <ele>335.4</ele>
        <time>2014-09-28T09:41:19.000Z</time>
      </trkpt>
      <trkpt lat="47.48768" lon="6.83863">
        <ele>336.3</ele>
        <time>2014-09-28T09:41:20.000Z</time>
      </trkpt>
      <trkpt lat="47.48769" lon="6.8386">
        <ele>336.6</ele>
        <time>2014-09-28T09:41:21.000Z</time>
      </trkpt>
      <trkpt lat="47.4877" lon="6.83856">
        <ele>336.1</ele>
        <time>2014-09-28T09:41:22.000Z</time>
      </trkpt>
      <trkpt lat="47.4877" lon="6.83852">
        <ele>335.5</ele>
        <time>2014-09-28T09:41:23.000Z</time>
      </trkpt>
      <trkpt lat="47.4877" lon="6.83847">
        <ele>335</ele>
        <time>2014-09-28T09:41:24.000Z</time>
      </trkpt>
      <trkpt lat="47.4877" lon="6.83843">
        <ele>334.4</ele>
        <time>2014-09-28T09:41:25.000Z</time>
      </trkpt>
      <trkpt lat="47.48769" lon="6.83837">
        <ele>334</ele>
        <time>2014-09-28T09:41:26.000Z</time>
      </trkpt>
      <trkpt lat="47.48767" lon="6.83824">
        <ele>328.7</ele>
        <time>2014-09-28T09:41:28.370Z</time>
      </trkpt>
      <trkpt lat="47.48765" lon="6.83815">
        <ele>328.6</ele>
        <time>2014-09-28T09:41:30.000Z</time>
      </trkpt>
      <trkpt lat="47.48761" lon="6.83777">
        <ele>329</ele>
        <time>2014-09-28T09:41:35.000Z</time>
      </trkpt>
      <trkpt lat="47.48758" lon="6.83768">
        <ele>328.3</ele>
        <time>2014-09-28T09:41:36.000Z</time>
      </trkpt>
      <trkpt lat="47.48758" lon="6.83763">
        <ele>328.1</ele>
        <time>2014-09-28T09:41:37.000Z</time>
      </trkpt>
      <trkpt lat="47.48759" lon="6.83755">
        <ele>327.5</ele>
        <time>2014-09-28T09:41:38.000Z</time>
      </trkpt>
      <trkpt lat="47.48759" lon="6.83746">
        <ele>326.7</ele>
        <time>2014-09-28T09:41:39.000Z</time>
      </trkpt>
      <trkpt lat="47.48761" lon="6.83738">
        <ele>326.5</ele>
        <time>2014-09-28T09:41:40.000Z</time>
      </trkpt>
      <trkpt lat="47.48763" lon="6.83729">
        <ele>325.8</ele>
        <time>2014-09-28T09:41:41.000Z</time>
      </trkpt>
      <trkpt lat="47.48766" lon="6.83719">
        <ele>325.5</ele>
        <time>2014-09-28T09:41:42.000Z</time>
      </trkpt>
      <trkpt lat="47.48769" lon="6.83708">
        <ele>325.2</ele>
        <time>2014-09-28T09:41:43.000Z</time>
      </trkpt>
      <trkpt lat="47.48771" lon="6.83702">
        <ele>325.1</ele>
        <time>2014-09-28T09:41:44.000Z</time>
      </trkpt>
      <trkpt lat="47.48774" lon="6.83693">
        <ele>325</ele>
        <time>2014-09-28T09:41:45.000Z</time>
      </trkpt>
      <trkpt lat="47.48776" lon="6.83686">
        <ele>325.5</ele>
        <time>2014-09-28T09:41:46.000Z</time>
      </trkpt>
      <trkpt lat="47.48778" lon="6.83678">
        <ele>326.3</ele>
        <time>2014-09-28T09:41:47.000Z</time>
      </trkpt>
      <trkpt lat="47.4878" lon="6.83669">
        <ele>325.3</ele>
        <time>2014-09-28T09:41:48.000Z</time>
      </trkpt>
      <trkpt lat="47.48779" lon="6.8366">
        <ele>325.4</ele>
        <time>2014-09-28T09:41:49.000Z</time>
      </trkpt>
      <trkpt lat="47.48778" lon="6.8365">
        <ele>326.6</ele>
        <time>2014-09-28T09:41:50.000Z</time>
      </trkpt>
      <trkpt lat="47.48776" lon="6.8364">
        <ele>326.2</ele>
        <time>2014-09-28T09:41:51.000Z</time>
      </trkpt>
      <trkpt lat="47.48774" lon="6.83629">
        <ele>325.9</ele>
        <time>2014-09-28T09:41:52.000Z</time>
      </trkpt>
      <trkpt lat="47.48773" lon="6.83619">
        <ele>326.3</ele>
        <time>2014-09-28T09:41:53.000Z</time>
      </trkpt>
      <trkpt lat="47.48771" lon="6.83609">
        <ele>325.9</ele>
        <time>2014-09-28T09:41:54.000Z</time>
      </trkpt>
      <trkpt lat="47.4877" lon="6.836">
        <ele>326</ele>
        <time>2014-09-28T09:41:55.000Z</time>
      </trkpt>
      <trkpt lat="47.48769" lon="6.83591">
        <ele>326.3</ele>
        <time>2014-09-28T09:41:56.000Z</time>
      </trkpt>
      <trkpt lat="47.48769" lon="6.8358">
        <ele>325.4</ele>
        <time>2014-09-28T09:41:57.000Z</time>
      </trkpt>
      <trkpt lat="47.48768" lon="6.8357">
        <ele>324.8</ele>
        <time>2014-09-28T09:41:58.000Z</time>
      </trkpt>
      <trkpt lat="47.48767" lon="6.83559">
        <ele>324.8</ele>
        <time>2014-09-28T09:41:59.000Z</time>
      </trkpt>
      <trkpt lat="47.48767" lon="6.83547">
        <ele>324.5</ele>
        <time>2014-09-28T09:42:00.000Z</time>
      </trkpt>
      <trkpt lat="47.48766" lon="6.83535">
        <ele>324.5</ele>
        <time>2014-09-28T09:42:01.000Z</time>
      </trkpt>
      <trkpt lat="47.48767" lon="6.83526">
        <ele>324.7</ele>
        <time>2014-09-28T09:42:02.000Z</time>
      </trkpt>
      <trkpt lat="47.48769" lon="6.83515">
        <ele>325.9</ele>
        <time>2014-09-28T09:42:03.000Z</time>
      </trkpt>
      <trkpt lat="47.4877" lon="6.83504">
        <ele>326.3</ele>
        <time>2014-09-28T09:42:04.000Z</time>
      </trkpt>
      <trkpt lat="47.48771" lon="6.83494">
        <ele>326.6</ele>
        <time>2014-09-28T09:42:05.000Z</time>
      </trkpt>
      <trkpt lat="47.48774" lon="6.83482">
        <ele>326.7</ele>
        <time>2014-09-28T09:42:06.000Z</time>
      </trkpt>
      <trkpt lat="47.48777" lon="6.83473">
        <ele>326.6</ele>
        <time>2014-09-28T09:42:07.000Z</time>
      </trkpt>
      <trkpt lat="47.48781" lon="6.83464">
        <ele>326.8</ele>
        <time>2014-09-28T09:42:08.000Z</time>
      </trkpt>
      <trkpt lat="47.48785" lon="6.83457">
        <ele>326.7</ele>
        <time>2014-09-28T09:42:09.000Z</time>
      </trkpt>
      <trkpt lat="47.4879" lon="6.83448">
        <ele>326.9</ele>
        <time>2014-09-28T09:42:10.000Z</time>
      </trkpt>
      <trkpt lat="47.48793" lon="6.8344">
        <ele>326.9</ele>
        <time>2014-09-28T09:42:11.000Z</time>
      </trkpt>
      <trkpt lat="47.488" lon="6.83431">
        <ele>327.9</ele>
        <time>2014-09-28T09:42:12.000Z</time>
      </trkpt>
      <trkpt lat="47.48806" lon="6.83423">
        <ele>328.6</ele>
        <time>2014-09-28T09:42:13.000Z</time>
      </trkpt>
      <trkpt lat="47.4881" lon="6.83415">
        <ele>328.3</ele>
        <time>2014-09-28T09:42:14.000Z</time>
      </trkpt>
      <trkpt lat="47.48815" lon="6.83408">
        <ele>328.6</ele>
        <time>2014-09-28T09:42:15.000Z</time>
      </trkpt>
      <trkpt lat="47.48819" lon="6.83401">
        <ele>329.2</ele>
        <time>2014-09-28T09:42:16.000Z</time>
      </trkpt>
      <trkpt lat="47.48825" lon="6.83395">
        <ele>329.2</ele>
        <time>2014-09-28T09:42:17.000Z</time>
      </trkpt>
      <trkpt lat="47.48829" lon="6.83389">
        <ele>329.5</ele>
        <time>2014-09-28T09:42:18.000Z</time>
      </trkpt>
      <trkpt lat="47.48833" lon="6.83384">
        <ele>329.9</ele>
        <time>2014-09-28T09:42:19.000Z</time>
      </trkpt>
      <trkpt lat="47.48837" lon="6.83378">
        <ele>329.9</ele>
        <time>2014-09-28T09:42:20.000Z</time>
      </trkpt>
      <trkpt lat="47.4884" lon="6.83373">
        <ele>330.3</ele>
        <time>2014-09-28T09:42:21.000Z</time>
      </trkpt>
      <trkpt lat="47.48843" lon="6.83366">
        <ele>330.5</ele>
        <time>2014-09-28T09:42:22.000Z</time>
      </trkpt>
      <trkpt lat="47.48848" lon="6.8336">
        <ele>330.9</ele>
        <time>2014-09-28T09:42:23.000Z</time>
      </trkpt>
      <trkpt lat="47.48854" lon="6.83353">
        <ele>331.1</ele>
        <time>2014-09-28T09:42:24.000Z</time>
      </trkpt>
      <trkpt lat="47.4886" lon="6.83346">
        <ele>331.7</ele>
        <time>2014-09-28T09:42:25.000Z</time>
      </trkpt>
      <trkpt lat="47.48866" lon="6.83339">
        <ele>331.4</ele>
        <time>2014-09-28T09:42:26.000Z</time>
      </trkpt>
      <trkpt lat="47.4888" lon="6.83322">
        <ele>325.4</ele>
        <time>2014-09-28T09:42:29.000Z</time>
      </trkpt>
      <trkpt lat="47.48883" lon="6.83318">
        <ele>325.7</ele>
        <time>2014-09-28T09:42:30.000Z</time>
      </trkpt>
      <trkpt lat="47.48886" lon="6.83315">
        <ele>326</ele>
        <time>2014-09-28T09:42:31.000Z</time>
      </trkpt>
      <trkpt lat="47.4889" lon="6.83313">
        <ele>326.5</ele>
        <time>2014-09-28T09:42:32.000Z</time>
      </trkpt>
      <trkpt lat="47.48893" lon="6.8331">
        <ele>326.4</ele>
        <time>2014-09-28T09:42:33.000Z</time>
      </trkpt>
      <trkpt lat="47.48896" lon="6.83309">
        <ele>326.2</ele>
        <time>2014-09-28T09:42:34.000Z</time>
      </trkpt>
      <trkpt lat="47.48905" lon="6.83308">
        <ele>325.7</ele>
        <time>2014-09-28T09:42:35.000Z</time>
      </trkpt>
      <trkpt lat="47.48912" lon="6.83308">
        <ele>326.4</ele>
        <time>2014-09-28T09:42:36.000Z</time>
      </trkpt>
      <trkpt lat="47.48917" lon="6.83307">
        <ele>327</ele>
        <time>2014-09-28T09:42:37.000Z</time>
      </trkpt>
      <trkpt lat="47.48921" lon="6.83306">
        <ele>326.9</ele>
        <time>2014-09-28T09:42:38.000Z</time>
      </trkpt>
      <trkpt lat="47.48927" lon="6.83306">
        <ele>326.4</ele>
        <time>2014-09-28T09:42:39.000Z</time>
      </trkpt>
      <trkpt lat="47.48933" lon="6.83305">
        <ele>326.8</ele>
        <time>2014-09-28T09:42:40.000Z</time>
      </trkpt>
      <trkpt lat="47.48941" lon="6.83306">
        <ele>328.2</ele>
        <time>2014-09-28T09:42:41.000Z</time>
      </trkpt>
      <trkpt lat="47.48947" lon="6.83307">
        <ele>329.6</ele>
        <time>2014-09-28T09:42:42.000Z</time>
      </trkpt>
      <trkpt lat="47.48953" lon="6.83308">
        <ele>329.6</ele>
        <time>2014-09-28T09:42:43.000Z</time>
      </trkpt>
      <trkpt lat="47.48958" lon="6.83308">
        <ele>329.6</ele>
        <time>2014-09-28T09:42:44.000Z</time>
      </trkpt>
      <trkpt lat="47.48963" lon="6.83309">
        <ele>329.8</ele>
        <time>2014-09-28T09:42:45.000Z</time>
      </trkpt>
      <trkpt lat="47.48967" lon="6.83309">
        <ele>330.2</ele>
        <time>2014-09-28T09:42:46.000Z</time>
      </trkpt>
      <trkpt lat="47.48972" lon="6.83308">
        <ele>331.4</ele>
        <time>2014-09-28T09:42:47.000Z</time>
      </trkpt>
      <trkpt lat="47.48978" lon="6.8331">
        <ele>333.4</ele>
        <time>2014-09-28T09:42:48.000Z</time>
      </trkpt>
      <trkpt lat="47.48983" lon="6.83311">
        <ele>333.6</ele>
        <time>2014-09-28T09:42:49.000Z</time>
      </trkpt>
      <trkpt lat="47.48988" lon="6.83313">
        <ele>333.5</ele>
        <time>2014-09-28T09:42:50.000Z</time>
      </trkpt>
      <trkpt lat="47.48995" lon="6.83315">
        <ele>332.8</ele>
        <time>2014-09-28T09:42:51.000Z</time>
      </trkpt>
      <trkpt lat="47.49002" lon="6.83318">
        <ele>334</ele>
        <time>2014-09-28T09:42:52.000Z</time>
      </trkpt>
      <trkpt lat="47.49009" lon="6.8332">
        <ele>333.5</ele>
        <time>2014-09-28T09:42:53.000Z</time>
      </trkpt>
      <trkpt lat="47.49016" lon="6.83322">
        <ele>332.2</ele>
        <time>2014-09-28T09:42:54.000Z</time>
      </trkpt>
      <trkpt lat="47.49023" lon="6.83325">
        <ele>332.9</ele>
        <time>2014-09-28T09:42:55.000Z</time>
      </trkpt>
      <trkpt lat="47.49029" lon="6.83327">
        <ele>333.3</ele>
        <time>2014-09-28T09:42:56.000Z</time>
      </trkpt>
      <trkpt lat="47.49037" lon="6.8333">
        <ele>333.4</ele>
        <time>2014-09-28T09:42:57.000Z</time>
      </trkpt>
      <trkpt lat="47.49044" lon="6.83331">
        <ele>333.4</ele>
        <time>2014-09-28T09:42:58.000Z</time>
      </trkpt>
      <trkpt lat="47.4905" lon="6.83333">
        <ele>333.3</ele>
        <time>2014-09-28T09:42:59.000Z</time>
      </trkpt>
      <trkpt lat="47.49058" lon="6.83334">
        <ele>333.1</ele>
        <time>2014-09-28T09:43:00.000Z</time>
      </trkpt>
      <trkpt lat="47.49063" lon="6.83336">
        <ele>333.8</ele>
        <time>2014-09-28T09:43:01.000Z</time>
      </trkpt>
      <trkpt lat="47.4907" lon="6.83339">
        <ele>333.8</ele>
        <time>2014-09-28T09:43:02.000Z</time>
      </trkpt>
      <trkpt lat="47.49076" lon="6.83341">
        <ele>333.7</ele>
        <time>2014-09-28T09:43:03.000Z</time>
      </trkpt>
      <trkpt lat="47.49083" lon="6.83343">
        <ele>333.1</ele>
        <time>2014-09-28T09:43:04.000Z</time>
      </trkpt>
      <trkpt lat="47.4909" lon="6.83345">
        <ele>332.4</ele>
        <time>2014-09-28T09:43:05.000Z</time>
      </trkpt>
      <trkpt lat="47.49096" lon="6.83347">
        <ele>331.6</ele>
        <time>2014-09-28T09:43:06.000Z</time>
      </trkpt>
      <trkpt lat="47.491" lon="6.83348">
        <ele>331</ele>
        <time>2014-09-28T09:43:07.000Z</time>
      </trkpt>
      <trkpt lat="47.49106" lon="6.8335">
        <ele>331.4</ele>
        <time>2014-09-28T09:43:08.000Z</time>
      </trkpt>
      <trkpt lat="47.49113" lon="6.83353">
        <ele>330.5</ele>
        <time>2014-09-28T09:43:09.000Z</time>
      </trkpt>
      <trkpt lat="47.4912" lon="6.83355">
        <ele>329.4</ele>
        <time>2014-09-28T09:43:10.000Z</time>
      </trkpt>
      <trkpt lat="47.49128" lon="6.83357">
        <ele>329.4</ele>
        <time>2014-09-28T09:43:11.000Z</time>
      </trkpt>
      <trkpt lat="47.49135" lon="6.8336">
        <ele>329.6</ele>
        <time>2014-09-28T09:43:12.000Z</time>
      </trkpt>
      <trkpt lat="47.49142" lon="6.83361">
        <ele>330.1</ele>
        <time>2014-09-28T09:43:13.000Z</time>
      </trkpt>
      <trkpt lat="47.49148" lon="6.83364">
        <ele>330.5</ele>
        <time>2014-09-28T09:43:14.000Z</time>
      </trkpt>
      <trkpt lat="47.49156" lon="6.83366">
        <ele>330.3</ele>
        <time>2014-09-28T09:43:15.000Z</time>
      </trkpt>
      <trkpt lat="47.49163" lon="6.83368">
        <ele>330.8</ele>
        <time>2014-09-28T09:43:16.000Z</time>
      </trkpt>
      <trkpt lat="47.49169" lon="6.8337">
        <ele>330.7</ele>
        <time>2014-09-28T09:43:17.000Z</time>
      </trkpt>
      <trkpt lat="47.49176" lon="6.83371">
        <ele>330.8</ele>
        <time>2014-09-28T09:43:18.000Z</time>
      </trkpt>
      <trkpt lat="47.49183" lon="6.83374">
        <ele>330.7</ele>
        <time>2014-09-28T09:43:19.000Z</time>
      </trkpt>
      <trkpt lat="47.4919" lon="6.83376">
        <ele>331.2</ele>
        <time>2014-09-28T09:43:20.000Z</time>
      </trkpt>
      <trkpt lat="47.49197" lon="6.83378">
        <ele>331.1</ele>
        <time>2014-09-28T09:43:21.000Z</time>
      </trkpt>
      <trkpt lat="47.49203" lon="6.8338">
        <ele>331.5</ele>
        <time>2014-09-28T09:43:22.000Z</time>
      </trkpt>
      <trkpt lat="47.49209" lon="6.83382">
        <ele>331.6</ele>
        <time>2014-09-28T09:43:23.000Z</time>
      </trkpt>
      <trkpt lat="47.49216" lon="6.83384">
        <ele>330.8</ele>
        <time>2014-09-28T09:43:24.000Z</time>
      </trkpt>
      <trkpt lat="47.49223" lon="6.83386">
        <ele>330.6</ele>
        <time>2014-09-28T09:43:25.000Z</time>
      </trkpt>
      <trkpt lat="47.49229" lon="6.83388">
        <ele>330.4</ele>
        <time>2014-09-28T09:43:26.000Z</time>
      </trkpt>
      <trkpt lat="47.49247" lon="6.83394">
        <ele>325.7</ele>
        <time>2014-09-28T09:43:29.000Z</time>
      </trkpt>
      <trkpt lat="47.49255" lon="6.83396">
        <ele>325.7</ele>
        <time>2014-09-28T09:43:30.000Z</time>
      </trkpt>
      <trkpt lat="47.49262" lon="6.83397">
        <ele>325.1</ele>
        <time>2014-09-28T09:43:31.000Z</time>
      </trkpt>
      <trkpt lat="47.49269" lon="6.834">
        <ele>325.6</ele>
        <time>2014-09-28T09:43:32.000Z</time>
      </trkpt>
      <trkpt lat="47.49276" lon="6.83402">
        <ele>326.3</ele>
        <time>2014-09-28T09:43:33.000Z</time>
      </trkpt>
      <trkpt lat="47.49283" lon="6.83402">
        <ele>326.3</ele>
        <time>2014-09-28T09:43:34.000Z</time>
      </trkpt>
      <trkpt lat="47.49288" lon="6.83404">
        <ele>326.1</ele>
        <time>2014-09-28T09:43:34.999Z</time>
      </trkpt>
      <trkpt lat="47.49294" lon="6.83407">
        <ele>327</ele>
        <time>2014-09-28T09:43:36.000Z</time>
      </trkpt>
      <trkpt lat="47.49297" lon="6.8341">
        <ele>328.5</ele>
        <time>2014-09-28T09:43:37.000Z</time>
      </trkpt>
      <trkpt lat="47.49302" lon="6.83412">
        <ele>327</ele>
        <time>2014-09-28T09:43:38.000Z</time>
      </trkpt>
      <trkpt lat="47.49306" lon="6.83413">
        <ele>326.7</ele>
        <time>2014-09-28T09:43:39.000Z</time>
      </trkpt>
      <trkpt lat="47.49312" lon="6.83414">
        <ele>327.1</ele>
        <time>2014-09-28T09:43:40.000Z</time>
      </trkpt>
      <trkpt lat="47.49318" lon="6.83415">
        <ele>327.6</ele>
        <time>2014-09-28T09:43:41.000Z</time>
      </trkpt>
      <trkpt lat="47.49324" lon="6.83416">
        <ele>328.1</ele>
        <time>2014-09-28T09:43:42.000Z</time>
      </trkpt>
      <trkpt lat="47.49329" lon="6.83419">
        <ele>327.6</ele>
        <time>2014-09-28T09:43:43.000Z</time>
      </trkpt>
      <trkpt lat="47.49335" lon="6.83419">
        <ele>327.8</ele>
        <time>2014-09-28T09:43:44.000Z</time>
      </trkpt>
      <trkpt lat="47.49342" lon="6.8342">
        <ele>328.2</ele>
        <time>2014-09-28T09:43:45.000Z</time>
      </trkpt>
      <trkpt lat="47.49349" lon="6.83419">
        <ele>328.3</ele>
        <time>2014-09-28T09:43:46.000Z</time>
      </trkpt>
      <trkpt lat="47.49355" lon="6.83418">
        <ele>328.4</ele>
        <time>2014-09-28T09:43:47.000Z</time>
      </trkpt>
      <trkpt lat="47.49361" lon="6.83416">
        <ele>327.9</ele>
        <time>2014-09-28T09:43:48.000Z</time>
      </trkpt>
      <trkpt lat="47.49368" lon="6.83415">
        <ele>327.8</ele>
        <time>2014-09-28T09:43:49.000Z</time>
      </trkpt>
      <trkpt lat="47.49375" lon="6.83412">
        <ele>328.7</ele>
        <time>2014-09-28T09:43:50.000Z</time>
      </trkpt>
      <trkpt lat="47.49381" lon="6.8341">
        <ele>328.9</ele>
        <time>2014-09-28T09:43:51.000Z</time>
      </trkpt>
      <trkpt lat="47.49388" lon="6.83407">
        <ele>328.6</ele>
        <time>2014-09-28T09:43:52.000Z</time>
      </trkpt>
      <trkpt lat="47.49394" lon="6.83403">
        <ele>329.4</ele>
        <time>2014-09-28T09:43:53.000Z</time>
      </trkpt>
      <trkpt lat="47.49401" lon="6.83399">
        <ele>329.2</ele>
        <time>2014-09-28T09:43:54.000Z</time>
      </trkpt>
      <trkpt lat="47.49408" lon="6.83395">
        <ele>328.9</ele>
        <time>2014-09-28T09:43:55.000Z</time>
      </trkpt>
      <trkpt lat="47.49414" lon="6.83392">
        <ele>328.9</ele>
        <time>2014-09-28T09:43:56.000Z</time>
      </trkpt>
      <trkpt lat="47.4942" lon="6.8339">
        <ele>328.3</ele>
        <time>2014-09-28T09:43:57.000Z</time>
      </trkpt>
      <trkpt lat="47.49426" lon="6.83385">
        <ele>329.5</ele>
        <time>2014-09-28T09:43:58.000Z</time>
      </trkpt>
      <trkpt lat="47.49433" lon="6.83382">
        <ele>329.5</ele>
        <time>2014-09-28T09:43:59.000Z</time>
      </trkpt>
      <trkpt lat="47.49439" lon="6.83378">
        <ele>329.4</ele>
        <time>2014-09-28T09:44:00.000Z</time>
      </trkpt>
      <trkpt lat="47.49445" lon="6.83374">
        <ele>328.5</ele>
        <time>2014-09-28T09:44:01.000Z</time>
      </trkpt>
      <trkpt lat="47.49451" lon="6.83372">
        <ele>330.2</ele>
        <time>2014-09-28T09:44:02.000Z</time>
      </trkpt>
      <trkpt lat="47.49458" lon="6.83368">
        <ele>329.7</ele>
        <time>2014-09-28T09:44:03.000Z</time>
      </trkpt>
      <trkpt lat="47.49464" lon="6.83364">
        <ele>329.7</ele>
        <time>2014-09-28T09:44:04.000Z</time>
      </trkpt>
      <trkpt lat="47.49471" lon="6.8336">
        <ele>329.2</ele>
        <time>2014-09-28T09:44:05.000Z</time>
      </trkpt>
      <trkpt lat="47.49477" lon="6.83356">
        <ele>329</ele>
        <time>2014-09-28T09:44:06.000Z</time>
      </trkpt>
      <trkpt lat="47.49484" lon="6.83352">
        <ele>328.9</ele>
        <time>2014-09-28T09:44:07.000Z</time>
      </trkpt>
      <trkpt lat="47.4949" lon="6.83348">
        <ele>329</ele>
        <time>2014-09-28T09:44:08.000Z</time>
      </trkpt>
      <trkpt lat="47.49496" lon="6.83344">
        <ele>328.9</ele>
        <time>2014-09-28T09:44:09.000Z</time>
      </trkpt>
      <trkpt lat="47.49502" lon="6.83343">
        <ele>329</ele>
        <time>2014-09-28T09:44:10.000Z</time>
      </trkpt>
      <trkpt lat="47.49508" lon="6.83345">
        <ele>329.5</ele>
        <time>2014-09-28T09:44:11.000Z</time>
      </trkpt>
      <trkpt lat="47.49512" lon="6.83345">
        <ele>329.3</ele>
        <time>2014-09-28T09:44:12.000Z</time>
      </trkpt>
      <trkpt lat="47.49517" lon="6.83344">
        <ele>329.4</ele>
        <time>2014-09-28T09:44:13.000Z</time>
      </trkpt>
      <trkpt lat="47.49521" lon="6.83342">
        <ele>328.9</ele>
        <time>2014-09-28T09:44:14.000Z</time>
      </trkpt>
      <trkpt lat="47.49524" lon="6.83339">
        <ele>329.5</ele>
        <time>2014-09-28T09:44:15.000Z</time>
      </trkpt>
      <trkpt lat="47.49527" lon="6.83334">
        <ele>329.4</ele>
        <time>2014-09-28T09:44:16.000Z</time>
      </trkpt>
      <trkpt lat="47.49531" lon="6.83329">
        <ele>328.7</ele>
        <time>2014-09-28T09:44:17.000Z</time>
      </trkpt>
      <trkpt lat="47.49535" lon="6.83325">
        <ele>329.7</ele>
        <time>2014-09-28T09:44:18.000Z</time>
      </trkpt>
      <trkpt lat="47.49539" lon="6.83323">
        <ele>330.3</ele>
        <time>2014-09-28T09:44:19.000Z</time>
      </trkpt>
      <trkpt lat="47.49543" lon="6.83319">
        <ele>331.8</ele>
        <time>2014-09-28T09:44:20.000Z</time>
      </trkpt>
      <trkpt lat="47.49547" lon="6.83317">
        <ele>332.4</ele>
        <time>2014-09-28T09:44:21.000Z</time>
      </trkpt>
      <trkpt lat="47.49551" lon="6.83314">
        <ele>332.5</ele>
        <time>2014-09-28T09:44:22.000Z</time>
      </trkpt>
      <trkpt lat="47.49556" lon="6.83311">
        <ele>332.9</ele>
        <time>2014-09-28T09:44:23.000Z</time>
      </trkpt>
      <trkpt lat="47.4956" lon="6.83309">
        <ele>332.9</ele>
        <time>2014-09-28T09:44:24.000Z</time>
      </trkpt>
      <trkpt lat="47.49565" lon="6.83306">
        <ele>332.8</ele>
        <time>2014-09-28T09:44:25.000Z</time>
      </trkpt>
      <trkpt lat="47.49571" lon="6.83302">
        <ele>332.7</ele>
        <time>2014-09-28T09:44:26.000Z</time>
      </trkpt>
      <trkpt lat="47.49585" lon="6.83294">
        <ele>329.3</ele>
        <time>2014-09-28T09:44:29.000Z</time>
      </trkpt>
      <trkpt lat="47.49589" lon="6.83291">
        <ele>330.1</ele>
        <time>2014-09-28T09:44:30.000Z</time>
      </trkpt>
      <trkpt lat="47.49594" lon="6.83287">
        <ele>330.9</ele>
        <time>2014-09-28T09:44:31.000Z</time>
      </trkpt>
      <trkpt lat="47.49599" lon="6.83285">
        <ele>331.7</ele>
        <time>2014-09-28T09:44:32.000Z</time>
      </trkpt>
      <trkpt lat="47.49603" lon="6.83281">
        <ele>331.9</ele>
        <time>2014-09-28T09:44:33.000Z</time>
      </trkpt>
      <trkpt lat="47.49607" lon="6.83277">
        <ele>333.3</ele>
        <time>2014-09-28T09:44:34.000Z</time>
      </trkpt>
      <trkpt lat="47.49612" lon="6.83273">
        <ele>333.6</ele>
        <time>2014-09-28T09:44:35.000Z</time>
      </trkpt>
      <trkpt lat="47.49617" lon="6.83271">
        <ele>334.2</ele>
        <time>2014-09-28T09:44:36.000Z</time>
      </trkpt>
      <trkpt lat="47.49621" lon="6.83268">
        <ele>334.6</ele>
        <time>2014-09-28T09:44:37.000Z</time>
      </trkpt>
      <trkpt lat="47.49626" lon="6.83264">
        <ele>335.6</ele>
        <time>2014-09-28T09:44:38.000Z</time>
      </trkpt>
      <trkpt lat="47.4963" lon="6.83261">
        <ele>336.4</ele>
        <time>2014-09-28T09:44:39.000Z</time>
      </trkpt>
      <trkpt lat="47.49638" lon="6.83255">
        <ele>336.8</ele>
        <time>2014-09-28T09:44:40.000Z</time>
      </trkpt>
      <trkpt lat="47.49645" lon="6.83251">
        <ele>337.4</ele>
        <time>2014-09-28T09:44:41.000Z</time>
      </trkpt>
      <trkpt lat="47.4965" lon="6.83248">
        <ele>337.7</ele>
        <time>2014-09-28T09:44:42.000Z</time>
      </trkpt>
      <trkpt lat="47.49655" lon="6.83244">
        <ele>337.6</ele>
        <time>2014-09-28T09:44:43.000Z</time>
      </trkpt>
      <trkpt lat="47.49662" lon="6.8324">
        <ele>337.2</ele>
        <time>2014-09-28T09:44:44.000Z</time>
      </trkpt>
      <trkpt lat="47.49669" lon="6.83236">
        <ele>337.3</ele>
        <time>2014-09-28T09:44:45.000Z</time>
      </trkpt>
      <trkpt lat="47.49676" lon="6.83232">
        <ele>336.6</ele>
        <time>2014-09-28T09:44:46.000Z</time>
      </trkpt>
      <trkpt lat="47.49682" lon="6.83229">
        <ele>337</ele>
        <time>2014-09-28T09:44:47.000Z</time>
      </trkpt>
      <trkpt lat="47.49688" lon="6.83228">
        <ele>337.4</ele>
        <time>2014-09-28T09:44:48.000Z</time>
      </trkpt>
      <trkpt lat="47.49693" lon="6.83227">
        <ele>337.2</ele>
        <time>2014-09-28T09:44:49.000Z</time>
      </trkpt>
      <trkpt lat="47.497" lon="6.83225">
        <ele>337.5</ele>
        <time>2014-09-28T09:44:50.000Z</time>
      </trkpt>
      <trkpt lat="47.49706" lon="6.83225">
        <ele>337.5</ele>
        <time>2014-09-28T09:44:51.000Z</time>
      </trkpt>
      <trkpt lat="47.49712" lon="6.83225">
        <ele>337.5</ele>
        <time>2014-09-28T09:44:52.000Z</time>
      </trkpt>
      <trkpt lat="47.49715" lon="6.83226">
        <ele>337.7</ele>
        <time>2014-09-28T09:44:53.000Z</time>
      </trkpt>
      <trkpt lat="47.4972" lon="6.83224">
        <ele>337.9</ele>
        <time>2014-09-28T09:44:54.000Z</time>
      </trkpt>
      <trkpt lat="47.49726" lon="6.83229">
        <ele>338.7</ele>
        <time>2014-09-28T09:44:55.000Z</time>
      </trkpt>
      <trkpt lat="47.49732" lon="6.83232">
        <ele>338.9</ele>
        <time>2014-09-28T09:44:56.000Z</time>
      </trkpt>
      <trkpt lat="47.49736" lon="6.83238">
        <ele>336.8</ele>
        <time>2014-09-28T09:44:57.000Z</time>
      </trkpt>
      <trkpt lat="47.49741" lon="6.83242">
        <ele>337.2</ele>
        <time>2014-09-28T09:44:58.000Z</time>
      </trkpt>
      <trkpt lat="47.4975" lon="6.83243">
        <ele>336</ele>
        <time>2014-09-28T09:44:59.000Z</time>
      </trkpt>
      <trkpt lat="47.49756" lon="6.83245">
        <ele>335.6</ele>
        <time>2014-09-28T09:45:00.000Z</time>
      </trkpt>
      <trkpt lat="47.49761" lon="6.83249">
        <ele>335.5</ele>
        <time>2014-09-28T09:45:01.000Z</time>
      </trkpt>
      <trkpt lat="47.49765" lon="6.83253">
        <ele>335.6</ele>
        <time>2014-09-28T09:45:02.000Z</time>
      </trkpt>
      <trkpt lat="47.49771" lon="6.83256">
        <ele>335.5</ele>
        <time>2014-09-28T09:45:03.000Z</time>
      </trkpt>
      <trkpt lat="47.49776" lon="6.83259">
        <ele>335.6</ele>
        <time>2014-09-28T09:45:04.000Z</time>
      </trkpt>
      <trkpt lat="47.49781" lon="6.83262">
        <ele>335</ele>
        <time>2014-09-28T09:45:05.000Z</time>
      </trkpt>
      <trkpt lat="47.49785" lon="6.83266">
        <ele>335.2</ele>
        <time>2014-09-28T09:45:06.000Z</time>
      </trkpt>
      <trkpt lat="47.49789" lon="6.83269">
        <ele>335.1</ele>
        <time>2014-09-28T09:45:07.000Z</time>
      </trkpt>
      <trkpt lat="47.49793" lon="6.83273">
        <ele>335.1</ele>
        <time>2014-09-28T09:45:08.000Z</time>
      </trkpt>
      <trkpt lat="47.49798" lon="6.83276">
        <ele>334.9</ele>
        <time>2014-09-28T09:45:09.000Z</time>
      </trkpt>
      <trkpt lat="47.49801" lon="6.83277">
        <ele>335.1</ele>
        <time>2014-09-28T09:45:10.000Z</time>
      </trkpt>
      <trkpt lat="47.49806" lon="6.8328">
        <ele>335.5</ele>
        <time>2014-09-28T09:45:11.000Z</time>
      </trkpt>
      <trkpt lat="47.4981" lon="6.83284">
        <ele>334.5</ele>
        <time>2014-09-28T09:45:12.000Z</time>
      </trkpt>
      <trkpt lat="47.49814" lon="6.83289">
        <ele>336.1</ele>
        <time>2014-09-28T09:45:13.000Z</time>
      </trkpt>
      <trkpt lat="47.49818" lon="6.83293">
        <ele>335.9</ele>
        <time>2014-09-28T09:45:14.000Z</time>
      </trkpt>
      <trkpt lat="47.49822" lon="6.83297">
        <ele>335.7</ele>
        <time>2014-09-28T09:45:15.000Z</time>
      </trkpt>
      <trkpt lat="47.49826" lon="6.83299">
        <ele>335.6</ele>
        <time>2014-09-28T09:45:16.000Z</time>
      </trkpt>
      <trkpt lat="47.49831" lon="6.83303">
        <ele>335.7</ele>
        <time>2014-09-28T09:45:17.000Z</time>
      </trkpt>
      <trkpt lat="47.49835" lon="6.83308">
        <ele>336</ele>
        <time>2014-09-28T09:45:18.000Z</time>
      </trkpt>
      <trkpt lat="47.4984" lon="6.8331">
        <ele>336.7</ele>
        <time>2014-09-28T09:45:19.000Z</time>
      </trkpt>
      <trkpt lat="47.49844" lon="6.83313">
        <ele>336.8</ele>
        <time>2014-09-28T09:45:20.000Z</time>
      </trkpt>
      <trkpt lat="47.49848" lon="6.83316">
        <ele>336.8</ele>
        <time>2014-09-28T09:45:21.000Z</time>
      </trkpt>
      <trkpt lat="47.49852" lon="6.83318">
        <ele>336.8</ele>
        <time>2014-09-28T09:45:22.000Z</time>
      </trkpt>
      <trkpt lat="47.49881" lon="6.83342">
        <ele>337.3</ele>
        <time>2014-09-28T09:45:29.000Z</time>
      </trkpt>
      <trkpt lat="47.49887" lon="6.83347">
        <ele>337.5</ele>
        <time>2014-09-28T09:45:30.000Z</time>
      </trkpt>
      <trkpt lat="47.49894" lon="6.83351">
        <ele>336.7</ele>
        <time>2014-09-28T09:45:31.000Z</time>
      </trkpt>
      <trkpt lat="47.499" lon="6.83352">
        <ele>336.1</ele>
        <time>2014-09-28T09:45:32.000Z</time>
      </trkpt>
      <trkpt lat="47.49906" lon="6.83355">
        <ele>336.1</ele>
        <time>2014-09-28T09:45:33.000Z</time>
      </trkpt>
      <trkpt lat="47.49914" lon="6.83356">
        <ele>334.7</ele>
        <time>2014-09-28T09:45:34.000Z</time>
      </trkpt>
      <trkpt lat="47.49922" lon="6.83356">
        <ele>333.5</ele>
        <time>2014-09-28T09:45:35.000Z</time>
      </trkpt>
      <trkpt lat="47.49926" lon="6.83359">
        <ele>333.2</ele>
        <time>2014-09-28T09:45:36.000Z</time>
      </trkpt>
      <trkpt lat="47.49932" lon="6.8336">
        <ele>332.7</ele>
        <time>2014-09-28T09:45:37.000Z</time>
      </trkpt>
      <trkpt lat="47.4994" lon="6.83359">
        <ele>331.3</ele>
        <time>2014-09-28T09:45:38.000Z</time>
      </trkpt>
      <trkpt lat="47.49947" lon="6.83359">
        <ele>331.1</ele>
        <time>2014-09-28T09:45:39.000Z</time>
      </trkpt>
      <trkpt lat="47.49954" lon="6.83361">
        <ele>330.2</ele>
        <time>2014-09-28T09:45:40.000Z</time>
      </trkpt>
      <trkpt lat="47.49961" lon="6.83361">
        <ele>330.3</ele>
        <time>2014-09-28T09:45:41.000Z</time>
      </trkpt>
      <trkpt lat="47.49967" lon="6.83361">
        <ele>330.9</ele>
        <time>2014-09-28T09:45:42.000Z</time>
      </trkpt>
      <trkpt lat="47.49974" lon="6.83363">
        <ele>330.2</ele>
        <time>2014-09-28T09:45:43.000Z</time>
      </trkpt>
      <trkpt lat="47.4998" lon="6.83364">
        <ele>329.7</ele>
        <time>2014-09-28T09:45:44.000Z</time>
      </trkpt>
      <trkpt lat="47.49987" lon="6.83366">
        <ele>330.1</ele>
        <time>2014-09-28T09:45:45.000Z</time>
      </trkpt>
      <trkpt lat="47.49993" lon="6.83366">
        <ele>330.1</ele>
        <time>2014-09-28T09:45:46.000Z</time>
      </trkpt>
      <trkpt lat="47.5" lon="6.83367">
        <ele>329.7</ele>
        <time>2014-09-28T09:45:47.000Z</time>
      </trkpt>
      <trkpt lat="47.50007" lon="6.83367">
        <ele>330</ele>
        <time>2014-09-28T09:45:48.000Z</time>
      </trkpt>
      <trkpt lat="47.50014" lon="6.83368">
        <ele>330.3</ele>
        <time>2014-09-28T09:45:49.000Z</time>
      </trkpt>
      <trkpt lat="47.50021" lon="6.83368">
        <ele>330.1</ele>
        <time>2014-09-28T09:45:50.000Z</time>
      </trkpt>
      <trkpt lat="47.50028" lon="6.83369">
        <ele>330.3</ele>
        <time>2014-09-28T09:45:51.000Z</time>
      </trkpt>
      <trkpt lat="47.50034" lon="6.83369">
        <ele>330.3</ele>
        <time>2014-09-28T09:45:52.000Z</time>
      </trkpt>
      <trkpt lat="47.50041" lon="6.8337">
        <ele>330.1</ele>
        <time>2014-09-28T09:45:52.999Z</time>
      </trkpt>
      <trkpt lat="47.50047" lon="6.8337">
        <ele>329.3</ele>
        <time>2014-09-28T09:45:54.000Z</time>
      </trkpt>
      <trkpt lat="47.50052" lon="6.83372">
        <ele>329.4</ele>
        <time>2014-09-28T09:45:55.000Z</time>
      </trkpt>
      <trkpt lat="47.50058" lon="6.83372">
        <ele>329.8</ele>
        <time>2014-09-28T09:45:56.000Z</time>
      </trkpt>
      <trkpt lat="47.50063" lon="6.83375">
        <ele>330</ele>
        <time>2014-09-28T09:45:57.000Z</time>
      </trkpt>
      <trkpt lat="47.50069" lon="6.83376">
        <ele>330.6</ele>
        <time>2014-09-28T09:45:58.000Z</time>
      </trkpt>
      <trkpt lat="47.50076" lon="6.83376">
        <ele>331.6</ele>
        <time>2014-09-28T09:45:59.000Z</time>
      </trkpt>
      <trkpt lat="47.50082" lon="6.83377">
        <ele>331.5</ele>
        <time>2014-09-28T09:46:00.000Z</time>
      </trkpt>
      <trkpt lat="47.50088" lon="6.83379">
        <ele>331</ele>
        <time>2014-09-28T09:46:01.000Z</time>
      </trkpt>
      <trkpt lat="47.50094" lon="6.8338">
        <ele>330</ele>
        <time>2014-09-28T09:46:02.000Z</time>
      </trkpt>
      <trkpt lat="47.501" lon="6.8338">
        <ele>330.2</ele>
        <time>2014-09-28T09:46:03.000Z</time>
      </trkpt>
      <trkpt lat="47.50107" lon="6.83381">
        <ele>329.4</ele>
        <time>2014-09-28T09:46:04.000Z</time>
      </trkpt>
      <trkpt lat="47.50115" lon="6.83382">
        <ele>328.7</ele>
        <time>2014-09-28T09:46:05.000Z</time>
      </trkpt>
      <trkpt lat="47.50122" lon="6.83383">
        <ele>329</ele>
        <time>2014-09-28T09:46:06.000Z</time>
      </trkpt>
      <trkpt lat="47.50129" lon="6.83384">
        <ele>328.9</ele>
        <time>2014-09-28T09:46:07.000Z</time>
      </trkpt>
      <trkpt lat="47.50136" lon="6.83385">
        <ele>328.6</ele>
        <time>2014-09-28T09:46:08.000Z</time>
      </trkpt>
      <trkpt lat="47.50143" lon="6.83385">
        <ele>328.1</ele>
        <time>2014-09-28T09:46:09.000Z</time>
      </trkpt>
      <trkpt lat="47.50151" lon="6.83385">
        <ele>327.9</ele>
        <time>2014-09-28T09:46:10.000Z</time>
      </trkpt>
      <trkpt lat="47.50159" lon="6.83387">
        <ele>327.3</ele>
        <time>2014-09-28T09:46:11.000Z</time>
      </trkpt>
      <trkpt lat="47.50167" lon="6.83387">
        <ele>327.1</ele>
        <time>2014-09-28T09:46:12.000Z</time>
      </trkpt>
      <trkpt lat="47.50174" lon="6.83388">
        <ele>326.8</ele>
        <time>2014-09-28T09:46:13.000Z</time>
      </trkpt>
      <trkpt lat="47.50182" lon="6.8339">
        <ele>325.7</ele>
        <time>2014-09-28T09:46:14.000Z</time>
      </trkpt>
      <trkpt lat="47.5019" lon="6.8339">
        <ele>324.9</ele>
        <time>2014-09-28T09:46:15.000Z</time>
      </trkpt>
      <trkpt lat="47.50197" lon="6.83391">
        <ele>325</ele>
        <time>2014-09-28T09:46:16.000Z</time>
      </trkpt>
      <trkpt lat="47.50205" lon="6.83392">
        <ele>325</ele>
        <time>2014-09-28T09:46:17.000Z</time>
      </trkpt>
      <trkpt lat="47.50211" lon="6.83394">
        <ele>325.1</ele>
        <time>2014-09-28T09:46:18.000Z</time>
      </trkpt>
      <trkpt lat="47.50218" lon="6.83395">
        <ele>325</ele>
        <time>2014-09-28T09:46:19.000Z</time>
      </trkpt>
      <trkpt lat="47.50226" lon="6.83395">
        <ele>325.2</ele>
        <time>2014-09-28T09:46:20.000Z</time>
      </trkpt>
      <trkpt lat="47.5023" lon="6.83393">
        <ele>325.4</ele>
        <time>2014-09-28T09:46:21.000Z</time>
      </trkpt>
      <trkpt lat="47.50236" lon="6.83392">
        <ele>325.4</ele>
        <time>2014-09-28T09:46:22.000Z</time>
      </trkpt>
      <trkpt lat="47.50241" lon="6.83392">
        <ele>325.6</ele>
        <time>2014-09-28T09:46:23.000Z</time>
      </trkpt>
      <trkpt lat="47.50249" lon="6.83389">
        <ele>327.2</ele>
        <time>2014-09-28T09:46:24.000Z</time>
      </trkpt>
      <trkpt lat="47.50256" lon="6.83388">
        <ele>327.2</ele>
        <time>2014-09-28T09:46:25.000Z</time>
      </trkpt>
      <trkpt lat="47.50263" lon="6.83386">
        <ele>327.1</ele>
        <time>2014-09-28T09:46:26.000Z</time>
      </trkpt>
      <trkpt lat="47.50275" lon="6.83383">
        <ele>326.9</ele>
        <time>2014-09-28T09:46:29.000Z</time>
      </trkpt>
      <trkpt lat="47.50282" lon="6.83381">
        <ele>327</ele>
        <time>2014-09-28T09:46:30.000Z</time>
      </trkpt>
      <trkpt lat="47.50289" lon="6.83379">
        <ele>327</ele>
        <time>2014-09-28T09:46:31.000Z</time>
      </trkpt>
      <trkpt lat="47.50296" lon="6.83377">
        <ele>326.4</ele>
        <time>2014-09-28T09:46:32.000Z</time>
      </trkpt>
      <trkpt lat="47.50303" lon="6.83375">
        <ele>325.9</ele>
        <time>2014-09-28T09:46:33.000Z</time>
      </trkpt>
      <trkpt lat="47.5031" lon="6.83373">
        <ele>325.5</ele>
        <time>2014-09-28T09:46:34.000Z</time>
      </trkpt>
      <trkpt lat="47.50316" lon="6.83371">
        <ele>324.9</ele>
        <time>2014-09-28T09:46:35.000Z</time>
      </trkpt>
      <trkpt lat="47.50322" lon="6.8337">
        <ele>324.3</ele>
        <time>2014-09-28T09:46:36.000Z</time>
      </trkpt>
      <trkpt lat="47.50328" lon="6.83367">
        <ele>326.1</ele>
        <time>2014-09-28T09:46:37.000Z</time>
      </trkpt>
      <trkpt lat="47.50334" lon="6.83367">
        <ele>325.8</ele>
        <time>2014-09-28T09:46:38.000Z</time>
      </trkpt>
      <trkpt lat="47.5034" lon="6.83366">
        <ele>327</ele>
        <time>2014-09-28T09:46:39.000Z</time>
      </trkpt>
      <trkpt lat="47.50346" lon="6.83365">
        <ele>328.3</ele>
        <time>2014-09-28T09:46:40.000Z</time>
      </trkpt>
      <trkpt lat="47.50353" lon="6.83364">
        <ele>327.8</ele>
        <time>2014-09-28T09:46:41.000Z</time>
      </trkpt>
      <trkpt lat="47.5036" lon="6.83362">
        <ele>328.4</ele>
        <time>2014-09-28T09:46:42.000Z</time>
      </trkpt>
      <trkpt lat="47.50366" lon="6.83362">
        <ele>328.4</ele>
        <time>2014-09-28T09:46:43.000Z</time>
      </trkpt>
      <trkpt lat="47.50372" lon="6.83361">
        <ele>328.8</ele>
        <time>2014-09-28T09:46:44.000Z</time>
      </trkpt>
      <trkpt lat="47.50379" lon="6.8336">
        <ele>328.4</ele>
        <time>2014-09-28T09:46:45.000Z</time>
      </trkpt>
      <trkpt lat="47.50384" lon="6.83358">
        <ele>327.9</ele>
        <time>2014-09-28T09:46:46.000Z</time>
      </trkpt>
      <trkpt lat="47.5039" lon="6.83356">
        <ele>328</ele>
        <time>2014-09-28T09:46:47.000Z</time>
      </trkpt>
      <trkpt lat="47.50395" lon="6.83353">
        <ele>328.5</ele>
        <time>2014-09-28T09:46:48.000Z</time>
      </trkpt>
      <trkpt lat="47.50401" lon="6.83352">
        <ele>328.3</ele>
        <time>2014-09-28T09:46:49.000Z</time>
      </trkpt>
      <trkpt lat="47.50407" lon="6.8335">
        <ele>329.1</ele>
        <time>2014-09-28T09:46:50.000Z</time>
      </trkpt>
      <trkpt lat="47.50412" lon="6.83346">
        <ele>330.6</ele>
        <time>2014-09-28T09:46:51.000Z</time>
      </trkpt>
      <trkpt lat="47.50417" lon="6.83343">
        <ele>331.5</ele>
        <time>2014-09-28T09:46:52.000Z</time>
      </trkpt>
      <trkpt lat="47.50422" lon="6.8334">
        <ele>332</ele>
        <time>2014-09-28T09:46:53.000Z</time>
      </trkpt>
      <trkpt lat="47.50426" lon="6.83335">
        <ele>331.7</ele>
        <time>2014-09-28T09:46:54.000Z</time>
      </trkpt>
      <trkpt lat="47.50429" lon="6.83331">
        <ele>332.3</ele>
        <time>2014-09-28T09:46:55.000Z</time>
      </trkpt>
      <trkpt lat="47.50431" lon="6.83327">
        <ele>333</ele>
        <time>2014-09-28T09:46:56.000Z</time>
      </trkpt>
      <trkpt lat="47.50433" lon="6.83322">
        <ele>333.5</ele>
        <time>2014-09-28T09:46:57.000Z</time>
      </trkpt>
      <trkpt lat="47.50433" lon="6.83316">
        <ele>333.7</ele>
        <time>2014-09-28T09:46:58.000Z</time>
      </trkpt>
      <trkpt lat="47.50435" lon="6.8331">
        <ele>333.8</ele>
        <time>2014-09-28T09:46:59.000Z</time>
      </trkpt>
      <trkpt lat="47.50436" lon="6.83304">
        <ele>333.7</ele>
        <time>2014-09-28T09:47:00.000Z</time>
      </trkpt>
      <trkpt lat="47.50435" lon="6.83299">
        <ele>333.8</ele>
        <time>2014-09-28T09:47:01.000Z</time>
      </trkpt>
      <trkpt lat="47.50436" lon="6.83296">
        <ele>334</ele>
        <time>2014-09-28T09:47:02.000Z</time>
      </trkpt>
      <trkpt lat="47.50436" lon="6.8329">
        <ele>334.1</ele>
        <time>2014-09-28T09:47:03.000Z</time>
      </trkpt>
      <trkpt lat="47.50435" lon="6.83285">
        <ele>334.4</ele>
        <time>2014-09-28T09:47:04.000Z</time>
      </trkpt>
      <trkpt lat="47.50436" lon="6.83275">
        <ele>335</ele>
        <time>2014-09-28T09:47:05.000Z</time>
      </trkpt>
      <trkpt lat="47.50435" lon="6.83267">
        <ele>334.7</ele>
        <time>2014-09-28T09:47:06.000Z</time>
      </trkpt>
      <trkpt lat="47.50433" lon="6.83259">
        <ele>334.5</ele>
        <time>2014-09-28T09:47:07.000Z</time>
      </trkpt>
      <trkpt lat="47.50432" lon="6.83249">
        <ele>333.5</ele>
        <time>2014-09-28T09:47:08.000Z</time>
      </trkpt>
      <trkpt lat="47.5043" lon="6.83242">
        <ele>333.5</ele>
        <time>2014-09-28T09:47:09.000Z</time>
      </trkpt>
      <trkpt lat="47.50427" lon="6.83234">
        <ele>332.5</ele>
        <time>2014-09-28T09:47:10.000Z</time>
      </trkpt>
      <trkpt lat="47.50425" lon="6.83226">
        <ele>332.5</ele>
        <time>2014-09-28T09:47:11.000Z</time>
      </trkpt>
      <trkpt lat="47.50423" lon="6.83216">
        <ele>332.3</ele>
        <time>2014-09-28T09:47:12.000Z</time>
      </trkpt>
      <trkpt lat="47.50421" lon="6.83208">
        <ele>332.4</ele>
        <time>2014-09-28T09:47:12.997Z</time>
      </trkpt>
      <trkpt lat="47.50418" lon="6.832">
        <ele>332.5</ele>
        <time>2014-09-28T09:47:14.000Z</time>
      </trkpt>
      <trkpt lat="47.50415" lon="6.83189">
        <ele>330.9</ele>
        <time>2014-09-28T09:47:15.000Z</time>
      </trkpt>
      <trkpt lat="47.50413" lon="6.83178">
        <ele>330.9</ele>
        <time>2014-09-28T09:47:16.000Z</time>
      </trkpt>
      <trkpt lat="47.50412" lon="6.83169">
        <ele>332.2</ele>
        <time>2014-09-28T09:47:17.000Z</time>
      </trkpt>
      <trkpt lat="47.50411" lon="6.83159">
        <ele>332.4</ele>
        <time>2014-09-28T09:47:18.000Z</time>
      </trkpt>
      <trkpt lat="47.5041" lon="6.8315">
        <ele>332.5</ele>
        <time>2014-09-28T09:47:19.000Z</time>
      </trkpt>
      <trkpt lat="47.50409" lon="6.83139">
        <ele>331.7</ele>
        <time>2014-09-28T09:47:20.000Z</time>
      </trkpt>
      <trkpt lat="47.50408" lon="6.8313">
        <ele>331</ele>
        <time>2014-09-28T09:47:21.000Z</time>
      </trkpt>
      <trkpt lat="47.50406" lon="6.83121">
        <ele>331.5</ele>
        <time>2014-09-28T09:47:22.000Z</time>
      </trkpt>
      <trkpt lat="47.50405" lon="6.83111">
        <ele>331.6</ele>
        <time>2014-09-28T09:47:23.000Z</time>
      </trkpt>
      <trkpt lat="47.50403" lon="6.83102">
        <ele>332.8</ele>
        <time>2014-09-28T09:47:24.000Z</time>
      </trkpt>
      <trkpt lat="47.50402" lon="6.83093">
        <ele>333.4</ele>
        <time>2014-09-28T09:47:25.000Z</time>
      </trkpt>
      <trkpt lat="47.50401" lon="6.83084">
        <ele>334.4</ele>
        <time>2014-09-28T09:47:26.000Z</time>
      </trkpt>
      <trkpt lat="47.50398" lon="6.83066">
        <ele>335.8</ele>
        <time>2014-09-28T09:47:29.000Z</time>
      </trkpt>
      <trkpt lat="47.50397" lon="6.83057">
        <ele>336.3</ele>
        <time>2014-09-28T09:47:30.000Z</time>
      </trkpt>
      <trkpt lat="47.50395" lon="6.83048">
        <ele>335.5</ele>
        <time>2014-09-28T09:47:31.000Z</time>
      </trkpt>
      <trkpt lat="47.50394" lon="6.83039">
        <ele>335.8</ele>
        <time>2014-09-28T09:47:32.000Z</time>
      </trkpt>
      <trkpt lat="47.50393" lon="6.8303">
        <ele>336.2</ele>
        <time>2014-09-28T09:47:33.000Z</time>
      </trkpt>
      <trkpt lat="47.50391" lon="6.8302">
        <ele>336.2</ele>
        <time>2014-09-28T09:47:34.000Z</time>
      </trkpt>
      <trkpt lat="47.50391" lon="6.83012">
        <ele>336.5</ele>
        <time>2014-09-28T09:47:35.000Z</time>
      </trkpt>
      <trkpt lat="47.5039" lon="6.83005">
        <ele>336.4</ele>
        <time>2014-09-28T09:47:36.000Z</time>
      </trkpt>
      <trkpt lat="47.50388" lon="6.82994">
        <ele>336.6</ele>
        <time>2014-09-28T09:47:37.000Z</time>
      </trkpt>
      <trkpt lat="47.50387" lon="6.82986">
        <ele>336.8</ele>
        <time>2014-09-28T09:47:37.998Z</time>
      </trkpt>
      <trkpt lat="47.50385" lon="6.82976">
        <ele>336.1</ele>
        <time>2014-09-28T09:47:39.000Z</time>
      </trkpt>
      <trkpt lat="47.50383" lon="6.82968">
        <ele>335.4</ele>
        <time>2014-09-28T09:47:40.000Z</time>
      </trkpt>
      <trkpt lat="47.50382" lon="6.8296">
        <ele>335</ele>
        <time>2014-09-28T09:47:41.000Z</time>
      </trkpt>
      <trkpt lat="47.5038" lon="6.82951">
        <ele>335.8</ele>
        <time>2014-09-28T09:47:42.000Z</time>
      </trkpt>
      <trkpt lat="47.50379" lon="6.82942">
        <ele>335.2</ele>
        <time>2014-09-28T09:47:43.000Z</time>
      </trkpt>
      <trkpt lat="47.50378" lon="6.82933">
        <ele>334.8</ele>
        <time>2014-09-28T09:47:44.000Z</time>
      </trkpt>
      <trkpt lat="47.50376" lon="6.82925">
        <ele>334.4</ele>
        <time>2014-09-28T09:47:45.000Z</time>
      </trkpt>
      <trkpt lat="47.50374" lon="6.82915">
        <ele>334.1</ele>
        <time>2014-09-28T09:47:46.000Z</time>
      </trkpt>
      <trkpt lat="47.50373" lon="6.82904">
        <ele>333.8</ele>
        <time>2014-09-28T09:47:47.000Z</time>
      </trkpt>
      <trkpt lat="47.50372" lon="6.82896">
        <ele>334.1</ele>
        <time>2014-09-28T09:47:48.000Z</time>
      </trkpt>
      <trkpt lat="47.50369" lon="6.82886">
        <ele>333</ele>
        <time>2014-09-28T09:47:49.000Z</time>
      </trkpt>
      <trkpt lat="47.50367" lon="6.82877">
        <ele>332.8</ele>
        <time>2014-09-28T09:47:50.000Z</time>
      </trkpt>
      <trkpt lat="47.50365" lon="6.82868">
        <ele>331.2</ele>
        <time>2014-09-28T09:47:51.000Z</time>
      </trkpt>
      <trkpt lat="47.50362" lon="6.82857">
        <ele>331.3</ele>
        <time>2014-09-28T09:47:52.000Z</time>
      </trkpt>
      <trkpt lat="47.5036" lon="6.82848">
        <ele>331.4</ele>
        <time>2014-09-28T09:47:53.000Z</time>
      </trkpt>
      <trkpt lat="47.50358" lon="6.82839">
        <ele>330.6</ele>
        <time>2014-09-28T09:47:54.000Z</time>
      </trkpt>
      <trkpt lat="47.50356" lon="6.82831">
        <ele>330.2</ele>
        <time>2014-09-28T09:47:55.000Z</time>
      </trkpt>
      <trkpt lat="47.50355" lon="6.8282">
        <ele>330.6</ele>
        <time>2014-09-28T09:47:56.000Z</time>
      </trkpt>
      <trkpt lat="47.50353" lon="6.82812">
        <ele>331</ele>
        <time>2014-09-28T09:47:57.000Z</time>
      </trkpt>
      <trkpt lat="47.50351" lon="6.82802">
        <ele>332.1</ele>
        <time>2014-09-28T09:47:58.000Z</time>
      </trkpt>
      <trkpt lat="47.5035" lon="6.82793">
        <ele>332.1</ele>
        <time>2014-09-28T09:47:59.000Z</time>
      </trkpt>
      <trkpt lat="47.5035" lon="6.82782">
        <ele>332</ele>
        <time>2014-09-28T09:48:00.000Z</time>
      </trkpt>
      <trkpt lat="47.50349" lon="6.82772">
        <ele>331.8</ele>
        <time>2014-09-28T09:48:01.000Z</time>
      </trkpt>
      <trkpt lat="47.50348" lon="6.82761">
        <ele>331.5</ele>
        <time>2014-09-28T09:48:02.000Z</time>
      </trkpt>
      <trkpt lat="47.50347" lon="6.82751">
        <ele>330.9</ele>
        <time>2014-09-28T09:48:03.000Z</time>
      </trkpt>
      <trkpt lat="47.50347" lon="6.82741">
        <ele>330.8</ele>
        <time>2014-09-28T09:48:04.000Z</time>
      </trkpt>
      <trkpt lat="47.50347" lon="6.82732">
        <ele>331.9</ele>
        <time>2014-09-28T09:48:05.000Z</time>
      </trkpt>
      <trkpt lat="47.50347" lon="6.82722">
        <ele>331.5</ele>
        <time>2014-09-28T09:48:06.000Z</time>
      </trkpt>
      <trkpt lat="47.50347" lon="6.82712">
        <ele>331.5</ele>
        <time>2014-09-28T09:48:07.000Z</time>
      </trkpt>
      <trkpt lat="47.50347" lon="6.827">
        <ele>330.8</ele>
        <time>2014-09-28T09:48:08.000Z</time>
      </trkpt>
      <trkpt lat="47.50347" lon="6.82689">
        <ele>330.1</ele>
        <time>2014-09-28T09:48:09.000Z</time>
      </trkpt>
      <trkpt lat="47.50347" lon="6.82679">
        <ele>330.3</ele>
        <time>2014-09-28T09:48:10.000Z</time>
      </trkpt>
      <trkpt lat="47.50347" lon="6.82669">
        <ele>330.4</ele>
        <time>2014-09-28T09:48:11.000Z</time>
      </trkpt>
      <trkpt lat="47.50347" lon="6.82659">
        <ele>330.1</ele>
        <time>2014-09-28T09:48:12.000Z</time>
      </trkpt>
      <trkpt lat="47.50347" lon="6.82649">
        <ele>329.8</ele>
        <time>2014-09-28T09:48:13.000Z</time>
      </trkpt>
      <trkpt lat="47.50347" lon="6.82639">
        <ele>329.9</ele>
        <time>2014-09-28T09:48:14.000Z</time>
      </trkpt>
      <trkpt lat="47.50347" lon="6.82629">
        <ele>330</ele>
        <time>2014-09-28T09:48:15.000Z</time>
      </trkpt>
      <trkpt lat="47.50347" lon="6.82619">
        <ele>329.9</ele>
        <time>2014-09-28T09:48:16.000Z</time>
      </trkpt>
      <trkpt lat="47.50347" lon="6.8261">
        <ele>329.5</ele>
        <time>2014-09-28T09:48:17.000Z</time>
      </trkpt>
      <trkpt lat="47.50347" lon="6.82601">
        <ele>329.2</ele>
        <time>2014-09-28T09:48:18.000Z</time>
      </trkpt>
      <trkpt lat="47.50347" lon="6.82593">
        <ele>329</ele>
        <time>2014-09-28T09:48:19.000Z</time>
      </trkpt>
      <trkpt lat="47.50347" lon="6.82585">
        <ele>328.9</ele>
        <time>2014-09-28T09:48:20.000Z</time>
      </trkpt>
      <trkpt lat="47.50347" lon="6.82576">
        <ele>328.8</ele>
        <time>2014-09-28T09:48:21.000Z</time>
      </trkpt>
      <trkpt lat="47.50351" lon="6.8257">
        <ele>328.3</ele>
        <time>2014-09-28T09:48:22.000Z</time>
      </trkpt>
      <trkpt lat="47.50355" lon="6.82561">
        <ele>327.4</ele>
        <time>2014-09-28T09:48:23.000Z</time>
      </trkpt>
      <trkpt lat="47.50357" lon="6.82556">
        <ele>327.2</ele>
        <time>2014-09-28T09:48:24.000Z</time>
      </trkpt>
      <trkpt lat="47.5036" lon="6.82551">
        <ele>326.9</ele>
        <time>2014-09-28T09:48:25.000Z</time>
      </trkpt>
      <trkpt lat="47.50363" lon="6.82549">
        <ele>327.1</ele>
        <time>2014-09-28T09:48:26.000Z</time>
      </trkpt>
      <trkpt lat="47.50368" lon="6.82545">
        <ele>327</ele>
        <time>2014-09-28T09:48:29.000Z</time>
      </trkpt>
      <trkpt lat="47.5037" lon="6.82539">
        <ele>326.9</ele>
        <time>2014-09-28T09:48:31.000Z</time>
      </trkpt>
      <trkpt lat="47.5037" lon="6.82536">
        <ele>326.8</ele>
        <time>2014-09-28T09:48:32.000Z</time>
      </trkpt>
      <trkpt lat="47.50371" lon="6.8253">
        <ele>326.7</ele>
        <time>2014-09-28T09:48:34.000Z</time>
      </trkpt>
      <trkpt lat="47.50373" lon="6.82527">
        <ele>326.6</ele>
        <time>2014-09-28T09:48:35.000Z</time>
      </trkpt>
      <trkpt lat="47.50374" lon="6.82525">
        <ele>326.7</ele>
        <time>2014-09-28T09:48:36.000Z</time>
      </trkpt>
      <trkpt lat="47.50375" lon="6.8252">
        <ele>326.7</ele>
        <time>2014-09-28T09:48:37.000Z</time>
      </trkpt>
      <trkpt lat="47.50377" lon="6.82518">
        <ele>326.8</ele>
        <time>2014-09-28T09:48:38.000Z</time>
      </trkpt>
      <trkpt lat="47.50379" lon="6.82514">
        <ele>326.7</ele>
        <time>2014-09-28T09:48:39.000Z</time>
      </trkpt>
      <trkpt lat="47.50381" lon="6.8251">
        <ele>327.7</ele>
        <time>2014-09-28T09:48:40.000Z</time>
      </trkpt>
      <trkpt lat="47.50381" lon="6.82503">
        <ele>328.4</ele>
        <time>2014-09-28T09:48:41.000Z</time>
      </trkpt>
      <trkpt lat="47.50381" lon="6.82496">
        <ele>329.5</ele>
        <time>2014-09-28T09:48:42.000Z</time>
      </trkpt>
      <trkpt lat="47.50381" lon="6.82488">
        <ele>331.3</ele>
        <time>2014-09-28T09:48:43.000Z</time>
      </trkpt>
      <trkpt lat="47.5037" lon="6.8246">
        <ele>329</ele>
        <time>2014-09-28T09:48:44.000Z</time>
      </trkpt>
      <trkpt lat="47.50368" lon="6.82452">
        <ele>328.9</ele>
        <time>2014-09-28T09:48:45.000Z</time>
      </trkpt>
      <trkpt lat="47.50364" lon="6.82444">
        <ele>328.9</ele>
        <time>2014-09-28T09:48:46.000Z</time>
      </trkpt>
      <trkpt lat="47.50361" lon="6.82437">
        <ele>329</ele>
        <time>2014-09-28T09:48:47.000Z</time>
      </trkpt>
      <trkpt lat="47.50358" lon="6.82431">
        <ele>329.3</ele>
        <time>2014-09-28T09:48:48.000Z</time>
      </trkpt>
      <trkpt lat="47.50356" lon="6.82424">
        <ele>329.4</ele>
        <time>2014-09-28T09:48:49.000Z</time>
      </trkpt>
      <trkpt lat="47.50352" lon="6.82411">
        <ele>329</ele>
        <time>2014-09-28T09:48:50.000Z</time>
      </trkpt>
      <trkpt lat="47.5035" lon="6.82401">
        <ele>329.5</ele>
        <time>2014-09-28T09:48:51.000Z</time>
      </trkpt>
      <trkpt lat="47.50349" lon="6.82393">
        <ele>330.5</ele>
        <time>2014-09-28T09:48:52.000Z</time>
      </trkpt>
      <trkpt lat="47.50349" lon="6.82384">
        <ele>330.3</ele>
        <time>2014-09-28T09:48:53.000Z</time>
      </trkpt>
      <trkpt lat="47.50349" lon="6.82376">
        <ele>330.6</ele>
        <time>2014-09-28T09:48:54.000Z</time>
      </trkpt>
      <trkpt lat="47.50348" lon="6.82368">
        <ele>330.6</ele>
        <time>2014-09-28T09:48:55.000Z</time>
      </trkpt>
      <trkpt lat="47.50346" lon="6.82358">
        <ele>331.4</ele>
        <time>2014-09-28T09:48:56.000Z</time>
      </trkpt>
      <trkpt lat="47.50346" lon="6.82352">
        <ele>331.1</ele>
        <time>2014-09-28T09:48:57.000Z</time>
      </trkpt>
      <trkpt lat="47.50346" lon="6.82343">
        <ele>331.3</ele>
        <time>2014-09-28T09:48:58.000Z</time>
      </trkpt>
      <trkpt lat="47.50345" lon="6.82335">
        <ele>331.2</ele>
        <time>2014-09-28T09:48:59.000Z</time>
      </trkpt>
      <trkpt lat="47.50346" lon="6.82325">
        <ele>330.7</ele>
        <time>2014-09-28T09:49:00.000Z</time>
      </trkpt>
      <trkpt lat="47.50346" lon="6.82317">
        <ele>330.1</ele>
        <time>2014-09-28T09:49:01.000Z</time>
      </trkpt>
      <trkpt lat="47.50346" lon="6.82307">
        <ele>329.6</ele>
        <time>2014-09-28T09:49:02.000Z</time>
      </trkpt>
      <trkpt lat="47.50347" lon="6.82299">
        <ele>329.2</ele>
        <time>2014-09-28T09:49:03.000Z</time>
      </trkpt>
      <trkpt lat="47.50347" lon="6.82289">
        <ele>328.6</ele>
        <time>2014-09-28T09:49:04.000Z</time>
      </trkpt>
      <trkpt lat="47.50347" lon="6.82282">
        <ele>328.8</ele>
        <time>2014-09-28T09:49:05.000Z</time>
      </trkpt>
      <trkpt lat="47.50348" lon="6.82272">
        <ele>329.1</ele>
        <time>2014-09-28T09:49:06.000Z</time>
      </trkpt>
      <trkpt lat="47.50348" lon="6.82263">
        <ele>329.3</ele>
        <time>2014-09-28T09:49:07.000Z</time>
      </trkpt>
      <trkpt lat="47.50349" lon="6.82253">
        <ele>329.3</ele>
        <time>2014-09-28T09:49:08.000Z</time>
      </trkpt>
      <trkpt lat="47.5035" lon="6.82243">
        <ele>329.8</ele>
        <time>2014-09-28T09:49:09.000Z</time>
      </trkpt>
      <trkpt lat="47.50351" lon="6.82233">
        <ele>329.8</ele>
        <time>2014-09-28T09:49:10.000Z</time>
      </trkpt>
      <trkpt lat="47.50352" lon="6.82224">
        <ele>329.3</ele>
        <time>2014-09-28T09:49:11.000Z</time>
      </trkpt>
      <trkpt lat="47.50353" lon="6.82216">
        <ele>329.5</ele>
        <time>2014-09-28T09:49:12.000Z</time>
      </trkpt>
      <trkpt lat="47.50354" lon="6.82206">
        <ele>329.4</ele>
        <time>2014-09-28T09:49:13.000Z</time>
      </trkpt>
      <trkpt lat="47.50355" lon="6.82196">
        <ele>329.6</ele>
        <time>2014-09-28T09:49:14.000Z</time>
      </trkpt>
      <trkpt lat="47.50355" lon="6.82187">
        <ele>330.4</ele>
        <time>2014-09-28T09:49:15.000Z</time>
      </trkpt>
      <trkpt lat="47.50356" lon="6.82178">
        <ele>331</ele>
        <time>2014-09-28T09:49:16.000Z</time>
      </trkpt>
      <trkpt lat="47.50356" lon="6.82169">
        <ele>331.5</ele>
        <time>2014-09-28T09:49:17.000Z</time>
      </trkpt>
      <trkpt lat="47.50357" lon="6.82159">
        <ele>331.3</ele>
        <time>2014-09-28T09:49:18.000Z</time>
      </trkpt>
      <trkpt lat="47.50357" lon="6.8215">
        <ele>331.6</ele>
        <time>2014-09-28T09:49:19.000Z</time>
      </trkpt>
      <trkpt lat="47.50359" lon="6.82142">
        <ele>331.4</ele>
        <time>2014-09-28T09:49:20.000Z</time>
      </trkpt>
      <trkpt lat="47.5036" lon="6.82132">
        <ele>331.1</ele>
        <time>2014-09-28T09:49:21.000Z</time>
      </trkpt>
      <trkpt lat="47.50361" lon="6.82122">
        <ele>331</ele>
        <time>2014-09-28T09:49:22.000Z</time>
      </trkpt>
      <trkpt lat="47.50361" lon="6.82116">
        <ele>333.8</ele>
        <time>2014-09-28T09:49:23.000Z</time>
      </trkpt>
      <trkpt lat="47.50361" lon="6.82105">
        <ele>332.5</ele>
        <time>2014-09-28T09:49:24.000Z</time>
      </trkpt>
      <trkpt lat="47.50361" lon="6.82094">
        <ele>332.6</ele>
        <time>2014-09-28T09:49:25.000Z</time>
      </trkpt>
      <trkpt lat="47.50361" lon="6.82083">
        <ele>332.6</ele>
        <time>2014-09-28T09:49:26.000Z</time>
      </trkpt>
      <trkpt lat="47.50363" lon="6.82057">
        <ele>332.7</ele>
        <time>2014-09-28T09:49:29.000Z</time>
      </trkpt>
      <trkpt lat="47.50364" lon="6.82046">
        <ele>332.7</ele>
        <time>2014-09-28T09:49:30.000Z</time>
      </trkpt>
      <trkpt lat="47.50362" lon="6.82037">
        <ele>334.1</ele>
        <time>2014-09-28T09:49:31.000Z</time>
      </trkpt>
      <trkpt lat="47.50362" lon="6.82026">
        <ele>334.6</ele>
        <time>2014-09-28T09:49:32.000Z</time>
      </trkpt>
      <trkpt lat="47.50364" lon="6.82014">
        <ele>334.8</ele>
        <time>2014-09-28T09:49:33.000Z</time>
      </trkpt>
      <trkpt lat="47.50365" lon="6.82004">
        <ele>334.5</ele>
        <time>2014-09-28T09:49:34.000Z</time>
      </trkpt>
      <trkpt lat="47.50365" lon="6.81993">
        <ele>334.5</ele>
        <time>2014-09-28T09:49:35.000Z</time>
      </trkpt>
      <trkpt lat="47.50366" lon="6.81982">
        <ele>334.4</ele>
        <time>2014-09-28T09:49:36.000Z</time>
      </trkpt>
      <trkpt lat="47.50367" lon="6.81972">
        <ele>334.2</ele>
        <time>2014-09-28T09:49:37.000Z</time>
      </trkpt>
      <trkpt lat="47.50368" lon="6.81962">
        <ele>334.2</ele>
        <time>2014-09-28T09:49:38.000Z</time>
      </trkpt>
      <trkpt lat="47.5037" lon="6.81952">
        <ele>334.3</ele>
        <time>2014-09-28T09:49:39.000Z</time>
      </trkpt>
      <trkpt lat="47.50371" lon="6.81942">
        <ele>333.9</ele>
        <time>2014-09-28T09:49:40.000Z</time>
      </trkpt>
      <trkpt lat="47.50371" lon="6.81932">
        <ele>333.7</ele>
        <time>2014-09-28T09:49:41.000Z</time>
      </trkpt>
      <trkpt lat="47.50372" lon="6.81922">
        <ele>333.4</ele>
        <time>2014-09-28T09:49:42.000Z</time>
      </trkpt>
      <trkpt lat="47.50373" lon="6.81911">
        <ele>333.7</ele>
        <time>2014-09-28T09:49:43.000Z</time>
      </trkpt>
      <trkpt lat="47.50374" lon="6.81901">
        <ele>333.6</ele>
        <time>2014-09-28T09:49:44.000Z</time>
      </trkpt>
      <trkpt lat="47.50375" lon="6.8189">
        <ele>333.1</ele>
        <time>2014-09-28T09:49:45.000Z</time>
      </trkpt>
      <trkpt lat="47.50376" lon="6.8188">
        <ele>333.6</ele>
        <time>2014-09-28T09:49:46.000Z</time>
      </trkpt>
      <trkpt lat="47.50377" lon="6.81871">
        <ele>333.7</ele>
        <time>2014-09-28T09:49:47.000Z</time>
      </trkpt>
      <trkpt lat="47.50378" lon="6.81861">
        <ele>333.5</ele>
        <time>2014-09-28T09:49:48.000Z</time>
      </trkpt>
      <trkpt lat="47.50378" lon="6.81852">
        <ele>334.5</ele>
        <time>2014-09-28T09:49:49.000Z</time>
      </trkpt>
      <trkpt lat="47.50379" lon="6.81842">
        <ele>334.9</ele>
        <time>2014-09-28T09:49:50.000Z</time>
      </trkpt>
      <trkpt lat="47.5038" lon="6.81833">
        <ele>334.7</ele>
        <time>2014-09-28T09:49:51.000Z</time>
      </trkpt>
      <trkpt lat="47.50381" lon="6.81823">
        <ele>335</ele>
        <time>2014-09-28T09:49:52.000Z</time>
      </trkpt>
      <trkpt lat="47.50381" lon="6.81813">
        <ele>334.4</ele>
        <time>2014-09-28T09:49:53.000Z</time>
      </trkpt>
      <trkpt lat="47.50382" lon="6.81803">
        <ele>336.1</ele>
        <time>2014-09-28T09:49:54.000Z</time>
      </trkpt>
      <trkpt lat="47.50383" lon="6.81794">
        <ele>335.9</ele>
        <time>2014-09-28T09:49:55.000Z</time>
      </trkpt>
      <trkpt lat="47.50383" lon="6.81786">
        <ele>336.1</ele>
        <time>2014-09-28T09:49:56.000Z</time>
      </trkpt>
      <trkpt lat="47.50384" lon="6.81777">
        <ele>335.7</ele>
        <time>2014-09-28T09:49:57.000Z</time>
      </trkpt>
      <trkpt lat="47.50385" lon="6.81768">
        <ele>335.5</ele>
        <time>2014-09-28T09:49:58.000Z</time>
      </trkpt>
      <trkpt lat="47.50387" lon="6.81757">
        <ele>335.1</ele>
        <time>2014-09-28T09:49:59.000Z</time>
      </trkpt>
      <trkpt lat="47.5039" lon="6.81747">
        <ele>335.9</ele>
        <time>2014-09-28T09:50:00.000Z</time>
      </trkpt>
      <trkpt lat="47.50391" lon="6.81737">
        <ele>335.2</ele>
        <time>2014-09-28T09:50:01.000Z</time>
      </trkpt>
      <trkpt lat="47.50392" lon="6.81727">
        <ele>335.1</ele>
        <time>2014-09-28T09:50:02.000Z</time>
      </trkpt>
      <trkpt lat="47.50392" lon="6.81716">
        <ele>335.2</ele>
        <time>2014-09-28T09:50:03.000Z</time>
      </trkpt>
      <trkpt lat="47.50393" lon="6.81707">
        <ele>335.9</ele>
        <time>2014-09-28T09:50:04.000Z</time>
      </trkpt>
      <trkpt lat="47.50395" lon="6.81696">
        <ele>335.6</ele>
        <time>2014-09-28T09:50:05.000Z</time>
      </trkpt>
      <trkpt lat="47.50396" lon="6.81687">
        <ele>336</ele>
        <time>2014-09-28T09:50:06.000Z</time>
      </trkpt>
      <trkpt lat="47.50396" lon="6.81677">
        <ele>337.1</ele>
        <time>2014-09-28T09:50:07.000Z</time>
      </trkpt>
      <trkpt lat="47.50396" lon="6.81668">
        <ele>337.3</ele>
        <time>2014-09-28T09:50:08.000Z</time>
      </trkpt>
      <trkpt lat="47.50397" lon="6.81657">
        <ele>337.4</ele>
        <time>2014-09-28T09:50:09.000Z</time>
      </trkpt>
      <trkpt lat="47.50397" lon="6.81647">
        <ele>337.6</ele>
        <time>2014-09-28T09:50:10.000Z</time>
      </trkpt>
      <trkpt lat="47.50398" lon="6.81637">
        <ele>337.3</ele>
        <time>2014-09-28T09:50:11.000Z</time>
      </trkpt>
      <trkpt lat="47.50399" lon="6.81628">
        <ele>336.8</ele>
        <time>2014-09-28T09:50:12.000Z</time>
      </trkpt>
      <trkpt lat="47.50399" lon="6.81618">
        <ele>336.8</ele>
        <time>2014-09-28T09:50:13.000Z</time>
      </trkpt>
      <trkpt lat="47.504" lon="6.81608">
        <ele>336.4</ele>
        <time>2014-09-28T09:50:14.000Z</time>
      </trkpt>
      <trkpt lat="47.50401" lon="6.81598">
        <ele>336.2</ele>
        <time>2014-09-28T09:50:15.000Z</time>
      </trkpt>
      <trkpt lat="47.50401" lon="6.81589">
        <ele>336.4</ele>
        <time>2014-09-28T09:50:16.000Z</time>
      </trkpt>
      <trkpt lat="47.50402" lon="6.81579">
        <ele>336.6</ele>
        <time>2014-09-28T09:50:17.000Z</time>
      </trkpt>
      <trkpt lat="47.50403" lon="6.81569">
        <ele>336.2</ele>
        <time>2014-09-28T09:50:18.000Z</time>
      </trkpt>
      <trkpt lat="47.50403" lon="6.81559">
        <ele>336.8</ele>
        <time>2014-09-28T09:50:19.000Z</time>
      </trkpt>
      <trkpt lat="47.50404" lon="6.81549">
        <ele>336.5</ele>
        <time>2014-09-28T09:50:20.000Z</time>
      </trkpt>
      <trkpt lat="47.50405" lon="6.81539">
        <ele>336.5</ele>
        <time>2014-09-28T09:50:21.000Z</time>
      </trkpt>
      <trkpt lat="47.50405" lon="6.81528">
        <ele>336.4</ele>
        <time>2014-09-28T09:50:22.000Z</time>
      </trkpt>
      <trkpt lat="47.50408" lon="6.8152">
        <ele>338.6</ele>
        <time>2014-09-28T09:50:23.000Z</time>
      </trkpt>
      <trkpt lat="47.50409" lon="6.81511">
        <ele>338.5</ele>
        <time>2014-09-28T09:50:24.000Z</time>
      </trkpt>
      <trkpt lat="47.50409" lon="6.81501">
        <ele>338.3</ele>
        <time>2014-09-28T09:50:25.000Z</time>
      </trkpt>
      <trkpt lat="47.5041" lon="6.81491">
        <ele>338.7</ele>
        <time>2014-09-28T09:50:26.000Z</time>
      </trkpt>
      <trkpt lat="47.50409" lon="6.81481">
        <ele>338.1</ele>
        <time>2014-09-28T09:50:27.000Z</time>
      </trkpt>
      <trkpt lat="47.50408" lon="6.81406">
        <ele>336.3</ele>
        <time>2014-09-28T09:50:35.000Z</time>
      </trkpt>
      <trkpt lat="47.50409" lon="6.81396">
        <ele>336.2</ele>
        <time>2014-09-28T09:50:36.000Z</time>
      </trkpt>
      <trkpt lat="47.5041" lon="6.81386">
        <ele>335.6</ele>
        <time>2014-09-28T09:50:37.000Z</time>
      </trkpt>
      <trkpt lat="47.50411" lon="6.81377">
        <ele>335.7</ele>
        <time>2014-09-28T09:50:38.000Z</time>
      </trkpt>
      <trkpt lat="47.50412" lon="6.81367">
        <ele>334.8</ele>
        <time>2014-09-28T09:50:39.000Z</time>
      </trkpt>
      <trkpt lat="47.50412" lon="6.81357">
        <ele>334.6</ele>
        <time>2014-09-28T09:50:40.000Z</time>
      </trkpt>
      <trkpt lat="47.50413" lon="6.81348">
        <ele>333.7</ele>
        <time>2014-09-28T09:50:41.000Z</time>
      </trkpt>
      <trkpt lat="47.50414" lon="6.81339">
        <ele>333.8</ele>
        <time>2014-09-28T09:50:42.000Z</time>
      </trkpt>
      <trkpt lat="47.50414" lon="6.8133">
        <ele>334</ele>
        <time>2014-09-28T09:50:43.000Z</time>
      </trkpt>
      <trkpt lat="47.50415" lon="6.8132">
        <ele>334</ele>
        <time>2014-09-28T09:50:44.000Z</time>
      </trkpt>
      <trkpt lat="47.50415" lon="6.81311">
        <ele>334</ele>
        <time>2014-09-28T09:50:45.000Z</time>
      </trkpt>
      <trkpt lat="47.50416" lon="6.81303">
        <ele>334</ele>
        <time>2014-09-28T09:50:46.000Z</time>
      </trkpt>
      <trkpt lat="47.50417" lon="6.81294">
        <ele>334.1</ele>
        <time>2014-09-28T09:50:47.000Z</time>
      </trkpt>
      <trkpt lat="47.50417" lon="6.81285">
        <ele>334.2</ele>
        <time>2014-09-28T09:50:48.000Z</time>
      </trkpt>
      <trkpt lat="47.50418" lon="6.81277">
        <ele>334.4</ele>
        <time>2014-09-28T09:50:49.000Z</time>
      </trkpt>
      <trkpt lat="47.50419" lon="6.81268">
        <ele>334.4</ele>
        <time>2014-09-28T09:50:50.000Z</time>
      </trkpt>
      <trkpt lat="47.50421" lon="6.8126">
        <ele>334.3</ele>
        <time>2014-09-28T09:50:51.000Z</time>
      </trkpt>
      <trkpt lat="47.50423" lon="6.81253">
        <ele>334.1</ele>
        <time>2014-09-28T09:50:52.000Z</time>
      </trkpt>
      <trkpt lat="47.50424" lon="6.81245">
        <ele>334.6</ele>
        <time>2014-09-28T09:50:53.000Z</time>
      </trkpt>
      <trkpt lat="47.50425" lon="6.81237">
        <ele>335.7</ele>
        <time>2014-09-28T09:50:54.000Z</time>
      </trkpt>
      <trkpt lat="47.50426" lon="6.81228">
        <ele>335.2</ele>
        <time>2014-09-28T09:50:55.000Z</time>
      </trkpt>
      <trkpt lat="47.50427" lon="6.81219">
        <ele>335.9</ele>
        <time>2014-09-28T09:50:56.000Z</time>
      </trkpt>
      <trkpt lat="47.50429" lon="6.81211">
        <ele>335.1</ele>
        <time>2014-09-28T09:50:57.000Z</time>
      </trkpt>
      <trkpt lat="47.5043" lon="6.81203">
        <ele>335.2</ele>
        <time>2014-09-28T09:50:58.000Z</time>
      </trkpt>
      <trkpt lat="47.50431" lon="6.81194">
        <ele>336.2</ele>
        <time>2014-09-28T09:50:59.000Z</time>
      </trkpt>
      <trkpt lat="47.50432" lon="6.81185">
        <ele>336</ele>
        <time>2014-09-28T09:51:00.000Z</time>
      </trkpt>
      <trkpt lat="47.50432" lon="6.81175">
        <ele>335.1</ele>
        <time>2014-09-28T09:51:01.000Z</time>
      </trkpt>
      <trkpt lat="47.50433" lon="6.81166">
        <ele>334.5</ele>
        <time>2014-09-28T09:51:02.000Z</time>
      </trkpt>
      <trkpt lat="47.50434" lon="6.81157">
        <ele>334.2</ele>
        <time>2014-09-28T09:51:03.000Z</time>
      </trkpt>
      <trkpt lat="47.50433" lon="6.81148">
        <ele>334.2</ele>
        <time>2014-09-28T09:51:04.000Z</time>
      </trkpt>
      <trkpt lat="47.50433" lon="6.81141">
        <ele>333.6</ele>
        <time>2014-09-28T09:51:05.000Z</time>
      </trkpt>
      <trkpt lat="47.50432" lon="6.81133">
        <ele>333.5</ele>
        <time>2014-09-28T09:51:06.000Z</time>
      </trkpt>
      <trkpt lat="47.50433" lon="6.81123">
        <ele>333.5</ele>
        <time>2014-09-28T09:51:07.000Z</time>
      </trkpt>
      <trkpt lat="47.50432" lon="6.81112">
        <ele>333.5</ele>
        <time>2014-09-28T09:51:08.000Z</time>
      </trkpt>
      <trkpt lat="47.50432" lon="6.81103">
        <ele>333.1</ele>
        <time>2014-09-28T09:51:09.000Z</time>
      </trkpt>
      <trkpt lat="47.50432" lon="6.81092">
        <ele>332</ele>
        <time>2014-09-28T09:51:10.000Z</time>
      </trkpt>
      <trkpt lat="47.50432" lon="6.81082">
        <ele>331.4</ele>
        <time>2014-09-28T09:51:11.000Z</time>
      </trkpt>
      <trkpt lat="47.50434" lon="6.81071">
        <ele>331.2</ele>
        <time>2014-09-28T09:51:12.000Z</time>
      </trkpt>
      <trkpt lat="47.50435" lon="6.81062">
        <ele>330.4</ele>
        <time>2014-09-28T09:51:13.000Z</time>
      </trkpt>
      <trkpt lat="47.50435" lon="6.81052">
        <ele>329.6</ele>
        <time>2014-09-28T09:51:14.000Z</time>
      </trkpt>
      <trkpt lat="47.50436" lon="6.81042">
        <ele>328.8</ele>
        <time>2014-09-28T09:51:15.000Z</time>
      </trkpt>
      <trkpt lat="47.50437" lon="6.81032">
        <ele>328.7</ele>
        <time>2014-09-28T09:51:16.000Z</time>
      </trkpt>
      <trkpt lat="47.50437" lon="6.81023">
        <ele>328.7</ele>
        <time>2014-09-28T09:51:17.000Z</time>
      </trkpt>
      <trkpt lat="47.50438" lon="6.81015">
        <ele>329.5</ele>
        <time>2014-09-28T09:51:18.000Z</time>
      </trkpt>
      <trkpt lat="47.50438" lon="6.81006">
        <ele>330</ele>
        <time>2014-09-28T09:51:19.000Z</time>
      </trkpt>
      <trkpt lat="47.50439" lon="6.80997">
        <ele>329.7</ele>
        <time>2014-09-28T09:51:20.000Z</time>
      </trkpt>
      <trkpt lat="47.5044" lon="6.80987">
        <ele>329.6</ele>
        <time>2014-09-28T09:51:21.000Z</time>
      </trkpt>
      <trkpt lat="47.5044" lon="6.80978">
        <ele>329.4</ele>
        <time>2014-09-28T09:51:22.000Z</time>
      </trkpt>
      <trkpt lat="47.5044" lon="6.80969">
        <ele>329.7</ele>
        <time>2014-09-28T09:51:23.000Z</time>
      </trkpt>
      <trkpt lat="47.5044" lon="6.80962">
        <ele>330.8</ele>
        <time>2014-09-28T09:51:24.000Z</time>
      </trkpt>
      <trkpt lat="47.50441" lon="6.80952">
        <ele>330.7</ele>
        <time>2014-09-28T09:51:25.000Z</time>
      </trkpt>
      <trkpt lat="47.50441" lon="6.80943">
        <ele>330.7</ele>
        <time>2014-09-28T09:51:26.000Z</time>
      </trkpt>
      <trkpt lat="47.50442" lon="6.80918">
        <ele>331.3</ele>
        <time>2014-09-28T09:51:29.000Z</time>
      </trkpt>
      <trkpt lat="47.50443" lon="6.80908">
        <ele>331.4</ele>
        <time>2014-09-28T09:51:30.000Z</time>
      </trkpt>
      <trkpt lat="47.50444" lon="6.80899">
        <ele>331.1</ele>
        <time>2014-09-28T09:51:31.000Z</time>
      </trkpt>
      <trkpt lat="47.50445" lon="6.8089">
        <ele>330.7</ele>
        <time>2014-09-28T09:51:32.000Z</time>
      </trkpt>
      <trkpt lat="47.50445" lon="6.80881">
        <ele>330.6</ele>
        <time>2014-09-28T09:51:33.000Z</time>
      </trkpt>
      <trkpt lat="47.50446" lon="6.80872">
        <ele>329.5</ele>
        <time>2014-09-28T09:51:34.000Z</time>
      </trkpt>
      <trkpt lat="47.50446" lon="6.80863">
        <ele>329.3</ele>
        <time>2014-09-28T09:51:35.000Z</time>
      </trkpt>
      <trkpt lat="47.50446" lon="6.80854">
        <ele>329.4</ele>
        <time>2014-09-28T09:51:36.000Z</time>
      </trkpt>
      <trkpt lat="47.50446" lon="6.80846">
        <ele>329.6</ele>
        <time>2014-09-28T09:51:37.000Z</time>
      </trkpt>
      <trkpt lat="47.50445" lon="6.80837">
        <ele>328.4</ele>
        <time>2014-09-28T09:51:38.000Z</time>
      </trkpt>
      <trkpt lat="47.50444" lon="6.80829">
        <ele>328.5</ele>
        <time>2014-09-28T09:51:39.000Z</time>
      </trkpt>
      <trkpt lat="47.50444" lon="6.80822">
        <ele>328.9</ele>
        <time>2014-09-28T09:51:40.000Z</time>
      </trkpt>
      <trkpt lat="47.50445" lon="6.80812">
        <ele>327.7</ele>
        <time>2014-09-28T09:51:41.000Z</time>
      </trkpt>
      <trkpt lat="47.50446" lon="6.80804">
        <ele>328.3</ele>
        <time>2014-09-28T09:51:42.000Z</time>
      </trkpt>
      <trkpt lat="47.50448" lon="6.80795">
        <ele>327.9</ele>
        <time>2014-09-28T09:51:43.000Z</time>
      </trkpt>
      <trkpt lat="47.50449" lon="6.80784">
        <ele>328</ele>
        <time>2014-09-28T09:51:44.000Z</time>
      </trkpt>
      <trkpt lat="47.5045" lon="6.80775">
        <ele>328.9</ele>
        <time>2014-09-28T09:51:45.000Z</time>
      </trkpt>
      <trkpt lat="47.50451" lon="6.80764">
        <ele>328.4</ele>
        <time>2014-09-28T09:51:46.000Z</time>
      </trkpt>
      <trkpt lat="47.50451" lon="6.80754">
        <ele>328.9</ele>
        <time>2014-09-28T09:51:47.000Z</time>
      </trkpt>
      <trkpt lat="47.50452" lon="6.80744">
        <ele>328.7</ele>
        <time>2014-09-28T09:51:48.000Z</time>
      </trkpt>
      <trkpt lat="47.50453" lon="6.80734">
        <ele>328.3</ele>
        <time>2014-09-28T09:51:49.000Z</time>
      </trkpt>
      <trkpt lat="47.50453" lon="6.80725">
        <ele>328.4</ele>
        <time>2014-09-28T09:51:50.000Z</time>
      </trkpt>
      <trkpt lat="47.50454" lon="6.80716">
        <ele>328.3</ele>
        <time>2014-09-28T09:51:51.000Z</time>
      </trkpt>
      <trkpt lat="47.50454" lon="6.80706">
        <ele>328.5</ele>
        <time>2014-09-28T09:51:52.000Z</time>
      </trkpt>
      <trkpt lat="47.50455" lon="6.80697">
        <ele>328.7</ele>
        <time>2014-09-28T09:51:53.000Z</time>
      </trkpt>
      <trkpt lat="47.50456" lon="6.80688">
        <ele>328.3</ele>
        <time>2014-09-28T09:51:54.000Z</time>
      </trkpt>
      <trkpt lat="47.50457" lon="6.80679">
        <ele>328</ele>
        <time>2014-09-28T09:51:55.000Z</time>
      </trkpt>
      <trkpt lat="47.50458" lon="6.80668">
        <ele>327.2</ele>
        <time>2014-09-28T09:51:56.000Z</time>
      </trkpt>
      <trkpt lat="47.50458" lon="6.80659">
        <ele>326.4</ele>
        <time>2014-09-28T09:51:57.000Z</time>
      </trkpt>
      <trkpt lat="47.50459" lon="6.8065">
        <ele>326.5</ele>
        <time>2014-09-28T09:51:58.000Z</time>
      </trkpt>
      <trkpt lat="47.5046" lon="6.80641">
        <ele>325.4</ele>
        <time>2014-09-28T09:51:59.000Z</time>
      </trkpt>
      <trkpt lat="47.5046" lon="6.80632">
        <ele>325.5</ele>
        <time>2014-09-28T09:52:00.000Z</time>
      </trkpt>
      <trkpt lat="47.50461" lon="6.80623">
        <ele>325.6</ele>
        <time>2014-09-28T09:52:01.000Z</time>
      </trkpt>
      <trkpt lat="47.5046" lon="6.80614">
        <ele>325.9</ele>
        <time>2014-09-28T09:52:02.000Z</time>
      </trkpt>
      <trkpt lat="47.50461" lon="6.80606">
        <ele>326.1</ele>
        <time>2014-09-28T09:52:03.000Z</time>
      </trkpt>
      <trkpt lat="47.50461" lon="6.80597">
        <ele>326.5</ele>
        <time>2014-09-28T09:52:04.000Z</time>
      </trkpt>
      <trkpt lat="47.50462" lon="6.80589">
        <ele>326.1</ele>
        <time>2014-09-28T09:52:05.000Z</time>
      </trkpt>
      <trkpt lat="47.50462" lon="6.80581">
        <ele>326.2</ele>
        <time>2014-09-28T09:52:05.994Z</time>
      </trkpt>
      <trkpt lat="47.50463" lon="6.80574">
        <ele>326.6</ele>
        <time>2014-09-28T09:52:07.000Z</time>
      </trkpt>
      <trkpt lat="47.50463" lon="6.80567">
        <ele>327</ele>
        <time>2014-09-28T09:52:08.000Z</time>
      </trkpt>
      <trkpt lat="47.50463" lon="6.80559">
        <ele>327.6</ele>
        <time>2014-09-28T09:52:09.000Z</time>
      </trkpt>
      <trkpt lat="47.50463" lon="6.8055">
        <ele>328.2</ele>
        <time>2014-09-28T09:52:10.000Z</time>
      </trkpt>
      <trkpt lat="47.50463" lon="6.80541">
        <ele>327.1</ele>
        <time>2014-09-28T09:52:11.000Z</time>
      </trkpt>
      <trkpt lat="47.50463" lon="6.80533">
        <ele>327.1</ele>
        <time>2014-09-28T09:52:12.000Z</time>
      </trkpt>
      <trkpt lat="47.50464" lon="6.80526">
        <ele>327.2</ele>
        <time>2014-09-28T09:52:13.000Z</time>
      </trkpt>
      <trkpt lat="47.50465" lon="6.80518">
        <ele>327.2</ele>
        <time>2014-09-28T09:52:14.000Z</time>
      </trkpt>
      <trkpt lat="47.50467" lon="6.8051">
        <ele>326.6</ele>
        <time>2014-09-28T09:52:15.000Z</time>
      </trkpt>
      <trkpt lat="47.50468" lon="6.80502">
        <ele>326.5</ele>
        <time>2014-09-28T09:52:16.000Z</time>
      </trkpt>
      <trkpt lat="47.50469" lon="6.80493">
        <ele>326.4</ele>
        <time>2014-09-28T09:52:17.000Z</time>
      </trkpt>
      <trkpt lat="47.50469" lon="6.80485">
        <ele>326.2</ele>
        <time>2014-09-28T09:52:18.000Z</time>
      </trkpt>
      <trkpt lat="47.50469" lon="6.80478">
        <ele>326.5</ele>
        <time>2014-09-28T09:52:19.000Z</time>
      </trkpt>
      <trkpt lat="47.50469" lon="6.80471">
        <ele>326.5</ele>
        <time>2014-09-28T09:52:20.000Z</time>
      </trkpt>
      <trkpt lat="47.50467" lon="6.80465">
        <ele>326.7</ele>
        <time>2014-09-28T09:52:21.000Z</time>
      </trkpt>
      <trkpt lat="47.50467" lon="6.80461">
        <ele>327.4</ele>
        <time>2014-09-28T09:52:22.000Z</time>
      </trkpt>
      <trkpt lat="47.50466" lon="6.80458">
        <ele>327.5</ele>
        <time>2014-09-28T09:52:23.000Z</time>
      </trkpt>
      <trkpt lat="47.50466" lon="6.80454">
        <ele>327.9</ele>
        <time>2014-09-28T09:52:24.000Z</time>
      </trkpt>
      <trkpt lat="47.50465" lon="6.80449">
        <ele>328.9</ele>
        <time>2014-09-28T09:52:25.000Z</time>
      </trkpt>
      <trkpt lat="47.50464" lon="6.80445">
        <ele>329.6</ele>
        <time>2014-09-28T09:52:26.000Z</time>
      </trkpt>
      <trkpt lat="47.50444" lon="6.80426">
        <ele>331.8</ele>
        <time>2014-09-28T09:52:33.784Z</time>
      </trkpt>
      <trkpt lat="47.50441" lon="6.80428">
        <ele>331.9</ele>
        <time>2014-09-28T09:52:35.000Z</time>
      </trkpt>
      <trkpt lat="47.50439" lon="6.80432">
        <ele>331.5</ele>
        <time>2014-09-28T09:52:36.000Z</time>
      </trkpt>
      <trkpt lat="47.50439" lon="6.80437">
        <ele>331.5</ele>
        <time>2014-09-28T09:52:37.000Z</time>
      </trkpt>
      <trkpt lat="47.50439" lon="6.80441">
        <ele>331.1</ele>
        <time>2014-09-28T09:52:38.000Z</time>
      </trkpt>
      <trkpt lat="47.50439" lon="6.80446">
        <ele>331</ele>
        <time>2014-09-28T09:52:39.000Z</time>
      </trkpt>
      <trkpt lat="47.50441" lon="6.80449">
        <ele>332.5</ele>
        <time>2014-09-28T09:52:40.000Z</time>
      </trkpt>
      <trkpt lat="47.50443" lon="6.80452">
        <ele>333</ele>
        <time>2014-09-28T09:52:41.000Z</time>
      </trkpt>
      <trkpt lat="47.50446" lon="6.80453">
        <ele>332</ele>
        <time>2014-09-28T09:52:42.000Z</time>
      </trkpt>
      <trkpt lat="47.5045" lon="6.80453">
        <ele>331.1</ele>
        <time>2014-09-28T09:52:43.000Z</time>
      </trkpt>
      <trkpt lat="47.50454" lon="6.80452">
        <ele>331.5</ele>
        <time>2014-09-28T09:52:44.000Z</time>
      </trkpt>
      <trkpt lat="47.50457" lon="6.80452">
        <ele>331.4</ele>
        <time>2014-09-28T09:52:45.000Z</time>
      </trkpt>
      <trkpt lat="47.50461" lon="6.80451">
        <ele>330.9</ele>
        <time>2014-09-28T09:52:46.000Z</time>
      </trkpt>
      <trkpt lat="47.50465" lon="6.8045">
        <ele>331.4</ele>
        <time>2014-09-28T09:52:47.000Z</time>
      </trkpt>
      <trkpt lat="47.50468" lon="6.8045">
        <ele>332</ele>
        <time>2014-09-28T09:52:48.000Z</time>
      </trkpt>
      <trkpt lat="47.50472" lon="6.8045">
        <ele>331.7</ele>
        <time>2014-09-28T09:52:49.000Z</time>
      </trkpt>
      <trkpt lat="47.50475" lon="6.80449">
        <ele>331.3</ele>
        <time>2014-09-28T09:52:50.000Z</time>
      </trkpt>
      <trkpt lat="47.50478" lon="6.80448">
        <ele>330.4</ele>
        <time>2014-09-28T09:52:51.000Z</time>
      </trkpt>
      <trkpt lat="47.50481" lon="6.80447">
        <ele>329.5</ele>
        <time>2014-09-28T09:52:52.000Z</time>
      </trkpt>
      <trkpt lat="47.50485" lon="6.80446">
        <ele>329.3</ele>
        <time>2014-09-28T09:52:53.000Z</time>
      </trkpt>
      <trkpt lat="47.50489" lon="6.80446">
        <ele>329.4</ele>
        <time>2014-09-28T09:52:54.000Z</time>
      </trkpt>
      <trkpt lat="47.50493" lon="6.80445">
        <ele>329.4</ele>
        <time>2014-09-28T09:52:55.000Z</time>
      </trkpt>
      <trkpt lat="47.50497" lon="6.80445">
        <ele>329.5</ele>
        <time>2014-09-28T09:52:56.000Z</time>
      </trkpt>
      <trkpt lat="47.50501" lon="6.80445">
        <ele>329.2</ele>
        <time>2014-09-28T09:52:57.000Z</time>
      </trkpt>
      <trkpt lat="47.50504" lon="6.80446">
        <ele>329.5</ele>
        <time>2014-09-28T09:52:58.000Z</time>
      </trkpt>
      <trkpt lat="47.50507" lon="6.80444">
        <ele>328.6</ele>
        <time>2014-09-28T09:53:23.000Z</time>
      </trkpt>
      <trkpt lat="47.50509" lon="6.80445">
        <ele>328.8</ele>
        <time>2014-09-28T09:53:24.000Z</time>
      </trkpt>
      <trkpt lat="47.50511" lon="6.80446">
        <ele>328.7</ele>
        <time>2014-09-28T09:53:25.000Z</time>
      </trkpt>
      <trkpt lat="47.50513" lon="6.80447">
        <ele>328.4</ele>
        <time>2014-09-28T09:53:26.000Z</time>
      </trkpt>
      <trkpt lat="47.50522" lon="6.80448">
        <ele>328.4</ele>
        <time>2014-09-28T09:53:29.000Z</time>
      </trkpt>
      <trkpt lat="47.50525" lon="6.80446">
        <ele>329.9</ele>
        <time>2014-09-28T09:53:30.000Z</time>
      </trkpt>
      <trkpt lat="47.50527" lon="6.80444">
        <ele>330.8</ele>
        <time>2014-09-28T09:53:31.000Z</time>
      </trkpt>
      <trkpt lat="47.50529" lon="6.8044">
        <ele>330.7</ele>
        <time>2014-09-28T09:53:32.000Z</time>
      </trkpt>
      <trkpt lat="47.5053" lon="6.80434">
        <ele>330.2</ele>
        <time>2014-09-28T09:53:33.000Z</time>
      </trkpt>
      <trkpt lat="47.50531" lon="6.80427">
        <ele>330.6</ele>
        <time>2014-09-28T09:53:34.000Z</time>
      </trkpt>
      <trkpt lat="47.50533" lon="6.80416">
        <ele>331.2</ele>
        <time>2014-09-28T09:53:35.000Z</time>
      </trkpt>
      <trkpt lat="47.50533" lon="6.8041">
        <ele>331.7</ele>
        <time>2014-09-28T09:53:36.000Z</time>
      </trkpt>
      <trkpt lat="47.50532" lon="6.80405">
        <ele>329.6</ele>
        <time>2014-09-28T09:53:37.000Z</time>
      </trkpt>
      <trkpt lat="47.50527" lon="6.80404">
        <ele>330.5</ele>
        <time>2014-09-28T09:53:38.000Z</time>
      </trkpt>
      <trkpt lat="47.50524" lon="6.80409">
        <ele>331.5</ele>
        <time>2014-09-28T09:53:39.000Z</time>
      </trkpt>
      <trkpt lat="47.50524" lon="6.80416">
        <ele>332.1</ele>
        <time>2014-09-28T09:53:40.000Z</time>
      </trkpt>
      <trkpt lat="47.50526" lon="6.80423">
        <ele>332.2</ele>
        <time>2014-09-28T09:53:41.000Z</time>
      </trkpt>
      <trkpt lat="47.50526" lon="6.80431">
        <ele>331.3</ele>
        <time>2014-09-28T09:53:42.000Z</time>
      </trkpt>
      <trkpt lat="47.50523" lon="6.80437">
        <ele>331.7</ele>
        <time>2014-09-28T09:53:43.000Z</time>
      </trkpt>
      <trkpt lat="47.50519" lon="6.80436">
        <ele>331.3</ele>
        <time>2014-09-28T09:53:44.000Z</time>
      </trkpt>
      <trkpt lat="47.50515" lon="6.80435">
        <ele>331</ele>
        <time>2014-09-28T09:53:45.000Z</time>
      </trkpt>
      <trkpt lat="47.50513" lon="6.80428">
        <ele>332.9</ele>
        <time>2014-09-28T09:53:46.000Z</time>
      </trkpt>
      <trkpt lat="47.5051" lon="6.80421">
        <ele>332.4</ele>
        <time>2014-09-28T09:53:47.000Z</time>
      </trkpt>
      <trkpt lat="47.50509" lon="6.80414">
        <ele>330.4</ele>
        <time>2014-09-28T09:53:48.000Z</time>
      </trkpt>
      <trkpt lat="47.50508" lon="6.80407">
        <ele>331.1</ele>
        <time>2014-09-28T09:53:49.000Z</time>
      </trkpt>
      <trkpt lat="47.50508" lon="6.804">
        <ele>330.5</ele>
        <time>2014-09-28T09:53:50.000Z</time>
      </trkpt>
      <trkpt lat="47.50507" lon="6.80391">
        <ele>330.3</ele>
        <time>2014-09-28T09:53:51.000Z</time>
      </trkpt>
      <trkpt lat="47.50506" lon="6.80383">
        <ele>330.1</ele>
        <time>2014-09-28T09:53:52.000Z</time>
      </trkpt>
      <trkpt lat="47.50505" lon="6.80376">
        <ele>329.9</ele>
        <time>2014-09-28T09:53:53.000Z</time>
      </trkpt>
      <trkpt lat="47.50503" lon="6.80368">
        <ele>330.3</ele>
        <time>2014-09-28T09:53:54.000Z</time>
      </trkpt>
      <trkpt lat="47.50503" lon="6.80361">
        <ele>330</ele>
        <time>2014-09-28T09:53:55.000Z</time>
      </trkpt>
      <trkpt lat="47.50502" lon="6.80353">
        <ele>330</ele>
        <time>2014-09-28T09:53:56.000Z</time>
      </trkpt>
      <trkpt lat="47.50501" lon="6.80345">
        <ele>329.9</ele>
        <time>2014-09-28T09:53:57.000Z</time>
      </trkpt>
      <trkpt lat="47.505" lon="6.80336">
        <ele>329.9</ele>
        <time>2014-09-28T09:53:58.000Z</time>
      </trkpt>
      <trkpt lat="47.50499" lon="6.80329">
        <ele>330.9</ele>
        <time>2014-09-28T09:53:59.000Z</time>
      </trkpt>
      <trkpt lat="47.50499" lon="6.80321">
        <ele>330.1</ele>
        <time>2014-09-28T09:54:00.000Z</time>
      </trkpt>
      <trkpt lat="47.50499" lon="6.80314">
        <ele>330.1</ele>
        <time>2014-09-28T09:54:01.000Z</time>
      </trkpt>
      <trkpt lat="47.505" lon="6.80306">
        <ele>330</ele>
        <time>2014-09-28T09:54:02.000Z</time>
      </trkpt>
      <trkpt lat="47.505" lon="6.80298">
        <ele>329.8</ele>
        <time>2014-09-28T09:54:03.000Z</time>
      </trkpt>
      <trkpt lat="47.50501" lon="6.80292">
        <ele>330.4</ele>
        <time>2014-09-28T09:54:04.000Z</time>
      </trkpt>
      <trkpt lat="47.50501" lon="6.80284">
        <ele>330.3</ele>
        <time>2014-09-28T09:54:05.000Z</time>
      </trkpt>
      <trkpt lat="47.50502" lon="6.80276">
        <ele>330.1</ele>
        <time>2014-09-28T09:54:06.000Z</time>
      </trkpt>
      <trkpt lat="47.50502" lon="6.80269">
        <ele>329.9</ele>
        <time>2014-09-28T09:54:07.000Z</time>
      </trkpt>
      <trkpt lat="47.50502" lon="6.80261">
        <ele>329.6</ele>
        <time>2014-09-28T09:54:08.000Z</time>
      </trkpt>
      <trkpt lat="47.50502" lon="6.80253">
        <ele>329.5</ele>
        <time>2014-09-28T09:54:09.000Z</time>
      </trkpt>
      <trkpt lat="47.50502" lon="6.80245">
        <ele>329.7</ele>
        <time>2014-09-28T09:54:10.000Z</time>
      </trkpt>
      <trkpt lat="47.50502" lon="6.80238">
        <ele>330.4</ele>
        <time>2014-09-28T09:54:11.000Z</time>
      </trkpt>
      <trkpt lat="47.50502" lon="6.80231">
        <ele>329.8</ele>
        <time>2014-09-28T09:54:12.000Z</time>
      </trkpt>
      <trkpt lat="47.50502" lon="6.80223">
        <ele>330.3</ele>
        <time>2014-09-28T09:54:13.000Z</time>
      </trkpt>
      <trkpt lat="47.50502" lon="6.80214">
        <ele>330.2</ele>
        <time>2014-09-28T09:54:14.000Z</time>
      </trkpt>
      <trkpt lat="47.50503" lon="6.80206">
        <ele>329.9</ele>
        <time>2014-09-28T09:54:15.000Z</time>
      </trkpt>
      <trkpt lat="47.50503" lon="6.80197">
        <ele>329.3</ele>
        <time>2014-09-28T09:54:16.000Z</time>
      </trkpt>
      <trkpt lat="47.50504" lon="6.80188">
        <ele>329.2</ele>
        <time>2014-09-28T09:54:17.000Z</time>
      </trkpt>
      <trkpt lat="47.50504" lon="6.80178">
        <ele>328.2</ele>
        <time>2014-09-28T09:54:18.000Z</time>
      </trkpt>
      <trkpt lat="47.50505" lon="6.8017">
        <ele>328.8</ele>
        <time>2014-09-28T09:54:19.000Z</time>
      </trkpt>
      <trkpt lat="47.50505" lon="6.80162">
        <ele>328.9</ele>
        <time>2014-09-28T09:54:20.000Z</time>
      </trkpt>
      <trkpt lat="47.50505" lon="6.80155">
        <ele>330.9</ele>
        <time>2014-09-28T09:54:21.000Z</time>
      </trkpt>
      <trkpt lat="47.50505" lon="6.80147">
        <ele>331.1</ele>
        <time>2014-09-28T09:54:22.000Z</time>
      </trkpt>
      <trkpt lat="47.50505" lon="6.80139">
        <ele>330.4</ele>
        <time>2014-09-28T09:54:23.000Z</time>
      </trkpt>
      <trkpt lat="47.50506" lon="6.80131">
        <ele>330.6</ele>
        <time>2014-09-28T09:54:24.000Z</time>
      </trkpt>
      <trkpt lat="47.50506" lon="6.80122">
        <ele>330.4</ele>
        <time>2014-09-28T09:54:25.000Z</time>
      </trkpt>
      <trkpt lat="47.50507" lon="6.80114">
        <ele>329.7</ele>
        <time>2014-09-28T09:54:26.000Z</time>
      </trkpt>
      <trkpt lat="47.50508" lon="6.80095">
        <ele>331.3</ele>
        <time>2014-09-28T09:54:29.000Z</time>
      </trkpt>
      <trkpt lat="47.50508" lon="6.80086">
        <ele>331.3</ele>
        <time>2014-09-28T09:54:30.000Z</time>
      </trkpt>
      <trkpt lat="47.50509" lon="6.80078">
        <ele>331</ele>
        <time>2014-09-28T09:54:31.000Z</time>
      </trkpt>
      <trkpt lat="47.50509" lon="6.8007">
        <ele>330.9</ele>
        <time>2014-09-28T09:54:32.000Z</time>
      </trkpt>
      <trkpt lat="47.5051" lon="6.80062">
        <ele>330.6</ele>
        <time>2014-09-28T09:54:33.000Z</time>
      </trkpt>
      <trkpt lat="47.5051" lon="6.80055">
        <ele>330.6</ele>
        <time>2014-09-28T09:54:34.000Z</time>
      </trkpt>
      <trkpt lat="47.50511" lon="6.80046">
        <ele>330.2</ele>
        <time>2014-09-28T09:54:35.000Z</time>
      </trkpt>
      <trkpt lat="47.50511" lon="6.80038">
        <ele>330.2</ele>
        <time>2014-09-28T09:54:36.000Z</time>
      </trkpt>
      <trkpt lat="47.50511" lon="6.8003">
        <ele>329.3</ele>
        <time>2014-09-28T09:54:37.000Z</time>
      </trkpt>
      <trkpt lat="47.50512" lon="6.80021">
        <ele>327.9</ele>
        <time>2014-09-28T09:54:38.000Z</time>
      </trkpt>
      <trkpt lat="47.50512" lon="6.80013">
        <ele>328.9</ele>
        <time>2014-09-28T09:54:39.000Z</time>
      </trkpt>
      <trkpt lat="47.50512" lon="6.80006">
        <ele>329.1</ele>
        <time>2014-09-28T09:54:40.000Z</time>
      </trkpt>
      <trkpt lat="47.50513" lon="6.79998">
        <ele>328.8</ele>
        <time>2014-09-28T09:54:41.000Z</time>
      </trkpt>
      <trkpt lat="47.50513" lon="6.7999">
        <ele>327.8</ele>
        <time>2014-09-28T09:54:42.000Z</time>
      </trkpt>
      <trkpt lat="47.50513" lon="6.79983">
        <ele>328.2</ele>
        <time>2014-09-28T09:54:43.000Z</time>
      </trkpt>
      <trkpt lat="47.50514" lon="6.79975">
        <ele>328</ele>
        <time>2014-09-28T09:54:44.000Z</time>
      </trkpt>
      <trkpt lat="47.50514" lon="6.79967">
        <ele>329.1</ele>
        <time>2014-09-28T09:54:45.000Z</time>
      </trkpt>
      <trkpt lat="47.50514" lon="6.79959">
        <ele>329.1</ele>
        <time>2014-09-28T09:54:46.000Z</time>
      </trkpt>
      <trkpt lat="47.50514" lon="6.79951">
        <ele>329</ele>
        <time>2014-09-28T09:54:47.000Z</time>
      </trkpt>
      <trkpt lat="47.50515" lon="6.79942">
        <ele>327.9</ele>
        <time>2014-09-28T09:54:48.000Z</time>
      </trkpt>
      <trkpt lat="47.50515" lon="6.79934">
        <ele>327.7</ele>
        <time>2014-09-28T09:54:49.000Z</time>
      </trkpt>
      <trkpt lat="47.50515" lon="6.79927">
        <ele>327.8</ele>
        <time>2014-09-28T09:54:50.000Z</time>
      </trkpt>
      <trkpt lat="47.50515" lon="6.7992">
        <ele>327.8</ele>
        <time>2014-09-28T09:54:51.000Z</time>
      </trkpt>
      <trkpt lat="47.50516" lon="6.79912">
        <ele>328</ele>
        <time>2014-09-28T09:54:52.000Z</time>
      </trkpt>
      <trkpt lat="47.50516" lon="6.79904">
        <ele>327.5</ele>
        <time>2014-09-28T09:54:53.000Z</time>
      </trkpt>
      <trkpt lat="47.50515" lon="6.79896">
        <ele>327.4</ele>
        <time>2014-09-28T09:54:54.000Z</time>
      </trkpt>
      <trkpt lat="47.50515" lon="6.79888">
        <ele>327.3</ele>
        <time>2014-09-28T09:54:55.000Z</time>
      </trkpt>
      <trkpt lat="47.50515" lon="6.7988">
        <ele>326.8</ele>
        <time>2014-09-28T09:54:56.000Z</time>
      </trkpt>
      <trkpt lat="47.50514" lon="6.79873">
        <ele>326.9</ele>
        <time>2014-09-28T09:54:57.000Z</time>
      </trkpt>
      <trkpt lat="47.50514" lon="6.79864">
        <ele>327.5</ele>
        <time>2014-09-28T09:54:58.000Z</time>
      </trkpt>
      <trkpt lat="47.50514" lon="6.79857">
        <ele>327.4</ele>
        <time>2014-09-28T09:54:59.000Z</time>
      </trkpt>
      <trkpt lat="47.50515" lon="6.79847">
        <ele>327.5</ele>
        <time>2014-09-28T09:55:00.000Z</time>
      </trkpt>
      <trkpt lat="47.50515" lon="6.7984">
        <ele>327.1</ele>
        <time>2014-09-28T09:55:01.000Z</time>
      </trkpt>
      <trkpt lat="47.50515" lon="6.79834">
        <ele>327.6</ele>
        <time>2014-09-28T09:55:02.000Z</time>
      </trkpt>
      <trkpt lat="47.50515" lon="6.79828">
        <ele>327.8</ele>
        <time>2014-09-28T09:55:03.000Z</time>
      </trkpt>
      <trkpt lat="47.50516" lon="6.79821">
        <ele>327.8</ele>
        <time>2014-09-28T09:55:04.000Z</time>
      </trkpt>
      <trkpt lat="47.50517" lon="6.79815">
        <ele>331</ele>
        <time>2014-09-28T09:55:05.000Z</time>
      </trkpt>
      <trkpt lat="47.50516" lon="6.79808">
        <ele>332.1</ele>
        <time>2014-09-28T09:55:06.000Z</time>
      </trkpt>
      <trkpt lat="47.50515" lon="6.79803">
        <ele>332.6</ele>
        <time>2014-09-28T09:55:07.000Z</time>
      </trkpt>
      <trkpt lat="47.50514" lon="6.79793">
        <ele>332.8</ele>
        <time>2014-09-28T09:55:08.000Z</time>
      </trkpt>
      <trkpt lat="47.50514" lon="6.79783">
        <ele>332.2</ele>
        <time>2014-09-28T09:55:09.000Z</time>
      </trkpt>
      <trkpt lat="47.50514" lon="6.79771">
        <ele>331.7</ele>
        <time>2014-09-28T09:55:10.000Z</time>
      </trkpt>
      <trkpt lat="47.50512" lon="6.79759">
        <ele>330.7</ele>
        <time>2014-09-28T09:55:11.000Z</time>
      </trkpt>
      <trkpt lat="47.5051" lon="6.79747">
        <ele>329.9</ele>
        <time>2014-09-28T09:55:12.000Z</time>
      </trkpt>
      <trkpt lat="47.50506" lon="6.7974">
        <ele>330.5</ele>
        <time>2014-09-28T09:55:13.000Z</time>
      </trkpt>
      <trkpt lat="47.50506" lon="6.79729">
        <ele>330.8</ele>
        <time>2014-09-28T09:55:14.000Z</time>
      </trkpt>
      <trkpt lat="47.50504" lon="6.79719">
        <ele>330.5</ele>
        <time>2014-09-28T09:55:15.000Z</time>
      </trkpt>
      <trkpt lat="47.50503" lon="6.79708">
        <ele>330.3</ele>
        <time>2014-09-28T09:55:16.000Z</time>
      </trkpt>
      <trkpt lat="47.50502" lon="6.79699">
        <ele>330.3</ele>
        <time>2014-09-28T09:55:17.000Z</time>
      </trkpt>
      <trkpt lat="47.50501" lon="6.79691">
        <ele>330.5</ele>
        <time>2014-09-28T09:55:18.000Z</time>
      </trkpt>
      <trkpt lat="47.505" lon="6.79682">
        <ele>331</ele>
        <time>2014-09-28T09:55:19.000Z</time>
      </trkpt>
      <trkpt lat="47.505" lon="6.79672">
        <ele>331</ele>
        <time>2014-09-28T09:55:20.000Z</time>
      </trkpt>
      <trkpt lat="47.50499" lon="6.79665">
        <ele>331.3</ele>
        <time>2014-09-28T09:55:21.000Z</time>
      </trkpt>
      <trkpt lat="47.50498" lon="6.79656">
        <ele>331.4</ele>
        <time>2014-09-28T09:55:22.000Z</time>
      </trkpt>
      <trkpt lat="47.50497" lon="6.79649">
        <ele>331.5</ele>
        <time>2014-09-28T09:55:23.000Z</time>
      </trkpt>
      <trkpt lat="47.50498" lon="6.79641">
        <ele>329.3</ele>
        <time>2014-09-28T09:55:24.000Z</time>
      </trkpt>
      <trkpt lat="47.50498" lon="6.79635">
        <ele>329.3</ele>
        <time>2014-09-28T09:55:25.000Z</time>
      </trkpt>
      <trkpt lat="47.50499" lon="6.79628">
        <ele>329.2</ele>
        <time>2014-09-28T09:55:26.000Z</time>
      </trkpt>
      <trkpt lat="47.50504" lon="6.79617">
        <ele>329.3</ele>
        <time>2014-09-28T09:55:29.000Z</time>
      </trkpt>
      <trkpt lat="47.50505" lon="6.79616">
        <ele>329.1</ele>
        <time>2014-09-28T09:55:30.000Z</time>
      </trkpt>
      <trkpt lat="47.50508" lon="6.79614">
        <ele>329.3</ele>
        <time>2014-09-28T09:55:31.000Z</time>
      </trkpt>
      <trkpt lat="47.5051" lon="6.79612">
        <ele>328.9</ele>
        <time>2014-09-28T09:55:32.000Z</time>
      </trkpt>
      <trkpt lat="47.50512" lon="6.7961">
        <ele>328.7</ele>
        <time>2014-09-28T09:55:33.000Z</time>
      </trkpt>
      <trkpt lat="47.50514" lon="6.79608">
        <ele>329.3</ele>
        <time>2014-09-28T09:55:34.000Z</time>
      </trkpt>
      <trkpt lat="47.50516" lon="6.79606">
        <ele>328.5</ele>
        <time>2014-09-28T09:55:35.000Z</time>
      </trkpt>
      <trkpt lat="47.50519" lon="6.79604">
        <ele>327.7</ele>
        <time>2014-09-28T09:55:36.000Z</time>
      </trkpt>
      <trkpt lat="47.50522" lon="6.79603">
        <ele>326.3</ele>
        <time>2014-09-28T09:55:37.000Z</time>
      </trkpt>
      <trkpt lat="47.50525" lon="6.79603">
        <ele>323.7</ele>
        <time>2014-09-28T09:55:38.000Z</time>
      </trkpt>
      <trkpt lat="47.50528" lon="6.79604">
        <ele>323.4</ele>
        <time>2014-09-28T09:55:39.000Z</time>
      </trkpt>
      <trkpt lat="47.50531" lon="6.79606">
        <ele>323</ele>
        <time>2014-09-28T09:55:40.000Z</time>
      </trkpt>
      <trkpt lat="47.50533" lon="6.79608">
        <ele>323.6</ele>
        <time>2014-09-28T09:55:41.000Z</time>
      </trkpt>
      <trkpt lat="47.50536" lon="6.79611">
        <ele>322.6</ele>
        <time>2014-09-28T09:55:42.000Z</time>
      </trkpt>
      <trkpt lat="47.50538" lon="6.79615">
        <ele>321.6</ele>
        <time>2014-09-28T09:55:43.000Z</time>
      </trkpt>
      <trkpt lat="47.50542" lon="6.79618">
        <ele>322.3</ele>
        <time>2014-09-28T09:55:44.000Z</time>
      </trkpt>
      <trkpt lat="47.50546" lon="6.7962">
        <ele>321.6</ele>
        <time>2014-09-28T09:55:45.000Z</time>
      </trkpt>
      <trkpt lat="47.5055" lon="6.7962">
        <ele>321.2</ele>
        <time>2014-09-28T09:55:46.000Z</time>
      </trkpt>
      <trkpt lat="47.50554" lon="6.79619">
        <ele>320.3</ele>
        <time>2014-09-28T09:55:47.000Z</time>
      </trkpt>
      <trkpt lat="47.50558" lon="6.79616">
        <ele>321.7</ele>
        <time>2014-09-28T09:55:48.000Z</time>
      </trkpt>
      <trkpt lat="47.50561" lon="6.79611">
        <ele>321.4</ele>
        <time>2014-09-28T09:55:49.000Z</time>
      </trkpt>
      <trkpt lat="47.50563" lon="6.79607">
        <ele>321.4</ele>
        <time>2014-09-28T09:55:50.000Z</time>
      </trkpt>
      <trkpt lat="47.50565" lon="6.79601">
        <ele>321.4</ele>
        <time>2014-09-28T09:55:51.000Z</time>
      </trkpt>
      <trkpt lat="47.50567" lon="6.79596">
        <ele>321.4</ele>
        <time>2014-09-28T09:55:52.000Z</time>
      </trkpt>
      <trkpt lat="47.50569" lon="6.79591">
        <ele>321.4</ele>
        <time>2014-09-28T09:55:53.000Z</time>
      </trkpt>
      <trkpt lat="47.50571" lon="6.79586">
        <ele>321.7</ele>
        <time>2014-09-28T09:55:54.000Z</time>
      </trkpt>
      <trkpt lat="47.50572" lon="6.7958">
        <ele>322.1</ele>
        <time>2014-09-28T09:55:55.000Z</time>
      </trkpt>
      <trkpt lat="47.50572" lon="6.79574">
        <ele>322.7</ele>
        <time>2014-09-28T09:55:56.000Z</time>
      </trkpt>
      <trkpt lat="47.50573" lon="6.79568">
        <ele>322.5</ele>
        <time>2014-09-28T09:55:57.000Z</time>
      </trkpt>
      <trkpt lat="47.50572" lon="6.79562">
        <ele>324.2</ele>
        <time>2014-09-28T09:55:58.000Z</time>
      </trkpt>
      <trkpt lat="47.50565" lon="6.7955">
        <ele>323.6</ele>
        <time>2014-09-28T09:55:59.000Z</time>
      </trkpt>
      <trkpt lat="47.50566" lon="6.79543">
        <ele>324</ele>
        <time>2014-09-28T09:56:00.000Z</time>
      </trkpt>
      <trkpt lat="47.50567" lon="6.79534">
        <ele>324.4</ele>
        <time>2014-09-28T09:56:01.000Z</time>
      </trkpt>
      <trkpt lat="47.50571" lon="6.79526">
        <ele>323.8</ele>
        <time>2014-09-28T09:56:02.000Z</time>
      </trkpt>
      <trkpt lat="47.50575" lon="6.79521">
        <ele>323.6</ele>
        <time>2014-09-28T09:56:03.000Z</time>
      </trkpt>
      <trkpt lat="47.50578" lon="6.79517">
        <ele>326</ele>
        <time>2014-09-28T09:56:04.000Z</time>
      </trkpt>
      <trkpt lat="47.50581" lon="6.79513">
        <ele>326.9</ele>
        <time>2014-09-28T09:56:05.000Z</time>
      </trkpt>
      <trkpt lat="47.5058" lon="6.79504">
        <ele>326.9</ele>
        <time>2014-09-28T09:56:06.000Z</time>
      </trkpt>
      <trkpt lat="47.5058" lon="6.79497">
        <ele>327.2</ele>
        <time>2014-09-28T09:56:07.000Z</time>
      </trkpt>
      <trkpt lat="47.5058" lon="6.79492">
        <ele>327.6</ele>
        <time>2014-09-28T09:56:08.000Z</time>
      </trkpt>
      <trkpt lat="47.50582" lon="6.79488">
        <ele>328.3</ele>
        <time>2014-09-28T09:56:09.000Z</time>
      </trkpt>
      <trkpt lat="47.50584" lon="6.79483">
        <ele>328.8</ele>
        <time>2014-09-28T09:56:10.000Z</time>
      </trkpt>
      <trkpt lat="47.50588" lon="6.79477">
        <ele>328.4</ele>
        <time>2014-09-28T09:56:11.000Z</time>
      </trkpt>
      <trkpt lat="47.50591" lon="6.7947">
        <ele>328</ele>
        <time>2014-09-28T09:56:12.000Z</time>
      </trkpt>
      <trkpt lat="47.50595" lon="6.79465">
        <ele>326</ele>
        <time>2014-09-28T09:56:13.000Z</time>
      </trkpt>
      <trkpt lat="47.506" lon="6.7946">
        <ele>325.4</ele>
        <time>2014-09-28T09:56:14.000Z</time>
      </trkpt>
      <trkpt lat="47.50604" lon="6.79452">
        <ele>324.1</ele>
        <time>2014-09-28T09:56:15.000Z</time>
      </trkpt>
      <trkpt lat="47.50608" lon="6.79446">
        <ele>324.3</ele>
        <time>2014-09-28T09:56:16.000Z</time>
      </trkpt>
      <trkpt lat="47.50613" lon="6.79439">
        <ele>323</ele>
        <time>2014-09-28T09:56:17.000Z</time>
      </trkpt>
      <trkpt lat="47.50617" lon="6.79433">
        <ele>322</ele>
        <time>2014-09-28T09:56:18.000Z</time>
      </trkpt>
      <trkpt lat="47.50621" lon="6.79428">
        <ele>321.7</ele>
        <time>2014-09-28T09:56:19.000Z</time>
      </trkpt>
      <trkpt lat="47.50624" lon="6.79424">
        <ele>321.3</ele>
        <time>2014-09-28T09:56:20.000Z</time>
      </trkpt>
      <trkpt lat="47.50628" lon="6.7942">
        <ele>321.4</ele>
        <time>2014-09-28T09:56:21.000Z</time>
      </trkpt>
      <trkpt lat="47.50632" lon="6.79416">
        <ele>321.2</ele>
        <time>2014-09-28T09:56:22.000Z</time>
      </trkpt>
      <trkpt lat="47.50635" lon="6.79411">
        <ele>321.1</ele>
        <time>2014-09-28T09:56:23.000Z</time>
      </trkpt>
      <trkpt lat="47.50639" lon="6.79407">
        <ele>321.1</ele>
        <time>2014-09-28T09:56:24.000Z</time>
      </trkpt>
      <trkpt lat="47.50642" lon="6.79402">
        <ele>318.7</ele>
        <time>2014-09-28T09:56:25.000Z</time>
      </trkpt>
      <trkpt lat="47.50646" lon="6.79396">
        <ele>318.6</ele>
        <time>2014-09-28T09:56:26.000Z</time>
      </trkpt>
      <trkpt lat="47.50657" lon="6.79385">
        <ele>313.3</ele>
        <time>2014-09-28T09:56:29.000Z</time>
      </trkpt>
      <trkpt lat="47.50663" lon="6.79382">
        <ele>314.3</ele>
        <time>2014-09-28T09:56:30.000Z</time>
      </trkpt>
      <trkpt lat="47.50668" lon="6.79376">
        <ele>314.6</ele>
        <time>2014-09-28T09:56:31.000Z</time>
      </trkpt>
      <trkpt lat="47.50672" lon="6.79372">
        <ele>316.3</ele>
        <time>2014-09-28T09:56:32.000Z</time>
      </trkpt>
      <trkpt lat="47.50676" lon="6.79368">
        <ele>317.6</ele>
        <time>2014-09-28T09:56:33.000Z</time>
      </trkpt>
      <trkpt lat="47.5068" lon="6.79365">
        <ele>318.7</ele>
        <time>2014-09-28T09:56:34.000Z</time>
      </trkpt>
      <trkpt lat="47.50685" lon="6.7936">
        <ele>317.5</ele>
        <time>2014-09-28T09:56:35.000Z</time>
      </trkpt>
      <trkpt lat="47.5069" lon="6.79355">
        <ele>317.4</ele>
        <time>2014-09-28T09:56:36.000Z</time>
      </trkpt>
      <trkpt lat="47.50696" lon="6.79351">
        <ele>317.9</ele>
        <time>2014-09-28T09:56:37.000Z</time>
      </trkpt>
      <trkpt lat="47.50702" lon="6.79347">
        <ele>317.8</ele>
        <time>2014-09-28T09:56:38.000Z</time>
      </trkpt>
      <trkpt lat="47.50708" lon="6.79343">
        <ele>318.3</ele>
        <time>2014-09-28T09:56:39.000Z</time>
      </trkpt>
      <trkpt lat="47.50713" lon="6.79339">
        <ele>317.9</ele>
        <time>2014-09-28T09:56:40.000Z</time>
      </trkpt>
      <trkpt lat="47.50718" lon="6.79334">
        <ele>318.4</ele>
        <time>2014-09-28T09:56:41.000Z</time>
      </trkpt>
      <trkpt lat="47.50722" lon="6.7933">
        <ele>317.7</ele>
        <time>2014-09-28T09:56:42.000Z</time>
      </trkpt>
      <trkpt lat="47.50726" lon="6.79325">
        <ele>318.4</ele>
        <time>2014-09-28T09:56:43.000Z</time>
      </trkpt>
      <trkpt lat="47.5073" lon="6.79321">
        <ele>318.8</ele>
        <time>2014-09-28T09:56:44.000Z</time>
      </trkpt>
      <trkpt lat="47.50733" lon="6.79317">
        <ele>318.9</ele>
        <time>2014-09-28T09:56:45.000Z</time>
      </trkpt>
      <trkpt lat="47.50737" lon="6.79311">
        <ele>318.2</ele>
        <time>2014-09-28T09:56:46.000Z</time>
      </trkpt>
      <trkpt lat="47.5074" lon="6.79305">
        <ele>318.2</ele>
        <time>2014-09-28T09:56:47.000Z</time>
      </trkpt>
      <trkpt lat="47.50744" lon="6.79299">
        <ele>318.2</ele>
        <time>2014-09-28T09:56:48.000Z</time>
      </trkpt>
      <trkpt lat="47.50746" lon="6.79292">
        <ele>318.3</ele>
        <time>2014-09-28T09:56:49.000Z</time>
      </trkpt>
      <trkpt lat="47.50749" lon="6.79286">
        <ele>318</ele>
        <time>2014-09-28T09:56:50.000Z</time>
      </trkpt>
      <trkpt lat="47.50748" lon="6.79283">
        <ele>318.2</ele>
        <time>2014-09-28T09:56:51.000Z</time>
      </trkpt>
      <trkpt lat="47.5075" lon="6.79274">
        <ele>318.4</ele>
        <time>2014-09-28T09:56:52.000Z</time>
      </trkpt>
      <trkpt lat="47.50752" lon="6.79267">
        <ele>318.4</ele>
        <time>2014-09-28T09:56:53.000Z</time>
      </trkpt>
      <trkpt lat="47.50753" lon="6.79263">
        <ele>318.6</ele>
        <time>2014-09-28T09:56:54.000Z</time>
      </trkpt>
      <trkpt lat="47.50755" lon="6.79259">
        <ele>318.6</ele>
        <time>2014-09-28T09:56:55.000Z</time>
      </trkpt>
      <trkpt lat="47.50757" lon="6.79249">
        <ele>319</ele>
        <time>2014-09-28T09:56:56.000Z</time>
      </trkpt>
      <trkpt lat="47.50759" lon="6.79243">
        <ele>318.6</ele>
        <time>2014-09-28T09:56:57.000Z</time>
      </trkpt>
      <trkpt lat="47.50761" lon="6.79237">
        <ele>318.2</ele>
        <time>2014-09-28T09:56:58.000Z</time>
      </trkpt>
      <trkpt lat="47.50761" lon="6.79231">
        <ele>318.2</ele>
        <time>2014-09-28T09:56:59.000Z</time>
      </trkpt>
      <trkpt lat="47.50762" lon="6.79223">
        <ele>318.9</ele>
        <time>2014-09-28T09:57:00.000Z</time>
      </trkpt>
      <trkpt lat="47.50764" lon="6.79214">
        <ele>318.9</ele>
        <time>2014-09-28T09:57:01.000Z</time>
      </trkpt>
      <trkpt lat="47.50766" lon="6.79206">
        <ele>317.8</ele>
        <time>2014-09-28T09:57:02.000Z</time>
      </trkpt>
      <trkpt lat="47.50769" lon="6.79198">
        <ele>317.7</ele>
        <time>2014-09-28T09:57:03.000Z</time>
      </trkpt>
      <trkpt lat="47.5077" lon="6.79189">
        <ele>316.1</ele>
        <time>2014-09-28T09:57:04.000Z</time>
      </trkpt>
      <trkpt lat="47.5077" lon="6.7918">
        <ele>317.3</ele>
        <time>2014-09-28T09:57:05.000Z</time>
      </trkpt>
      <trkpt lat="47.50771" lon="6.79172">
        <ele>317.9</ele>
        <time>2014-09-28T09:57:06.000Z</time>
      </trkpt>
      <trkpt lat="47.50773" lon="6.79168">
        <ele>318.4</ele>
        <time>2014-09-28T09:57:07.000Z</time>
      </trkpt>
      <trkpt lat="47.50775" lon="6.79164">
        <ele>318.9</ele>
        <time>2014-09-28T09:57:08.000Z</time>
      </trkpt>
      <trkpt lat="47.50776" lon="6.79159">
        <ele>319.3</ele>
        <time>2014-09-28T09:57:09.000Z</time>
      </trkpt>
      <trkpt lat="47.50777" lon="6.7915">
        <ele>319.5</ele>
        <time>2014-09-28T09:57:10.000Z</time>
      </trkpt>
      <trkpt lat="47.50778" lon="6.79142">
        <ele>319.8</ele>
        <time>2014-09-28T09:57:11.000Z</time>
      </trkpt>
      <trkpt lat="47.5078" lon="6.79137">
        <ele>321</ele>
        <time>2014-09-28T09:57:12.000Z</time>
      </trkpt>
      <trkpt lat="47.50781" lon="6.7913">
        <ele>321</ele>
        <time>2014-09-28T09:57:13.000Z</time>
      </trkpt>
      <trkpt lat="47.50781" lon="6.79124">
        <ele>321.4</ele>
        <time>2014-09-28T09:57:14.000Z</time>
      </trkpt>
      <trkpt lat="47.50779" lon="6.79113">
        <ele>320.1</ele>
        <time>2014-09-28T09:57:15.000Z</time>
      </trkpt>
      <trkpt lat="47.50777" lon="6.79104">
        <ele>319.8</ele>
        <time>2014-09-28T09:57:16.000Z</time>
      </trkpt>
      <trkpt lat="47.50777" lon="6.79097">
        <ele>320.1</ele>
        <time>2014-09-28T09:57:17.000Z</time>
      </trkpt>
      <trkpt lat="47.50776" lon="6.79094">
        <ele>320.3</ele>
        <time>2014-09-28T09:57:18.000Z</time>
      </trkpt>
      <trkpt lat="47.50776" lon="6.79089">
        <ele>320.3</ele>
        <time>2014-09-28T09:57:19.000Z</time>
      </trkpt>
      <trkpt lat="47.50776" lon="6.79079">
        <ele>320.3</ele>
        <time>2014-09-28T09:57:20.000Z</time>
      </trkpt>
      <trkpt lat="47.50776" lon="6.79068">
        <ele>320.1</ele>
        <time>2014-09-28T09:57:21.000Z</time>
      </trkpt>
      <trkpt lat="47.50776" lon="6.79058">
        <ele>320.4</ele>
        <time>2014-09-28T09:57:22.000Z</time>
      </trkpt>
      <trkpt lat="47.50778" lon="6.79049">
        <ele>320.8</ele>
        <time>2014-09-28T09:57:23.000Z</time>
      </trkpt>
      <trkpt lat="47.50778" lon="6.79041">
        <ele>321.5</ele>
        <time>2014-09-28T09:57:24.000Z</time>
      </trkpt>
      <trkpt lat="47.5078" lon="6.79032">
        <ele>321.9</ele>
        <time>2014-09-28T09:57:25.000Z</time>
      </trkpt>
      <trkpt lat="47.5078" lon="6.79026">
        <ele>322.3</ele>
        <time>2014-09-28T09:57:26.000Z</time>
      </trkpt>
      <trkpt lat="47.50781" lon="6.79002">
        <ele>324.3</ele>
        <time>2014-09-28T09:57:29.000Z</time>
      </trkpt>
      <trkpt lat="47.50782" lon="6.78994">
        <ele>324.4</ele>
        <time>2014-09-28T09:57:30.000Z</time>
      </trkpt>
      <trkpt lat="47.50783" lon="6.78986">
        <ele>325.3</ele>
        <time>2014-09-28T09:57:31.000Z</time>
      </trkpt>
      <trkpt lat="47.50784" lon="6.78979">
        <ele>325</ele>
        <time>2014-09-28T09:57:32.000Z</time>
      </trkpt>
      <trkpt lat="47.50785" lon="6.78971">
        <ele>326.1</ele>
        <time>2014-09-28T09:57:33.000Z</time>
      </trkpt>
      <trkpt lat="47.50787" lon="6.78965">
        <ele>325.8</ele>
        <time>2014-09-28T09:57:34.000Z</time>
      </trkpt>
      <trkpt lat="47.50787" lon="6.78954">
        <ele>325.8</ele>
        <time>2014-09-28T09:57:35.000Z</time>
      </trkpt>
      <trkpt lat="47.50787" lon="6.78946">
        <ele>326.3</ele>
        <time>2014-09-28T09:57:36.000Z</time>
      </trkpt>
      <trkpt lat="47.50787" lon="6.78937">
        <ele>327</ele>
        <time>2014-09-28T09:57:37.000Z</time>
      </trkpt>
      <trkpt lat="47.50788" lon="6.78927">
        <ele>325.5</ele>
        <time>2014-09-28T09:57:38.000Z</time>
      </trkpt>
      <trkpt lat="47.50789" lon="6.78919">
        <ele>325.6</ele>
        <time>2014-09-28T09:57:39.000Z</time>
      </trkpt>
      <trkpt lat="47.5079" lon="6.78912">
        <ele>326.5</ele>
        <time>2014-09-28T09:57:40.000Z</time>
      </trkpt>
      <trkpt lat="47.50792" lon="6.78902">
        <ele>326.7</ele>
        <time>2014-09-28T09:57:41.000Z</time>
      </trkpt>
      <trkpt lat="47.50794" lon="6.78894">
        <ele>326</ele>
        <time>2014-09-28T09:57:42.000Z</time>
      </trkpt>
      <trkpt lat="47.50794" lon="6.78886">
        <ele>325.8</ele>
        <time>2014-09-28T09:57:43.000Z</time>
      </trkpt>
      <trkpt lat="47.50794" lon="6.78879">
        <ele>326.4</ele>
        <time>2014-09-28T09:57:44.000Z</time>
      </trkpt>
      <trkpt lat="47.50795" lon="6.7887">
        <ele>326.5</ele>
        <time>2014-09-28T09:57:45.000Z</time>
      </trkpt>
      <trkpt lat="47.50795" lon="6.78861">
        <ele>326.9</ele>
        <time>2014-09-28T09:57:46.000Z</time>
      </trkpt>
      <trkpt lat="47.50796" lon="6.78853">
        <ele>326.4</ele>
        <time>2014-09-28T09:57:47.000Z</time>
      </trkpt>
      <trkpt lat="47.50797" lon="6.78845">
        <ele>326.6</ele>
        <time>2014-09-28T09:57:48.000Z</time>
      </trkpt>
      <trkpt lat="47.50797" lon="6.78837">
        <ele>326.5</ele>
        <time>2014-09-28T09:57:49.000Z</time>
      </trkpt>
      <trkpt lat="47.50797" lon="6.78829">
        <ele>326.5</ele>
        <time>2014-09-28T09:57:50.000Z</time>
      </trkpt>
      <trkpt lat="47.50797" lon="6.78821">
        <ele>326.5</ele>
        <time>2014-09-28T09:57:51.000Z</time>
      </trkpt>
      <trkpt lat="47.50798" lon="6.78814">
        <ele>326.3</ele>
        <time>2014-09-28T09:57:52.000Z</time>
      </trkpt>
      <trkpt lat="47.50796" lon="6.78806">
        <ele>325.6</ele>
        <time>2014-09-28T09:57:53.000Z</time>
      </trkpt>
      <trkpt lat="47.50796" lon="6.78798">
        <ele>325.3</ele>
        <time>2014-09-28T09:57:54.000Z</time>
      </trkpt>
      <trkpt lat="47.50796" lon="6.78792">
        <ele>324.9</ele>
        <time>2014-09-28T09:57:55.000Z</time>
      </trkpt>
      <trkpt lat="47.50797" lon="6.78785">
        <ele>325.7</ele>
        <time>2014-09-28T09:57:56.000Z</time>
      </trkpt>
      <trkpt lat="47.50799" lon="6.78777">
        <ele>325.2</ele>
        <time>2014-09-28T09:57:57.000Z</time>
      </trkpt>
      <trkpt lat="47.508" lon="6.7877">
        <ele>324.3</ele>
        <time>2014-09-28T09:57:58.000Z</time>
      </trkpt>
      <trkpt lat="47.50801" lon="6.78763">
        <ele>324.5</ele>
        <time>2014-09-28T09:57:59.000Z</time>
      </trkpt>
      <trkpt lat="47.508" lon="6.78757">
        <ele>324.1</ele>
        <time>2014-09-28T09:58:00.000Z</time>
      </trkpt>
      <trkpt lat="47.50801" lon="6.78749">
        <ele>324.6</ele>
        <time>2014-09-28T09:58:01.000Z</time>
      </trkpt>
      <trkpt lat="47.50801" lon="6.78742">
        <ele>324.6</ele>
        <time>2014-09-28T09:58:02.000Z</time>
      </trkpt>
      <trkpt lat="47.50801" lon="6.78736">
        <ele>324.3</ele>
        <time>2014-09-28T09:58:03.000Z</time>
      </trkpt>
      <trkpt lat="47.50802" lon="6.78731">
        <ele>324.1</ele>
        <time>2014-09-28T09:58:04.000Z</time>
      </trkpt>
      <trkpt lat="47.50803" lon="6.78726">
        <ele>324.2</ele>
        <time>2014-09-28T09:58:05.000Z</time>
      </trkpt>
      <trkpt lat="47.50803" lon="6.78722">
        <ele>324.5</ele>
        <time>2014-09-28T09:58:06.000Z</time>
      </trkpt>
      <trkpt lat="47.50803" lon="6.78717">
        <ele>324.4</ele>
        <time>2014-09-28T09:58:07.000Z</time>
      </trkpt>
      <trkpt lat="47.50805" lon="6.78713">
        <ele>324.5</ele>
        <time>2014-09-28T09:58:08.000Z</time>
      </trkpt>
      <trkpt lat="47.50805" lon="6.78711">
        <ele>324.6</ele>
        <time>2014-09-28T09:58:09.000Z</time>
      </trkpt>
      <trkpt lat="47.50807" lon="6.78708">
        <ele>324.5</ele>
        <time>2014-09-28T09:58:10.000Z</time>
      </trkpt>
      <trkpt lat="47.50809" lon="6.78704">
        <ele>324</ele>
        <time>2014-09-28T09:58:11.000Z</time>
      </trkpt>
      <trkpt lat="47.50813" lon="6.78703">
        <ele>324.1</ele>
        <time>2014-09-28T09:58:12.000Z</time>
      </trkpt>
      <trkpt lat="47.50817" lon="6.78702">
        <ele>323.3</ele>
        <time>2014-09-28T09:58:13.000Z</time>
      </trkpt>
      <trkpt lat="47.50821" lon="6.78703">
        <ele>324.7</ele>
        <time>2014-09-28T09:58:14.000Z</time>
      </trkpt>
      <trkpt lat="47.50824" lon="6.78703">
        <ele>324.1</ele>
        <time>2014-09-28T09:58:15.000Z</time>
      </trkpt>
      <trkpt lat="47.50828" lon="6.78704">
        <ele>323.8</ele>
        <time>2014-09-28T09:58:16.000Z</time>
      </trkpt>
      <trkpt lat="47.50832" lon="6.78704">
        <ele>324.6</ele>
        <time>2014-09-28T09:58:17.000Z</time>
      </trkpt>
      <trkpt lat="47.50836" lon="6.78704">
        <ele>324.9</ele>
        <time>2014-09-28T09:58:18.000Z</time>
      </trkpt>
      <trkpt lat="47.5084" lon="6.78705">
        <ele>325.1</ele>
        <time>2014-09-28T09:58:19.000Z</time>
      </trkpt>
      <trkpt lat="47.50844" lon="6.78705">
        <ele>324.5</ele>
        <time>2014-09-28T09:58:20.000Z</time>
      </trkpt>
      <trkpt lat="47.5085" lon="6.78705">
        <ele>324.5</ele>
        <time>2014-09-28T09:58:21.000Z</time>
      </trkpt>
      <trkpt lat="47.50854" lon="6.78706">
        <ele>324.5</ele>
        <time>2014-09-28T09:58:22.000Z</time>
      </trkpt>
      <trkpt lat="47.50858" lon="6.78706">
        <ele>324.2</ele>
        <time>2014-09-28T09:58:23.000Z</time>
      </trkpt>
      <trkpt lat="47.50862" lon="6.78708">
        <ele>323.9</ele>
        <time>2014-09-28T09:58:24.000Z</time>
      </trkpt>
      <trkpt lat="47.50866" lon="6.78709">
        <ele>326.4</ele>
        <time>2014-09-28T09:58:25.000Z</time>
      </trkpt>
      <trkpt lat="47.50871" lon="6.7871">
        <ele>326.9</ele>
        <time>2014-09-28T09:58:26.000Z</time>
      </trkpt>
      <trkpt lat="47.50881" lon="6.78714">
        <ele>327.8</ele>
        <time>2014-09-28T09:58:29.000Z</time>
      </trkpt>
      <trkpt lat="47.50885" lon="6.78714">
        <ele>328.1</ele>
        <time>2014-09-28T09:58:30.000Z</time>
      </trkpt>
      <trkpt lat="47.50889" lon="6.78716">
        <ele>328.3</ele>
        <time>2014-09-28T09:58:31.000Z</time>
      </trkpt>
      <trkpt lat="47.50892" lon="6.78717">
        <ele>328.2</ele>
        <time>2014-09-28T09:58:32.000Z</time>
      </trkpt>
      <trkpt lat="47.50895" lon="6.7872">
        <ele>328</ele>
        <time>2014-09-28T09:58:33.000Z</time>
      </trkpt>
      <trkpt lat="47.50898" lon="6.78722">
        <ele>327.9</ele>
        <time>2014-09-28T09:58:34.000Z</time>
      </trkpt>
      <trkpt lat="47.50902" lon="6.78723">
        <ele>328.1</ele>
        <time>2014-09-28T09:58:35.000Z</time>
      </trkpt>
      <trkpt lat="47.50905" lon="6.78723">
        <ele>328.1</ele>
        <time>2014-09-28T09:58:36.000Z</time>
      </trkpt>
      <trkpt lat="47.50908" lon="6.78724">
        <ele>327.8</ele>
        <time>2014-09-28T09:58:37.000Z</time>
      </trkpt>
      <trkpt lat="47.50912" lon="6.78724">
        <ele>331.6</ele>
        <time>2014-09-28T09:58:39.000Z</time>
      </trkpt>
      <trkpt lat="47.50912" lon="6.78723">
        <ele>333.1</ele>
        <time>2014-09-28T09:58:40.000Z</time>
      </trkpt>
      <trkpt lat="47.50912" lon="6.78718">
        <ele>335.3</ele>
        <time>2014-09-28T09:58:42.000Z</time>
      </trkpt>
      <trkpt lat="47.50912" lon="6.78715">
        <ele>334.5</ele>
        <time>2014-09-28T09:58:43.000Z</time>
      </trkpt>
      <trkpt lat="47.50912" lon="6.7871">
        <ele>334.9</ele>
        <time>2014-09-28T09:58:44.000Z</time>
      </trkpt>
      <trkpt lat="47.50912" lon="6.78705">
        <ele>334.9</ele>
        <time>2014-09-28T09:58:45.000Z</time>
      </trkpt>
      <trkpt lat="47.50913" lon="6.787">
        <ele>334.7</ele>
        <time>2014-09-28T09:58:46.000Z</time>
      </trkpt>
      <trkpt lat="47.50914" lon="6.78694">
        <ele>334.5</ele>
        <time>2014-09-28T09:58:47.000Z</time>
      </trkpt>
      <trkpt lat="47.50917" lon="6.78685">
        <ele>333</ele>
        <time>2014-09-28T09:58:48.000Z</time>
      </trkpt>
      <trkpt lat="47.50918" lon="6.78679">
        <ele>333</ele>
        <time>2014-09-28T09:58:49.000Z</time>
      </trkpt>
      <trkpt lat="47.50919" lon="6.78673">
        <ele>332.9</ele>
        <time>2014-09-28T09:58:50.000Z</time>
      </trkpt>
      <trkpt lat="47.5092" lon="6.78667">
        <ele>332.9</ele>
        <time>2014-09-28T09:58:51.000Z</time>
      </trkpt>
      <trkpt lat="47.50922" lon="6.78662">
        <ele>332.1</ele>
        <time>2014-09-28T09:58:52.000Z</time>
      </trkpt>
      <trkpt lat="47.50923" lon="6.78658">
        <ele>332.1</ele>
        <time>2014-09-28T09:58:53.000Z</time>
      </trkpt>
      <trkpt lat="47.50924" lon="6.78652">
        <ele>332.5</ele>
        <time>2014-09-28T09:58:54.000Z</time>
      </trkpt>
      <trkpt lat="47.50924" lon="6.78647">
        <ele>332.6</ele>
        <time>2014-09-28T09:58:55.000Z</time>
      </trkpt>
      <trkpt lat="47.50926" lon="6.78641">
        <ele>332.3</ele>
        <time>2014-09-28T09:58:56.000Z</time>
      </trkpt>
      <trkpt lat="47.50927" lon="6.78635">
        <ele>332.2</ele>
        <time>2014-09-28T09:58:57.000Z</time>
      </trkpt>
      <trkpt lat="47.50927" lon="6.78629">
        <ele>332.7</ele>
        <time>2014-09-28T09:58:58.000Z</time>
      </trkpt>
      <trkpt lat="47.50928" lon="6.78623">
        <ele>332.6</ele>
        <time>2014-09-28T09:58:59.000Z</time>
      </trkpt>
      <trkpt lat="47.50929" lon="6.78617">
        <ele>332.2</ele>
        <time>2014-09-28T09:59:00.000Z</time>
      </trkpt>
      <trkpt lat="47.5093" lon="6.78611">
        <ele>333.4</ele>
        <time>2014-09-28T09:59:01.000Z</time>
      </trkpt>
      <trkpt lat="47.50931" lon="6.78605">
        <ele>332.8</ele>
        <time>2014-09-28T09:59:02.000Z</time>
      </trkpt>
      <trkpt lat="47.50933" lon="6.78598">
        <ele>332.8</ele>
        <time>2014-09-28T09:59:03.000Z</time>
      </trkpt>
      <trkpt lat="47.50934" lon="6.78589">
        <ele>332.3</ele>
        <time>2014-09-28T09:59:04.000Z</time>
      </trkpt>
      <trkpt lat="47.50935" lon="6.78584">
        <ele>332.6</ele>
        <time>2014-09-28T09:59:05.000Z</time>
      </trkpt>
      <trkpt lat="47.50935" lon="6.78578">
        <ele>332.8</ele>
        <time>2014-09-28T09:59:06.000Z</time>
      </trkpt>
      <trkpt lat="47.50936" lon="6.78572">
        <ele>333.4</ele>
        <time>2014-09-28T09:59:07.000Z</time>
      </trkpt>
      <trkpt lat="47.50937" lon="6.78565">
        <ele>333.9</ele>
        <time>2014-09-28T09:59:08.000Z</time>
      </trkpt>
      <trkpt lat="47.50938" lon="6.78558">
        <ele>333.1</ele>
        <time>2014-09-28T09:59:09.000Z</time>
      </trkpt>
      <trkpt lat="47.50938" lon="6.78551">
        <ele>334</ele>
        <time>2014-09-28T09:59:10.000Z</time>
      </trkpt>
      <trkpt lat="47.50937" lon="6.78545">
        <ele>334.4</ele>
        <time>2014-09-28T09:59:11.000Z</time>
      </trkpt>
      <trkpt lat="47.50937" lon="6.7854">
        <ele>335</ele>
        <time>2014-09-28T09:59:12.000Z</time>
      </trkpt>
      <trkpt lat="47.50939" lon="6.78532">
        <ele>335.3</ele>
        <time>2014-09-28T09:59:13.000Z</time>
      </trkpt>
      <trkpt lat="47.5094" lon="6.78525">
        <ele>336.3</ele>
        <time>2014-09-28T09:59:14.000Z</time>
      </trkpt>
      <trkpt lat="47.50941" lon="6.78518">
        <ele>335.4</ele>
        <time>2014-09-28T09:59:15.000Z</time>
      </trkpt>
      <trkpt lat="47.50943" lon="6.7851">
        <ele>336.4</ele>
        <time>2014-09-28T09:59:16.000Z</time>
      </trkpt>
      <trkpt lat="47.50943" lon="6.78503">
        <ele>336.1</ele>
        <time>2014-09-28T09:59:17.000Z</time>
      </trkpt>
      <trkpt lat="47.50943" lon="6.78496">
        <ele>336</ele>
        <time>2014-09-28T09:59:18.000Z</time>
      </trkpt>
      <trkpt lat="47.50943" lon="6.78489">
        <ele>336</ele>
        <time>2014-09-28T09:59:19.000Z</time>
      </trkpt>
      <trkpt lat="47.50946" lon="6.78482">
        <ele>334.8</ele>
        <time>2014-09-28T09:59:20.000Z</time>
      </trkpt>
      <trkpt lat="47.50947" lon="6.78475">
        <ele>334.7</ele>
        <time>2014-09-28T09:59:21.000Z</time>
      </trkpt>
      <trkpt lat="47.50948" lon="6.78467">
        <ele>334.5</ele>
        <time>2014-09-28T09:59:22.000Z</time>
      </trkpt>
      <trkpt lat="47.50949" lon="6.7846">
        <ele>334.3</ele>
        <time>2014-09-28T09:59:23.000Z</time>
      </trkpt>
      <trkpt lat="47.5095" lon="6.78453">
        <ele>335.2</ele>
        <time>2014-09-28T09:59:24.000Z</time>
      </trkpt>
      <trkpt lat="47.50951" lon="6.78446">
        <ele>335.3</ele>
        <time>2014-09-28T09:59:25.000Z</time>
      </trkpt>
      <trkpt lat="47.50952" lon="6.78438">
        <ele>335.1</ele>
        <time>2014-09-28T09:59:26.000Z</time>
      </trkpt>
      <trkpt lat="47.50956" lon="6.7842">
        <ele>336.1</ele>
        <time>2014-09-28T09:59:29.000Z</time>
      </trkpt>
      <trkpt lat="47.50956" lon="6.78411">
        <ele>335.3</ele>
        <time>2014-09-28T09:59:30.000Z</time>
      </trkpt>
      <trkpt lat="47.50955" lon="6.78406">
        <ele>334.6</ele>
        <time>2014-09-28T09:59:31.000Z</time>
      </trkpt>
      <trkpt lat="47.50956" lon="6.784">
        <ele>334.3</ele>
        <time>2014-09-28T09:59:32.000Z</time>
      </trkpt>
      <trkpt lat="47.50957" lon="6.78394">
        <ele>333.9</ele>
        <time>2014-09-28T09:59:33.000Z</time>
      </trkpt>
      <trkpt lat="47.50957" lon="6.78388">
        <ele>333.5</ele>
        <time>2014-09-28T09:59:34.000Z</time>
      </trkpt>
      <trkpt lat="47.50956" lon="6.78382">
        <ele>333</ele>
        <time>2014-09-28T09:59:35.000Z</time>
      </trkpt>
      <trkpt lat="47.50954" lon="6.78379">
        <ele>333.4</ele>
        <time>2014-09-28T09:59:36.000Z</time>
      </trkpt>
      <trkpt lat="47.50953" lon="6.78375">
        <ele>331.5</ele>
        <time>2014-09-28T09:59:37.000Z</time>
      </trkpt>
      <trkpt lat="47.50951" lon="6.78372">
        <ele>332.4</ele>
        <time>2014-09-28T09:59:38.000Z</time>
      </trkpt>
      <trkpt lat="47.50951" lon="6.78365">
        <ele>331.7</ele>
        <time>2014-09-28T09:59:39.000Z</time>
      </trkpt>
      <trkpt lat="47.5095" lon="6.7836">
        <ele>331.3</ele>
        <time>2014-09-28T09:59:40.000Z</time>
      </trkpt>
      <trkpt lat="47.50951" lon="6.78354">
        <ele>330.2</ele>
        <time>2014-09-28T09:59:41.000Z</time>
      </trkpt>
      <trkpt lat="47.50951" lon="6.78347">
        <ele>330.3</ele>
        <time>2014-09-28T09:59:42.000Z</time>
      </trkpt>
      <trkpt lat="47.50952" lon="6.78341">
        <ele>330.2</ele>
        <time>2014-09-28T09:59:43.000Z</time>
      </trkpt>
      <trkpt lat="47.50952" lon="6.78334">
        <ele>330.2</ele>
        <time>2014-09-28T09:59:44.000Z</time>
      </trkpt>
      <trkpt lat="47.50954" lon="6.7832">
        <ele>329.9</ele>
        <time>2014-09-28T09:59:45.000Z</time>
      </trkpt>
      <trkpt lat="47.50955" lon="6.78311">
        <ele>329.2</ele>
        <time>2014-09-28T09:59:46.000Z</time>
      </trkpt>
      <trkpt lat="47.50956" lon="6.78303">
        <ele>329.2</ele>
        <time>2014-09-28T09:59:47.000Z</time>
      </trkpt>
      <trkpt lat="47.50957" lon="6.78294">
        <ele>328.4</ele>
        <time>2014-09-28T09:59:48.000Z</time>
      </trkpt>
      <trkpt lat="47.50957" lon="6.78286">
        <ele>327.9</ele>
        <time>2014-09-28T09:59:49.000Z</time>
      </trkpt>
      <trkpt lat="47.50958" lon="6.78277">
        <ele>327.9</ele>
        <time>2014-09-28T09:59:50.000Z</time>
      </trkpt>
      <trkpt lat="47.50959" lon="6.78269">
        <ele>327.9</ele>
        <time>2014-09-28T09:59:51.000Z</time>
      </trkpt>
      <trkpt lat="47.50959" lon="6.78261">
        <ele>327.3</ele>
        <time>2014-09-28T09:59:52.000Z</time>
      </trkpt>
      <trkpt lat="47.5096" lon="6.78254">
        <ele>327.4</ele>
        <time>2014-09-28T09:59:53.000Z</time>
      </trkpt>
      <trkpt lat="47.50961" lon="6.78247">
        <ele>327.9</ele>
        <time>2014-09-28T09:59:54.000Z</time>
      </trkpt>
      <trkpt lat="47.50961" lon="6.78239">
        <ele>327.6</ele>
        <time>2014-09-28T09:59:55.000Z</time>
      </trkpt>
      <trkpt lat="47.50962" lon="6.78234">
        <ele>327.9</ele>
        <time>2014-09-28T09:59:56.000Z</time>
      </trkpt>
      <trkpt lat="47.50963" lon="6.78226">
        <ele>327.3</ele>
        <time>2014-09-28T09:59:57.000Z</time>
      </trkpt>
      <trkpt lat="47.50964" lon="6.78218">
        <ele>326.8</ele>
        <time>2014-09-28T09:59:58.000Z</time>
      </trkpt>
      <trkpt lat="47.50964" lon="6.78212">
        <ele>328.5</ele>
        <time>2014-09-28T09:59:59.000Z</time>
      </trkpt>
      <trkpt lat="47.50964" lon="6.78205">
        <ele>328.7</ele>
        <time>2014-09-28T10:00:00.000Z</time>
      </trkpt>
      <trkpt lat="47.50965" lon="6.78198">
        <ele>327.6</ele>
        <time>2014-09-28T10:00:01.000Z</time>
      </trkpt>
      <trkpt lat="47.50964" lon="6.78192">
        <ele>327.1</ele>
        <time>2014-09-28T10:00:02.000Z</time>
      </trkpt>
      <trkpt lat="47.5096" lon="6.78188">
        <ele>327.8</ele>
        <time>2014-09-28T10:00:03.000Z</time>
      </trkpt>
      <trkpt lat="47.50958" lon="6.78183">
        <ele>327.7</ele>
        <time>2014-09-28T10:00:04.000Z</time>
      </trkpt>
      <trkpt lat="47.50958" lon="6.78177">
        <ele>327.4</ele>
        <time>2014-09-28T10:00:05.000Z</time>
      </trkpt>
      <trkpt lat="47.50957" lon="6.78171">
        <ele>327.9</ele>
        <time>2014-09-28T10:00:06.000Z</time>
      </trkpt>
      <trkpt lat="47.50958" lon="6.78166">
        <ele>328.8</ele>
        <time>2014-09-28T10:00:07.000Z</time>
      </trkpt>
      <trkpt lat="47.50958" lon="6.7816">
        <ele>329</ele>
        <time>2014-09-28T10:00:08.000Z</time>
      </trkpt>
      <trkpt lat="47.50957" lon="6.78153">
        <ele>328.2</ele>
        <time>2014-09-28T10:00:09.000Z</time>
      </trkpt>
      <trkpt lat="47.50956" lon="6.78148">
        <ele>329.4</ele>
        <time>2014-09-28T10:00:10.000Z</time>
      </trkpt>
      <trkpt lat="47.50956" lon="6.78143">
        <ele>329.3</ele>
        <time>2014-09-28T10:00:11.000Z</time>
      </trkpt>
      <trkpt lat="47.50955" lon="6.78136">
        <ele>329.5</ele>
        <time>2014-09-28T10:00:12.000Z</time>
      </trkpt>
      <trkpt lat="47.50955" lon="6.78127">
        <ele>328.9</ele>
        <time>2014-09-28T10:00:13.000Z</time>
      </trkpt>
      <trkpt lat="47.50955" lon="6.7812">
        <ele>329</ele>
        <time>2014-09-28T10:00:14.000Z</time>
      </trkpt>
      <trkpt lat="47.50955" lon="6.78113">
        <ele>328.7</ele>
        <time>2014-09-28T10:00:15.000Z</time>
      </trkpt>
      <trkpt lat="47.50955" lon="6.78106">
        <ele>328.6</ele>
        <time>2014-09-28T10:00:16.000Z</time>
      </trkpt>
      <trkpt lat="47.50954" lon="6.78099">
        <ele>328.5</ele>
        <time>2014-09-28T10:00:17.000Z</time>
      </trkpt>
      <trkpt lat="47.50954" lon="6.78094">
        <ele>328.4</ele>
        <time>2014-09-28T10:00:18.000Z</time>
      </trkpt>
      <trkpt lat="47.50953" lon="6.78088">
        <ele>328.6</ele>
        <time>2014-09-28T10:00:19.000Z</time>
      </trkpt>
      <trkpt lat="47.50952" lon="6.78082">
        <ele>329.2</ele>
        <time>2014-09-28T10:00:20.000Z</time>
      </trkpt>
      <trkpt lat="47.50952" lon="6.78075">
        <ele>328.8</ele>
        <time>2014-09-28T10:00:21.000Z</time>
      </trkpt>
      <trkpt lat="47.50953" lon="6.78067">
        <ele>328.4</ele>
        <time>2014-09-28T10:00:22.000Z</time>
      </trkpt>
      <trkpt lat="47.50955" lon="6.78061">
        <ele>327.8</ele>
        <time>2014-09-28T10:00:23.000Z</time>
      </trkpt>
      <trkpt lat="47.50957" lon="6.78053">
        <ele>327.7</ele>
        <time>2014-09-28T10:00:24.000Z</time>
      </trkpt>
      <trkpt lat="47.50958" lon="6.78046">
        <ele>328.4</ele>
        <time>2014-09-28T10:00:25.000Z</time>
      </trkpt>
      <trkpt lat="47.50959" lon="6.78039">
        <ele>328.4</ele>
        <time>2014-09-28T10:00:26.000Z</time>
      </trkpt>
      <trkpt lat="47.5096" lon="6.78023">
        <ele>331.5</ele>
        <time>2014-09-28T10:00:29.000Z</time>
      </trkpt>
      <trkpt lat="47.50958" lon="6.78016">
        <ele>330.9</ele>
        <time>2014-09-28T10:00:30.000Z</time>
      </trkpt>
      <trkpt lat="47.50957" lon="6.78009">
        <ele>331.4</ele>
        <time>2014-09-28T10:00:31.000Z</time>
      </trkpt>
      <trkpt lat="47.50957" lon="6.78002">
        <ele>331.2</ele>
        <time>2014-09-28T10:00:32.000Z</time>
      </trkpt>
      <trkpt lat="47.50957" lon="6.77996">
        <ele>330.9</ele>
        <time>2014-09-28T10:00:33.000Z</time>
      </trkpt>
      <trkpt lat="47.50956" lon="6.77991">
        <ele>331.2</ele>
        <time>2014-09-28T10:00:34.000Z</time>
      </trkpt>
      <trkpt lat="47.50955" lon="6.77985">
        <ele>331.7</ele>
        <time>2014-09-28T10:00:35.000Z</time>
      </trkpt>
      <trkpt lat="47.50955" lon="6.77978">
        <ele>330.2</ele>
        <time>2014-09-28T10:00:36.000Z</time>
      </trkpt>
      <trkpt lat="47.50954" lon="6.77973">
        <ele>330</ele>
        <time>2014-09-28T10:00:37.000Z</time>
      </trkpt>
      <trkpt lat="47.50954" lon="6.77965">
        <ele>329.6</ele>
        <time>2014-09-28T10:00:38.000Z</time>
      </trkpt>
      <trkpt lat="47.50954" lon="6.77958">
        <ele>329.4</ele>
        <time>2014-09-28T10:00:39.000Z</time>
      </trkpt>
      <trkpt lat="47.50954" lon="6.77952">
        <ele>328.8</ele>
        <time>2014-09-28T10:00:40.000Z</time>
      </trkpt>
      <trkpt lat="47.50954" lon="6.77946">
        <ele>328.3</ele>
        <time>2014-09-28T10:00:41.000Z</time>
      </trkpt>
      <trkpt lat="47.50954" lon="6.77939">
        <ele>326.9</ele>
        <time>2014-09-28T10:00:42.000Z</time>
      </trkpt>
      <trkpt lat="47.50953" lon="6.77932">
        <ele>326.7</ele>
        <time>2014-09-28T10:00:43.000Z</time>
      </trkpt>
      <trkpt lat="47.50952" lon="6.77925">
        <ele>326.6</ele>
        <time>2014-09-28T10:00:44.000Z</time>
      </trkpt>
      <trkpt lat="47.50952" lon="6.77917">
        <ele>326.6</ele>
        <time>2014-09-28T10:00:45.000Z</time>
      </trkpt>
      <trkpt lat="47.5095" lon="6.77911">
        <ele>326.5</ele>
        <time>2014-09-28T10:00:46.000Z</time>
      </trkpt>
      <trkpt lat="47.50949" lon="6.77903">
        <ele>326.4</ele>
        <time>2014-09-28T10:00:47.000Z</time>
      </trkpt>
      <trkpt lat="47.50947" lon="6.77897">
        <ele>326.3</ele>
        <time>2014-09-28T10:00:48.000Z</time>
      </trkpt>
      <trkpt lat="47.50944" lon="6.77892">
        <ele>326.4</ele>
        <time>2014-09-28T10:00:49.000Z</time>
      </trkpt>
      <trkpt lat="47.50941" lon="6.77887">
        <ele>326.1</ele>
        <time>2014-09-28T10:00:50.000Z</time>
      </trkpt>
      <trkpt lat="47.5094" lon="6.77881">
        <ele>327.2</ele>
        <time>2014-09-28T10:00:51.000Z</time>
      </trkpt>
      <trkpt lat="47.50939" lon="6.77875">
        <ele>326.5</ele>
        <time>2014-09-28T10:00:52.000Z</time>
      </trkpt>
      <trkpt lat="47.50938" lon="6.77868">
        <ele>326.2</ele>
        <time>2014-09-28T10:00:53.000Z</time>
      </trkpt>
      <trkpt lat="47.50937" lon="6.77861">
        <ele>325.8</ele>
        <time>2014-09-28T10:00:54.000Z</time>
      </trkpt>
      <trkpt lat="47.50935" lon="6.77854">
        <ele>325.7</ele>
        <time>2014-09-28T10:00:55.000Z</time>
      </trkpt>
      <trkpt lat="47.50933" lon="6.77846">
        <ele>324.8</ele>
        <time>2014-09-28T10:00:56.000Z</time>
      </trkpt>
      <trkpt lat="47.50932" lon="6.7784">
        <ele>324.5</ele>
        <time>2014-09-28T10:00:57.000Z</time>
      </trkpt>
      <trkpt lat="47.5093" lon="6.77833">
        <ele>323.6</ele>
        <time>2014-09-28T10:00:58.000Z</time>
      </trkpt>
      <trkpt lat="47.50927" lon="6.77827">
        <ele>323.7</ele>
        <time>2014-09-28T10:00:59.000Z</time>
      </trkpt>
      <trkpt lat="47.50926" lon="6.77821">
        <ele>323.2</ele>
        <time>2014-09-28T10:01:00.000Z</time>
      </trkpt>
      <trkpt lat="47.50925" lon="6.77816">
        <ele>323.3</ele>
        <time>2014-09-28T10:01:01.000Z</time>
      </trkpt>
      <trkpt lat="47.50923" lon="6.77809">
        <ele>322.4</ele>
        <time>2014-09-28T10:01:02.000Z</time>
      </trkpt>
      <trkpt lat="47.50922" lon="6.77799">
        <ele>323.9</ele>
        <time>2014-09-28T10:01:03.000Z</time>
      </trkpt>
      <trkpt lat="47.5092" lon="6.77791">
        <ele>324.7</ele>
        <time>2014-09-28T10:01:04.000Z</time>
      </trkpt>
      <trkpt lat="47.50917" lon="6.77784">
        <ele>324.3</ele>
        <time>2014-09-28T10:01:05.000Z</time>
      </trkpt>
      <trkpt lat="47.50914" lon="6.77778">
        <ele>324.3</ele>
        <time>2014-09-28T10:01:06.000Z</time>
      </trkpt>
      <trkpt lat="47.50911" lon="6.77771">
        <ele>324.3</ele>
        <time>2014-09-28T10:01:07.000Z</time>
      </trkpt>
      <trkpt lat="47.50909" lon="6.77765">
        <ele>324.4</ele>
        <time>2014-09-28T10:01:08.000Z</time>
      </trkpt>
      <trkpt lat="47.50906" lon="6.77759">
        <ele>324.2</ele>
        <time>2014-09-28T10:01:09.000Z</time>
      </trkpt>
      <trkpt lat="47.50905" lon="6.77753">
        <ele>324.1</ele>
        <time>2014-09-28T10:01:10.000Z</time>
      </trkpt>
      <trkpt lat="47.50907" lon="6.77748">
        <ele>325.8</ele>
        <time>2014-09-28T10:01:13.000Z</time>
      </trkpt>
      <trkpt lat="47.50906" lon="6.77744">
        <ele>325.8</ele>
        <time>2014-09-28T10:01:14.000Z</time>
      </trkpt>
      <trkpt lat="47.50906" lon="6.77736">
        <ele>332.7</ele>
        <time>2014-09-28T10:01:15.000Z</time>
      </trkpt>
      <trkpt lat="47.50904" lon="6.77729">
        <ele>334.6</ele>
        <time>2014-09-28T10:01:16.000Z</time>
      </trkpt>
      <trkpt lat="47.50899" lon="6.77723">
        <ele>334.3</ele>
        <time>2014-09-28T10:01:17.000Z</time>
      </trkpt>
      <trkpt lat="47.50897" lon="6.7772">
        <ele>334.4</ele>
        <time>2014-09-28T10:01:18.000Z</time>
      </trkpt>
      <trkpt lat="47.50897" lon="6.77713">
        <ele>330.8</ele>
        <time>2014-09-28T10:01:19.000Z</time>
      </trkpt>
      <trkpt lat="47.50897" lon="6.77709">
        <ele>329.7</ele>
        <time>2014-09-28T10:01:20.000Z</time>
      </trkpt>
      <trkpt lat="47.50899" lon="6.77706">
        <ele>327.9</ele>
        <time>2014-09-28T10:01:21.000Z</time>
      </trkpt>
      <trkpt lat="47.50902" lon="6.77703">
        <ele>327.6</ele>
        <time>2014-09-28T10:01:22.000Z</time>
      </trkpt>
      <trkpt lat="47.50905" lon="6.77702">
        <ele>327.4</ele>
        <time>2014-09-28T10:01:23.000Z</time>
      </trkpt>
      <trkpt lat="47.50909" lon="6.777">
        <ele>326.9</ele>
        <time>2014-09-28T10:01:24.000Z</time>
      </trkpt>
      <trkpt lat="47.50914" lon="6.77699">
        <ele>327</ele>
        <time>2014-09-28T10:01:25.000Z</time>
      </trkpt>
      <trkpt lat="47.50918" lon="6.77698">
        <ele>326.7</ele>
        <time>2014-09-28T10:01:26.000Z</time>
      </trkpt>
      <trkpt lat="47.50921" lon="6.77698">
        <ele>326.5</ele>
        <time>2014-09-28T10:01:27.000Z</time>
      </trkpt>
      <trkpt lat="47.50925" lon="6.777">
        <ele>326.2</ele>
        <time>2014-09-28T10:01:30.000Z</time>
      </trkpt>
      <trkpt lat="47.50927" lon="6.777">
        <ele>325.8</ele>
        <time>2014-09-28T10:01:31.000Z</time>
      </trkpt>
      <trkpt lat="47.50935" lon="6.77697">
        <ele>325.7</ele>
        <time>2014-09-28T10:01:32.000Z</time>
      </trkpt>
      <trkpt lat="47.50939" lon="6.77697">
        <ele>323.7</ele>
        <time>2014-09-28T10:01:34.000Z</time>
      </trkpt>
      <trkpt lat="47.50941" lon="6.77698">
        <ele>322.7</ele>
        <time>2014-09-28T10:01:35.000Z</time>
      </trkpt>
      <trkpt lat="47.50944" lon="6.77698">
        <ele>322.6</ele>
        <time>2014-09-28T10:01:36.000Z</time>
      </trkpt>
      <trkpt lat="47.50946" lon="6.77697">
        <ele>322.6</ele>
        <time>2014-09-28T10:01:37.000Z</time>
      </trkpt>
      <trkpt lat="47.50947" lon="6.77696">
        <ele>323</ele>
        <time>2014-09-28T10:01:38.000Z</time>
      </trkpt>
      <trkpt lat="47.5095" lon="6.77693">
        <ele>323.3</ele>
        <time>2014-09-28T10:01:39.000Z</time>
      </trkpt>
      <trkpt lat="47.50952" lon="6.77691">
        <ele>324.4</ele>
        <time>2014-09-28T10:01:40.000Z</time>
      </trkpt>
      <trkpt lat="47.50954" lon="6.77689">
        <ele>324.9</ele>
        <time>2014-09-28T10:01:41.000Z</time>
      </trkpt>
      <trkpt lat="47.50957" lon="6.77689">
        <ele>326.2</ele>
        <time>2014-09-28T10:01:42.000Z</time>
      </trkpt>
      <trkpt lat="47.5096" lon="6.77691">
        <ele>325.5</ele>
        <time>2014-09-28T10:01:43.000Z</time>
      </trkpt>
      <trkpt lat="47.50962" lon="6.77693">
        <ele>325.3</ele>
        <time>2014-09-28T10:01:44.000Z</time>
      </trkpt>
      <trkpt lat="47.50965" lon="6.77696">
        <ele>324.7</ele>
        <time>2014-09-28T10:01:45.000Z</time>
      </trkpt>
      <trkpt lat="47.50969" lon="6.77699">
        <ele>324.5</ele>
        <time>2014-09-28T10:01:46.000Z</time>
      </trkpt>
      <trkpt lat="47.50972" lon="6.77703">
        <ele>323.8</ele>
        <time>2014-09-28T10:01:47.000Z</time>
      </trkpt>
      <trkpt lat="47.50976" lon="6.77706">
        <ele>324</ele>
        <time>2014-09-28T10:01:48.000Z</time>
      </trkpt>
      <trkpt lat="47.5098" lon="6.77709">
        <ele>324.2</ele>
        <time>2014-09-28T10:01:49.000Z</time>
      </trkpt>
      <trkpt lat="47.50984" lon="6.77713">
        <ele>324.6</ele>
        <time>2014-09-28T10:01:50.000Z</time>
      </trkpt>
      <trkpt lat="47.50989" lon="6.77716">
        <ele>324.2</ele>
        <time>2014-09-28T10:01:51.000Z</time>
      </trkpt>
      <trkpt lat="47.50993" lon="6.7772">
        <ele>324.6</ele>
        <time>2014-09-28T10:01:52.000Z</time>
      </trkpt>
      <trkpt lat="47.50997" lon="6.77723">
        <ele>325.6</ele>
        <time>2014-09-28T10:01:53.000Z</time>
      </trkpt>
      <trkpt lat="47.51001" lon="6.77726">
        <ele>325.9</ele>
        <time>2014-09-28T10:01:54.000Z</time>
      </trkpt>
      <trkpt lat="47.51005" lon="6.77728">
        <ele>327.3</ele>
        <time>2014-09-28T10:01:55.000Z</time>
      </trkpt>
      <trkpt lat="47.51009" lon="6.77731">
        <ele>327.6</ele>
        <time>2014-09-28T10:01:56.000Z</time>
      </trkpt>
      <trkpt lat="47.51012" lon="6.77733">
        <ele>328.4</ele>
        <time>2014-09-28T10:01:57.000Z</time>
      </trkpt>
      <trkpt lat="47.51016" lon="6.77735">
        <ele>328.4</ele>
        <time>2014-09-28T10:01:58.000Z</time>
      </trkpt>
      <trkpt lat="47.5102" lon="6.77737">
        <ele>328.6</ele>
        <time>2014-09-28T10:01:59.000Z</time>
      </trkpt>
      <trkpt lat="47.51023" lon="6.77739">
        <ele>328.8</ele>
        <time>2014-09-28T10:02:00.000Z</time>
      </trkpt>
      <trkpt lat="47.51026" lon="6.7774">
        <ele>329.4</ele>
        <time>2014-09-28T10:02:01.000Z</time>
      </trkpt>
      <trkpt lat="47.51029" lon="6.7774">
        <ele>329.6</ele>
        <time>2014-09-28T10:02:02.000Z</time>
      </trkpt>
      <trkpt lat="47.51031" lon="6.7774">
        <ele>329.6</ele>
        <time>2014-09-28T10:02:03.000Z</time>
      </trkpt>
      <trkpt lat="47.51034" lon="6.7774">
        <ele>329.8</ele>
        <time>2014-09-28T10:02:04.000Z</time>
      </trkpt>
      <trkpt lat="47.51036" lon="6.7774">
        <ele>330.2</ele>
        <time>2014-09-28T10:02:05.000Z</time>
      </trkpt>
      <trkpt lat="47.51039" lon="6.77741">
        <ele>329.3</ele>
        <time>2014-09-28T10:02:06.000Z</time>
      </trkpt>
      <trkpt lat="47.51042" lon="6.77744">
        <ele>330.7</ele>
        <time>2014-09-28T10:02:08.000Z</time>
      </trkpt>
      <trkpt lat="47.51044" lon="6.77746">
        <ele>331.2</ele>
        <time>2014-09-28T10:02:09.000Z</time>
      </trkpt>
      <trkpt lat="47.51046" lon="6.77748">
        <ele>330.7</ele>
        <time>2014-09-28T10:02:10.000Z</time>
      </trkpt>
      <trkpt lat="47.51048" lon="6.77751">
        <ele>329.2</ele>
        <time>2014-09-28T10:02:11.000Z</time>
      </trkpt>
      <trkpt lat="47.51051" lon="6.77754">
        <ele>327.8</ele>
        <time>2014-09-28T10:02:12.000Z</time>
      </trkpt>
      <trkpt lat="47.51055" lon="6.77756">
        <ele>328.2</ele>
        <time>2014-09-28T10:02:13.000Z</time>
      </trkpt>
      <trkpt lat="47.51058" lon="6.77758">
        <ele>328</ele>
        <time>2014-09-28T10:02:14.000Z</time>
      </trkpt>
      <trkpt lat="47.51062" lon="6.77759">
        <ele>328.3</ele>
        <time>2014-09-28T10:02:15.000Z</time>
      </trkpt>
      <trkpt lat="47.51067" lon="6.77761">
        <ele>328.4</ele>
        <time>2014-09-28T10:02:16.000Z</time>
      </trkpt>
      <trkpt lat="47.5107" lon="6.77762">
        <ele>328.9</ele>
        <time>2014-09-28T10:02:17.000Z</time>
      </trkpt>
      <trkpt lat="47.51074" lon="6.77762">
        <ele>328.7</ele>
        <time>2014-09-28T10:02:18.000Z</time>
      </trkpt>
      <trkpt lat="47.51078" lon="6.77762">
        <ele>328.8</ele>
        <time>2014-09-28T10:02:19.000Z</time>
      </trkpt>
      <trkpt lat="47.51082" lon="6.77762">
        <ele>330.1</ele>
        <time>2014-09-28T10:02:20.000Z</time>
      </trkpt>
      <trkpt lat="47.51086" lon="6.77763">
        <ele>331.3</ele>
        <time>2014-09-28T10:02:21.000Z</time>
      </trkpt>
      <trkpt lat="47.51089" lon="6.77762">
        <ele>332.7</ele>
        <time>2014-09-28T10:02:22.000Z</time>
      </trkpt>
      <trkpt lat="47.51092" lon="6.77762">
        <ele>333.6</ele>
        <time>2014-09-28T10:02:23.000Z</time>
      </trkpt>
      <trkpt lat="47.51095" lon="6.77761">
        <ele>334</ele>
        <time>2014-09-28T10:02:24.000Z</time>
      </trkpt>
      <trkpt lat="47.51099" lon="6.77761">
        <ele>334.4</ele>
        <time>2014-09-28T10:02:25.000Z</time>
      </trkpt>
      <trkpt lat="47.51102" lon="6.77761">
        <ele>334.1</ele>
        <time>2014-09-28T10:02:26.000Z</time>
      </trkpt>
      <trkpt lat="47.51105" lon="6.77762">
        <ele>332.8</ele>
        <time>2014-09-28T10:02:27.000Z</time>
      </trkpt>
      <trkpt lat="47.51132" lon="6.77768">
        <ele>333.2</ele>
        <time>2014-09-28T10:02:35.000Z</time>
      </trkpt>
      <trkpt lat="47.51135" lon="6.77768">
        <ele>333.1</ele>
        <time>2014-09-28T10:02:36.000Z</time>
      </trkpt>
      <trkpt lat="47.51137" lon="6.77768">
        <ele>333.6</ele>
        <time>2014-09-28T10:02:37.000Z</time>
      </trkpt>
      <trkpt lat="47.5114" lon="6.77768">
        <ele>333.7</ele>
        <time>2014-09-28T10:02:38.000Z</time>
      </trkpt>
      <trkpt lat="47.51142" lon="6.77768">
        <ele>334</ele>
        <time>2014-09-28T10:02:39.000Z</time>
      </trkpt>
      <trkpt lat="47.51146" lon="6.77769">
        <ele>333.4</ele>
        <time>2014-09-28T10:02:41.000Z</time>
      </trkpt>
      <trkpt lat="47.51148" lon="6.77771">
        <ele>333</ele>
        <time>2014-09-28T10:02:42.000Z</time>
      </trkpt>
      <trkpt lat="47.51151" lon="6.77774">
        <ele>332.7</ele>
        <time>2014-09-28T10:02:43.000Z</time>
      </trkpt>
      <trkpt lat="47.51154" lon="6.77775">
        <ele>332.3</ele>
        <time>2014-09-28T10:02:44.000Z</time>
      </trkpt>
      <trkpt lat="47.51157" lon="6.77776">
        <ele>331.7</ele>
        <time>2014-09-28T10:02:45.000Z</time>
      </trkpt>
      <trkpt lat="47.5116" lon="6.77778">
        <ele>331.3</ele>
        <time>2014-09-28T10:02:46.000Z</time>
      </trkpt>
      <trkpt lat="47.51163" lon="6.77778">
        <ele>331.3</ele>
        <time>2014-09-28T10:02:47.000Z</time>
      </trkpt>
      <trkpt lat="47.51166" lon="6.77779">
        <ele>331.2</ele>
        <time>2014-09-28T10:02:48.000Z</time>
      </trkpt>
      <trkpt lat="47.51169" lon="6.77779">
        <ele>331.5</ele>
        <time>2014-09-28T10:02:49.000Z</time>
      </trkpt>
      <trkpt lat="47.51171" lon="6.7778">
        <ele>331</ele>
        <time>2014-09-28T10:02:50.000Z</time>
      </trkpt>
      <trkpt lat="47.51174" lon="6.7778">
        <ele>330.9</ele>
        <time>2014-09-28T10:02:51.000Z</time>
      </trkpt>
      <trkpt lat="47.51176" lon="6.77781">
        <ele>331.3</ele>
        <time>2014-09-28T10:02:52.000Z</time>
      </trkpt>
      <trkpt lat="47.51179" lon="6.77781">
        <ele>331.4</ele>
        <time>2014-09-28T10:02:53.000Z</time>
      </trkpt>
      <trkpt lat="47.51181" lon="6.77782">
        <ele>331.9</ele>
        <time>2014-09-28T10:02:54.000Z</time>
      </trkpt>
      <trkpt lat="47.51183" lon="6.77782">
        <ele>330.6</ele>
        <time>2014-09-28T10:02:55.000Z</time>
      </trkpt>
      <trkpt lat="47.51186" lon="6.77782">
        <ele>330.5</ele>
        <time>2014-09-28T10:02:56.000Z</time>
      </trkpt>
      <trkpt lat="47.51189" lon="6.77781">
        <ele>329.9</ele>
        <time>2014-09-28T10:02:57.000Z</time>
      </trkpt>
      <trkpt lat="47.51192" lon="6.77781">
        <ele>331.3</ele>
        <time>2014-09-28T10:02:58.000Z</time>
      </trkpt>
      <trkpt lat="47.51195" lon="6.7778">
        <ele>331</ele>
        <time>2014-09-28T10:02:59.000Z</time>
      </trkpt>
      <trkpt lat="47.51197" lon="6.7778">
        <ele>331.5</ele>
        <time>2014-09-28T10:03:00.000Z</time>
      </trkpt>
      <trkpt lat="47.512" lon="6.77779">
        <ele>331.4</ele>
        <time>2014-09-28T10:03:01.000Z</time>
      </trkpt>
      <trkpt lat="47.51203" lon="6.7778">
        <ele>331.3</ele>
        <time>2014-09-28T10:03:02.000Z</time>
      </trkpt>
      <trkpt lat="47.51205" lon="6.7778">
        <ele>331.7</ele>
        <time>2014-09-28T10:03:03.000Z</time>
      </trkpt>
      <trkpt lat="47.51208" lon="6.7778">
        <ele>332.4</ele>
        <time>2014-09-28T10:03:04.000Z</time>
      </trkpt>
      <trkpt lat="47.5121" lon="6.7778">
        <ele>331.4</ele>
        <time>2014-09-28T10:03:05.000Z</time>
      </trkpt>
      <trkpt lat="47.51213" lon="6.7778">
        <ele>330.8</ele>
        <time>2014-09-28T10:03:06.000Z</time>
      </trkpt>
      <trkpt lat="47.51217" lon="6.77778">
        <ele>332.1</ele>
        <time>2014-09-28T10:03:08.000Z</time>
      </trkpt>
      <trkpt lat="47.51219" lon="6.77777">
        <ele>332.3</ele>
        <time>2014-09-28T10:03:09.000Z</time>
      </trkpt>
      <trkpt lat="47.51222" lon="6.77776">
        <ele>333</ele>
        <time>2014-09-28T10:03:11.000Z</time>
      </trkpt>
      <trkpt lat="47.51224" lon="6.77776">
        <ele>333.3</ele>
        <time>2014-09-28T10:03:12.000Z</time>
      </trkpt>
      <trkpt lat="47.51228" lon="6.77776">
        <ele>333.5</ele>
        <time>2014-09-28T10:03:14.000Z</time>
      </trkpt>
      <trkpt lat="47.51229" lon="6.77776">
        <ele>333.4</ele>
        <time>2014-09-28T10:03:15.000Z</time>
      </trkpt>
      <trkpt lat="47.51233" lon="6.77776">
        <ele>335</ele>
        <time>2014-09-28T10:03:17.000Z</time>
      </trkpt>
      <trkpt lat="47.51234" lon="6.77776">
        <ele>335.4</ele>
        <time>2014-09-28T10:03:18.000Z</time>
      </trkpt>
      <trkpt lat="47.51238" lon="6.77776">
        <ele>336.1</ele>
        <time>2014-09-28T10:03:20.000Z</time>
      </trkpt>
      <trkpt lat="47.5124" lon="6.77776">
        <ele>336.5</ele>
        <time>2014-09-28T10:03:21.000Z</time>
      </trkpt>
      <trkpt lat="47.51242" lon="6.77776">
        <ele>336.3</ele>
        <time>2014-09-28T10:03:22.000Z</time>
      </trkpt>
      <trkpt lat="47.51244" lon="6.77776">
        <ele>336.3</ele>
        <time>2014-09-28T10:03:23.000Z</time>
      </trkpt>
      <trkpt lat="47.51247" lon="6.77775">
        <ele>336.2</ele>
        <time>2014-09-28T10:03:24.000Z</time>
      </trkpt>
      <trkpt lat="47.51249" lon="6.77775">
        <ele>336.3</ele>
        <time>2014-09-28T10:03:25.000Z</time>
      </trkpt>
      <trkpt lat="47.51251" lon="6.77774">
        <ele>336.3</ele>
        <time>2014-09-28T10:03:26.000Z</time>
      </trkpt>
      <trkpt lat="47.51257" lon="6.77773">
        <ele>335.8</ele>
        <time>2014-09-28T10:03:29.000Z</time>
      </trkpt>
      <trkpt lat="47.51261" lon="6.77772">
        <ele>336.4</ele>
        <time>2014-09-28T10:03:31.000Z</time>
      </trkpt>
      <trkpt lat="47.51263" lon="6.77772">
        <ele>336.4</ele>
        <time>2014-09-28T10:03:32.000Z</time>
      </trkpt>
      <trkpt lat="47.51265" lon="6.77772">
        <ele>336.4</ele>
        <time>2014-09-28T10:03:33.000Z</time>
      </trkpt>
      <trkpt lat="47.51267" lon="6.77772">
        <ele>337.3</ele>
        <time>2014-09-28T10:03:34.000Z</time>
      </trkpt>
      <trkpt lat="47.51272" lon="6.77772">
        <ele>338.3</ele>
        <time>2014-09-28T10:03:36.000Z</time>
      </trkpt>
      <trkpt lat="47.51273" lon="6.77772">
        <ele>338.5</ele>
        <time>2014-09-28T10:03:37.000Z</time>
      </trkpt>
      <trkpt lat="47.51277" lon="6.77773">
        <ele>338.4</ele>
        <time>2014-09-28T10:03:39.000Z</time>
      </trkpt>
      <trkpt lat="47.51279" lon="6.77773">
        <ele>338.2</ele>
        <time>2014-09-28T10:03:40.000Z</time>
      </trkpt>
      <trkpt lat="47.51283" lon="6.77772">
        <ele>337.8</ele>
        <time>2014-09-28T10:03:42.000Z</time>
      </trkpt>
      <trkpt lat="47.51285" lon="6.77772">
        <ele>337.8</ele>
        <time>2014-09-28T10:03:43.000Z</time>
      </trkpt>
      <trkpt lat="47.51289" lon="6.7777">
        <ele>339.5</ele>
        <time>2014-09-28T10:03:45.000Z</time>
      </trkpt>
      <trkpt lat="47.51291" lon="6.7777">
        <ele>339.8</ele>
        <time>2014-09-28T10:03:46.000Z</time>
      </trkpt>
      <trkpt lat="47.51294" lon="6.77769">
        <ele>339.3</ele>
        <time>2014-09-28T10:03:48.000Z</time>
      </trkpt>
      <trkpt lat="47.51296" lon="6.77769">
        <ele>339.1</ele>
        <time>2014-09-28T10:03:49.000Z</time>
      </trkpt>
      <trkpt lat="47.513" lon="6.77768">
        <ele>339.7</ele>
        <time>2014-09-28T10:03:51.000Z</time>
      </trkpt>
      <trkpt lat="47.51302" lon="6.77767">
        <ele>340</ele>
        <time>2014-09-28T10:03:52.000Z</time>
      </trkpt>
      <trkpt lat="47.51306" lon="6.77766">
        <ele>340.6</ele>
        <time>2014-09-28T10:03:54.000Z</time>
      </trkpt>
      <trkpt lat="47.51308" lon="6.77766">
        <ele>341.2</ele>
        <time>2014-09-28T10:03:55.000Z</time>
      </trkpt>
      <trkpt lat="47.51311" lon="6.77766">
        <ele>340.2</ele>
        <time>2014-09-28T10:03:57.000Z</time>
      </trkpt>
      <trkpt lat="47.51313" lon="6.77767">
        <ele>339.9</ele>
        <time>2014-09-28T10:03:58.000Z</time>
      </trkpt>
      <trkpt lat="47.51318" lon="6.77766">
        <ele>339.2</ele>
        <time>2014-09-28T10:04:01.000Z</time>
      </trkpt>
      <trkpt lat="47.51318" lon="6.77766">
        <ele>339.1</ele>
        <time>2014-09-28T10:04:02.000Z</time>
      </trkpt>
      <trkpt lat="47.51322" lon="6.77769">
        <ele>340.1</ele>
        <time>2014-09-28T10:04:06.000Z</time>
      </trkpt>
      <trkpt lat="47.51323" lon="6.7777">
        <ele>340.3</ele>
        <time>2014-09-28T10:04:07.000Z</time>
      </trkpt>
      <trkpt lat="47.51327" lon="6.77772">
        <ele>339.8</ele>
        <time>2014-09-28T10:04:09.000Z</time>
      </trkpt>
      <trkpt lat="47.51328" lon="6.77773">
        <ele>339</ele>
        <time>2014-09-28T10:04:10.000Z</time>
      </trkpt>
      <trkpt lat="47.51332" lon="6.77773">
        <ele>339.7</ele>
        <time>2014-09-28T10:04:12.000Z</time>
      </trkpt>
      <trkpt lat="47.51333" lon="6.77772">
        <ele>340.5</ele>
        <time>2014-09-28T10:04:13.000Z</time>
      </trkpt>
      <trkpt lat="47.51336" lon="6.7777">
        <ele>340.3</ele>
        <time>2014-09-28T10:04:15.000Z</time>
      </trkpt>
      <trkpt lat="47.51338" lon="6.77769">
        <ele>341.4</ele>
        <time>2014-09-28T10:04:16.000Z</time>
      </trkpt>
      <trkpt lat="47.5134" lon="6.77766">
        <ele>341.9</ele>
        <time>2014-09-28T10:04:18.000Z</time>
      </trkpt>
      <trkpt lat="47.51342" lon="6.77765">
        <ele>342.1</ele>
        <time>2014-09-28T10:04:19.000Z</time>
      </trkpt>
      <trkpt lat="47.51345" lon="6.77762">
        <ele>342.9</ele>
        <time>2014-09-28T10:04:21.000Z</time>
      </trkpt>
      <trkpt lat="47.51346" lon="6.77761">
        <ele>342.8</ele>
        <time>2014-09-28T10:04:22.000Z</time>
      </trkpt>
      <trkpt lat="47.5135" lon="6.77758">
        <ele>343.5</ele>
        <time>2014-09-28T10:04:24.000Z</time>
      </trkpt>
      <trkpt lat="47.51352" lon="6.77757">
        <ele>344</ele>
        <time>2014-09-28T10:04:25.000Z</time>
      </trkpt>
      <trkpt lat="47.51353" lon="6.77757">
        <ele>344.4</ele>
        <time>2014-09-28T10:04:26.000Z</time>
      </trkpt>
      <trkpt lat="47.51358" lon="6.77756">
        <ele>346.5</ele>
        <time>2014-09-28T10:04:29.000Z</time>
      </trkpt>
      <trkpt lat="47.51361" lon="6.77755">
        <ele>347</ele>
        <time>2014-09-28T10:04:31.000Z</time>
      </trkpt>
      <trkpt lat="47.51363" lon="6.77754">
        <ele>347.4</ele>
        <time>2014-09-28T10:04:32.000Z</time>
      </trkpt>
      <trkpt lat="47.51366" lon="6.77751">
        <ele>347.2</ele>
        <time>2014-09-28T10:04:34.000Z</time>
      </trkpt>
      <trkpt lat="47.51368" lon="6.77749">
        <ele>347.5</ele>
        <time>2014-09-28T10:04:35.000Z</time>
      </trkpt>
      <trkpt lat="47.51372" lon="6.77748">
        <ele>347.6</ele>
        <time>2014-09-28T10:04:37.000Z</time>
      </trkpt>
      <trkpt lat="47.51374" lon="6.77748">
        <ele>347.4</ele>
        <time>2014-09-28T10:04:38.000Z</time>
      </trkpt>
      <trkpt lat="47.51377" lon="6.77747">
        <ele>347.7</ele>
        <time>2014-09-28T10:04:40.000Z</time>
      </trkpt>
      <trkpt lat="47.51379" lon="6.77746">
        <ele>347.7</ele>
        <time>2014-09-28T10:04:41.000Z</time>
      </trkpt>
      <trkpt lat="47.51382" lon="6.77745">
        <ele>348.7</ele>
        <time>2014-09-28T10:04:43.000Z</time>
      </trkpt>
      <trkpt lat="47.51383" lon="6.77745">
        <ele>348.5</ele>
        <time>2014-09-28T10:04:44.000Z</time>
      </trkpt>
      <trkpt lat="47.51387" lon="6.77744">
        <ele>347</ele>
        <time>2014-09-28T10:04:46.000Z</time>
      </trkpt>
      <trkpt lat="47.51389" lon="6.77743">
        <ele>346.7</ele>
        <time>2014-09-28T10:04:47.000Z</time>
      </trkpt>
      <trkpt lat="47.51393" lon="6.77742">
        <ele>348.8</ele>
        <time>2014-09-28T10:04:48.999Z</time>
      </trkpt>
      <trkpt lat="47.51394" lon="6.77741">
        <ele>348.7</ele>
        <time>2014-09-28T10:04:50.000Z</time>
      </trkpt>
      <trkpt lat="47.51398" lon="6.77739">
        <ele>348.4</ele>
        <time>2014-09-28T10:04:53.000Z</time>
      </trkpt>
      <trkpt lat="47.51399" lon="6.77739">
        <ele>348.8</ele>
        <time>2014-09-28T10:04:54.000Z</time>
      </trkpt>
      <trkpt lat="47.51403" lon="6.77737">
        <ele>350.1</ele>
        <time>2014-09-28T10:04:57.000Z</time>
      </trkpt>
      <trkpt lat="47.51404" lon="6.77737">
        <ele>350.1</ele>
        <time>2014-09-28T10:04:58.000Z</time>
      </trkpt>
      <trkpt lat="47.51408" lon="6.77735">
        <ele>350.7</ele>
        <time>2014-09-28T10:05:02.000Z</time>
      </trkpt>
      <trkpt lat="47.51409" lon="6.77734">
        <ele>352.1</ele>
        <time>2014-09-28T10:05:03.000Z</time>
      </trkpt>
      <trkpt lat="47.51412" lon="6.77732">
        <ele>353</ele>
        <time>2014-09-28T10:05:05.000Z</time>
      </trkpt>
      <trkpt lat="47.51413" lon="6.77731">
        <ele>352.8</ele>
        <time>2014-09-28T10:05:06.000Z</time>
      </trkpt>
      <trkpt lat="47.51417" lon="6.77729">
        <ele>352.3</ele>
        <time>2014-09-28T10:05:09.000Z</time>
      </trkpt>
      <trkpt lat="47.51418" lon="6.77728">
        <ele>352.3</ele>
        <time>2014-09-28T10:05:10.000Z</time>
      </trkpt>
      <trkpt lat="47.51421" lon="6.77727">
        <ele>353.6</ele>
        <time>2014-09-28T10:05:12.000Z</time>
      </trkpt>
      <trkpt lat="47.51423" lon="6.77727">
        <ele>354.1</ele>
        <time>2014-09-28T10:05:13.000Z</time>
      </trkpt>
      <trkpt lat="47.51426" lon="6.77726">
        <ele>354.3</ele>
        <time>2014-09-28T10:05:15.000Z</time>
      </trkpt>
      <trkpt lat="47.51427" lon="6.77726">
        <ele>354</ele>
        <time>2014-09-28T10:05:16.000Z</time>
      </trkpt>
      <trkpt lat="47.51431" lon="6.77724">
        <ele>354.6</ele>
        <time>2014-09-28T10:05:19.000Z</time>
      </trkpt>
      <trkpt lat="47.51432" lon="6.77723">
        <ele>355.2</ele>
        <time>2014-09-28T10:05:20.000Z</time>
      </trkpt>
      <trkpt lat="47.51436" lon="6.77723">
        <ele>355.7</ele>
        <time>2014-09-28T10:05:23.000Z</time>
      </trkpt>
      <trkpt lat="47.51437" lon="6.77723">
        <ele>356.2</ele>
        <time>2014-09-28T10:05:24.000Z</time>
      </trkpt>
      <trkpt lat="47.51438" lon="6.77724">
        <ele>356</ele>
        <time>2014-09-28T10:05:26.000Z</time>
      </trkpt>
      <trkpt lat="47.51441" lon="6.77724">
        <ele>357.5</ele>
        <time>2014-09-28T10:05:29.000Z</time>
      </trkpt>
      <trkpt lat="47.51445" lon="6.77724">
        <ele>358.9</ele>
        <time>2014-09-28T10:05:31.000Z</time>
      </trkpt>
      <trkpt lat="47.51446" lon="6.77723">
        <ele>358.9</ele>
        <time>2014-09-28T10:05:32.000Z</time>
      </trkpt>
      <trkpt lat="47.5145" lon="6.77723">
        <ele>360.2</ele>
        <time>2014-09-28T10:05:34.000Z</time>
      </trkpt>
      <trkpt lat="47.51451" lon="6.77723">
        <ele>360.7</ele>
        <time>2014-09-28T10:05:35.000Z</time>
      </trkpt>
      <trkpt lat="47.51455" lon="6.77723">
        <ele>360.4</ele>
        <time>2014-09-28T10:05:37.000Z</time>
      </trkpt>
      <trkpt lat="47.51457" lon="6.77722">
        <ele>361.4</ele>
        <time>2014-09-28T10:05:38.000Z</time>
      </trkpt>
      <trkpt lat="47.5146" lon="6.7772">
        <ele>361.9</ele>
        <time>2014-09-28T10:05:40.000Z</time>
      </trkpt>
      <trkpt lat="47.51462" lon="6.77719">
        <ele>362.8</ele>
        <time>2014-09-28T10:05:41.000Z</time>
      </trkpt>
      <trkpt lat="47.51465" lon="6.77718">
        <ele>363.7</ele>
        <time>2014-09-28T10:05:43.000Z</time>
      </trkpt>
      <trkpt lat="47.51467" lon="6.77718">
        <ele>363.9</ele>
        <time>2014-09-28T10:05:44.000Z</time>
      </trkpt>
      <trkpt lat="47.5147" lon="6.77718">
        <ele>363.9</ele>
        <time>2014-09-28T10:05:46.000Z</time>
      </trkpt>
      <trkpt lat="47.51471" lon="6.77719">
        <ele>363.6</ele>
        <time>2014-09-28T10:05:47.000Z</time>
      </trkpt>
      <trkpt lat="47.51475" lon="6.77719">
        <ele>363.7</ele>
        <time>2014-09-28T10:05:49.000Z</time>
      </trkpt>
      <trkpt lat="47.51476" lon="6.7772">
        <ele>363.7</ele>
        <time>2014-09-28T10:05:50.000Z</time>
      </trkpt>
      <trkpt lat="47.51481" lon="6.77722">
        <ele>364.5</ele>
        <time>2014-09-28T10:05:54.000Z</time>
      </trkpt>
      <trkpt lat="47.51482" lon="6.77722">
        <ele>364.3</ele>
        <time>2014-09-28T10:05:55.000Z</time>
      </trkpt>
      <trkpt lat="47.51485" lon="6.77723">
        <ele>364.2</ele>
        <time>2014-09-28T10:05:57.000Z</time>
      </trkpt>
      <trkpt lat="47.51486" lon="6.77724">
        <ele>364.7</ele>
        <time>2014-09-28T10:05:58.000Z</time>
      </trkpt>
      <trkpt lat="47.5149" lon="6.77723">
        <ele>365.5</ele>
        <time>2014-09-28T10:06:00.000Z</time>
      </trkpt>
      <trkpt lat="47.51492" lon="6.77723">
        <ele>366.5</ele>
        <time>2014-09-28T10:06:01.000Z</time>
      </trkpt>
      <trkpt lat="47.51496" lon="6.77722">
        <ele>367</ele>
        <time>2014-09-28T10:06:04.000Z</time>
      </trkpt>
      <trkpt lat="47.51497" lon="6.77721">
        <ele>367.2</ele>
        <time>2014-09-28T10:06:05.000Z</time>
      </trkpt>
      <trkpt lat="47.51501" lon="6.7772">
        <ele>366.8</ele>
        <time>2014-09-28T10:06:08.000Z</time>
      </trkpt>
      <trkpt lat="47.51503" lon="6.7772">
        <ele>366.7</ele>
        <time>2014-09-28T10:06:09.000Z</time>
      </trkpt>
      <trkpt lat="47.51506" lon="6.7772">
        <ele>369.6</ele>
        <time>2014-09-28T10:06:11.000Z</time>
      </trkpt>
      <trkpt lat="47.51508" lon="6.77721">
        <ele>370.4</ele>
        <time>2014-09-28T10:06:12.000Z</time>
      </trkpt>
      <trkpt lat="47.51512" lon="6.77723">
        <ele>372.4</ele>
        <time>2014-09-28T10:06:15.000Z</time>
      </trkpt>
      <trkpt lat="47.51513" lon="6.77723">
        <ele>373.3</ele>
        <time>2014-09-28T10:06:16.000Z</time>
      </trkpt>
      <trkpt lat="47.51517" lon="6.77722">
        <ele>372.2</ele>
        <time>2014-09-28T10:06:19.000Z</time>
      </trkpt>
      <trkpt lat="47.51518" lon="6.77722">
        <ele>372.8</ele>
        <time>2014-09-28T10:06:20.000Z</time>
      </trkpt>
      <trkpt lat="47.51522" lon="6.77719">
        <ele>371.4</ele>
        <time>2014-09-28T10:06:23.000Z</time>
      </trkpt>
      <trkpt lat="47.51523" lon="6.77718">
        <ele>373.5</ele>
        <time>2014-09-28T10:06:24.000Z</time>
      </trkpt>
      <trkpt lat="47.51526" lon="6.77717">
        <ele>374.5</ele>
        <time>2014-09-28T10:06:26.000Z</time>
      </trkpt>
      <trkpt lat="47.51529" lon="6.77715">
        <ele>375.4</ele>
        <time>2014-09-28T10:06:29.000Z</time>
      </trkpt>
      <trkpt lat="47.51532" lon="6.77715">
        <ele>376.2</ele>
        <time>2014-09-28T10:06:32.000Z</time>
      </trkpt>
      <trkpt lat="47.51534" lon="6.77715">
        <ele>375.9</ele>
        <time>2014-09-28T10:06:33.000Z</time>
      </trkpt>
      <trkpt lat="47.51537" lon="6.77717">
        <ele>376</ele>
        <time>2014-09-28T10:06:35.000Z</time>
      </trkpt>
      <trkpt lat="47.51538" lon="6.77718">
        <ele>377</ele>
        <time>2014-09-28T10:06:36.000Z</time>
      </trkpt>
      <trkpt lat="47.51541" lon="6.77719">
        <ele>378</ele>
        <time>2014-09-28T10:06:38.000Z</time>
      </trkpt>
      <trkpt lat="47.51543" lon="6.7772">
        <ele>378.3</ele>
        <time>2014-09-28T10:06:39.000Z</time>
      </trkpt>
      <trkpt lat="47.51547" lon="6.77721">
        <ele>378.6</ele>
        <time>2014-09-28T10:06:41.000Z</time>
      </trkpt>
      <trkpt lat="47.5155" lon="6.77721">
        <ele>378</ele>
        <time>2014-09-28T10:06:42.000Z</time>
      </trkpt>
      <trkpt lat="47.51553" lon="6.77722">
        <ele>378.3</ele>
        <time>2014-09-28T10:06:44.000Z</time>
      </trkpt>
      <trkpt lat="47.51554" lon="6.77723">
        <ele>378.6</ele>
        <time>2014-09-28T10:06:45.000Z</time>
      </trkpt>
      <trkpt lat="47.51558" lon="6.77723">
        <ele>379.1</ele>
        <time>2014-09-28T10:06:48.000Z</time>
      </trkpt>
      <trkpt lat="47.5156" lon="6.77723">
        <ele>379.7</ele>
        <time>2014-09-28T10:06:49.000Z</time>
      </trkpt>
      <trkpt lat="47.51564" lon="6.77722">
        <ele>380.2</ele>
        <time>2014-09-28T10:06:52.000Z</time>
      </trkpt>
      <trkpt lat="47.51565" lon="6.77722">
        <ele>379.7</ele>
        <time>2014-09-28T10:06:53.000Z</time>
      </trkpt>
      <trkpt lat="47.51569" lon="6.77722">
        <ele>379.6</ele>
        <time>2014-09-28T10:06:55.000Z</time>
      </trkpt>
      <trkpt lat="47.51571" lon="6.77723">
        <ele>379.6</ele>
        <time>2014-09-28T10:06:56.000Z</time>
      </trkpt>
      <trkpt lat="47.51574" lon="6.77724">
        <ele>379</ele>
        <time>2014-09-28T10:06:58.000Z</time>
      </trkpt>
      <trkpt lat="47.51576" lon="6.77725">
        <ele>378.9</ele>
        <time>2014-09-28T10:06:59.000Z</time>
      </trkpt>
      <trkpt lat="47.5158" lon="6.77726">
        <ele>379.5</ele>
        <time>2014-09-28T10:07:01.000Z</time>
      </trkpt>
      <trkpt lat="47.51581" lon="6.77727">
        <ele>378.9</ele>
        <time>2014-09-28T10:07:02.000Z</time>
      </trkpt>
      <trkpt lat="47.51584" lon="6.77729">
        <ele>379.3</ele>
        <time>2014-09-28T10:07:04.000Z</time>
      </trkpt>
      <trkpt lat="47.51586" lon="6.7773">
        <ele>380.6</ele>
        <time>2014-09-28T10:07:05.000Z</time>
      </trkpt>
      <trkpt lat="47.5159" lon="6.77733">
        <ele>383.8</ele>
        <time>2014-09-28T10:07:09.000Z</time>
      </trkpt>
      <trkpt lat="47.51591" lon="6.77734">
        <ele>384</ele>
        <time>2014-09-28T10:07:10.000Z</time>
      </trkpt>
      <trkpt lat="47.51593" lon="6.77738">
        <ele>383.9</ele>
        <time>2014-09-28T10:07:12.000Z</time>
      </trkpt>
      <trkpt lat="47.51595" lon="6.77739">
        <ele>384.8</ele>
        <time>2014-09-28T10:07:13.000Z</time>
      </trkpt>
      <trkpt lat="47.51598" lon="6.77742">
        <ele>383.2</ele>
        <time>2014-09-28T10:07:15.000Z</time>
      </trkpt>
      <trkpt lat="47.516" lon="6.77743">
        <ele>384.7</ele>
        <time>2014-09-28T10:07:16.000Z</time>
      </trkpt>
      <trkpt lat="47.51603" lon="6.77745">
        <ele>385.4</ele>
        <time>2014-09-28T10:07:18.000Z</time>
      </trkpt>
      <trkpt lat="47.51605" lon="6.77745">
        <ele>385.3</ele>
        <time>2014-09-28T10:07:19.000Z</time>
      </trkpt>
      <trkpt lat="47.51608" lon="6.77746">
        <ele>386.3</ele>
        <time>2014-09-28T10:07:22.000Z</time>
      </trkpt>
      <trkpt lat="47.5161" lon="6.77746">
        <ele>386.4</ele>
        <time>2014-09-28T10:07:23.000Z</time>
      </trkpt>
      <trkpt lat="47.51613" lon="6.77745">
        <ele>385.8</ele>
        <time>2014-09-28T10:07:26.000Z</time>
      </trkpt>
      <trkpt lat="47.51616" lon="6.77744">
        <ele>386.7</ele>
        <time>2014-09-28T10:07:29.000Z</time>
      </trkpt>
      <trkpt lat="47.51619" lon="6.77744">
        <ele>386.7</ele>
        <time>2014-09-28T10:07:31.000Z</time>
      </trkpt>
      <trkpt lat="47.51621" lon="6.77744">
        <ele>387</ele>
        <time>2014-09-28T10:07:32.000Z</time>
      </trkpt>
      <trkpt lat="47.51625" lon="6.77745">
        <ele>386.5</ele>
        <time>2014-09-28T10:07:34.000Z</time>
      </trkpt>
      <trkpt lat="47.51627" lon="6.77746">
        <ele>385.7</ele>
        <time>2014-09-28T10:07:35.000Z</time>
      </trkpt>
      <trkpt lat="47.51631" lon="6.77747">
        <ele>386</ele>
        <time>2014-09-28T10:07:37.000Z</time>
      </trkpt>
      <trkpt lat="47.51633" lon="6.77748">
        <ele>385.8</ele>
        <time>2014-09-28T10:07:38.000Z</time>
      </trkpt>
      <trkpt lat="47.51636" lon="6.77748">
        <ele>383.7</ele>
        <time>2014-09-28T10:07:40.000Z</time>
      </trkpt>
      <trkpt lat="47.51638" lon="6.77747">
        <ele>384.1</ele>
        <time>2014-09-28T10:07:41.000Z</time>
      </trkpt>
      <trkpt lat="47.51641" lon="6.77748">
        <ele>384.3</ele>
        <time>2014-09-28T10:07:43.000Z</time>
      </trkpt>
      <trkpt lat="47.51643" lon="6.77749">
        <ele>383.5</ele>
        <time>2014-09-28T10:07:44.000Z</time>
      </trkpt>
      <trkpt lat="47.51647" lon="6.77751">
        <ele>383.2</ele>
        <time>2014-09-28T10:07:46.000Z</time>
      </trkpt>
      <trkpt lat="47.51648" lon="6.77752">
        <ele>384.3</ele>
        <time>2014-09-28T10:07:47.000Z</time>
      </trkpt>
      <trkpt lat="47.51653" lon="6.77753">
        <ele>386.5</ele>
        <time>2014-09-28T10:07:50.000Z</time>
      </trkpt>
      <trkpt lat="47.51654" lon="6.77754">
        <ele>386</ele>
        <time>2014-09-28T10:07:51.000Z</time>
      </trkpt>
      <trkpt lat="47.51657" lon="6.77754">
        <ele>385.8</ele>
        <time>2014-09-28T10:07:53.000Z</time>
      </trkpt>
      <trkpt lat="47.51659" lon="6.77755">
        <ele>387</ele>
        <time>2014-09-28T10:07:54.000Z</time>
      </trkpt>
      <trkpt lat="47.51663" lon="6.77757">
        <ele>385.5</ele>
        <time>2014-09-28T10:07:56.000Z</time>
      </trkpt>
      <trkpt lat="47.51665" lon="6.77758">
        <ele>384.9</ele>
        <time>2014-09-28T10:07:57.000Z</time>
      </trkpt>
      <trkpt lat="47.51668" lon="6.77758">
        <ele>385.8</ele>
        <time>2014-09-28T10:07:59.000Z</time>
      </trkpt>
      <trkpt lat="47.51669" lon="6.77758">
        <ele>385.2</ele>
        <time>2014-09-28T10:08:00.000Z</time>
      </trkpt>
      <trkpt lat="47.51673" lon="6.77759">
        <ele>384.7</ele>
        <time>2014-09-28T10:08:02.000Z</time>
      </trkpt>
      <trkpt lat="47.51675" lon="6.77758">
        <ele>385.5</ele>
        <time>2014-09-28T10:08:03.000Z</time>
      </trkpt>
      <trkpt lat="47.51679" lon="6.77756">
        <ele>385.2</ele>
        <time>2014-09-28T10:08:05.000Z</time>
      </trkpt>
      <trkpt lat="47.51681" lon="6.77755">
        <ele>384.9</ele>
        <time>2014-09-28T10:08:06.000Z</time>
      </trkpt>
      <trkpt lat="47.51683" lon="6.77752">
        <ele>385.3</ele>
        <time>2014-09-28T10:08:08.000Z</time>
      </trkpt>
      <trkpt lat="47.51685" lon="6.77751">
        <ele>385.3</ele>
        <time>2014-09-28T10:08:09.000Z</time>
      </trkpt>
      <trkpt lat="47.51686" lon="6.77749">
        <ele>386.6</ele>
        <time>2014-09-28T10:08:10.000Z</time>
      </trkpt>
      <trkpt lat="47.51688" lon="6.77746">
        <ele>385.9</ele>
        <time>2014-09-28T10:08:11.000Z</time>
      </trkpt>
      <trkpt lat="47.51692" lon="6.77742">
        <ele>384.5</ele>
        <time>2014-09-28T10:08:13.000Z</time>
      </trkpt>
      <trkpt lat="47.51693" lon="6.77741">
        <ele>385.2</ele>
        <time>2014-09-28T10:08:14.000Z</time>
      </trkpt>
      <trkpt lat="47.51696" lon="6.77738">
        <ele>385.8</ele>
        <time>2014-09-28T10:08:18.000Z</time>
      </trkpt>
      <trkpt lat="47.51697" lon="6.77738">
        <ele>386</ele>
        <time>2014-09-28T10:08:19.000Z</time>
      </trkpt>
      <trkpt lat="47.517" lon="6.77736">
        <ele>386.6</ele>
        <time>2014-09-28T10:08:56.000Z</time>
      </trkpt>
      <trkpt lat="47.51701" lon="6.77733">
        <ele>385.9</ele>
        <time>2014-09-28T10:08:57.000Z</time>
      </trkpt>
      <trkpt lat="47.51702" lon="6.77728">
        <ele>384.7</ele>
        <time>2014-09-28T10:08:59.000Z</time>
      </trkpt>
      <trkpt lat="47.51702" lon="6.77725">
        <ele>384.5</ele>
        <time>2014-09-28T10:09:00.000Z</time>
      </trkpt>
      <trkpt lat="47.51703" lon="6.77718">
        <ele>384.3</ele>
        <time>2014-09-28T10:09:02.000Z</time>
      </trkpt>
      <trkpt lat="47.51703" lon="6.77715">
        <ele>384.4</ele>
        <time>2014-09-28T10:09:03.000Z</time>
      </trkpt>
      <trkpt lat="47.51704" lon="6.7771">
        <ele>385.3</ele>
        <time>2014-09-28T10:09:05.000Z</time>
      </trkpt>
      <trkpt lat="47.51704" lon="6.77708">
        <ele>385.7</ele>
        <time>2014-09-28T10:09:06.000Z</time>
      </trkpt>
      <trkpt lat="47.51705" lon="6.77703">
        <ele>387.9</ele>
        <time>2014-09-28T10:09:08.000Z</time>
      </trkpt>
      <trkpt lat="47.51705" lon="6.777">
        <ele>388.7</ele>
        <time>2014-09-28T10:09:09.000Z</time>
      </trkpt>
      <trkpt lat="47.51705" lon="6.77697">
        <ele>389.3</ele>
        <time>2014-09-28T10:09:10.000Z</time>
      </trkpt>
      <trkpt lat="47.51704" lon="6.77693">
        <ele>388.8</ele>
        <time>2014-09-28T10:09:11.000Z</time>
      </trkpt>
      <trkpt lat="47.51704" lon="6.77688">
        <ele>389</ele>
        <time>2014-09-28T10:09:12.000Z</time>
      </trkpt>
      <trkpt lat="47.51704" lon="6.77684">
        <ele>390.3</ele>
        <time>2014-09-28T10:09:13.000Z</time>
      </trkpt>
      <trkpt lat="47.51704" lon="6.77681">
        <ele>391.1</ele>
        <time>2014-09-28T10:09:14.000Z</time>
      </trkpt>
      <trkpt lat="47.51704" lon="6.77677">
        <ele>391.1</ele>
        <time>2014-09-28T10:09:15.000Z</time>
      </trkpt>
      <trkpt lat="47.51704" lon="6.77673">
        <ele>390.9</ele>
        <time>2014-09-28T10:09:16.000Z</time>
      </trkpt>
      <trkpt lat="47.51704" lon="6.77668">
        <ele>390.6</ele>
        <time>2014-09-28T10:09:17.000Z</time>
      </trkpt>
      <trkpt lat="47.51705" lon="6.77663">
        <ele>390.7</ele>
        <time>2014-09-28T10:09:18.000Z</time>
      </trkpt>
      <trkpt lat="47.51705" lon="6.77658">
        <ele>391.1</ele>
        <time>2014-09-28T10:09:19.000Z</time>
      </trkpt>
      <trkpt lat="47.51706" lon="6.77654">
        <ele>391.1</ele>
        <time>2014-09-28T10:09:20.000Z</time>
      </trkpt>
      <trkpt lat="47.51706" lon="6.77649">
        <ele>391.5</ele>
        <time>2014-09-28T10:09:21.000Z</time>
      </trkpt>
      <trkpt lat="47.51706" lon="6.77645">
        <ele>392.6</ele>
        <time>2014-09-28T10:09:22.000Z</time>
      </trkpt>
      <trkpt lat="47.51706" lon="6.77641">
        <ele>393.2</ele>
        <time>2014-09-28T10:09:23.000Z</time>
      </trkpt>
      <trkpt lat="47.51706" lon="6.77636">
        <ele>393.4</ele>
        <time>2014-09-28T10:09:24.000Z</time>
      </trkpt>
      <trkpt lat="47.51706" lon="6.77631">
        <ele>393.2</ele>
        <time>2014-09-28T10:09:25.000Z</time>
      </trkpt>
      <trkpt lat="47.51706" lon="6.77627">
        <ele>392.9</ele>
        <time>2014-09-28T10:09:26.000Z</time>
      </trkpt>
      <trkpt lat="47.51706" lon="6.77622">
        <ele>393.5</ele>
        <time>2014-09-28T10:09:27.000Z</time>
      </trkpt>
      <trkpt lat="47.51707" lon="6.77609">
        <ele>393.9</ele>
        <time>2014-09-28T10:09:30.000Z</time>
      </trkpt>
      <trkpt lat="47.51707" lon="6.77604">
        <ele>394.3</ele>
        <time>2014-09-28T10:09:31.000Z</time>
      </trkpt>
      <trkpt lat="47.51708" lon="6.776">
        <ele>395.8</ele>
        <time>2014-09-28T10:09:32.000Z</time>
      </trkpt>
      <trkpt lat="47.51708" lon="6.77595">
        <ele>396.4</ele>
        <time>2014-09-28T10:09:33.000Z</time>
      </trkpt>
      <trkpt lat="47.51709" lon="6.77591">
        <ele>396</ele>
        <time>2014-09-28T10:09:34.000Z</time>
      </trkpt>
      <trkpt lat="47.5171" lon="6.77587">
        <ele>395.8</ele>
        <time>2014-09-28T10:09:35.000Z</time>
      </trkpt>
      <trkpt lat="47.5171" lon="6.77582">
        <ele>395.6</ele>
        <time>2014-09-28T10:09:36.000Z</time>
      </trkpt>
      <trkpt lat="47.51711" lon="6.77577">
        <ele>395.8</ele>
        <time>2014-09-28T10:09:37.000Z</time>
      </trkpt>
      <trkpt lat="47.51711" lon="6.77572">
        <ele>396.7</ele>
        <time>2014-09-28T10:09:38.000Z</time>
      </trkpt>
      <trkpt lat="47.51712" lon="6.77567">
        <ele>395.5</ele>
        <time>2014-09-28T10:09:39.000Z</time>
      </trkpt>
      <trkpt lat="47.51713" lon="6.77561">
        <ele>395.9</ele>
        <time>2014-09-28T10:09:40.000Z</time>
      </trkpt>
      <trkpt lat="47.51714" lon="6.77556">
        <ele>395.6</ele>
        <time>2014-09-28T10:09:41.000Z</time>
      </trkpt>
      <trkpt lat="47.51715" lon="6.77551">
        <ele>395.2</ele>
        <time>2014-09-28T10:09:42.000Z</time>
      </trkpt>
      <trkpt lat="47.51716" lon="6.77546">
        <ele>395.3</ele>
        <time>2014-09-28T10:09:43.000Z</time>
      </trkpt>
      <trkpt lat="47.51717" lon="6.77541">
        <ele>395.2</ele>
        <time>2014-09-28T10:09:44.000Z</time>
      </trkpt>
      <trkpt lat="47.51718" lon="6.77536">
        <ele>395</ele>
        <time>2014-09-28T10:09:45.000Z</time>
      </trkpt>
      <trkpt lat="47.51719" lon="6.77531">
        <ele>395.4</ele>
        <time>2014-09-28T10:09:46.000Z</time>
      </trkpt>
      <trkpt lat="47.51719" lon="6.77526">
        <ele>395.3</ele>
        <time>2014-09-28T10:09:47.000Z</time>
      </trkpt>
      <trkpt lat="47.5172" lon="6.77522">
        <ele>394.9</ele>
        <time>2014-09-28T10:09:48.000Z</time>
      </trkpt>
      <trkpt lat="47.51721" lon="6.77517">
        <ele>395</ele>
        <time>2014-09-28T10:09:49.000Z</time>
      </trkpt>
      <trkpt lat="47.51723" lon="6.77513">
        <ele>394.1</ele>
        <time>2014-09-28T10:09:50.000Z</time>
      </trkpt>
      <trkpt lat="47.51724" lon="6.77508">
        <ele>394.5</ele>
        <time>2014-09-28T10:09:51.000Z</time>
      </trkpt>
      <trkpt lat="47.51725" lon="6.77502">
        <ele>394.1</ele>
        <time>2014-09-28T10:09:52.000Z</time>
      </trkpt>
      <trkpt lat="47.51726" lon="6.77497">
        <ele>393.9</ele>
        <time>2014-09-28T10:09:53.000Z</time>
      </trkpt>
      <trkpt lat="47.51728" lon="6.77491">
        <ele>393.9</ele>
        <time>2014-09-28T10:09:54.000Z</time>
      </trkpt>
      <trkpt lat="47.5173" lon="6.77485">
        <ele>393.7</ele>
        <time>2014-09-28T10:09:55.000Z</time>
      </trkpt>
      <trkpt lat="47.51733" lon="6.77482">
        <ele>394.3</ele>
        <time>2014-09-28T10:09:56.000Z</time>
      </trkpt>
      <trkpt lat="47.51736" lon="6.77479">
        <ele>393.7</ele>
        <time>2014-09-28T10:09:57.000Z</time>
      </trkpt>
      <trkpt lat="47.5174" lon="6.77479">
        <ele>392.7</ele>
        <time>2014-09-28T10:09:58.000Z</time>
      </trkpt>
      <trkpt lat="47.51745" lon="6.77479">
        <ele>391.1</ele>
        <time>2014-09-28T10:09:59.000Z</time>
      </trkpt>
      <trkpt lat="47.51749" lon="6.7748">
        <ele>391.2</ele>
        <time>2014-09-28T10:10:00.000Z</time>
      </trkpt>
      <trkpt lat="47.51754" lon="6.7748">
        <ele>391</ele>
        <time>2014-09-28T10:10:01.000Z</time>
      </trkpt>
      <trkpt lat="47.51758" lon="6.77481">
        <ele>392.7</ele>
        <time>2014-09-28T10:10:02.000Z</time>
      </trkpt>
      <trkpt lat="47.51762" lon="6.77482">
        <ele>391.9</ele>
        <time>2014-09-28T10:10:03.000Z</time>
      </trkpt>
      <trkpt lat="47.51767" lon="6.77483">
        <ele>389.4</ele>
        <time>2014-09-28T10:10:04.000Z</time>
      </trkpt>
      <trkpt lat="47.5177" lon="6.77484">
        <ele>389.1</ele>
        <time>2014-09-28T10:10:05.000Z</time>
      </trkpt>
      <trkpt lat="47.51776" lon="6.77485">
        <ele>387.5</ele>
        <time>2014-09-28T10:10:06.000Z</time>
      </trkpt>
      <trkpt lat="47.5178" lon="6.77486">
        <ele>388.4</ele>
        <time>2014-09-28T10:10:07.000Z</time>
      </trkpt>
      <trkpt lat="47.51784" lon="6.77488">
        <ele>388.1</ele>
        <time>2014-09-28T10:10:08.000Z</time>
      </trkpt>
      <trkpt lat="47.51788" lon="6.7749">
        <ele>387.9</ele>
        <time>2014-09-28T10:10:09.000Z</time>
      </trkpt>
      <trkpt lat="47.51792" lon="6.77493">
        <ele>387.2</ele>
        <time>2014-09-28T10:10:10.000Z</time>
      </trkpt>
      <trkpt lat="47.51796" lon="6.77495">
        <ele>387.3</ele>
        <time>2014-09-28T10:10:11.000Z</time>
      </trkpt>
      <trkpt lat="47.51801" lon="6.77496">
        <ele>387.1</ele>
        <time>2014-09-28T10:10:12.000Z</time>
      </trkpt>
      <trkpt lat="47.51804" lon="6.77494">
        <ele>386.1</ele>
        <time>2014-09-28T10:10:13.000Z</time>
      </trkpt>
      <trkpt lat="47.51806" lon="6.7749">
        <ele>386.2</ele>
        <time>2014-09-28T10:10:14.000Z</time>
      </trkpt>
      <trkpt lat="47.51807" lon="6.77486">
        <ele>385.8</ele>
        <time>2014-09-28T10:10:15.000Z</time>
      </trkpt>
      <trkpt lat="47.51806" lon="6.77482">
        <ele>385.3</ele>
        <time>2014-09-28T10:10:16.000Z</time>
      </trkpt>
      <trkpt lat="47.51806" lon="6.77477">
        <ele>384.9</ele>
        <time>2014-09-28T10:10:18.000Z</time>
      </trkpt>
      <trkpt lat="47.51806" lon="6.77474">
        <ele>384.9</ele>
        <time>2014-09-28T10:10:19.000Z</time>
      </trkpt>
      <trkpt lat="47.51806" lon="6.77468">
        <ele>388.1</ele>
        <time>2014-09-28T10:10:22.000Z</time>
      </trkpt>
      <trkpt lat="47.51807" lon="6.77466">
        <ele>388.3</ele>
        <time>2014-09-28T10:10:23.000Z</time>
      </trkpt>
      <trkpt lat="47.51804" lon="6.77461">
        <ele>390.9</ele>
        <time>2014-09-28T10:11:41.000Z</time>
      </trkpt>
      <trkpt lat="47.51804" lon="6.7746">
        <ele>391.2</ele>
        <time>2014-09-28T10:11:42.000Z</time>
      </trkpt>
      <trkpt lat="47.51802" lon="6.77455">
        <ele>391.4</ele>
        <time>2014-09-28T10:11:47.000Z</time>
      </trkpt>
      <trkpt lat="47.51801" lon="6.77454">
        <ele>391.9</ele>
        <time>2014-09-28T10:11:48.000Z</time>
      </trkpt>
      <trkpt lat="47.51797" lon="6.77453">
        <ele>393.5</ele>
        <time>2014-09-28T10:11:55.000Z</time>
      </trkpt>
      <trkpt lat="47.51796" lon="6.77453">
        <ele>393.7</ele>
        <time>2014-09-28T10:11:56.000Z</time>
      </trkpt>
      <trkpt lat="47.51795" lon="6.77459">
        <ele>393.8</ele>
        <time>2014-09-28T10:12:00.000Z</time>
      </trkpt>
      <trkpt lat="47.51795" lon="6.77461">
        <ele>393.4</ele>
        <time>2014-09-28T10:12:01.000Z</time>
      </trkpt>
      <trkpt lat="47.51797" lon="6.77465">
        <ele>392.5</ele>
        <time>2014-09-28T10:12:03.000Z</time>
      </trkpt>
      <trkpt lat="47.51797" lon="6.77467">
        <ele>392.3</ele>
        <time>2014-09-28T10:12:04.000Z</time>
      </trkpt>
      <trkpt lat="47.51797" lon="6.77472">
        <ele>391.6</ele>
        <time>2014-09-28T10:12:06.000Z</time>
      </trkpt>
      <trkpt lat="47.51798" lon="6.77474">
        <ele>391.6</ele>
        <time>2014-09-28T10:12:07.000Z</time>
      </trkpt>
      <trkpt lat="47.51799" lon="6.77479">
        <ele>392</ele>
        <time>2014-09-28T10:12:10.000Z</time>
      </trkpt>
      <trkpt lat="47.51799" lon="6.7748">
        <ele>391.9</ele>
        <time>2014-09-28T10:12:11.000Z</time>
      </trkpt>
      <trkpt lat="47.51803" lon="6.77483">
        <ele>389.6</ele>
        <time>2014-09-28T10:12:15.000Z</time>
      </trkpt>
      <trkpt lat="47.51804" lon="6.77483">
        <ele>388.3</ele>
        <time>2014-09-28T10:12:16.000Z</time>
      </trkpt>
      <trkpt lat="47.51807" lon="6.77479">
        <ele>389.2</ele>
        <time>2014-09-28T10:12:20.000Z</time>
      </trkpt>
      <trkpt lat="47.51809" lon="6.77478">
        <ele>389.2</ele>
        <time>2014-09-28T10:12:21.000Z</time>
      </trkpt>
      <trkpt lat="47.51805" lon="6.77479">
        <ele>390</ele>
        <time>2014-09-28T10:12:50.000Z</time>
      </trkpt>
      <trkpt lat="47.51804" lon="6.77479">
        <ele>390.1</ele>
        <time>2014-09-28T10:12:51.000Z</time>
      </trkpt>
      <trkpt lat="47.51804" lon="6.77479">
        <ele>389.8</ele>
        <time>2014-09-28T10:13:31.000Z</time>
      </trkpt>
    </trkseg>
  </trk>
</gpx>